<?xml version="1.0" encoding="UTF-8" standalone="no" ?>
<gpx xmlns="http://www.topografix.com/GPX/1/1" xmlns:xsi="http://www.w3.org/2001/XMLSchema-instance" xsi:schemaLocation="http://www.topografix.com/GPX/1/1 http://www.topografix.com/GPX/1/1/gpx.xsd" version="1.1" creator="VisuGPX - https://www.visugpx.com">
  <metadata>
    <name>boucle complete Digne a Digne</name>
    <desc><![CDATA[boucle mix transverdon et alpes-provence]]></desc>
  </metadata>
  <trk>
    <name><![CDATA[boucle complete Digne a Digne]]></name>
    <trkseg>
      <trkpt lat="44.09091" lon="6.23178">
        <ele>595</ele>
        <time>2017-01-29T23:36:15Z</time>
      </trkpt>
      <trkpt lat="44.09073" lon="6.23311">
        <ele>597</ele>
        <time>2017-01-29T23:38:15Z</time>
      </trkpt>
      <trkpt lat="44.09054" lon="6.23427">
        <ele>598</ele>
        <time>2017-01-29T23:40:15Z</time>
      </trkpt>
      <trkpt lat="44.0905" lon="6.23509">
        <ele>599</ele>
        <time>2017-01-29T23:42:15Z</time>
      </trkpt>
      <trkpt lat="44.09016" lon="6.23663">
        <ele>594</ele>
        <time>2017-01-29T23:44:15Z</time>
      </trkpt>
      <trkpt lat="44.09005" lon="6.23702">
        <ele>592</ele>
        <time>2017-01-29T23:46:15Z</time>
      </trkpt>
      <trkpt lat="44.08988" lon="6.23807">
        <ele>591</ele>
        <time>2017-01-29T23:48:15Z</time>
      </trkpt>
      <trkpt lat="44.08973" lon="6.23914">
        <ele>598</ele>
        <time>2017-01-29T23:50:15Z</time>
      </trkpt>
      <trkpt lat="44.08966" lon="6.23985">
        <ele>601</ele>
        <time>2017-01-29T23:52:15Z</time>
      </trkpt>
      <trkpt lat="44.08989" lon="6.24056">
        <ele>607</ele>
        <time>2017-01-29T23:54:15Z</time>
      </trkpt>
      <trkpt lat="44.09048" lon="6.24176">
        <ele>609</ele>
        <time>2017-01-29T23:56:15Z</time>
      </trkpt>
      <trkpt lat="44.09108" lon="6.24296">
        <ele>614</ele>
        <time>2017-01-29T23:58:15Z</time>
      </trkpt>
      <trkpt lat="44.09122" lon="6.24363">
        <ele>626</ele>
        <time>2017-01-30T00:00:15Z</time>
      </trkpt>
      <trkpt lat="44.09127" lon="6.2441">
        <ele>628</ele>
        <time>2017-01-30T00:02:15Z</time>
      </trkpt>
      <trkpt lat="44.09151" lon="6.24579">
        <ele>643</ele>
        <time>2017-01-30T00:04:15Z</time>
      </trkpt>
      <trkpt lat="44.09117" lon="6.24753">
        <ele>646</ele>
        <time>2017-01-30T00:06:15Z</time>
      </trkpt>
      <trkpt lat="44.09096" lon="6.24805">
        <ele>650</ele>
        <time>2017-01-30T00:08:15Z</time>
      </trkpt>
      <trkpt lat="44.09034" lon="6.24893">
        <ele>645</ele>
        <time>2017-01-30T00:10:15Z</time>
      </trkpt>
      <trkpt lat="44.09011" lon="6.24961">
        <ele>652</ele>
        <time>2017-01-30T00:12:15Z</time>
      </trkpt>
      <trkpt lat="44.08989" lon="6.25011">
        <ele>646</ele>
        <time>2017-01-30T00:14:15Z</time>
      </trkpt>
      <trkpt lat="44.08969" lon="6.25086">
        <ele>646</ele>
        <time>2017-01-30T00:16:15Z</time>
      </trkpt>
      <trkpt lat="44.08949" lon="6.25172">
        <ele>645</ele>
        <time>2017-01-30T00:18:15Z</time>
      </trkpt>
      <trkpt lat="44.08936" lon="6.25238">
        <ele>644</ele>
        <time>2017-01-30T00:20:15Z</time>
      </trkpt>
      <trkpt lat="44.08936" lon="6.25313">
        <ele>643</ele>
        <time>2017-01-30T00:22:15Z</time>
      </trkpt>
      <trkpt lat="44.08934" lon="6.25395">
        <ele>633</ele>
        <time>2017-01-30T00:24:15Z</time>
      </trkpt>
      <trkpt lat="44.0894" lon="6.2544">
        <ele>628</ele>
        <time>2017-01-30T00:26:15Z</time>
      </trkpt>
      <trkpt lat="44.09006" lon="6.25539">
        <ele>632</ele>
        <time>2017-01-30T00:28:15Z</time>
      </trkpt>
      <trkpt lat="44.09025" lon="6.25597">
        <ele>633</ele>
        <time>2017-01-30T00:30:15Z</time>
      </trkpt>
      <trkpt lat="44.09028" lon="6.25659">
        <ele>631</ele>
        <time>2017-01-30T00:32:15Z</time>
      </trkpt>
      <trkpt lat="44.09056" lon="6.25719">
        <ele>640</ele>
        <time>2017-01-30T00:34:15Z</time>
      </trkpt>
      <trkpt lat="44.09065" lon="6.25762">
        <ele>646</ele>
        <time>2017-01-30T00:36:15Z</time>
      </trkpt>
      <trkpt lat="44.09067" lon="6.25839">
        <ele>651</ele>
        <time>2017-01-30T00:38:15Z</time>
      </trkpt>
      <trkpt lat="44.09057" lon="6.25878">
        <ele>648</ele>
        <time>2017-01-30T00:40:15Z</time>
      </trkpt>
      <trkpt lat="44.08994" lon="6.25968">
        <ele>639</ele>
        <time>2017-01-30T00:42:15Z</time>
      </trkpt>
      <trkpt lat="44.0898" lon="6.26024">
        <ele>636</ele>
        <time>2017-01-30T00:44:15Z</time>
      </trkpt>
      <trkpt lat="44.08963" lon="6.26105">
        <ele>632</ele>
        <time>2017-01-30T00:46:15Z</time>
      </trkpt>
      <trkpt lat="44.08945" lon="6.26142">
        <ele>632</ele>
        <time>2017-01-30T00:48:15Z</time>
      </trkpt>
      <trkpt lat="44.08886" lon="6.26227">
        <ele>632</ele>
        <time>2017-01-30T00:50:15Z</time>
      </trkpt>
      <trkpt lat="44.08863" lon="6.26275">
        <ele>633</ele>
        <time>2017-01-30T00:52:15Z</time>
      </trkpt>
      <trkpt lat="44.08854" lon="6.26335">
        <ele>634</ele>
        <time>2017-01-30T00:54:15Z</time>
      </trkpt>
      <trkpt lat="44.08851" lon="6.26391">
        <ele>634</ele>
        <time>2017-01-30T00:56:15Z</time>
      </trkpt>
      <trkpt lat="44.08865" lon="6.26459">
        <ele>634</ele>
        <time>2017-01-30T00:58:15Z</time>
      </trkpt>
      <trkpt lat="44.08939" lon="6.26695">
        <ele>640</ele>
        <time>2017-01-30T01:00:15Z</time>
      </trkpt>
      <trkpt lat="44.08985" lon="6.26794">
        <ele>643</ele>
        <time>2017-01-30T01:02:15Z</time>
      </trkpt>
      <trkpt lat="44.09033" lon="6.26895">
        <ele>643</ele>
        <time>2017-01-30T01:04:15Z</time>
      </trkpt>
      <trkpt lat="44.0904" lon="6.26966">
        <ele>641</ele>
        <time>2017-01-30T01:06:15Z</time>
      </trkpt>
      <trkpt lat="44.0905" lon="6.27127">
        <ele>643</ele>
        <time>2017-01-30T01:08:15Z</time>
      </trkpt>
      <trkpt lat="44.09011" lon="6.27247">
        <ele>645</ele>
        <time>2017-01-30T01:10:15Z</time>
      </trkpt>
      <trkpt lat="44.08945" lon="6.27483">
        <ele>650</ele>
        <time>2017-01-30T01:12:15Z</time>
      </trkpt>
      <trkpt lat="44.08912" lon="6.2759">
        <ele>650</ele>
        <time>2017-01-30T01:14:15Z</time>
      </trkpt>
      <trkpt lat="44.08897" lon="6.27676">
        <ele>648</ele>
        <time>2017-01-30T01:16:15Z</time>
      </trkpt>
      <trkpt lat="44.08902" lon="6.27729">
        <ele>648</ele>
        <time>2017-01-30T01:18:15Z</time>
      </trkpt>
      <trkpt lat="44.08928" lon="6.27824">
        <ele>654</ele>
        <time>2017-01-30T01:20:15Z</time>
      </trkpt>
      <trkpt lat="44.08949" lon="6.27893">
        <ele>665</ele>
        <time>2017-01-30T01:22:15Z</time>
      </trkpt>
      <trkpt lat="44.08962" lon="6.27963">
        <ele>676</ele>
        <time>2017-01-30T01:24:15Z</time>
      </trkpt>
      <trkpt lat="44.08949" lon="6.28013">
        <ele>672</ele>
        <time>2017-01-30T01:26:15Z</time>
      </trkpt>
      <trkpt lat="44.08915" lon="6.28051">
        <ele>662</ele>
        <time>2017-01-30T01:28:15Z</time>
      </trkpt>
      <trkpt lat="44.089" lon="6.2809">
        <ele>668</ele>
        <time>2017-01-30T01:30:15Z</time>
      </trkpt>
      <trkpt lat="44.08892" lon="6.28135">
        <ele>668</ele>
        <time>2017-01-30T01:32:15Z</time>
      </trkpt>
      <trkpt lat="44.08909" lon="6.28182">
        <ele>672</ele>
        <time>2017-01-30T01:34:15Z</time>
      </trkpt>
      <trkpt lat="44.08948" lon="6.28255">
        <ele>682</ele>
        <time>2017-01-30T01:36:15Z</time>
      </trkpt>
      <trkpt lat="44.08934" lon="6.28298">
        <ele>673</ele>
        <time>2017-01-30T01:38:15Z</time>
      </trkpt>
      <trkpt lat="44.08914" lon="6.28322">
        <ele>680</ele>
        <time>2017-01-30T01:40:15Z</time>
      </trkpt>
      <trkpt lat="44.08875" lon="6.28337">
        <ele>680</ele>
        <time>2017-01-30T01:42:15Z</time>
      </trkpt>
      <trkpt lat="44.08858" lon="6.28365">
        <ele>682</ele>
        <time>2017-01-30T01:44:15Z</time>
      </trkpt>
      <trkpt lat="44.08843" lon="6.2841">
        <ele>682</ele>
        <time>2017-01-30T01:46:15Z</time>
      </trkpt>
      <trkpt lat="44.08854" lon="6.28474">
        <ele>685</ele>
        <time>2017-01-30T01:48:15Z</time>
      </trkpt>
      <trkpt lat="44.08851" lon="6.28547">
        <ele>689</ele>
        <time>2017-01-30T01:50:15Z</time>
      </trkpt>
      <trkpt lat="44.08809" lon="6.28575">
        <ele>677</ele>
        <time>2017-01-30T01:52:15Z</time>
      </trkpt>
      <trkpt lat="44.08766" lon="6.28586">
        <ele>678</ele>
        <time>2017-01-30T01:54:15Z</time>
      </trkpt>
      <trkpt lat="44.08747" lon="6.28633">
        <ele>685</ele>
        <time>2017-01-30T01:56:15Z</time>
      </trkpt>
      <trkpt lat="44.08711" lon="6.28667">
        <ele>683</ele>
        <time>2017-01-30T01:58:15Z</time>
      </trkpt>
      <trkpt lat="44.08686" lon="6.28706">
        <ele>686</ele>
        <time>2017-01-30T02:00:15Z</time>
      </trkpt>
      <trkpt lat="44.08647" lon="6.28719">
        <ele>686</ele>
        <time>2017-01-30T02:02:15Z</time>
      </trkpt>
      <trkpt lat="44.08621" lon="6.28721">
        <ele>689</ele>
        <time>2017-01-30T02:04:15Z</time>
      </trkpt>
      <trkpt lat="44.08606" lon="6.2874">
        <ele>692</ele>
        <time>2017-01-30T02:06:15Z</time>
      </trkpt>
      <trkpt lat="44.08553" lon="6.28826">
        <ele>700</ele>
        <time>2017-01-30T02:08:15Z</time>
      </trkpt>
      <trkpt lat="44.08543" lon="6.28852">
        <ele>700</ele>
        <time>2017-01-30T02:10:15Z</time>
      </trkpt>
      <trkpt lat="44.08527" lon="6.28869">
        <ele>701</ele>
        <time>2017-01-30T02:12:15Z</time>
      </trkpt>
      <trkpt lat="44.08512" lon="6.2891">
        <ele>701</ele>
        <time>2017-01-30T02:14:15Z</time>
      </trkpt>
      <trkpt lat="44.08472" lon="6.28944">
        <ele>704</ele>
        <time>2017-01-30T02:16:15Z</time>
      </trkpt>
      <trkpt lat="44.08438" lon="6.28995">
        <ele>708</ele>
        <time>2017-01-30T02:18:15Z</time>
      </trkpt>
      <trkpt lat="44.08401" lon="6.28983">
        <ele>720</ele>
        <time>2017-01-30T02:20:15Z</time>
      </trkpt>
      <trkpt lat="44.08385" lon="6.28989">
        <ele>724</ele>
        <time>2017-01-30T02:22:15Z</time>
      </trkpt>
      <trkpt lat="44.08376" lon="6.29006">
        <ele>724</ele>
        <time>2017-01-30T02:24:15Z</time>
      </trkpt>
      <trkpt lat="44.08376" lon="6.29041">
        <ele>716</ele>
        <time>2017-01-30T02:26:15Z</time>
      </trkpt>
      <trkpt lat="44.08322" lon="6.29096">
        <ele>727</ele>
        <time>2017-01-30T02:28:15Z</time>
      </trkpt>
      <trkpt lat="44.08297" lon="6.29131">
        <ele>732</ele>
        <time>2017-01-30T02:30:15Z</time>
      </trkpt>
      <trkpt lat="44.08271" lon="6.29182">
        <ele>730</ele>
        <time>2017-01-30T02:32:15Z</time>
      </trkpt>
      <trkpt lat="44.08251" lon="6.29182">
        <ele>738</ele>
        <time>2017-01-30T02:34:15Z</time>
      </trkpt>
      <trkpt lat="44.08188" lon="6.29129">
        <ele>758</ele>
        <time>2017-01-30T02:36:15Z</time>
      </trkpt>
      <trkpt lat="44.08151" lon="6.29152">
        <ele>755</ele>
        <time>2017-01-30T02:38:15Z</time>
      </trkpt>
      <trkpt lat="44.08128" lon="6.29197">
        <ele>752</ele>
        <time>2017-01-30T02:40:15Z</time>
      </trkpt>
      <trkpt lat="44.08066" lon="6.29264">
        <ele>758</ele>
        <time>2017-01-30T02:42:15Z</time>
      </trkpt>
      <trkpt lat="44.07998" lon="6.2935">
        <ele>768</ele>
        <time>2017-01-30T02:44:15Z</time>
      </trkpt>
      <trkpt lat="44.07966" lon="6.29358">
        <ele>772</ele>
        <time>2017-01-30T02:46:15Z</time>
      </trkpt>
      <trkpt lat="44.07955" lon="6.29343">
        <ele>776</ele>
        <time>2017-01-30T02:48:15Z</time>
      </trkpt>
      <trkpt lat="44.07983" lon="6.29307">
        <ele>781</ele>
        <time>2017-01-30T02:50:15Z</time>
      </trkpt>
      <trkpt lat="44.08014" lon="6.2927">
        <ele>780</ele>
        <time>2017-01-30T02:52:15Z</time>
      </trkpt>
      <trkpt lat="44.07961" lon="6.29283">
        <ele>792</ele>
        <time>2017-01-30T02:54:15Z</time>
      </trkpt>
      <trkpt lat="44.07898" lon="6.29274">
        <ele>800</ele>
        <time>2017-01-30T02:56:15Z</time>
      </trkpt>
      <trkpt lat="44.07866" lon="6.293">
        <ele>797</ele>
        <time>2017-01-30T02:58:15Z</time>
      </trkpt>
      <trkpt lat="44.0778" lon="6.29315">
        <ele>806</ele>
        <time>2017-01-30T03:00:15Z</time>
      </trkpt>
      <trkpt lat="44.07741" lon="6.29343">
        <ele>806</ele>
        <time>2017-01-30T03:02:15Z</time>
      </trkpt>
      <trkpt lat="44.07718" lon="6.29392">
        <ele>804</ele>
        <time>2017-01-30T03:04:15Z</time>
      </trkpt>
      <trkpt lat="44.07692" lon="6.29384">
        <ele>807</ele>
        <time>2017-01-30T03:06:15Z</time>
      </trkpt>
      <trkpt lat="44.07647" lon="6.29345">
        <ele>823</ele>
        <time>2017-01-30T03:08:15Z</time>
      </trkpt>
      <trkpt lat="44.07605" lon="6.29384">
        <ele>816</ele>
        <time>2017-01-30T03:10:15Z</time>
      </trkpt>
      <trkpt lat="44.07559" lon="6.29425">
        <ele>822</ele>
        <time>2017-01-30T03:12:15Z</time>
      </trkpt>
      <trkpt lat="44.07482" lon="6.2942">
        <ele>825</ele>
        <time>2017-01-30T03:14:15Z</time>
      </trkpt>
      <trkpt lat="44.07453" lon="6.29461">
        <ele>829</ele>
        <time>2017-01-30T03:16:15Z</time>
      </trkpt>
      <trkpt lat="44.07393" lon="6.29476">
        <ele>839</ele>
        <time>2017-01-30T03:18:15Z</time>
      </trkpt>
      <trkpt lat="44.0734" lon="6.29438">
        <ele>842</ele>
        <time>2017-01-30T03:20:15Z</time>
      </trkpt>
      <trkpt lat="44.07326" lon="6.29448">
        <ele>842</ele>
        <time>2017-01-30T03:22:15Z</time>
      </trkpt>
      <trkpt lat="44.07257" lon="6.29513">
        <ele>849</ele>
        <time>2017-01-30T03:24:15Z</time>
      </trkpt>
      <trkpt lat="44.07232" lon="6.29506">
        <ele>850</ele>
        <time>2017-01-30T03:26:15Z</time>
      </trkpt>
      <trkpt lat="44.07183" lon="6.29453">
        <ele>859</ele>
        <time>2017-01-30T03:28:15Z</time>
      </trkpt>
      <trkpt lat="44.07172" lon="6.29465">
        <ele>860</ele>
        <time>2017-01-30T03:30:15Z</time>
      </trkpt>
      <trkpt lat="44.07204" lon="6.29519">
        <ele>860</ele>
        <time>2017-01-30T03:32:15Z</time>
      </trkpt>
      <trkpt lat="44.07231" lon="6.29577">
        <ele>865</ele>
        <time>2017-01-30T03:34:15Z</time>
      </trkpt>
      <trkpt lat="44.07204" lon="6.29626">
        <ele>871</ele>
        <time>2017-01-30T03:36:15Z</time>
      </trkpt>
      <trkpt lat="44.07197" lon="6.29616">
        <ele>872</ele>
        <time>2017-01-30T03:38:15Z</time>
      </trkpt>
      <trkpt lat="44.07208" lon="6.29571">
        <ele>868</ele>
        <time>2017-01-30T03:40:15Z</time>
      </trkpt>
      <trkpt lat="44.07174" lon="6.29592">
        <ele>874</ele>
        <time>2017-01-30T03:42:15Z</time>
      </trkpt>
      <trkpt lat="44.07109" lon="6.29588">
        <ele>880</ele>
        <time>2017-01-30T03:44:15Z</time>
      </trkpt>
      <trkpt lat="44.07104" lon="6.29601">
        <ele>879</ele>
        <time>2017-01-30T03:46:15Z</time>
      </trkpt>
      <trkpt lat="44.07107" lon="6.29635">
        <ele>878</ele>
        <time>2017-01-30T03:48:15Z</time>
      </trkpt>
      <trkpt lat="44.07086" lon="6.29682">
        <ele>884</ele>
        <time>2017-01-30T03:50:15Z</time>
      </trkpt>
      <trkpt lat="44.07072" lon="6.29742">
        <ele>883</ele>
        <time>2017-01-30T03:52:15Z</time>
      </trkpt>
      <trkpt lat="44.0703" lon="6.29796">
        <ele>891</ele>
        <time>2017-01-30T03:54:15Z</time>
      </trkpt>
      <trkpt lat="44.07021" lon="6.29847">
        <ele>892</ele>
        <time>2017-01-30T03:56:15Z</time>
      </trkpt>
      <trkpt lat="44.07019" lon="6.29899">
        <ele>887</ele>
        <time>2017-01-30T03:58:15Z</time>
      </trkpt>
      <trkpt lat="44.06961" lon="6.30006">
        <ele>898</ele>
        <time>2017-01-30T04:00:15Z</time>
      </trkpt>
      <trkpt lat="44.06905" lon="6.30028">
        <ele>912</ele>
        <time>2017-01-30T04:02:15Z</time>
      </trkpt>
      <trkpt lat="44.06882" lon="6.30081">
        <ele>916</ele>
        <time>2017-01-30T04:04:15Z</time>
      </trkpt>
      <trkpt lat="44.06851" lon="6.30107">
        <ele>922</ele>
        <time>2017-01-30T04:06:15Z</time>
      </trkpt>
      <trkpt lat="44.06831" lon="6.30143">
        <ele>925</ele>
        <time>2017-01-30T04:08:15Z</time>
      </trkpt>
      <trkpt lat="44.06802" lon="6.3021">
        <ele>928</ele>
        <time>2017-01-30T04:10:15Z</time>
      </trkpt>
      <trkpt lat="44.06782" lon="6.30249">
        <ele>934</ele>
        <time>2017-01-30T04:12:15Z</time>
      </trkpt>
      <trkpt lat="44.0676" lon="6.30272">
        <ele>941</ele>
        <time>2017-01-30T04:14:15Z</time>
      </trkpt>
      <trkpt lat="44.06736" lon="6.30304">
        <ele>942</ele>
        <time>2017-01-30T04:16:15Z</time>
      </trkpt>
      <trkpt lat="44.06699" lon="6.30298">
        <ele>948</ele>
        <time>2017-01-30T04:18:15Z</time>
      </trkpt>
      <trkpt lat="44.06674" lon="6.3033">
        <ele>948</ele>
        <time>2017-01-30T04:20:15Z</time>
      </trkpt>
      <trkpt lat="44.06637" lon="6.30375">
        <ele>954</ele>
        <time>2017-01-30T04:22:15Z</time>
      </trkpt>
      <trkpt lat="44.06597" lon="6.3044">
        <ele>963</ele>
        <time>2017-01-30T04:24:15Z</time>
      </trkpt>
      <trkpt lat="44.06589" lon="6.30461">
        <ele>965</ele>
        <time>2017-01-30T04:26:15Z</time>
      </trkpt>
      <trkpt lat="44.06602" lon="6.30523">
        <ele>969</ele>
        <time>2017-01-30T04:28:15Z</time>
      </trkpt>
      <trkpt lat="44.06566" lon="6.30611">
        <ele>983</ele>
        <time>2017-01-30T04:30:15Z</time>
      </trkpt>
      <trkpt lat="44.06518" lon="6.30639">
        <ele>990</ele>
        <time>2017-01-30T04:32:15Z</time>
      </trkpt>
      <trkpt lat="44.06514" lon="6.30652">
        <ele>993</ele>
        <time>2017-01-30T04:34:15Z</time>
      </trkpt>
      <trkpt lat="44.06586" lon="6.30676">
        <ele>992</ele>
        <time>2017-01-30T04:36:15Z</time>
      </trkpt>
      <trkpt lat="44.06591" lon="6.30706">
        <ele>997</ele>
        <time>2017-01-30T04:38:15Z</time>
      </trkpt>
      <trkpt lat="44.06548" lon="6.30695">
        <ele>1006</ele>
        <time>2017-01-30T04:40:15Z</time>
      </trkpt>
      <trkpt lat="44.0652" lon="6.3071">
        <ele>1014</ele>
        <time>2017-01-30T04:42:15Z</time>
      </trkpt>
      <trkpt lat="44.06505" lon="6.30738">
        <ele>1021</ele>
        <time>2017-01-30T04:44:15Z</time>
      </trkpt>
      <trkpt lat="44.06488" lon="6.30789">
        <ele>1032</ele>
        <time>2017-01-30T04:46:15Z</time>
      </trkpt>
      <trkpt lat="44.06461" lon="6.30796">
        <ele>1028</ele>
        <time>2017-01-30T04:48:15Z</time>
      </trkpt>
      <trkpt lat="44.06449" lon="6.30809">
        <ele>1028</ele>
        <time>2017-01-30T04:50:15Z</time>
      </trkpt>
      <trkpt lat="44.06431" lon="6.30845">
        <ele>1025</ele>
        <time>2017-01-30T04:52:15Z</time>
      </trkpt>
      <trkpt lat="44.06415" lon="6.30864">
        <ele>1022</ele>
        <time>2017-01-30T04:54:15Z</time>
      </trkpt>
      <trkpt lat="44.06412" lon="6.3089">
        <ele>1017</ele>
        <time>2017-01-30T04:56:15Z</time>
      </trkpt>
      <trkpt lat="44.06457" lon="6.30929">
        <ele>1021</ele>
        <time>2017-01-30T04:58:15Z</time>
      </trkpt>
      <trkpt lat="44.06495" lon="6.30961">
        <ele>1023</ele>
        <time>2017-01-30T05:00:15Z</time>
      </trkpt>
      <trkpt lat="44.06551" lon="6.30955">
        <ele>1028</ele>
        <time>2017-01-30T05:02:15Z</time>
      </trkpt>
      <trkpt lat="44.06597" lon="6.30991">
        <ele>1028</ele>
        <time>2017-01-30T05:04:15Z</time>
      </trkpt>
      <trkpt lat="44.06648" lon="6.31045">
        <ele>1030</ele>
        <time>2017-01-30T05:06:15Z</time>
      </trkpt>
      <trkpt lat="44.06686" lon="6.31081">
        <ele>1026</ele>
        <time>2017-01-30T05:08:15Z</time>
      </trkpt>
      <trkpt lat="44.0672" lon="6.31133">
        <ele>1028</ele>
        <time>2017-01-30T05:10:15Z</time>
      </trkpt>
      <trkpt lat="44.06753" lon="6.31178">
        <ele>1042</ele>
        <time>2017-01-30T05:12:15Z</time>
      </trkpt>
      <trkpt lat="44.06804" lon="6.31171">
        <ele>1046</ele>
        <time>2017-01-30T05:14:15Z</time>
      </trkpt>
      <trkpt lat="44.06807" lon="6.31137">
        <ele>1037</ele>
        <time>2017-01-30T05:16:15Z</time>
      </trkpt>
      <trkpt lat="44.06825" lon="6.31103">
        <ele>1032</ele>
        <time>2017-01-30T05:18:15Z</time>
      </trkpt>
      <trkpt lat="44.06858" lon="6.31167">
        <ele>1046</ele>
        <time>2017-01-30T05:20:15Z</time>
      </trkpt>
      <trkpt lat="44.06902" lon="6.31206">
        <ele>1051</ele>
        <time>2017-01-30T05:22:15Z</time>
      </trkpt>
      <trkpt lat="44.06976" lon="6.31219">
        <ele>1045</ele>
        <time>2017-01-30T05:24:15Z</time>
      </trkpt>
      <trkpt lat="44.06967" lon="6.3127">
        <ele>1054</ele>
        <time>2017-01-30T05:26:15Z</time>
      </trkpt>
      <trkpt lat="44.06967" lon="6.313">
        <ele>1059</ele>
        <time>2017-01-30T05:28:15Z</time>
      </trkpt>
      <trkpt lat="44.07032" lon="6.31386">
        <ele>1063</ele>
        <time>2017-01-30T05:30:15Z</time>
      </trkpt>
      <trkpt lat="44.07041" lon="6.31442">
        <ele>1073</ele>
        <time>2017-01-30T05:32:15Z</time>
      </trkpt>
      <trkpt lat="44.07084" lon="6.31485">
        <ele>1082</ele>
        <time>2017-01-30T05:34:15Z</time>
      </trkpt>
      <trkpt lat="44.07166" lon="6.31467">
        <ele>1086</ele>
        <time>2017-01-30T05:36:15Z</time>
      </trkpt>
      <trkpt lat="44.07154" lon="6.31495">
        <ele>1088</ele>
        <time>2017-01-30T05:38:15Z</time>
      </trkpt>
      <trkpt lat="44.07061" lon="6.31536">
        <ele>1096</ele>
        <time>2017-01-30T05:40:15Z</time>
      </trkpt>
      <trkpt lat="44.0701" lon="6.31532">
        <ele>1100</ele>
        <time>2017-01-30T05:42:15Z</time>
      </trkpt>
      <trkpt lat="44.06973" lon="6.31555">
        <ele>1105</ele>
        <time>2017-01-30T05:44:15Z</time>
      </trkpt>
      <trkpt lat="44.06927" lon="6.31579">
        <ele>1106</ele>
        <time>2017-01-30T05:46:15Z</time>
      </trkpt>
      <trkpt lat="44.06865" lon="6.31555">
        <ele>1103</ele>
        <time>2017-01-30T05:48:15Z</time>
      </trkpt>
      <trkpt lat="44.06861" lon="6.31575">
        <ele>1106</ele>
        <time>2017-01-30T05:50:15Z</time>
      </trkpt>
      <trkpt lat="44.06851" lon="6.31626">
        <ele>1113</ele>
        <time>2017-01-30T05:52:15Z</time>
      </trkpt>
      <trkpt lat="44.06831" lon="6.31639">
        <ele>1116</ele>
        <time>2017-01-30T05:54:15Z</time>
      </trkpt>
      <trkpt lat="44.06801" lon="6.31633">
        <ele>1116</ele>
        <time>2017-01-30T05:56:15Z</time>
      </trkpt>
      <trkpt lat="44.06784" lon="6.31654">
        <ele>1120</ele>
        <time>2017-01-30T05:58:15Z</time>
      </trkpt>
      <trkpt lat="44.06747" lon="6.31718">
        <ele>1132</ele>
        <time>2017-01-30T06:00:15Z</time>
      </trkpt>
      <trkpt lat="44.06679" lon="6.31879">
        <ele>1152</ele>
        <time>2017-01-30T06:02:15Z</time>
      </trkpt>
      <trkpt lat="44.0673" lon="6.31867">
        <ele>1157</ele>
        <time>2017-01-30T06:04:15Z</time>
      </trkpt>
      <trkpt lat="44.06784" lon="6.31821">
        <ele>1155</ele>
        <time>2017-01-30T06:06:15Z</time>
      </trkpt>
      <trkpt lat="44.06848" lon="6.31845">
        <ele>1167</ele>
        <time>2017-01-30T06:08:15Z</time>
      </trkpt>
      <trkpt lat="44.06841" lon="6.31873">
        <ele>1173</ele>
        <time>2017-01-30T06:10:15Z</time>
      </trkpt>
      <trkpt lat="44.06793" lon="6.31905">
        <ele>1174</ele>
        <time>2017-01-30T06:12:15Z</time>
      </trkpt>
      <trkpt lat="44.06774" lon="6.31944">
        <ele>1179</ele>
        <time>2017-01-30T06:14:15Z</time>
      </trkpt>
      <trkpt lat="44.06722" lon="6.31978">
        <ele>1177</ele>
        <time>2017-01-30T06:16:15Z</time>
      </trkpt>
      <trkpt lat="44.06808" lon="6.31995">
        <ele>1194</ele>
        <time>2017-01-30T06:18:15Z</time>
      </trkpt>
      <trkpt lat="44.06895" lon="6.32">
        <ele>1199</ele>
        <time>2017-01-30T06:20:15Z</time>
      </trkpt>
      <trkpt lat="44.06939" lon="6.3204">
        <ele>1202</ele>
        <time>2017-01-30T06:22:15Z</time>
      </trkpt>
      <trkpt lat="44.06959" lon="6.32073">
        <ele>1204</ele>
        <time>2017-01-30T06:24:15Z</time>
      </trkpt>
      <trkpt lat="44.06982" lon="6.32103">
        <ele>1204</ele>
        <time>2017-01-30T06:26:15Z</time>
      </trkpt>
      <trkpt lat="44.06933" lon="6.32143">
        <ele>1216</ele>
        <time>2017-01-30T06:28:15Z</time>
      </trkpt>
      <trkpt lat="44.06864" lon="6.32107">
        <ele>1217</ele>
        <time>2017-01-30T06:30:15Z</time>
      </trkpt>
      <trkpt lat="44.0683" lon="6.32133">
        <ele>1220</ele>
        <time>2017-01-30T06:32:15Z</time>
      </trkpt>
      <trkpt lat="44.06807" lon="6.32165">
        <ele>1223</ele>
        <time>2017-01-30T06:34:15Z</time>
      </trkpt>
      <trkpt lat="44.06808" lon="6.32212">
        <ele>1231</ele>
        <time>2017-01-30T06:36:15Z</time>
      </trkpt>
      <trkpt lat="44.06791" lon="6.32251">
        <ele>1238</ele>
        <time>2017-01-30T06:38:15Z</time>
      </trkpt>
      <trkpt lat="44.06781" lon="6.32304">
        <ele>1246</ele>
        <time>2017-01-30T06:40:15Z</time>
      </trkpt>
      <trkpt lat="44.06801" lon="6.32382">
        <ele>1255</ele>
        <time>2017-01-30T06:42:15Z</time>
      </trkpt>
      <trkpt lat="44.06804" lon="6.32418">
        <ele>1261</ele>
        <time>2017-01-30T06:44:15Z</time>
      </trkpt>
      <trkpt lat="44.06773" lon="6.32465">
        <ele>1271</ele>
        <time>2017-01-30T06:46:15Z</time>
      </trkpt>
      <trkpt lat="44.06836" lon="6.32472">
        <ele>1270</ele>
        <time>2017-01-30T06:48:15Z</time>
      </trkpt>
      <trkpt lat="44.06879" lon="6.32527">
        <ele>1280</ele>
        <time>2017-01-30T06:50:15Z</time>
      </trkpt>
      <trkpt lat="44.06952" lon="6.3253">
        <ele>1278</ele>
        <time>2017-01-30T06:52:15Z</time>
      </trkpt>
      <trkpt lat="44.06975" lon="6.32564">
        <ele>1278</ele>
        <time>2017-01-30T06:54:15Z</time>
      </trkpt>
      <trkpt lat="44.06992" lon="6.32654">
        <ele>1296</ele>
        <time>2017-01-30T06:56:15Z</time>
      </trkpt>
      <trkpt lat="44.07053" lon="6.32645">
        <ele>1289</ele>
        <time>2017-01-30T06:58:15Z</time>
      </trkpt>
      <trkpt lat="44.07117" lon="6.3269">
        <ele>1296</ele>
        <time>2017-01-30T07:00:15Z</time>
      </trkpt>
      <trkpt lat="44.07183" lon="6.32759">
        <ele>1306</ele>
        <time>2017-01-30T07:02:15Z</time>
      </trkpt>
      <trkpt lat="44.0724" lon="6.32809">
        <ele>1318</ele>
        <time>2017-01-30T07:04:15Z</time>
      </trkpt>
      <trkpt lat="44.07278" lon="6.32843">
        <ele>1326</ele>
        <time>2017-01-30T07:06:15Z</time>
      </trkpt>
      <trkpt lat="44.07359" lon="6.32877">
        <ele>1323</ele>
        <time>2017-01-30T07:08:15Z</time>
      </trkpt>
      <trkpt lat="44.07383" lon="6.32922">
        <ele>1336</ele>
        <time>2017-01-30T07:10:15Z</time>
      </trkpt>
      <trkpt lat="44.0746" lon="6.33017">
        <ele>1349</ele>
        <time>2017-01-30T07:12:15Z</time>
      </trkpt>
      <trkpt lat="44.07502" lon="6.33068">
        <ele>1356</ele>
        <time>2017-01-30T07:14:15Z</time>
      </trkpt>
      <trkpt lat="44.07574" lon="6.33113">
        <ele>1353</ele>
        <time>2017-01-30T07:16:15Z</time>
      </trkpt>
      <trkpt lat="44.0755" lon="6.33128">
        <ele>1363</ele>
        <time>2017-01-30T07:18:15Z</time>
      </trkpt>
      <trkpt lat="44.07497" lon="6.33098">
        <ele>1366</ele>
        <time>2017-01-30T07:20:15Z</time>
      </trkpt>
      <trkpt lat="44.07457" lon="6.33066">
        <ele>1365</ele>
        <time>2017-01-30T07:22:15Z</time>
      </trkpt>
      <trkpt lat="44.07393" lon="6.33055">
        <ele>1380</ele>
        <time>2017-01-30T07:24:15Z</time>
      </trkpt>
      <trkpt lat="44.07468" lon="6.33148">
        <ele>1390</ele>
        <time>2017-01-30T07:26:15Z</time>
      </trkpt>
      <trkpt lat="44.07516" lon="6.33223">
        <ele>1405</ele>
        <time>2017-01-30T07:28:15Z</time>
      </trkpt>
      <trkpt lat="44.07604" lon="6.33296">
        <ele>1415</ele>
        <time>2017-01-30T07:30:15Z</time>
      </trkpt>
      <trkpt lat="44.07729" lon="6.33394">
        <ele>1435</ele>
        <time>2017-01-30T07:32:15Z</time>
      </trkpt>
      <trkpt lat="44.07818" lon="6.33459">
        <ele>1452</ele>
        <time>2017-01-30T07:34:15Z</time>
      </trkpt>
      <trkpt lat="44.07898" lon="6.33497">
        <ele>1464</ele>
        <time>2017-01-30T07:36:15Z</time>
      </trkpt>
      <trkpt lat="44.08042" lon="6.33542">
        <ele>1465</ele>
        <time>2017-01-30T07:38:15Z</time>
      </trkpt>
      <trkpt lat="44.07972" lon="6.3356">
        <ele>1486</ele>
        <time>2017-01-30T07:40:15Z</time>
      </trkpt>
      <trkpt lat="44.07911" lon="6.33581">
        <ele>1499</ele>
        <time>2017-01-30T07:42:15Z</time>
      </trkpt>
      <trkpt lat="44.07994" lon="6.33605">
        <ele>1504</ele>
        <time>2017-01-30T07:44:15Z</time>
      </trkpt>
      <trkpt lat="44.08066" lon="6.33645">
        <ele>1505</ele>
        <time>2017-01-30T07:46:15Z</time>
      </trkpt>
      <trkpt lat="44.0794" lon="6.33656">
        <ele>1534</ele>
        <time>2017-01-30T07:48:15Z</time>
      </trkpt>
      <trkpt lat="44.07861" lon="6.33663">
        <ele>1544</ele>
        <time>2017-01-30T07:50:15Z</time>
      </trkpt>
      <trkpt lat="44.07938" lon="6.33716">
        <ele>1565</ele>
        <time>2017-01-30T07:52:15Z</time>
      </trkpt>
      <trkpt lat="44.08042" lon="6.33755">
        <ele>1574</ele>
        <time>2017-01-30T07:54:15Z</time>
      </trkpt>
      <trkpt lat="44.07954" lon="6.33791">
        <ele>1616</ele>
        <time>2017-01-30T07:56:15Z</time>
      </trkpt>
      <trkpt lat="44.0788" lon="6.33821">
        <ele>1653</ele>
        <time>2017-01-30T07:58:15Z</time>
      </trkpt>
      <trkpt lat="44.07878" lon="6.33847">
        <ele>1674</ele>
        <time>2017-01-30T08:00:15Z</time>
      </trkpt>
      <trkpt lat="44.07924" lon="6.33869">
        <ele>1680</ele>
        <time>2017-01-30T08:02:15Z</time>
      </trkpt>
      <trkpt lat="44.07991" lon="6.33875">
        <ele>1679</ele>
        <time>2017-01-30T08:04:15Z</time>
      </trkpt>
      <trkpt lat="44.08046" lon="6.33866">
        <ele>1672</ele>
        <time>2017-01-30T08:06:15Z</time>
      </trkpt>
      <trkpt lat="44.08119" lon="6.33905">
        <ele>1656</ele>
        <time>2017-01-30T08:08:15Z</time>
      </trkpt>
      <trkpt lat="44.08092" lon="6.33952">
        <ele>1652</ele>
        <time>2017-01-30T08:10:15Z</time>
      </trkpt>
      <trkpt lat="44.08199" lon="6.34002">
        <ele>1632</ele>
        <time>2017-01-30T08:12:15Z</time>
      </trkpt>
      <trkpt lat="44.08117" lon="6.34044">
        <ele>1616</ele>
        <time>2017-01-30T08:14:15Z</time>
      </trkpt>
      <trkpt lat="44.07966" lon="6.34132">
        <ele>1590</ele>
        <time>2017-01-30T08:16:15Z</time>
      </trkpt>
      <trkpt lat="44.07877" lon="6.34173">
        <ele>1586</ele>
        <time>2017-01-30T08:18:15Z</time>
      </trkpt>
      <trkpt lat="44.08006" lon="6.34216">
        <ele>1554</ele>
        <time>2017-01-30T08:20:15Z</time>
      </trkpt>
      <trkpt lat="44.08179" lon="6.34261">
        <ele>1541</ele>
        <time>2017-01-30T08:22:15Z</time>
      </trkpt>
      <trkpt lat="44.08333" lon="6.34291">
        <ele>1519</ele>
        <time>2017-01-30T08:24:15Z</time>
      </trkpt>
      <trkpt lat="44.08533" lon="6.34311">
        <ele>1513</ele>
        <time>2017-01-30T08:26:15Z</time>
      </trkpt>
      <trkpt lat="44.08646" lon="6.34371">
        <ele>1498</ele>
        <time>2017-01-30T08:28:15Z</time>
      </trkpt>
      <trkpt lat="44.08894" lon="6.34407">
        <ele>1482</ele>
        <time>2017-01-30T08:30:15Z</time>
      </trkpt>
      <trkpt lat="44.08726" lon="6.3448">
        <ele>1451</ele>
        <time>2017-01-30T08:32:15Z</time>
      </trkpt>
      <trkpt lat="44.0867" lon="6.3448">
        <ele>1451</ele>
        <time>2017-01-30T08:34:15Z</time>
      </trkpt>
      <trkpt lat="44.08529" lon="6.34521">
        <ele>1429</ele>
        <time>2017-01-30T08:36:15Z</time>
      </trkpt>
      <trkpt lat="44.08422" lon="6.34534">
        <ele>1421</ele>
        <time>2017-01-30T08:38:15Z</time>
      </trkpt>
      <trkpt lat="44.08311" lon="6.34581">
        <ele>1404</ele>
        <time>2017-01-30T08:40:15Z</time>
      </trkpt>
      <trkpt lat="44.08208" lon="6.34624">
        <ele>1394</ele>
        <time>2017-01-30T08:42:15Z</time>
      </trkpt>
      <trkpt lat="44.08082" lon="6.3465">
        <ele>1385</ele>
        <time>2017-01-30T08:44:15Z</time>
      </trkpt>
      <trkpt lat="44.08169" lon="6.34677">
        <ele>1375</ele>
        <time>2017-01-30T08:46:15Z</time>
      </trkpt>
      <trkpt lat="44.0826" lon="6.3468">
        <ele>1366</ele>
        <time>2017-01-30T08:48:15Z</time>
      </trkpt>
      <trkpt lat="44.08123" lon="6.34738">
        <ele>1353</ele>
        <time>2017-01-30T08:50:15Z</time>
      </trkpt>
      <trkpt lat="44.08066" lon="6.3475">
        <ele>1348</ele>
        <time>2017-01-30T08:52:15Z</time>
      </trkpt>
      <trkpt lat="44.07935" lon="6.34823">
        <ele>1333</ele>
        <time>2017-01-30T08:54:15Z</time>
      </trkpt>
      <trkpt lat="44.08088" lon="6.34821">
        <ele>1324</ele>
        <time>2017-01-30T08:56:15Z</time>
      </trkpt>
      <trkpt lat="44.08166" lon="6.34843">
        <ele>1305</ele>
        <time>2017-01-30T08:58:15Z</time>
      </trkpt>
      <trkpt lat="44.08082" lon="6.34875">
        <ele>1303</ele>
        <time>2017-01-30T09:00:15Z</time>
      </trkpt>
      <trkpt lat="44.08074" lon="6.34907">
        <ele>1291</ele>
        <time>2017-01-30T09:02:15Z</time>
      </trkpt>
      <trkpt lat="44.08197" lon="6.34888">
        <ele>1280</ele>
        <time>2017-01-30T09:04:15Z</time>
      </trkpt>
      <trkpt lat="44.08282" lon="6.34877">
        <ele>1273</ele>
        <time>2017-01-30T09:06:15Z</time>
      </trkpt>
      <trkpt lat="44.08373" lon="6.34847">
        <ele>1278</ele>
        <time>2017-01-30T09:08:15Z</time>
      </trkpt>
      <trkpt lat="44.08427" lon="6.34868">
        <ele>1274</ele>
        <time>2017-01-30T09:10:15Z</time>
      </trkpt>
      <trkpt lat="44.08484" lon="6.34871">
        <ele>1280</ele>
        <time>2017-01-30T09:12:15Z</time>
      </trkpt>
      <trkpt lat="44.08539" lon="6.34916">
        <ele>1265</ele>
        <time>2017-01-30T09:14:15Z</time>
      </trkpt>
      <trkpt lat="44.08667" lon="6.34922">
        <ele>1250</ele>
        <time>2017-01-30T09:16:15Z</time>
      </trkpt>
      <trkpt lat="44.08569" lon="6.34954">
        <ele>1247</ele>
        <time>2017-01-30T09:18:15Z</time>
      </trkpt>
      <trkpt lat="44.08473" lon="6.34982">
        <ele>1231</ele>
        <time>2017-01-30T09:20:15Z</time>
      </trkpt>
      <trkpt lat="44.0843" lon="6.34986">
        <ele>1224</ele>
        <time>2017-01-30T09:22:15Z</time>
      </trkpt>
      <trkpt lat="44.08567" lon="6.35051">
        <ele>1204</ele>
        <time>2017-01-30T09:24:15Z</time>
      </trkpt>
      <trkpt lat="44.08515" lon="6.35062">
        <ele>1197</ele>
        <time>2017-01-30T09:26:15Z</time>
      </trkpt>
      <trkpt lat="44.08609" lon="6.35115">
        <ele>1186</ele>
        <time>2017-01-30T09:28:15Z</time>
      </trkpt>
      <trkpt lat="44.08687" lon="6.35085">
        <ele>1213</ele>
        <time>2017-01-30T09:30:15Z</time>
      </trkpt>
      <trkpt lat="44.08697" lon="6.35124">
        <ele>1207</ele>
        <time>2017-01-30T09:32:15Z</time>
      </trkpt>
      <trkpt lat="44.08689" lon="6.3516">
        <ele>1200</ele>
        <time>2017-01-30T09:34:15Z</time>
      </trkpt>
      <trkpt lat="44.08749" lon="6.35195">
        <ele>1211</ele>
        <time>2017-01-30T09:36:15Z</time>
      </trkpt>
      <trkpt lat="44.08754" lon="6.35235">
        <ele>1215</ele>
        <time>2017-01-30T09:38:15Z</time>
      </trkpt>
      <trkpt lat="44.08697" lon="6.3527">
        <ele>1217</ele>
        <time>2017-01-30T09:40:15Z</time>
      </trkpt>
      <trkpt lat="44.08621" lon="6.35375">
        <ele>1234</ele>
        <time>2017-01-30T09:42:15Z</time>
      </trkpt>
      <trkpt lat="44.08529" lon="6.35441">
        <ele>1233</ele>
        <time>2017-01-30T09:44:15Z</time>
      </trkpt>
      <trkpt lat="44.08371" lon="6.35497">
        <ele>1220</ele>
        <time>2017-01-30T09:46:15Z</time>
      </trkpt>
      <trkpt lat="44.08297" lon="6.3554">
        <ele>1212</ele>
        <time>2017-01-30T09:48:15Z</time>
      </trkpt>
      <trkpt lat="44.08193" lon="6.3557">
        <ele>1204</ele>
        <time>2017-01-30T09:50:15Z</time>
      </trkpt>
      <trkpt lat="44.08136" lon="6.35598">
        <ele>1201</ele>
        <time>2017-01-30T09:52:15Z</time>
      </trkpt>
      <trkpt lat="44.08046" lon="6.3565">
        <ele>1196</ele>
        <time>2017-01-30T09:54:15Z</time>
      </trkpt>
      <trkpt lat="44.07935" lon="6.35731">
        <ele>1184</ele>
        <time>2017-01-30T09:56:15Z</time>
      </trkpt>
      <trkpt lat="44.07837" lon="6.35813">
        <ele>1181</ele>
        <time>2017-01-30T09:58:15Z</time>
      </trkpt>
      <trkpt lat="44.07662" lon="6.35856">
        <ele>1159</ele>
        <time>2017-01-30T10:00:15Z</time>
      </trkpt>
      <trkpt lat="44.0744" lon="6.35901">
        <ele>1142</ele>
        <time>2017-01-30T10:02:15Z</time>
      </trkpt>
      <trkpt lat="44.07257" lon="6.35926">
        <ele>1124</ele>
        <time>2017-01-30T10:04:15Z</time>
      </trkpt>
      <trkpt lat="44.07178" lon="6.35948">
        <ele>1118</ele>
        <time>2017-01-30T10:06:15Z</time>
      </trkpt>
      <trkpt lat="44.07117" lon="6.35978">
        <ele>1114</ele>
        <time>2017-01-30T10:08:15Z</time>
      </trkpt>
      <trkpt lat="44.0707" lon="6.36016">
        <ele>1114</ele>
        <time>2017-01-30T10:10:15Z</time>
      </trkpt>
      <trkpt lat="44.07026" lon="6.36068">
        <ele>1116</ele>
        <time>2017-01-30T10:12:15Z</time>
      </trkpt>
      <trkpt lat="44.0697" lon="6.36137">
        <ele>1116</ele>
        <time>2017-01-30T10:14:15Z</time>
      </trkpt>
      <trkpt lat="44.06921" lon="6.36244">
        <ele>1128</ele>
        <time>2017-01-30T10:16:15Z</time>
      </trkpt>
      <trkpt lat="44.06876" lon="6.36317">
        <ele>1133</ele>
        <time>2017-01-30T10:18:15Z</time>
      </trkpt>
      <trkpt lat="44.06824" lon="6.36368">
        <ele>1132</ele>
        <time>2017-01-30T10:20:15Z</time>
      </trkpt>
      <trkpt lat="44.06759" lon="6.36398">
        <ele>1123</ele>
        <time>2017-01-30T10:22:15Z</time>
      </trkpt>
      <trkpt lat="44.06717" lon="6.36411">
        <ele>1114</ele>
        <time>2017-01-30T10:24:15Z</time>
      </trkpt>
      <trkpt lat="44.06685" lon="6.36458">
        <ele>1112</ele>
        <time>2017-01-30T10:26:15Z</time>
      </trkpt>
      <trkpt lat="44.06645" lon="6.36519">
        <ele>1110</ele>
        <time>2017-01-30T10:28:15Z</time>
      </trkpt>
      <trkpt lat="44.06608" lon="6.36555">
        <ele>1106</ele>
        <time>2017-01-30T10:30:15Z</time>
      </trkpt>
      <trkpt lat="44.06534" lon="6.36589">
        <ele>1090</ele>
        <time>2017-01-30T10:32:15Z</time>
      </trkpt>
      <trkpt lat="44.06494" lon="6.36613">
        <ele>1083</ele>
        <time>2017-01-30T10:34:15Z</time>
      </trkpt>
      <trkpt lat="44.06447" lon="6.36671">
        <ele>1075</ele>
        <time>2017-01-30T10:36:15Z</time>
      </trkpt>
      <trkpt lat="44.06418" lon="6.3671">
        <ele>1065</ele>
        <time>2017-01-30T10:38:15Z</time>
      </trkpt>
      <trkpt lat="44.0642" lon="6.36755">
        <ele>1059</ele>
        <time>2017-01-30T10:40:15Z</time>
      </trkpt>
      <trkpt lat="44.06406" lon="6.36797">
        <ele>1049</ele>
        <time>2017-01-30T10:42:15Z</time>
      </trkpt>
      <trkpt lat="44.0639" lon="6.36776">
        <ele>1051</ele>
        <time>2017-01-30T10:44:15Z</time>
      </trkpt>
      <trkpt lat="44.06355" lon="6.3672">
        <ele>1052</ele>
        <time>2017-01-30T10:46:15Z</time>
      </trkpt>
      <trkpt lat="44.06306" lon="6.36737">
        <ele>1041</ele>
        <time>2017-01-30T10:48:15Z</time>
      </trkpt>
      <trkpt lat="44.06293" lon="6.36718">
        <ele>1040</ele>
        <time>2017-01-30T10:50:15Z</time>
      </trkpt>
      <trkpt lat="44.06279" lon="6.3666">
        <ele>1037</ele>
        <time>2017-01-30T10:52:15Z</time>
      </trkpt>
      <trkpt lat="44.06256" lon="6.36662">
        <ele>1032</ele>
        <time>2017-01-30T10:54:15Z</time>
      </trkpt>
      <trkpt lat="44.06235" lon="6.36679">
        <ele>1028</ele>
        <time>2017-01-30T10:56:15Z</time>
      </trkpt>
      <trkpt lat="44.06213" lon="6.36722">
        <ele>1023</ele>
        <time>2017-01-30T10:58:15Z</time>
      </trkpt>
      <trkpt lat="44.06159" lon="6.36752">
        <ele>1011</ele>
        <time>2017-01-30T11:00:15Z</time>
      </trkpt>
      <trkpt lat="44.06151" lon="6.36757">
        <ele>1009</ele>
        <time>2017-01-30T11:02:15Z</time>
      </trkpt>
      <trkpt lat="44.06153" lon="6.36813">
        <ele>1004</ele>
        <time>2017-01-30T11:04:15Z</time>
      </trkpt>
      <trkpt lat="44.06256" lon="6.36941">
        <ele>999</ele>
        <time>2017-01-30T11:06:15Z</time>
      </trkpt>
      <trkpt lat="44.06281" lon="6.36993">
        <ele>1000</ele>
        <time>2017-01-30T11:08:15Z</time>
      </trkpt>
      <trkpt lat="44.06315" lon="6.37152">
        <ele>998</ele>
        <time>2017-01-30T11:10:15Z</time>
      </trkpt>
      <trkpt lat="44.06397" lon="6.37255">
        <ele>1001</ele>
        <time>2017-01-30T11:12:15Z</time>
      </trkpt>
      <trkpt lat="44.06404" lon="6.37312">
        <ele>1002</ele>
        <time>2017-01-30T11:14:15Z</time>
      </trkpt>
      <trkpt lat="44.06451" lon="6.37375">
        <ele>1013</ele>
        <time>2017-01-30T11:16:15Z</time>
      </trkpt>
      <trkpt lat="44.06435" lon="6.37426">
        <ele>1010</ele>
        <time>2017-01-30T11:18:15Z</time>
      </trkpt>
      <trkpt lat="44.06417" lon="6.37473">
        <ele>1005</ele>
        <time>2017-01-30T11:20:15Z</time>
      </trkpt>
      <trkpt lat="44.06457" lon="6.37529">
        <ele>1005</ele>
        <time>2017-01-30T11:22:15Z</time>
      </trkpt>
      <trkpt lat="44.06483" lon="6.37604">
        <ele>992</ele>
        <time>2017-01-30T11:24:15Z</time>
      </trkpt>
      <trkpt lat="44.06577" lon="6.37566">
        <ele>1000</ele>
        <time>2017-01-30T11:26:15Z</time>
      </trkpt>
      <trkpt lat="44.06631" lon="6.37591">
        <ele>1003</ele>
        <time>2017-01-30T11:28:15Z</time>
      </trkpt>
      <trkpt lat="44.06714" lon="6.37697">
        <ele>1004</ele>
        <time>2017-01-30T11:30:15Z</time>
      </trkpt>
      <trkpt lat="44.06756" lon="6.37761">
        <ele>1004</ele>
        <time>2017-01-30T11:32:15Z</time>
      </trkpt>
      <trkpt lat="44.06771" lon="6.3784">
        <ele>993</ele>
        <time>2017-01-30T11:34:15Z</time>
      </trkpt>
      <trkpt lat="44.06728" lon="6.37883">
        <ele>985</ele>
        <time>2017-01-30T11:36:15Z</time>
      </trkpt>
      <trkpt lat="44.0669" lon="6.3793">
        <ele>984</ele>
        <time>2017-01-30T11:38:15Z</time>
      </trkpt>
      <trkpt lat="44.06676" lon="6.37958">
        <ele>983</ele>
        <time>2017-01-30T11:40:15Z</time>
      </trkpt>
      <trkpt lat="44.06694" lon="6.37993">
        <ele>980</ele>
        <time>2017-01-30T11:42:15Z</time>
      </trkpt>
      <trkpt lat="44.06683" lon="6.38023">
        <ele>976</ele>
        <time>2017-01-30T11:44:15Z</time>
      </trkpt>
      <trkpt lat="44.06649" lon="6.38036">
        <ele>973</ele>
        <time>2017-01-30T11:46:15Z</time>
      </trkpt>
      <trkpt lat="44.06656" lon="6.38085">
        <ele>963</ele>
        <time>2017-01-30T11:48:15Z</time>
      </trkpt>
      <trkpt lat="44.06723" lon="6.38104">
        <ele>956</ele>
        <time>2017-01-30T11:50:15Z</time>
      </trkpt>
      <trkpt lat="44.06791" lon="6.38018">
        <ele>960</ele>
        <time>2017-01-30T11:52:15Z</time>
      </trkpt>
      <trkpt lat="44.06799" lon="6.38053">
        <ele>957</ele>
        <time>2017-01-30T11:54:15Z</time>
      </trkpt>
      <trkpt lat="44.06807" lon="6.38106">
        <ele>951</ele>
        <time>2017-01-30T11:56:15Z</time>
      </trkpt>
      <trkpt lat="44.06861" lon="6.38106">
        <ele>952</ele>
        <time>2017-01-30T11:58:15Z</time>
      </trkpt>
      <trkpt lat="44.06868" lon="6.38149">
        <ele>947</ele>
        <time>2017-01-30T12:00:15Z</time>
      </trkpt>
      <trkpt lat="44.06893" lon="6.38179">
        <ele>945</ele>
        <time>2017-01-30T12:02:15Z</time>
      </trkpt>
      <trkpt lat="44.0683" lon="6.38231">
        <ele>939</ele>
        <time>2017-01-30T12:04:15Z</time>
      </trkpt>
      <trkpt lat="44.06825" lon="6.38276">
        <ele>938</ele>
        <time>2017-01-30T12:06:15Z</time>
      </trkpt>
      <trkpt lat="44.06831" lon="6.38377">
        <ele>940</ele>
        <time>2017-01-30T12:08:15Z</time>
      </trkpt>
      <trkpt lat="44.06822" lon="6.38445">
        <ele>942</ele>
        <time>2017-01-30T12:10:15Z</time>
      </trkpt>
      <trkpt lat="44.06805" lon="6.38503">
        <ele>941</ele>
        <time>2017-01-30T12:12:15Z</time>
      </trkpt>
      <trkpt lat="44.06804" lon="6.38574">
        <ele>943</ele>
        <time>2017-01-30T12:14:15Z</time>
      </trkpt>
      <trkpt lat="44.06784" lon="6.38639">
        <ele>946</ele>
        <time>2017-01-30T12:16:15Z</time>
      </trkpt>
      <trkpt lat="44.06774" lon="6.38714">
        <ele>951</ele>
        <time>2017-01-30T12:18:15Z</time>
      </trkpt>
      <trkpt lat="44.06754" lon="6.38766">
        <ele>953</ele>
        <time>2017-01-30T12:20:15Z</time>
      </trkpt>
      <trkpt lat="44.06722" lon="6.38824">
        <ele>951</ele>
        <time>2017-01-30T12:22:15Z</time>
      </trkpt>
      <trkpt lat="44.06688" lon="6.38859">
        <ele>948</ele>
        <time>2017-01-30T12:24:15Z</time>
      </trkpt>
      <trkpt lat="44.06679" lon="6.38897">
        <ele>945</ele>
        <time>2017-01-30T12:26:15Z</time>
      </trkpt>
      <trkpt lat="44.06705" lon="6.38944">
        <ele>938</ele>
        <time>2017-01-30T12:28:15Z</time>
      </trkpt>
      <trkpt lat="44.06691" lon="6.38955">
        <ele>938</ele>
        <time>2017-01-30T12:30:15Z</time>
      </trkpt>
      <trkpt lat="44.06659" lon="6.38946">
        <ele>939</ele>
        <time>2017-01-30T12:32:15Z</time>
      </trkpt>
      <trkpt lat="44.06676" lon="6.38971">
        <ele>937</ele>
        <time>2017-01-30T12:34:15Z</time>
      </trkpt>
      <trkpt lat="44.06711" lon="6.38966">
        <ele>938</ele>
        <time>2017-01-30T12:36:15Z</time>
      </trkpt>
      <trkpt lat="44.06688" lon="6.38996">
        <ele>937</ele>
        <time>2017-01-30T12:38:15Z</time>
      </trkpt>
      <trkpt lat="44.06637" lon="6.39071">
        <ele>932</ele>
        <time>2017-01-30T12:40:15Z</time>
      </trkpt>
      <trkpt lat="44.066" lon="6.39112">
        <ele>929</ele>
        <time>2017-01-30T12:42:15Z</time>
      </trkpt>
      <trkpt lat="44.06588" lon="6.39193">
        <ele>930</ele>
        <time>2017-01-30T12:44:15Z</time>
      </trkpt>
      <trkpt lat="44.06559" lon="6.39268">
        <ele>932</ele>
        <time>2017-01-30T12:46:15Z</time>
      </trkpt>
      <trkpt lat="44.06511" lon="6.39333">
        <ele>931</ele>
        <time>2017-01-30T12:48:15Z</time>
      </trkpt>
      <trkpt lat="44.06511" lon="6.39412">
        <ele>933</ele>
        <time>2017-01-30T12:50:15Z</time>
      </trkpt>
      <trkpt lat="44.06489" lon="6.395">
        <ele>937</ele>
        <time>2017-01-30T12:52:15Z</time>
      </trkpt>
      <trkpt lat="44.06474" lon="6.39522">
        <ele>937</ele>
        <time>2017-01-30T12:54:15Z</time>
      </trkpt>
      <trkpt lat="44.06427" lon="6.39537">
        <ele>935</ele>
        <time>2017-01-30T12:56:15Z</time>
      </trkpt>
      <trkpt lat="44.06395" lon="6.39524">
        <ele>934</ele>
        <time>2017-01-30T12:58:15Z</time>
      </trkpt>
      <trkpt lat="44.06367" lon="6.39543">
        <ele>934</ele>
        <time>2017-01-30T13:00:15Z</time>
      </trkpt>
      <trkpt lat="44.06318" lon="6.3968">
        <ele>938</ele>
        <time>2017-01-30T13:02:15Z</time>
      </trkpt>
      <trkpt lat="44.0632" lon="6.39755">
        <ele>940</ele>
        <time>2017-01-30T13:04:15Z</time>
      </trkpt>
      <trkpt lat="44.06304" lon="6.398">
        <ele>941</ele>
        <time>2017-01-30T13:06:15Z</time>
      </trkpt>
      <trkpt lat="44.06326" lon="6.39884">
        <ele>943</ele>
        <time>2017-01-30T13:08:15Z</time>
      </trkpt>
      <trkpt lat="44.06301" lon="6.39951">
        <ele>946</ele>
        <time>2017-01-30T13:10:15Z</time>
      </trkpt>
      <trkpt lat="44.0627" lon="6.40039">
        <ele>948</ele>
        <time>2017-01-30T13:12:15Z</time>
      </trkpt>
      <trkpt lat="44.06247" lon="6.40236">
        <ele>956</ele>
        <time>2017-01-30T13:14:15Z</time>
      </trkpt>
      <trkpt lat="44.06273" lon="6.40365">
        <ele>962</ele>
        <time>2017-01-30T13:16:15Z</time>
      </trkpt>
      <trkpt lat="44.06293" lon="6.40429">
        <ele>970</ele>
        <time>2017-01-30T13:18:15Z</time>
      </trkpt>
      <trkpt lat="44.06323" lon="6.40479">
        <ele>979</ele>
        <time>2017-01-30T13:20:15Z</time>
      </trkpt>
      <trkpt lat="44.06333" lon="6.40582">
        <ele>982</ele>
        <time>2017-01-30T13:22:15Z</time>
      </trkpt>
      <trkpt lat="44.06338" lon="6.40672">
        <ele>979</ele>
        <time>2017-01-30T13:24:15Z</time>
      </trkpt>
      <trkpt lat="44.06298" lon="6.40721">
        <ele>977</ele>
        <time>2017-01-30T13:26:15Z</time>
      </trkpt>
      <trkpt lat="44.06293" lon="6.40788">
        <ele>980</ele>
        <time>2017-01-30T13:28:15Z</time>
      </trkpt>
      <trkpt lat="44.06301" lon="6.40884">
        <ele>986</ele>
        <time>2017-01-30T13:30:15Z</time>
      </trkpt>
      <trkpt lat="44.06303" lon="6.40951">
        <ele>990</ele>
        <time>2017-01-30T13:32:15Z</time>
      </trkpt>
      <trkpt lat="44.06204" lon="6.41257">
        <ele>1012</ele>
        <time>2017-01-30T13:34:15Z</time>
      </trkpt>
      <trkpt lat="44.0617" lon="6.41315">
        <ele>1017</ele>
        <time>2017-01-30T13:36:15Z</time>
      </trkpt>
      <trkpt lat="44.06131" lon="6.41352">
        <ele>1023</ele>
        <time>2017-01-30T13:38:15Z</time>
      </trkpt>
      <trkpt lat="44.06141" lon="6.41414">
        <ele>1031</ele>
        <time>2017-01-30T13:40:15Z</time>
      </trkpt>
      <trkpt lat="44.06178" lon="6.41476">
        <ele>1034</ele>
        <time>2017-01-30T13:42:15Z</time>
      </trkpt>
      <trkpt lat="44.06184" lon="6.41547">
        <ele>1043</ele>
        <time>2017-01-30T13:44:15Z</time>
      </trkpt>
      <trkpt lat="44.06204" lon="6.41597">
        <ele>1045</ele>
        <time>2017-01-30T13:46:15Z</time>
      </trkpt>
      <trkpt lat="44.06158" lon="6.41577">
        <ele>1053</ele>
        <time>2017-01-30T13:48:15Z</time>
      </trkpt>
      <trkpt lat="44.06142" lon="6.4159">
        <ele>1057</ele>
        <time>2017-01-30T13:50:15Z</time>
      </trkpt>
      <trkpt lat="44.06125" lon="6.4168">
        <ele>1068</ele>
        <time>2017-01-30T13:52:15Z</time>
      </trkpt>
      <trkpt lat="44.06173" lon="6.41702">
        <ele>1061</ele>
        <time>2017-01-30T13:54:15Z</time>
      </trkpt>
      <trkpt lat="44.06111" lon="6.41723">
        <ele>1074</ele>
        <time>2017-01-30T13:56:15Z</time>
      </trkpt>
      <trkpt lat="44.06068" lon="6.41764">
        <ele>1082</ele>
        <time>2017-01-30T13:58:15Z</time>
      </trkpt>
      <trkpt lat="44.06054" lon="6.41833">
        <ele>1088</ele>
        <time>2017-01-30T14:00:15Z</time>
      </trkpt>
      <trkpt lat="44.06031" lon="6.42129">
        <ele>1126</ele>
        <time>2017-01-30T14:02:15Z</time>
      </trkpt>
      <trkpt lat="44.06076" lon="6.42174">
        <ele>1131</ele>
        <time>2017-01-30T14:04:15Z</time>
      </trkpt>
      <trkpt lat="44.06068" lon="6.4221">
        <ele>1139</ele>
        <time>2017-01-30T14:06:15Z</time>
      </trkpt>
      <trkpt lat="44.05999" lon="6.42236">
        <ele>1147</ele>
        <time>2017-01-30T14:08:15Z</time>
      </trkpt>
      <trkpt lat="44.0598" lon="6.42277">
        <ele>1153</ele>
        <time>2017-01-30T14:10:15Z</time>
      </trkpt>
      <trkpt lat="44.05946" lon="6.42298">
        <ele>1158</ele>
        <time>2017-01-30T14:12:15Z</time>
      </trkpt>
      <trkpt lat="44.05937" lon="6.42373">
        <ele>1170</ele>
        <time>2017-01-30T14:14:15Z</time>
      </trkpt>
      <trkpt lat="44.06017" lon="6.42444">
        <ele>1183</ele>
        <time>2017-01-30T14:16:15Z</time>
      </trkpt>
      <trkpt lat="44.06019" lon="6.42506">
        <ele>1195</ele>
        <time>2017-01-30T14:18:15Z</time>
      </trkpt>
      <trkpt lat="44.05976" lon="6.42566">
        <ele>1207</ele>
        <time>2017-01-30T14:20:15Z</time>
      </trkpt>
      <trkpt lat="44.05925" lon="6.42603">
        <ele>1219</ele>
        <time>2017-01-30T14:22:15Z</time>
      </trkpt>
      <trkpt lat="44.05875" lon="6.42599">
        <ele>1221</ele>
        <time>2017-01-30T14:24:15Z</time>
      </trkpt>
      <trkpt lat="44.05795" lon="6.42616">
        <ele>1225</ele>
        <time>2017-01-30T14:26:15Z</time>
      </trkpt>
      <trkpt lat="44.05769" lon="6.42665">
        <ele>1244</ele>
        <time>2017-01-30T14:28:15Z</time>
      </trkpt>
      <trkpt lat="44.0566" lon="6.42657">
        <ele>1253</ele>
        <time>2017-01-30T14:30:15Z</time>
      </trkpt>
      <trkpt lat="44.05607" lon="6.42637">
        <ele>1252</ele>
        <time>2017-01-30T14:32:15Z</time>
      </trkpt>
      <trkpt lat="44.05555" lon="6.42599">
        <ele>1252</ele>
        <time>2017-01-30T14:34:15Z</time>
      </trkpt>
      <trkpt lat="44.05495" lon="6.42611">
        <ele>1265</ele>
        <time>2017-01-30T14:36:15Z</time>
      </trkpt>
      <trkpt lat="44.05434" lon="6.4268">
        <ele>1274</ele>
        <time>2017-01-30T14:38:15Z</time>
      </trkpt>
      <trkpt lat="44.05496" lon="6.42704">
        <ele>1286</ele>
        <time>2017-01-30T14:40:15Z</time>
      </trkpt>
      <trkpt lat="44.05549" lon="6.42719">
        <ele>1293</ele>
        <time>2017-01-30T14:42:15Z</time>
      </trkpt>
      <trkpt lat="44.05601" lon="6.42749">
        <ele>1304</ele>
        <time>2017-01-30T14:44:15Z</time>
      </trkpt>
      <trkpt lat="44.05741" lon="6.42783">
        <ele>1304</ele>
        <time>2017-01-30T14:46:15Z</time>
      </trkpt>
      <trkpt lat="44.05866" lon="6.42815">
        <ele>1302</ele>
        <time>2017-01-30T14:48:15Z</time>
      </trkpt>
      <trkpt lat="44.05917" lon="6.42796">
        <ele>1291</ele>
        <time>2017-01-30T14:50:15Z</time>
      </trkpt>
      <trkpt lat="44.05965" lon="6.4282">
        <ele>1300</ele>
        <time>2017-01-30T14:52:15Z</time>
      </trkpt>
      <trkpt lat="44.06051" lon="6.42813">
        <ele>1307</ele>
        <time>2017-01-30T14:54:15Z</time>
      </trkpt>
      <trkpt lat="44.06101" lon="6.42835">
        <ele>1323</ele>
        <time>2017-01-30T14:56:15Z</time>
      </trkpt>
      <trkpt lat="44.06158" lon="6.42822">
        <ele>1317</ele>
        <time>2017-01-30T14:58:15Z</time>
      </trkpt>
      <trkpt lat="44.06221" lon="6.42832">
        <ele>1320</ele>
        <time>2017-01-30T15:00:15Z</time>
      </trkpt>
      <trkpt lat="44.06313" lon="6.42837">
        <ele>1322</ele>
        <time>2017-01-30T15:02:15Z</time>
      </trkpt>
      <trkpt lat="44.06367" lon="6.4285">
        <ele>1325</ele>
        <time>2017-01-30T15:04:15Z</time>
      </trkpt>
      <trkpt lat="44.06409" lon="6.42923">
        <ele>1344</ele>
        <time>2017-01-30T15:06:15Z</time>
      </trkpt>
      <trkpt lat="44.06515" lon="6.42974">
        <ele>1344</ele>
        <time>2017-01-30T15:08:15Z</time>
      </trkpt>
      <trkpt lat="44.06622" lon="6.42989">
        <ele>1343</ele>
        <time>2017-01-30T15:10:15Z</time>
      </trkpt>
      <trkpt lat="44.06663" lon="6.4303">
        <ele>1338</ele>
        <time>2017-01-30T15:12:15Z</time>
      </trkpt>
      <trkpt lat="44.06731" lon="6.43021">
        <ele>1361</ele>
        <time>2017-01-30T15:14:15Z</time>
      </trkpt>
      <trkpt lat="44.0675" lon="6.43152">
        <ele>1346</ele>
        <time>2017-01-30T15:16:15Z</time>
      </trkpt>
      <trkpt lat="44.06841" lon="6.43146">
        <ele>1340</ele>
        <time>2017-01-30T15:18:15Z</time>
      </trkpt>
      <trkpt lat="44.06915" lon="6.43262">
        <ele>1319</ele>
        <time>2017-01-30T15:20:15Z</time>
      </trkpt>
      <trkpt lat="44.06972" lon="6.43236">
        <ele>1311</ele>
        <time>2017-01-30T15:22:15Z</time>
      </trkpt>
      <trkpt lat="44.07029" lon="6.43236">
        <ele>1298</ele>
        <time>2017-01-30T15:24:15Z</time>
      </trkpt>
      <trkpt lat="44.07086" lon="6.43234">
        <ele>1291</ele>
        <time>2017-01-30T15:26:15Z</time>
      </trkpt>
      <trkpt lat="44.07141" lon="6.43217">
        <ele>1293</ele>
        <time>2017-01-30T15:28:15Z</time>
      </trkpt>
      <trkpt lat="44.07191" lon="6.43255">
        <ele>1279</ele>
        <time>2017-01-30T15:30:15Z</time>
      </trkpt>
      <trkpt lat="44.07283" lon="6.43281">
        <ele>1256</ele>
        <time>2017-01-30T15:32:15Z</time>
      </trkpt>
      <trkpt lat="44.07373" lon="6.43255">
        <ele>1264</ele>
        <time>2017-01-30T15:34:15Z</time>
      </trkpt>
      <trkpt lat="44.0738" lon="6.43294">
        <ele>1267</ele>
        <time>2017-01-30T15:36:15Z</time>
      </trkpt>
      <trkpt lat="44.07411" lon="6.43264">
        <ele>1273</ele>
        <time>2017-01-30T15:38:15Z</time>
      </trkpt>
      <trkpt lat="44.07436" lon="6.43358">
        <ele>1279</ele>
        <time>2017-01-30T15:40:15Z</time>
      </trkpt>
      <trkpt lat="44.07462" lon="6.43423">
        <ele>1283</ele>
        <time>2017-01-30T15:42:15Z</time>
      </trkpt>
      <trkpt lat="44.07482" lon="6.43487">
        <ele>1286</ele>
        <time>2017-01-30T15:44:15Z</time>
      </trkpt>
      <trkpt lat="44.07548" lon="6.43553">
        <ele>1306</ele>
        <time>2017-01-30T15:46:15Z</time>
      </trkpt>
      <trkpt lat="44.07573" lon="6.43502">
        <ele>1314</ele>
        <time>2017-01-30T15:48:15Z</time>
      </trkpt>
      <trkpt lat="44.07568" lon="6.43431">
        <ele>1312</ele>
        <time>2017-01-30T15:50:15Z</time>
      </trkpt>
      <trkpt lat="44.07565" lon="6.43377">
        <ele>1313</ele>
        <time>2017-01-30T15:52:15Z</time>
      </trkpt>
      <trkpt lat="44.0761" lon="6.43354">
        <ele>1323</ele>
        <time>2017-01-30T15:54:15Z</time>
      </trkpt>
      <trkpt lat="44.07653" lon="6.4333">
        <ele>1333</ele>
        <time>2017-01-30T15:56:15Z</time>
      </trkpt>
      <trkpt lat="44.07676" lon="6.43367">
        <ele>1343</ele>
        <time>2017-01-30T15:58:15Z</time>
      </trkpt>
      <trkpt lat="44.07653" lon="6.43425">
        <ele>1341</ele>
        <time>2017-01-30T16:00:15Z</time>
      </trkpt>
      <trkpt lat="44.07662" lon="6.43526">
        <ele>1351</ele>
        <time>2017-01-30T16:02:15Z</time>
      </trkpt>
      <trkpt lat="44.07633" lon="6.43618">
        <ele>1346</ele>
        <time>2017-01-30T16:04:15Z</time>
      </trkpt>
      <trkpt lat="44.07599" lon="6.43689">
        <ele>1338</ele>
        <time>2017-01-30T16:06:15Z</time>
      </trkpt>
      <trkpt lat="44.07585" lon="6.4374">
        <ele>1334</ele>
        <time>2017-01-30T16:08:15Z</time>
      </trkpt>
      <trkpt lat="44.07596" lon="6.43785">
        <ele>1332</ele>
        <time>2017-01-30T16:10:15Z</time>
      </trkpt>
      <trkpt lat="44.07633" lon="6.4389">
        <ele>1331</ele>
        <time>2017-01-30T16:12:15Z</time>
      </trkpt>
      <trkpt lat="44.07726" lon="6.43944">
        <ele>1357</ele>
        <time>2017-01-30T16:14:15Z</time>
      </trkpt>
      <trkpt lat="44.07775" lon="6.44004">
        <ele>1372</ele>
        <time>2017-01-30T16:16:15Z</time>
      </trkpt>
      <trkpt lat="44.07844" lon="6.44152">
        <ele>1391</ele>
        <time>2017-01-30T16:18:15Z</time>
      </trkpt>
      <trkpt lat="44.07807" lon="6.44199">
        <ele>1388</ele>
        <time>2017-01-30T16:20:15Z</time>
      </trkpt>
      <trkpt lat="44.07801" lon="6.44262">
        <ele>1390</ele>
        <time>2017-01-30T16:22:15Z</time>
      </trkpt>
      <trkpt lat="44.07787" lon="6.44328">
        <ele>1386</ele>
        <time>2017-01-30T16:24:15Z</time>
      </trkpt>
      <trkpt lat="44.07813" lon="6.44384">
        <ele>1375</ele>
        <time>2017-01-30T16:26:15Z</time>
      </trkpt>
      <trkpt lat="44.07863" lon="6.44476">
        <ele>1346</ele>
        <time>2017-01-30T16:28:15Z</time>
      </trkpt>
      <trkpt lat="44.07875" lon="6.44549">
        <ele>1338</ele>
        <time>2017-01-30T16:30:15Z</time>
      </trkpt>
      <trkpt lat="44.07929" lon="6.44616">
        <ele>1319</ele>
        <time>2017-01-30T16:32:15Z</time>
      </trkpt>
      <trkpt lat="44.07975" lon="6.4465">
        <ele>1312</ele>
        <time>2017-01-30T16:34:15Z</time>
      </trkpt>
      <trkpt lat="44.07974" lon="6.44781">
        <ele>1293</ele>
        <time>2017-01-30T16:36:15Z</time>
      </trkpt>
      <trkpt lat="44.08022" lon="6.44828">
        <ele>1281</ele>
        <time>2017-01-30T16:38:15Z</time>
      </trkpt>
      <trkpt lat="44.0802" lon="6.44862">
        <ele>1274</ele>
        <time>2017-01-30T16:40:15Z</time>
      </trkpt>
      <trkpt lat="44.07985" lon="6.44942">
        <ele>1275</ele>
        <time>2017-01-30T16:42:15Z</time>
      </trkpt>
      <trkpt lat="44.07952" lon="6.45053">
        <ele>1279</ele>
        <time>2017-01-30T16:44:15Z</time>
      </trkpt>
      <trkpt lat="44.07938" lon="6.45126">
        <ele>1283</ele>
        <time>2017-01-30T16:46:15Z</time>
      </trkpt>
      <trkpt lat="44.07931" lon="6.45204">
        <ele>1283</ele>
        <time>2017-01-30T16:48:15Z</time>
      </trkpt>
      <trkpt lat="44.079" lon="6.45307">
        <ele>1289</ele>
        <time>2017-01-30T16:50:15Z</time>
      </trkpt>
      <trkpt lat="44.0789" lon="6.45369">
        <ele>1285</ele>
        <time>2017-01-30T16:52:15Z</time>
      </trkpt>
      <trkpt lat="44.07877" lon="6.4544">
        <ele>1279</ele>
        <time>2017-01-30T16:54:15Z</time>
      </trkpt>
      <trkpt lat="44.0782" lon="6.45536">
        <ele>1272</ele>
        <time>2017-01-30T16:56:15Z</time>
      </trkpt>
      <trkpt lat="44.07775" lon="6.45616">
        <ele>1264</ele>
        <time>2017-01-30T16:58:15Z</time>
      </trkpt>
      <trkpt lat="44.07736" lon="6.45648">
        <ele>1263</ele>
        <time>2017-01-30T17:00:15Z</time>
      </trkpt>
      <trkpt lat="44.07689" lon="6.45684">
        <ele>1268</ele>
        <time>2017-01-30T17:02:15Z</time>
      </trkpt>
      <trkpt lat="44.07636" lon="6.45744">
        <ele>1265</ele>
        <time>2017-01-30T17:04:15Z</time>
      </trkpt>
      <trkpt lat="44.07562" lon="6.45738">
        <ele>1280</ele>
        <time>2017-01-30T17:06:15Z</time>
      </trkpt>
      <trkpt lat="44.07554" lon="6.45783">
        <ele>1284</ele>
        <time>2017-01-30T17:08:15Z</time>
      </trkpt>
      <trkpt lat="44.07564" lon="6.45907">
        <ele>1275</ele>
        <time>2017-01-30T17:10:15Z</time>
      </trkpt>
      <trkpt lat="44.07508" lon="6.46006">
        <ele>1282</ele>
        <time>2017-01-30T17:12:15Z</time>
      </trkpt>
      <trkpt lat="44.07453" lon="6.46115">
        <ele>1286</ele>
        <time>2017-01-30T17:14:15Z</time>
      </trkpt>
      <trkpt lat="44.07433" lon="6.46167">
        <ele>1283</ele>
        <time>2017-01-30T17:16:15Z</time>
      </trkpt>
      <trkpt lat="44.07348" lon="6.46197">
        <ele>1296</ele>
        <time>2017-01-30T17:18:15Z</time>
      </trkpt>
      <trkpt lat="44.07282" lon="6.46257">
        <ele>1294</ele>
        <time>2017-01-30T17:20:15Z</time>
      </trkpt>
      <trkpt lat="44.07225" lon="6.46345">
        <ele>1298</ele>
        <time>2017-01-30T17:22:15Z</time>
      </trkpt>
      <trkpt lat="44.07192" lon="6.46403">
        <ele>1299</ele>
        <time>2017-01-30T17:24:15Z</time>
      </trkpt>
      <trkpt lat="44.07155" lon="6.46437">
        <ele>1300</ele>
        <time>2017-01-30T17:26:15Z</time>
      </trkpt>
      <trkpt lat="44.07103" lon="6.46512">
        <ele>1287</ele>
        <time>2017-01-30T17:28:15Z</time>
      </trkpt>
      <trkpt lat="44.07063" lon="6.46532">
        <ele>1289</ele>
        <time>2017-01-30T17:30:15Z</time>
      </trkpt>
      <trkpt lat="44.0701" lon="6.46487">
        <ele>1295</ele>
        <time>2017-01-30T17:32:15Z</time>
      </trkpt>
      <trkpt lat="44.06987" lon="6.46424">
        <ele>1301</ele>
        <time>2017-01-30T17:34:15Z</time>
      </trkpt>
      <trkpt lat="44.06976" lon="6.46349">
        <ele>1307</ele>
        <time>2017-01-30T17:36:15Z</time>
      </trkpt>
      <trkpt lat="44.06952" lon="6.46364">
        <ele>1299</ele>
        <time>2017-01-30T17:38:15Z</time>
      </trkpt>
      <trkpt lat="44.06922" lon="6.46401">
        <ele>1286</ele>
        <time>2017-01-30T17:40:15Z</time>
      </trkpt>
      <trkpt lat="44.06867" lon="6.46412">
        <ele>1290</ele>
        <time>2017-01-30T17:42:15Z</time>
      </trkpt>
      <trkpt lat="44.06824" lon="6.46392">
        <ele>1298</ele>
        <time>2017-01-30T17:44:15Z</time>
      </trkpt>
      <trkpt lat="44.06811" lon="6.46414">
        <ele>1290</ele>
        <time>2017-01-30T17:46:15Z</time>
      </trkpt>
      <trkpt lat="44.06814" lon="6.46444">
        <ele>1281</ele>
        <time>2017-01-30T17:48:15Z</time>
      </trkpt>
      <trkpt lat="44.06764" lon="6.46418">
        <ele>1282</ele>
        <time>2017-01-30T17:50:15Z</time>
      </trkpt>
      <trkpt lat="44.06807" lon="6.46474">
        <ele>1268</ele>
        <time>2017-01-30T17:52:15Z</time>
      </trkpt>
      <trkpt lat="44.06865" lon="6.4653">
        <ele>1246</ele>
        <time>2017-01-30T17:54:15Z</time>
      </trkpt>
      <trkpt lat="44.06919" lon="6.46495">
        <ele>1266</ele>
        <time>2017-01-30T17:56:15Z</time>
      </trkpt>
      <trkpt lat="44.06945" lon="6.4656">
        <ele>1261</ele>
        <time>2017-01-30T17:58:15Z</time>
      </trkpt>
      <trkpt lat="44.06945" lon="6.4665">
        <ele>1245</ele>
        <time>2017-01-30T18:00:15Z</time>
      </trkpt>
      <trkpt lat="44.0697" lon="6.46751">
        <ele>1234</ele>
        <time>2017-01-30T18:02:15Z</time>
      </trkpt>
      <trkpt lat="44.07003" lon="6.46867">
        <ele>1214</ele>
        <time>2017-01-30T18:04:15Z</time>
      </trkpt>
      <trkpt lat="44.07018" lon="6.46937">
        <ele>1195</ele>
        <time>2017-01-30T18:06:15Z</time>
      </trkpt>
      <trkpt lat="44.0706" lon="6.46985">
        <ele>1179</ele>
        <time>2017-01-30T18:08:15Z</time>
      </trkpt>
      <trkpt lat="44.07106" lon="6.47025">
        <ele>1160</ele>
        <time>2017-01-30T18:10:15Z</time>
      </trkpt>
      <trkpt lat="44.07107" lon="6.47103">
        <ele>1147</ele>
        <time>2017-01-30T18:12:15Z</time>
      </trkpt>
      <trkpt lat="44.07089" lon="6.47214">
        <ele>1135</ele>
        <time>2017-01-30T18:14:15Z</time>
      </trkpt>
      <trkpt lat="44.07138" lon="6.47283">
        <ele>1113</ele>
        <time>2017-01-30T18:16:15Z</time>
      </trkpt>
      <trkpt lat="44.07138" lon="6.47377">
        <ele>1105</ele>
        <time>2017-01-30T18:18:15Z</time>
      </trkpt>
      <trkpt lat="44.07147" lon="6.47502">
        <ele>1086</ele>
        <time>2017-01-30T18:20:15Z</time>
      </trkpt>
      <trkpt lat="44.07174" lon="6.47585">
        <ele>1077</ele>
        <time>2017-01-30T18:22:15Z</time>
      </trkpt>
      <trkpt lat="44.07226" lon="6.47605">
        <ele>1072</ele>
        <time>2017-01-30T18:24:15Z</time>
      </trkpt>
      <trkpt lat="44.07319" lon="6.47761">
        <ele>1072</ele>
        <time>2017-01-30T18:26:15Z</time>
      </trkpt>
      <trkpt lat="44.0732" lon="6.4783">
        <ele>1069</ele>
        <time>2017-01-30T18:28:15Z</time>
      </trkpt>
      <trkpt lat="44.07368" lon="6.47802">
        <ele>1075</ele>
        <time>2017-01-30T18:30:15Z</time>
      </trkpt>
      <trkpt lat="44.07406" lon="6.47851">
        <ele>1076</ele>
        <time>2017-01-30T18:32:15Z</time>
      </trkpt>
      <trkpt lat="44.07528" lon="6.47954">
        <ele>1079</ele>
        <time>2017-01-30T18:34:15Z</time>
      </trkpt>
      <trkpt lat="44.07611" lon="6.47977">
        <ele>1081</ele>
        <time>2017-01-30T18:36:15Z</time>
      </trkpt>
      <trkpt lat="44.07695" lon="6.47964">
        <ele>1078</ele>
        <time>2017-01-30T18:38:15Z</time>
      </trkpt>
      <trkpt lat="44.07784" lon="6.47973">
        <ele>1081</ele>
        <time>2017-01-30T18:40:15Z</time>
      </trkpt>
      <trkpt lat="44.07866" lon="6.47979">
        <ele>1084</ele>
        <time>2017-01-30T18:42:15Z</time>
      </trkpt>
      <trkpt lat="44.07934" lon="6.47975">
        <ele>1085</ele>
        <time>2017-01-30T18:44:15Z</time>
      </trkpt>
      <trkpt lat="44.08057" lon="6.47921">
        <ele>1091</ele>
        <time>2017-01-30T18:46:15Z</time>
      </trkpt>
      <trkpt lat="44.08233" lon="6.47891">
        <ele>1095</ele>
        <time>2017-01-30T18:48:15Z</time>
      </trkpt>
      <trkpt lat="44.08317" lon="6.47908">
        <ele>1096</ele>
        <time>2017-01-30T18:50:15Z</time>
      </trkpt>
      <trkpt lat="44.08438" lon="6.47949">
        <ele>1098</ele>
        <time>2017-01-30T18:52:15Z</time>
      </trkpt>
      <trkpt lat="44.08498" lon="6.47953">
        <ele>1098</ele>
        <time>2017-01-30T18:54:15Z</time>
      </trkpt>
      <trkpt lat="44.08561" lon="6.47934">
        <ele>1099</ele>
        <time>2017-01-30T18:56:15Z</time>
      </trkpt>
      <trkpt lat="44.08637" lon="6.47943">
        <ele>1102</ele>
        <time>2017-01-30T18:58:15Z</time>
      </trkpt>
      <trkpt lat="44.08664" lon="6.48005">
        <ele>1100</ele>
        <time>2017-01-30T19:00:15Z</time>
      </trkpt>
      <trkpt lat="44.08806" lon="6.48065">
        <ele>1104</ele>
        <time>2017-01-30T19:02:15Z</time>
      </trkpt>
      <trkpt lat="44.08877" lon="6.48071">
        <ele>1108</ele>
        <time>2017-01-30T19:04:15Z</time>
      </trkpt>
      <trkpt lat="44.08939" lon="6.48104">
        <ele>1114</ele>
        <time>2017-01-30T19:06:15Z</time>
      </trkpt>
      <trkpt lat="44.08986" lon="6.48159">
        <ele>1111</ele>
        <time>2017-01-30T19:08:15Z</time>
      </trkpt>
      <trkpt lat="44.09096" lon="6.48219">
        <ele>1113</ele>
        <time>2017-01-30T19:10:15Z</time>
      </trkpt>
      <trkpt lat="44.09216" lon="6.48297">
        <ele>1124</ele>
        <time>2017-01-30T19:12:15Z</time>
      </trkpt>
      <trkpt lat="44.09259" lon="6.4835">
        <ele>1119</ele>
        <time>2017-01-30T19:14:15Z</time>
      </trkpt>
      <trkpt lat="44.09332" lon="6.48419">
        <ele>1130</ele>
        <time>2017-01-30T19:16:15Z</time>
      </trkpt>
      <trkpt lat="44.0937" lon="6.48464">
        <ele>1143</ele>
        <time>2017-01-30T19:18:15Z</time>
      </trkpt>
      <trkpt lat="44.09407" lon="6.48586">
        <ele>1149</ele>
        <time>2017-01-30T19:20:15Z</time>
      </trkpt>
      <trkpt lat="44.09409" lon="6.48655">
        <ele>1136</ele>
        <time>2017-01-30T19:22:15Z</time>
      </trkpt>
      <trkpt lat="44.09419" lon="6.48724">
        <ele>1129</ele>
        <time>2017-01-30T19:24:15Z</time>
      </trkpt>
      <trkpt lat="44.0946" lon="6.48825">
        <ele>1149</ele>
        <time>2017-01-30T19:26:15Z</time>
      </trkpt>
      <trkpt lat="44.09456" lon="6.48962">
        <ele>1148</ele>
        <time>2017-01-30T19:28:15Z</time>
      </trkpt>
      <trkpt lat="44.09449" lon="6.49144">
        <ele>1145</ele>
        <time>2017-01-30T19:30:15Z</time>
      </trkpt>
      <trkpt lat="44.09461" lon="6.49258">
        <ele>1147</ele>
        <time>2017-01-30T19:32:15Z</time>
      </trkpt>
      <trkpt lat="44.09513" lon="6.49318">
        <ele>1170</ele>
        <time>2017-01-30T19:34:15Z</time>
      </trkpt>
      <trkpt lat="44.09512" lon="6.49406">
        <ele>1180</ele>
        <time>2017-01-30T19:36:15Z</time>
      </trkpt>
      <trkpt lat="44.09513" lon="6.49494">
        <ele>1182</ele>
        <time>2017-01-30T19:38:15Z</time>
      </trkpt>
      <trkpt lat="44.09513" lon="6.49571">
        <ele>1180</ele>
        <time>2017-01-30T19:40:15Z</time>
      </trkpt>
      <trkpt lat="44.09503" lon="6.4964">
        <ele>1174</ele>
        <time>2017-01-30T19:42:15Z</time>
      </trkpt>
      <trkpt lat="44.09512" lon="6.49726">
        <ele>1174</ele>
        <time>2017-01-30T19:44:15Z</time>
      </trkpt>
      <trkpt lat="44.09512" lon="6.49779">
        <ele>1168</ele>
        <time>2017-01-30T19:46:15Z</time>
      </trkpt>
      <trkpt lat="44.09527" lon="6.49859">
        <ele>1168</ele>
        <time>2017-01-30T19:48:15Z</time>
      </trkpt>
      <trkpt lat="44.09532" lon="6.49912">
        <ele>1164</ele>
        <time>2017-01-30T19:50:15Z</time>
      </trkpt>
      <trkpt lat="44.09549" lon="6.49996">
        <ele>1156</ele>
        <time>2017-01-30T19:52:15Z</time>
      </trkpt>
      <trkpt lat="44.09487" lon="6.50015">
        <ele>1149</ele>
        <time>2017-01-30T19:54:15Z</time>
      </trkpt>
      <trkpt lat="44.09438" lon="6.50043">
        <ele>1148</ele>
        <time>2017-01-30T19:56:15Z</time>
      </trkpt>
      <trkpt lat="44.09399" lon="6.50015">
        <ele>1147</ele>
        <time>2017-01-30T19:58:15Z</time>
      </trkpt>
      <trkpt lat="44.09275" lon="6.4999">
        <ele>1150</ele>
        <time>2017-01-30T20:00:15Z</time>
      </trkpt>
      <trkpt lat="44.09245" lon="6.49975">
        <ele>1149</ele>
        <time>2017-01-30T20:02:15Z</time>
      </trkpt>
      <trkpt lat="44.09201" lon="6.49921">
        <ele>1143</ele>
        <time>2017-01-30T20:04:15Z</time>
      </trkpt>
      <trkpt lat="44.09162" lon="6.49925">
        <ele>1143</ele>
        <time>2017-01-30T20:06:15Z</time>
      </trkpt>
      <trkpt lat="44.09099" lon="6.49957">
        <ele>1139</ele>
        <time>2017-01-30T20:08:15Z</time>
      </trkpt>
      <trkpt lat="44.09059" lon="6.4994">
        <ele>1136</ele>
        <time>2017-01-30T20:10:15Z</time>
      </trkpt>
      <trkpt lat="44.09079" lon="6.5003">
        <ele>1135</ele>
        <time>2017-01-30T20:12:15Z</time>
      </trkpt>
      <trkpt lat="44.09088" lon="6.50203">
        <ele>1138</ele>
      </trkpt>
      <trkpt lat="44.09082" lon="6.50217">
        <ele>1137</ele>
      </trkpt>
      <trkpt lat="44.09076" lon="6.50226">
        <ele>1136</ele>
      </trkpt>
      <trkpt lat="44.09066" lon="6.50239">
        <ele>1136</ele>
      </trkpt>
      <trkpt lat="44.09061" lon="6.50246">
        <ele>1136</ele>
      </trkpt>
      <trkpt lat="44.09055" lon="6.50253">
        <ele>1136</ele>
      </trkpt>
      <trkpt lat="44.0905" lon="6.50256">
        <ele>1136</ele>
      </trkpt>
      <trkpt lat="44.09046" lon="6.50262">
        <ele>1137</ele>
      </trkpt>
      <trkpt lat="44.09034" lon="6.5027">
        <ele>1138</ele>
      </trkpt>
      <trkpt lat="44.09027" lon="6.50274">
        <ele>1138</ele>
      </trkpt>
      <trkpt lat="44.09019" lon="6.50279">
        <ele>1138</ele>
      </trkpt>
      <trkpt lat="44.0901" lon="6.50287">
        <ele>1138</ele>
      </trkpt>
      <trkpt lat="44.08999" lon="6.50293">
        <ele>1137</ele>
      </trkpt>
      <trkpt lat="44.08986" lon="6.50297">
        <ele>1137</ele>
      </trkpt>
      <trkpt lat="44.08972" lon="6.50297">
        <ele>1136</ele>
      </trkpt>
      <trkpt lat="44.08958" lon="6.50297">
        <ele>1135</ele>
      </trkpt>
      <trkpt lat="44.08945" lon="6.50295">
        <ele>1134</ele>
      </trkpt>
      <trkpt lat="44.08936" lon="6.50294">
        <ele>1133</ele>
      </trkpt>
      <trkpt lat="44.08933" lon="6.50296">
        <ele>1132</ele>
      </trkpt>
      <trkpt lat="44.0893" lon="6.50294">
        <ele>1132</ele>
      </trkpt>
      <trkpt lat="44.08925" lon="6.50296">
        <ele>1132</ele>
      </trkpt>
      <trkpt lat="44.08929" lon="6.50299">
        <ele>1132</ele>
      </trkpt>
      <trkpt lat="44.08929" lon="6.50296">
        <ele>1132</ele>
      </trkpt>
      <trkpt lat="44.08918" lon="6.50293">
        <ele>1131</ele>
      </trkpt>
      <trkpt lat="44.08901" lon="6.50296">
        <ele>1129</ele>
      </trkpt>
      <trkpt lat="44.08875" lon="6.50303">
        <ele>1125</ele>
      </trkpt>
      <trkpt lat="44.08847" lon="6.50311">
        <ele>1120</ele>
      </trkpt>
      <trkpt lat="44.08817" lon="6.50314">
        <ele>1115</ele>
      </trkpt>
      <trkpt lat="44.08791" lon="6.5032">
        <ele>1112</ele>
      </trkpt>
      <trkpt lat="44.08768" lon="6.50328">
        <ele>1110</ele>
      </trkpt>
      <trkpt lat="44.08747" lon="6.50336">
        <ele>1110</ele>
      </trkpt>
      <trkpt lat="44.08725" lon="6.50345">
        <ele>1110</ele>
      </trkpt>
      <trkpt lat="44.08704" lon="6.5035">
        <ele>1110</ele>
      </trkpt>
      <trkpt lat="44.0868" lon="6.50345">
        <ele>1110</ele>
      </trkpt>
      <trkpt lat="44.08662" lon="6.50332">
        <ele>1110</ele>
      </trkpt>
      <trkpt lat="44.08644" lon="6.50321">
        <ele>1111</ele>
      </trkpt>
      <trkpt lat="44.08626" lon="6.50314">
        <ele>1111</ele>
      </trkpt>
      <trkpt lat="44.08613" lon="6.50313">
        <ele>1112</ele>
      </trkpt>
      <trkpt lat="44.08591" lon="6.50322">
        <ele>1113</ele>
      </trkpt>
      <trkpt lat="44.08585" lon="6.50329">
        <ele>1113</ele>
      </trkpt>
      <trkpt lat="44.08579" lon="6.50336">
        <ele>1114</ele>
      </trkpt>
      <trkpt lat="44.08571" lon="6.50353">
        <ele>1114</ele>
      </trkpt>
      <trkpt lat="44.08562" lon="6.50366">
        <ele>1114</ele>
      </trkpt>
      <trkpt lat="44.0855" lon="6.50381">
        <ele>1115</ele>
      </trkpt>
      <trkpt lat="44.0854" lon="6.50393">
        <ele>1116</ele>
      </trkpt>
      <trkpt lat="44.08529" lon="6.50404">
        <ele>1116</ele>
      </trkpt>
      <trkpt lat="44.0852" lon="6.50417">
        <ele>1117</ele>
      </trkpt>
      <trkpt lat="44.08514" lon="6.5043">
        <ele>1117</ele>
      </trkpt>
      <trkpt lat="44.08506" lon="6.50441">
        <ele>1118</ele>
      </trkpt>
      <trkpt lat="44.08499" lon="6.50452">
        <ele>1119</ele>
      </trkpt>
      <trkpt lat="44.08492" lon="6.50461">
        <ele>1120</ele>
      </trkpt>
      <trkpt lat="44.08485" lon="6.50471">
        <ele>1121</ele>
      </trkpt>
      <trkpt lat="44.08478" lon="6.5048">
        <ele>1122</ele>
      </trkpt>
      <trkpt lat="44.08472" lon="6.50488">
        <ele>1123</ele>
      </trkpt>
      <trkpt lat="44.08472" lon="6.50501">
        <ele>1124</ele>
      </trkpt>
      <trkpt lat="44.08476" lon="6.50514">
        <ele>1124</ele>
      </trkpt>
      <trkpt lat="44.08478" lon="6.50523">
        <ele>1124</ele>
      </trkpt>
      <trkpt lat="44.08481" lon="6.50532">
        <ele>1123</ele>
      </trkpt>
      <trkpt lat="44.08486" lon="6.5054">
        <ele>1123</ele>
      </trkpt>
      <trkpt lat="44.08491" lon="6.50546">
        <ele>1122</ele>
      </trkpt>
      <trkpt lat="44.08495" lon="6.50555">
        <ele>1122</ele>
      </trkpt>
      <trkpt lat="44.08497" lon="6.50561">
        <ele>1122</ele>
      </trkpt>
      <trkpt lat="44.08496" lon="6.50577">
        <ele>1122</ele>
      </trkpt>
      <trkpt lat="44.08492" lon="6.5059">
        <ele>1122</ele>
      </trkpt>
      <trkpt lat="44.08488" lon="6.50607">
        <ele>1123</ele>
      </trkpt>
      <trkpt lat="44.08484" lon="6.50626">
        <ele>1124</ele>
      </trkpt>
      <trkpt lat="44.08479" lon="6.50645">
        <ele>1126</ele>
      </trkpt>
      <trkpt lat="44.085" lon="6.50628">
        <ele>1122</ele>
      </trkpt>
      <trkpt lat="44.08524" lon="6.50621">
        <ele>1119</ele>
      </trkpt>
      <trkpt lat="44.0855" lon="6.50615">
        <ele>1118</ele>
      </trkpt>
      <trkpt lat="44.08573" lon="6.50611">
        <ele>1118</ele>
      </trkpt>
      <trkpt lat="44.08584" lon="6.50609">
        <ele>1117</ele>
      </trkpt>
      <trkpt lat="44.08574" lon="6.50625">
        <ele>1118</ele>
      </trkpt>
      <trkpt lat="44.08578" lon="6.50642">
        <ele>1118</ele>
      </trkpt>
      <trkpt lat="44.08582" lon="6.50653">
        <ele>1118</ele>
      </trkpt>
      <trkpt lat="44.0859" lon="6.50676">
        <ele>1119</ele>
      </trkpt>
      <trkpt lat="44.08595" lon="6.50694">
        <ele>1119</ele>
      </trkpt>
      <trkpt lat="44.08603" lon="6.50709">
        <ele>1119</ele>
      </trkpt>
      <trkpt lat="44.08615" lon="6.50721">
        <ele>1120</ele>
      </trkpt>
      <trkpt lat="44.08629" lon="6.50731">
        <ele>1120</ele>
      </trkpt>
      <trkpt lat="44.08644" lon="6.50741">
        <ele>1120</ele>
      </trkpt>
      <trkpt lat="44.08658" lon="6.50751">
        <ele>1121</ele>
      </trkpt>
      <trkpt lat="44.08674" lon="6.50769">
        <ele>1122</ele>
      </trkpt>
      <trkpt lat="44.08685" lon="6.50784">
        <ele>1123</ele>
      </trkpt>
      <trkpt lat="44.08696" lon="6.50796">
        <ele>1123</ele>
      </trkpt>
      <trkpt lat="44.08707" lon="6.50809">
        <ele>1123</ele>
      </trkpt>
      <trkpt lat="44.08719" lon="6.5082">
        <ele>1123</ele>
      </trkpt>
      <trkpt lat="44.0873" lon="6.50834">
        <ele>1123</ele>
      </trkpt>
      <trkpt lat="44.0874" lon="6.50848">
        <ele>1123</ele>
      </trkpt>
      <trkpt lat="44.08752" lon="6.50869">
        <ele>1123</ele>
      </trkpt>
      <trkpt lat="44.08761" lon="6.50892">
        <ele>1124</ele>
      </trkpt>
      <trkpt lat="44.08767" lon="6.50907">
        <ele>1125</ele>
      </trkpt>
      <trkpt lat="44.08773" lon="6.50922">
        <ele>1125</ele>
      </trkpt>
      <trkpt lat="44.08778" lon="6.50938">
        <ele>1126</ele>
      </trkpt>
      <trkpt lat="44.08782" lon="6.50961">
        <ele>1127</ele>
      </trkpt>
      <trkpt lat="44.08784" lon="6.50979">
        <ele>1127</ele>
      </trkpt>
      <trkpt lat="44.08786" lon="6.50995">
        <ele>1128</ele>
      </trkpt>
      <trkpt lat="44.0879" lon="6.5101">
        <ele>1128</ele>
      </trkpt>
      <trkpt lat="44.08794" lon="6.51023">
        <ele>1129</ele>
      </trkpt>
      <trkpt lat="44.08789" lon="6.51028">
        <ele>1129</ele>
      </trkpt>
      <trkpt lat="44.08782" lon="6.51031">
        <ele>1129</ele>
      </trkpt>
      <trkpt lat="44.08769" lon="6.5104">
        <ele>1131</ele>
      </trkpt>
      <trkpt lat="44.08757" lon="6.51045">
        <ele>1132</ele>
      </trkpt>
      <trkpt lat="44.08745" lon="6.51047">
        <ele>1132</ele>
      </trkpt>
      <trkpt lat="44.08732" lon="6.51051">
        <ele>1134</ele>
      </trkpt>
      <trkpt lat="44.08721" lon="6.5106">
        <ele>1135</ele>
      </trkpt>
      <trkpt lat="44.08709" lon="6.51071">
        <ele>1136</ele>
      </trkpt>
      <trkpt lat="44.08696" lon="6.51081">
        <ele>1138</ele>
      </trkpt>
      <trkpt lat="44.08685" lon="6.51095">
        <ele>1139</ele>
      </trkpt>
      <trkpt lat="44.08673" lon="6.5111">
        <ele>1140</ele>
      </trkpt>
      <trkpt lat="44.08662" lon="6.51127">
        <ele>1142</ele>
      </trkpt>
      <trkpt lat="44.08655" lon="6.5115">
        <ele>1144</ele>
      </trkpt>
      <trkpt lat="44.08648" lon="6.51174">
        <ele>1145</ele>
      </trkpt>
      <trkpt lat="44.08638" lon="6.51192">
        <ele>1147</ele>
      </trkpt>
      <trkpt lat="44.0861" lon="6.51209">
        <ele>1152</ele>
      </trkpt>
      <trkpt lat="44.08592" lon="6.51205">
        <ele>1154</ele>
      </trkpt>
      <trkpt lat="44.08576" lon="6.51202">
        <ele>1154</ele>
      </trkpt>
      <trkpt lat="44.08565" lon="6.51203">
        <ele>1155</ele>
      </trkpt>
      <trkpt lat="44.08553" lon="6.51212">
        <ele>1156</ele>
      </trkpt>
      <trkpt lat="44.08533" lon="6.5123">
        <ele>1158</ele>
      </trkpt>
      <trkpt lat="44.08513" lon="6.51239">
        <ele>1159</ele>
      </trkpt>
      <trkpt lat="44.08499" lon="6.51235">
        <ele>1159</ele>
      </trkpt>
      <trkpt lat="44.08481" lon="6.51238">
        <ele>1161</ele>
      </trkpt>
      <trkpt lat="44.08466" lon="6.51238">
        <ele>1163</ele>
      </trkpt>
      <trkpt lat="44.08454" lon="6.51242">
        <ele>1165</ele>
      </trkpt>
      <trkpt lat="44.08448" lon="6.51247">
        <ele>1166</ele>
      </trkpt>
      <trkpt lat="44.08436" lon="6.51252">
        <ele>1168</ele>
      </trkpt>
      <trkpt lat="44.08424" lon="6.51249">
        <ele>1170</ele>
      </trkpt>
      <trkpt lat="44.08402" lon="6.51257">
        <ele>1173</ele>
      </trkpt>
      <trkpt lat="44.08391" lon="6.51274">
        <ele>1175</ele>
      </trkpt>
      <trkpt lat="44.08378" lon="6.51289">
        <ele>1177</ele>
      </trkpt>
      <trkpt lat="44.08361" lon="6.513">
        <ele>1178</ele>
      </trkpt>
      <trkpt lat="44.08341" lon="6.51308">
        <ele>1181</ele>
      </trkpt>
      <trkpt lat="44.0832" lon="6.51311">
        <ele>1183</ele>
      </trkpt>
      <trkpt lat="44.083" lon="6.51316">
        <ele>1188</ele>
      </trkpt>
      <trkpt lat="44.0828" lon="6.51314">
        <ele>1192</ele>
      </trkpt>
      <trkpt lat="44.08261" lon="6.51311">
        <ele>1194</ele>
      </trkpt>
      <trkpt lat="44.08239" lon="6.51306">
        <ele>1197</ele>
      </trkpt>
      <trkpt lat="44.08218" lon="6.51296">
        <ele>1198</ele>
      </trkpt>
      <trkpt lat="44.082" lon="6.51283">
        <ele>1198</ele>
      </trkpt>
      <trkpt lat="44.08182" lon="6.51268">
        <ele>1201</ele>
      </trkpt>
      <trkpt lat="44.08161" lon="6.51264">
        <ele>1204</ele>
      </trkpt>
      <trkpt lat="44.08141" lon="6.51268">
        <ele>1207</ele>
      </trkpt>
      <trkpt lat="44.08123" lon="6.51281">
        <ele>1209</ele>
      </trkpt>
      <trkpt lat="44.08113" lon="6.51287">
        <ele>1211</ele>
      </trkpt>
      <trkpt lat="44.08107" lon="6.51278">
        <ele>1212</ele>
      </trkpt>
      <trkpt lat="44.08101" lon="6.51266">
        <ele>1214</ele>
      </trkpt>
      <trkpt lat="44.08088" lon="6.51253">
        <ele>1217</ele>
      </trkpt>
      <trkpt lat="44.0807" lon="6.51248">
        <ele>1220</ele>
      </trkpt>
      <trkpt lat="44.08058" lon="6.51238">
        <ele>1223</ele>
      </trkpt>
      <trkpt lat="44.0806" lon="6.5122">
        <ele>1224</ele>
      </trkpt>
      <trkpt lat="44.0807" lon="6.51204">
        <ele>1224</ele>
      </trkpt>
      <trkpt lat="44.0808" lon="6.5118">
        <ele>1224</ele>
      </trkpt>
      <trkpt lat="44.08073" lon="6.51144">
        <ele>1228</ele>
      </trkpt>
      <trkpt lat="44.08069" lon="6.51107">
        <ele>1230</ele>
      </trkpt>
      <trkpt lat="44.0807" lon="6.5107">
        <ele>1232</ele>
      </trkpt>
      <trkpt lat="44.08083" lon="6.51042">
        <ele>1232</ele>
      </trkpt>
      <trkpt lat="44.081" lon="6.5102">
        <ele>1231</ele>
      </trkpt>
      <trkpt lat="44.08105" lon="6.50991">
        <ele>1232</ele>
      </trkpt>
      <trkpt lat="44.08088" lon="6.50964">
        <ele>1237</ele>
      </trkpt>
      <trkpt lat="44.08078" lon="6.50939">
        <ele>1239</ele>
      </trkpt>
      <trkpt lat="44.08089" lon="6.50917">
        <ele>1238</ele>
      </trkpt>
      <trkpt lat="44.08093" lon="6.50891">
        <ele>1237</ele>
      </trkpt>
      <trkpt lat="44.08074" lon="6.50879">
        <ele>1242</ele>
      </trkpt>
      <trkpt lat="44.08052" lon="6.50894">
        <ele>1247</ele>
      </trkpt>
      <trkpt lat="44.08029" lon="6.50899">
        <ele>1252</ele>
      </trkpt>
      <trkpt lat="44.08009" lon="6.50888">
        <ele>1256</ele>
      </trkpt>
      <trkpt lat="44.07988" lon="6.50878">
        <ele>1261</ele>
      </trkpt>
      <trkpt lat="44.07968" lon="6.50865">
        <ele>1264</ele>
      </trkpt>
      <trkpt lat="44.07949" lon="6.5085">
        <ele>1267</ele>
      </trkpt>
      <trkpt lat="44.07925" lon="6.50847">
        <ele>1273</ele>
      </trkpt>
      <trkpt lat="44.07906" lon="6.50836">
        <ele>1274</ele>
      </trkpt>
      <trkpt lat="44.07885" lon="6.50835">
        <ele>1277</ele>
      </trkpt>
      <trkpt lat="44.07866" lon="6.50848">
        <ele>1278</ele>
      </trkpt>
      <trkpt lat="44.07856" lon="6.50862">
        <ele>1279</ele>
      </trkpt>
      <trkpt lat="44.07855" lon="6.50866">
        <ele>1280</ele>
      </trkpt>
      <trkpt lat="44.07852" lon="6.50876">
        <ele>1281</ele>
      </trkpt>
      <trkpt lat="44.07847" lon="6.50923">
        <ele>1289</ele>
      </trkpt>
      <trkpt lat="44.07843" lon="6.50942">
        <ele>1292</ele>
      </trkpt>
      <trkpt lat="44.07838" lon="6.50959">
        <ele>1295</ele>
      </trkpt>
      <trkpt lat="44.07826" lon="6.50983">
        <ele>1297</ele>
      </trkpt>
      <trkpt lat="44.07814" lon="6.51008">
        <ele>1300</ele>
      </trkpt>
      <trkpt lat="44.07798" lon="6.51039">
        <ele>1302</ele>
      </trkpt>
      <trkpt lat="44.07779" lon="6.51056">
        <ele>1307</ele>
      </trkpt>
      <trkpt lat="44.07758" lon="6.51042">
        <ele>1304</ele>
      </trkpt>
      <trkpt lat="44.07748" lon="6.51006">
        <ele>1295</ele>
      </trkpt>
      <trkpt lat="44.07731" lon="6.50965">
        <ele>1293</ele>
      </trkpt>
      <trkpt lat="44.07717" lon="6.50946">
        <ele>1297</ele>
      </trkpt>
      <trkpt lat="44.07699" lon="6.50956">
        <ele>1302</ele>
      </trkpt>
      <trkpt lat="44.07687" lon="6.50985">
        <ele>1304</ele>
      </trkpt>
      <trkpt lat="44.0768" lon="6.51023">
        <ele>1307</ele>
      </trkpt>
      <trkpt lat="44.07685" lon="6.51057">
        <ele>1309</ele>
      </trkpt>
      <trkpt lat="44.07703" lon="6.51085">
        <ele>1314</ele>
      </trkpt>
      <trkpt lat="44.07714" lon="6.51114">
        <ele>1319</ele>
      </trkpt>
      <trkpt lat="44.07709" lon="6.51139">
        <ele>1321</ele>
      </trkpt>
      <trkpt lat="44.07693" lon="6.51188">
        <ele>1325</ele>
      </trkpt>
      <trkpt lat="44.0768" lon="6.51219">
        <ele>1323</ele>
      </trkpt>
      <trkpt lat="44.0766" lon="6.51233">
        <ele>1326</ele>
      </trkpt>
      <trkpt lat="44.07635" lon="6.51246">
        <ele>1331</ele>
      </trkpt>
      <trkpt lat="44.07611" lon="6.51243">
        <ele>1336</ele>
      </trkpt>
      <trkpt lat="44.0759" lon="6.51226">
        <ele>1338</ele>
      </trkpt>
      <trkpt lat="44.07582" lon="6.51195">
        <ele>1334</ele>
      </trkpt>
      <trkpt lat="44.07573" lon="6.51162">
        <ele>1333</ele>
      </trkpt>
      <trkpt lat="44.07558" lon="6.51131">
        <ele>1336</ele>
      </trkpt>
      <trkpt lat="44.07552" lon="6.51098">
        <ele>1337</ele>
      </trkpt>
      <trkpt lat="44.07551" lon="6.51063">
        <ele>1336</ele>
      </trkpt>
      <trkpt lat="44.07539" lon="6.51033">
        <ele>1340</ele>
      </trkpt>
      <trkpt lat="44.07518" lon="6.51017">
        <ele>1347</ele>
      </trkpt>
      <trkpt lat="44.07491" lon="6.51016">
        <ele>1357</ele>
      </trkpt>
      <trkpt lat="44.07465" lon="6.51003">
        <ele>1363</ele>
      </trkpt>
      <trkpt lat="44.07439" lon="6.50991">
        <ele>1367</ele>
      </trkpt>
      <trkpt lat="44.07412" lon="6.50989">
        <ele>1373</ele>
      </trkpt>
      <trkpt lat="44.07386" lon="6.50973">
        <ele>1374</ele>
      </trkpt>
      <trkpt lat="44.07365" lon="6.50954">
        <ele>1374</ele>
      </trkpt>
      <trkpt lat="44.07356" lon="6.50926">
        <ele>1368</ele>
      </trkpt>
      <trkpt lat="44.07346" lon="6.50908">
        <ele>1367</ele>
      </trkpt>
      <trkpt lat="44.07334" lon="6.50876">
        <ele>1368</ele>
      </trkpt>
      <trkpt lat="44.0732" lon="6.50843">
        <ele>1371</ele>
      </trkpt>
      <trkpt lat="44.07304" lon="6.5081">
        <ele>1376</ele>
      </trkpt>
      <trkpt lat="44.07295" lon="6.50781">
        <ele>1376</ele>
      </trkpt>
      <trkpt lat="44.07285" lon="6.50748">
        <ele>1377</ele>
      </trkpt>
      <trkpt lat="44.07275" lon="6.50715">
        <ele>1380</ele>
      </trkpt>
      <trkpt lat="44.07261" lon="6.50683">
        <ele>1384</ele>
      </trkpt>
      <trkpt lat="44.07253" lon="6.50658">
        <ele>1385</ele>
      </trkpt>
      <trkpt lat="44.07256" lon="6.5065">
        <ele>1382</ele>
      </trkpt>
      <trkpt lat="44.07255" lon="6.50637">
        <ele>1382</ele>
      </trkpt>
      <trkpt lat="44.07253" lon="6.50609">
        <ele>1383</ele>
      </trkpt>
      <trkpt lat="44.07252" lon="6.50595">
        <ele>1382</ele>
      </trkpt>
      <trkpt lat="44.07248" lon="6.50577">
        <ele>1383</ele>
      </trkpt>
      <trkpt lat="44.07247" lon="6.50556">
        <ele>1381</ele>
      </trkpt>
      <trkpt lat="44.07237" lon="6.50536">
        <ele>1385</ele>
      </trkpt>
      <trkpt lat="44.07225" lon="6.50511">
        <ele>1390</ele>
      </trkpt>
      <trkpt lat="44.07217" lon="6.50479">
        <ele>1392</ele>
      </trkpt>
      <trkpt lat="44.07202" lon="6.50451">
        <ele>1399</ele>
      </trkpt>
      <trkpt lat="44.07193" lon="6.50422">
        <ele>1404</ele>
      </trkpt>
      <trkpt lat="44.07192" lon="6.5039">
        <ele>1402</ele>
      </trkpt>
      <trkpt lat="44.07181" lon="6.50364">
        <ele>1407</ele>
      </trkpt>
      <trkpt lat="44.07164" lon="6.50337">
        <ele>1413</ele>
      </trkpt>
      <trkpt lat="44.07154" lon="6.50308">
        <ele>1416</ele>
      </trkpt>
      <trkpt lat="44.07155" lon="6.50276">
        <ele>1411</ele>
      </trkpt>
      <trkpt lat="44.0715" lon="6.50242">
        <ele>1412</ele>
      </trkpt>
      <trkpt lat="44.07141" lon="6.50208">
        <ele>1416</ele>
      </trkpt>
      <trkpt lat="44.07134" lon="6.50178">
        <ele>1419</ele>
      </trkpt>
      <trkpt lat="44.07126" lon="6.50147">
        <ele>1422</ele>
      </trkpt>
      <trkpt lat="44.0712" lon="6.50112">
        <ele>1424</ele>
      </trkpt>
      <trkpt lat="44.07116" lon="6.50075">
        <ele>1424</ele>
      </trkpt>
      <trkpt lat="44.0711" lon="6.50038">
        <ele>1426</ele>
      </trkpt>
      <trkpt lat="44.07104" lon="6.50012">
        <ele>1429</ele>
      </trkpt>
      <trkpt lat="44.071" lon="6.49987">
        <ele>1432</ele>
      </trkpt>
      <trkpt lat="44.071" lon="6.4996">
        <ele>1431</ele>
      </trkpt>
      <trkpt lat="44.07096" lon="6.49926">
        <ele>1435</ele>
      </trkpt>
      <trkpt lat="44.07094" lon="6.49893">
        <ele>1436</ele>
      </trkpt>
      <trkpt lat="44.07089" lon="6.49866">
        <ele>1439</ele>
      </trkpt>
      <trkpt lat="44.07081" lon="6.49839">
        <ele>1444</ele>
      </trkpt>
      <trkpt lat="44.07069" lon="6.49813">
        <ele>1450</ele>
      </trkpt>
      <trkpt lat="44.07056" lon="6.49786">
        <ele>1456</ele>
      </trkpt>
      <trkpt lat="44.07045" lon="6.49756">
        <ele>1458</ele>
      </trkpt>
      <trkpt lat="44.07036" lon="6.49731">
        <ele>1457</ele>
      </trkpt>
      <trkpt lat="44.07023" lon="6.49716">
        <ele>1462</ele>
      </trkpt>
      <trkpt lat="44.07004" lon="6.49706">
        <ele>1470</ele>
      </trkpt>
      <trkpt lat="44.06985" lon="6.49697">
        <ele>1478</ele>
      </trkpt>
      <trkpt lat="44.06964" lon="6.49686">
        <ele>1482</ele>
      </trkpt>
      <trkpt lat="44.06952" lon="6.49662">
        <ele>1477</ele>
      </trkpt>
      <trkpt lat="44.06939" lon="6.49644">
        <ele>1476</ele>
      </trkpt>
      <trkpt lat="44.0692" lon="6.4964">
        <ele>1486</ele>
      </trkpt>
      <trkpt lat="44.06896" lon="6.49637">
        <ele>1498</ele>
      </trkpt>
      <trkpt lat="44.06879" lon="6.49622">
        <ele>1497</ele>
      </trkpt>
      <trkpt lat="44.06882" lon="6.49629">
        <ele>1499</ele>
      </trkpt>
      <trkpt lat="44.06879" lon="6.49623">
        <ele>1497</ele>
      </trkpt>
      <trkpt lat="44.06872" lon="6.4961">
        <ele>1494</ele>
      </trkpt>
      <trkpt lat="44.06863" lon="6.49593">
        <ele>1490</ele>
      </trkpt>
      <trkpt lat="44.06849" lon="6.4958">
        <ele>1491</ele>
      </trkpt>
      <trkpt lat="44.0683" lon="6.49568">
        <ele>1496</ele>
      </trkpt>
      <trkpt lat="44.06808" lon="6.49552">
        <ele>1500</ele>
      </trkpt>
      <trkpt lat="44.06787" lon="6.49532">
        <ele>1498</ele>
      </trkpt>
      <trkpt lat="44.06771" lon="6.49504">
        <ele>1494</ele>
      </trkpt>
      <trkpt lat="44.06754" lon="6.49481">
        <ele>1493</ele>
      </trkpt>
      <trkpt lat="44.06735" lon="6.49472">
        <ele>1498</ele>
      </trkpt>
      <trkpt lat="44.0671" lon="6.49468">
        <ele>1502</ele>
      </trkpt>
      <trkpt lat="44.06684" lon="6.49468">
        <ele>1504</ele>
      </trkpt>
      <trkpt lat="44.06658" lon="6.49477">
        <ele>1507</ele>
      </trkpt>
      <trkpt lat="44.06633" lon="6.49476">
        <ele>1507</ele>
      </trkpt>
      <trkpt lat="44.06611" lon="6.49463">
        <ele>1506</ele>
      </trkpt>
      <trkpt lat="44.06586" lon="6.4944">
        <ele>1504</ele>
      </trkpt>
      <trkpt lat="44.06565" lon="6.4942">
        <ele>1504</ele>
      </trkpt>
      <trkpt lat="44.06542" lon="6.4941">
        <ele>1506</ele>
      </trkpt>
      <trkpt lat="44.06522" lon="6.494">
        <ele>1507</ele>
      </trkpt>
      <trkpt lat="44.06511" lon="6.4941">
        <ele>1508</ele>
      </trkpt>
      <trkpt lat="44.06507" lon="6.49417">
        <ele>1508</ele>
      </trkpt>
      <trkpt lat="44.06511" lon="6.49415">
        <ele>1508</ele>
      </trkpt>
      <trkpt lat="44.06511" lon="6.49412">
        <ele>1508</ele>
      </trkpt>
      <trkpt lat="44.06508" lon="6.4941">
        <ele>1508</ele>
      </trkpt>
      <trkpt lat="44.06507" lon="6.49413">
        <ele>1508</ele>
      </trkpt>
      <trkpt lat="44.06512" lon="6.49414">
        <ele>1508</ele>
      </trkpt>
      <trkpt lat="44.06508" lon="6.49416">
        <ele>1508</ele>
      </trkpt>
      <trkpt lat="44.0651" lon="6.49424">
        <ele>1508</ele>
      </trkpt>
      <trkpt lat="44.0651" lon="6.49435">
        <ele>1508</ele>
      </trkpt>
      <trkpt lat="44.0651" lon="6.49454">
        <ele>1509</ele>
      </trkpt>
      <trkpt lat="44.06509" lon="6.4947">
        <ele>1510</ele>
      </trkpt>
      <trkpt lat="44.06509" lon="6.49486">
        <ele>1510</ele>
      </trkpt>
      <trkpt lat="44.06506" lon="6.49499">
        <ele>1511</ele>
      </trkpt>
      <trkpt lat="44.06507" lon="6.49512">
        <ele>1511</ele>
      </trkpt>
      <trkpt lat="44.06507" lon="6.49521">
        <ele>1512</ele>
      </trkpt>
      <trkpt lat="44.06508" lon="6.49526">
        <ele>1512</ele>
      </trkpt>
      <trkpt lat="44.06508" lon="6.49532">
        <ele>1512</ele>
      </trkpt>
      <trkpt lat="44.06507" lon="6.49541">
        <ele>1513</ele>
      </trkpt>
      <trkpt lat="44.06507" lon="6.49547">
        <ele>1513</ele>
      </trkpt>
      <trkpt lat="44.06503" lon="6.49557">
        <ele>1513</ele>
      </trkpt>
      <trkpt lat="44.06499" lon="6.49572">
        <ele>1514</ele>
      </trkpt>
      <trkpt lat="44.06489" lon="6.49583">
        <ele>1514</ele>
      </trkpt>
      <trkpt lat="44.06474" lon="6.49587">
        <ele>1513</ele>
      </trkpt>
      <trkpt lat="44.06458" lon="6.4959">
        <ele>1511</ele>
      </trkpt>
      <trkpt lat="44.06442" lon="6.49596">
        <ele>1510</ele>
      </trkpt>
      <trkpt lat="44.06426" lon="6.49606">
        <ele>1509</ele>
      </trkpt>
      <trkpt lat="44.0641" lon="6.49622">
        <ele>1509</ele>
      </trkpt>
      <trkpt lat="44.06396" lon="6.49637">
        <ele>1507</ele>
      </trkpt>
      <trkpt lat="44.06382" lon="6.49659">
        <ele>1507</ele>
      </trkpt>
      <trkpt lat="44.06371" lon="6.49682">
        <ele>1508</ele>
      </trkpt>
      <trkpt lat="44.06358" lon="6.49701">
        <ele>1509</ele>
      </trkpt>
      <trkpt lat="44.06346" lon="6.49712">
        <ele>1509</ele>
      </trkpt>
      <trkpt lat="44.06339" lon="6.49724">
        <ele>1509</ele>
      </trkpt>
      <trkpt lat="44.06333" lon="6.49738">
        <ele>1509</ele>
      </trkpt>
      <trkpt lat="44.06328" lon="6.49752">
        <ele>1510</ele>
      </trkpt>
      <trkpt lat="44.06324" lon="6.49763">
        <ele>1510</ele>
      </trkpt>
      <trkpt lat="44.0632" lon="6.49775">
        <ele>1509</ele>
      </trkpt>
      <trkpt lat="44.06314" lon="6.49788">
        <ele>1509</ele>
      </trkpt>
      <trkpt lat="44.06308" lon="6.49804">
        <ele>1508</ele>
      </trkpt>
      <trkpt lat="44.06303" lon="6.49822">
        <ele>1507</ele>
      </trkpt>
      <trkpt lat="44.06301" lon="6.4984">
        <ele>1506</ele>
      </trkpt>
      <trkpt lat="44.06299" lon="6.49858">
        <ele>1506</ele>
      </trkpt>
      <trkpt lat="44.06297" lon="6.49877">
        <ele>1505</ele>
      </trkpt>
      <trkpt lat="44.06296" lon="6.49895">
        <ele>1505</ele>
      </trkpt>
      <trkpt lat="44.06299" lon="6.49912">
        <ele>1507</ele>
      </trkpt>
      <trkpt lat="44.06301" lon="6.49929">
        <ele>1508</ele>
      </trkpt>
      <trkpt lat="44.06301" lon="6.49943">
        <ele>1509</ele>
      </trkpt>
      <trkpt lat="44.06299" lon="6.49952">
        <ele>1509</ele>
      </trkpt>
      <trkpt lat="44.06297" lon="6.4996">
        <ele>1510</ele>
      </trkpt>
      <trkpt lat="44.06294" lon="6.49965">
        <ele>1510</ele>
      </trkpt>
      <trkpt lat="44.06291" lon="6.49971">
        <ele>1510</ele>
      </trkpt>
      <trkpt lat="44.06288" lon="6.49975">
        <ele>1509</ele>
      </trkpt>
      <trkpt lat="44.06283" lon="6.4998">
        <ele>1509</ele>
      </trkpt>
      <trkpt lat="44.06276" lon="6.49985">
        <ele>1508</ele>
      </trkpt>
      <trkpt lat="44.06267" lon="6.49993">
        <ele>1507</ele>
      </trkpt>
      <trkpt lat="44.06261" lon="6.49995">
        <ele>1507</ele>
      </trkpt>
      <trkpt lat="44.06256" lon="6.49994">
        <ele>1506</ele>
      </trkpt>
      <trkpt lat="44.06252" lon="6.49992">
        <ele>1505</ele>
      </trkpt>
      <trkpt lat="44.06247" lon="6.49993">
        <ele>1505</ele>
      </trkpt>
      <trkpt lat="44.06236" lon="6.49995">
        <ele>1503</ele>
      </trkpt>
      <trkpt lat="44.06219" lon="6.50001">
        <ele>1501</ele>
      </trkpt>
      <trkpt lat="44.06201" lon="6.50017">
        <ele>1498</ele>
      </trkpt>
      <trkpt lat="44.06186" lon="6.50041">
        <ele>1497</ele>
      </trkpt>
      <trkpt lat="44.06171" lon="6.50066">
        <ele>1496</ele>
      </trkpt>
      <trkpt lat="44.06158" lon="6.50089">
        <ele>1496</ele>
      </trkpt>
      <trkpt lat="44.06148" lon="6.50111">
        <ele>1496</ele>
      </trkpt>
      <trkpt lat="44.06138" lon="6.5013">
        <ele>1496</ele>
      </trkpt>
      <trkpt lat="44.06128" lon="6.50148">
        <ele>1496</ele>
      </trkpt>
      <trkpt lat="44.06117" lon="6.50165">
        <ele>1497</ele>
      </trkpt>
      <trkpt lat="44.06104" lon="6.50184">
        <ele>1497</ele>
      </trkpt>
      <trkpt lat="44.06092" lon="6.50202">
        <ele>1497</ele>
      </trkpt>
      <trkpt lat="44.06084" lon="6.50224">
        <ele>1497</ele>
      </trkpt>
      <trkpt lat="44.06077" lon="6.50246">
        <ele>1497</ele>
      </trkpt>
      <trkpt lat="44.06071" lon="6.50266">
        <ele>1497</ele>
      </trkpt>
      <trkpt lat="44.06066" lon="6.50281">
        <ele>1497</ele>
      </trkpt>
      <trkpt lat="44.06062" lon="6.50294">
        <ele>1497</ele>
      </trkpt>
      <trkpt lat="44.06058" lon="6.50304">
        <ele>1497</ele>
      </trkpt>
      <trkpt lat="44.06054" lon="6.50312">
        <ele>1497</ele>
      </trkpt>
      <trkpt lat="44.06052" lon="6.50316">
        <ele>1497</ele>
      </trkpt>
      <trkpt lat="44.06054" lon="6.50317">
        <ele>1497</ele>
      </trkpt>
      <trkpt lat="44.06051" lon="6.50323">
        <ele>1497</ele>
      </trkpt>
      <trkpt lat="44.06047" lon="6.50333">
        <ele>1497</ele>
      </trkpt>
      <trkpt lat="44.06041" lon="6.50345">
        <ele>1497</ele>
      </trkpt>
      <trkpt lat="44.06034" lon="6.50358">
        <ele>1497</ele>
      </trkpt>
      <trkpt lat="44.06026" lon="6.50371">
        <ele>1496</ele>
      </trkpt>
      <trkpt lat="44.06014" lon="6.50388">
        <ele>1496</ele>
      </trkpt>
      <trkpt lat="44.06003" lon="6.50399">
        <ele>1495</ele>
      </trkpt>
      <trkpt lat="44.05993" lon="6.50411">
        <ele>1494</ele>
      </trkpt>
      <trkpt lat="44.05983" lon="6.50424">
        <ele>1494</ele>
      </trkpt>
      <trkpt lat="44.05974" lon="6.5044">
        <ele>1494</ele>
      </trkpt>
      <trkpt lat="44.05966" lon="6.50456">
        <ele>1494</ele>
      </trkpt>
      <trkpt lat="44.0596" lon="6.50473">
        <ele>1494</ele>
      </trkpt>
      <trkpt lat="44.05956" lon="6.50485">
        <ele>1494</ele>
      </trkpt>
      <trkpt lat="44.05955" lon="6.5049">
        <ele>1495</ele>
      </trkpt>
      <trkpt lat="44.05952" lon="6.50501">
        <ele>1495</ele>
      </trkpt>
      <trkpt lat="44.05946" lon="6.50514">
        <ele>1496</ele>
      </trkpt>
      <trkpt lat="44.05938" lon="6.50528">
        <ele>1496</ele>
      </trkpt>
      <trkpt lat="44.05929" lon="6.50541">
        <ele>1496</ele>
      </trkpt>
      <trkpt lat="44.05919" lon="6.50554">
        <ele>1496</ele>
      </trkpt>
      <trkpt lat="44.05909" lon="6.50565">
        <ele>1495</ele>
      </trkpt>
      <trkpt lat="44.05899" lon="6.50577">
        <ele>1495</ele>
      </trkpt>
      <trkpt lat="44.05892" lon="6.50592">
        <ele>1494</ele>
      </trkpt>
      <trkpt lat="44.05886" lon="6.50608">
        <ele>1494</ele>
      </trkpt>
      <trkpt lat="44.05881" lon="6.50624">
        <ele>1493</ele>
      </trkpt>
      <trkpt lat="44.05876" lon="6.50641">
        <ele>1493</ele>
      </trkpt>
      <trkpt lat="44.05872" lon="6.50658">
        <ele>1492</ele>
      </trkpt>
      <trkpt lat="44.05866" lon="6.50676">
        <ele>1491</ele>
      </trkpt>
      <trkpt lat="44.0586" lon="6.50696">
        <ele>1490</ele>
      </trkpt>
      <trkpt lat="44.05857" lon="6.5072">
        <ele>1489</ele>
      </trkpt>
      <trkpt lat="44.0585" lon="6.50747">
        <ele>1487</ele>
      </trkpt>
      <trkpt lat="44.05844" lon="6.50767">
        <ele>1485</ele>
      </trkpt>
      <trkpt lat="44.05842" lon="6.50772">
        <ele>1484</ele>
      </trkpt>
      <trkpt lat="44.05843" lon="6.50775">
        <ele>1484</ele>
      </trkpt>
      <trkpt lat="44.05841" lon="6.50785">
        <ele>1484</ele>
      </trkpt>
      <trkpt lat="44.05837" lon="6.50803">
        <ele>1482</ele>
      </trkpt>
      <trkpt lat="44.05828" lon="6.50825">
        <ele>1478</ele>
      </trkpt>
      <trkpt lat="44.05817" lon="6.50849">
        <ele>1474</ele>
      </trkpt>
      <trkpt lat="44.05808" lon="6.50878">
        <ele>1466</ele>
      </trkpt>
      <trkpt lat="44.05805" lon="6.50903">
        <ele>1459</ele>
      </trkpt>
      <trkpt lat="44.05814" lon="6.50923">
        <ele>1457</ele>
      </trkpt>
      <trkpt lat="44.05827" lon="6.50943">
        <ele>1450</ele>
      </trkpt>
      <trkpt lat="44.05845" lon="6.50959">
        <ele>1447</ele>
      </trkpt>
      <trkpt lat="44.05865" lon="6.50975">
        <ele>1445</ele>
      </trkpt>
      <trkpt lat="44.05888" lon="6.5099">
        <ele>1443</ele>
      </trkpt>
      <trkpt lat="44.05914" lon="6.51008">
        <ele>1444</ele>
      </trkpt>
      <trkpt lat="44.0594" lon="6.5103">
        <ele>1442</ele>
      </trkpt>
      <trkpt lat="44.05967" lon="6.51056">
        <ele>1439</ele>
      </trkpt>
      <trkpt lat="44.05995" lon="6.5108">
        <ele>1445</ele>
      </trkpt>
      <trkpt lat="44.06019" lon="6.51107">
        <ele>1448</ele>
      </trkpt>
      <trkpt lat="44.06037" lon="6.51134">
        <ele>1449</ele>
      </trkpt>
      <trkpt lat="44.06051" lon="6.51158">
        <ele>1455</ele>
      </trkpt>
      <trkpt lat="44.06062" lon="6.51177">
        <ele>1456</ele>
      </trkpt>
      <trkpt lat="44.06064" lon="6.51191">
        <ele>1456</ele>
      </trkpt>
      <trkpt lat="44.06052" lon="6.51195">
        <ele>1458</ele>
      </trkpt>
      <trkpt lat="44.06043" lon="6.5119">
        <ele>1456</ele>
      </trkpt>
      <trkpt lat="44.06034" lon="6.51184">
        <ele>1455</ele>
      </trkpt>
      <trkpt lat="44.06026" lon="6.51178">
        <ele>1455</ele>
      </trkpt>
      <trkpt lat="44.06016" lon="6.51174">
        <ele>1456</ele>
      </trkpt>
      <trkpt lat="44.06005" lon="6.51172">
        <ele>1458</ele>
      </trkpt>
      <trkpt lat="44.05996" lon="6.5117">
        <ele>1459</ele>
      </trkpt>
      <trkpt lat="44.05987" lon="6.51167">
        <ele>1459</ele>
      </trkpt>
      <trkpt lat="44.05979" lon="6.51164">
        <ele>1460</ele>
      </trkpt>
      <trkpt lat="44.05972" lon="6.51164">
        <ele>1461</ele>
      </trkpt>
      <trkpt lat="44.05965" lon="6.51164">
        <ele>1463</ele>
      </trkpt>
      <trkpt lat="44.05958" lon="6.51165">
        <ele>1465</ele>
      </trkpt>
      <trkpt lat="44.05952" lon="6.51167">
        <ele>1466</ele>
      </trkpt>
      <trkpt lat="44.05946" lon="6.5117">
        <ele>1469</ele>
      </trkpt>
      <trkpt lat="44.05941" lon="6.51169">
        <ele>1470</ele>
      </trkpt>
      <trkpt lat="44.05936" lon="6.51169">
        <ele>1470</ele>
      </trkpt>
      <trkpt lat="44.05931" lon="6.51169">
        <ele>1470</ele>
      </trkpt>
      <trkpt lat="44.05926" lon="6.5117">
        <ele>1470</ele>
      </trkpt>
      <trkpt lat="44.05922" lon="6.51172">
        <ele>1470</ele>
      </trkpt>
      <trkpt lat="44.05917" lon="6.51173">
        <ele>1471</ele>
      </trkpt>
      <trkpt lat="44.05911" lon="6.51174">
        <ele>1471</ele>
      </trkpt>
      <trkpt lat="44.05907" lon="6.51175">
        <ele>1471</ele>
      </trkpt>
      <trkpt lat="44.05902" lon="6.51177">
        <ele>1471</ele>
      </trkpt>
      <trkpt lat="44.05898" lon="6.5118">
        <ele>1472</ele>
      </trkpt>
      <trkpt lat="44.05894" lon="6.51183">
        <ele>1472</ele>
      </trkpt>
      <trkpt lat="44.05889" lon="6.51186">
        <ele>1472</ele>
      </trkpt>
      <trkpt lat="44.05886" lon="6.51189">
        <ele>1472</ele>
      </trkpt>
      <trkpt lat="44.05882" lon="6.51194">
        <ele>1472</ele>
      </trkpt>
      <trkpt lat="44.05879" lon="6.51199">
        <ele>1473</ele>
      </trkpt>
      <trkpt lat="44.05875" lon="6.51203">
        <ele>1473</ele>
      </trkpt>
      <trkpt lat="44.05872" lon="6.51208">
        <ele>1473</ele>
      </trkpt>
      <trkpt lat="44.0587" lon="6.51214">
        <ele>1474</ele>
      </trkpt>
      <trkpt lat="44.05868" lon="6.51223">
        <ele>1475</ele>
      </trkpt>
      <trkpt lat="44.05867" lon="6.51231">
        <ele>1477</ele>
      </trkpt>
      <trkpt lat="44.05865" lon="6.51238">
        <ele>1478</ele>
      </trkpt>
      <trkpt lat="44.05864" lon="6.51245">
        <ele>1479</ele>
      </trkpt>
      <trkpt lat="44.05864" lon="6.51253">
        <ele>1480</ele>
      </trkpt>
      <trkpt lat="44.05863" lon="6.51261">
        <ele>1481</ele>
      </trkpt>
      <trkpt lat="44.05862" lon="6.51269">
        <ele>1482</ele>
      </trkpt>
      <trkpt lat="44.05861" lon="6.51277">
        <ele>1482</ele>
      </trkpt>
      <trkpt lat="44.05859" lon="6.51286">
        <ele>1483</ele>
      </trkpt>
      <trkpt lat="44.05858" lon="6.51295">
        <ele>1484</ele>
      </trkpt>
      <trkpt lat="44.05856" lon="6.51304">
        <ele>1484</ele>
      </trkpt>
      <trkpt lat="44.05854" lon="6.51313">
        <ele>1484</ele>
      </trkpt>
      <trkpt lat="44.05852" lon="6.51323">
        <ele>1485</ele>
      </trkpt>
      <trkpt lat="44.05849" lon="6.51332">
        <ele>1485</ele>
      </trkpt>
      <trkpt lat="44.05847" lon="6.51341">
        <ele>1485</ele>
      </trkpt>
      <trkpt lat="44.05844" lon="6.51351">
        <ele>1485</ele>
      </trkpt>
      <trkpt lat="44.05841" lon="6.51362">
        <ele>1486</ele>
      </trkpt>
      <trkpt lat="44.05838" lon="6.51373">
        <ele>1485</ele>
      </trkpt>
      <trkpt lat="44.05834" lon="6.51384">
        <ele>1485</ele>
      </trkpt>
      <trkpt lat="44.05832" lon="6.51395">
        <ele>1486</ele>
      </trkpt>
      <trkpt lat="44.0583" lon="6.51405">
        <ele>1486</ele>
      </trkpt>
      <trkpt lat="44.05828" lon="6.51416">
        <ele>1486</ele>
      </trkpt>
      <trkpt lat="44.05826" lon="6.51426">
        <ele>1486</ele>
      </trkpt>
      <trkpt lat="44.05823" lon="6.51434">
        <ele>1486</ele>
      </trkpt>
      <trkpt lat="44.05821" lon="6.51441">
        <ele>1486</ele>
      </trkpt>
      <trkpt lat="44.05818" lon="6.51448">
        <ele>1486</ele>
      </trkpt>
      <trkpt lat="44.05812" lon="6.51453">
        <ele>1485</ele>
      </trkpt>
      <trkpt lat="44.05812" lon="6.51453">
        <ele>1485</ele>
      </trkpt>
      <trkpt lat="44.05805" lon="6.51455">
        <ele>1484</ele>
      </trkpt>
      <trkpt lat="44.05799" lon="6.51456">
        <ele>1483</ele>
      </trkpt>
      <trkpt lat="44.05792" lon="6.51453">
        <ele>1482</ele>
      </trkpt>
      <trkpt lat="44.05785" lon="6.5145">
        <ele>1481</ele>
      </trkpt>
      <trkpt lat="44.05778" lon="6.51446">
        <ele>1481</ele>
      </trkpt>
      <trkpt lat="44.05773" lon="6.51442">
        <ele>1481</ele>
      </trkpt>
      <trkpt lat="44.05769" lon="6.51438">
        <ele>1481</ele>
      </trkpt>
      <trkpt lat="44.05766" lon="6.51438">
        <ele>1481</ele>
      </trkpt>
      <trkpt lat="44.05761" lon="6.51435">
        <ele>1481</ele>
      </trkpt>
      <trkpt lat="44.05758" lon="6.51433">
        <ele>1482</ele>
      </trkpt>
      <trkpt lat="44.05755" lon="6.51429">
        <ele>1482</ele>
      </trkpt>
      <trkpt lat="44.05749" lon="6.51429">
        <ele>1482</ele>
      </trkpt>
      <trkpt lat="44.0574" lon="6.51424">
        <ele>1482</ele>
      </trkpt>
      <trkpt lat="44.05734" lon="6.51419">
        <ele>1482</ele>
      </trkpt>
      <trkpt lat="44.05728" lon="6.51414">
        <ele>1481</ele>
      </trkpt>
      <trkpt lat="44.05721" lon="6.51409">
        <ele>1481</ele>
      </trkpt>
      <trkpt lat="44.05715" lon="6.51404">
        <ele>1481</ele>
      </trkpt>
      <trkpt lat="44.05709" lon="6.51397">
        <ele>1481</ele>
      </trkpt>
      <trkpt lat="44.05703" lon="6.5139">
        <ele>1481</ele>
      </trkpt>
      <trkpt lat="44.05696" lon="6.51382">
        <ele>1481</ele>
      </trkpt>
      <trkpt lat="44.0569" lon="6.51374">
        <ele>1482</ele>
      </trkpt>
      <trkpt lat="44.05685" lon="6.51365">
        <ele>1482</ele>
      </trkpt>
      <trkpt lat="44.05679" lon="6.51356">
        <ele>1483</ele>
      </trkpt>
      <trkpt lat="44.05673" lon="6.51347">
        <ele>1484</ele>
      </trkpt>
      <trkpt lat="44.05667" lon="6.51338">
        <ele>1484</ele>
      </trkpt>
      <trkpt lat="44.05661" lon="6.51329">
        <ele>1484</ele>
      </trkpt>
      <trkpt lat="44.05655" lon="6.51319">
        <ele>1484</ele>
      </trkpt>
      <trkpt lat="44.05649" lon="6.5131">
        <ele>1485</ele>
      </trkpt>
      <trkpt lat="44.05642" lon="6.51301">
        <ele>1485</ele>
      </trkpt>
      <trkpt lat="44.05636" lon="6.5129">
        <ele>1485</ele>
      </trkpt>
      <trkpt lat="44.0563" lon="6.51278">
        <ele>1486</ele>
      </trkpt>
      <trkpt lat="44.05625" lon="6.51267">
        <ele>1486</ele>
      </trkpt>
      <trkpt lat="44.05617" lon="6.51258">
        <ele>1486</ele>
      </trkpt>
      <trkpt lat="44.05611" lon="6.51252">
        <ele>1486</ele>
      </trkpt>
      <trkpt lat="44.05601" lon="6.51246">
        <ele>1486</ele>
      </trkpt>
      <trkpt lat="44.05589" lon="6.51238">
        <ele>1486</ele>
      </trkpt>
      <trkpt lat="44.0558" lon="6.51233">
        <ele>1486</ele>
      </trkpt>
      <trkpt lat="44.05573" lon="6.5123">
        <ele>1487</ele>
      </trkpt>
      <trkpt lat="44.05561" lon="6.51222">
        <ele>1487</ele>
      </trkpt>
      <trkpt lat="44.05551" lon="6.51216">
        <ele>1488</ele>
      </trkpt>
      <trkpt lat="44.05545" lon="6.51213">
        <ele>1488</ele>
      </trkpt>
      <trkpt lat="44.05533" lon="6.5121">
        <ele>1488</ele>
      </trkpt>
      <trkpt lat="44.05524" lon="6.5121">
        <ele>1488</ele>
      </trkpt>
      <trkpt lat="44.05521" lon="6.5121">
        <ele>1489</ele>
      </trkpt>
      <trkpt lat="44.05514" lon="6.5121">
        <ele>1489</ele>
      </trkpt>
      <trkpt lat="44.05508" lon="6.5121">
        <ele>1489</ele>
      </trkpt>
      <trkpt lat="44.05501" lon="6.51206">
        <ele>1489</ele>
      </trkpt>
      <trkpt lat="44.05496" lon="6.51203">
        <ele>1490</ele>
      </trkpt>
      <trkpt lat="44.05499" lon="6.51203">
        <ele>1490</ele>
      </trkpt>
      <trkpt lat="44.05489" lon="6.51199">
        <ele>1490</ele>
      </trkpt>
      <trkpt lat="44.05478" lon="6.51194">
        <ele>1491</ele>
      </trkpt>
      <trkpt lat="44.05468" lon="6.51189">
        <ele>1491</ele>
      </trkpt>
      <trkpt lat="44.05457" lon="6.51186">
        <ele>1492</ele>
      </trkpt>
      <trkpt lat="44.05446" lon="6.51181">
        <ele>1492</ele>
      </trkpt>
      <trkpt lat="44.05435" lon="6.51176">
        <ele>1493</ele>
      </trkpt>
      <trkpt lat="44.05424" lon="6.51172">
        <ele>1494</ele>
      </trkpt>
      <trkpt lat="44.05412" lon="6.51169">
        <ele>1495</ele>
      </trkpt>
      <trkpt lat="44.05401" lon="6.51165">
        <ele>1497</ele>
      </trkpt>
      <trkpt lat="44.0539" lon="6.51163">
        <ele>1497</ele>
      </trkpt>
      <trkpt lat="44.0538" lon="6.5116">
        <ele>1498</ele>
      </trkpt>
      <trkpt lat="44.05369" lon="6.51158">
        <ele>1498</ele>
      </trkpt>
      <trkpt lat="44.05358" lon="6.51156">
        <ele>1499</ele>
      </trkpt>
      <trkpt lat="44.05348" lon="6.51155">
        <ele>1499</ele>
      </trkpt>
      <trkpt lat="44.05337" lon="6.51153">
        <ele>1500</ele>
      </trkpt>
      <trkpt lat="44.05327" lon="6.51151">
        <ele>1500</ele>
      </trkpt>
      <trkpt lat="44.05316" lon="6.51149">
        <ele>1500</ele>
      </trkpt>
      <trkpt lat="44.05305" lon="6.51147">
        <ele>1501</ele>
      </trkpt>
      <trkpt lat="44.05295" lon="6.51146">
        <ele>1501</ele>
      </trkpt>
      <trkpt lat="44.05284" lon="6.51147">
        <ele>1501</ele>
      </trkpt>
      <trkpt lat="44.05273" lon="6.5115">
        <ele>1501</ele>
      </trkpt>
      <trkpt lat="44.05262" lon="6.51155">
        <ele>1501</ele>
      </trkpt>
      <trkpt lat="44.05251" lon="6.51159">
        <ele>1501</ele>
      </trkpt>
      <trkpt lat="44.05239" lon="6.51162">
        <ele>1501</ele>
      </trkpt>
      <trkpt lat="44.05226" lon="6.51163">
        <ele>1501</ele>
      </trkpt>
      <trkpt lat="44.05213" lon="6.51166">
        <ele>1501</ele>
      </trkpt>
      <trkpt lat="44.05199" lon="6.51169">
        <ele>1501</ele>
      </trkpt>
      <trkpt lat="44.05185" lon="6.51172">
        <ele>1501</ele>
      </trkpt>
      <trkpt lat="44.05173" lon="6.51175">
        <ele>1501</ele>
      </trkpt>
      <trkpt lat="44.0516" lon="6.51177">
        <ele>1501</ele>
      </trkpt>
      <trkpt lat="44.05148" lon="6.5118">
        <ele>1501</ele>
      </trkpt>
      <trkpt lat="44.05135" lon="6.51183">
        <ele>1501</ele>
      </trkpt>
      <trkpt lat="44.05122" lon="6.51184">
        <ele>1501</ele>
      </trkpt>
      <trkpt lat="44.05109" lon="6.51185">
        <ele>1501</ele>
      </trkpt>
      <trkpt lat="44.05094" lon="6.51184">
        <ele>1501</ele>
      </trkpt>
      <trkpt lat="44.05079" lon="6.51184">
        <ele>1502</ele>
      </trkpt>
      <trkpt lat="44.05064" lon="6.51185">
        <ele>1501</ele>
      </trkpt>
      <trkpt lat="44.05049" lon="6.51189">
        <ele>1501</ele>
      </trkpt>
      <trkpt lat="44.05034" lon="6.51194">
        <ele>1500</ele>
      </trkpt>
      <trkpt lat="44.05018" lon="6.5119">
        <ele>1499</ele>
      </trkpt>
      <trkpt lat="44.05005" lon="6.51184">
        <ele>1499</ele>
      </trkpt>
      <trkpt lat="44.0499" lon="6.51179">
        <ele>1498</ele>
      </trkpt>
      <trkpt lat="44.04976" lon="6.51174">
        <ele>1496</ele>
      </trkpt>
      <trkpt lat="44.04962" lon="6.51167">
        <ele>1495</ele>
      </trkpt>
      <trkpt lat="44.0495" lon="6.5116">
        <ele>1493</ele>
      </trkpt>
      <trkpt lat="44.04942" lon="6.51156">
        <ele>1492</ele>
      </trkpt>
      <trkpt lat="44.04934" lon="6.51154">
        <ele>1491</ele>
      </trkpt>
      <trkpt lat="44.04924" lon="6.51153">
        <ele>1489</ele>
      </trkpt>
      <trkpt lat="44.04912" lon="6.51155">
        <ele>1487</ele>
      </trkpt>
      <trkpt lat="44.049" lon="6.51157">
        <ele>1486</ele>
      </trkpt>
      <trkpt lat="44.04887" lon="6.5116">
        <ele>1485</ele>
      </trkpt>
      <trkpt lat="44.04872" lon="6.51163">
        <ele>1485</ele>
      </trkpt>
      <trkpt lat="44.04857" lon="6.51166">
        <ele>1484</ele>
      </trkpt>
      <trkpt lat="44.0484" lon="6.51169">
        <ele>1485</ele>
      </trkpt>
      <trkpt lat="44.04823" lon="6.51171">
        <ele>1485</ele>
      </trkpt>
      <trkpt lat="44.04807" lon="6.51167">
        <ele>1487</ele>
      </trkpt>
      <trkpt lat="44.04788" lon="6.51164">
        <ele>1490</ele>
      </trkpt>
      <trkpt lat="44.04776" lon="6.51165">
        <ele>1491</ele>
      </trkpt>
      <trkpt lat="44.04768" lon="6.51165">
        <ele>1492</ele>
      </trkpt>
      <trkpt lat="44.04761" lon="6.51165">
        <ele>1493</ele>
      </trkpt>
      <trkpt lat="44.04754" lon="6.51164">
        <ele>1494</ele>
      </trkpt>
      <trkpt lat="44.04747" lon="6.51164">
        <ele>1495</ele>
      </trkpt>
      <trkpt lat="44.04741" lon="6.51164">
        <ele>1496</ele>
      </trkpt>
      <trkpt lat="44.04734" lon="6.51164">
        <ele>1497</ele>
      </trkpt>
      <trkpt lat="44.04727" lon="6.51165">
        <ele>1498</ele>
      </trkpt>
      <trkpt lat="44.04721" lon="6.51165">
        <ele>1499</ele>
      </trkpt>
      <trkpt lat="44.04714" lon="6.51166">
        <ele>1499</ele>
      </trkpt>
      <trkpt lat="44.04708" lon="6.51165">
        <ele>1500</ele>
      </trkpt>
      <trkpt lat="44.04701" lon="6.51166">
        <ele>1501</ele>
      </trkpt>
      <trkpt lat="44.04695" lon="6.51167">
        <ele>1501</ele>
      </trkpt>
      <trkpt lat="44.04688" lon="6.51168">
        <ele>1502</ele>
      </trkpt>
      <trkpt lat="44.04682" lon="6.5117">
        <ele>1502</ele>
      </trkpt>
      <trkpt lat="44.04675" lon="6.51173">
        <ele>1503</ele>
      </trkpt>
      <trkpt lat="44.04669" lon="6.51176">
        <ele>1503</ele>
      </trkpt>
      <trkpt lat="44.04661" lon="6.51179">
        <ele>1503</ele>
      </trkpt>
      <trkpt lat="44.04653" lon="6.51182">
        <ele>1503</ele>
      </trkpt>
      <trkpt lat="44.04644" lon="6.51184">
        <ele>1503</ele>
      </trkpt>
      <trkpt lat="44.04635" lon="6.51183">
        <ele>1503</ele>
      </trkpt>
      <trkpt lat="44.04626" lon="6.51181">
        <ele>1503</ele>
      </trkpt>
      <trkpt lat="44.04617" lon="6.51177">
        <ele>1502</ele>
      </trkpt>
      <trkpt lat="44.04606" lon="6.51173">
        <ele>1502</ele>
      </trkpt>
      <trkpt lat="44.04595" lon="6.51169">
        <ele>1502</ele>
      </trkpt>
      <trkpt lat="44.04583" lon="6.51167">
        <ele>1502</ele>
      </trkpt>
      <trkpt lat="44.04571" lon="6.51169">
        <ele>1501</ele>
      </trkpt>
      <trkpt lat="44.0456" lon="6.51175">
        <ele>1501</ele>
      </trkpt>
      <trkpt lat="44.0455" lon="6.51185">
        <ele>1501</ele>
      </trkpt>
      <trkpt lat="44.0454" lon="6.51197">
        <ele>1501</ele>
      </trkpt>
      <trkpt lat="44.04529" lon="6.51205">
        <ele>1501</ele>
      </trkpt>
      <trkpt lat="44.04518" lon="6.51212">
        <ele>1501</ele>
      </trkpt>
      <trkpt lat="44.04507" lon="6.51218">
        <ele>1501</ele>
      </trkpt>
      <trkpt lat="44.04497" lon="6.51227">
        <ele>1502</ele>
      </trkpt>
      <trkpt lat="44.04487" lon="6.51235">
        <ele>1502</ele>
      </trkpt>
      <trkpt lat="44.04477" lon="6.51242">
        <ele>1503</ele>
      </trkpt>
      <trkpt lat="44.04467" lon="6.51249">
        <ele>1503</ele>
      </trkpt>
      <trkpt lat="44.04461" lon="6.51255">
        <ele>1504</ele>
      </trkpt>
      <trkpt lat="44.04446" lon="6.51266">
        <ele>1504</ele>
      </trkpt>
      <trkpt lat="44.04436" lon="6.51273">
        <ele>1504</ele>
      </trkpt>
      <trkpt lat="44.04426" lon="6.51283">
        <ele>1503</ele>
      </trkpt>
      <trkpt lat="44.04417" lon="6.51296">
        <ele>1503</ele>
      </trkpt>
      <trkpt lat="44.04409" lon="6.51314">
        <ele>1503</ele>
      </trkpt>
      <trkpt lat="44.04399" lon="6.51338">
        <ele>1500</ele>
      </trkpt>
      <trkpt lat="44.04386" lon="6.51362">
        <ele>1498</ele>
      </trkpt>
      <trkpt lat="44.04369" lon="6.51381">
        <ele>1498</ele>
      </trkpt>
      <trkpt lat="44.04353" lon="6.51389">
        <ele>1499</ele>
      </trkpt>
      <trkpt lat="44.04344" lon="6.51392">
        <ele>1500</ele>
      </trkpt>
      <trkpt lat="44.04337" lon="6.51396">
        <ele>1500</ele>
      </trkpt>
      <trkpt lat="44.0433" lon="6.51398">
        <ele>1501</ele>
      </trkpt>
      <trkpt lat="44.04322" lon="6.514">
        <ele>1501</ele>
      </trkpt>
      <trkpt lat="44.04315" lon="6.51404">
        <ele>1502</ele>
      </trkpt>
      <trkpt lat="44.04307" lon="6.51409">
        <ele>1503</ele>
      </trkpt>
      <trkpt lat="44.043" lon="6.51414">
        <ele>1503</ele>
      </trkpt>
      <trkpt lat="44.04292" lon="6.51417">
        <ele>1504</ele>
      </trkpt>
      <trkpt lat="44.04283" lon="6.51418">
        <ele>1505</ele>
      </trkpt>
      <trkpt lat="44.04274" lon="6.51422">
        <ele>1505</ele>
      </trkpt>
      <trkpt lat="44.04269" lon="6.51424">
        <ele>1506</ele>
      </trkpt>
      <trkpt lat="44.04261" lon="6.51427">
        <ele>1506</ele>
      </trkpt>
      <trkpt lat="44.04254" lon="6.5143">
        <ele>1507</ele>
      </trkpt>
      <trkpt lat="44.04249" lon="6.51431">
        <ele>1507</ele>
      </trkpt>
      <trkpt lat="44.04238" lon="6.51432">
        <ele>1508</ele>
      </trkpt>
      <trkpt lat="44.0423" lon="6.51433">
        <ele>1508</ele>
      </trkpt>
      <trkpt lat="44.04222" lon="6.51432">
        <ele>1509</ele>
      </trkpt>
      <trkpt lat="44.04213" lon="6.51432">
        <ele>1509</ele>
      </trkpt>
      <trkpt lat="44.04205" lon="6.51432">
        <ele>1509</ele>
      </trkpt>
      <trkpt lat="44.04197" lon="6.51433">
        <ele>1510</ele>
      </trkpt>
      <trkpt lat="44.04189" lon="6.51434">
        <ele>1510</ele>
      </trkpt>
      <trkpt lat="44.04181" lon="6.51436">
        <ele>1510</ele>
      </trkpt>
      <trkpt lat="44.04173" lon="6.51437">
        <ele>1511</ele>
      </trkpt>
      <trkpt lat="44.04166" lon="6.51436">
        <ele>1511</ele>
      </trkpt>
      <trkpt lat="44.04159" lon="6.51437">
        <ele>1511</ele>
      </trkpt>
      <trkpt lat="44.04152" lon="6.51435">
        <ele>1512</ele>
      </trkpt>
      <trkpt lat="44.04149" lon="6.51436">
        <ele>1512</ele>
      </trkpt>
      <trkpt lat="44.04141" lon="6.51433">
        <ele>1513</ele>
      </trkpt>
      <trkpt lat="44.04137" lon="6.51431">
        <ele>1513</ele>
      </trkpt>
      <trkpt lat="44.04129" lon="6.51424">
        <ele>1514</ele>
      </trkpt>
      <trkpt lat="44.04121" lon="6.51415">
        <ele>1515</ele>
      </trkpt>
      <trkpt lat="44.04115" lon="6.51409">
        <ele>1515</ele>
      </trkpt>
      <trkpt lat="44.0411" lon="6.51404">
        <ele>1516</ele>
      </trkpt>
      <trkpt lat="44.04104" lon="6.514">
        <ele>1517</ele>
      </trkpt>
      <trkpt lat="44.041" lon="6.51395">
        <ele>1517</ele>
      </trkpt>
      <trkpt lat="44.04095" lon="6.51389">
        <ele>1518</ele>
      </trkpt>
      <trkpt lat="44.04091" lon="6.51384">
        <ele>1519</ele>
      </trkpt>
      <trkpt lat="44.04086" lon="6.51378">
        <ele>1520</ele>
      </trkpt>
      <trkpt lat="44.04081" lon="6.51374">
        <ele>1520</ele>
      </trkpt>
      <trkpt lat="44.04076" lon="6.5137">
        <ele>1521</ele>
      </trkpt>
      <trkpt lat="44.0407" lon="6.51368">
        <ele>1522</ele>
      </trkpt>
      <trkpt lat="44.04065" lon="6.51367">
        <ele>1522</ele>
      </trkpt>
      <trkpt lat="44.0406" lon="6.51368">
        <ele>1523</ele>
      </trkpt>
      <trkpt lat="44.04054" lon="6.5137">
        <ele>1523</ele>
      </trkpt>
      <trkpt lat="44.04049" lon="6.51372">
        <ele>1523</ele>
      </trkpt>
      <trkpt lat="44.04043" lon="6.51374">
        <ele>1523</ele>
      </trkpt>
      <trkpt lat="44.04038" lon="6.51376">
        <ele>1523</ele>
      </trkpt>
      <trkpt lat="44.04033" lon="6.51377">
        <ele>1523</ele>
      </trkpt>
      <trkpt lat="44.04028" lon="6.51378">
        <ele>1523</ele>
      </trkpt>
      <trkpt lat="44.04023" lon="6.51379">
        <ele>1523</ele>
      </trkpt>
      <trkpt lat="44.04018" lon="6.5138">
        <ele>1523</ele>
      </trkpt>
      <trkpt lat="44.04013" lon="6.51381">
        <ele>1523</ele>
      </trkpt>
      <trkpt lat="44.04008" lon="6.5138">
        <ele>1523</ele>
      </trkpt>
      <trkpt lat="44.04003" lon="6.5138">
        <ele>1523</ele>
      </trkpt>
      <trkpt lat="44.04004" lon="6.51376">
        <ele>1524</ele>
      </trkpt>
      <trkpt lat="44.03992" lon="6.51338">
        <ele>1530</ele>
      </trkpt>
      <trkpt lat="44.0399" lon="6.51335">
        <ele>1531</ele>
      </trkpt>
      <trkpt lat="44.0399" lon="6.51327">
        <ele>1531</ele>
      </trkpt>
      <trkpt lat="44.0399" lon="6.5132">
        <ele>1532</ele>
      </trkpt>
      <trkpt lat="44.0399" lon="6.51312">
        <ele>1533</ele>
      </trkpt>
      <trkpt lat="44.03991" lon="6.51305">
        <ele>1534</ele>
      </trkpt>
      <trkpt lat="44.0399" lon="6.51298">
        <ele>1535</ele>
      </trkpt>
      <trkpt lat="44.03989" lon="6.51291">
        <ele>1536</ele>
      </trkpt>
      <trkpt lat="44.03987" lon="6.51284">
        <ele>1537</ele>
      </trkpt>
      <trkpt lat="44.03985" lon="6.51277">
        <ele>1538</ele>
      </trkpt>
      <trkpt lat="44.03983" lon="6.5127">
        <ele>1538</ele>
      </trkpt>
      <trkpt lat="44.03981" lon="6.51263">
        <ele>1539</ele>
      </trkpt>
      <trkpt lat="44.03979" lon="6.51257">
        <ele>1540</ele>
      </trkpt>
      <trkpt lat="44.03976" lon="6.51251">
        <ele>1541</ele>
      </trkpt>
      <trkpt lat="44.03973" lon="6.51245">
        <ele>1542</ele>
      </trkpt>
      <trkpt lat="44.03971" lon="6.51239">
        <ele>1543</ele>
      </trkpt>
      <trkpt lat="44.03969" lon="6.51232">
        <ele>1544</ele>
      </trkpt>
      <trkpt lat="44.03967" lon="6.51227">
        <ele>1545</ele>
      </trkpt>
      <trkpt lat="44.03961" lon="6.51218">
        <ele>1546</ele>
      </trkpt>
      <trkpt lat="44.03958" lon="6.51213">
        <ele>1547</ele>
      </trkpt>
      <trkpt lat="44.03954" lon="6.51208">
        <ele>1547</ele>
      </trkpt>
      <trkpt lat="44.03951" lon="6.51204">
        <ele>1547</ele>
      </trkpt>
      <trkpt lat="44.03942" lon="6.51195">
        <ele>1548</ele>
      </trkpt>
      <trkpt lat="44.03938" lon="6.51191">
        <ele>1549</ele>
      </trkpt>
      <trkpt lat="44.03934" lon="6.51187">
        <ele>1549</ele>
      </trkpt>
      <trkpt lat="44.03931" lon="6.51184">
        <ele>1550</ele>
      </trkpt>
      <trkpt lat="44.03927" lon="6.51181">
        <ele>1551</ele>
      </trkpt>
      <trkpt lat="44.03923" lon="6.51177">
        <ele>1551</ele>
      </trkpt>
      <trkpt lat="44.0392" lon="6.51174">
        <ele>1552</ele>
      </trkpt>
      <trkpt lat="44.03911" lon="6.5117">
        <ele>1553</ele>
      </trkpt>
      <trkpt lat="44.03907" lon="6.51169">
        <ele>1554</ele>
      </trkpt>
      <trkpt lat="44.03898" lon="6.51172">
        <ele>1555</ele>
      </trkpt>
      <trkpt lat="44.03894" lon="6.51173">
        <ele>1556</ele>
      </trkpt>
      <trkpt lat="44.0389" lon="6.51176">
        <ele>1556</ele>
      </trkpt>
      <trkpt lat="44.03885" lon="6.51182">
        <ele>1557</ele>
      </trkpt>
      <trkpt lat="44.03883" lon="6.51184">
        <ele>1557</ele>
      </trkpt>
      <trkpt lat="44.03878" lon="6.5119">
        <ele>1558</ele>
      </trkpt>
      <trkpt lat="44.03874" lon="6.51195">
        <ele>1558</ele>
      </trkpt>
      <trkpt lat="44.0387" lon="6.512">
        <ele>1559</ele>
      </trkpt>
      <trkpt lat="44.03867" lon="6.51205">
        <ele>1559</ele>
      </trkpt>
      <trkpt lat="44.03864" lon="6.51211">
        <ele>1559</ele>
      </trkpt>
      <trkpt lat="44.03861" lon="6.51217">
        <ele>1560</ele>
      </trkpt>
      <trkpt lat="44.03858" lon="6.51223">
        <ele>1560</ele>
      </trkpt>
      <trkpt lat="44.03855" lon="6.51228">
        <ele>1560</ele>
      </trkpt>
      <trkpt lat="44.03851" lon="6.51237">
        <ele>1561</ele>
      </trkpt>
      <trkpt lat="44.03848" lon="6.51244">
        <ele>1561</ele>
      </trkpt>
      <trkpt lat="44.03844" lon="6.51251">
        <ele>1562</ele>
      </trkpt>
      <trkpt lat="44.0384" lon="6.51256">
        <ele>1562</ele>
      </trkpt>
      <trkpt lat="44.03835" lon="6.51261">
        <ele>1563</ele>
      </trkpt>
      <trkpt lat="44.03832" lon="6.51267">
        <ele>1563</ele>
      </trkpt>
      <trkpt lat="44.03829" lon="6.51271">
        <ele>1564</ele>
      </trkpt>
      <trkpt lat="44.03825" lon="6.5128">
        <ele>1564</ele>
      </trkpt>
      <trkpt lat="44.03823" lon="6.51287">
        <ele>1564</ele>
      </trkpt>
      <trkpt lat="44.03822" lon="6.51292">
        <ele>1564</ele>
      </trkpt>
      <trkpt lat="44.0382" lon="6.51304">
        <ele>1564</ele>
      </trkpt>
      <trkpt lat="44.03817" lon="6.51311">
        <ele>1564</ele>
      </trkpt>
      <trkpt lat="44.03815" lon="6.51319">
        <ele>1564</ele>
      </trkpt>
      <trkpt lat="44.03813" lon="6.51326">
        <ele>1564</ele>
      </trkpt>
      <trkpt lat="44.03811" lon="6.51333">
        <ele>1564</ele>
      </trkpt>
      <trkpt lat="44.03809" lon="6.5134">
        <ele>1564</ele>
      </trkpt>
      <trkpt lat="44.03807" lon="6.51347">
        <ele>1564</ele>
      </trkpt>
      <trkpt lat="44.03804" lon="6.51354">
        <ele>1564</ele>
      </trkpt>
      <trkpt lat="44.03802" lon="6.51362">
        <ele>1564</ele>
      </trkpt>
      <trkpt lat="44.03798" lon="6.5137">
        <ele>1564</ele>
      </trkpt>
      <trkpt lat="44.03795" lon="6.5138">
        <ele>1564</ele>
      </trkpt>
      <trkpt lat="44.03791" lon="6.51391">
        <ele>1564</ele>
      </trkpt>
      <trkpt lat="44.03788" lon="6.51403">
        <ele>1564</ele>
      </trkpt>
      <trkpt lat="44.03784" lon="6.51415">
        <ele>1564</ele>
      </trkpt>
      <trkpt lat="44.03779" lon="6.51428">
        <ele>1564</ele>
      </trkpt>
      <trkpt lat="44.03774" lon="6.51441">
        <ele>1564</ele>
      </trkpt>
      <trkpt lat="44.03769" lon="6.51454">
        <ele>1564</ele>
      </trkpt>
      <trkpt lat="44.03764" lon="6.51468">
        <ele>1564</ele>
      </trkpt>
      <trkpt lat="44.03759" lon="6.51481">
        <ele>1564</ele>
      </trkpt>
      <trkpt lat="44.03755" lon="6.5149">
        <ele>1564</ele>
      </trkpt>
      <trkpt lat="44.03748" lon="6.51502">
        <ele>1565</ele>
      </trkpt>
      <trkpt lat="44.03738" lon="6.51515">
        <ele>1565</ele>
      </trkpt>
      <trkpt lat="44.0373" lon="6.51522">
        <ele>1566</ele>
      </trkpt>
      <trkpt lat="44.03723" lon="6.51528">
        <ele>1566</ele>
      </trkpt>
      <trkpt lat="44.03716" lon="6.51533">
        <ele>1567</ele>
      </trkpt>
      <trkpt lat="44.03709" lon="6.51537">
        <ele>1567</ele>
      </trkpt>
      <trkpt lat="44.03705" lon="6.51538">
        <ele>1567</ele>
      </trkpt>
      <trkpt lat="44.03693" lon="6.51536">
        <ele>1569</ele>
      </trkpt>
      <trkpt lat="44.03684" lon="6.51535">
        <ele>1569</ele>
      </trkpt>
      <trkpt lat="44.03674" lon="6.51533">
        <ele>1570</ele>
      </trkpt>
      <trkpt lat="44.03665" lon="6.5153">
        <ele>1571</ele>
      </trkpt>
      <trkpt lat="44.03656" lon="6.51525">
        <ele>1571</ele>
      </trkpt>
      <trkpt lat="44.03648" lon="6.51517">
        <ele>1572</ele>
      </trkpt>
      <trkpt lat="44.0364" lon="6.51509">
        <ele>1572</ele>
      </trkpt>
      <trkpt lat="44.03633" lon="6.515">
        <ele>1572</ele>
      </trkpt>
      <trkpt lat="44.03625" lon="6.51492">
        <ele>1572</ele>
      </trkpt>
      <trkpt lat="44.03617" lon="6.51484">
        <ele>1572</ele>
      </trkpt>
      <trkpt lat="44.03608" lon="6.51476">
        <ele>1572</ele>
      </trkpt>
      <trkpt lat="44.03599" lon="6.51468">
        <ele>1572</ele>
      </trkpt>
      <trkpt lat="44.03589" lon="6.51461">
        <ele>1573</ele>
      </trkpt>
      <trkpt lat="44.0358" lon="6.51453">
        <ele>1573</ele>
      </trkpt>
      <trkpt lat="44.03571" lon="6.51444">
        <ele>1573</ele>
      </trkpt>
      <trkpt lat="44.03563" lon="6.51435">
        <ele>1572</ele>
      </trkpt>
      <trkpt lat="44.03556" lon="6.51424">
        <ele>1572</ele>
      </trkpt>
      <trkpt lat="44.03549" lon="6.51411">
        <ele>1571</ele>
      </trkpt>
      <trkpt lat="44.03543" lon="6.51399">
        <ele>1571</ele>
      </trkpt>
      <trkpt lat="44.03538" lon="6.51389">
        <ele>1570</ele>
      </trkpt>
      <trkpt lat="44.03531" lon="6.51379">
        <ele>1570</ele>
      </trkpt>
      <trkpt lat="44.03524" lon="6.51373">
        <ele>1571</ele>
      </trkpt>
      <trkpt lat="44.03515" lon="6.51368">
        <ele>1571</ele>
      </trkpt>
      <trkpt lat="44.03505" lon="6.51367">
        <ele>1573</ele>
      </trkpt>
      <trkpt lat="44.03493" lon="6.51366">
        <ele>1574</ele>
      </trkpt>
      <trkpt lat="44.03481" lon="6.51366">
        <ele>1575</ele>
      </trkpt>
      <trkpt lat="44.03469" lon="6.51364">
        <ele>1575</ele>
      </trkpt>
      <trkpt lat="44.03458" lon="6.5136">
        <ele>1576</ele>
      </trkpt>
      <trkpt lat="44.03448" lon="6.51354">
        <ele>1576</ele>
      </trkpt>
      <trkpt lat="44.0344" lon="6.51344">
        <ele>1575</ele>
      </trkpt>
      <trkpt lat="44.03436" lon="6.51328">
        <ele>1574</ele>
      </trkpt>
      <trkpt lat="44.03438" lon="6.51313">
        <ele>1572</ele>
      </trkpt>
      <trkpt lat="44.0344" lon="6.51298">
        <ele>1570</ele>
      </trkpt>
      <trkpt lat="44.03443" lon="6.51282">
        <ele>1569</ele>
      </trkpt>
      <trkpt lat="44.03445" lon="6.51267">
        <ele>1568</ele>
      </trkpt>
      <trkpt lat="44.03445" lon="6.51251">
        <ele>1566</ele>
      </trkpt>
      <trkpt lat="44.03446" lon="6.51235">
        <ele>1565</ele>
      </trkpt>
      <trkpt lat="44.03446" lon="6.51219">
        <ele>1564</ele>
      </trkpt>
      <trkpt lat="44.03442" lon="6.51201">
        <ele>1564</ele>
      </trkpt>
      <trkpt lat="44.03439" lon="6.51185">
        <ele>1564</ele>
      </trkpt>
      <trkpt lat="44.03435" lon="6.51169">
        <ele>1564</ele>
      </trkpt>
      <trkpt lat="44.03429" lon="6.51154">
        <ele>1564</ele>
      </trkpt>
      <trkpt lat="44.0342" lon="6.51141">
        <ele>1566</ele>
      </trkpt>
      <trkpt lat="44.03409" lon="6.51129">
        <ele>1567</ele>
      </trkpt>
      <trkpt lat="44.034" lon="6.51118">
        <ele>1568</ele>
      </trkpt>
      <trkpt lat="44.0339" lon="6.51109">
        <ele>1569</ele>
      </trkpt>
      <trkpt lat="44.03379" lon="6.51102">
        <ele>1570</ele>
      </trkpt>
      <trkpt lat="44.03367" lon="6.51096">
        <ele>1570</ele>
      </trkpt>
      <trkpt lat="44.03354" lon="6.51095">
        <ele>1571</ele>
      </trkpt>
      <trkpt lat="44.0334" lon="6.51097">
        <ele>1572</ele>
      </trkpt>
      <trkpt lat="44.03327" lon="6.51099">
        <ele>1572</ele>
      </trkpt>
      <trkpt lat="44.03316" lon="6.51104">
        <ele>1572</ele>
      </trkpt>
      <trkpt lat="44.03303" lon="6.51108">
        <ele>1571</ele>
      </trkpt>
      <trkpt lat="44.03292" lon="6.51123">
        <ele>1571</ele>
      </trkpt>
      <trkpt lat="44.03283" lon="6.51144">
        <ele>1571</ele>
      </trkpt>
      <trkpt lat="44.03278" lon="6.5116">
        <ele>1571</ele>
      </trkpt>
      <trkpt lat="44.03276" lon="6.51178">
        <ele>1572</ele>
      </trkpt>
      <trkpt lat="44.03274" lon="6.51198">
        <ele>1574</ele>
      </trkpt>
      <trkpt lat="44.03268" lon="6.51215">
        <ele>1575</ele>
      </trkpt>
      <trkpt lat="44.03255" lon="6.5122">
        <ele>1574</ele>
      </trkpt>
      <trkpt lat="44.03244" lon="6.51224">
        <ele>1574</ele>
      </trkpt>
      <trkpt lat="44.03234" lon="6.51231">
        <ele>1575</ele>
      </trkpt>
      <trkpt lat="44.03224" lon="6.51239">
        <ele>1575</ele>
      </trkpt>
      <trkpt lat="44.03215" lon="6.51252">
        <ele>1576</ele>
      </trkpt>
      <trkpt lat="44.03202" lon="6.51259">
        <ele>1576</ele>
      </trkpt>
      <trkpt lat="44.03191" lon="6.51267">
        <ele>1576</ele>
      </trkpt>
      <trkpt lat="44.03182" lon="6.51279">
        <ele>1576</ele>
      </trkpt>
      <trkpt lat="44.03171" lon="6.51288">
        <ele>1574</ele>
      </trkpt>
      <trkpt lat="44.03163" lon="6.51294">
        <ele>1572</ele>
      </trkpt>
      <trkpt lat="44.03157" lon="6.51308">
        <ele>1571</ele>
      </trkpt>
      <trkpt lat="44.03155" lon="6.51334">
        <ele>1573</ele>
      </trkpt>
      <trkpt lat="44.03156" lon="6.51354">
        <ele>1574</ele>
      </trkpt>
      <trkpt lat="44.03153" lon="6.51377">
        <ele>1573</ele>
      </trkpt>
      <trkpt lat="44.0315" lon="6.51398">
        <ele>1572</ele>
      </trkpt>
      <trkpt lat="44.03147" lon="6.51418">
        <ele>1570</ele>
      </trkpt>
      <trkpt lat="44.03146" lon="6.51434">
        <ele>1568</ele>
      </trkpt>
      <trkpt lat="44.03146" lon="6.5145">
        <ele>1566</ele>
      </trkpt>
      <trkpt lat="44.03143" lon="6.51465">
        <ele>1564</ele>
      </trkpt>
      <trkpt lat="44.03132" lon="6.51471">
        <ele>1562</ele>
      </trkpt>
      <trkpt lat="44.03123" lon="6.51462">
        <ele>1562</ele>
      </trkpt>
      <trkpt lat="44.03114" lon="6.51448">
        <ele>1561</ele>
      </trkpt>
      <trkpt lat="44.03102" lon="6.51434">
        <ele>1558</ele>
      </trkpt>
      <trkpt lat="44.03091" lon="6.51412">
        <ele>1552</ele>
      </trkpt>
      <trkpt lat="44.03079" lon="6.51391">
        <ele>1550</ele>
      </trkpt>
      <trkpt lat="44.03064" lon="6.51371">
        <ele>1548</ele>
      </trkpt>
      <trkpt lat="44.03052" lon="6.51358">
        <ele>1547</ele>
      </trkpt>
      <trkpt lat="44.03041" lon="6.51345">
        <ele>1547</ele>
      </trkpt>
      <trkpt lat="44.03034" lon="6.51338">
        <ele>1547</ele>
      </trkpt>
      <trkpt lat="44.03028" lon="6.51333">
        <ele>1547</ele>
      </trkpt>
      <trkpt lat="44.03023" lon="6.51323">
        <ele>1546</ele>
      </trkpt>
      <trkpt lat="44.03015" lon="6.51311">
        <ele>1545</ele>
      </trkpt>
      <trkpt lat="44.03006" lon="6.51293">
        <ele>1543</ele>
      </trkpt>
      <trkpt lat="44.02998" lon="6.5127">
        <ele>1538</ele>
      </trkpt>
      <trkpt lat="44.02988" lon="6.51247">
        <ele>1535</ele>
      </trkpt>
      <trkpt lat="44.02976" lon="6.51221">
        <ele>1532</ele>
      </trkpt>
      <trkpt lat="44.02957" lon="6.51206">
        <ele>1532</ele>
      </trkpt>
      <trkpt lat="44.02935" lon="6.51205">
        <ele>1532</ele>
      </trkpt>
      <trkpt lat="44.02915" lon="6.51215">
        <ele>1532</ele>
      </trkpt>
      <trkpt lat="44.02903" lon="6.51229">
        <ele>1531</ele>
      </trkpt>
      <trkpt lat="44.02896" lon="6.51254">
        <ele>1531</ele>
      </trkpt>
      <trkpt lat="44.02883" lon="6.51284">
        <ele>1531</ele>
      </trkpt>
      <trkpt lat="44.02868" lon="6.51311">
        <ele>1531</ele>
      </trkpt>
      <trkpt lat="44.02851" lon="6.51334">
        <ele>1530</ele>
      </trkpt>
      <trkpt lat="44.02838" lon="6.51361">
        <ele>1530</ele>
      </trkpt>
      <trkpt lat="44.02824" lon="6.51384">
        <ele>1529</ele>
      </trkpt>
      <trkpt lat="44.02809" lon="6.5138">
        <ele>1527</ele>
      </trkpt>
      <trkpt lat="44.02799" lon="6.51377">
        <ele>1525</ele>
      </trkpt>
      <trkpt lat="44.02792" lon="6.51374">
        <ele>1524</ele>
      </trkpt>
      <trkpt lat="44.02782" lon="6.51371">
        <ele>1522</ele>
      </trkpt>
      <trkpt lat="44.02771" lon="6.51368">
        <ele>1522</ele>
      </trkpt>
      <trkpt lat="44.0276" lon="6.51366">
        <ele>1523</ele>
      </trkpt>
      <trkpt lat="44.0275" lon="6.51365">
        <ele>1524</ele>
      </trkpt>
      <trkpt lat="44.02739" lon="6.51367">
        <ele>1526</ele>
      </trkpt>
      <trkpt lat="44.02726" lon="6.51369">
        <ele>1528</ele>
      </trkpt>
      <trkpt lat="44.02715" lon="6.51365">
        <ele>1528</ele>
      </trkpt>
      <trkpt lat="44.02708" lon="6.51366">
        <ele>1528</ele>
      </trkpt>
      <trkpt lat="44.02696" lon="6.51367">
        <ele>1530</ele>
      </trkpt>
      <trkpt lat="44.0269" lon="6.51367">
        <ele>1530</ele>
      </trkpt>
      <trkpt lat="44.02679" lon="6.51368">
        <ele>1531</ele>
      </trkpt>
      <trkpt lat="44.02663" lon="6.51369">
        <ele>1532</ele>
      </trkpt>
      <trkpt lat="44.02649" lon="6.51372">
        <ele>1534</ele>
      </trkpt>
      <trkpt lat="44.02634" lon="6.51373">
        <ele>1535</ele>
      </trkpt>
      <trkpt lat="44.02624" lon="6.51375">
        <ele>1536</ele>
      </trkpt>
      <trkpt lat="44.02615" lon="6.51377">
        <ele>1537</ele>
      </trkpt>
      <trkpt lat="44.02606" lon="6.51379">
        <ele>1538</ele>
      </trkpt>
      <trkpt lat="44.026" lon="6.51375">
        <ele>1537</ele>
      </trkpt>
      <trkpt lat="44.02593" lon="6.51377">
        <ele>1537</ele>
      </trkpt>
      <trkpt lat="44.02587" lon="6.51382">
        <ele>1539</ele>
      </trkpt>
      <trkpt lat="44.02577" lon="6.51386">
        <ele>1540</ele>
      </trkpt>
      <trkpt lat="44.02564" lon="6.5139">
        <ele>1541</ele>
      </trkpt>
      <trkpt lat="44.02557" lon="6.51396">
        <ele>1543</ele>
      </trkpt>
      <trkpt lat="44.02549" lon="6.51399">
        <ele>1544</ele>
      </trkpt>
      <trkpt lat="44.02539" lon="6.51404">
        <ele>1545</ele>
      </trkpt>
      <trkpt lat="44.02529" lon="6.51409">
        <ele>1546</ele>
      </trkpt>
      <trkpt lat="44.02517" lon="6.51414">
        <ele>1548</ele>
      </trkpt>
      <trkpt lat="44.02506" lon="6.51416">
        <ele>1548</ele>
      </trkpt>
      <trkpt lat="44.02496" lon="6.5142">
        <ele>1548</ele>
      </trkpt>
      <trkpt lat="44.02483" lon="6.51424">
        <ele>1548</ele>
      </trkpt>
      <trkpt lat="44.02476" lon="6.51428">
        <ele>1549</ele>
      </trkpt>
      <trkpt lat="44.0247" lon="6.51432">
        <ele>1550</ele>
      </trkpt>
      <trkpt lat="44.02464" lon="6.51437">
        <ele>1551</ele>
      </trkpt>
      <trkpt lat="44.02458" lon="6.51441">
        <ele>1552</ele>
      </trkpt>
      <trkpt lat="44.02452" lon="6.51445">
        <ele>1553</ele>
      </trkpt>
      <trkpt lat="44.02443" lon="6.51454">
        <ele>1555</ele>
      </trkpt>
      <trkpt lat="44.02438" lon="6.51459">
        <ele>1556</ele>
      </trkpt>
      <trkpt lat="44.02432" lon="6.51465">
        <ele>1558</ele>
      </trkpt>
      <trkpt lat="44.02426" lon="6.51469">
        <ele>1559</ele>
      </trkpt>
      <trkpt lat="44.0242" lon="6.51473">
        <ele>1561</ele>
      </trkpt>
      <trkpt lat="44.02414" lon="6.51481">
        <ele>1564</ele>
      </trkpt>
      <trkpt lat="44.02405" lon="6.51488">
        <ele>1565</ele>
      </trkpt>
      <trkpt lat="44.02395" lon="6.51497">
        <ele>1566</ele>
      </trkpt>
      <trkpt lat="44.02385" lon="6.51504">
        <ele>1566</ele>
      </trkpt>
      <trkpt lat="44.0238" lon="6.51508">
        <ele>1567</ele>
      </trkpt>
      <trkpt lat="44.02375" lon="6.51513">
        <ele>1568</ele>
      </trkpt>
      <trkpt lat="44.02368" lon="6.51517">
        <ele>1569</ele>
      </trkpt>
      <trkpt lat="44.02363" lon="6.51522">
        <ele>1569</ele>
      </trkpt>
      <trkpt lat="44.02358" lon="6.51528">
        <ele>1570</ele>
      </trkpt>
      <trkpt lat="44.0235" lon="6.51537">
        <ele>1571</ele>
      </trkpt>
      <trkpt lat="44.02345" lon="6.51543">
        <ele>1572</ele>
      </trkpt>
      <trkpt lat="44.0234" lon="6.51549">
        <ele>1573</ele>
      </trkpt>
      <trkpt lat="44.02335" lon="6.51558">
        <ele>1575</ele>
      </trkpt>
      <trkpt lat="44.02331" lon="6.51565">
        <ele>1577</ele>
      </trkpt>
      <trkpt lat="44.02325" lon="6.51572">
        <ele>1579</ele>
      </trkpt>
      <trkpt lat="44.0232" lon="6.51579">
        <ele>1580</ele>
      </trkpt>
      <trkpt lat="44.02316" lon="6.51586">
        <ele>1581</ele>
      </trkpt>
      <trkpt lat="44.02311" lon="6.51593">
        <ele>1582</ele>
      </trkpt>
      <trkpt lat="44.02307" lon="6.516">
        <ele>1583</ele>
      </trkpt>
      <trkpt lat="44.02294" lon="6.51608">
        <ele>1581</ele>
      </trkpt>
      <trkpt lat="44.02288" lon="6.51612">
        <ele>1580</ele>
      </trkpt>
      <trkpt lat="44.02275" lon="6.5162">
        <ele>1578</ele>
      </trkpt>
      <trkpt lat="44.02269" lon="6.51623">
        <ele>1577</ele>
      </trkpt>
      <trkpt lat="44.0226" lon="6.51626">
        <ele>1575</ele>
      </trkpt>
      <trkpt lat="44.02253" lon="6.51627">
        <ele>1574</ele>
      </trkpt>
      <trkpt lat="44.02242" lon="6.51626">
        <ele>1569</ele>
      </trkpt>
      <trkpt lat="44.02234" lon="6.51628">
        <ele>1568</ele>
      </trkpt>
      <trkpt lat="44.02224" lon="6.51626">
        <ele>1565</ele>
      </trkpt>
      <trkpt lat="44.02215" lon="6.51624">
        <ele>1563</ele>
      </trkpt>
      <trkpt lat="44.02207" lon="6.5162">
        <ele>1561</ele>
      </trkpt>
      <trkpt lat="44.022" lon="6.5162">
        <ele>1560</ele>
      </trkpt>
      <trkpt lat="44.02186" lon="6.51619">
        <ele>1558</ele>
      </trkpt>
      <trkpt lat="44.02179" lon="6.5162">
        <ele>1558</ele>
      </trkpt>
      <trkpt lat="44.02172" lon="6.51618">
        <ele>1557</ele>
      </trkpt>
      <trkpt lat="44.0216" lon="6.51617">
        <ele>1557</ele>
      </trkpt>
      <trkpt lat="44.02153" lon="6.51613">
        <ele>1556</ele>
      </trkpt>
      <trkpt lat="44.02144" lon="6.51611">
        <ele>1556</ele>
      </trkpt>
      <trkpt lat="44.02135" lon="6.51613">
        <ele>1556</ele>
      </trkpt>
      <trkpt lat="44.02122" lon="6.51614">
        <ele>1557</ele>
      </trkpt>
      <trkpt lat="44.02116" lon="6.51611">
        <ele>1556</ele>
      </trkpt>
      <trkpt lat="44.02102" lon="6.51609">
        <ele>1557</ele>
      </trkpt>
      <trkpt lat="44.02093" lon="6.51615">
        <ele>1557</ele>
      </trkpt>
      <trkpt lat="44.02085" lon="6.51618">
        <ele>1557</ele>
      </trkpt>
      <trkpt lat="44.02075" lon="6.51623">
        <ele>1558</ele>
      </trkpt>
      <trkpt lat="44.02067" lon="6.51627">
        <ele>1558</ele>
      </trkpt>
      <trkpt lat="44.02058" lon="6.51634">
        <ele>1558</ele>
      </trkpt>
      <trkpt lat="44.02049" lon="6.51638">
        <ele>1558</ele>
      </trkpt>
      <trkpt lat="44.02041" lon="6.5164">
        <ele>1558</ele>
      </trkpt>
      <trkpt lat="44.02035" lon="6.51645">
        <ele>1559</ele>
      </trkpt>
      <trkpt lat="44.02027" lon="6.5165">
        <ele>1560</ele>
      </trkpt>
      <trkpt lat="44.02017" lon="6.51652">
        <ele>1560</ele>
      </trkpt>
      <trkpt lat="44.02007" lon="6.51651">
        <ele>1559</ele>
      </trkpt>
      <trkpt lat="44.01998" lon="6.51651">
        <ele>1559</ele>
      </trkpt>
      <trkpt lat="44.01984" lon="6.5165">
        <ele>1558</ele>
      </trkpt>
      <trkpt lat="44.01959" lon="6.51647">
        <ele>1557</ele>
      </trkpt>
      <trkpt lat="44.01938" lon="6.51645">
        <ele>1555</ele>
      </trkpt>
      <trkpt lat="44.01919" lon="6.51641">
        <ele>1553</ele>
      </trkpt>
      <trkpt lat="44.01906" lon="6.51635">
        <ele>1552</ele>
      </trkpt>
      <trkpt lat="44.01894" lon="6.51631">
        <ele>1551</ele>
      </trkpt>
      <trkpt lat="44.01891" lon="6.51638">
        <ele>1552</ele>
      </trkpt>
      <trkpt lat="44.01887" lon="6.5163">
        <ele>1551</ele>
      </trkpt>
      <trkpt lat="44.01888" lon="6.5164">
        <ele>1553</ele>
      </trkpt>
      <trkpt lat="44.01879" lon="6.51636">
        <ele>1552</ele>
      </trkpt>
      <trkpt lat="44.01869" lon="6.51637">
        <ele>1552</ele>
      </trkpt>
      <trkpt lat="44.01861" lon="6.51624">
        <ele>1550</ele>
      </trkpt>
      <trkpt lat="44.01856" lon="6.51618">
        <ele>1549</ele>
      </trkpt>
      <trkpt lat="44.01852" lon="6.51612">
        <ele>1548</ele>
      </trkpt>
      <trkpt lat="44.01847" lon="6.51607">
        <ele>1548</ele>
      </trkpt>
      <trkpt lat="44.01844" lon="6.516">
        <ele>1547</ele>
      </trkpt>
      <trkpt lat="44.01838" lon="6.51596">
        <ele>1546</ele>
      </trkpt>
      <trkpt lat="44.01832" lon="6.51591">
        <ele>1546</ele>
      </trkpt>
      <trkpt lat="44.01824" lon="6.51588">
        <ele>1546</ele>
      </trkpt>
      <trkpt lat="44.01816" lon="6.51586">
        <ele>1548</ele>
      </trkpt>
      <trkpt lat="44.01806" lon="6.51584">
        <ele>1549</ele>
      </trkpt>
      <trkpt lat="44.01795" lon="6.51583">
        <ele>1551</ele>
      </trkpt>
      <trkpt lat="44.01786" lon="6.51582">
        <ele>1553</ele>
      </trkpt>
      <trkpt lat="44.01774" lon="6.51585">
        <ele>1555</ele>
      </trkpt>
      <trkpt lat="44.01767" lon="6.51587">
        <ele>1556</ele>
      </trkpt>
      <trkpt lat="44.01761" lon="6.51592">
        <ele>1558</ele>
      </trkpt>
      <trkpt lat="44.01755" lon="6.51598">
        <ele>1559</ele>
      </trkpt>
      <trkpt lat="44.01744" lon="6.51606">
        <ele>1562</ele>
      </trkpt>
      <trkpt lat="44.01739" lon="6.51611">
        <ele>1564</ele>
      </trkpt>
      <trkpt lat="44.01732" lon="6.51622">
        <ele>1566</ele>
      </trkpt>
      <trkpt lat="44.01728" lon="6.51629">
        <ele>1567</ele>
      </trkpt>
      <trkpt lat="44.01721" lon="6.51639">
        <ele>1568</ele>
      </trkpt>
      <trkpt lat="44.01718" lon="6.51646">
        <ele>1569</ele>
      </trkpt>
      <trkpt lat="44.01714" lon="6.51652">
        <ele>1570</ele>
      </trkpt>
      <trkpt lat="44.01704" lon="6.51659">
        <ele>1572</ele>
      </trkpt>
      <trkpt lat="44.01692" lon="6.51666">
        <ele>1574</ele>
      </trkpt>
      <trkpt lat="44.01686" lon="6.5167">
        <ele>1575</ele>
      </trkpt>
      <trkpt lat="44.01674" lon="6.51676">
        <ele>1576</ele>
      </trkpt>
      <trkpt lat="44.01667" lon="6.51678">
        <ele>1577</ele>
      </trkpt>
      <trkpt lat="44.01656" lon="6.51685">
        <ele>1577</ele>
      </trkpt>
      <trkpt lat="44.01646" lon="6.51691">
        <ele>1578</ele>
      </trkpt>
      <trkpt lat="44.01636" lon="6.51697">
        <ele>1578</ele>
      </trkpt>
      <trkpt lat="44.01626" lon="6.51704">
        <ele>1577</ele>
      </trkpt>
      <trkpt lat="44.01619" lon="6.51716">
        <ele>1577</ele>
      </trkpt>
      <trkpt lat="44.01618" lon="6.51724">
        <ele>1577</ele>
      </trkpt>
      <trkpt lat="44.0162" lon="6.51738">
        <ele>1579</ele>
      </trkpt>
      <trkpt lat="44.01622" lon="6.51749">
        <ele>1581</ele>
      </trkpt>
      <trkpt lat="44.01624" lon="6.51758">
        <ele>1583</ele>
      </trkpt>
      <trkpt lat="44.01626" lon="6.51768">
        <ele>1584</ele>
      </trkpt>
      <trkpt lat="44.01628" lon="6.51781">
        <ele>1586</ele>
      </trkpt>
      <trkpt lat="44.01626" lon="6.51794">
        <ele>1587</ele>
      </trkpt>
      <trkpt lat="44.01625" lon="6.51803">
        <ele>1588</ele>
      </trkpt>
      <trkpt lat="44.01624" lon="6.51812">
        <ele>1589</ele>
      </trkpt>
      <trkpt lat="44.01622" lon="6.51821">
        <ele>1590</ele>
      </trkpt>
      <trkpt lat="44.0162" lon="6.51828">
        <ele>1590</ele>
      </trkpt>
      <trkpt lat="44.01615" lon="6.51834">
        <ele>1590</ele>
      </trkpt>
      <trkpt lat="44.0161" lon="6.51849">
        <ele>1590</ele>
      </trkpt>
      <trkpt lat="44.01608" lon="6.5186">
        <ele>1591</ele>
      </trkpt>
      <trkpt lat="44.01606" lon="6.51869">
        <ele>1592</ele>
      </trkpt>
      <trkpt lat="44.01607" lon="6.51878">
        <ele>1593</ele>
      </trkpt>
      <trkpt lat="44.01604" lon="6.51895">
        <ele>1594</ele>
      </trkpt>
      <trkpt lat="44.01601" lon="6.51904">
        <ele>1595</ele>
      </trkpt>
      <trkpt lat="44.016" lon="6.51913">
        <ele>1596</ele>
      </trkpt>
      <trkpt lat="44.01596" lon="6.5192">
        <ele>1596</ele>
      </trkpt>
      <trkpt lat="44.01593" lon="6.51928">
        <ele>1596</ele>
      </trkpt>
      <trkpt lat="44.01594" lon="6.51936">
        <ele>1596</ele>
      </trkpt>
      <trkpt lat="44.01595" lon="6.51944">
        <ele>1596</ele>
      </trkpt>
      <trkpt lat="44.01596" lon="6.51959">
        <ele>1596</ele>
      </trkpt>
      <trkpt lat="44.01599" lon="6.51967">
        <ele>1597</ele>
      </trkpt>
      <trkpt lat="44.01601" lon="6.51976">
        <ele>1598</ele>
      </trkpt>
      <trkpt lat="44.01603" lon="6.51984">
        <ele>1599</ele>
      </trkpt>
      <trkpt lat="44.01607" lon="6.51991">
        <ele>1600</ele>
      </trkpt>
      <trkpt lat="44.0161" lon="6.52001">
        <ele>1602</ele>
      </trkpt>
      <trkpt lat="44.01612" lon="6.52009">
        <ele>1603</ele>
      </trkpt>
      <trkpt lat="44.01614" lon="6.52017">
        <ele>1603</ele>
      </trkpt>
      <trkpt lat="44.01614" lon="6.52027">
        <ele>1603</ele>
      </trkpt>
      <trkpt lat="44.01614" lon="6.52036">
        <ele>1604</ele>
      </trkpt>
      <trkpt lat="44.01614" lon="6.52046">
        <ele>1604</ele>
      </trkpt>
      <trkpt lat="44.01612" lon="6.52057">
        <ele>1605</ele>
      </trkpt>
      <trkpt lat="44.01611" lon="6.52068">
        <ele>1606</ele>
      </trkpt>
      <trkpt lat="44.01609" lon="6.52077">
        <ele>1607</ele>
      </trkpt>
      <trkpt lat="44.01607" lon="6.52083">
        <ele>1608</ele>
      </trkpt>
      <trkpt lat="44.01603" lon="6.52095">
        <ele>1609</ele>
      </trkpt>
      <trkpt lat="44.016" lon="6.52103">
        <ele>1609</ele>
      </trkpt>
      <trkpt lat="44.01599" lon="6.52113">
        <ele>1610</ele>
      </trkpt>
      <trkpt lat="44.01596" lon="6.5212">
        <ele>1610</ele>
      </trkpt>
      <trkpt lat="44.01595" lon="6.52128">
        <ele>1611</ele>
      </trkpt>
      <trkpt lat="44.01595" lon="6.52137">
        <ele>1613</ele>
      </trkpt>
      <trkpt lat="44.01596" lon="6.52148">
        <ele>1614</ele>
      </trkpt>
      <trkpt lat="44.01594" lon="6.52155">
        <ele>1614</ele>
      </trkpt>
      <trkpt lat="44.01593" lon="6.52162">
        <ele>1615</ele>
      </trkpt>
      <trkpt lat="44.01592" lon="6.52171">
        <ele>1616</ele>
      </trkpt>
      <trkpt lat="44.0159" lon="6.52179">
        <ele>1616</ele>
      </trkpt>
      <trkpt lat="44.01589" lon="6.52188">
        <ele>1618</ele>
      </trkpt>
      <trkpt lat="44.01587" lon="6.52197">
        <ele>1619</ele>
      </trkpt>
      <trkpt lat="44.01586" lon="6.5221">
        <ele>1622</ele>
      </trkpt>
      <trkpt lat="44.01589" lon="6.52223">
        <ele>1626</ele>
      </trkpt>
      <trkpt lat="44.01589" lon="6.52232">
        <ele>1628</ele>
      </trkpt>
      <trkpt lat="44.01585" lon="6.52238">
        <ele>1627</ele>
      </trkpt>
      <trkpt lat="44.01576" lon="6.5224">
        <ele>1625</ele>
      </trkpt>
      <trkpt lat="44.01563" lon="6.5224">
        <ele>1624</ele>
      </trkpt>
      <trkpt lat="44.01556" lon="6.52239">
        <ele>1624</ele>
      </trkpt>
      <trkpt lat="44.01542" lon="6.52244">
        <ele>1626</ele>
      </trkpt>
      <trkpt lat="44.01529" lon="6.52249">
        <ele>1628</ele>
      </trkpt>
      <trkpt lat="44.01522" lon="6.52253">
        <ele>1629</ele>
      </trkpt>
      <trkpt lat="44.01516" lon="6.52257">
        <ele>1630</ele>
      </trkpt>
      <trkpt lat="44.0151" lon="6.52261">
        <ele>1631</ele>
      </trkpt>
      <trkpt lat="44.015" lon="6.52269">
        <ele>1633</ele>
      </trkpt>
      <trkpt lat="44.01494" lon="6.5228">
        <ele>1637</ele>
      </trkpt>
      <trkpt lat="44.01486" lon="6.52291">
        <ele>1639</ele>
      </trkpt>
      <trkpt lat="44.01482" lon="6.52298">
        <ele>1639</ele>
      </trkpt>
      <trkpt lat="44.0148" lon="6.52307">
        <ele>1640</ele>
      </trkpt>
      <trkpt lat="44.01478" lon="6.52314">
        <ele>1641</ele>
      </trkpt>
      <trkpt lat="44.01476" lon="6.52321">
        <ele>1642</ele>
      </trkpt>
      <trkpt lat="44.01473" lon="6.5233">
        <ele>1643</ele>
      </trkpt>
      <trkpt lat="44.01471" lon="6.52337">
        <ele>1643</ele>
      </trkpt>
      <trkpt lat="44.01469" lon="6.52346">
        <ele>1645</ele>
      </trkpt>
      <trkpt lat="44.01467" lon="6.52353">
        <ele>1646</ele>
      </trkpt>
      <trkpt lat="44.01465" lon="6.5236">
        <ele>1647</ele>
      </trkpt>
      <trkpt lat="44.0146" lon="6.52371">
        <ele>1648</ele>
      </trkpt>
      <trkpt lat="44.0145" lon="6.52373">
        <ele>1645</ele>
      </trkpt>
      <trkpt lat="44.01442" lon="6.52366">
        <ele>1641</ele>
      </trkpt>
      <trkpt lat="44.01435" lon="6.52361">
        <ele>1638</ele>
      </trkpt>
      <trkpt lat="44.0143" lon="6.52357">
        <ele>1638</ele>
      </trkpt>
      <trkpt lat="44.01425" lon="6.52352">
        <ele>1637</ele>
      </trkpt>
      <trkpt lat="44.01415" lon="6.52343">
        <ele>1636</ele>
      </trkpt>
      <trkpt lat="44.01404" lon="6.52338">
        <ele>1637</ele>
      </trkpt>
      <trkpt lat="44.01394" lon="6.52334">
        <ele>1637</ele>
      </trkpt>
      <trkpt lat="44.01384" lon="6.52332">
        <ele>1639</ele>
      </trkpt>
      <trkpt lat="44.01372" lon="6.52327">
        <ele>1640</ele>
      </trkpt>
      <trkpt lat="44.01362" lon="6.52325">
        <ele>1642</ele>
      </trkpt>
      <trkpt lat="44.01351" lon="6.52326">
        <ele>1645</ele>
      </trkpt>
      <trkpt lat="44.01339" lon="6.52324">
        <ele>1646</ele>
      </trkpt>
      <trkpt lat="44.01327" lon="6.52326">
        <ele>1648</ele>
      </trkpt>
      <trkpt lat="44.01316" lon="6.52327">
        <ele>1650</ele>
      </trkpt>
      <trkpt lat="44.01306" lon="6.5233">
        <ele>1652</ele>
      </trkpt>
      <trkpt lat="44.01296" lon="6.52333">
        <ele>1653</ele>
      </trkpt>
      <trkpt lat="44.013" lon="6.52331">
        <ele>1652</ele>
      </trkpt>
      <trkpt lat="44.01272" lon="6.52348">
        <ele>1658</ele>
      </trkpt>
      <trkpt lat="44.01268" lon="6.52349">
        <ele>1658</ele>
      </trkpt>
      <trkpt lat="44.01258" lon="6.52354">
        <ele>1660</ele>
      </trkpt>
      <trkpt lat="44.01254" lon="6.5236">
        <ele>1661</ele>
      </trkpt>
      <trkpt lat="44.01244" lon="6.52368">
        <ele>1662</ele>
      </trkpt>
      <trkpt lat="44.01235" lon="6.52379">
        <ele>1664</ele>
      </trkpt>
      <trkpt lat="44.01226" lon="6.52388">
        <ele>1666</ele>
      </trkpt>
      <trkpt lat="44.01216" lon="6.52396">
        <ele>1667</ele>
      </trkpt>
      <trkpt lat="44.0121" lon="6.524">
        <ele>1668</ele>
      </trkpt>
      <trkpt lat="44.01204" lon="6.52403">
        <ele>1668</ele>
      </trkpt>
      <trkpt lat="44.01197" lon="6.52404">
        <ele>1668</ele>
      </trkpt>
      <trkpt lat="44.01189" lon="6.52415">
        <ele>1670</ele>
      </trkpt>
      <trkpt lat="44.01181" lon="6.52421">
        <ele>1671</ele>
      </trkpt>
      <trkpt lat="44.01172" lon="6.52414">
        <ele>1668</ele>
      </trkpt>
      <trkpt lat="44.01167" lon="6.52407">
        <ele>1665</ele>
      </trkpt>
      <trkpt lat="44.01161" lon="6.52399">
        <ele>1663</ele>
      </trkpt>
      <trkpt lat="44.01155" lon="6.52391">
        <ele>1662</ele>
      </trkpt>
      <trkpt lat="44.01147" lon="6.52386">
        <ele>1661</ele>
      </trkpt>
      <trkpt lat="44.01139" lon="6.5238">
        <ele>1661</ele>
      </trkpt>
      <trkpt lat="44.0113" lon="6.52376">
        <ele>1661</ele>
      </trkpt>
      <trkpt lat="44.01122" lon="6.52373">
        <ele>1662</ele>
      </trkpt>
      <trkpt lat="44.01112" lon="6.52373">
        <ele>1664</ele>
      </trkpt>
      <trkpt lat="44.01102" lon="6.52371">
        <ele>1665</ele>
      </trkpt>
      <trkpt lat="44.01091" lon="6.52367">
        <ele>1666</ele>
      </trkpt>
      <trkpt lat="44.01082" lon="6.52364">
        <ele>1667</ele>
      </trkpt>
      <trkpt lat="44.01073" lon="6.52362">
        <ele>1669</ele>
      </trkpt>
      <trkpt lat="44.01064" lon="6.52359">
        <ele>1670</ele>
      </trkpt>
      <trkpt lat="44.01054" lon="6.52356">
        <ele>1671</ele>
      </trkpt>
      <trkpt lat="44.01044" lon="6.52353">
        <ele>1672</ele>
      </trkpt>
      <trkpt lat="44.01036" lon="6.5235">
        <ele>1672</ele>
      </trkpt>
      <trkpt lat="44.01028" lon="6.52347">
        <ele>1673</ele>
      </trkpt>
      <trkpt lat="44.01021" lon="6.52344">
        <ele>1673</ele>
      </trkpt>
      <trkpt lat="44.01014" lon="6.52339">
        <ele>1673</ele>
      </trkpt>
      <trkpt lat="44.01007" lon="6.52337">
        <ele>1673</ele>
      </trkpt>
      <trkpt lat="44.00997" lon="6.52331">
        <ele>1673</ele>
      </trkpt>
      <trkpt lat="44.00988" lon="6.5233">
        <ele>1675</ele>
      </trkpt>
      <trkpt lat="44.00978" lon="6.52327">
        <ele>1675</ele>
      </trkpt>
      <trkpt lat="44.00971" lon="6.52323">
        <ele>1675</ele>
      </trkpt>
      <trkpt lat="44.00962" lon="6.52315">
        <ele>1674</ele>
      </trkpt>
      <trkpt lat="44.00954" lon="6.52307">
        <ele>1673</ele>
      </trkpt>
      <trkpt lat="44.00947" lon="6.52298">
        <ele>1672</ele>
      </trkpt>
      <trkpt lat="44.00939" lon="6.52291">
        <ele>1672</ele>
      </trkpt>
      <trkpt lat="44.00932" lon="6.52284">
        <ele>1672</ele>
      </trkpt>
      <trkpt lat="44.00924" lon="6.5228">
        <ele>1672</ele>
      </trkpt>
      <trkpt lat="44.00917" lon="6.52276">
        <ele>1672</ele>
      </trkpt>
      <trkpt lat="44.00909" lon="6.52272">
        <ele>1672</ele>
      </trkpt>
      <trkpt lat="44.00899" lon="6.52269">
        <ele>1673</ele>
      </trkpt>
      <trkpt lat="44.00891" lon="6.52266">
        <ele>1674</ele>
      </trkpt>
      <trkpt lat="44.00882" lon="6.52264">
        <ele>1675</ele>
      </trkpt>
      <trkpt lat="44.00873" lon="6.5226">
        <ele>1676</ele>
      </trkpt>
      <trkpt lat="44.00861" lon="6.52254">
        <ele>1677</ele>
      </trkpt>
      <trkpt lat="44.0085" lon="6.52249">
        <ele>1678</ele>
      </trkpt>
      <trkpt lat="44.00838" lon="6.52244">
        <ele>1678</ele>
      </trkpt>
      <trkpt lat="44.00825" lon="6.52237">
        <ele>1678</ele>
      </trkpt>
      <trkpt lat="44.00815" lon="6.52232">
        <ele>1678</ele>
      </trkpt>
      <trkpt lat="44.00802" lon="6.52226">
        <ele>1678</ele>
      </trkpt>
      <trkpt lat="44.0079" lon="6.52221">
        <ele>1678</ele>
      </trkpt>
      <trkpt lat="44.00774" lon="6.52214">
        <ele>1678</ele>
      </trkpt>
      <trkpt lat="44.00766" lon="6.52217">
        <ele>1679</ele>
      </trkpt>
      <trkpt lat="44.00766" lon="6.52218">
        <ele>1679</ele>
      </trkpt>
      <trkpt lat="44.00722" lon="6.5219">
        <ele>1675</ele>
      </trkpt>
      <trkpt lat="44.00649" lon="6.52184">
        <ele>1670</ele>
      </trkpt>
      <trkpt lat="44.00594" lon="6.52194">
        <ele>1669</ele>
      </trkpt>
      <trkpt lat="44.00526" lon="6.52203">
        <ele>1664</ele>
      </trkpt>
      <trkpt lat="44.00487" lon="6.52223">
        <ele>1661</ele>
      </trkpt>
      <trkpt lat="44.00457" lon="6.52247">
        <ele>1659</ele>
      </trkpt>
      <trkpt lat="44.00434" lon="6.52243">
        <ele>1656</ele>
      </trkpt>
      <trkpt lat="44.00405" lon="6.5226">
        <ele>1654</ele>
      </trkpt>
      <trkpt lat="44.00402" lon="6.52257">
        <ele>1654</ele>
      </trkpt>
      <trkpt lat="44.00395" lon="6.52255">
        <ele>1653</ele>
      </trkpt>
      <trkpt lat="44.00391" lon="6.52253">
        <ele>1652</ele>
      </trkpt>
      <trkpt lat="44.00385" lon="6.52251">
        <ele>1651</ele>
      </trkpt>
      <trkpt lat="44.00377" lon="6.52251">
        <ele>1650</ele>
      </trkpt>
      <trkpt lat="44.0037" lon="6.5225">
        <ele>1649</ele>
      </trkpt>
      <trkpt lat="44.00364" lon="6.52247">
        <ele>1648</ele>
      </trkpt>
      <trkpt lat="44.00358" lon="6.52246">
        <ele>1647</ele>
      </trkpt>
      <trkpt lat="44.00351" lon="6.52244">
        <ele>1646</ele>
      </trkpt>
      <trkpt lat="44.00345" lon="6.52243">
        <ele>1645</ele>
      </trkpt>
      <trkpt lat="44.00341" lon="6.52239">
        <ele>1644</ele>
      </trkpt>
      <trkpt lat="44.00335" lon="6.52234">
        <ele>1643</ele>
      </trkpt>
      <trkpt lat="44.00326" lon="6.52227">
        <ele>1642</ele>
      </trkpt>
      <trkpt lat="44.00317" lon="6.52222">
        <ele>1640</ele>
      </trkpt>
      <trkpt lat="44.00307" lon="6.52219">
        <ele>1638</ele>
      </trkpt>
      <trkpt lat="44.00302" lon="6.52217">
        <ele>1637</ele>
      </trkpt>
      <trkpt lat="44.00289" lon="6.52213">
        <ele>1634</ele>
      </trkpt>
      <trkpt lat="44.0028" lon="6.52208">
        <ele>1632</ele>
      </trkpt>
      <trkpt lat="44.00269" lon="6.52202">
        <ele>1630</ele>
      </trkpt>
      <trkpt lat="44.00257" lon="6.52198">
        <ele>1627</ele>
      </trkpt>
      <trkpt lat="44.00246" lon="6.52196">
        <ele>1625</ele>
      </trkpt>
      <trkpt lat="44.00238" lon="6.52195">
        <ele>1623</ele>
      </trkpt>
      <trkpt lat="44.00228" lon="6.52194">
        <ele>1621</ele>
      </trkpt>
      <trkpt lat="44.00218" lon="6.52192">
        <ele>1618</ele>
      </trkpt>
      <trkpt lat="44.0021" lon="6.5219">
        <ele>1616</ele>
      </trkpt>
      <trkpt lat="44.00204" lon="6.52186">
        <ele>1614</ele>
      </trkpt>
      <trkpt lat="44.002" lon="6.52182">
        <ele>1612</ele>
      </trkpt>
      <trkpt lat="44.00193" lon="6.52178">
        <ele>1610</ele>
      </trkpt>
      <trkpt lat="44.00188" lon="6.52178">
        <ele>1609</ele>
      </trkpt>
      <trkpt lat="44.00183" lon="6.52176">
        <ele>1607</ele>
      </trkpt>
      <trkpt lat="44.00178" lon="6.52176">
        <ele>1606</ele>
      </trkpt>
      <trkpt lat="44.00174" lon="6.52172">
        <ele>1604</ele>
      </trkpt>
      <trkpt lat="44.00169" lon="6.52167">
        <ele>1602</ele>
      </trkpt>
      <trkpt lat="44.00163" lon="6.52158">
        <ele>1600</ele>
      </trkpt>
      <trkpt lat="44.00153" lon="6.52154">
        <ele>1597</ele>
      </trkpt>
      <trkpt lat="44.00142" lon="6.5215">
        <ele>1594</ele>
      </trkpt>
      <trkpt lat="44.00126" lon="6.52145">
        <ele>1589</ele>
      </trkpt>
      <trkpt lat="44.00114" lon="6.52145">
        <ele>1584</ele>
      </trkpt>
      <trkpt lat="44.00102" lon="6.52148">
        <ele>1578</ele>
      </trkpt>
      <trkpt lat="44.00093" lon="6.52149">
        <ele>1575</ele>
      </trkpt>
      <trkpt lat="44.00083" lon="6.52152">
        <ele>1571</ele>
      </trkpt>
      <trkpt lat="44.00076" lon="6.52151">
        <ele>1569</ele>
      </trkpt>
      <trkpt lat="44.00069" lon="6.52148">
        <ele>1567</ele>
      </trkpt>
      <trkpt lat="44.00063" lon="6.52145">
        <ele>1566</ele>
      </trkpt>
      <trkpt lat="44.00053" lon="6.52141">
        <ele>1564</ele>
      </trkpt>
      <trkpt lat="44.00045" lon="6.52135">
        <ele>1563</ele>
      </trkpt>
      <trkpt lat="44.00039" lon="6.52132">
        <ele>1562</ele>
      </trkpt>
      <trkpt lat="44.00034" lon="6.5213">
        <ele>1561</ele>
      </trkpt>
      <trkpt lat="44.00024" lon="6.5213">
        <ele>1559</ele>
      </trkpt>
      <trkpt lat="44.00015" lon="6.5213">
        <ele>1556</ele>
      </trkpt>
      <trkpt lat="44" lon="6.52121">
        <ele>1555</ele>
      </trkpt>
      <trkpt lat="43.99987" lon="6.52115">
        <ele>1552</ele>
      </trkpt>
      <trkpt lat="43.99977" lon="6.52112">
        <ele>1549</ele>
      </trkpt>
      <trkpt lat="43.99969" lon="6.52105">
        <ele>1547</ele>
      </trkpt>
      <trkpt lat="43.99963" lon="6.521">
        <ele>1545</ele>
      </trkpt>
      <trkpt lat="43.99959" lon="6.52095">
        <ele>1545</ele>
      </trkpt>
      <trkpt lat="43.99961" lon="6.52089">
        <ele>1546</ele>
      </trkpt>
      <trkpt lat="43.99968" lon="6.5208">
        <ele>1549</ele>
      </trkpt>
      <trkpt lat="43.99976" lon="6.52072">
        <ele>1552</ele>
      </trkpt>
      <trkpt lat="43.99981" lon="6.52065">
        <ele>1553</ele>
      </trkpt>
      <trkpt lat="43.99987" lon="6.52058">
        <ele>1554</ele>
      </trkpt>
      <trkpt lat="43.99995" lon="6.52051">
        <ele>1555</ele>
      </trkpt>
      <trkpt lat="44.00004" lon="6.5204">
        <ele>1553</ele>
      </trkpt>
      <trkpt lat="44.00011" lon="6.52033">
        <ele>1552</ele>
      </trkpt>
      <trkpt lat="44.00018" lon="6.52029">
        <ele>1551</ele>
      </trkpt>
      <trkpt lat="44.00024" lon="6.52026">
        <ele>1551</ele>
      </trkpt>
      <trkpt lat="44.00029" lon="6.52025">
        <ele>1551</ele>
      </trkpt>
      <trkpt lat="44.00032" lon="6.52021">
        <ele>1550</ele>
      </trkpt>
      <trkpt lat="44.0004" lon="6.52018">
        <ele>1550</ele>
      </trkpt>
      <trkpt lat="44.00046" lon="6.52016">
        <ele>1549</ele>
      </trkpt>
      <trkpt lat="44.00051" lon="6.52013">
        <ele>1549</ele>
      </trkpt>
      <trkpt lat="44.00057" lon="6.52009">
        <ele>1548</ele>
      </trkpt>
      <trkpt lat="44.00063" lon="6.52006">
        <ele>1548</ele>
      </trkpt>
      <trkpt lat="44.00068" lon="6.52003">
        <ele>1547</ele>
      </trkpt>
      <trkpt lat="44.0006" lon="6.52005">
        <ele>1547</ele>
      </trkpt>
      <trkpt lat="44.00054" lon="6.52003">
        <ele>1546</ele>
      </trkpt>
      <trkpt lat="44.00045" lon="6.52002">
        <ele>1546</ele>
      </trkpt>
      <trkpt lat="44.00034" lon="6.51997">
        <ele>1544</ele>
      </trkpt>
      <trkpt lat="44.0002" lon="6.51991">
        <ele>1541</ele>
      </trkpt>
      <trkpt lat="44.00005" lon="6.51985">
        <ele>1539</ele>
      </trkpt>
      <trkpt lat="43.99987" lon="6.51982">
        <ele>1537</ele>
      </trkpt>
      <trkpt lat="43.99968" lon="6.5198">
        <ele>1536</ele>
      </trkpt>
      <trkpt lat="43.99951" lon="6.51979">
        <ele>1534</ele>
      </trkpt>
      <trkpt lat="43.99935" lon="6.5198">
        <ele>1533</ele>
      </trkpt>
      <trkpt lat="43.99921" lon="6.51982">
        <ele>1533</ele>
      </trkpt>
      <trkpt lat="43.99911" lon="6.5198">
        <ele>1530</ele>
      </trkpt>
      <trkpt lat="43.9991" lon="6.51972">
        <ele>1527</ele>
      </trkpt>
      <trkpt lat="43.99914" lon="6.51964">
        <ele>1525</ele>
      </trkpt>
      <trkpt lat="43.99923" lon="6.51964">
        <ele>1526</ele>
      </trkpt>
      <trkpt lat="43.99932" lon="6.51963">
        <ele>1527</ele>
      </trkpt>
      <trkpt lat="43.99943" lon="6.51962">
        <ele>1528</ele>
      </trkpt>
      <trkpt lat="43.99956" lon="6.51959">
        <ele>1528</ele>
      </trkpt>
      <trkpt lat="43.99968" lon="6.51955">
        <ele>1527</ele>
      </trkpt>
      <trkpt lat="43.99979" lon="6.51949">
        <ele>1526</ele>
      </trkpt>
      <trkpt lat="43.99988" lon="6.51943">
        <ele>1524</ele>
      </trkpt>
      <trkpt lat="43.99995" lon="6.51939">
        <ele>1523</ele>
      </trkpt>
      <trkpt lat="43.99993" lon="6.51938">
        <ele>1523</ele>
      </trkpt>
      <trkpt lat="43.99988" lon="6.51934">
        <ele>1521</ele>
      </trkpt>
      <trkpt lat="43.99977" lon="6.51925">
        <ele>1517</ele>
      </trkpt>
      <trkpt lat="43.99969" lon="6.51918">
        <ele>1514</ele>
      </trkpt>
      <trkpt lat="43.99958" lon="6.51915">
        <ele>1511</ele>
      </trkpt>
      <trkpt lat="43.99946" lon="6.51913">
        <ele>1509</ele>
      </trkpt>
      <trkpt lat="43.99936" lon="6.51912">
        <ele>1508</ele>
      </trkpt>
      <trkpt lat="43.99926" lon="6.51912">
        <ele>1507</ele>
      </trkpt>
      <trkpt lat="43.99919" lon="6.51912">
        <ele>1506</ele>
      </trkpt>
      <trkpt lat="43.99912" lon="6.5191">
        <ele>1504</ele>
      </trkpt>
      <trkpt lat="43.99907" lon="6.51909">
        <ele>1502</ele>
      </trkpt>
      <trkpt lat="43.99899" lon="6.51908">
        <ele>1501</ele>
      </trkpt>
      <trkpt lat="43.9989" lon="6.5191">
        <ele>1500</ele>
      </trkpt>
      <trkpt lat="43.99881" lon="6.51914">
        <ele>1500</ele>
      </trkpt>
      <trkpt lat="43.99874" lon="6.51919">
        <ele>1500</ele>
      </trkpt>
      <trkpt lat="43.99867" lon="6.51921">
        <ele>1498</ele>
      </trkpt>
      <trkpt lat="43.99859" lon="6.51923">
        <ele>1496</ele>
      </trkpt>
      <trkpt lat="43.9985" lon="6.51926">
        <ele>1494</ele>
      </trkpt>
      <trkpt lat="43.99842" lon="6.5193">
        <ele>1492</ele>
      </trkpt>
      <trkpt lat="43.99836" lon="6.51933">
        <ele>1491</ele>
      </trkpt>
      <trkpt lat="43.99828" lon="6.51943">
        <ele>1490</ele>
      </trkpt>
      <trkpt lat="43.99818" lon="6.51951">
        <ele>1488</ele>
      </trkpt>
      <trkpt lat="43.99811" lon="6.51962">
        <ele>1486</ele>
      </trkpt>
      <trkpt lat="43.99806" lon="6.51974">
        <ele>1486</ele>
      </trkpt>
      <trkpt lat="43.99801" lon="6.51983">
        <ele>1484</ele>
      </trkpt>
      <trkpt lat="43.99795" lon="6.51996">
        <ele>1482</ele>
      </trkpt>
      <trkpt lat="43.99789" lon="6.52004">
        <ele>1479</ele>
      </trkpt>
      <trkpt lat="43.99784" lon="6.52015">
        <ele>1476</ele>
      </trkpt>
      <trkpt lat="43.99785" lon="6.52024">
        <ele>1478</ele>
      </trkpt>
      <trkpt lat="43.99784" lon="6.5203">
        <ele>1478</ele>
      </trkpt>
      <trkpt lat="43.99782" lon="6.52037">
        <ele>1478</ele>
      </trkpt>
      <trkpt lat="43.99782" lon="6.52042">
        <ele>1476</ele>
      </trkpt>
      <trkpt lat="43.99777" lon="6.52041">
        <ele>1473</ele>
      </trkpt>
      <trkpt lat="43.99776" lon="6.52032">
        <ele>1473</ele>
      </trkpt>
      <trkpt lat="43.99773" lon="6.52021">
        <ele>1471</ele>
      </trkpt>
      <trkpt lat="43.99766" lon="6.52011">
        <ele>1467</ele>
      </trkpt>
      <trkpt lat="43.99756" lon="6.52009">
        <ele>1461</ele>
      </trkpt>
      <trkpt lat="43.99746" lon="6.5201">
        <ele>1456</ele>
      </trkpt>
      <trkpt lat="43.9974" lon="6.52011">
        <ele>1453</ele>
      </trkpt>
      <trkpt lat="43.99731" lon="6.52014">
        <ele>1449</ele>
      </trkpt>
      <trkpt lat="43.99717" lon="6.52017">
        <ele>1443</ele>
      </trkpt>
      <trkpt lat="43.99702" lon="6.52021">
        <ele>1436</ele>
      </trkpt>
      <trkpt lat="43.9969" lon="6.52024">
        <ele>1431</ele>
      </trkpt>
      <trkpt lat="43.9968" lon="6.52027">
        <ele>1427</ele>
      </trkpt>
      <trkpt lat="43.99669" lon="6.52027">
        <ele>1423</ele>
      </trkpt>
      <trkpt lat="43.9966" lon="6.52023">
        <ele>1421</ele>
      </trkpt>
      <trkpt lat="43.99648" lon="6.52013">
        <ele>1420</ele>
      </trkpt>
      <trkpt lat="43.99637" lon="6.52001">
        <ele>1420</ele>
      </trkpt>
      <trkpt lat="43.99628" lon="6.51992">
        <ele>1419</ele>
      </trkpt>
      <trkpt lat="43.9962" lon="6.51987">
        <ele>1417</ele>
      </trkpt>
      <trkpt lat="43.99607" lon="6.51987">
        <ele>1412</ele>
      </trkpt>
      <trkpt lat="43.99594" lon="6.51988">
        <ele>1408</ele>
      </trkpt>
      <trkpt lat="43.99583" lon="6.51987">
        <ele>1404</ele>
      </trkpt>
      <trkpt lat="43.99572" lon="6.51985">
        <ele>1401</ele>
      </trkpt>
      <trkpt lat="43.99558" lon="6.51984">
        <ele>1397</ele>
      </trkpt>
      <trkpt lat="43.99542" lon="6.51981">
        <ele>1393</ele>
      </trkpt>
      <trkpt lat="43.99528" lon="6.51976">
        <ele>1392</ele>
      </trkpt>
      <trkpt lat="43.99513" lon="6.51973">
        <ele>1389</ele>
      </trkpt>
      <trkpt lat="43.995" lon="6.51968">
        <ele>1386</ele>
      </trkpt>
      <trkpt lat="43.99486" lon="6.51961">
        <ele>1384</ele>
      </trkpt>
      <trkpt lat="43.99474" lon="6.51948">
        <ele>1385</ele>
      </trkpt>
      <trkpt lat="43.99463" lon="6.5193">
        <ele>1386</ele>
      </trkpt>
      <trkpt lat="43.9945" lon="6.51911">
        <ele>1386</ele>
      </trkpt>
      <trkpt lat="43.99436" lon="6.51889">
        <ele>1387</ele>
      </trkpt>
      <trkpt lat="43.99425" lon="6.51869">
        <ele>1386</ele>
      </trkpt>
      <trkpt lat="43.99411" lon="6.51853">
        <ele>1383</ele>
      </trkpt>
      <trkpt lat="43.99399" lon="6.51839">
        <ele>1381</ele>
      </trkpt>
      <trkpt lat="43.99386" lon="6.51834">
        <ele>1377</ele>
      </trkpt>
      <trkpt lat="43.99373" lon="6.51831">
        <ele>1373</ele>
      </trkpt>
      <trkpt lat="43.99359" lon="6.5183">
        <ele>1368</ele>
      </trkpt>
      <trkpt lat="43.99345" lon="6.51824">
        <ele>1365</ele>
      </trkpt>
      <trkpt lat="43.99331" lon="6.51817">
        <ele>1362</ele>
      </trkpt>
      <trkpt lat="43.99323" lon="6.51812">
        <ele>1360</ele>
      </trkpt>
      <trkpt lat="43.99328" lon="6.51812">
        <ele>1362</ele>
      </trkpt>
      <trkpt lat="43.9933" lon="6.51815">
        <ele>1362</ele>
      </trkpt>
      <trkpt lat="43.99334" lon="6.51823">
        <ele>1361</ele>
      </trkpt>
      <trkpt lat="43.99339" lon="6.51833">
        <ele>1360</ele>
      </trkpt>
      <trkpt lat="43.99344" lon="6.51841">
        <ele>1359</ele>
      </trkpt>
      <trkpt lat="43.99334" lon="6.51842">
        <ele>1355</ele>
      </trkpt>
      <trkpt lat="43.99326" lon="6.51838">
        <ele>1353</ele>
      </trkpt>
      <trkpt lat="43.99328" lon="6.51844">
        <ele>1352</ele>
      </trkpt>
      <trkpt lat="43.9933" lon="6.51854">
        <ele>1350</ele>
      </trkpt>
      <trkpt lat="43.99334" lon="6.51862">
        <ele>1349</ele>
      </trkpt>
      <trkpt lat="43.99327" lon="6.51862">
        <ele>1346</ele>
      </trkpt>
      <trkpt lat="43.99315" lon="6.51858">
        <ele>1342</ele>
      </trkpt>
      <trkpt lat="43.9932" lon="6.51864">
        <ele>1343</ele>
      </trkpt>
      <trkpt lat="43.99323" lon="6.51871">
        <ele>1342</ele>
      </trkpt>
      <trkpt lat="43.99321" lon="6.51876">
        <ele>1339</ele>
      </trkpt>
      <trkpt lat="43.99315" lon="6.51877">
        <ele>1336</ele>
      </trkpt>
      <trkpt lat="43.99307" lon="6.51873">
        <ele>1334</ele>
      </trkpt>
      <trkpt lat="43.99312" lon="6.51887">
        <ele>1331</ele>
      </trkpt>
      <trkpt lat="43.99307" lon="6.51887">
        <ele>1329</ele>
      </trkpt>
      <trkpt lat="43.993" lon="6.51885">
        <ele>1327</ele>
      </trkpt>
      <trkpt lat="43.99288" lon="6.51878">
        <ele>1324</ele>
      </trkpt>
      <trkpt lat="43.99278" lon="6.51873">
        <ele>1323</ele>
      </trkpt>
      <trkpt lat="43.99271" lon="6.51871">
        <ele>1321</ele>
      </trkpt>
      <trkpt lat="43.99268" lon="6.51867">
        <ele>1321</ele>
      </trkpt>
      <trkpt lat="43.99254" lon="6.51863">
        <ele>1317</ele>
      </trkpt>
      <trkpt lat="43.99242" lon="6.51857">
        <ele>1315</ele>
      </trkpt>
      <trkpt lat="43.99229" lon="6.51849">
        <ele>1313</ele>
      </trkpt>
      <trkpt lat="43.99217" lon="6.51839">
        <ele>1312</ele>
      </trkpt>
      <trkpt lat="43.99204" lon="6.51824">
        <ele>1312</ele>
      </trkpt>
      <trkpt lat="43.9919" lon="6.5181">
        <ele>1311</ele>
      </trkpt>
      <trkpt lat="43.99176" lon="6.51797">
        <ele>1310</ele>
      </trkpt>
      <trkpt lat="43.99163" lon="6.51787">
        <ele>1307</ele>
      </trkpt>
      <trkpt lat="43.99152" lon="6.51775">
        <ele>1305</ele>
      </trkpt>
      <trkpt lat="43.99141" lon="6.51758">
        <ele>1304</ele>
      </trkpt>
      <trkpt lat="43.99126" lon="6.51742">
        <ele>1301</ele>
      </trkpt>
      <trkpt lat="43.99112" lon="6.51724">
        <ele>1297</ele>
      </trkpt>
      <trkpt lat="43.991" lon="6.51711">
        <ele>1294</ele>
      </trkpt>
      <trkpt lat="43.99096" lon="6.5171">
        <ele>1293</ele>
      </trkpt>
      <trkpt lat="43.99092" lon="6.51708">
        <ele>1292</ele>
      </trkpt>
      <trkpt lat="43.99089" lon="6.51708">
        <ele>1290</ele>
      </trkpt>
      <trkpt lat="43.99086" lon="6.51709">
        <ele>1289</ele>
      </trkpt>
      <trkpt lat="43.99086" lon="6.51715">
        <ele>1288</ele>
      </trkpt>
      <trkpt lat="43.99084" lon="6.51713">
        <ele>1288</ele>
      </trkpt>
      <trkpt lat="43.99086" lon="6.51711">
        <ele>1289</ele>
      </trkpt>
      <trkpt lat="43.99083" lon="6.51712">
        <ele>1288</ele>
      </trkpt>
      <trkpt lat="43.99086" lon="6.51712">
        <ele>1289</ele>
      </trkpt>
      <trkpt lat="43.99087" lon="6.51715">
        <ele>1289</ele>
      </trkpt>
      <trkpt lat="43.99089" lon="6.51721">
        <ele>1289</ele>
      </trkpt>
      <trkpt lat="43.9909" lon="6.51731">
        <ele>1288</ele>
      </trkpt>
      <trkpt lat="43.99094" lon="6.51742">
        <ele>1288</ele>
      </trkpt>
      <trkpt lat="43.99092" lon="6.51748">
        <ele>1285</ele>
      </trkpt>
      <trkpt lat="43.99083" lon="6.51745">
        <ele>1282</ele>
      </trkpt>
      <trkpt lat="43.99073" lon="6.51739">
        <ele>1280</ele>
      </trkpt>
      <trkpt lat="43.99068" lon="6.51736">
        <ele>1279</ele>
      </trkpt>
      <trkpt lat="43.99072" lon="6.51748">
        <ele>1276</ele>
      </trkpt>
      <trkpt lat="43.99077" lon="6.5176">
        <ele>1275</ele>
      </trkpt>
      <trkpt lat="43.99081" lon="6.51769">
        <ele>1274</ele>
      </trkpt>
      <trkpt lat="43.99085" lon="6.51779">
        <ele>1272</ele>
      </trkpt>
      <trkpt lat="43.99086" lon="6.51785">
        <ele>1271</ele>
      </trkpt>
      <trkpt lat="43.99078" lon="6.5178">
        <ele>1269</ele>
      </trkpt>
      <trkpt lat="43.99071" lon="6.51773">
        <ele>1268</ele>
      </trkpt>
      <trkpt lat="43.99061" lon="6.51767">
        <ele>1266</ele>
      </trkpt>
      <trkpt lat="43.99051" lon="6.51761">
        <ele>1264</ele>
      </trkpt>
      <trkpt lat="43.9904" lon="6.51751">
        <ele>1263</ele>
      </trkpt>
      <trkpt lat="43.99027" lon="6.51742">
        <ele>1261</ele>
      </trkpt>
      <trkpt lat="43.99013" lon="6.51735">
        <ele>1257</ele>
      </trkpt>
      <trkpt lat="43.99001" lon="6.51728">
        <ele>1254</ele>
      </trkpt>
      <trkpt lat="43.9899" lon="6.51725">
        <ele>1251</ele>
      </trkpt>
      <trkpt lat="43.98979" lon="6.5172">
        <ele>1247</ele>
      </trkpt>
      <trkpt lat="43.98965" lon="6.51716">
        <ele>1243</ele>
      </trkpt>
      <trkpt lat="43.98952" lon="6.51708">
        <ele>1241</ele>
      </trkpt>
      <trkpt lat="43.98938" lon="6.51698">
        <ele>1238</ele>
      </trkpt>
      <trkpt lat="43.98926" lon="6.5169">
        <ele>1237</ele>
      </trkpt>
      <trkpt lat="43.98918" lon="6.51686">
        <ele>1235</ele>
      </trkpt>
      <trkpt lat="43.98906" lon="6.51684">
        <ele>1232</ele>
      </trkpt>
      <trkpt lat="43.98893" lon="6.51676">
        <ele>1231</ele>
      </trkpt>
      <trkpt lat="43.98882" lon="6.51669">
        <ele>1230</ele>
      </trkpt>
      <trkpt lat="43.98871" lon="6.51662">
        <ele>1229</ele>
      </trkpt>
      <trkpt lat="43.98859" lon="6.51662">
        <ele>1226</ele>
      </trkpt>
      <trkpt lat="43.98846" lon="6.51664">
        <ele>1223</ele>
      </trkpt>
      <trkpt lat="43.9883" lon="6.51664">
        <ele>1220</ele>
      </trkpt>
      <trkpt lat="43.98813" lon="6.51665">
        <ele>1215</ele>
      </trkpt>
      <trkpt lat="43.98797" lon="6.51662">
        <ele>1212</ele>
      </trkpt>
      <trkpt lat="43.98781" lon="6.51657">
        <ele>1209</ele>
      </trkpt>
      <trkpt lat="43.98767" lon="6.51653">
        <ele>1207</ele>
      </trkpt>
      <trkpt lat="43.98754" lon="6.5165">
        <ele>1203</ele>
      </trkpt>
      <trkpt lat="43.98744" lon="6.51644">
        <ele>1202</ele>
      </trkpt>
      <trkpt lat="43.98741" lon="6.51637">
        <ele>1203</ele>
      </trkpt>
      <trkpt lat="43.98741" lon="6.51631">
        <ele>1205</ele>
      </trkpt>
      <trkpt lat="43.98742" lon="6.51625">
        <ele>1207</ele>
      </trkpt>
      <trkpt lat="43.98737" lon="6.51631">
        <ele>1203</ele>
      </trkpt>
      <trkpt lat="43.98729" lon="6.51629">
        <ele>1201</ele>
      </trkpt>
      <trkpt lat="43.98717" lon="6.51622">
        <ele>1199</ele>
      </trkpt>
      <trkpt lat="43.98707" lon="6.51616">
        <ele>1198</ele>
      </trkpt>
      <trkpt lat="43.98697" lon="6.51613">
        <ele>1196</ele>
      </trkpt>
      <trkpt lat="43.98691" lon="6.51608">
        <ele>1195</ele>
      </trkpt>
      <trkpt lat="43.98685" lon="6.51609">
        <ele>1193</ele>
      </trkpt>
      <trkpt lat="43.9868" lon="6.51603">
        <ele>1193</ele>
      </trkpt>
      <trkpt lat="43.98672" lon="6.51601">
        <ele>1191</ele>
      </trkpt>
      <trkpt lat="43.98665" lon="6.51598">
        <ele>1190</ele>
      </trkpt>
      <trkpt lat="43.98657" lon="6.51592">
        <ele>1189</ele>
      </trkpt>
      <trkpt lat="43.98648" lon="6.51588">
        <ele>1187</ele>
      </trkpt>
      <trkpt lat="43.98639" lon="6.51582">
        <ele>1186</ele>
      </trkpt>
      <trkpt lat="43.98634" lon="6.5158">
        <ele>1185</ele>
      </trkpt>
      <trkpt lat="43.98601" lon="6.51556">
        <ele>1178</ele>
      </trkpt>
      <trkpt lat="43.98594" lon="6.51552">
        <ele>1175</ele>
      </trkpt>
      <trkpt lat="43.98585" lon="6.51547">
        <ele>1173</ele>
      </trkpt>
      <trkpt lat="43.98575" lon="6.5154">
        <ele>1171</ele>
      </trkpt>
      <trkpt lat="43.98565" lon="6.51534">
        <ele>1169</ele>
      </trkpt>
      <trkpt lat="43.98548" lon="6.51526">
        <ele>1165</ele>
      </trkpt>
      <trkpt lat="43.98537" lon="6.51518">
        <ele>1164</ele>
      </trkpt>
      <trkpt lat="43.98526" lon="6.51511">
        <ele>1163</ele>
      </trkpt>
      <trkpt lat="43.98518" lon="6.51506">
        <ele>1162</ele>
      </trkpt>
      <trkpt lat="43.98511" lon="6.51504">
        <ele>1160</ele>
      </trkpt>
      <trkpt lat="43.98501" lon="6.51502">
        <ele>1158</ele>
      </trkpt>
      <trkpt lat="43.98491" lon="6.51497">
        <ele>1155</ele>
      </trkpt>
      <trkpt lat="43.98483" lon="6.51494">
        <ele>1152</ele>
      </trkpt>
      <trkpt lat="43.98474" lon="6.51495">
        <ele>1149</ele>
      </trkpt>
      <trkpt lat="43.9847" lon="6.5149">
        <ele>1148</ele>
      </trkpt>
      <trkpt lat="43.98469" lon="6.51485">
        <ele>1147</ele>
      </trkpt>
      <trkpt lat="43.98468" lon="6.51481">
        <ele>1147</ele>
      </trkpt>
      <trkpt lat="43.98442" lon="6.51463">
        <ele>1140</ele>
      </trkpt>
      <trkpt lat="43.98437" lon="6.51462">
        <ele>1138</ele>
      </trkpt>
      <trkpt lat="43.98436" lon="6.51455">
        <ele>1138</ele>
      </trkpt>
      <trkpt lat="43.98435" lon="6.51444">
        <ele>1139</ele>
      </trkpt>
      <trkpt lat="43.98438" lon="6.51435">
        <ele>1140</ele>
      </trkpt>
      <trkpt lat="43.98446" lon="6.51428">
        <ele>1141</ele>
      </trkpt>
      <trkpt lat="43.9846" lon="6.51425">
        <ele>1143</ele>
      </trkpt>
      <trkpt lat="43.98483" lon="6.51421">
        <ele>1145</ele>
      </trkpt>
      <trkpt lat="43.98499" lon="6.51421">
        <ele>1146</ele>
      </trkpt>
      <trkpt lat="43.98514" lon="6.51421">
        <ele>1147</ele>
      </trkpt>
      <trkpt lat="43.98531" lon="6.51417">
        <ele>1147</ele>
      </trkpt>
      <trkpt lat="43.98549" lon="6.51412">
        <ele>1148</ele>
      </trkpt>
      <trkpt lat="43.98562" lon="6.51397">
        <ele>1146</ele>
      </trkpt>
      <trkpt lat="43.98574" lon="6.51384">
        <ele>1146</ele>
      </trkpt>
      <trkpt lat="43.98582" lon="6.5137">
        <ele>1146</ele>
      </trkpt>
      <trkpt lat="43.98587" lon="6.51358">
        <ele>1145</ele>
      </trkpt>
      <trkpt lat="43.98587" lon="6.51347">
        <ele>1144</ele>
      </trkpt>
      <trkpt lat="43.98585" lon="6.51337">
        <ele>1143</ele>
      </trkpt>
      <trkpt lat="43.98583" lon="6.51327">
        <ele>1141</ele>
      </trkpt>
      <trkpt lat="43.9858" lon="6.51318">
        <ele>1140</ele>
      </trkpt>
      <trkpt lat="43.98578" lon="6.5131">
        <ele>1139</ele>
      </trkpt>
      <trkpt lat="43.98577" lon="6.51303">
        <ele>1138</ele>
      </trkpt>
      <trkpt lat="43.98576" lon="6.51297">
        <ele>1137</ele>
      </trkpt>
      <trkpt lat="43.98575" lon="6.5129">
        <ele>1137</ele>
      </trkpt>
      <trkpt lat="43.98575" lon="6.51283">
        <ele>1136</ele>
      </trkpt>
      <trkpt lat="43.98579" lon="6.51279">
        <ele>1137</ele>
      </trkpt>
      <trkpt lat="43.98591" lon="6.51246">
        <ele>1136</ele>
      </trkpt>
      <trkpt lat="43.9859" lon="6.51251">
        <ele>1137</ele>
      </trkpt>
      <trkpt lat="43.98598" lon="6.51247">
        <ele>1138</ele>
      </trkpt>
      <trkpt lat="43.98604" lon="6.51246">
        <ele>1139</ele>
      </trkpt>
      <trkpt lat="43.98609" lon="6.51245">
        <ele>1140</ele>
      </trkpt>
      <trkpt lat="43.98614" lon="6.51243">
        <ele>1140</ele>
      </trkpt>
      <trkpt lat="43.9862" lon="6.51242">
        <ele>1142</ele>
      </trkpt>
      <trkpt lat="43.98624" lon="6.51238">
        <ele>1142</ele>
      </trkpt>
      <trkpt lat="43.98628" lon="6.51234">
        <ele>1142</ele>
      </trkpt>
      <trkpt lat="43.98634" lon="6.5123">
        <ele>1143</ele>
      </trkpt>
      <trkpt lat="43.9864" lon="6.51227">
        <ele>1143</ele>
      </trkpt>
      <trkpt lat="43.98646" lon="6.51224">
        <ele>1144</ele>
      </trkpt>
      <trkpt lat="43.98653" lon="6.51221">
        <ele>1146</ele>
      </trkpt>
      <trkpt lat="43.9866" lon="6.51216">
        <ele>1147</ele>
      </trkpt>
      <trkpt lat="43.98667" lon="6.51211">
        <ele>1148</ele>
      </trkpt>
      <trkpt lat="43.98674" lon="6.51206">
        <ele>1149</ele>
      </trkpt>
      <trkpt lat="43.98682" lon="6.51202">
        <ele>1150</ele>
      </trkpt>
      <trkpt lat="43.98689" lon="6.51197">
        <ele>1150</ele>
      </trkpt>
      <trkpt lat="43.98696" lon="6.51191">
        <ele>1150</ele>
      </trkpt>
      <trkpt lat="43.98703" lon="6.51187">
        <ele>1151</ele>
      </trkpt>
      <trkpt lat="43.98709" lon="6.51182">
        <ele>1151</ele>
      </trkpt>
      <trkpt lat="43.98717" lon="6.51176">
        <ele>1151</ele>
      </trkpt>
      <trkpt lat="43.98724" lon="6.5117">
        <ele>1151</ele>
      </trkpt>
      <trkpt lat="43.98731" lon="6.51166">
        <ele>1152</ele>
      </trkpt>
      <trkpt lat="43.98738" lon="6.51161">
        <ele>1152</ele>
      </trkpt>
      <trkpt lat="43.98744" lon="6.51156">
        <ele>1152</ele>
      </trkpt>
      <trkpt lat="43.98751" lon="6.51153">
        <ele>1152</ele>
      </trkpt>
      <trkpt lat="43.98759" lon="6.5115">
        <ele>1152</ele>
      </trkpt>
      <trkpt lat="43.98766" lon="6.51147">
        <ele>1153</ele>
      </trkpt>
      <trkpt lat="43.98773" lon="6.51145">
        <ele>1153</ele>
      </trkpt>
      <trkpt lat="43.98779" lon="6.51143">
        <ele>1154</ele>
      </trkpt>
      <trkpt lat="43.98784" lon="6.51142">
        <ele>1154</ele>
      </trkpt>
      <trkpt lat="43.9879" lon="6.51139">
        <ele>1154</ele>
      </trkpt>
      <trkpt lat="43.98794" lon="6.51142">
        <ele>1156</ele>
      </trkpt>
      <trkpt lat="43.988" lon="6.51138">
        <ele>1155</ele>
      </trkpt>
      <trkpt lat="43.98808" lon="6.51137">
        <ele>1156</ele>
      </trkpt>
      <trkpt lat="43.98817" lon="6.51133">
        <ele>1156</ele>
      </trkpt>
      <trkpt lat="43.98822" lon="6.51131">
        <ele>1157</ele>
      </trkpt>
      <trkpt lat="43.98826" lon="6.51128">
        <ele>1156</ele>
      </trkpt>
      <trkpt lat="43.98831" lon="6.51126">
        <ele>1157</ele>
      </trkpt>
      <trkpt lat="43.98836" lon="6.51125">
        <ele>1157</ele>
      </trkpt>
      <trkpt lat="43.98841" lon="6.51125">
        <ele>1157</ele>
      </trkpt>
      <trkpt lat="43.98851" lon="6.51121">
        <ele>1157</ele>
      </trkpt>
      <trkpt lat="43.9886" lon="6.51121">
        <ele>1158</ele>
      </trkpt>
      <trkpt lat="43.98865" lon="6.51119">
        <ele>1158</ele>
      </trkpt>
      <trkpt lat="43.98871" lon="6.51116">
        <ele>1158</ele>
      </trkpt>
      <trkpt lat="43.98877" lon="6.51116">
        <ele>1158</ele>
      </trkpt>
      <trkpt lat="43.98884" lon="6.51114">
        <ele>1159</ele>
      </trkpt>
      <trkpt lat="43.9889" lon="6.51113">
        <ele>1159</ele>
      </trkpt>
      <trkpt lat="43.98897" lon="6.51114">
        <ele>1160</ele>
      </trkpt>
      <trkpt lat="43.98905" lon="6.51115">
        <ele>1161</ele>
      </trkpt>
      <trkpt lat="43.9891" lon="6.51116">
        <ele>1162</ele>
      </trkpt>
      <trkpt lat="43.98916" lon="6.51114">
        <ele>1162</ele>
      </trkpt>
      <trkpt lat="43.98924" lon="6.51114">
        <ele>1162</ele>
      </trkpt>
      <trkpt lat="43.9893" lon="6.51113">
        <ele>1163</ele>
      </trkpt>
      <trkpt lat="43.98937" lon="6.51113">
        <ele>1163</ele>
      </trkpt>
      <trkpt lat="43.98944" lon="6.51114">
        <ele>1164</ele>
      </trkpt>
      <trkpt lat="43.98952" lon="6.51118">
        <ele>1166</ele>
      </trkpt>
      <trkpt lat="43.98958" lon="6.5112">
        <ele>1167</ele>
      </trkpt>
      <trkpt lat="43.98965" lon="6.51121">
        <ele>1168</ele>
      </trkpt>
      <trkpt lat="43.9897" lon="6.5112">
        <ele>1168</ele>
      </trkpt>
      <trkpt lat="43.98975" lon="6.5112">
        <ele>1169</ele>
      </trkpt>
      <trkpt lat="43.98986" lon="6.51119">
        <ele>1169</ele>
      </trkpt>
      <trkpt lat="43.98991" lon="6.51119">
        <ele>1170</ele>
      </trkpt>
      <trkpt lat="43.98997" lon="6.5112">
        <ele>1170</ele>
      </trkpt>
      <trkpt lat="43.99005" lon="6.51119">
        <ele>1171</ele>
      </trkpt>
      <trkpt lat="43.9901" lon="6.51119">
        <ele>1171</ele>
      </trkpt>
      <trkpt lat="43.99019" lon="6.51118">
        <ele>1171</ele>
      </trkpt>
      <trkpt lat="43.99026" lon="6.51115">
        <ele>1171</ele>
      </trkpt>
      <trkpt lat="43.99032" lon="6.51111">
        <ele>1170</ele>
      </trkpt>
      <trkpt lat="43.99038" lon="6.51108">
        <ele>1169</ele>
      </trkpt>
      <trkpt lat="43.99045" lon="6.51103">
        <ele>1168</ele>
      </trkpt>
      <trkpt lat="43.99052" lon="6.51101">
        <ele>1168</ele>
      </trkpt>
      <trkpt lat="43.99059" lon="6.511">
        <ele>1168</ele>
      </trkpt>
      <trkpt lat="43.99067" lon="6.51099">
        <ele>1168</ele>
      </trkpt>
      <trkpt lat="43.99074" lon="6.51098">
        <ele>1168</ele>
      </trkpt>
      <trkpt lat="43.99079" lon="6.51097">
        <ele>1168</ele>
      </trkpt>
      <trkpt lat="43.99091" lon="6.51087">
        <ele>1166</ele>
      </trkpt>
      <trkpt lat="43.99098" lon="6.51083">
        <ele>1165</ele>
      </trkpt>
      <trkpt lat="43.99105" lon="6.51082">
        <ele>1165</ele>
      </trkpt>
      <trkpt lat="43.99111" lon="6.51082">
        <ele>1165</ele>
      </trkpt>
      <trkpt lat="43.99118" lon="6.5108">
        <ele>1165</ele>
      </trkpt>
      <trkpt lat="43.99122" lon="6.51078">
        <ele>1165</ele>
      </trkpt>
      <trkpt lat="43.99127" lon="6.51077">
        <ele>1165</ele>
      </trkpt>
      <trkpt lat="43.99132" lon="6.51076">
        <ele>1165</ele>
      </trkpt>
      <trkpt lat="43.99141" lon="6.51077">
        <ele>1165</ele>
      </trkpt>
      <trkpt lat="43.99148" lon="6.51078">
        <ele>1166</ele>
      </trkpt>
      <trkpt lat="43.99156" lon="6.51078">
        <ele>1166</ele>
      </trkpt>
      <trkpt lat="43.99166" lon="6.51073">
        <ele>1165</ele>
      </trkpt>
      <trkpt lat="43.99172" lon="6.5107">
        <ele>1164</ele>
      </trkpt>
      <trkpt lat="43.99177" lon="6.51066">
        <ele>1164</ele>
      </trkpt>
      <trkpt lat="43.99182" lon="6.51061">
        <ele>1163</ele>
      </trkpt>
      <trkpt lat="43.99187" lon="6.51058">
        <ele>1162</ele>
      </trkpt>
      <trkpt lat="43.99192" lon="6.51055">
        <ele>1161</ele>
      </trkpt>
      <trkpt lat="43.99199" lon="6.51049">
        <ele>1160</ele>
      </trkpt>
      <trkpt lat="43.99206" lon="6.51046">
        <ele>1159</ele>
      </trkpt>
      <trkpt lat="43.99214" lon="6.51044">
        <ele>1159</ele>
      </trkpt>
      <trkpt lat="43.99223" lon="6.51041">
        <ele>1159</ele>
      </trkpt>
      <trkpt lat="43.99228" lon="6.5104">
        <ele>1159</ele>
      </trkpt>
      <trkpt lat="43.99236" lon="6.51039">
        <ele>1159</ele>
      </trkpt>
      <trkpt lat="43.99241" lon="6.51038">
        <ele>1159</ele>
      </trkpt>
      <trkpt lat="43.99247" lon="6.51037">
        <ele>1159</ele>
      </trkpt>
      <trkpt lat="43.99252" lon="6.51036">
        <ele>1159</ele>
      </trkpt>
      <trkpt lat="43.99258" lon="6.51037">
        <ele>1160</ele>
      </trkpt>
      <trkpt lat="43.99266" lon="6.51038">
        <ele>1160</ele>
      </trkpt>
      <trkpt lat="43.99272" lon="6.51038">
        <ele>1160</ele>
      </trkpt>
      <trkpt lat="43.99281" lon="6.51038">
        <ele>1161</ele>
      </trkpt>
      <trkpt lat="43.9929" lon="6.51035">
        <ele>1160</ele>
      </trkpt>
      <trkpt lat="43.99295" lon="6.51035">
        <ele>1161</ele>
      </trkpt>
      <trkpt lat="43.993" lon="6.51033">
        <ele>1161</ele>
      </trkpt>
      <trkpt lat="43.99304" lon="6.51032">
        <ele>1161</ele>
      </trkpt>
      <trkpt lat="43.99313" lon="6.51027">
        <ele>1160</ele>
      </trkpt>
      <trkpt lat="43.99319" lon="6.51023">
        <ele>1160</ele>
      </trkpt>
      <trkpt lat="43.99323" lon="6.5102">
        <ele>1159</ele>
      </trkpt>
      <trkpt lat="43.99328" lon="6.51016">
        <ele>1159</ele>
      </trkpt>
      <trkpt lat="43.99332" lon="6.51013">
        <ele>1159</ele>
      </trkpt>
      <trkpt lat="43.99336" lon="6.51008">
        <ele>1158</ele>
      </trkpt>
      <trkpt lat="43.99341" lon="6.51002">
        <ele>1158</ele>
      </trkpt>
      <trkpt lat="43.99345" lon="6.50996">
        <ele>1157</ele>
      </trkpt>
      <trkpt lat="43.9935" lon="6.50989">
        <ele>1156</ele>
      </trkpt>
      <trkpt lat="43.99354" lon="6.50982">
        <ele>1154</ele>
      </trkpt>
      <trkpt lat="43.99358" lon="6.50976">
        <ele>1153</ele>
      </trkpt>
      <trkpt lat="43.99365" lon="6.50969">
        <ele>1153</ele>
      </trkpt>
      <trkpt lat="43.99372" lon="6.5096">
        <ele>1151</ele>
      </trkpt>
      <trkpt lat="43.99378" lon="6.50952">
        <ele>1151</ele>
      </trkpt>
      <trkpt lat="43.99387" lon="6.50945">
        <ele>1150</ele>
      </trkpt>
      <trkpt lat="43.99396" lon="6.50939">
        <ele>1150</ele>
      </trkpt>
      <trkpt lat="43.99406" lon="6.5093">
        <ele>1149</ele>
      </trkpt>
      <trkpt lat="43.99413" lon="6.50922">
        <ele>1148</ele>
      </trkpt>
      <trkpt lat="43.9942" lon="6.50911">
        <ele>1146</ele>
      </trkpt>
      <trkpt lat="43.99426" lon="6.50902">
        <ele>1144</ele>
      </trkpt>
      <trkpt lat="43.99432" lon="6.50895">
        <ele>1143</ele>
      </trkpt>
      <trkpt lat="43.99437" lon="6.50889">
        <ele>1141</ele>
      </trkpt>
      <trkpt lat="43.99442" lon="6.50885">
        <ele>1140</ele>
      </trkpt>
      <trkpt lat="43.99448" lon="6.5088">
        <ele>1139</ele>
      </trkpt>
      <trkpt lat="43.99452" lon="6.50875">
        <ele>1138</ele>
      </trkpt>
      <trkpt lat="43.99457" lon="6.50872">
        <ele>1138</ele>
      </trkpt>
      <trkpt lat="43.99465" lon="6.50869">
        <ele>1137</ele>
      </trkpt>
      <trkpt lat="43.99471" lon="6.50866">
        <ele>1137</ele>
      </trkpt>
      <trkpt lat="43.99478" lon="6.50864">
        <ele>1136</ele>
      </trkpt>
      <trkpt lat="43.99486" lon="6.50862">
        <ele>1136</ele>
      </trkpt>
      <trkpt lat="43.99495" lon="6.50858">
        <ele>1134</ele>
      </trkpt>
      <trkpt lat="43.99504" lon="6.50854">
        <ele>1134</ele>
      </trkpt>
      <trkpt lat="43.99514" lon="6.50849">
        <ele>1132</ele>
      </trkpt>
      <trkpt lat="43.99521" lon="6.50844">
        <ele>1131</ele>
      </trkpt>
      <trkpt lat="43.99529" lon="6.5084">
        <ele>1129</ele>
      </trkpt>
      <trkpt lat="43.99539" lon="6.50839">
        <ele>1129</ele>
      </trkpt>
      <trkpt lat="43.99551" lon="6.50834">
        <ele>1127</ele>
      </trkpt>
      <trkpt lat="43.99563" lon="6.5083">
        <ele>1126</ele>
      </trkpt>
      <trkpt lat="43.99577" lon="6.50829">
        <ele>1125</ele>
      </trkpt>
      <trkpt lat="43.9959" lon="6.50829">
        <ele>1125</ele>
      </trkpt>
      <trkpt lat="43.99601" lon="6.50821">
        <ele>1124</ele>
      </trkpt>
      <trkpt lat="43.99613" lon="6.50813">
        <ele>1122</ele>
      </trkpt>
      <trkpt lat="43.99627" lon="6.50802">
        <ele>1120</ele>
      </trkpt>
      <trkpt lat="43.99643" lon="6.50791">
        <ele>1118</ele>
      </trkpt>
      <trkpt lat="43.99661" lon="6.50778">
        <ele>1115</ele>
      </trkpt>
      <trkpt lat="43.99678" lon="6.50765">
        <ele>1112</ele>
      </trkpt>
      <trkpt lat="43.99696" lon="6.50754">
        <ele>1109</ele>
      </trkpt>
      <trkpt lat="43.99711" lon="6.50743">
        <ele>1105</ele>
      </trkpt>
      <trkpt lat="43.99727" lon="6.50741">
        <ele>1102</ele>
      </trkpt>
      <trkpt lat="43.99744" lon="6.50743">
        <ele>1100</ele>
      </trkpt>
      <trkpt lat="43.9976" lon="6.50745">
        <ele>1097</ele>
      </trkpt>
      <trkpt lat="43.99774" lon="6.5075">
        <ele>1096</ele>
      </trkpt>
      <trkpt lat="43.99788" lon="6.50756">
        <ele>1095</ele>
      </trkpt>
      <trkpt lat="43.99805" lon="6.50762">
        <ele>1095</ele>
      </trkpt>
      <trkpt lat="43.9982" lon="6.50763">
        <ele>1095</ele>
      </trkpt>
      <trkpt lat="43.99834" lon="6.50765">
        <ele>1095</ele>
      </trkpt>
      <trkpt lat="43.99838" lon="6.50774">
        <ele>1099</ele>
      </trkpt>
      <trkpt lat="43.9984" lon="6.50779">
        <ele>1101</ele>
      </trkpt>
      <trkpt lat="43.9984" lon="6.50769">
        <ele>1098</ele>
      </trkpt>
      <trkpt lat="43.99841" lon="6.50759">
        <ele>1095</ele>
      </trkpt>
      <trkpt lat="43.99844" lon="6.50749">
        <ele>1091</ele>
      </trkpt>
      <trkpt lat="43.99846" lon="6.50738">
        <ele>1088</ele>
      </trkpt>
      <trkpt lat="43.99849" lon="6.50734">
        <ele>1087</ele>
      </trkpt>
      <trkpt lat="43.99846" lon="6.50731">
        <ele>1085</ele>
      </trkpt>
      <trkpt lat="43.99848" lon="6.50725">
        <ele>1085</ele>
      </trkpt>
      <trkpt lat="43.99852" lon="6.50721">
        <ele>1085</ele>
      </trkpt>
      <trkpt lat="43.99859" lon="6.50722">
        <ele>1086</ele>
      </trkpt>
      <trkpt lat="43.99867" lon="6.50733">
        <ele>1090</ele>
      </trkpt>
      <trkpt lat="43.99871" lon="6.50746">
        <ele>1095</ele>
      </trkpt>
      <trkpt lat="43.99878" lon="6.50755">
        <ele>1100</ele>
      </trkpt>
      <trkpt lat="43.99882" lon="6.50752">
        <ele>1100</ele>
      </trkpt>
      <trkpt lat="43.99887" lon="6.50742">
        <ele>1097</ele>
      </trkpt>
      <trkpt lat="43.99894" lon="6.50735">
        <ele>1096</ele>
      </trkpt>
      <trkpt lat="43.99902" lon="6.50731">
        <ele>1097</ele>
      </trkpt>
      <trkpt lat="43.99906" lon="6.50724">
        <ele>1096</ele>
      </trkpt>
      <trkpt lat="43.9991" lon="6.50716">
        <ele>1095</ele>
      </trkpt>
      <trkpt lat="43.99917" lon="6.50706">
        <ele>1094</ele>
      </trkpt>
      <trkpt lat="43.99925" lon="6.50698">
        <ele>1094</ele>
      </trkpt>
      <trkpt lat="43.99933" lon="6.50692">
        <ele>1092</ele>
      </trkpt>
      <trkpt lat="43.99938" lon="6.50684">
        <ele>1090</ele>
      </trkpt>
      <trkpt lat="43.99941" lon="6.50672">
        <ele>1087</ele>
      </trkpt>
      <trkpt lat="43.99945" lon="6.50663">
        <ele>1085</ele>
      </trkpt>
      <trkpt lat="43.99947" lon="6.50657">
        <ele>1084</ele>
      </trkpt>
      <trkpt lat="43.99951" lon="6.5065">
        <ele>1083</ele>
      </trkpt>
      <trkpt lat="43.99954" lon="6.50642">
        <ele>1082</ele>
      </trkpt>
      <trkpt lat="43.99957" lon="6.50635">
        <ele>1081</ele>
      </trkpt>
      <trkpt lat="43.99961" lon="6.50624">
        <ele>1080</ele>
      </trkpt>
      <trkpt lat="43.99967" lon="6.50613">
        <ele>1080</ele>
      </trkpt>
      <trkpt lat="43.99973" lon="6.50599">
        <ele>1077</ele>
      </trkpt>
      <trkpt lat="43.9998" lon="6.50586">
        <ele>1074</ele>
      </trkpt>
      <trkpt lat="43.99986" lon="6.50575">
        <ele>1070</ele>
      </trkpt>
      <trkpt lat="43.99991" lon="6.50564">
        <ele>1067</ele>
      </trkpt>
      <trkpt lat="43.99996" lon="6.50553">
        <ele>1063</ele>
      </trkpt>
      <trkpt lat="44.00002" lon="6.50541">
        <ele>1060</ele>
      </trkpt>
      <trkpt lat="44.00007" lon="6.50532">
        <ele>1058</ele>
      </trkpt>
      <trkpt lat="44.00014" lon="6.50522">
        <ele>1056</ele>
      </trkpt>
      <trkpt lat="44.0002" lon="6.50513">
        <ele>1054</ele>
      </trkpt>
      <trkpt lat="44.00024" lon="6.50509">
        <ele>1053</ele>
      </trkpt>
      <trkpt lat="44.0003" lon="6.505">
        <ele>1052</ele>
      </trkpt>
      <trkpt lat="44.00034" lon="6.50493">
        <ele>1051</ele>
      </trkpt>
      <trkpt lat="44.00026" lon="6.50498">
        <ele>1052</ele>
      </trkpt>
      <trkpt lat="44.00021" lon="6.50504">
        <ele>1052</ele>
      </trkpt>
      <trkpt lat="44.00016" lon="6.5051">
        <ele>1053</ele>
      </trkpt>
      <trkpt lat="44.00012" lon="6.50517">
        <ele>1055</ele>
      </trkpt>
      <trkpt lat="44.00004" lon="6.50524">
        <ele>1057</ele>
      </trkpt>
      <trkpt lat="43.99998" lon="6.50529">
        <ele>1058</ele>
      </trkpt>
      <trkpt lat="43.99993" lon="6.5053">
        <ele>1059</ele>
      </trkpt>
      <trkpt lat="43.99987" lon="6.50528">
        <ele>1059</ele>
      </trkpt>
      <trkpt lat="43.99981" lon="6.50526">
        <ele>1059</ele>
      </trkpt>
      <trkpt lat="43.99972" lon="6.50519">
        <ele>1057</ele>
      </trkpt>
      <trkpt lat="43.99965" lon="6.50516">
        <ele>1055</ele>
      </trkpt>
      <trkpt lat="43.99958" lon="6.50514">
        <ele>1053</ele>
      </trkpt>
      <trkpt lat="43.99951" lon="6.50516">
        <ele>1053</ele>
      </trkpt>
      <trkpt lat="43.99945" lon="6.50521">
        <ele>1053</ele>
      </trkpt>
      <trkpt lat="43.99939" lon="6.50529">
        <ele>1053</ele>
      </trkpt>
      <trkpt lat="43.99937" lon="6.50537">
        <ele>1054</ele>
      </trkpt>
      <trkpt lat="43.99933" lon="6.50542">
        <ele>1054</ele>
      </trkpt>
      <trkpt lat="43.9993" lon="6.50552">
        <ele>1055</ele>
      </trkpt>
      <trkpt lat="43.9993" lon="6.50558">
        <ele>1057</ele>
      </trkpt>
      <trkpt lat="43.99925" lon="6.50552">
        <ele>1054</ele>
      </trkpt>
      <trkpt lat="43.99925" lon="6.50542">
        <ele>1052</ele>
      </trkpt>
      <trkpt lat="43.99927" lon="6.50532">
        <ele>1051</ele>
      </trkpt>
      <trkpt lat="43.99926" lon="6.5052">
        <ele>1049</ele>
      </trkpt>
      <trkpt lat="43.99924" lon="6.50507">
        <ele>1047</ele>
      </trkpt>
      <trkpt lat="43.99921" lon="6.50496">
        <ele>1045</ele>
      </trkpt>
      <trkpt lat="43.99918" lon="6.50483">
        <ele>1043</ele>
      </trkpt>
      <trkpt lat="43.99915" lon="6.50468">
        <ele>1041</ele>
      </trkpt>
      <trkpt lat="43.99909" lon="6.50454">
        <ele>1040</ele>
      </trkpt>
      <trkpt lat="43.99902" lon="6.50442">
        <ele>1038</ele>
      </trkpt>
      <trkpt lat="43.99897" lon="6.50432">
        <ele>1037</ele>
      </trkpt>
      <trkpt lat="43.9989" lon="6.50425">
        <ele>1036</ele>
      </trkpt>
      <trkpt lat="43.99886" lon="6.50415">
        <ele>1035</ele>
      </trkpt>
      <trkpt lat="43.99882" lon="6.50405">
        <ele>1033</ele>
      </trkpt>
      <trkpt lat="43.99879" lon="6.50392">
        <ele>1032</ele>
      </trkpt>
      <trkpt lat="43.99878" lon="6.50387">
        <ele>1031</ele>
      </trkpt>
      <trkpt lat="43.99874" lon="6.50384">
        <ele>1030</ele>
      </trkpt>
      <trkpt lat="43.99871" lon="6.50389">
        <ele>1031</ele>
      </trkpt>
      <trkpt lat="43.99866" lon="6.50393">
        <ele>1032</ele>
      </trkpt>
      <trkpt lat="43.99859" lon="6.50394">
        <ele>1032</ele>
      </trkpt>
      <trkpt lat="43.99851" lon="6.50392">
        <ele>1032</ele>
      </trkpt>
      <trkpt lat="43.99846" lon="6.5039">
        <ele>1032</ele>
      </trkpt>
      <trkpt lat="43.99836" lon="6.50388">
        <ele>1032</ele>
      </trkpt>
      <trkpt lat="43.99831" lon="6.50383">
        <ele>1031</ele>
      </trkpt>
      <trkpt lat="43.99826" lon="6.50379">
        <ele>1030</ele>
      </trkpt>
      <trkpt lat="43.9982" lon="6.50373">
        <ele>1030</ele>
      </trkpt>
      <trkpt lat="43.99816" lon="6.50369">
        <ele>1029</ele>
      </trkpt>
      <trkpt lat="43.99813" lon="6.50366">
        <ele>1028</ele>
      </trkpt>
      <trkpt lat="43.99807" lon="6.50359">
        <ele>1027</ele>
      </trkpt>
      <trkpt lat="43.998" lon="6.50356">
        <ele>1026</ele>
      </trkpt>
      <trkpt lat="43.99796" lon="6.50351">
        <ele>1025</ele>
      </trkpt>
      <trkpt lat="43.99792" lon="6.50347">
        <ele>1025</ele>
      </trkpt>
      <trkpt lat="43.99786" lon="6.50346">
        <ele>1024</ele>
      </trkpt>
      <trkpt lat="43.99778" lon="6.50345">
        <ele>1024</ele>
      </trkpt>
      <trkpt lat="43.99771" lon="6.50348">
        <ele>1024</ele>
      </trkpt>
      <trkpt lat="43.99764" lon="6.50356">
        <ele>1025</ele>
      </trkpt>
      <trkpt lat="43.99758" lon="6.5036">
        <ele>1026</ele>
      </trkpt>
      <trkpt lat="43.99754" lon="6.50363">
        <ele>1027</ele>
      </trkpt>
      <trkpt lat="43.9975" lon="6.50367">
        <ele>1028</ele>
      </trkpt>
      <trkpt lat="43.99744" lon="6.50373">
        <ele>1029</ele>
      </trkpt>
      <trkpt lat="43.99737" lon="6.50379">
        <ele>1030</ele>
      </trkpt>
      <trkpt lat="43.99727" lon="6.50382">
        <ele>1031</ele>
      </trkpt>
      <trkpt lat="43.99718" lon="6.5039">
        <ele>1032</ele>
      </trkpt>
      <trkpt lat="43.99709" lon="6.50397">
        <ele>1034</ele>
      </trkpt>
      <trkpt lat="43.99699" lon="6.50402">
        <ele>1033</ele>
      </trkpt>
      <trkpt lat="43.99689" lon="6.50404">
        <ele>1031</ele>
      </trkpt>
      <trkpt lat="43.99676" lon="6.50403">
        <ele>1028</ele>
      </trkpt>
      <trkpt lat="43.99663" lon="6.50404">
        <ele>1025</ele>
      </trkpt>
      <trkpt lat="43.99652" lon="6.50403">
        <ele>1021</ele>
      </trkpt>
      <trkpt lat="43.99644" lon="6.50407">
        <ele>1020</ele>
      </trkpt>
      <trkpt lat="43.99634" lon="6.50417">
        <ele>1020</ele>
      </trkpt>
      <trkpt lat="43.99624" lon="6.50427">
        <ele>1020</ele>
      </trkpt>
      <trkpt lat="43.99616" lon="6.50435">
        <ele>1020</ele>
      </trkpt>
      <trkpt lat="43.99613" lon="6.50446">
        <ele>1022</ele>
      </trkpt>
      <trkpt lat="43.99615" lon="6.50437">
        <ele>1020</ele>
      </trkpt>
      <trkpt lat="43.99621" lon="6.50427">
        <ele>1019</ele>
      </trkpt>
      <trkpt lat="43.99624" lon="6.50419">
        <ele>1018</ele>
      </trkpt>
      <trkpt lat="43.99629" lon="6.5041">
        <ele>1016</ele>
      </trkpt>
      <trkpt lat="43.99637" lon="6.504">
        <ele>1015</ele>
      </trkpt>
      <trkpt lat="43.99644" lon="6.50391">
        <ele>1014</ele>
      </trkpt>
      <trkpt lat="43.99654" lon="6.50379">
        <ele>1012</ele>
      </trkpt>
      <trkpt lat="43.99662" lon="6.50369">
        <ele>1010</ele>
      </trkpt>
      <trkpt lat="43.99663" lon="6.50363">
        <ele>1008</ele>
      </trkpt>
      <trkpt lat="43.99657" lon="6.50371">
        <ele>1009</ele>
      </trkpt>
      <trkpt lat="43.9965" lon="6.50376">
        <ele>1009</ele>
      </trkpt>
      <trkpt lat="43.99642" lon="6.50382">
        <ele>1009</ele>
      </trkpt>
      <trkpt lat="43.99633" lon="6.50388">
        <ele>1009</ele>
      </trkpt>
      <trkpt lat="43.99623" lon="6.50393">
        <ele>1008</ele>
      </trkpt>
      <trkpt lat="43.99611" lon="6.50402">
        <ele>1006</ele>
      </trkpt>
      <trkpt lat="43.99599" lon="6.50414">
        <ele>1006</ele>
      </trkpt>
      <trkpt lat="43.99591" lon="6.50428">
        <ele>1008</ele>
      </trkpt>
      <trkpt lat="43.99583" lon="6.50438">
        <ele>1008</ele>
      </trkpt>
      <trkpt lat="43.99573" lon="6.50435">
        <ele>1004</ele>
      </trkpt>
      <trkpt lat="43.99565" lon="6.5043">
        <ele>999</ele>
      </trkpt>
      <trkpt lat="43.99557" lon="6.50435">
        <ele>998</ele>
      </trkpt>
      <trkpt lat="43.99549" lon="6.50443">
        <ele>998</ele>
      </trkpt>
      <trkpt lat="43.99536" lon="6.50448">
        <ele>996</ele>
      </trkpt>
      <trkpt lat="43.99524" lon="6.5046">
        <ele>996</ele>
      </trkpt>
      <trkpt lat="43.99513" lon="6.50479">
        <ele>999</ele>
      </trkpt>
      <trkpt lat="43.99499" lon="6.50493">
        <ele>1000</ele>
      </trkpt>
      <trkpt lat="43.99491" lon="6.50498">
        <ele>998</ele>
      </trkpt>
      <trkpt lat="43.99482" lon="6.50505">
        <ele>998</ele>
      </trkpt>
      <trkpt lat="43.9947" lon="6.50512">
        <ele>997</ele>
      </trkpt>
      <trkpt lat="43.9946" lon="6.50516">
        <ele>996</ele>
      </trkpt>
      <trkpt lat="43.99451" lon="6.50516">
        <ele>994</ele>
      </trkpt>
      <trkpt lat="43.99442" lon="6.50512">
        <ele>989</ele>
      </trkpt>
      <trkpt lat="43.99435" lon="6.50511">
        <ele>987</ele>
      </trkpt>
      <trkpt lat="43.99427" lon="6.50511">
        <ele>986</ele>
      </trkpt>
      <trkpt lat="43.9943" lon="6.50504">
        <ele>983</ele>
      </trkpt>
      <trkpt lat="43.99436" lon="6.50496">
        <ele>981</ele>
      </trkpt>
      <trkpt lat="43.99446" lon="6.50492">
        <ele>982</ele>
      </trkpt>
      <trkpt lat="43.99455" lon="6.50485">
        <ele>981</ele>
      </trkpt>
      <trkpt lat="43.99466" lon="6.50477">
        <ele>981</ele>
      </trkpt>
      <trkpt lat="43.99477" lon="6.50469">
        <ele>981</ele>
      </trkpt>
      <trkpt lat="43.99485" lon="6.5046">
        <ele>979</ele>
      </trkpt>
      <trkpt lat="43.99491" lon="6.5045">
        <ele>978</ele>
      </trkpt>
      <trkpt lat="43.99497" lon="6.50435">
        <ele>975</ele>
      </trkpt>
      <trkpt lat="43.99505" lon="6.50415">
        <ele>971</ele>
      </trkpt>
      <trkpt lat="43.99515" lon="6.50401">
        <ele>969</ele>
      </trkpt>
      <trkpt lat="43.99523" lon="6.50385">
        <ele>966</ele>
      </trkpt>
      <trkpt lat="43.99531" lon="6.50367">
        <ele>963</ele>
      </trkpt>
      <trkpt lat="43.99538" lon="6.50348">
        <ele>959</ele>
      </trkpt>
      <trkpt lat="43.99544" lon="6.50343">
        <ele>960</ele>
      </trkpt>
      <trkpt lat="43.99568" lon="6.50311">
        <ele>958</ele>
      </trkpt>
      <trkpt lat="43.99568" lon="6.50311">
        <ele>958</ele>
      </trkpt>
      <trkpt lat="43.99568" lon="6.5031">
        <ele>958</ele>
      </trkpt>
      <trkpt lat="43.99572" lon="6.50304">
        <ele>957</ele>
      </trkpt>
      <trkpt lat="43.99578" lon="6.50299">
        <ele>957</ele>
      </trkpt>
      <trkpt lat="43.99583" lon="6.50293">
        <ele>957</ele>
      </trkpt>
      <trkpt lat="43.9959" lon="6.50286">
        <ele>956</ele>
      </trkpt>
      <trkpt lat="43.99596" lon="6.50282">
        <ele>956</ele>
      </trkpt>
      <trkpt lat="43.99604" lon="6.50279">
        <ele>956</ele>
      </trkpt>
      <trkpt lat="43.99612" lon="6.50276">
        <ele>956</ele>
      </trkpt>
      <trkpt lat="43.9962" lon="6.50274">
        <ele>957</ele>
      </trkpt>
      <trkpt lat="43.99625" lon="6.50269">
        <ele>957</ele>
      </trkpt>
      <trkpt lat="43.99629" lon="6.50263">
        <ele>957</ele>
      </trkpt>
      <trkpt lat="43.99632" lon="6.50259">
        <ele>957</ele>
      </trkpt>
      <trkpt lat="43.9964" lon="6.50253">
        <ele>958</ele>
      </trkpt>
      <trkpt lat="43.99643" lon="6.50247">
        <ele>957</ele>
      </trkpt>
      <trkpt lat="43.99647" lon="6.50241">
        <ele>957</ele>
      </trkpt>
      <trkpt lat="43.99651" lon="6.50237">
        <ele>956</ele>
      </trkpt>
      <trkpt lat="43.99654" lon="6.50231">
        <ele>956</ele>
      </trkpt>
      <trkpt lat="43.99661" lon="6.50214">
        <ele>953</ele>
      </trkpt>
      <trkpt lat="43.99669" lon="6.50206">
        <ele>953</ele>
      </trkpt>
      <trkpt lat="43.99667" lon="6.50197">
        <ele>952</ele>
      </trkpt>
      <trkpt lat="43.9966" lon="6.50192">
        <ele>950</ele>
      </trkpt>
      <trkpt lat="43.99647" lon="6.50201">
        <ele>949</ele>
      </trkpt>
      <trkpt lat="43.99632" lon="6.50213">
        <ele>948</ele>
      </trkpt>
      <trkpt lat="43.99624" lon="6.50218">
        <ele>948</ele>
      </trkpt>
      <trkpt lat="43.99617" lon="6.50223">
        <ele>948</ele>
      </trkpt>
      <trkpt lat="43.99601" lon="6.50231">
        <ele>948</ele>
      </trkpt>
      <trkpt lat="43.99593" lon="6.50235">
        <ele>948</ele>
      </trkpt>
      <trkpt lat="43.99581" lon="6.50239">
        <ele>947</ele>
      </trkpt>
      <trkpt lat="43.99575" lon="6.50242">
        <ele>947</ele>
      </trkpt>
      <trkpt lat="43.9957" lon="6.50245">
        <ele>947</ele>
      </trkpt>
      <trkpt lat="43.99565" lon="6.50246">
        <ele>946</ele>
      </trkpt>
      <trkpt lat="43.9956" lon="6.50247">
        <ele>946</ele>
      </trkpt>
      <trkpt lat="43.99555" lon="6.50248">
        <ele>945</ele>
      </trkpt>
      <trkpt lat="43.9955" lon="6.5025">
        <ele>945</ele>
      </trkpt>
      <trkpt lat="43.99546" lon="6.50254">
        <ele>945</ele>
      </trkpt>
      <trkpt lat="43.9954" lon="6.50257">
        <ele>944</ele>
      </trkpt>
      <trkpt lat="43.99532" lon="6.50262">
        <ele>944</ele>
      </trkpt>
      <trkpt lat="43.99524" lon="6.50267">
        <ele>943</ele>
      </trkpt>
      <trkpt lat="43.99515" lon="6.50273">
        <ele>942</ele>
      </trkpt>
      <trkpt lat="43.99505" lon="6.50276">
        <ele>941</ele>
      </trkpt>
      <trkpt lat="43.99495" lon="6.50274">
        <ele>939</ele>
      </trkpt>
      <trkpt lat="43.99487" lon="6.50269">
        <ele>938</ele>
      </trkpt>
      <trkpt lat="43.99477" lon="6.50261">
        <ele>938</ele>
      </trkpt>
      <trkpt lat="43.99468" lon="6.50256">
        <ele>938</ele>
      </trkpt>
      <trkpt lat="43.99459" lon="6.50254">
        <ele>938</ele>
      </trkpt>
      <trkpt lat="43.99448" lon="6.50258">
        <ele>938</ele>
      </trkpt>
      <trkpt lat="43.99436" lon="6.50265">
        <ele>937</ele>
      </trkpt>
      <trkpt lat="43.99424" lon="6.50272">
        <ele>937</ele>
      </trkpt>
      <trkpt lat="43.99413" lon="6.50281">
        <ele>937</ele>
      </trkpt>
      <trkpt lat="43.99402" lon="6.50289">
        <ele>937</ele>
      </trkpt>
      <trkpt lat="43.99391" lon="6.50296">
        <ele>936</ele>
      </trkpt>
      <trkpt lat="43.99381" lon="6.503">
        <ele>936</ele>
      </trkpt>
      <trkpt lat="43.9937" lon="6.50305">
        <ele>935</ele>
      </trkpt>
      <trkpt lat="43.99359" lon="6.50308">
        <ele>935</ele>
      </trkpt>
      <trkpt lat="43.99346" lon="6.5031">
        <ele>934</ele>
      </trkpt>
      <trkpt lat="43.99333" lon="6.50312">
        <ele>934</ele>
      </trkpt>
      <trkpt lat="43.9932" lon="6.50312">
        <ele>933</ele>
      </trkpt>
      <trkpt lat="43.99309" lon="6.50311">
        <ele>933</ele>
      </trkpt>
      <trkpt lat="43.99297" lon="6.5031">
        <ele>934</ele>
      </trkpt>
      <trkpt lat="43.99287" lon="6.50306">
        <ele>935</ele>
      </trkpt>
      <trkpt lat="43.99278" lon="6.50304">
        <ele>935</ele>
      </trkpt>
      <trkpt lat="43.99269" lon="6.50302">
        <ele>936</ele>
      </trkpt>
      <trkpt lat="43.99259" lon="6.50302">
        <ele>936</ele>
      </trkpt>
      <trkpt lat="43.99248" lon="6.50304">
        <ele>937</ele>
      </trkpt>
      <trkpt lat="43.99238" lon="6.50308">
        <ele>937</ele>
      </trkpt>
      <trkpt lat="43.99228" lon="6.5031">
        <ele>937</ele>
      </trkpt>
      <trkpt lat="43.99217" lon="6.50314">
        <ele>937</ele>
      </trkpt>
      <trkpt lat="43.99205" lon="6.50319">
        <ele>937</ele>
      </trkpt>
      <trkpt lat="43.99193" lon="6.50325">
        <ele>937</ele>
      </trkpt>
      <trkpt lat="43.99182" lon="6.5033">
        <ele>937</ele>
      </trkpt>
      <trkpt lat="43.99171" lon="6.50335">
        <ele>936</ele>
      </trkpt>
      <trkpt lat="43.99158" lon="6.50339">
        <ele>936</ele>
      </trkpt>
      <trkpt lat="43.99146" lon="6.50343">
        <ele>936</ele>
      </trkpt>
      <trkpt lat="43.99132" lon="6.50346">
        <ele>936</ele>
      </trkpt>
      <trkpt lat="43.99118" lon="6.50349">
        <ele>936</ele>
      </trkpt>
      <trkpt lat="43.99103" lon="6.50355">
        <ele>935</ele>
      </trkpt>
      <trkpt lat="43.99091" lon="6.5036">
        <ele>935</ele>
      </trkpt>
      <trkpt lat="43.99066" lon="6.50364">
        <ele>935</ele>
      </trkpt>
      <trkpt lat="43.99054" lon="6.5037">
        <ele>935</ele>
      </trkpt>
      <trkpt lat="43.99044" lon="6.50376">
        <ele>936</ele>
      </trkpt>
      <trkpt lat="43.99034" lon="6.50382">
        <ele>936</ele>
      </trkpt>
      <trkpt lat="43.99026" lon="6.50388">
        <ele>938</ele>
      </trkpt>
      <trkpt lat="43.99007" lon="6.50398">
        <ele>940</ele>
      </trkpt>
      <trkpt lat="43.98995" lon="6.50424">
        <ele>938</ele>
      </trkpt>
      <trkpt lat="43.98987" lon="6.50444">
        <ele>938</ele>
      </trkpt>
      <trkpt lat="43.98982" lon="6.50461">
        <ele>938</ele>
      </trkpt>
      <trkpt lat="43.98977" lon="6.50478">
        <ele>937</ele>
      </trkpt>
      <trkpt lat="43.9897" lon="6.50493">
        <ele>936</ele>
      </trkpt>
      <trkpt lat="43.98966" lon="6.50505">
        <ele>936</ele>
      </trkpt>
      <trkpt lat="43.98958" lon="6.50514">
        <ele>936</ele>
      </trkpt>
      <trkpt lat="43.98946" lon="6.50517">
        <ele>936</ele>
      </trkpt>
      <trkpt lat="43.98933" lon="6.50514">
        <ele>935</ele>
      </trkpt>
      <trkpt lat="43.9892" lon="6.50509">
        <ele>934</ele>
      </trkpt>
      <trkpt lat="43.98907" lon="6.50505">
        <ele>933</ele>
      </trkpt>
      <trkpt lat="43.98894" lon="6.50502">
        <ele>932</ele>
      </trkpt>
      <trkpt lat="43.9888" lon="6.50498">
        <ele>931</ele>
      </trkpt>
      <trkpt lat="43.98867" lon="6.50491">
        <ele>931</ele>
      </trkpt>
      <trkpt lat="43.98854" lon="6.50486">
        <ele>930</ele>
      </trkpt>
      <trkpt lat="43.9884" lon="6.5048">
        <ele>930</ele>
      </trkpt>
      <trkpt lat="43.98826" lon="6.50476">
        <ele>930</ele>
      </trkpt>
      <trkpt lat="43.98811" lon="6.50471">
        <ele>930</ele>
      </trkpt>
      <trkpt lat="43.98797" lon="6.50467">
        <ele>930</ele>
      </trkpt>
      <trkpt lat="43.98782" lon="6.50466">
        <ele>930</ele>
      </trkpt>
      <trkpt lat="43.98767" lon="6.50462">
        <ele>930</ele>
      </trkpt>
      <trkpt lat="43.98751" lon="6.5046">
        <ele>930</ele>
      </trkpt>
      <trkpt lat="43.98735" lon="6.5046">
        <ele>930</ele>
      </trkpt>
      <trkpt lat="43.9872" lon="6.50464">
        <ele>929</ele>
      </trkpt>
      <trkpt lat="43.98703" lon="6.5047">
        <ele>930</ele>
      </trkpt>
      <trkpt lat="43.98686" lon="6.50478">
        <ele>930</ele>
      </trkpt>
      <trkpt lat="43.98672" lon="6.50487">
        <ele>930</ele>
      </trkpt>
      <trkpt lat="43.98657" lon="6.50498">
        <ele>929</ele>
      </trkpt>
      <trkpt lat="43.98644" lon="6.50509">
        <ele>928</ele>
      </trkpt>
      <trkpt lat="43.98629" lon="6.50519">
        <ele>927</ele>
      </trkpt>
      <trkpt lat="43.98616" lon="6.50533">
        <ele>927</ele>
      </trkpt>
      <trkpt lat="43.98602" lon="6.50547">
        <ele>926</ele>
      </trkpt>
      <trkpt lat="43.98588" lon="6.50559">
        <ele>923</ele>
      </trkpt>
      <trkpt lat="43.98575" lon="6.50573">
        <ele>920</ele>
      </trkpt>
      <trkpt lat="43.9856" lon="6.50583">
        <ele>920</ele>
      </trkpt>
      <trkpt lat="43.98545" lon="6.50598">
        <ele>919</ele>
      </trkpt>
      <trkpt lat="43.9853" lon="6.5061">
        <ele>917</ele>
      </trkpt>
      <trkpt lat="43.98516" lon="6.50616">
        <ele>918</ele>
      </trkpt>
      <trkpt lat="43.98498" lon="6.50627">
        <ele>916</ele>
      </trkpt>
      <trkpt lat="43.98483" lon="6.50636">
        <ele>916</ele>
      </trkpt>
      <trkpt lat="43.9847" lon="6.50647">
        <ele>917</ele>
      </trkpt>
      <trkpt lat="43.98451" lon="6.5066">
        <ele>917</ele>
      </trkpt>
      <trkpt lat="43.98431" lon="6.5067">
        <ele>917</ele>
      </trkpt>
      <trkpt lat="43.98413" lon="6.50671">
        <ele>917</ele>
      </trkpt>
      <trkpt lat="43.98398" lon="6.5067">
        <ele>917</ele>
      </trkpt>
      <trkpt lat="43.98388" lon="6.50667">
        <ele>918</ele>
      </trkpt>
      <trkpt lat="43.98378" lon="6.50664">
        <ele>918</ele>
      </trkpt>
      <trkpt lat="43.98364" lon="6.50664">
        <ele>918</ele>
      </trkpt>
      <trkpt lat="43.98352" lon="6.50668">
        <ele>917</ele>
      </trkpt>
      <trkpt lat="43.98347" lon="6.50669">
        <ele>917</ele>
      </trkpt>
      <trkpt lat="43.98348" lon="6.50674">
        <ele>916</ele>
      </trkpt>
      <trkpt lat="43.98352" lon="6.50668">
        <ele>917</ele>
      </trkpt>
      <trkpt lat="43.98358" lon="6.50663">
        <ele>918</ele>
      </trkpt>
      <trkpt lat="43.98351" lon="6.5066">
        <ele>919</ele>
      </trkpt>
      <trkpt lat="43.98342" lon="6.50661">
        <ele>919</ele>
      </trkpt>
      <trkpt lat="43.98334" lon="6.50662">
        <ele>918</ele>
      </trkpt>
      <trkpt lat="43.98324" lon="6.50667">
        <ele>917</ele>
      </trkpt>
      <trkpt lat="43.98314" lon="6.50671">
        <ele>917</ele>
      </trkpt>
      <trkpt lat="43.98304" lon="6.50675">
        <ele>916</ele>
      </trkpt>
      <trkpt lat="43.98294" lon="6.50682">
        <ele>915</ele>
      </trkpt>
      <trkpt lat="43.98285" lon="6.50687">
        <ele>915</ele>
      </trkpt>
      <trkpt lat="43.98274" lon="6.50692">
        <ele>915</ele>
      </trkpt>
      <trkpt lat="43.98264" lon="6.50697">
        <ele>915</ele>
      </trkpt>
      <trkpt lat="43.98253" lon="6.50704">
        <ele>915</ele>
      </trkpt>
      <trkpt lat="43.98244" lon="6.50709">
        <ele>915</ele>
      </trkpt>
      <trkpt lat="43.98234" lon="6.50715">
        <ele>915</ele>
      </trkpt>
      <trkpt lat="43.98223" lon="6.50718">
        <ele>916</ele>
      </trkpt>
      <trkpt lat="43.98214" lon="6.50722">
        <ele>916</ele>
      </trkpt>
      <trkpt lat="43.98207" lon="6.50726">
        <ele>916</ele>
      </trkpt>
      <trkpt lat="43.98199" lon="6.50736">
        <ele>915</ele>
      </trkpt>
      <trkpt lat="43.9819" lon="6.50743">
        <ele>916</ele>
      </trkpt>
      <trkpt lat="43.98183" lon="6.50752">
        <ele>916</ele>
      </trkpt>
      <trkpt lat="43.98178" lon="6.50756">
        <ele>916</ele>
      </trkpt>
      <trkpt lat="43.98174" lon="6.50759">
        <ele>916</ele>
      </trkpt>
      <trkpt lat="43.98169" lon="6.50762">
        <ele>916</ele>
      </trkpt>
      <trkpt lat="43.98149" lon="6.50748">
        <ele>917</ele>
      </trkpt>
      <trkpt lat="43.98142" lon="6.50745">
        <ele>917</ele>
      </trkpt>
      <trkpt lat="43.98136" lon="6.50741">
        <ele>917</ele>
      </trkpt>
      <trkpt lat="43.9813" lon="6.50735">
        <ele>918</ele>
      </trkpt>
      <trkpt lat="43.98121" lon="6.5073">
        <ele>918</ele>
      </trkpt>
      <trkpt lat="43.98112" lon="6.50727">
        <ele>918</ele>
      </trkpt>
      <trkpt lat="43.981" lon="6.50728">
        <ele>917</ele>
      </trkpt>
      <trkpt lat="43.98089" lon="6.50731">
        <ele>917</ele>
      </trkpt>
      <trkpt lat="43.98078" lon="6.50737">
        <ele>916</ele>
      </trkpt>
      <trkpt lat="43.98069" lon="6.50744">
        <ele>916</ele>
      </trkpt>
      <trkpt lat="43.9806" lon="6.50747">
        <ele>915</ele>
      </trkpt>
      <trkpt lat="43.98049" lon="6.50749">
        <ele>915</ele>
      </trkpt>
      <trkpt lat="43.98038" lon="6.5075">
        <ele>915</ele>
      </trkpt>
      <trkpt lat="43.98027" lon="6.50754">
        <ele>915</ele>
      </trkpt>
      <trkpt lat="43.98016" lon="6.50757">
        <ele>915</ele>
      </trkpt>
      <trkpt lat="43.98007" lon="6.50761">
        <ele>915</ele>
      </trkpt>
      <trkpt lat="43.97997" lon="6.50763">
        <ele>916</ele>
      </trkpt>
      <trkpt lat="43.97986" lon="6.50765">
        <ele>916</ele>
      </trkpt>
      <trkpt lat="43.97977" lon="6.5077">
        <ele>915</ele>
      </trkpt>
      <trkpt lat="43.97965" lon="6.50776">
        <ele>915</ele>
      </trkpt>
      <trkpt lat="43.97952" lon="6.50778">
        <ele>915</ele>
      </trkpt>
      <trkpt lat="43.97939" lon="6.5078">
        <ele>915</ele>
      </trkpt>
      <trkpt lat="43.97925" lon="6.50785">
        <ele>915</ele>
      </trkpt>
      <trkpt lat="43.9791" lon="6.50793">
        <ele>914</ele>
      </trkpt>
      <trkpt lat="43.97898" lon="6.50799">
        <ele>914</ele>
      </trkpt>
      <trkpt lat="43.97887" lon="6.50802">
        <ele>914</ele>
      </trkpt>
      <trkpt lat="43.97879" lon="6.50807">
        <ele>914</ele>
      </trkpt>
      <trkpt lat="43.97868" lon="6.50818">
        <ele>913</ele>
      </trkpt>
      <trkpt lat="43.97858" lon="6.50828">
        <ele>912</ele>
      </trkpt>
      <trkpt lat="43.97847" lon="6.50837">
        <ele>912</ele>
      </trkpt>
      <trkpt lat="43.97834" lon="6.50841">
        <ele>912</ele>
      </trkpt>
      <trkpt lat="43.9782" lon="6.50847">
        <ele>912</ele>
      </trkpt>
      <trkpt lat="43.9781" lon="6.50847">
        <ele>913</ele>
      </trkpt>
      <trkpt lat="43.978" lon="6.50847">
        <ele>913</ele>
      </trkpt>
      <trkpt lat="43.97786" lon="6.50847">
        <ele>914</ele>
      </trkpt>
      <trkpt lat="43.97778" lon="6.50847">
        <ele>914</ele>
      </trkpt>
      <trkpt lat="43.97767" lon="6.50852">
        <ele>914</ele>
      </trkpt>
      <trkpt lat="43.97756" lon="6.50855">
        <ele>914</ele>
      </trkpt>
      <trkpt lat="43.97738" lon="6.50863">
        <ele>913</ele>
      </trkpt>
      <trkpt lat="43.97726" lon="6.50869">
        <ele>912</ele>
      </trkpt>
      <trkpt lat="43.97716" lon="6.50872">
        <ele>911</ele>
      </trkpt>
      <trkpt lat="43.97706" lon="6.50876">
        <ele>910</ele>
      </trkpt>
      <trkpt lat="43.97699" lon="6.50877">
        <ele>910</ele>
      </trkpt>
      <trkpt lat="43.97692" lon="6.50879">
        <ele>909</ele>
      </trkpt>
      <trkpt lat="43.97687" lon="6.50882">
        <ele>909</ele>
      </trkpt>
      <trkpt lat="43.9768" lon="6.50883">
        <ele>908</ele>
      </trkpt>
      <trkpt lat="43.97674" lon="6.50886">
        <ele>908</ele>
      </trkpt>
      <trkpt lat="43.97668" lon="6.50886">
        <ele>908</ele>
      </trkpt>
      <trkpt lat="43.97661" lon="6.50889">
        <ele>908</ele>
      </trkpt>
      <trkpt lat="43.97654" lon="6.50892">
        <ele>908</ele>
      </trkpt>
      <trkpt lat="43.97649" lon="6.50896">
        <ele>908</ele>
      </trkpt>
      <trkpt lat="43.9764" lon="6.50903">
        <ele>908</ele>
      </trkpt>
      <trkpt lat="43.97631" lon="6.50909">
        <ele>908</ele>
      </trkpt>
      <trkpt lat="43.97623" lon="6.50914">
        <ele>908</ele>
      </trkpt>
      <trkpt lat="43.97615" lon="6.50918">
        <ele>908</ele>
      </trkpt>
      <trkpt lat="43.97607" lon="6.50923">
        <ele>908</ele>
      </trkpt>
      <trkpt lat="43.97599" lon="6.50925">
        <ele>908</ele>
      </trkpt>
      <trkpt lat="43.9759" lon="6.50926">
        <ele>908</ele>
      </trkpt>
      <trkpt lat="43.97583" lon="6.50924">
        <ele>908</ele>
      </trkpt>
      <trkpt lat="43.97575" lon="6.50921">
        <ele>909</ele>
      </trkpt>
      <trkpt lat="43.97567" lon="6.50917">
        <ele>909</ele>
      </trkpt>
      <trkpt lat="43.9756" lon="6.50914">
        <ele>910</ele>
      </trkpt>
      <trkpt lat="43.97553" lon="6.50911">
        <ele>910</ele>
      </trkpt>
      <trkpt lat="43.97539" lon="6.509">
        <ele>911</ele>
      </trkpt>
      <trkpt lat="43.97531" lon="6.50893">
        <ele>912</ele>
      </trkpt>
      <trkpt lat="43.97523" lon="6.50889">
        <ele>912</ele>
      </trkpt>
      <trkpt lat="43.97514" lon="6.50884">
        <ele>912</ele>
      </trkpt>
      <trkpt lat="43.97505" lon="6.50883">
        <ele>912</ele>
      </trkpt>
      <trkpt lat="43.97496" lon="6.5088">
        <ele>912</ele>
      </trkpt>
      <trkpt lat="43.97488" lon="6.50879">
        <ele>911</ele>
      </trkpt>
      <trkpt lat="43.97479" lon="6.50879">
        <ele>911</ele>
      </trkpt>
      <trkpt lat="43.97471" lon="6.50876">
        <ele>911</ele>
      </trkpt>
      <trkpt lat="43.97464" lon="6.50872">
        <ele>911</ele>
      </trkpt>
      <trkpt lat="43.97456" lon="6.50869">
        <ele>911</ele>
      </trkpt>
      <trkpt lat="43.97449" lon="6.50864">
        <ele>912</ele>
      </trkpt>
      <trkpt lat="43.97443" lon="6.5086">
        <ele>912</ele>
      </trkpt>
      <trkpt lat="43.97437" lon="6.50859">
        <ele>912</ele>
      </trkpt>
      <trkpt lat="43.97429" lon="6.50856">
        <ele>912</ele>
      </trkpt>
      <trkpt lat="43.97422" lon="6.50856">
        <ele>911</ele>
      </trkpt>
      <trkpt lat="43.97414" lon="6.50855">
        <ele>910</ele>
      </trkpt>
      <trkpt lat="43.97407" lon="6.50853">
        <ele>910</ele>
      </trkpt>
      <trkpt lat="43.97398" lon="6.50853">
        <ele>910</ele>
      </trkpt>
      <trkpt lat="43.97388" lon="6.50855">
        <ele>909</ele>
      </trkpt>
      <trkpt lat="43.9738" lon="6.50857">
        <ele>909</ele>
      </trkpt>
      <trkpt lat="43.97373" lon="6.50862">
        <ele>908</ele>
      </trkpt>
      <trkpt lat="43.97366" lon="6.50866">
        <ele>908</ele>
      </trkpt>
      <trkpt lat="43.97358" lon="6.50872">
        <ele>908</ele>
      </trkpt>
      <trkpt lat="43.97351" lon="6.5088">
        <ele>908</ele>
      </trkpt>
      <trkpt lat="43.97347" lon="6.50889">
        <ele>907</ele>
      </trkpt>
      <trkpt lat="43.97344" lon="6.50899">
        <ele>907</ele>
      </trkpt>
      <trkpt lat="43.97342" lon="6.50908">
        <ele>907</ele>
      </trkpt>
      <trkpt lat="43.9734" lon="6.50919">
        <ele>907</ele>
      </trkpt>
      <trkpt lat="43.97336" lon="6.50931">
        <ele>906</ele>
      </trkpt>
      <trkpt lat="43.97329" lon="6.50939">
        <ele>906</ele>
      </trkpt>
      <trkpt lat="43.97322" lon="6.50946">
        <ele>906</ele>
      </trkpt>
      <trkpt lat="43.97317" lon="6.5095">
        <ele>906</ele>
      </trkpt>
      <trkpt lat="43.97313" lon="6.50953">
        <ele>906</ele>
      </trkpt>
      <trkpt lat="43.97314" lon="6.50958">
        <ele>905</ele>
      </trkpt>
      <trkpt lat="43.97311" lon="6.50953">
        <ele>906</ele>
      </trkpt>
      <trkpt lat="43.97309" lon="6.50948">
        <ele>906</ele>
      </trkpt>
      <trkpt lat="43.97307" lon="6.50961">
        <ele>905</ele>
      </trkpt>
      <trkpt lat="43.97296" lon="6.50954">
        <ele>905</ele>
      </trkpt>
      <trkpt lat="43.97291" lon="6.5094">
        <ele>906</ele>
      </trkpt>
      <trkpt lat="43.9728" lon="6.50929">
        <ele>907</ele>
      </trkpt>
      <trkpt lat="43.97266" lon="6.50927">
        <ele>907</ele>
      </trkpt>
      <trkpt lat="43.97253" lon="6.50932">
        <ele>906</ele>
      </trkpt>
      <trkpt lat="43.97242" lon="6.50942">
        <ele>904</ele>
      </trkpt>
      <trkpt lat="43.97233" lon="6.50948">
        <ele>904</ele>
      </trkpt>
      <trkpt lat="43.97222" lon="6.50958">
        <ele>902</ele>
      </trkpt>
      <trkpt lat="43.97211" lon="6.50967">
        <ele>902</ele>
      </trkpt>
      <trkpt lat="43.972" lon="6.50978">
        <ele>901</ele>
      </trkpt>
      <trkpt lat="43.97189" lon="6.50991">
        <ele>901</ele>
      </trkpt>
      <trkpt lat="43.97177" lon="6.51007">
        <ele>900</ele>
      </trkpt>
      <trkpt lat="43.97168" lon="6.51024">
        <ele>899</ele>
      </trkpt>
      <trkpt lat="43.97157" lon="6.51041">
        <ele>899</ele>
      </trkpt>
      <trkpt lat="43.9715" lon="6.51055">
        <ele>898</ele>
      </trkpt>
      <trkpt lat="43.9713" lon="6.51068">
        <ele>898</ele>
      </trkpt>
      <trkpt lat="43.97102" lon="6.5108">
        <ele>897</ele>
      </trkpt>
      <trkpt lat="43.97077" lon="6.51094">
        <ele>897</ele>
      </trkpt>
      <trkpt lat="43.97061" lon="6.51098">
        <ele>897</ele>
      </trkpt>
      <trkpt lat="43.97051" lon="6.51094">
        <ele>896</ele>
      </trkpt>
      <trkpt lat="43.97049" lon="6.51083">
        <ele>897</ele>
      </trkpt>
      <trkpt lat="43.97037" lon="6.51092">
        <ele>896</ele>
      </trkpt>
      <trkpt lat="43.97024" lon="6.51094">
        <ele>896</ele>
      </trkpt>
      <trkpt lat="43.97016" lon="6.51094">
        <ele>896</ele>
      </trkpt>
      <trkpt lat="43.97006" lon="6.51096">
        <ele>896</ele>
      </trkpt>
      <trkpt lat="43.96994" lon="6.511">
        <ele>896</ele>
      </trkpt>
      <trkpt lat="43.96982" lon="6.511">
        <ele>896</ele>
      </trkpt>
      <trkpt lat="43.9697" lon="6.51098">
        <ele>896</ele>
      </trkpt>
      <trkpt lat="43.96959" lon="6.511">
        <ele>895</ele>
      </trkpt>
      <trkpt lat="43.96947" lon="6.51099">
        <ele>895</ele>
      </trkpt>
      <trkpt lat="43.96935" lon="6.51095">
        <ele>895</ele>
      </trkpt>
      <trkpt lat="43.96925" lon="6.51081">
        <ele>895</ele>
      </trkpt>
      <trkpt lat="43.96917" lon="6.51064">
        <ele>895</ele>
      </trkpt>
      <trkpt lat="43.96907" lon="6.51049">
        <ele>895</ele>
      </trkpt>
      <trkpt lat="43.96897" lon="6.51038">
        <ele>895</ele>
      </trkpt>
      <trkpt lat="43.9689" lon="6.51027">
        <ele>895</ele>
      </trkpt>
      <trkpt lat="43.96883" lon="6.51012">
        <ele>895</ele>
      </trkpt>
      <trkpt lat="43.9687" lon="6.51004">
        <ele>895</ele>
      </trkpt>
      <trkpt lat="43.96864" lon="6.5099">
        <ele>895</ele>
      </trkpt>
      <trkpt lat="43.96853" lon="6.50982">
        <ele>894</ele>
      </trkpt>
      <trkpt lat="43.96844" lon="6.50972">
        <ele>895</ele>
      </trkpt>
      <trkpt lat="43.96836" lon="6.50963">
        <ele>895</ele>
      </trkpt>
      <trkpt lat="43.96826" lon="6.50953">
        <ele>895</ele>
      </trkpt>
      <trkpt lat="43.96801" lon="6.50952">
        <ele>895</ele>
      </trkpt>
      <trkpt lat="43.96798" lon="6.50943">
        <ele>895</ele>
      </trkpt>
      <trkpt lat="43.96793" lon="6.50932">
        <ele>895</ele>
      </trkpt>
      <trkpt lat="43.96788" lon="6.50925">
        <ele>895</ele>
      </trkpt>
      <trkpt lat="43.96782" lon="6.50928">
        <ele>895</ele>
      </trkpt>
      <trkpt lat="43.96766" lon="6.50919">
        <ele>894</ele>
      </trkpt>
      <trkpt lat="43.9675" lon="6.50908">
        <ele>894</ele>
      </trkpt>
      <trkpt lat="43.96738" lon="6.50892">
        <ele>894</ele>
      </trkpt>
      <trkpt lat="43.96723" lon="6.50885">
        <ele>894</ele>
      </trkpt>
      <trkpt lat="43.96706" lon="6.50875">
        <ele>894</ele>
      </trkpt>
      <trkpt lat="43.96693" lon="6.50868">
        <ele>893</ele>
      </trkpt>
      <trkpt lat="43.96681" lon="6.50856">
        <ele>893</ele>
      </trkpt>
      <trkpt lat="43.96668" lon="6.50849">
        <ele>893</ele>
      </trkpt>
      <trkpt lat="43.96656" lon="6.50841">
        <ele>893</ele>
      </trkpt>
      <trkpt lat="43.96644" lon="6.50833">
        <ele>893</ele>
      </trkpt>
      <trkpt lat="43.96631" lon="6.50823">
        <ele>893</ele>
      </trkpt>
      <trkpt lat="43.96615" lon="6.50808">
        <ele>893</ele>
      </trkpt>
      <trkpt lat="43.96587" lon="6.50787">
        <ele>892</ele>
      </trkpt>
      <trkpt lat="43.96559" lon="6.50762">
        <ele>892</ele>
      </trkpt>
      <trkpt lat="43.96535" lon="6.50741">
        <ele>892</ele>
      </trkpt>
      <trkpt lat="43.96511" lon="6.50723">
        <ele>892</ele>
      </trkpt>
      <trkpt lat="43.96493" lon="6.50709">
        <ele>892</ele>
      </trkpt>
      <trkpt lat="43.96471" lon="6.5069">
        <ele>892</ele>
      </trkpt>
      <trkpt lat="43.9646" lon="6.50672">
        <ele>892</ele>
      </trkpt>
      <trkpt lat="43.96451" lon="6.50645">
        <ele>893</ele>
      </trkpt>
      <trkpt lat="43.96447" lon="6.50626">
        <ele>894</ele>
      </trkpt>
      <trkpt lat="43.96449" lon="6.50599">
        <ele>895</ele>
      </trkpt>
      <trkpt lat="43.96451" lon="6.50578">
        <ele>896</ele>
      </trkpt>
      <trkpt lat="43.96453" lon="6.50563">
        <ele>897</ele>
      </trkpt>
      <trkpt lat="43.96452" lon="6.5054">
        <ele>898</ele>
      </trkpt>
      <trkpt lat="43.96448" lon="6.50529">
        <ele>899</ele>
      </trkpt>
      <trkpt lat="43.96439" lon="6.50522">
        <ele>899</ele>
      </trkpt>
      <trkpt lat="43.96418" lon="6.50515">
        <ele>899</ele>
      </trkpt>
      <trkpt lat="43.964" lon="6.50513">
        <ele>899</ele>
      </trkpt>
      <trkpt lat="43.96378" lon="6.50507">
        <ele>899</ele>
      </trkpt>
      <trkpt lat="43.96355" lon="6.50495">
        <ele>899</ele>
      </trkpt>
      <trkpt lat="43.96324" lon="6.50476">
        <ele>899</ele>
      </trkpt>
      <trkpt lat="43.96301" lon="6.50459">
        <ele>899</ele>
      </trkpt>
      <trkpt lat="43.96284" lon="6.50439">
        <ele>900</ele>
      </trkpt>
      <trkpt lat="43.96269" lon="6.50417">
        <ele>900</ele>
      </trkpt>
      <trkpt lat="43.96254" lon="6.50395">
        <ele>900</ele>
      </trkpt>
      <trkpt lat="43.96245" lon="6.50373">
        <ele>901</ele>
      </trkpt>
      <trkpt lat="43.96238" lon="6.50357">
        <ele>902</ele>
      </trkpt>
      <trkpt lat="43.96229" lon="6.50339">
        <ele>902</ele>
      </trkpt>
      <trkpt lat="43.9622" lon="6.50319">
        <ele>903</ele>
      </trkpt>
      <trkpt lat="43.96217" lon="6.50301">
        <ele>905</ele>
      </trkpt>
      <trkpt lat="43.96216" lon="6.50299">
        <ele>905</ele>
      </trkpt>
      <trkpt lat="43.96216" lon="6.50287">
        <ele>906</ele>
      </trkpt>
      <trkpt lat="43.96216" lon="6.50269">
        <ele>907</ele>
      </trkpt>
      <trkpt lat="43.96215" lon="6.50252">
        <ele>908</ele>
      </trkpt>
      <trkpt lat="43.96208" lon="6.50237">
        <ele>909</ele>
      </trkpt>
      <trkpt lat="43.96196" lon="6.50225">
        <ele>910</ele>
      </trkpt>
      <trkpt lat="43.96183" lon="6.5021">
        <ele>911</ele>
      </trkpt>
      <trkpt lat="43.9617" lon="6.50198">
        <ele>911</ele>
      </trkpt>
      <trkpt lat="43.96155" lon="6.50191">
        <ele>911</ele>
      </trkpt>
      <trkpt lat="43.96144" lon="6.50187">
        <ele>911</ele>
      </trkpt>
      <trkpt lat="43.96136" lon="6.50186">
        <ele>911</ele>
      </trkpt>
      <trkpt lat="43.96131" lon="6.50185">
        <ele>911</ele>
      </trkpt>
      <trkpt lat="43.96109" lon="6.50176">
        <ele>911</ele>
      </trkpt>
      <trkpt lat="43.96096" lon="6.50182">
        <ele>910</ele>
      </trkpt>
      <trkpt lat="43.96078" lon="6.50185">
        <ele>910</ele>
      </trkpt>
      <trkpt lat="43.96049" lon="6.50181">
        <ele>910</ele>
      </trkpt>
      <trkpt lat="43.9603" lon="6.5018">
        <ele>910</ele>
      </trkpt>
      <trkpt lat="43.96016" lon="6.50173">
        <ele>911</ele>
      </trkpt>
      <trkpt lat="43.96007" lon="6.50161">
        <ele>912</ele>
      </trkpt>
      <trkpt lat="43.95998" lon="6.5015">
        <ele>913</ele>
      </trkpt>
      <trkpt lat="43.95993" lon="6.50141">
        <ele>914</ele>
      </trkpt>
      <trkpt lat="43.95991" lon="6.50127">
        <ele>914</ele>
      </trkpt>
      <trkpt lat="43.9599" lon="6.50114">
        <ele>915</ele>
      </trkpt>
      <trkpt lat="43.95989" lon="6.50109">
        <ele>915</ele>
      </trkpt>
      <trkpt lat="43.95987" lon="6.50107">
        <ele>915</ele>
      </trkpt>
      <trkpt lat="43.95981" lon="6.5011">
        <ele>916</ele>
      </trkpt>
      <trkpt lat="43.95979" lon="6.50113">
        <ele>916</ele>
      </trkpt>
      <trkpt lat="43.95978" lon="6.50116">
        <ele>916</ele>
      </trkpt>
      <trkpt lat="43.95977" lon="6.50129">
        <ele>915</ele>
      </trkpt>
      <trkpt lat="43.95972" lon="6.50139">
        <ele>915</ele>
      </trkpt>
      <trkpt lat="43.95969" lon="6.5014">
        <ele>915</ele>
      </trkpt>
      <trkpt lat="43.95958" lon="6.50141">
        <ele>915</ele>
      </trkpt>
      <trkpt lat="43.95948" lon="6.5014">
        <ele>916</ele>
      </trkpt>
      <trkpt lat="43.95936" lon="6.50137">
        <ele>917</ele>
      </trkpt>
      <trkpt lat="43.95925" lon="6.50135">
        <ele>919</ele>
      </trkpt>
      <trkpt lat="43.95915" lon="6.50133">
        <ele>920</ele>
      </trkpt>
      <trkpt lat="43.95904" lon="6.50129">
        <ele>922</ele>
      </trkpt>
      <trkpt lat="43.95897" lon="6.50131">
        <ele>923</ele>
      </trkpt>
      <trkpt lat="43.95895" lon="6.50132">
        <ele>923</ele>
      </trkpt>
      <trkpt lat="43.95887" lon="6.50146">
        <ele>923</ele>
      </trkpt>
      <trkpt lat="43.95878" lon="6.50158">
        <ele>923</ele>
      </trkpt>
      <trkpt lat="43.95866" lon="6.50171">
        <ele>924</ele>
      </trkpt>
      <trkpt lat="43.95857" lon="6.50181">
        <ele>924</ele>
      </trkpt>
      <trkpt lat="43.95849" lon="6.50195">
        <ele>925</ele>
      </trkpt>
      <trkpt lat="43.95838" lon="6.50208">
        <ele>925</ele>
      </trkpt>
      <trkpt lat="43.95836" lon="6.50209">
        <ele>925</ele>
      </trkpt>
      <trkpt lat="43.95835" lon="6.50209">
        <ele>925</ele>
      </trkpt>
      <trkpt lat="43.95833" lon="6.50204">
        <ele>926</ele>
      </trkpt>
      <trkpt lat="43.95824" lon="6.50191">
        <ele>927</ele>
      </trkpt>
      <trkpt lat="43.95818" lon="6.50183">
        <ele>929</ele>
      </trkpt>
      <trkpt lat="43.95813" lon="6.50176">
        <ele>930</ele>
      </trkpt>
      <trkpt lat="43.95807" lon="6.50167">
        <ele>931</ele>
      </trkpt>
      <trkpt lat="43.95802" lon="6.50161">
        <ele>931</ele>
      </trkpt>
      <trkpt lat="43.95794" lon="6.50151">
        <ele>933</ele>
      </trkpt>
      <trkpt lat="43.95788" lon="6.50142">
        <ele>934</ele>
      </trkpt>
      <trkpt lat="43.95781" lon="6.5013">
        <ele>935</ele>
      </trkpt>
      <trkpt lat="43.95778" lon="6.50118">
        <ele>936</ele>
      </trkpt>
      <trkpt lat="43.95778" lon="6.50112">
        <ele>937</ele>
      </trkpt>
      <trkpt lat="43.95785" lon="6.50093">
        <ele>937</ele>
      </trkpt>
      <trkpt lat="43.95788" lon="6.50078">
        <ele>938</ele>
      </trkpt>
      <trkpt lat="43.95791" lon="6.5006">
        <ele>939</ele>
      </trkpt>
      <trkpt lat="43.95794" lon="6.50045">
        <ele>940</ele>
      </trkpt>
      <trkpt lat="43.95797" lon="6.50029">
        <ele>941</ele>
      </trkpt>
      <trkpt lat="43.95803" lon="6.50018">
        <ele>942</ele>
      </trkpt>
      <trkpt lat="43.95811" lon="6.50008">
        <ele>942</ele>
      </trkpt>
      <trkpt lat="43.95821" lon="6.49997">
        <ele>942</ele>
      </trkpt>
      <trkpt lat="43.9583" lon="6.49988">
        <ele>943</ele>
      </trkpt>
      <trkpt lat="43.95842" lon="6.49979">
        <ele>943</ele>
      </trkpt>
      <trkpt lat="43.95853" lon="6.49971">
        <ele>943</ele>
      </trkpt>
      <trkpt lat="43.95864" lon="6.49957">
        <ele>943</ele>
      </trkpt>
      <trkpt lat="43.95871" lon="6.49947">
        <ele>943</ele>
      </trkpt>
      <trkpt lat="43.95873" lon="6.49935">
        <ele>944</ele>
      </trkpt>
      <trkpt lat="43.9587" lon="6.49923">
        <ele>946</ele>
      </trkpt>
      <trkpt lat="43.95866" lon="6.49911">
        <ele>948</ele>
      </trkpt>
      <trkpt lat="43.95866" lon="6.499">
        <ele>949</ele>
      </trkpt>
      <trkpt lat="43.95868" lon="6.49894">
        <ele>949</ele>
      </trkpt>
      <trkpt lat="43.95872" lon="6.49887">
        <ele>949</ele>
      </trkpt>
      <trkpt lat="43.95877" lon="6.49875">
        <ele>949</ele>
      </trkpt>
      <trkpt lat="43.95879" lon="6.4987">
        <ele>950</ele>
      </trkpt>
      <trkpt lat="43.95884" lon="6.49862">
        <ele>951</ele>
      </trkpt>
      <trkpt lat="43.95888" lon="6.49854">
        <ele>951</ele>
      </trkpt>
      <trkpt lat="43.95893" lon="6.49843">
        <ele>953</ele>
      </trkpt>
      <trkpt lat="43.95898" lon="6.49837">
        <ele>954</ele>
      </trkpt>
      <trkpt lat="43.95899" lon="6.49833">
        <ele>954</ele>
      </trkpt>
      <trkpt lat="43.95905" lon="6.49827">
        <ele>955</ele>
      </trkpt>
      <trkpt lat="43.95913" lon="6.49822">
        <ele>955</ele>
      </trkpt>
      <trkpt lat="43.95914" lon="6.49821">
        <ele>955</ele>
      </trkpt>
      <trkpt lat="43.95918" lon="6.49816">
        <ele>956</ele>
      </trkpt>
      <trkpt lat="43.95921" lon="6.49811">
        <ele>956</ele>
      </trkpt>
      <trkpt lat="43.95926" lon="6.49798">
        <ele>958</ele>
      </trkpt>
      <trkpt lat="43.95928" lon="6.49792">
        <ele>959</ele>
      </trkpt>
      <trkpt lat="43.95934" lon="6.49776">
        <ele>962</ele>
      </trkpt>
      <trkpt lat="43.95936" lon="6.4977">
        <ele>963</ele>
      </trkpt>
      <trkpt lat="43.95939" lon="6.49763">
        <ele>963</ele>
      </trkpt>
      <trkpt lat="43.95944" lon="6.49752">
        <ele>964</ele>
      </trkpt>
      <trkpt lat="43.95946" lon="6.49745">
        <ele>964</ele>
      </trkpt>
      <trkpt lat="43.95942" lon="6.49746">
        <ele>965</ele>
      </trkpt>
      <trkpt lat="43.95933" lon="6.49756">
        <ele>966</ele>
      </trkpt>
      <trkpt lat="43.9593" lon="6.4976">
        <ele>966</ele>
      </trkpt>
      <trkpt lat="43.95921" lon="6.49766">
        <ele>967</ele>
      </trkpt>
      <trkpt lat="43.95904" lon="6.49783">
        <ele>966</ele>
      </trkpt>
      <trkpt lat="43.95886" lon="6.49801">
        <ele>964</ele>
      </trkpt>
      <trkpt lat="43.95882" lon="6.49805">
        <ele>963</ele>
      </trkpt>
      <trkpt lat="43.95869" lon="6.49816">
        <ele>962</ele>
      </trkpt>
      <trkpt lat="43.95847" lon="6.49837">
        <ele>963</ele>
      </trkpt>
      <trkpt lat="43.9584" lon="6.49843">
        <ele>963</ele>
      </trkpt>
      <trkpt lat="43.95818" lon="6.49864">
        <ele>965</ele>
      </trkpt>
      <trkpt lat="43.958" lon="6.49882">
        <ele>965</ele>
      </trkpt>
      <trkpt lat="43.95784" lon="6.49897">
        <ele>964</ele>
      </trkpt>
      <trkpt lat="43.95764" lon="6.49905">
        <ele>964</ele>
      </trkpt>
      <trkpt lat="43.9574" lon="6.49918">
        <ele>964</ele>
      </trkpt>
      <trkpt lat="43.95728" lon="6.49943">
        <ele>962</ele>
      </trkpt>
      <trkpt lat="43.95721" lon="6.49967">
        <ele>960</ele>
      </trkpt>
      <trkpt lat="43.95707" lon="6.49989">
        <ele>960</ele>
      </trkpt>
      <trkpt lat="43.95688" lon="6.50014">
        <ele>960</ele>
      </trkpt>
      <trkpt lat="43.95673" lon="6.5003">
        <ele>961</ele>
      </trkpt>
      <trkpt lat="43.95654" lon="6.50047">
        <ele>962</ele>
      </trkpt>
      <trkpt lat="43.95635" lon="6.50065">
        <ele>962</ele>
      </trkpt>
      <trkpt lat="43.95617" lon="6.50084">
        <ele>962</ele>
      </trkpt>
      <trkpt lat="43.95604" lon="6.50101">
        <ele>962</ele>
      </trkpt>
      <trkpt lat="43.95596" lon="6.50112">
        <ele>962</ele>
      </trkpt>
      <trkpt lat="43.95598" lon="6.50131">
        <ele>962</ele>
      </trkpt>
      <trkpt lat="43.956" lon="6.50154">
        <ele>963</ele>
      </trkpt>
      <trkpt lat="43.95593" lon="6.50167">
        <ele>964</ele>
      </trkpt>
      <trkpt lat="43.95582" lon="6.50185">
        <ele>963</ele>
      </trkpt>
      <trkpt lat="43.95576" lon="6.50193">
        <ele>963</ele>
      </trkpt>
      <trkpt lat="43.9557" lon="6.50201">
        <ele>963</ele>
      </trkpt>
      <trkpt lat="43.95564" lon="6.50208">
        <ele>963</ele>
      </trkpt>
      <trkpt lat="43.95555" lon="6.50214">
        <ele>964</ele>
      </trkpt>
      <trkpt lat="43.95547" lon="6.50221">
        <ele>964</ele>
      </trkpt>
      <trkpt lat="43.95542" lon="6.50228">
        <ele>965</ele>
      </trkpt>
      <trkpt lat="43.9554" lon="6.5023">
        <ele>965</ele>
      </trkpt>
      <trkpt lat="43.95536" lon="6.50235">
        <ele>966</ele>
      </trkpt>
      <trkpt lat="43.95537" lon="6.5024">
        <ele>966</ele>
      </trkpt>
      <trkpt lat="43.95543" lon="6.50258">
        <ele>965</ele>
      </trkpt>
      <trkpt lat="43.95546" lon="6.50268">
        <ele>965</ele>
      </trkpt>
      <trkpt lat="43.95555" lon="6.50297">
        <ele>963</ele>
      </trkpt>
      <trkpt lat="43.95568" lon="6.50318">
        <ele>959</ele>
      </trkpt>
      <trkpt lat="43.95585" lon="6.50347">
        <ele>953</ele>
      </trkpt>
      <trkpt lat="43.95588" lon="6.50352">
        <ele>952</ele>
      </trkpt>
      <trkpt lat="43.956" lon="6.50376">
        <ele>945</ele>
      </trkpt>
      <trkpt lat="43.95598" lon="6.50389">
        <ele>945</ele>
      </trkpt>
      <trkpt lat="43.95589" lon="6.50426">
        <ele>943</ele>
      </trkpt>
      <trkpt lat="43.95588" lon="6.50431">
        <ele>943</ele>
      </trkpt>
      <trkpt lat="43.95586" lon="6.50432">
        <ele>943</ele>
      </trkpt>
      <trkpt lat="43.95585" lon="6.50435">
        <ele>943</ele>
      </trkpt>
      <trkpt lat="43.95583" lon="6.50437">
        <ele>944</ele>
      </trkpt>
      <trkpt lat="43.95576" lon="6.50449">
        <ele>945</ele>
      </trkpt>
      <trkpt lat="43.95575" lon="6.50453">
        <ele>945</ele>
      </trkpt>
      <trkpt lat="43.95572" lon="6.50464">
        <ele>944</ele>
      </trkpt>
      <trkpt lat="43.95572" lon="6.50466">
        <ele>944</ele>
      </trkpt>
      <trkpt lat="43.95574" lon="6.50468">
        <ele>943</ele>
      </trkpt>
      <trkpt lat="43.95571" lon="6.50474">
        <ele>944</ele>
      </trkpt>
      <trkpt lat="43.95567" lon="6.50478">
        <ele>944</ele>
      </trkpt>
      <trkpt lat="43.95565" lon="6.50487">
        <ele>944</ele>
      </trkpt>
      <trkpt lat="43.95563" lon="6.50501">
        <ele>944</ele>
      </trkpt>
      <trkpt lat="43.9556" lon="6.50522">
        <ele>944</ele>
      </trkpt>
      <trkpt lat="43.95556" lon="6.50539">
        <ele>945</ele>
      </trkpt>
      <trkpt lat="43.95554" lon="6.50548">
        <ele>945</ele>
      </trkpt>
      <trkpt lat="43.95561" lon="6.50568">
        <ele>942</ele>
      </trkpt>
      <trkpt lat="43.9557" lon="6.50586">
        <ele>938</ele>
      </trkpt>
      <trkpt lat="43.9557" lon="6.50593">
        <ele>938</ele>
      </trkpt>
      <trkpt lat="43.95571" lon="6.5061">
        <ele>936</ele>
      </trkpt>
      <trkpt lat="43.95572" lon="6.50619">
        <ele>935</ele>
      </trkpt>
      <trkpt lat="43.95571" lon="6.50637">
        <ele>932</ele>
      </trkpt>
      <trkpt lat="43.95563" lon="6.50644">
        <ele>933</ele>
      </trkpt>
      <trkpt lat="43.95554" lon="6.50651">
        <ele>934</ele>
      </trkpt>
      <trkpt lat="43.95545" lon="6.50658">
        <ele>936</ele>
      </trkpt>
      <trkpt lat="43.95544" lon="6.50659">
        <ele>936</ele>
      </trkpt>
      <trkpt lat="43.9554" lon="6.50665">
        <ele>936</ele>
      </trkpt>
      <trkpt lat="43.95535" lon="6.50681">
        <ele>933</ele>
      </trkpt>
      <trkpt lat="43.9553" lon="6.50688">
        <ele>933</ele>
      </trkpt>
      <trkpt lat="43.95524" lon="6.50699">
        <ele>932</ele>
      </trkpt>
      <trkpt lat="43.95527" lon="6.50703">
        <ele>930</ele>
      </trkpt>
      <trkpt lat="43.95526" lon="6.50704">
        <ele>930</ele>
      </trkpt>
      <trkpt lat="43.95522" lon="6.5071">
        <ele>930</ele>
      </trkpt>
      <trkpt lat="43.95517" lon="6.50714">
        <ele>931</ele>
      </trkpt>
      <trkpt lat="43.95509" lon="6.50721">
        <ele>932</ele>
      </trkpt>
      <trkpt lat="43.95501" lon="6.5073">
        <ele>931</ele>
      </trkpt>
      <trkpt lat="43.95491" lon="6.50737">
        <ele>931</ele>
      </trkpt>
      <trkpt lat="43.95484" lon="6.50742">
        <ele>931</ele>
      </trkpt>
      <trkpt lat="43.95479" lon="6.50748">
        <ele>930</ele>
      </trkpt>
      <trkpt lat="43.95478" lon="6.5075">
        <ele>929</ele>
      </trkpt>
      <trkpt lat="43.95478" lon="6.50752">
        <ele>929</ele>
      </trkpt>
      <trkpt lat="43.9547" lon="6.50759">
        <ele>929</ele>
      </trkpt>
      <trkpt lat="43.95459" lon="6.50772">
        <ele>927</ele>
      </trkpt>
      <trkpt lat="43.9545" lon="6.5078">
        <ele>925</ele>
      </trkpt>
      <trkpt lat="43.95442" lon="6.50784">
        <ele>924</ele>
      </trkpt>
      <trkpt lat="43.9543" lon="6.50775">
        <ele>928</ele>
      </trkpt>
      <trkpt lat="43.95414" lon="6.50764">
        <ele>932</ele>
      </trkpt>
      <trkpt lat="43.95405" lon="6.50762">
        <ele>932</ele>
      </trkpt>
      <trkpt lat="43.95397" lon="6.50759">
        <ele>933</ele>
      </trkpt>
      <trkpt lat="43.95374" lon="6.50756">
        <ele>934</ele>
      </trkpt>
      <trkpt lat="43.9537" lon="6.50763">
        <ele>933</ele>
      </trkpt>
      <trkpt lat="43.95376" lon="6.50775">
        <ele>929</ele>
      </trkpt>
      <trkpt lat="43.95379" lon="6.50788">
        <ele>927</ele>
      </trkpt>
      <trkpt lat="43.9538" lon="6.50809">
        <ele>923</ele>
      </trkpt>
      <trkpt lat="43.95379" lon="6.50815">
        <ele>923</ele>
      </trkpt>
      <trkpt lat="43.9537" lon="6.50822">
        <ele>924</ele>
      </trkpt>
      <trkpt lat="43.95365" lon="6.50816">
        <ele>926</ele>
      </trkpt>
      <trkpt lat="43.95366" lon="6.50811">
        <ele>926</ele>
      </trkpt>
      <trkpt lat="43.95367" lon="6.50794">
        <ele>928</ele>
      </trkpt>
      <trkpt lat="43.95367" lon="6.50791">
        <ele>928</ele>
      </trkpt>
      <trkpt lat="43.95357" lon="6.50789">
        <ele>931</ele>
      </trkpt>
      <trkpt lat="43.95349" lon="6.50796">
        <ele>932</ele>
      </trkpt>
      <trkpt lat="43.9534" lon="6.50811">
        <ele>932</ele>
      </trkpt>
      <trkpt lat="43.95335" lon="6.50821">
        <ele>932</ele>
      </trkpt>
      <trkpt lat="43.95326" lon="6.50837">
        <ele>931</ele>
      </trkpt>
      <trkpt lat="43.95322" lon="6.50849">
        <ele>928</ele>
      </trkpt>
      <trkpt lat="43.95314" lon="6.50861">
        <ele>927</ele>
      </trkpt>
      <trkpt lat="43.95304" lon="6.50864">
        <ele>927</ele>
      </trkpt>
      <trkpt lat="43.95297" lon="6.50851">
        <ele>932</ele>
      </trkpt>
      <trkpt lat="43.95302" lon="6.50837">
        <ele>935</ele>
      </trkpt>
      <trkpt lat="43.95313" lon="6.50823">
        <ele>935</ele>
      </trkpt>
      <trkpt lat="43.95314" lon="6.50821">
        <ele>935</ele>
      </trkpt>
      <trkpt lat="43.95317" lon="6.50815">
        <ele>935</ele>
      </trkpt>
      <trkpt lat="43.95316" lon="6.50801">
        <ele>937</ele>
      </trkpt>
      <trkpt lat="43.95313" lon="6.50795">
        <ele>939</ele>
      </trkpt>
      <trkpt lat="43.95307" lon="6.50788">
        <ele>940</ele>
      </trkpt>
      <trkpt lat="43.95298" lon="6.50784">
        <ele>942</ele>
      </trkpt>
      <trkpt lat="43.95296" lon="6.50784">
        <ele>943</ele>
      </trkpt>
      <trkpt lat="43.9529" lon="6.50786">
        <ele>944</ele>
      </trkpt>
      <trkpt lat="43.95273" lon="6.50793">
        <ele>946</ele>
      </trkpt>
      <trkpt lat="43.95263" lon="6.50806">
        <ele>948</ele>
      </trkpt>
      <trkpt lat="43.95258" lon="6.50824">
        <ele>947</ele>
      </trkpt>
      <trkpt lat="43.95257" lon="6.50831">
        <ele>947</ele>
      </trkpt>
      <trkpt lat="43.95255" lon="6.50844">
        <ele>944</ele>
      </trkpt>
      <trkpt lat="43.95247" lon="6.50853">
        <ele>943</ele>
      </trkpt>
      <trkpt lat="43.95239" lon="6.50846">
        <ele>947</ele>
      </trkpt>
      <trkpt lat="43.95238" lon="6.50836">
        <ele>950</ele>
      </trkpt>
      <trkpt lat="43.95242" lon="6.50812">
        <ele>953</ele>
      </trkpt>
      <trkpt lat="43.95244" lon="6.50787">
        <ele>954</ele>
      </trkpt>
      <trkpt lat="43.95248" lon="6.50769">
        <ele>954</ele>
      </trkpt>
      <trkpt lat="43.95251" lon="6.50754">
        <ele>955</ele>
      </trkpt>
      <trkpt lat="43.95257" lon="6.50735">
        <ele>956</ele>
      </trkpt>
      <trkpt lat="43.95261" lon="6.50721">
        <ele>957</ele>
      </trkpt>
      <trkpt lat="43.95269" lon="6.50697">
        <ele>958</ele>
      </trkpt>
      <trkpt lat="43.95266" lon="6.50691">
        <ele>960</ele>
      </trkpt>
      <trkpt lat="43.95256" lon="6.50694">
        <ele>962</ele>
      </trkpt>
      <trkpt lat="43.95254" lon="6.50698">
        <ele>961</ele>
      </trkpt>
      <trkpt lat="43.95244" lon="6.50719">
        <ele>960</ele>
      </trkpt>
      <trkpt lat="43.95237" lon="6.50736">
        <ele>961</ele>
      </trkpt>
      <trkpt lat="43.95224" lon="6.50754">
        <ele>962</ele>
      </trkpt>
      <trkpt lat="43.95214" lon="6.50764">
        <ele>964</ele>
      </trkpt>
      <trkpt lat="43.95199" lon="6.50777">
        <ele>967</ele>
      </trkpt>
      <trkpt lat="43.95187" lon="6.50789">
        <ele>968</ele>
      </trkpt>
      <trkpt lat="43.95175" lon="6.50806">
        <ele>968</ele>
      </trkpt>
      <trkpt lat="43.95162" lon="6.50824">
        <ele>968</ele>
      </trkpt>
      <trkpt lat="43.95152" lon="6.50832">
        <ele>967</ele>
      </trkpt>
      <trkpt lat="43.95137" lon="6.50838">
        <ele>966</ele>
      </trkpt>
      <trkpt lat="43.9512" lon="6.50834">
        <ele>967</ele>
      </trkpt>
      <trkpt lat="43.95102" lon="6.50822">
        <ele>970</ele>
      </trkpt>
      <trkpt lat="43.95098" lon="6.50819">
        <ele>971</ele>
      </trkpt>
      <trkpt lat="43.95094" lon="6.50818">
        <ele>971</ele>
      </trkpt>
      <trkpt lat="43.9509" lon="6.50812">
        <ele>972</ele>
      </trkpt>
      <trkpt lat="43.95079" lon="6.50806">
        <ele>974</ele>
      </trkpt>
      <trkpt lat="43.95066" lon="6.50803">
        <ele>974</ele>
      </trkpt>
      <trkpt lat="43.95051" lon="6.50803">
        <ele>975</ele>
      </trkpt>
      <trkpt lat="43.95039" lon="6.50791">
        <ele>978</ele>
      </trkpt>
      <trkpt lat="43.95026" lon="6.50782">
        <ele>981</ele>
      </trkpt>
      <trkpt lat="43.95011" lon="6.50781">
        <ele>982</ele>
      </trkpt>
      <trkpt lat="43.94998" lon="6.50781">
        <ele>984</ele>
      </trkpt>
      <trkpt lat="43.94994" lon="6.50777">
        <ele>985</ele>
      </trkpt>
      <trkpt lat="43.94996" lon="6.50764">
        <ele>988</ele>
      </trkpt>
      <trkpt lat="43.94997" lon="6.50763">
        <ele>988</ele>
      </trkpt>
      <trkpt lat="43.95013" lon="6.50762">
        <ele>987</ele>
      </trkpt>
      <trkpt lat="43.95029" lon="6.50761">
        <ele>986</ele>
      </trkpt>
      <trkpt lat="43.95044" lon="6.50755">
        <ele>987</ele>
      </trkpt>
      <trkpt lat="43.95059" lon="6.50752">
        <ele>987</ele>
      </trkpt>
      <trkpt lat="43.95073" lon="6.5075">
        <ele>987</ele>
      </trkpt>
      <trkpt lat="43.95086" lon="6.50744">
        <ele>987</ele>
      </trkpt>
      <trkpt lat="43.95096" lon="6.50732">
        <ele>989</ele>
      </trkpt>
      <trkpt lat="43.95108" lon="6.50712">
        <ele>991</ele>
      </trkpt>
      <trkpt lat="43.95119" lon="6.50696">
        <ele>992</ele>
      </trkpt>
      <trkpt lat="43.95133" lon="6.50684">
        <ele>993</ele>
      </trkpt>
      <trkpt lat="43.95153" lon="6.50671">
        <ele>992</ele>
      </trkpt>
      <trkpt lat="43.9517" lon="6.5066">
        <ele>991</ele>
      </trkpt>
      <trkpt lat="43.95178" lon="6.5065">
        <ele>991</ele>
      </trkpt>
      <trkpt lat="43.95173" lon="6.50636">
        <ele>995</ele>
      </trkpt>
      <trkpt lat="43.9516" lon="6.50643">
        <ele>996</ele>
      </trkpt>
      <trkpt lat="43.95142" lon="6.50665">
        <ele>995</ele>
      </trkpt>
      <trkpt lat="43.95121" lon="6.50672">
        <ele>997</ele>
      </trkpt>
      <trkpt lat="43.95105" lon="6.50675">
        <ele>999</ele>
      </trkpt>
      <trkpt lat="43.95088" lon="6.50682">
        <ele>1001</ele>
      </trkpt>
      <trkpt lat="43.95071" lon="6.50689">
        <ele>1002</ele>
      </trkpt>
      <trkpt lat="43.95051" lon="6.50695">
        <ele>1003</ele>
      </trkpt>
      <trkpt lat="43.95036" lon="6.507">
        <ele>1004</ele>
      </trkpt>
      <trkpt lat="43.95018" lon="6.50698">
        <ele>1007</ele>
      </trkpt>
      <trkpt lat="43.95001" lon="6.50694">
        <ele>1010</ele>
      </trkpt>
      <trkpt lat="43.94988" lon="6.50701">
        <ele>1009</ele>
      </trkpt>
      <trkpt lat="43.9497" lon="6.5071">
        <ele>1007</ele>
      </trkpt>
      <trkpt lat="43.9495" lon="6.50722">
        <ele>1007</ele>
      </trkpt>
      <trkpt lat="43.94931" lon="6.5073">
        <ele>1008</ele>
      </trkpt>
      <trkpt lat="43.94914" lon="6.50738">
        <ele>1010</ele>
      </trkpt>
      <trkpt lat="43.94903" lon="6.50746">
        <ele>1011</ele>
      </trkpt>
      <trkpt lat="43.94897" lon="6.50747">
        <ele>1012</ele>
      </trkpt>
      <trkpt lat="43.94892" lon="6.50735">
        <ele>1017</ele>
      </trkpt>
      <trkpt lat="43.94895" lon="6.50723">
        <ele>1019</ele>
      </trkpt>
      <trkpt lat="43.9491" lon="6.50712">
        <ele>1018</ele>
      </trkpt>
      <trkpt lat="43.94932" lon="6.50699">
        <ele>1017</ele>
      </trkpt>
      <trkpt lat="43.94943" lon="6.50685">
        <ele>1019</ele>
      </trkpt>
      <trkpt lat="43.94956" lon="6.50673">
        <ele>1022</ele>
      </trkpt>
      <trkpt lat="43.94967" lon="6.50667">
        <ele>1022</ele>
      </trkpt>
      <trkpt lat="43.94975" lon="6.50654">
        <ele>1025</ele>
      </trkpt>
      <trkpt lat="43.9497" lon="6.50643">
        <ele>1030</ele>
      </trkpt>
      <trkpt lat="43.9496" lon="6.50642">
        <ele>1031</ele>
      </trkpt>
      <trkpt lat="43.94946" lon="6.50656">
        <ele>1028</ele>
      </trkpt>
      <trkpt lat="43.94932" lon="6.5066">
        <ele>1028</ele>
      </trkpt>
      <trkpt lat="43.94914" lon="6.50659">
        <ele>1032</ele>
      </trkpt>
      <trkpt lat="43.94896" lon="6.50664">
        <ele>1034</ele>
      </trkpt>
      <trkpt lat="43.94881" lon="6.50676">
        <ele>1035</ele>
      </trkpt>
      <trkpt lat="43.94859" lon="6.50688">
        <ele>1039</ele>
      </trkpt>
      <trkpt lat="43.94838" lon="6.50698">
        <ele>1044</ele>
      </trkpt>
      <trkpt lat="43.94823" lon="6.50712">
        <ele>1046</ele>
      </trkpt>
      <trkpt lat="43.94809" lon="6.50724">
        <ele>1048</ele>
      </trkpt>
      <trkpt lat="43.94796" lon="6.50736">
        <ele>1049</ele>
      </trkpt>
      <trkpt lat="43.94787" lon="6.50743">
        <ele>1048</ele>
      </trkpt>
      <trkpt lat="43.94775" lon="6.50757">
        <ele>1045</ele>
      </trkpt>
      <trkpt lat="43.94766" lon="6.50762">
        <ele>1044</ele>
      </trkpt>
      <trkpt lat="43.94745" lon="6.50759">
        <ele>1047</ele>
      </trkpt>
      <trkpt lat="43.94727" lon="6.5075">
        <ele>1049</ele>
      </trkpt>
      <trkpt lat="43.94714" lon="6.5074">
        <ele>1052</ele>
      </trkpt>
      <trkpt lat="43.94707" lon="6.50736">
        <ele>1053</ele>
      </trkpt>
      <trkpt lat="43.94694" lon="6.50728">
        <ele>1055</ele>
      </trkpt>
      <trkpt lat="43.94683" lon="6.50723">
        <ele>1055</ele>
      </trkpt>
      <trkpt lat="43.94672" lon="6.50719">
        <ele>1055</ele>
      </trkpt>
      <trkpt lat="43.9466" lon="6.50714">
        <ele>1056</ele>
      </trkpt>
      <trkpt lat="43.94659" lon="6.50713">
        <ele>1056</ele>
      </trkpt>
      <trkpt lat="43.94652" lon="6.50711">
        <ele>1056</ele>
      </trkpt>
      <trkpt lat="43.94638" lon="6.50707">
        <ele>1055</ele>
      </trkpt>
      <trkpt lat="43.94623" lon="6.50705">
        <ele>1054</ele>
      </trkpt>
      <trkpt lat="43.94605" lon="6.50701">
        <ele>1053</ele>
      </trkpt>
      <trkpt lat="43.94581" lon="6.50698">
        <ele>1052</ele>
      </trkpt>
      <trkpt lat="43.94561" lon="6.5069">
        <ele>1053</ele>
      </trkpt>
      <trkpt lat="43.94546" lon="6.50677">
        <ele>1056</ele>
      </trkpt>
      <trkpt lat="43.94519" lon="6.50657">
        <ele>1059</ele>
      </trkpt>
      <trkpt lat="43.94498" lon="6.50643">
        <ele>1059</ele>
      </trkpt>
      <trkpt lat="43.94482" lon="6.50628">
        <ele>1061</ele>
      </trkpt>
      <trkpt lat="43.94466" lon="6.50612">
        <ele>1062</ele>
      </trkpt>
      <trkpt lat="43.94449" lon="6.50598">
        <ele>1062</ele>
      </trkpt>
      <trkpt lat="43.9443" lon="6.50583">
        <ele>1062</ele>
      </trkpt>
      <trkpt lat="43.94409" lon="6.50558">
        <ele>1066</ele>
      </trkpt>
      <trkpt lat="43.94394" lon="6.50536">
        <ele>1070</ele>
      </trkpt>
      <trkpt lat="43.94374" lon="6.5052">
        <ele>1071</ele>
      </trkpt>
      <trkpt lat="43.94356" lon="6.5051">
        <ele>1071</ele>
      </trkpt>
      <trkpt lat="43.94339" lon="6.505">
        <ele>1072</ele>
      </trkpt>
      <trkpt lat="43.94324" lon="6.50491">
        <ele>1073</ele>
      </trkpt>
      <trkpt lat="43.94303" lon="6.50478">
        <ele>1075</ele>
      </trkpt>
      <trkpt lat="43.94284" lon="6.50471">
        <ele>1076</ele>
      </trkpt>
      <trkpt lat="43.94269" lon="6.50469">
        <ele>1076</ele>
      </trkpt>
      <trkpt lat="43.94248" lon="6.50469">
        <ele>1076</ele>
      </trkpt>
      <trkpt lat="43.94229" lon="6.50469">
        <ele>1076</ele>
      </trkpt>
      <trkpt lat="43.94211" lon="6.50468">
        <ele>1076</ele>
      </trkpt>
      <trkpt lat="43.94185" lon="6.50457">
        <ele>1078</ele>
      </trkpt>
      <trkpt lat="43.9416" lon="6.50446">
        <ele>1081</ele>
      </trkpt>
      <trkpt lat="43.94137" lon="6.50438">
        <ele>1082</ele>
      </trkpt>
      <trkpt lat="43.94117" lon="6.50428">
        <ele>1084</ele>
      </trkpt>
      <trkpt lat="43.94102" lon="6.50415">
        <ele>1088</ele>
      </trkpt>
      <trkpt lat="43.94089" lon="6.50402">
        <ele>1090</ele>
      </trkpt>
      <trkpt lat="43.94071" lon="6.50387">
        <ele>1091</ele>
      </trkpt>
      <trkpt lat="43.94056" lon="6.50381">
        <ele>1090</ele>
      </trkpt>
      <trkpt lat="43.94033" lon="6.50369">
        <ele>1089</ele>
      </trkpt>
      <trkpt lat="43.94019" lon="6.50359">
        <ele>1089</ele>
      </trkpt>
      <trkpt lat="43.93991" lon="6.5035">
        <ele>1088</ele>
      </trkpt>
      <trkpt lat="43.93975" lon="6.50348">
        <ele>1089</ele>
      </trkpt>
      <trkpt lat="43.93959" lon="6.50338">
        <ele>1091</ele>
      </trkpt>
      <trkpt lat="43.93943" lon="6.50324">
        <ele>1096</ele>
      </trkpt>
      <trkpt lat="43.93941" lon="6.50318">
        <ele>1097</ele>
      </trkpt>
      <trkpt lat="43.93948" lon="6.50302">
        <ele>1099</ele>
      </trkpt>
      <trkpt lat="43.93954" lon="6.50304">
        <ele>1098</ele>
      </trkpt>
      <trkpt lat="43.9397" lon="6.50318">
        <ele>1095</ele>
      </trkpt>
      <trkpt lat="43.93984" lon="6.50318">
        <ele>1094</ele>
      </trkpt>
      <trkpt lat="43.93998" lon="6.50313">
        <ele>1095</ele>
      </trkpt>
      <trkpt lat="43.94017" lon="6.50299">
        <ele>1099</ele>
      </trkpt>
      <trkpt lat="43.94031" lon="6.50278">
        <ele>1103</ele>
      </trkpt>
      <trkpt lat="43.94044" lon="6.50255">
        <ele>1105</ele>
      </trkpt>
      <trkpt lat="43.9405" lon="6.50232">
        <ele>1107</ele>
      </trkpt>
      <trkpt lat="43.94043" lon="6.50217">
        <ele>1109</ele>
      </trkpt>
      <trkpt lat="43.94029" lon="6.50217">
        <ele>1112</ele>
      </trkpt>
      <trkpt lat="43.94011" lon="6.50229">
        <ele>1113</ele>
      </trkpt>
      <trkpt lat="43.93996" lon="6.50238">
        <ele>1113</ele>
      </trkpt>
      <trkpt lat="43.93982" lon="6.50241">
        <ele>1112</ele>
      </trkpt>
      <trkpt lat="43.93977" lon="6.50239">
        <ele>1113</ele>
      </trkpt>
      <trkpt lat="43.93977" lon="6.50225">
        <ele>1116</ele>
      </trkpt>
      <trkpt lat="43.93982" lon="6.50218">
        <ele>1117</ele>
      </trkpt>
      <trkpt lat="43.93998" lon="6.50208">
        <ele>1118</ele>
      </trkpt>
      <trkpt lat="43.94005" lon="6.50193">
        <ele>1120</ele>
      </trkpt>
      <trkpt lat="43.94015" lon="6.50175">
        <ele>1121</ele>
      </trkpt>
      <trkpt lat="43.94028" lon="6.50154">
        <ele>1120</ele>
      </trkpt>
      <trkpt lat="43.94033" lon="6.50139">
        <ele>1121</ele>
      </trkpt>
      <trkpt lat="43.94025" lon="6.50129">
        <ele>1124</ele>
      </trkpt>
      <trkpt lat="43.94016" lon="6.5014">
        <ele>1125</ele>
      </trkpt>
      <trkpt lat="43.94011" lon="6.50152">
        <ele>1125</ele>
      </trkpt>
      <trkpt lat="43.93995" lon="6.50167">
        <ele>1126</ele>
      </trkpt>
      <trkpt lat="43.93981" lon="6.50169">
        <ele>1127</ele>
      </trkpt>
      <trkpt lat="43.93967" lon="6.50164">
        <ele>1130</ele>
      </trkpt>
      <trkpt lat="43.93952" lon="6.50166">
        <ele>1130</ele>
      </trkpt>
      <trkpt lat="43.93941" lon="6.50164">
        <ele>1130</ele>
      </trkpt>
      <trkpt lat="43.9394" lon="6.50151">
        <ele>1133</ele>
      </trkpt>
      <trkpt lat="43.93948" lon="6.50146">
        <ele>1134</ele>
      </trkpt>
      <trkpt lat="43.93974" lon="6.50147">
        <ele>1132</ele>
      </trkpt>
      <trkpt lat="43.93991" lon="6.50133">
        <ele>1132</ele>
      </trkpt>
      <trkpt lat="43.94001" lon="6.50111">
        <ele>1133</ele>
      </trkpt>
      <trkpt lat="43.94009" lon="6.50091">
        <ele>1134</ele>
      </trkpt>
      <trkpt lat="43.94016" lon="6.5007">
        <ele>1135</ele>
      </trkpt>
      <trkpt lat="43.94022" lon="6.50046">
        <ele>1136</ele>
      </trkpt>
      <trkpt lat="43.94022" lon="6.50024">
        <ele>1139</ele>
      </trkpt>
      <trkpt lat="43.94026" lon="6.49995">
        <ele>1142</ele>
      </trkpt>
      <trkpt lat="43.94029" lon="6.49979">
        <ele>1143</ele>
      </trkpt>
      <trkpt lat="43.94035" lon="6.49963">
        <ele>1143</ele>
      </trkpt>
      <trkpt lat="43.94042" lon="6.49943">
        <ele>1143</ele>
      </trkpt>
      <trkpt lat="43.94046" lon="6.4992">
        <ele>1143</ele>
      </trkpt>
      <trkpt lat="43.94037" lon="6.49911">
        <ele>1148</ele>
      </trkpt>
      <trkpt lat="43.94027" lon="6.4992">
        <ele>1150</ele>
      </trkpt>
      <trkpt lat="43.94024" lon="6.4993">
        <ele>1150</ele>
      </trkpt>
      <trkpt lat="43.9401" lon="6.49957">
        <ele>1151</ele>
      </trkpt>
      <trkpt lat="43.93994" lon="6.49971">
        <ele>1154</ele>
      </trkpt>
      <trkpt lat="43.93977" lon="6.49974">
        <ele>1158</ele>
      </trkpt>
      <trkpt lat="43.93959" lon="6.49972">
        <ele>1162</ele>
      </trkpt>
      <trkpt lat="43.93943" lon="6.49967">
        <ele>1165</ele>
      </trkpt>
      <trkpt lat="43.93923" lon="6.49951">
        <ele>1169</ele>
      </trkpt>
      <trkpt lat="43.93902" lon="6.49933">
        <ele>1171</ele>
      </trkpt>
      <trkpt lat="43.93884" lon="6.49918">
        <ele>1173</ele>
      </trkpt>
      <trkpt lat="43.93874" lon="6.49901">
        <ele>1174</ele>
      </trkpt>
      <trkpt lat="43.93869" lon="6.49877">
        <ele>1174</ele>
      </trkpt>
      <trkpt lat="43.93873" lon="6.49855">
        <ele>1174</ele>
      </trkpt>
      <trkpt lat="43.93882" lon="6.49834">
        <ele>1174</ele>
      </trkpt>
      <trkpt lat="43.93889" lon="6.49809">
        <ele>1174</ele>
      </trkpt>
      <trkpt lat="43.93888" lon="6.49785">
        <ele>1174</ele>
      </trkpt>
      <trkpt lat="43.93878" lon="6.49773">
        <ele>1175</ele>
      </trkpt>
      <trkpt lat="43.93861" lon="6.49767">
        <ele>1178</ele>
      </trkpt>
      <trkpt lat="43.93841" lon="6.49773">
        <ele>1182</ele>
      </trkpt>
      <trkpt lat="43.93824" lon="6.49781">
        <ele>1185</ele>
      </trkpt>
      <trkpt lat="43.93808" lon="6.49786">
        <ele>1187</ele>
      </trkpt>
      <trkpt lat="43.93787" lon="6.49784">
        <ele>1191</ele>
      </trkpt>
      <trkpt lat="43.93764" lon="6.49775">
        <ele>1193</ele>
      </trkpt>
      <trkpt lat="43.93755" lon="6.4978">
        <ele>1196</ele>
      </trkpt>
      <trkpt lat="43.93756" lon="6.49797">
        <ele>1196</ele>
      </trkpt>
      <trkpt lat="43.93769" lon="6.49801">
        <ele>1193</ele>
      </trkpt>
      <trkpt lat="43.93772" lon="6.49801">
        <ele>1193</ele>
      </trkpt>
      <trkpt lat="43.93793" lon="6.49808">
        <ele>1189</ele>
      </trkpt>
      <trkpt lat="43.93798" lon="6.49822">
        <ele>1186</ele>
      </trkpt>
      <trkpt lat="43.93793" lon="6.49846">
        <ele>1185</ele>
      </trkpt>
      <trkpt lat="43.9378" lon="6.49862">
        <ele>1187</ele>
      </trkpt>
      <trkpt lat="43.93759" lon="6.49876">
        <ele>1190</ele>
      </trkpt>
      <trkpt lat="43.93737" lon="6.49888">
        <ele>1193</ele>
      </trkpt>
      <trkpt lat="43.93725" lon="6.49893">
        <ele>1194</ele>
      </trkpt>
      <trkpt lat="43.93708" lon="6.49906">
        <ele>1196</ele>
      </trkpt>
      <trkpt lat="43.93694" lon="6.49919">
        <ele>1196</ele>
      </trkpt>
      <trkpt lat="43.93675" lon="6.49932">
        <ele>1197</ele>
      </trkpt>
      <trkpt lat="43.93658" lon="6.4994">
        <ele>1198</ele>
      </trkpt>
      <trkpt lat="43.93643" lon="6.49946">
        <ele>1200</ele>
      </trkpt>
      <trkpt lat="43.9363" lon="6.49959">
        <ele>1201</ele>
      </trkpt>
      <trkpt lat="43.93614" lon="6.49977">
        <ele>1201</ele>
      </trkpt>
      <trkpt lat="43.93601" lon="6.49991">
        <ele>1202</ele>
      </trkpt>
      <trkpt lat="43.93599" lon="6.49991">
        <ele>1202</ele>
      </trkpt>
      <trkpt lat="43.9359" lon="6.4998">
        <ele>1206</ele>
      </trkpt>
      <trkpt lat="43.93595" lon="6.49966">
        <ele>1207</ele>
      </trkpt>
      <trkpt lat="43.93599" lon="6.49962">
        <ele>1207</ele>
      </trkpt>
      <trkpt lat="43.93614" lon="6.49946">
        <ele>1206</ele>
      </trkpt>
      <trkpt lat="43.9363" lon="6.49917">
        <ele>1208</ele>
      </trkpt>
      <trkpt lat="43.93636" lon="6.49906">
        <ele>1208</ele>
      </trkpt>
      <trkpt lat="43.9365" lon="6.49882">
        <ele>1208</ele>
      </trkpt>
      <trkpt lat="43.93659" lon="6.49871">
        <ele>1208</ele>
      </trkpt>
      <trkpt lat="43.93663" lon="6.4986">
        <ele>1208</ele>
      </trkpt>
      <trkpt lat="43.9366" lon="6.49842">
        <ele>1210</ele>
      </trkpt>
      <trkpt lat="43.93657" lon="6.49839">
        <ele>1211</ele>
      </trkpt>
      <trkpt lat="43.93647" lon="6.49843">
        <ele>1213</ele>
      </trkpt>
      <trkpt lat="43.93646" lon="6.49848">
        <ele>1212</ele>
      </trkpt>
      <trkpt lat="43.9364" lon="6.49868">
        <ele>1212</ele>
      </trkpt>
      <trkpt lat="43.93629" lon="6.49879">
        <ele>1213</ele>
      </trkpt>
      <trkpt lat="43.93613" lon="6.49888">
        <ele>1215</ele>
      </trkpt>
      <trkpt lat="43.936" lon="6.49894">
        <ele>1218</ele>
      </trkpt>
      <trkpt lat="43.93588" lon="6.49901">
        <ele>1220</ele>
      </trkpt>
      <trkpt lat="43.93573" lon="6.49914">
        <ele>1221</ele>
      </trkpt>
      <trkpt lat="43.93561" lon="6.49927">
        <ele>1221</ele>
      </trkpt>
      <trkpt lat="43.9355" lon="6.49937">
        <ele>1222</ele>
      </trkpt>
      <trkpt lat="43.93542" lon="6.49947">
        <ele>1222</ele>
      </trkpt>
      <trkpt lat="43.9353" lon="6.49964">
        <ele>1222</ele>
      </trkpt>
      <trkpt lat="43.93516" lon="6.49974">
        <ele>1224</ele>
      </trkpt>
      <trkpt lat="43.93499" lon="6.49984">
        <ele>1227</ele>
      </trkpt>
      <trkpt lat="43.93483" lon="6.49997">
        <ele>1229</ele>
      </trkpt>
      <trkpt lat="43.93465" lon="6.5001">
        <ele>1232</ele>
      </trkpt>
      <trkpt lat="43.93453" lon="6.50018">
        <ele>1235</ele>
      </trkpt>
      <trkpt lat="43.93443" lon="6.50031">
        <ele>1238</ele>
      </trkpt>
      <trkpt lat="43.93437" lon="6.50041">
        <ele>1240</ele>
      </trkpt>
      <trkpt lat="43.93433" lon="6.50052">
        <ele>1242</ele>
      </trkpt>
      <trkpt lat="43.93421" lon="6.5005">
        <ele>1244</ele>
      </trkpt>
      <trkpt lat="43.93419" lon="6.50039">
        <ele>1244</ele>
      </trkpt>
      <trkpt lat="43.93426" lon="6.50019">
        <ele>1241</ele>
      </trkpt>
      <trkpt lat="43.93433" lon="6.50001">
        <ele>1240</ele>
      </trkpt>
      <trkpt lat="43.93437" lon="6.49987">
        <ele>1240</ele>
      </trkpt>
      <trkpt lat="43.93446" lon="6.49967">
        <ele>1240</ele>
      </trkpt>
      <trkpt lat="43.93457" lon="6.49956">
        <ele>1239</ele>
      </trkpt>
      <trkpt lat="43.93463" lon="6.49946">
        <ele>1239</ele>
      </trkpt>
      <trkpt lat="43.93463" lon="6.49927">
        <ele>1240</ele>
      </trkpt>
      <trkpt lat="43.93457" lon="6.4991">
        <ele>1243</ele>
      </trkpt>
      <trkpt lat="43.93447" lon="6.49898">
        <ele>1245</ele>
      </trkpt>
      <trkpt lat="43.93438" lon="6.49895">
        <ele>1247</ele>
      </trkpt>
      <trkpt lat="43.93423" lon="6.49898">
        <ele>1249</ele>
      </trkpt>
      <trkpt lat="43.9341" lon="6.49911">
        <ele>1251</ele>
      </trkpt>
      <trkpt lat="43.934" lon="6.49927">
        <ele>1252</ele>
      </trkpt>
      <trkpt lat="43.93389" lon="6.49948">
        <ele>1254</ele>
      </trkpt>
      <trkpt lat="43.93384" lon="6.49967">
        <ele>1255</ele>
      </trkpt>
      <trkpt lat="43.9338" lon="6.49989">
        <ele>1255</ele>
      </trkpt>
      <trkpt lat="43.93374" lon="6.50011">
        <ele>1256</ele>
      </trkpt>
      <trkpt lat="43.93368" lon="6.5003">
        <ele>1258</ele>
      </trkpt>
      <trkpt lat="43.93361" lon="6.50054">
        <ele>1261</ele>
      </trkpt>
      <trkpt lat="43.93351" lon="6.50082">
        <ele>1265</ele>
      </trkpt>
      <trkpt lat="43.93345" lon="6.50105">
        <ele>1269</ele>
      </trkpt>
      <trkpt lat="43.93346" lon="6.50123">
        <ele>1270</ele>
      </trkpt>
      <trkpt lat="43.9335" lon="6.50138">
        <ele>1271</ele>
      </trkpt>
      <trkpt lat="43.93359" lon="6.50158">
        <ele>1273</ele>
      </trkpt>
      <trkpt lat="43.93372" lon="6.50168">
        <ele>1272</ele>
      </trkpt>
      <trkpt lat="43.93376" lon="6.50178">
        <ele>1272</ele>
      </trkpt>
      <trkpt lat="43.93367" lon="6.50191">
        <ele>1277</ele>
      </trkpt>
      <trkpt lat="43.93361" lon="6.50188">
        <ele>1277</ele>
      </trkpt>
      <trkpt lat="43.93343" lon="6.50173">
        <ele>1278</ele>
      </trkpt>
      <trkpt lat="43.9333" lon="6.50166">
        <ele>1280</ele>
      </trkpt>
      <trkpt lat="43.93315" lon="6.50169">
        <ele>1283</ele>
      </trkpt>
      <trkpt lat="43.93299" lon="6.50175">
        <ele>1286</ele>
      </trkpt>
      <trkpt lat="43.93284" lon="6.50167">
        <ele>1288</ele>
      </trkpt>
      <trkpt lat="43.93275" lon="6.50149">
        <ele>1288</ele>
      </trkpt>
      <trkpt lat="43.93271" lon="6.50125">
        <ele>1287</ele>
      </trkpt>
      <trkpt lat="43.93275" lon="6.50102">
        <ele>1286</ele>
      </trkpt>
      <trkpt lat="43.9328" lon="6.50079">
        <ele>1284</ele>
      </trkpt>
      <trkpt lat="43.93285" lon="6.50057">
        <ele>1283</ele>
      </trkpt>
      <trkpt lat="43.93282" lon="6.50038">
        <ele>1284</ele>
      </trkpt>
      <trkpt lat="43.93272" lon="6.50014">
        <ele>1287</ele>
      </trkpt>
      <trkpt lat="43.9326" lon="6.50003">
        <ele>1291</ele>
      </trkpt>
      <trkpt lat="43.93247" lon="6.49988">
        <ele>1293</ele>
      </trkpt>
      <trkpt lat="43.93236" lon="6.49966">
        <ele>1293</ele>
      </trkpt>
      <trkpt lat="43.93228" lon="6.49951">
        <ele>1293</ele>
      </trkpt>
      <trkpt lat="43.93216" lon="6.49931">
        <ele>1293</ele>
      </trkpt>
      <trkpt lat="43.93206" lon="6.49938">
        <ele>1295</ele>
      </trkpt>
      <trkpt lat="43.93208" lon="6.49953">
        <ele>1296</ele>
      </trkpt>
      <trkpt lat="43.9321" lon="6.49956">
        <ele>1296</ele>
      </trkpt>
      <trkpt lat="43.93221" lon="6.49979">
        <ele>1296</ele>
      </trkpt>
      <trkpt lat="43.9322" lon="6.50007">
        <ele>1297</ele>
      </trkpt>
      <trkpt lat="43.93213" lon="6.50028">
        <ele>1299</ele>
      </trkpt>
      <trkpt lat="43.93209" lon="6.50051">
        <ele>1301</ele>
      </trkpt>
      <trkpt lat="43.93203" lon="6.50077">
        <ele>1303</ele>
      </trkpt>
      <trkpt lat="43.93198" lon="6.50098">
        <ele>1305</ele>
      </trkpt>
      <trkpt lat="43.93193" lon="6.50124">
        <ele>1307</ele>
      </trkpt>
      <trkpt lat="43.93196" lon="6.50145">
        <ele>1307</ele>
      </trkpt>
      <trkpt lat="43.93198" lon="6.50162">
        <ele>1307</ele>
      </trkpt>
      <trkpt lat="43.93197" lon="6.50167">
        <ele>1308</ele>
      </trkpt>
      <trkpt lat="43.93191" lon="6.50171">
        <ele>1309</ele>
      </trkpt>
      <trkpt lat="43.93183" lon="6.5016">
        <ele>1310</ele>
      </trkpt>
      <trkpt lat="43.9318" lon="6.50139">
        <ele>1310</ele>
      </trkpt>
      <trkpt lat="43.93176" lon="6.50121">
        <ele>1309</ele>
      </trkpt>
      <trkpt lat="43.93166" lon="6.50114">
        <ele>1310</ele>
      </trkpt>
      <trkpt lat="43.93157" lon="6.50122">
        <ele>1312</ele>
      </trkpt>
      <trkpt lat="43.9315" lon="6.50136">
        <ele>1314</ele>
      </trkpt>
      <trkpt lat="43.9314" lon="6.50153">
        <ele>1315</ele>
      </trkpt>
      <trkpt lat="43.93132" lon="6.50166">
        <ele>1317</ele>
      </trkpt>
      <trkpt lat="43.93126" lon="6.50178">
        <ele>1319</ele>
      </trkpt>
      <trkpt lat="43.93121" lon="6.50187">
        <ele>1320</ele>
      </trkpt>
      <trkpt lat="43.93116" lon="6.50194">
        <ele>1321</ele>
      </trkpt>
      <trkpt lat="43.93102" lon="6.50215">
        <ele>1324</ele>
      </trkpt>
      <trkpt lat="43.9309" lon="6.50241">
        <ele>1322</ele>
      </trkpt>
      <trkpt lat="43.93082" lon="6.50266">
        <ele>1321</ele>
      </trkpt>
      <trkpt lat="43.93077" lon="6.50285">
        <ele>1322</ele>
      </trkpt>
      <trkpt lat="43.93076" lon="6.50303">
        <ele>1324</ele>
      </trkpt>
      <trkpt lat="43.93075" lon="6.50328">
        <ele>1328</ele>
      </trkpt>
      <trkpt lat="43.93068" lon="6.50354">
        <ele>1330</ele>
      </trkpt>
      <trkpt lat="43.93057" lon="6.50377">
        <ele>1333</ele>
      </trkpt>
      <trkpt lat="43.93039" lon="6.504">
        <ele>1332</ele>
      </trkpt>
      <trkpt lat="43.93017" lon="6.5043">
        <ele>1331</ele>
      </trkpt>
      <trkpt lat="43.93008" lon="6.50442">
        <ele>1331</ele>
      </trkpt>
      <trkpt lat="43.92968" lon="6.5048">
        <ele>1325</ele>
      </trkpt>
      <trkpt lat="43.92927" lon="6.50515">
        <ele>1323</ele>
      </trkpt>
      <trkpt lat="43.92922" lon="6.50519">
        <ele>1323</ele>
      </trkpt>
      <trkpt lat="43.92887" lon="6.50533">
        <ele>1319</ele>
      </trkpt>
      <trkpt lat="43.92883" lon="6.50535">
        <ele>1319</ele>
      </trkpt>
      <trkpt lat="43.92869" lon="6.50544">
        <ele>1318</ele>
      </trkpt>
      <trkpt lat="43.92833" lon="6.50563">
        <ele>1314</ele>
      </trkpt>
      <trkpt lat="43.92815" lon="6.5058">
        <ele>1312</ele>
      </trkpt>
      <trkpt lat="43.92791" lon="6.50601">
        <ele>1310</ele>
      </trkpt>
      <trkpt lat="43.92764" lon="6.50639">
        <ele>1310</ele>
      </trkpt>
      <trkpt lat="43.92738" lon="6.50661">
        <ele>1306</ele>
      </trkpt>
      <trkpt lat="43.9269" lon="6.50685">
        <ele>1299</ele>
      </trkpt>
      <trkpt lat="43.92682" lon="6.5069">
        <ele>1297</ele>
      </trkpt>
      <trkpt lat="43.92663" lon="6.50713">
        <ele>1294</ele>
      </trkpt>
      <trkpt lat="43.92659" lon="6.50734">
        <ele>1293</ele>
      </trkpt>
      <trkpt lat="43.92656" lon="6.50767">
        <ele>1292</ele>
      </trkpt>
      <trkpt lat="43.92647" lon="6.50806">
        <ele>1293</ele>
      </trkpt>
      <trkpt lat="43.92626" lon="6.50838">
        <ele>1294</ele>
      </trkpt>
      <trkpt lat="43.92599" lon="6.50852">
        <ele>1294</ele>
      </trkpt>
      <trkpt lat="43.92585" lon="6.50852">
        <ele>1293</ele>
      </trkpt>
      <trkpt lat="43.9256" lon="6.50857">
        <ele>1292</ele>
      </trkpt>
      <trkpt lat="43.92536" lon="6.50869">
        <ele>1291</ele>
      </trkpt>
      <trkpt lat="43.92527" lon="6.50877">
        <ele>1291</ele>
      </trkpt>
      <trkpt lat="43.92517" lon="6.50887">
        <ele>1292</ele>
      </trkpt>
      <trkpt lat="43.92497" lon="6.50893">
        <ele>1291</ele>
      </trkpt>
      <trkpt lat="43.92486" lon="6.50893">
        <ele>1289</ele>
      </trkpt>
      <trkpt lat="43.92463" lon="6.50899">
        <ele>1287</ele>
      </trkpt>
      <trkpt lat="43.92423" lon="6.50924">
        <ele>1285</ele>
      </trkpt>
      <trkpt lat="43.92377" lon="6.50945">
        <ele>1284</ele>
      </trkpt>
      <trkpt lat="43.92346" lon="6.50956">
        <ele>1283</ele>
      </trkpt>
      <trkpt lat="43.92291" lon="6.50967">
        <ele>1282</ele>
      </trkpt>
      <trkpt lat="43.92263" lon="6.50976">
        <ele>1282</ele>
      </trkpt>
      <trkpt lat="43.92246" lon="6.50988">
        <ele>1282</ele>
      </trkpt>
      <trkpt lat="43.9223" lon="6.51">
        <ele>1280</ele>
      </trkpt>
      <trkpt lat="43.92217" lon="6.51003">
        <ele>1279</ele>
      </trkpt>
      <trkpt lat="43.92201" lon="6.51006">
        <ele>1277</ele>
      </trkpt>
      <trkpt lat="43.9218" lon="6.51005">
        <ele>1275</ele>
      </trkpt>
      <trkpt lat="43.92159" lon="6.51008">
        <ele>1271</ele>
      </trkpt>
      <trkpt lat="43.92154" lon="6.51009">
        <ele>1270</ele>
      </trkpt>
      <trkpt lat="43.92139" lon="6.51008">
        <ele>1268</ele>
      </trkpt>
      <trkpt lat="43.92123" lon="6.51001">
        <ele>1268</ele>
      </trkpt>
      <trkpt lat="43.92102" lon="6.50984">
        <ele>1269</ele>
      </trkpt>
      <trkpt lat="43.92071" lon="6.50967">
        <ele>1268</ele>
      </trkpt>
      <trkpt lat="43.92036" lon="6.50945">
        <ele>1266</ele>
      </trkpt>
      <trkpt lat="43.92024" lon="6.50937">
        <ele>1267</ele>
      </trkpt>
      <trkpt lat="43.91993" lon="6.50932">
        <ele>1267</ele>
      </trkpt>
      <trkpt lat="43.91989" lon="6.50933">
        <ele>1267</ele>
      </trkpt>
      <trkpt lat="43.91974" lon="6.50932">
        <ele>1268</ele>
      </trkpt>
      <trkpt lat="43.91961" lon="6.50917">
        <ele>1270</ele>
      </trkpt>
      <trkpt lat="43.91943" lon="6.50899">
        <ele>1271</ele>
      </trkpt>
      <trkpt lat="43.91922" lon="6.50891">
        <ele>1272</ele>
      </trkpt>
      <trkpt lat="43.91885" lon="6.50883">
        <ele>1274</ele>
      </trkpt>
      <trkpt lat="43.91865" lon="6.50878">
        <ele>1274</ele>
      </trkpt>
      <trkpt lat="43.91863" lon="6.50878">
        <ele>1274</ele>
      </trkpt>
      <trkpt lat="43.9186" lon="6.50879">
        <ele>1275</ele>
      </trkpt>
      <trkpt lat="43.91846" lon="6.50878">
        <ele>1274</ele>
      </trkpt>
      <trkpt lat="43.91824" lon="6.50877">
        <ele>1273</ele>
      </trkpt>
      <trkpt lat="43.91797" lon="6.50878">
        <ele>1271</ele>
      </trkpt>
      <trkpt lat="43.91789" lon="6.50879">
        <ele>1271</ele>
      </trkpt>
      <trkpt lat="43.91775" lon="6.50883">
        <ele>1269</ele>
      </trkpt>
      <trkpt lat="43.91749" lon="6.50884">
        <ele>1268</ele>
      </trkpt>
      <trkpt lat="43.91738" lon="6.50882">
        <ele>1268</ele>
      </trkpt>
      <trkpt lat="43.91704" lon="6.50886">
        <ele>1266</ele>
      </trkpt>
      <trkpt lat="43.91663" lon="6.50893">
        <ele>1263</ele>
      </trkpt>
      <trkpt lat="43.91657" lon="6.50894">
        <ele>1263</ele>
      </trkpt>
      <trkpt lat="43.91635" lon="6.50903">
        <ele>1260</ele>
      </trkpt>
      <trkpt lat="43.9163" lon="6.50906">
        <ele>1260</ele>
      </trkpt>
      <trkpt lat="43.91622" lon="6.50914">
        <ele>1260</ele>
      </trkpt>
      <trkpt lat="43.91602" lon="6.50928">
        <ele>1259</ele>
      </trkpt>
      <trkpt lat="43.91559" lon="6.50937">
        <ele>1261</ele>
      </trkpt>
      <trkpt lat="43.9155" lon="6.50938">
        <ele>1262</ele>
      </trkpt>
      <trkpt lat="43.91542" lon="6.50938">
        <ele>1262</ele>
      </trkpt>
      <trkpt lat="43.91512" lon="6.50925">
        <ele>1265</ele>
      </trkpt>
      <trkpt lat="43.91494" lon="6.50924">
        <ele>1266</ele>
      </trkpt>
      <trkpt lat="43.91476" lon="6.50927">
        <ele>1266</ele>
      </trkpt>
      <trkpt lat="43.91454" lon="6.50931">
        <ele>1266</ele>
      </trkpt>
      <trkpt lat="43.91444" lon="6.50934">
        <ele>1264</ele>
      </trkpt>
      <trkpt lat="43.9142" lon="6.5094">
        <ele>1261</ele>
      </trkpt>
      <trkpt lat="43.9141" lon="6.50945">
        <ele>1259</ele>
      </trkpt>
      <trkpt lat="43.91391" lon="6.50951">
        <ele>1255</ele>
      </trkpt>
      <trkpt lat="43.91381" lon="6.50954">
        <ele>1253</ele>
      </trkpt>
      <trkpt lat="43.9137" lon="6.5096">
        <ele>1250</ele>
      </trkpt>
      <trkpt lat="43.91351" lon="6.50966">
        <ele>1247</ele>
      </trkpt>
      <trkpt lat="43.91346" lon="6.50967">
        <ele>1246</ele>
      </trkpt>
      <trkpt lat="43.91335" lon="6.50969">
        <ele>1244</ele>
      </trkpt>
      <trkpt lat="43.91329" lon="6.50975">
        <ele>1242</ele>
      </trkpt>
      <trkpt lat="43.91316" lon="6.50981">
        <ele>1240</ele>
      </trkpt>
      <trkpt lat="43.91307" lon="6.50984">
        <ele>1238</ele>
      </trkpt>
      <trkpt lat="43.91296" lon="6.50991">
        <ele>1234</ele>
      </trkpt>
      <trkpt lat="43.91287" lon="6.50994">
        <ele>1231</ele>
      </trkpt>
      <trkpt lat="43.91283" lon="6.50992">
        <ele>1231</ele>
      </trkpt>
      <trkpt lat="43.91282" lon="6.50991">
        <ele>1231</ele>
      </trkpt>
      <trkpt lat="43.91276" lon="6.5099">
        <ele>1230</ele>
      </trkpt>
      <trkpt lat="43.91267" lon="6.50982">
        <ele>1231</ele>
      </trkpt>
      <trkpt lat="43.91256" lon="6.50964">
        <ele>1233</ele>
      </trkpt>
      <trkpt lat="43.91254" lon="6.50961">
        <ele>1233</ele>
      </trkpt>
      <trkpt lat="43.91246" lon="6.50951">
        <ele>1233</ele>
      </trkpt>
      <trkpt lat="43.91241" lon="6.50945">
        <ele>1233</ele>
      </trkpt>
      <trkpt lat="43.91235" lon="6.50941">
        <ele>1232</ele>
      </trkpt>
      <trkpt lat="43.91224" lon="6.50937">
        <ele>1229</ele>
      </trkpt>
      <trkpt lat="43.91209" lon="6.50927">
        <ele>1224</ele>
      </trkpt>
      <trkpt lat="43.91206" lon="6.50924">
        <ele>1223</ele>
      </trkpt>
      <trkpt lat="43.91193" lon="6.50913">
        <ele>1219</ele>
      </trkpt>
      <trkpt lat="43.91186" lon="6.50907">
        <ele>1218</ele>
      </trkpt>
      <trkpt lat="43.91177" lon="6.50905">
        <ele>1215</ele>
      </trkpt>
      <trkpt lat="43.91175" lon="6.50903">
        <ele>1214</ele>
      </trkpt>
      <trkpt lat="43.91168" lon="6.50895">
        <ele>1213</ele>
      </trkpt>
      <trkpt lat="43.91167" lon="6.50894">
        <ele>1212</ele>
      </trkpt>
      <trkpt lat="43.91163" lon="6.50888">
        <ele>1212</ele>
      </trkpt>
      <trkpt lat="43.91161" lon="6.50886">
        <ele>1212</ele>
      </trkpt>
      <trkpt lat="43.91159" lon="6.50885">
        <ele>1211</ele>
      </trkpt>
      <trkpt lat="43.91159" lon="6.50888">
        <ele>1210</ele>
      </trkpt>
      <trkpt lat="43.91152" lon="6.50888">
        <ele>1207</ele>
      </trkpt>
      <trkpt lat="43.91151" lon="6.50886">
        <ele>1207</ele>
      </trkpt>
      <trkpt lat="43.91151" lon="6.50882">
        <ele>1208</ele>
      </trkpt>
      <trkpt lat="43.9115" lon="6.50886">
        <ele>1207</ele>
      </trkpt>
      <trkpt lat="43.91151" lon="6.50894">
        <ele>1205</ele>
      </trkpt>
      <trkpt lat="43.9115" lon="6.50901">
        <ele>1203</ele>
      </trkpt>
      <trkpt lat="43.91146" lon="6.50913">
        <ele>1199</ele>
      </trkpt>
      <trkpt lat="43.91141" lon="6.50927">
        <ele>1194</ele>
      </trkpt>
      <trkpt lat="43.91133" lon="6.50942">
        <ele>1191</ele>
      </trkpt>
      <trkpt lat="43.91129" lon="6.50947">
        <ele>1191</ele>
      </trkpt>
      <trkpt lat="43.91125" lon="6.50958">
        <ele>1190</ele>
      </trkpt>
      <trkpt lat="43.91119" lon="6.50973">
        <ele>1190</ele>
      </trkpt>
      <trkpt lat="43.91114" lon="6.50987">
        <ele>1191</ele>
      </trkpt>
      <trkpt lat="43.9111" lon="6.50993">
        <ele>1192</ele>
      </trkpt>
      <trkpt lat="43.91106" lon="6.51007">
        <ele>1191</ele>
      </trkpt>
      <trkpt lat="43.91102" lon="6.51023">
        <ele>1191</ele>
      </trkpt>
      <trkpt lat="43.91096" lon="6.51041">
        <ele>1192</ele>
      </trkpt>
      <trkpt lat="43.91092" lon="6.51059">
        <ele>1192</ele>
      </trkpt>
      <trkpt lat="43.91085" lon="6.5108">
        <ele>1192</ele>
      </trkpt>
      <trkpt lat="43.91066" lon="6.51118">
        <ele>1193</ele>
      </trkpt>
      <trkpt lat="43.91053" lon="6.51152">
        <ele>1195</ele>
      </trkpt>
      <trkpt lat="43.91049" lon="6.51168">
        <ele>1195</ele>
      </trkpt>
      <trkpt lat="43.91049" lon="6.51178">
        <ele>1194</ele>
      </trkpt>
      <trkpt lat="43.91048" lon="6.51193">
        <ele>1194</ele>
      </trkpt>
      <trkpt lat="43.91047" lon="6.51205">
        <ele>1193</ele>
      </trkpt>
      <trkpt lat="43.91042" lon="6.5123">
        <ele>1192</ele>
      </trkpt>
      <trkpt lat="43.91031" lon="6.51252">
        <ele>1192</ele>
      </trkpt>
      <trkpt lat="43.91022" lon="6.51272">
        <ele>1191</ele>
      </trkpt>
      <trkpt lat="43.91008" lon="6.51296">
        <ele>1189</ele>
      </trkpt>
      <trkpt lat="43.90993" lon="6.51312">
        <ele>1187</ele>
      </trkpt>
      <trkpt lat="43.9098" lon="6.51323">
        <ele>1187</ele>
      </trkpt>
      <trkpt lat="43.90974" lon="6.51327">
        <ele>1188</ele>
      </trkpt>
      <trkpt lat="43.90968" lon="6.51331">
        <ele>1189</ele>
      </trkpt>
      <trkpt lat="43.90966" lon="6.51332">
        <ele>1189</ele>
      </trkpt>
      <trkpt lat="43.90962" lon="6.51333">
        <ele>1190</ele>
      </trkpt>
      <trkpt lat="43.90954" lon="6.51337">
        <ele>1192</ele>
      </trkpt>
      <trkpt lat="43.90952" lon="6.51338">
        <ele>1192</ele>
      </trkpt>
      <trkpt lat="43.90947" lon="6.51357">
        <ele>1190</ele>
      </trkpt>
      <trkpt lat="43.90944" lon="6.51368">
        <ele>1189</ele>
      </trkpt>
      <trkpt lat="43.90943" lon="6.5137">
        <ele>1189</ele>
      </trkpt>
      <trkpt lat="43.90939" lon="6.51378">
        <ele>1190</ele>
      </trkpt>
      <trkpt lat="43.90931" lon="6.51393">
        <ele>1190</ele>
      </trkpt>
      <trkpt lat="43.90922" lon="6.5141">
        <ele>1190</ele>
      </trkpt>
      <trkpt lat="43.90912" lon="6.5143">
        <ele>1190</ele>
      </trkpt>
      <trkpt lat="43.90899" lon="6.51452">
        <ele>1190</ele>
      </trkpt>
      <trkpt lat="43.9088" lon="6.51475">
        <ele>1192</ele>
      </trkpt>
      <trkpt lat="43.90867" lon="6.51485">
        <ele>1193</ele>
      </trkpt>
      <trkpt lat="43.90848" lon="6.51506">
        <ele>1193</ele>
      </trkpt>
      <trkpt lat="43.90831" lon="6.51527">
        <ele>1193</ele>
      </trkpt>
      <trkpt lat="43.90816" lon="6.51542">
        <ele>1193</ele>
      </trkpt>
      <trkpt lat="43.90795" lon="6.51559">
        <ele>1194</ele>
      </trkpt>
      <trkpt lat="43.90781" lon="6.51567">
        <ele>1195</ele>
      </trkpt>
      <trkpt lat="43.90766" lon="6.51578">
        <ele>1193</ele>
      </trkpt>
      <trkpt lat="43.90756" lon="6.51585">
        <ele>1192</ele>
      </trkpt>
      <trkpt lat="43.90734" lon="6.51595">
        <ele>1189</ele>
      </trkpt>
      <trkpt lat="43.90722" lon="6.51597">
        <ele>1188</ele>
      </trkpt>
      <trkpt lat="43.90697" lon="6.51605">
        <ele>1186</ele>
      </trkpt>
      <trkpt lat="43.90678" lon="6.51608">
        <ele>1186</ele>
      </trkpt>
      <trkpt lat="43.90663" lon="6.51612">
        <ele>1186</ele>
      </trkpt>
      <trkpt lat="43.90655" lon="6.51614">
        <ele>1188</ele>
      </trkpt>
      <trkpt lat="43.90642" lon="6.51615">
        <ele>1193</ele>
      </trkpt>
      <trkpt lat="43.90638" lon="6.51626">
        <ele>1193</ele>
      </trkpt>
      <trkpt lat="43.90641" lon="6.51644">
        <ele>1190</ele>
      </trkpt>
      <trkpt lat="43.90642" lon="6.51663">
        <ele>1188</ele>
      </trkpt>
      <trkpt lat="43.90641" lon="6.51675">
        <ele>1187</ele>
      </trkpt>
      <trkpt lat="43.9064" lon="6.51704">
        <ele>1183</ele>
      </trkpt>
      <trkpt lat="43.90635" lon="6.51723">
        <ele>1182</ele>
      </trkpt>
      <trkpt lat="43.90626" lon="6.51739">
        <ele>1183</ele>
      </trkpt>
      <trkpt lat="43.90623" lon="6.51748">
        <ele>1183</ele>
      </trkpt>
      <trkpt lat="43.90616" lon="6.51758">
        <ele>1183</ele>
      </trkpt>
      <trkpt lat="43.90606" lon="6.51774">
        <ele>1183</ele>
      </trkpt>
      <trkpt lat="43.90596" lon="6.51795">
        <ele>1181</ele>
      </trkpt>
      <trkpt lat="43.90588" lon="6.51814">
        <ele>1180</ele>
      </trkpt>
      <trkpt lat="43.90581" lon="6.51826">
        <ele>1179</ele>
      </trkpt>
      <trkpt lat="43.90576" lon="6.51841">
        <ele>1178</ele>
      </trkpt>
      <trkpt lat="43.90567" lon="6.51857">
        <ele>1178</ele>
      </trkpt>
      <trkpt lat="43.90562" lon="6.51866">
        <ele>1177</ele>
      </trkpt>
      <trkpt lat="43.90552" lon="6.51892">
        <ele>1176</ele>
      </trkpt>
      <trkpt lat="43.90544" lon="6.51912">
        <ele>1175</ele>
      </trkpt>
      <trkpt lat="43.90533" lon="6.51945">
        <ele>1175</ele>
      </trkpt>
      <trkpt lat="43.90529" lon="6.51958">
        <ele>1176</ele>
      </trkpt>
      <trkpt lat="43.90526" lon="6.5197">
        <ele>1176</ele>
      </trkpt>
      <trkpt lat="43.90523" lon="6.51982">
        <ele>1176</ele>
      </trkpt>
      <trkpt lat="43.90517" lon="6.52012">
        <ele>1174</ele>
      </trkpt>
      <trkpt lat="43.90516" lon="6.52024">
        <ele>1173</ele>
      </trkpt>
      <trkpt lat="43.90508" lon="6.5206">
        <ele>1171</ele>
      </trkpt>
      <trkpt lat="43.90505" lon="6.52066">
        <ele>1171</ele>
      </trkpt>
      <trkpt lat="43.90494" lon="6.52096">
        <ele>1169</ele>
      </trkpt>
      <trkpt lat="43.90493" lon="6.52103">
        <ele>1168</ele>
      </trkpt>
      <trkpt lat="43.90489" lon="6.52116">
        <ele>1166</ele>
      </trkpt>
      <trkpt lat="43.90484" lon="6.52145">
        <ele>1161</ele>
      </trkpt>
      <trkpt lat="43.90483" lon="6.52148">
        <ele>1160</ele>
      </trkpt>
      <trkpt lat="43.90476" lon="6.52161">
        <ele>1159</ele>
      </trkpt>
      <trkpt lat="43.90472" lon="6.52166">
        <ele>1158</ele>
      </trkpt>
      <trkpt lat="43.90459" lon="6.52167">
        <ele>1159</ele>
      </trkpt>
      <trkpt lat="43.90451" lon="6.52167">
        <ele>1159</ele>
      </trkpt>
      <trkpt lat="43.90448" lon="6.52169">
        <ele>1159</ele>
      </trkpt>
      <trkpt lat="43.90437" lon="6.52178">
        <ele>1158</ele>
      </trkpt>
      <trkpt lat="43.90435" lon="6.5218">
        <ele>1158</ele>
      </trkpt>
      <trkpt lat="43.90428" lon="6.52186">
        <ele>1157</ele>
      </trkpt>
      <trkpt lat="43.90412" lon="6.52197">
        <ele>1156</ele>
      </trkpt>
      <trkpt lat="43.90397" lon="6.52198">
        <ele>1155</ele>
      </trkpt>
      <trkpt lat="43.90382" lon="6.52192">
        <ele>1155</ele>
      </trkpt>
      <trkpt lat="43.90373" lon="6.52191">
        <ele>1155</ele>
      </trkpt>
      <trkpt lat="43.90372" lon="6.52191">
        <ele>1155</ele>
      </trkpt>
      <trkpt lat="43.90371" lon="6.52187">
        <ele>1156</ele>
      </trkpt>
      <trkpt lat="43.90362" lon="6.52178">
        <ele>1154</ele>
      </trkpt>
      <trkpt lat="43.90357" lon="6.52164">
        <ele>1154</ele>
      </trkpt>
      <trkpt lat="43.90355" lon="6.52161">
        <ele>1154</ele>
      </trkpt>
      <trkpt lat="43.90342" lon="6.52137">
        <ele>1151</ele>
      </trkpt>
      <trkpt lat="43.9034" lon="6.5213">
        <ele>1151</ele>
      </trkpt>
      <trkpt lat="43.90337" lon="6.52125">
        <ele>1150</ele>
      </trkpt>
      <trkpt lat="43.90332" lon="6.52118">
        <ele>1149</ele>
      </trkpt>
      <trkpt lat="43.90322" lon="6.52094">
        <ele>1145</ele>
      </trkpt>
      <trkpt lat="43.90311" lon="6.52059">
        <ele>1143</ele>
      </trkpt>
      <trkpt lat="43.90303" lon="6.52041">
        <ele>1141</ele>
      </trkpt>
      <trkpt lat="43.90295" lon="6.52028">
        <ele>1139</ele>
      </trkpt>
      <trkpt lat="43.9028" lon="6.52007">
        <ele>1135</ele>
      </trkpt>
      <trkpt lat="43.9027" lon="6.51995">
        <ele>1133</ele>
      </trkpt>
      <trkpt lat="43.90265" lon="6.51989">
        <ele>1132</ele>
      </trkpt>
      <trkpt lat="43.90262" lon="6.51984">
        <ele>1132</ele>
      </trkpt>
      <trkpt lat="43.90253" lon="6.51973">
        <ele>1130</ele>
      </trkpt>
      <trkpt lat="43.9025" lon="6.5197">
        <ele>1129</ele>
      </trkpt>
      <trkpt lat="43.9024" lon="6.51969">
        <ele>1126</ele>
      </trkpt>
      <trkpt lat="43.90237" lon="6.51971">
        <ele>1124</ele>
      </trkpt>
      <trkpt lat="43.90233" lon="6.51976">
        <ele>1122</ele>
      </trkpt>
      <trkpt lat="43.90214" lon="6.51976">
        <ele>1117</ele>
      </trkpt>
      <trkpt lat="43.90207" lon="6.5198">
        <ele>1114</ele>
      </trkpt>
      <trkpt lat="43.90208" lon="6.51985">
        <ele>1114</ele>
      </trkpt>
      <trkpt lat="43.9021" lon="6.51988">
        <ele>1114</ele>
      </trkpt>
      <trkpt lat="43.90223" lon="6.52002">
        <ele>1115</ele>
      </trkpt>
      <trkpt lat="43.90231" lon="6.52031">
        <ele>1112</ele>
      </trkpt>
      <trkpt lat="43.90225" lon="6.5204">
        <ele>1109</ele>
      </trkpt>
      <trkpt lat="43.9022" lon="6.52055">
        <ele>1105</ele>
      </trkpt>
      <trkpt lat="43.90221" lon="6.52061">
        <ele>1105</ele>
      </trkpt>
      <trkpt lat="43.90226" lon="6.52073">
        <ele>1104</ele>
      </trkpt>
      <trkpt lat="43.90233" lon="6.52094">
        <ele>1104</ele>
      </trkpt>
      <trkpt lat="43.90232" lon="6.52126">
        <ele>1102</ele>
      </trkpt>
      <trkpt lat="43.90237" lon="6.52155">
        <ele>1101</ele>
      </trkpt>
      <trkpt lat="43.90234" lon="6.52181">
        <ele>1098</ele>
      </trkpt>
      <trkpt lat="43.9023" lon="6.52185">
        <ele>1097</ele>
      </trkpt>
      <trkpt lat="43.90222" lon="6.52193">
        <ele>1095</ele>
      </trkpt>
      <trkpt lat="43.90203" lon="6.52204">
        <ele>1089</ele>
      </trkpt>
      <trkpt lat="43.90188" lon="6.52215">
        <ele>1084</ele>
      </trkpt>
      <trkpt lat="43.90179" lon="6.52238">
        <ele>1080</ele>
      </trkpt>
      <trkpt lat="43.90175" lon="6.52273">
        <ele>1076</ele>
      </trkpt>
      <trkpt lat="43.90175" lon="6.52279">
        <ele>1075</ele>
      </trkpt>
      <trkpt lat="43.90165" lon="6.52302">
        <ele>1070</ele>
      </trkpt>
      <trkpt lat="43.90144" lon="6.52334">
        <ele>1064</ele>
      </trkpt>
      <trkpt lat="43.90123" lon="6.52356">
        <ele>1060</ele>
      </trkpt>
      <trkpt lat="43.90108" lon="6.52352">
        <ele>1061</ele>
      </trkpt>
      <trkpt lat="43.90104" lon="6.52331">
        <ele>1062</ele>
      </trkpt>
      <trkpt lat="43.90097" lon="6.52305">
        <ele>1062</ele>
      </trkpt>
      <trkpt lat="43.90077" lon="6.52276">
        <ele>1059</ele>
      </trkpt>
      <trkpt lat="43.90061" lon="6.52276">
        <ele>1057</ele>
      </trkpt>
      <trkpt lat="43.90052" lon="6.52283">
        <ele>1056</ele>
      </trkpt>
      <trkpt lat="43.90029" lon="6.52294">
        <ele>1052</ele>
      </trkpt>
      <trkpt lat="43.90025" lon="6.52295">
        <ele>1052</ele>
      </trkpt>
      <trkpt lat="43.90024" lon="6.52296">
        <ele>1052</ele>
      </trkpt>
      <trkpt lat="43.90024" lon="6.52297">
        <ele>1052</ele>
      </trkpt>
      <trkpt lat="43.90022" lon="6.52297">
        <ele>1051</ele>
      </trkpt>
      <trkpt lat="43.90023" lon="6.52295">
        <ele>1052</ele>
      </trkpt>
      <trkpt lat="43.90022" lon="6.52295">
        <ele>1051</ele>
      </trkpt>
      <trkpt lat="43.90018" lon="6.52293">
        <ele>1051</ele>
      </trkpt>
      <trkpt lat="43.90014" lon="6.5228">
        <ele>1050</ele>
      </trkpt>
      <trkpt lat="43.90012" lon="6.52264">
        <ele>1050</ele>
      </trkpt>
      <trkpt lat="43.90007" lon="6.52246">
        <ele>1050</ele>
      </trkpt>
      <trkpt lat="43.90001" lon="6.5222">
        <ele>1052</ele>
      </trkpt>
      <trkpt lat="43.89996" lon="6.52199">
        <ele>1054</ele>
      </trkpt>
      <trkpt lat="43.89987" lon="6.52172">
        <ele>1055</ele>
      </trkpt>
      <trkpt lat="43.8998" lon="6.52139">
        <ele>1055</ele>
      </trkpt>
      <trkpt lat="43.89975" lon="6.52118">
        <ele>1056</ele>
      </trkpt>
      <trkpt lat="43.89962" lon="6.52106">
        <ele>1053</ele>
      </trkpt>
      <trkpt lat="43.89938" lon="6.52094">
        <ele>1048</ele>
      </trkpt>
      <trkpt lat="43.89918" lon="6.52076">
        <ele>1049</ele>
      </trkpt>
      <trkpt lat="43.89909" lon="6.52066">
        <ele>1051</ele>
      </trkpt>
      <trkpt lat="43.89897" lon="6.52046">
        <ele>1055</ele>
      </trkpt>
      <trkpt lat="43.89893" lon="6.52019">
        <ele>1060</ele>
      </trkpt>
      <trkpt lat="43.89901" lon="6.51993">
        <ele>1065</ele>
      </trkpt>
      <trkpt lat="43.89907" lon="6.51958">
        <ele>1069</ele>
      </trkpt>
      <trkpt lat="43.89914" lon="6.51908">
        <ele>1075</ele>
      </trkpt>
      <trkpt lat="43.89914" lon="6.51877">
        <ele>1076</ele>
      </trkpt>
      <trkpt lat="43.89904" lon="6.51827">
        <ele>1072</ele>
      </trkpt>
      <trkpt lat="43.89909" lon="6.51784">
        <ele>1073</ele>
      </trkpt>
      <trkpt lat="43.89912" lon="6.51766">
        <ele>1074</ele>
      </trkpt>
      <trkpt lat="43.8991" lon="6.51737">
        <ele>1072</ele>
      </trkpt>
      <trkpt lat="43.89899" lon="6.51727">
        <ele>1068</ele>
      </trkpt>
      <trkpt lat="43.8989" lon="6.51725">
        <ele>1065</ele>
      </trkpt>
      <trkpt lat="43.89873" lon="6.51724">
        <ele>1061</ele>
      </trkpt>
      <trkpt lat="43.89858" lon="6.51734">
        <ele>1057</ele>
      </trkpt>
      <trkpt lat="43.89855" lon="6.51739">
        <ele>1055</ele>
      </trkpt>
      <trkpt lat="43.89842" lon="6.51757">
        <ele>1052</ele>
      </trkpt>
      <trkpt lat="43.89818" lon="6.51764">
        <ele>1056</ele>
      </trkpt>
      <trkpt lat="43.89789" lon="6.51777">
        <ele>1059</ele>
      </trkpt>
      <trkpt lat="43.89763" lon="6.51801">
        <ele>1059</ele>
      </trkpt>
      <trkpt lat="43.89742" lon="6.51807">
        <ele>1057</ele>
      </trkpt>
      <trkpt lat="43.89723" lon="6.51817">
        <ele>1052</ele>
      </trkpt>
      <trkpt lat="43.89705" lon="6.51817">
        <ele>1052</ele>
      </trkpt>
      <trkpt lat="43.89681" lon="6.51804">
        <ele>1058</ele>
      </trkpt>
      <trkpt lat="43.89665" lon="6.51784">
        <ele>1067</ele>
      </trkpt>
      <trkpt lat="43.89642" lon="6.51742">
        <ele>1072</ele>
      </trkpt>
      <trkpt lat="43.89626" lon="6.5172">
        <ele>1076</ele>
      </trkpt>
      <trkpt lat="43.89607" lon="6.51699">
        <ele>1076</ele>
      </trkpt>
      <trkpt lat="43.89592" lon="6.51682">
        <ele>1077</ele>
      </trkpt>
      <trkpt lat="43.89576" lon="6.51653">
        <ele>1082</ele>
      </trkpt>
      <trkpt lat="43.89559" lon="6.5163">
        <ele>1085</ele>
      </trkpt>
      <trkpt lat="43.89544" lon="6.51605">
        <ele>1089</ele>
      </trkpt>
      <trkpt lat="43.89517" lon="6.51571">
        <ele>1089</ele>
      </trkpt>
      <trkpt lat="43.895" lon="6.51544">
        <ele>1090</ele>
      </trkpt>
      <trkpt lat="43.89487" lon="6.51512">
        <ele>1094</ele>
      </trkpt>
      <trkpt lat="43.8948" lon="6.51483">
        <ele>1098</ele>
      </trkpt>
      <trkpt lat="43.89455" lon="6.51439">
        <ele>1097</ele>
      </trkpt>
      <trkpt lat="43.89445" lon="6.51421">
        <ele>1097</ele>
      </trkpt>
      <trkpt lat="43.89435" lon="6.51381">
        <ele>1101</ele>
      </trkpt>
      <trkpt lat="43.89432" lon="6.51333">
        <ele>1108</ele>
      </trkpt>
      <trkpt lat="43.89428" lon="6.51308">
        <ele>1110</ele>
      </trkpt>
      <trkpt lat="43.8942" lon="6.51287">
        <ele>1110</ele>
      </trkpt>
      <trkpt lat="43.89403" lon="6.5126">
        <ele>1109</ele>
      </trkpt>
      <trkpt lat="43.89393" lon="6.51248">
        <ele>1108</ele>
      </trkpt>
      <trkpt lat="43.89377" lon="6.5123">
        <ele>1107</ele>
      </trkpt>
      <trkpt lat="43.89363" lon="6.51213">
        <ele>1108</ele>
      </trkpt>
      <trkpt lat="43.8935" lon="6.51191">
        <ele>1110</ele>
      </trkpt>
      <trkpt lat="43.89341" lon="6.51168">
        <ele>1113</ele>
      </trkpt>
      <trkpt lat="43.89335" lon="6.51144">
        <ele>1115</ele>
      </trkpt>
      <trkpt lat="43.89327" lon="6.51119">
        <ele>1118</ele>
      </trkpt>
      <trkpt lat="43.89312" lon="6.51112">
        <ele>1117</ele>
      </trkpt>
      <trkpt lat="43.89291" lon="6.51098">
        <ele>1116</ele>
      </trkpt>
      <trkpt lat="43.89276" lon="6.51074">
        <ele>1118</ele>
      </trkpt>
      <trkpt lat="43.89258" lon="6.51054">
        <ele>1119</ele>
      </trkpt>
      <trkpt lat="43.8925" lon="6.5104">
        <ele>1120</ele>
      </trkpt>
      <trkpt lat="43.89247" lon="6.51013">
        <ele>1125</ele>
      </trkpt>
      <trkpt lat="43.89245" lon="6.50979">
        <ele>1128</ele>
      </trkpt>
      <trkpt lat="43.89236" lon="6.50941">
        <ele>1129</ele>
      </trkpt>
      <trkpt lat="43.89221" lon="6.50897">
        <ele>1130</ele>
      </trkpt>
      <trkpt lat="43.89215" lon="6.50857">
        <ele>1132</ele>
      </trkpt>
      <trkpt lat="43.89207" lon="6.50824">
        <ele>1134</ele>
      </trkpt>
      <trkpt lat="43.89197" lon="6.50786">
        <ele>1134</ele>
      </trkpt>
      <trkpt lat="43.892" lon="6.50764">
        <ele>1136</ele>
      </trkpt>
      <trkpt lat="43.89213" lon="6.50727">
        <ele>1138</ele>
      </trkpt>
      <trkpt lat="43.89228" lon="6.50687">
        <ele>1140</ele>
      </trkpt>
      <trkpt lat="43.89232" lon="6.50645">
        <ele>1141</ele>
      </trkpt>
      <trkpt lat="43.89228" lon="6.50599">
        <ele>1138</ele>
      </trkpt>
      <trkpt lat="43.89227" lon="6.50592">
        <ele>1138</ele>
      </trkpt>
      <trkpt lat="43.89228" lon="6.50543">
        <ele>1138</ele>
      </trkpt>
      <trkpt lat="43.89225" lon="6.50508">
        <ele>1138</ele>
      </trkpt>
      <trkpt lat="43.89224" lon="6.50501">
        <ele>1138</ele>
      </trkpt>
      <trkpt lat="43.89229" lon="6.50476">
        <ele>1138</ele>
      </trkpt>
      <trkpt lat="43.89237" lon="6.50451">
        <ele>1140</ele>
      </trkpt>
      <trkpt lat="43.89239" lon="6.50407">
        <ele>1140</ele>
      </trkpt>
      <trkpt lat="43.89232" lon="6.50338">
        <ele>1137</ele>
      </trkpt>
      <trkpt lat="43.89231" lon="6.5032">
        <ele>1136</ele>
      </trkpt>
      <trkpt lat="43.89243" lon="6.50287">
        <ele>1140</ele>
      </trkpt>
      <trkpt lat="43.89254" lon="6.50278">
        <ele>1145</ele>
      </trkpt>
      <trkpt lat="43.89269" lon="6.50268">
        <ele>1152</ele>
      </trkpt>
      <trkpt lat="43.89277" lon="6.5025">
        <ele>1156</ele>
      </trkpt>
      <trkpt lat="43.89269" lon="6.50232">
        <ele>1152</ele>
      </trkpt>
      <trkpt lat="43.89262" lon="6.50226">
        <ele>1148</ele>
      </trkpt>
      <trkpt lat="43.89238" lon="6.50204">
        <ele>1137</ele>
      </trkpt>
      <trkpt lat="43.89213" lon="6.5019">
        <ele>1133</ele>
      </trkpt>
      <trkpt lat="43.89205" lon="6.50186">
        <ele>1132</ele>
      </trkpt>
      <trkpt lat="43.89198" lon="6.50184">
        <ele>1131</ele>
      </trkpt>
      <trkpt lat="43.89183" lon="6.50178">
        <ele>1129</ele>
      </trkpt>
      <trkpt lat="43.89179" lon="6.50178">
        <ele>1128</ele>
      </trkpt>
      <trkpt lat="43.89169" lon="6.5019">
        <ele>1124</ele>
      </trkpt>
      <trkpt lat="43.8915" lon="6.502">
        <ele>1119</ele>
      </trkpt>
      <trkpt lat="43.89147" lon="6.50198">
        <ele>1119</ele>
      </trkpt>
      <trkpt lat="43.89134" lon="6.50184">
        <ele>1120</ele>
      </trkpt>
      <trkpt lat="43.89117" lon="6.50177">
        <ele>1120</ele>
      </trkpt>
      <trkpt lat="43.89113" lon="6.50175">
        <ele>1120</ele>
      </trkpt>
      <trkpt lat="43.89095" lon="6.50168">
        <ele>1119</ele>
      </trkpt>
      <trkpt lat="43.89075" lon="6.50162">
        <ele>1119</ele>
      </trkpt>
      <trkpt lat="43.89052" lon="6.50151">
        <ele>1118</ele>
      </trkpt>
      <trkpt lat="43.89046" lon="6.50147">
        <ele>1118</ele>
      </trkpt>
      <trkpt lat="43.89034" lon="6.50143">
        <ele>1116</ele>
      </trkpt>
      <trkpt lat="43.89025" lon="6.50139">
        <ele>1115</ele>
      </trkpt>
      <trkpt lat="43.89016" lon="6.50144">
        <ele>1112</ele>
      </trkpt>
      <trkpt lat="43.89013" lon="6.50147">
        <ele>1111</ele>
      </trkpt>
      <trkpt lat="43.88999" lon="6.50154">
        <ele>1108</ele>
      </trkpt>
      <trkpt lat="43.88989" lon="6.50166">
        <ele>1105</ele>
      </trkpt>
      <trkpt lat="43.88977" lon="6.50173">
        <ele>1102</ele>
      </trkpt>
      <trkpt lat="43.88961" lon="6.5019">
        <ele>1097</ele>
      </trkpt>
      <trkpt lat="43.88952" lon="6.50201">
        <ele>1094</ele>
      </trkpt>
      <trkpt lat="43.88945" lon="6.50205">
        <ele>1092</ele>
      </trkpt>
      <trkpt lat="43.88925" lon="6.50218">
        <ele>1087</ele>
      </trkpt>
      <trkpt lat="43.88908" lon="6.50225">
        <ele>1085</ele>
      </trkpt>
      <trkpt lat="43.88897" lon="6.50225">
        <ele>1084</ele>
      </trkpt>
      <trkpt lat="43.8889" lon="6.50223">
        <ele>1084</ele>
      </trkpt>
      <trkpt lat="43.88875" lon="6.50215">
        <ele>1084</ele>
      </trkpt>
      <trkpt lat="43.88863" lon="6.50206">
        <ele>1083</ele>
      </trkpt>
      <trkpt lat="43.88861" lon="6.50194">
        <ele>1084</ele>
      </trkpt>
      <trkpt lat="43.88861" lon="6.50188">
        <ele>1084</ele>
      </trkpt>
      <trkpt lat="43.88855" lon="6.50182">
        <ele>1083</ele>
      </trkpt>
      <trkpt lat="43.88854" lon="6.50182">
        <ele>1083</ele>
      </trkpt>
      <trkpt lat="43.8884" lon="6.5018">
        <ele>1081</ele>
      </trkpt>
      <trkpt lat="43.88833" lon="6.50182">
        <ele>1080</ele>
      </trkpt>
      <trkpt lat="43.88826" lon="6.5019">
        <ele>1079</ele>
      </trkpt>
      <trkpt lat="43.88823" lon="6.50194">
        <ele>1079</ele>
      </trkpt>
      <trkpt lat="43.8882" lon="6.50198">
        <ele>1078</ele>
      </trkpt>
      <trkpt lat="43.88818" lon="6.50198">
        <ele>1078</ele>
      </trkpt>
      <trkpt lat="43.88816" lon="6.50204">
        <ele>1078</ele>
      </trkpt>
      <trkpt lat="43.88808" lon="6.50215">
        <ele>1076</ele>
      </trkpt>
      <trkpt lat="43.8879" lon="6.50224">
        <ele>1073</ele>
      </trkpt>
      <trkpt lat="43.88775" lon="6.5023">
        <ele>1072</ele>
      </trkpt>
      <trkpt lat="43.88769" lon="6.50234">
        <ele>1072</ele>
      </trkpt>
      <trkpt lat="43.88757" lon="6.50242">
        <ele>1072</ele>
      </trkpt>
      <trkpt lat="43.88749" lon="6.50238">
        <ele>1073</ele>
      </trkpt>
      <trkpt lat="43.88743" lon="6.50232">
        <ele>1075</ele>
      </trkpt>
      <trkpt lat="43.88722" lon="6.50218">
        <ele>1076</ele>
      </trkpt>
      <trkpt lat="43.88706" lon="6.50212">
        <ele>1076</ele>
      </trkpt>
      <trkpt lat="43.88693" lon="6.50202">
        <ele>1077</ele>
      </trkpt>
      <trkpt lat="43.88689" lon="6.50199">
        <ele>1076</ele>
      </trkpt>
      <trkpt lat="43.88679" lon="6.50205">
        <ele>1075</ele>
      </trkpt>
      <trkpt lat="43.88676" lon="6.50209">
        <ele>1074</ele>
      </trkpt>
      <trkpt lat="43.88669" lon="6.50215">
        <ele>1073</ele>
      </trkpt>
      <trkpt lat="43.88637" lon="6.5023">
        <ele>1068</ele>
      </trkpt>
      <trkpt lat="43.88614" lon="6.50238">
        <ele>1066</ele>
      </trkpt>
      <trkpt lat="43.88602" lon="6.50252">
        <ele>1064</ele>
      </trkpt>
      <trkpt lat="43.8859" lon="6.50264">
        <ele>1063</ele>
      </trkpt>
      <trkpt lat="43.88574" lon="6.50272">
        <ele>1063</ele>
      </trkpt>
      <trkpt lat="43.88559" lon="6.50279">
        <ele>1063</ele>
      </trkpt>
      <trkpt lat="43.88549" lon="6.50284">
        <ele>1063</ele>
      </trkpt>
      <trkpt lat="43.88534" lon="6.50299">
        <ele>1064</ele>
      </trkpt>
      <trkpt lat="43.88506" lon="6.50328">
        <ele>1064</ele>
      </trkpt>
      <trkpt lat="43.88493" lon="6.50343">
        <ele>1064</ele>
      </trkpt>
      <trkpt lat="43.88466" lon="6.50373">
        <ele>1061</ele>
      </trkpt>
      <trkpt lat="43.88441" lon="6.50419">
        <ele>1058</ele>
      </trkpt>
      <trkpt lat="43.88413" lon="6.50466">
        <ele>1054</ele>
      </trkpt>
      <trkpt lat="43.884" lon="6.50489">
        <ele>1054</ele>
      </trkpt>
      <trkpt lat="43.88389" lon="6.50512">
        <ele>1053</ele>
      </trkpt>
      <trkpt lat="43.8837" lon="6.50555">
        <ele>1051</ele>
      </trkpt>
      <trkpt lat="43.88347" lon="6.506">
        <ele>1052</ele>
      </trkpt>
      <trkpt lat="43.88325" lon="6.50633">
        <ele>1055</ele>
      </trkpt>
      <trkpt lat="43.88305" lon="6.50662">
        <ele>1057</ele>
      </trkpt>
      <trkpt lat="43.88287" lon="6.50685">
        <ele>1060</ele>
      </trkpt>
      <trkpt lat="43.88276" lon="6.50687">
        <ele>1063</ele>
      </trkpt>
      <trkpt lat="43.88275" lon="6.50687">
        <ele>1064</ele>
      </trkpt>
      <trkpt lat="43.88273" lon="6.50684">
        <ele>1065</ele>
      </trkpt>
      <trkpt lat="43.88265" lon="6.50674">
        <ele>1068</ele>
      </trkpt>
      <trkpt lat="43.88257" lon="6.50678">
        <ele>1068</ele>
      </trkpt>
      <trkpt lat="43.88248" lon="6.50681">
        <ele>1068</ele>
      </trkpt>
      <trkpt lat="43.88246" lon="6.50677">
        <ele>1068</ele>
      </trkpt>
      <trkpt lat="43.88244" lon="6.50657">
        <ele>1068</ele>
      </trkpt>
      <trkpt lat="43.88243" lon="6.50653">
        <ele>1068</ele>
      </trkpt>
      <trkpt lat="43.88236" lon="6.50634">
        <ele>1067</ele>
      </trkpt>
      <trkpt lat="43.88229" lon="6.5062">
        <ele>1066</ele>
      </trkpt>
      <trkpt lat="43.88217" lon="6.50604">
        <ele>1062</ele>
      </trkpt>
      <trkpt lat="43.88203" lon="6.50586">
        <ele>1056</ele>
      </trkpt>
      <trkpt lat="43.88187" lon="6.50561">
        <ele>1050</ele>
      </trkpt>
      <trkpt lat="43.88183" lon="6.50551">
        <ele>1049</ele>
      </trkpt>
      <trkpt lat="43.8818" lon="6.50549">
        <ele>1048</ele>
      </trkpt>
      <trkpt lat="43.8818" lon="6.50561">
        <ele>1046</ele>
      </trkpt>
      <trkpt lat="43.8818" lon="6.50579">
        <ele>1044</ele>
      </trkpt>
      <trkpt lat="43.88181" lon="6.50589">
        <ele>1044</ele>
      </trkpt>
      <trkpt lat="43.88183" lon="6.50603">
        <ele>1044</ele>
      </trkpt>
      <trkpt lat="43.88186" lon="6.5061">
        <ele>1045</ele>
      </trkpt>
      <trkpt lat="43.88181" lon="6.50613">
        <ele>1042</ele>
      </trkpt>
      <trkpt lat="43.8817" lon="6.50601">
        <ele>1038</ele>
      </trkpt>
      <trkpt lat="43.88166" lon="6.50592">
        <ele>1036</ele>
      </trkpt>
      <trkpt lat="43.88161" lon="6.50576">
        <ele>1034</ele>
      </trkpt>
      <trkpt lat="43.88148" lon="6.50547">
        <ele>1031</ele>
      </trkpt>
      <trkpt lat="43.88146" lon="6.50544">
        <ele>1030</ele>
      </trkpt>
      <trkpt lat="43.88132" lon="6.50527">
        <ele>1025</ele>
      </trkpt>
      <trkpt lat="43.88119" lon="6.50521">
        <ele>1020</ele>
      </trkpt>
      <trkpt lat="43.88114" lon="6.50518">
        <ele>1018</ele>
      </trkpt>
      <trkpt lat="43.88107" lon="6.50512">
        <ele>1015</ele>
      </trkpt>
      <trkpt lat="43.88096" lon="6.50502">
        <ele>1012</ele>
      </trkpt>
      <trkpt lat="43.88086" lon="6.50481">
        <ele>1011</ele>
      </trkpt>
      <trkpt lat="43.88081" lon="6.50465">
        <ele>1011</ele>
      </trkpt>
      <trkpt lat="43.88077" lon="6.50453">
        <ele>1010</ele>
      </trkpt>
      <trkpt lat="43.88075" lon="6.50439">
        <ele>1011</ele>
      </trkpt>
      <trkpt lat="43.88075" lon="6.50435">
        <ele>1012</ele>
      </trkpt>
      <trkpt lat="43.88075" lon="6.50417">
        <ele>1012</ele>
      </trkpt>
      <trkpt lat="43.88075" lon="6.50407">
        <ele>1011</ele>
      </trkpt>
      <trkpt lat="43.88073" lon="6.50394">
        <ele>1009</ele>
      </trkpt>
      <trkpt lat="43.88072" lon="6.50388">
        <ele>1008</ele>
      </trkpt>
      <trkpt lat="43.88071" lon="6.50369">
        <ele>1006</ele>
      </trkpt>
      <trkpt lat="43.8807" lon="6.50355">
        <ele>1003</ele>
      </trkpt>
      <trkpt lat="43.88069" lon="6.50348">
        <ele>1001</ele>
      </trkpt>
      <trkpt lat="43.88071" lon="6.50337">
        <ele>1000</ele>
      </trkpt>
      <trkpt lat="43.8807" lon="6.50327">
        <ele>997</ele>
      </trkpt>
      <trkpt lat="43.88072" lon="6.50315">
        <ele>997</ele>
      </trkpt>
      <trkpt lat="43.88072" lon="6.50307">
        <ele>995</ele>
      </trkpt>
      <trkpt lat="43.88065" lon="6.50299">
        <ele>990</ele>
      </trkpt>
      <trkpt lat="43.88062" lon="6.50297">
        <ele>988</ele>
      </trkpt>
      <trkpt lat="43.88058" lon="6.50289">
        <ele>985</ele>
      </trkpt>
      <trkpt lat="43.88058" lon="6.50286">
        <ele>984</ele>
      </trkpt>
      <trkpt lat="43.8805" lon="6.50271">
        <ele>979</ele>
      </trkpt>
      <trkpt lat="43.88042" lon="6.50257">
        <ele>974</ele>
      </trkpt>
      <trkpt lat="43.8804" lon="6.50256">
        <ele>973</ele>
      </trkpt>
      <trkpt lat="43.88024" lon="6.50259">
        <ele>969</ele>
      </trkpt>
      <trkpt lat="43.88005" lon="6.5027">
        <ele>964</ele>
      </trkpt>
      <trkpt lat="43.88003" lon="6.50271">
        <ele>963</ele>
      </trkpt>
      <trkpt lat="43.87986" lon="6.5026">
        <ele>958</ele>
      </trkpt>
      <trkpt lat="43.87961" lon="6.50238">
        <ele>954</ele>
      </trkpt>
      <trkpt lat="43.87929" lon="6.50224">
        <ele>950</ele>
      </trkpt>
      <trkpt lat="43.87913" lon="6.50232">
        <ele>948</ele>
      </trkpt>
      <trkpt lat="43.87904" lon="6.50245">
        <ele>947</ele>
      </trkpt>
      <trkpt lat="43.87883" lon="6.50284">
        <ele>944</ele>
      </trkpt>
      <trkpt lat="43.87878" lon="6.50293">
        <ele>944</ele>
      </trkpt>
      <trkpt lat="43.87861" lon="6.50313">
        <ele>942</ele>
      </trkpt>
      <trkpt lat="43.87833" lon="6.50338">
        <ele>939</ele>
      </trkpt>
      <trkpt lat="43.87802" lon="6.50385">
        <ele>936</ele>
      </trkpt>
      <trkpt lat="43.87772" lon="6.50434">
        <ele>933</ele>
      </trkpt>
      <trkpt lat="43.87746" lon="6.50482">
        <ele>931</ele>
      </trkpt>
      <trkpt lat="43.87713" lon="6.50544">
        <ele>931</ele>
      </trkpt>
      <trkpt lat="43.87685" lon="6.506">
        <ele>929</ele>
      </trkpt>
      <trkpt lat="43.87659" lon="6.50659">
        <ele>925</ele>
      </trkpt>
      <trkpt lat="43.87651" lon="6.50692">
        <ele>923</ele>
      </trkpt>
      <trkpt lat="43.87642" lon="6.50727">
        <ele>921</ele>
      </trkpt>
      <trkpt lat="43.8763" lon="6.5076">
        <ele>919</ele>
      </trkpt>
      <trkpt lat="43.87609" lon="6.50815">
        <ele>916</ele>
      </trkpt>
      <trkpt lat="43.87578" lon="6.50849">
        <ele>914</ele>
      </trkpt>
      <trkpt lat="43.87558" lon="6.50849">
        <ele>914</ele>
      </trkpt>
      <trkpt lat="43.87552" lon="6.50846">
        <ele>914</ele>
      </trkpt>
      <trkpt lat="43.87533" lon="6.50833">
        <ele>914</ele>
      </trkpt>
      <trkpt lat="43.87511" lon="6.50831">
        <ele>914</ele>
      </trkpt>
      <trkpt lat="43.87499" lon="6.50844">
        <ele>913</ele>
      </trkpt>
      <trkpt lat="43.8747" lon="6.50892">
        <ele>912</ele>
      </trkpt>
      <trkpt lat="43.87434" lon="6.50961">
        <ele>909</ele>
      </trkpt>
      <trkpt lat="43.874" lon="6.51009">
        <ele>908</ele>
      </trkpt>
      <trkpt lat="43.87381" lon="6.51029">
        <ele>907</ele>
      </trkpt>
      <trkpt lat="43.87322" lon="6.51068">
        <ele>905</ele>
      </trkpt>
      <trkpt lat="43.8729" lon="6.5108">
        <ele>903</ele>
      </trkpt>
      <trkpt lat="43.87227" lon="6.51104">
        <ele>899</ele>
      </trkpt>
      <trkpt lat="43.87212" lon="6.5111">
        <ele>899</ele>
      </trkpt>
      <trkpt lat="43.87183" lon="6.51124">
        <ele>898</ele>
      </trkpt>
      <trkpt lat="43.87132" lon="6.51143">
        <ele>899</ele>
      </trkpt>
      <trkpt lat="43.87111" lon="6.51145">
        <ele>899</ele>
      </trkpt>
      <trkpt lat="43.87098" lon="6.51143">
        <ele>898</ele>
      </trkpt>
      <trkpt lat="43.87097" lon="6.51142">
        <ele>898</ele>
      </trkpt>
      <trkpt lat="43.87089" lon="6.51139">
        <ele>898</ele>
      </trkpt>
      <trkpt lat="43.87075" lon="6.51138">
        <ele>898</ele>
      </trkpt>
      <trkpt lat="43.87057" lon="6.51142">
        <ele>898</ele>
      </trkpt>
      <trkpt lat="43.87042" lon="6.51141">
        <ele>898</ele>
      </trkpt>
      <trkpt lat="43.87027" lon="6.51138">
        <ele>898</ele>
      </trkpt>
      <trkpt lat="43.8702" lon="6.51137">
        <ele>898</ele>
      </trkpt>
      <trkpt lat="43.87018" lon="6.51136">
        <ele>898</ele>
      </trkpt>
      <trkpt lat="43.87017" lon="6.51135">
        <ele>898</ele>
      </trkpt>
      <trkpt lat="43.87004" lon="6.51131">
        <ele>898</ele>
      </trkpt>
      <trkpt lat="43.86998" lon="6.51125">
        <ele>897</ele>
      </trkpt>
      <trkpt lat="43.86967" lon="6.51095">
        <ele>895</ele>
      </trkpt>
      <trkpt lat="43.86941" lon="6.51079">
        <ele>892</ele>
      </trkpt>
      <trkpt lat="43.86926" lon="6.51094">
        <ele>891</ele>
      </trkpt>
      <trkpt lat="43.8691" lon="6.51127">
        <ele>896</ele>
      </trkpt>
      <trkpt lat="43.86893" lon="6.51147">
        <ele>901</ele>
      </trkpt>
      <trkpt lat="43.86874" lon="6.51155">
        <ele>902</ele>
      </trkpt>
      <trkpt lat="43.86861" lon="6.51151">
        <ele>900</ele>
      </trkpt>
      <trkpt lat="43.86854" lon="6.51145">
        <ele>897</ele>
      </trkpt>
      <trkpt lat="43.86848" lon="6.5114">
        <ele>896</ele>
      </trkpt>
      <trkpt lat="43.86836" lon="6.51129">
        <ele>893</ele>
      </trkpt>
      <trkpt lat="43.86827" lon="6.51115">
        <ele>888</ele>
      </trkpt>
      <trkpt lat="43.86814" lon="6.51098">
        <ele>883</ele>
      </trkpt>
      <trkpt lat="43.86783" lon="6.51085">
        <ele>883</ele>
      </trkpt>
      <trkpt lat="43.86771" lon="6.51088">
        <ele>885</ele>
      </trkpt>
      <trkpt lat="43.86749" lon="6.51097">
        <ele>886</ele>
      </trkpt>
      <trkpt lat="43.8674" lon="6.51098">
        <ele>886</ele>
      </trkpt>
      <trkpt lat="43.8672" lon="6.51106">
        <ele>886</ele>
      </trkpt>
      <trkpt lat="43.86706" lon="6.51112">
        <ele>886</ele>
      </trkpt>
      <trkpt lat="43.86682" lon="6.51113">
        <ele>883</ele>
      </trkpt>
      <trkpt lat="43.86668" lon="6.51114">
        <ele>882</ele>
      </trkpt>
      <trkpt lat="43.86633" lon="6.51112">
        <ele>881</ele>
      </trkpt>
      <trkpt lat="43.866" lon="6.51117">
        <ele>881</ele>
      </trkpt>
      <trkpt lat="43.86559" lon="6.51121">
        <ele>882</ele>
      </trkpt>
      <trkpt lat="43.86514" lon="6.51126">
        <ele>884</ele>
      </trkpt>
      <trkpt lat="43.8647" lon="6.51152">
        <ele>888</ele>
      </trkpt>
      <trkpt lat="43.86448" lon="6.51168">
        <ele>890</ele>
      </trkpt>
      <trkpt lat="43.86437" lon="6.51174">
        <ele>888</ele>
      </trkpt>
      <trkpt lat="43.86411" lon="6.51199">
        <ele>888</ele>
      </trkpt>
      <trkpt lat="43.86384" lon="6.51245">
        <ele>896</ele>
      </trkpt>
      <trkpt lat="43.86353" lon="6.51273">
        <ele>894</ele>
      </trkpt>
      <trkpt lat="43.86332" lon="6.5129">
        <ele>889</ele>
      </trkpt>
      <trkpt lat="43.86306" lon="6.51326">
        <ele>884</ele>
      </trkpt>
      <trkpt lat="43.86277" lon="6.51364">
        <ele>882</ele>
      </trkpt>
      <trkpt lat="43.86256" lon="6.51377">
        <ele>881</ele>
      </trkpt>
      <trkpt lat="43.86232" lon="6.51382">
        <ele>879</ele>
      </trkpt>
      <trkpt lat="43.86212" lon="6.514">
        <ele>880</ele>
      </trkpt>
      <trkpt lat="43.86203" lon="6.51409">
        <ele>881</ele>
      </trkpt>
      <trkpt lat="43.86172" lon="6.51427">
        <ele>879</ele>
      </trkpt>
      <trkpt lat="43.86154" lon="6.51436">
        <ele>876</ele>
      </trkpt>
      <trkpt lat="43.86132" lon="6.51456">
        <ele>873</ele>
      </trkpt>
      <trkpt lat="43.86107" lon="6.51491">
        <ele>871</ele>
      </trkpt>
      <trkpt lat="43.86096" lon="6.51505">
        <ele>870</ele>
      </trkpt>
      <trkpt lat="43.86077" lon="6.51536">
        <ele>869</ele>
      </trkpt>
      <trkpt lat="43.86055" lon="6.51563">
        <ele>872</ele>
      </trkpt>
      <trkpt lat="43.86041" lon="6.51572">
        <ele>871</ele>
      </trkpt>
      <trkpt lat="43.86024" lon="6.51569">
        <ele>866</ele>
      </trkpt>
      <trkpt lat="43.8602" lon="6.51563">
        <ele>865</ele>
      </trkpt>
      <trkpt lat="43.86002" lon="6.5153">
        <ele>858</ele>
      </trkpt>
      <trkpt lat="43.85989" lon="6.51521">
        <ele>859</ele>
      </trkpt>
      <trkpt lat="43.85972" lon="6.51502">
        <ele>855</ele>
      </trkpt>
      <trkpt lat="43.85958" lon="6.51478">
        <ele>851</ele>
      </trkpt>
      <trkpt lat="43.85932" lon="6.51457">
        <ele>848</ele>
      </trkpt>
      <trkpt lat="43.85918" lon="6.51451">
        <ele>847</ele>
      </trkpt>
      <trkpt lat="43.85903" lon="6.51444">
        <ele>846</ele>
      </trkpt>
      <trkpt lat="43.85873" lon="6.51433">
        <ele>844</ele>
      </trkpt>
      <trkpt lat="43.85841" lon="6.51407">
        <ele>840</ele>
      </trkpt>
      <trkpt lat="43.85824" lon="6.51391">
        <ele>838</ele>
      </trkpt>
      <trkpt lat="43.85812" lon="6.51363">
        <ele>835</ele>
      </trkpt>
      <trkpt lat="43.85812" lon="6.51354">
        <ele>834</ele>
      </trkpt>
      <trkpt lat="43.85807" lon="6.51337">
        <ele>833</ele>
      </trkpt>
      <trkpt lat="43.85788" lon="6.51312">
        <ele>831</ele>
      </trkpt>
      <trkpt lat="43.8578" lon="6.5129">
        <ele>829</ele>
      </trkpt>
      <trkpt lat="43.85775" lon="6.51282">
        <ele>828</ele>
      </trkpt>
      <trkpt lat="43.85765" lon="6.51271">
        <ele>826</ele>
      </trkpt>
      <trkpt lat="43.85755" lon="6.51263">
        <ele>826</ele>
      </trkpt>
      <trkpt lat="43.85742" lon="6.51257">
        <ele>827</ele>
      </trkpt>
      <trkpt lat="43.85742" lon="6.51256">
        <ele>827</ele>
      </trkpt>
      <trkpt lat="43.85741" lon="6.51257">
        <ele>827</ele>
      </trkpt>
      <trkpt lat="43.85733" lon="6.51259">
        <ele>829</ele>
      </trkpt>
      <trkpt lat="43.85715" lon="6.51266">
        <ele>831</ele>
      </trkpt>
      <trkpt lat="43.8571" lon="6.51268">
        <ele>832</ele>
      </trkpt>
      <trkpt lat="43.8569" lon="6.51266">
        <ele>831</ele>
      </trkpt>
      <trkpt lat="43.85684" lon="6.51256">
        <ele>829</ele>
      </trkpt>
      <trkpt lat="43.85679" lon="6.51243">
        <ele>827</ele>
      </trkpt>
      <trkpt lat="43.85669" lon="6.51226">
        <ele>825</ele>
      </trkpt>
      <trkpt lat="43.85652" lon="6.51208">
        <ele>822</ele>
      </trkpt>
      <trkpt lat="43.85646" lon="6.51202">
        <ele>821</ele>
      </trkpt>
      <trkpt lat="43.85622" lon="6.51192">
        <ele>820</ele>
      </trkpt>
      <trkpt lat="43.85606" lon="6.51198">
        <ele>822</ele>
      </trkpt>
      <trkpt lat="43.856" lon="6.512">
        <ele>822</ele>
      </trkpt>
      <trkpt lat="43.85586" lon="6.51206">
        <ele>822</ele>
      </trkpt>
      <trkpt lat="43.85578" lon="6.51216">
        <ele>822</ele>
      </trkpt>
      <trkpt lat="43.85561" lon="6.51243">
        <ele>822</ele>
      </trkpt>
      <trkpt lat="43.85558" lon="6.51247">
        <ele>822</ele>
      </trkpt>
      <trkpt lat="43.85546" lon="6.51284">
        <ele>816</ele>
      </trkpt>
      <trkpt lat="43.85543" lon="6.51302">
        <ele>814</ele>
      </trkpt>
      <trkpt lat="43.85545" lon="6.51325">
        <ele>810</ele>
      </trkpt>
      <trkpt lat="43.85545" lon="6.51332">
        <ele>810</ele>
      </trkpt>
      <trkpt lat="43.85555" lon="6.51341">
        <ele>812</ele>
      </trkpt>
      <trkpt lat="43.85565" lon="6.51356">
        <ele>814</ele>
      </trkpt>
      <trkpt lat="43.85574" lon="6.51373">
        <ele>819</ele>
      </trkpt>
      <trkpt lat="43.85583" lon="6.51383">
        <ele>825</ele>
      </trkpt>
      <trkpt lat="43.85588" lon="6.51389">
        <ele>828</ele>
      </trkpt>
      <trkpt lat="43.85586" lon="6.51404">
        <ele>831</ele>
      </trkpt>
      <trkpt lat="43.85576" lon="6.51425">
        <ele>831</ele>
      </trkpt>
      <trkpt lat="43.85567" lon="6.51448">
        <ele>827</ele>
      </trkpt>
      <trkpt lat="43.85569" lon="6.51472">
        <ele>829</ele>
      </trkpt>
      <trkpt lat="43.85574" lon="6.51487">
        <ele>831</ele>
      </trkpt>
      <trkpt lat="43.85575" lon="6.51509">
        <ele>833</ele>
      </trkpt>
      <trkpt lat="43.85576" lon="6.51514">
        <ele>833</ele>
      </trkpt>
      <trkpt lat="43.85577" lon="6.51523">
        <ele>834</ele>
      </trkpt>
      <trkpt lat="43.85572" lon="6.51532">
        <ele>834</ele>
      </trkpt>
      <trkpt lat="43.85569" lon="6.51532">
        <ele>835</ele>
      </trkpt>
      <trkpt lat="43.85568" lon="6.51532">
        <ele>835</ele>
      </trkpt>
      <trkpt lat="43.85565" lon="6.51528">
        <ele>835</ele>
      </trkpt>
      <trkpt lat="43.85563" lon="6.51519">
        <ele>834</ele>
      </trkpt>
      <trkpt lat="43.85559" lon="6.51511">
        <ele>832</ele>
      </trkpt>
      <trkpt lat="43.85549" lon="6.51494">
        <ele>827</ele>
      </trkpt>
      <trkpt lat="43.85545" lon="6.51482">
        <ele>824</ele>
      </trkpt>
      <trkpt lat="43.85535" lon="6.51463">
        <ele>819</ele>
      </trkpt>
      <trkpt lat="43.85532" lon="6.51458">
        <ele>819</ele>
      </trkpt>
      <trkpt lat="43.85523" lon="6.51429">
        <ele>815</ele>
      </trkpt>
      <trkpt lat="43.85521" lon="6.51422">
        <ele>814</ele>
      </trkpt>
      <trkpt lat="43.85514" lon="6.51414">
        <ele>813</ele>
      </trkpt>
      <trkpt lat="43.85487" lon="6.51386">
        <ele>812</ele>
      </trkpt>
      <trkpt lat="43.85482" lon="6.51382">
        <ele>812</ele>
      </trkpt>
      <trkpt lat="43.85475" lon="6.51373">
        <ele>812</ele>
      </trkpt>
      <trkpt lat="43.85468" lon="6.51363">
        <ele>812</ele>
      </trkpt>
      <trkpt lat="43.85463" lon="6.5136">
        <ele>813</ele>
      </trkpt>
      <trkpt lat="43.85462" lon="6.5136">
        <ele>813</ele>
      </trkpt>
      <trkpt lat="43.85456" lon="6.51357">
        <ele>814</ele>
      </trkpt>
      <trkpt lat="43.85452" lon="6.51346">
        <ele>812</ele>
      </trkpt>
      <trkpt lat="43.85446" lon="6.51333">
        <ele>810</ele>
      </trkpt>
      <trkpt lat="43.85435" lon="6.51315">
        <ele>809</ele>
      </trkpt>
      <trkpt lat="43.85432" lon="6.51312">
        <ele>809</ele>
      </trkpt>
      <trkpt lat="43.85419" lon="6.51296">
        <ele>808</ele>
      </trkpt>
      <trkpt lat="43.85412" lon="6.5129">
        <ele>809</ele>
      </trkpt>
      <trkpt lat="43.85396" lon="6.5128">
        <ele>810</ele>
      </trkpt>
      <trkpt lat="43.85384" lon="6.51288">
        <ele>813</ele>
      </trkpt>
      <trkpt lat="43.85371" lon="6.51282">
        <ele>814</ele>
      </trkpt>
      <trkpt lat="43.8536" lon="6.51278">
        <ele>814</ele>
      </trkpt>
      <trkpt lat="43.85346" lon="6.51269">
        <ele>813</ele>
      </trkpt>
      <trkpt lat="43.85335" lon="6.51256">
        <ele>810</ele>
      </trkpt>
      <trkpt lat="43.85326" lon="6.51247">
        <ele>808</ele>
      </trkpt>
      <trkpt lat="43.85311" lon="6.51238">
        <ele>805</ele>
      </trkpt>
      <trkpt lat="43.85308" lon="6.51236">
        <ele>805</ele>
      </trkpt>
      <trkpt lat="43.85294" lon="6.51226">
        <ele>803</ele>
      </trkpt>
      <trkpt lat="43.85277" lon="6.51216">
        <ele>801</ele>
      </trkpt>
      <trkpt lat="43.85267" lon="6.51211">
        <ele>799</ele>
      </trkpt>
      <trkpt lat="43.85258" lon="6.51207">
        <ele>798</ele>
      </trkpt>
      <trkpt lat="43.85234" lon="6.51203">
        <ele>796</ele>
      </trkpt>
      <trkpt lat="43.85229" lon="6.51199">
        <ele>795</ele>
      </trkpt>
      <trkpt lat="43.85205" lon="6.51177">
        <ele>791</ele>
      </trkpt>
      <trkpt lat="43.85191" lon="6.51161">
        <ele>788</ele>
      </trkpt>
      <trkpt lat="43.85179" lon="6.5114">
        <ele>786</ele>
      </trkpt>
      <trkpt lat="43.85171" lon="6.51105">
        <ele>781</ele>
      </trkpt>
      <trkpt lat="43.85168" lon="6.51078">
        <ele>776</ele>
      </trkpt>
      <trkpt lat="43.85169" lon="6.51068">
        <ele>775</ele>
      </trkpt>
      <trkpt lat="43.85169" lon="6.5105">
        <ele>774</ele>
      </trkpt>
      <trkpt lat="43.85166" lon="6.51025">
        <ele>772</ele>
      </trkpt>
      <trkpt lat="43.85161" lon="6.51001">
        <ele>770</ele>
      </trkpt>
      <trkpt lat="43.85154" lon="6.5097">
        <ele>767</ele>
      </trkpt>
      <trkpt lat="43.85147" lon="6.50928">
        <ele>763</ele>
      </trkpt>
      <trkpt lat="43.85146" lon="6.5092">
        <ele>762</ele>
      </trkpt>
      <trkpt lat="43.85134" lon="6.50882">
        <ele>760</ele>
      </trkpt>
      <trkpt lat="43.85128" lon="6.50871">
        <ele>759</ele>
      </trkpt>
      <trkpt lat="43.85123" lon="6.50864">
        <ele>759</ele>
      </trkpt>
      <trkpt lat="43.85103" lon="6.50856">
        <ele>761</ele>
      </trkpt>
      <trkpt lat="43.85082" lon="6.5085">
        <ele>762</ele>
      </trkpt>
      <trkpt lat="43.85075" lon="6.50848">
        <ele>762</ele>
      </trkpt>
      <trkpt lat="43.85066" lon="6.50837">
        <ele>759</ele>
      </trkpt>
      <trkpt lat="43.85057" lon="6.50832">
        <ele>756</ele>
      </trkpt>
      <trkpt lat="43.85045" lon="6.50838">
        <ele>756</ele>
      </trkpt>
      <trkpt lat="43.85017" lon="6.50853">
        <ele>756</ele>
      </trkpt>
      <trkpt lat="43.8498" lon="6.50874">
        <ele>754</ele>
      </trkpt>
      <trkpt lat="43.84934" lon="6.50897">
        <ele>749</ele>
      </trkpt>
      <trkpt lat="43.84904" lon="6.50914">
        <ele>748</ele>
      </trkpt>
      <trkpt lat="43.84879" lon="6.50942">
        <ele>747</ele>
      </trkpt>
      <trkpt lat="43.84853" lon="6.50987">
        <ele>744</ele>
      </trkpt>
      <trkpt lat="43.84831" lon="6.51033">
        <ele>740</ele>
      </trkpt>
      <trkpt lat="43.84801" lon="6.51093">
        <ele>738</ele>
      </trkpt>
      <trkpt lat="43.84785" lon="6.5114">
        <ele>738</ele>
      </trkpt>
      <trkpt lat="43.84768" lon="6.512">
        <ele>741</ele>
      </trkpt>
      <trkpt lat="43.84763" lon="6.51211">
        <ele>742</ele>
      </trkpt>
      <trkpt lat="43.84758" lon="6.51213">
        <ele>741</ele>
      </trkpt>
      <trkpt lat="43.84738" lon="6.51211">
        <ele>734</ele>
      </trkpt>
      <trkpt lat="43.84718" lon="6.51214">
        <ele>733</ele>
      </trkpt>
      <trkpt lat="43.84698" lon="6.51227">
        <ele>731</ele>
      </trkpt>
      <trkpt lat="43.84689" lon="6.5124">
        <ele>730</ele>
      </trkpt>
      <trkpt lat="43.84675" lon="6.51259">
        <ele>729</ele>
      </trkpt>
      <trkpt lat="43.84641" lon="6.51261">
        <ele>728</ele>
      </trkpt>
      <trkpt lat="43.8462" lon="6.51258">
        <ele>728</ele>
      </trkpt>
      <trkpt lat="43.84612" lon="6.51249">
        <ele>728</ele>
      </trkpt>
      <trkpt lat="43.84607" lon="6.51249">
        <ele>728</ele>
      </trkpt>
      <trkpt lat="43.84597" lon="6.51289">
        <ele>726</ele>
      </trkpt>
      <trkpt lat="43.84583" lon="6.51344">
        <ele>723</ele>
      </trkpt>
      <trkpt lat="43.84579" lon="6.51364">
        <ele>723</ele>
      </trkpt>
      <trkpt lat="43.84577" lon="6.51377">
        <ele>723</ele>
      </trkpt>
      <trkpt lat="43.84568" lon="6.51377">
        <ele>722</ele>
      </trkpt>
      <trkpt lat="43.8454" lon="6.51295">
        <ele>722</ele>
      </trkpt>
      <trkpt lat="43.84514" lon="6.51223">
        <ele>721</ele>
      </trkpt>
      <trkpt lat="43.84505" lon="6.51149">
        <ele>722</ele>
      </trkpt>
      <trkpt lat="43.84497" lon="6.51109">
        <ele>722</ele>
      </trkpt>
      <trkpt lat="43.8448" lon="6.51038">
        <ele>723</ele>
      </trkpt>
      <trkpt lat="43.84468" lon="6.50987">
        <ele>723</ele>
      </trkpt>
      <trkpt lat="43.84459" lon="6.50973">
        <ele>723</ele>
      </trkpt>
      <trkpt lat="43.8445" lon="6.50976">
        <ele>722</ele>
      </trkpt>
      <trkpt lat="43.84436" lon="6.50978">
        <ele>721</ele>
      </trkpt>
      <trkpt lat="43.8442" lon="6.50966">
        <ele>721</ele>
      </trkpt>
      <trkpt lat="43.84412" lon="6.50947">
        <ele>720</ele>
      </trkpt>
      <trkpt lat="43.84386" lon="6.50887">
        <ele>720</ele>
      </trkpt>
      <trkpt lat="43.84355" lon="6.50818">
        <ele>720</ele>
      </trkpt>
      <trkpt lat="43.8433" lon="6.50761">
        <ele>719</ele>
      </trkpt>
      <trkpt lat="43.84301" lon="6.50697">
        <ele>718</ele>
      </trkpt>
      <trkpt lat="43.8428" lon="6.50648">
        <ele>718</ele>
      </trkpt>
      <trkpt lat="43.84263" lon="6.50608">
        <ele>719</ele>
      </trkpt>
      <trkpt lat="43.84238" lon="6.50547">
        <ele>718</ele>
      </trkpt>
      <trkpt lat="43.84218" lon="6.50496">
        <ele>718</ele>
      </trkpt>
      <trkpt lat="43.84203" lon="6.50461">
        <ele>718</ele>
      </trkpt>
      <trkpt lat="43.84192" lon="6.50434">
        <ele>718</ele>
      </trkpt>
      <trkpt lat="43.84187" lon="6.5042">
        <ele>718</ele>
      </trkpt>
      <trkpt lat="43.84183" lon="6.50412">
        <ele>718</ele>
      </trkpt>
      <trkpt lat="43.84148" lon="6.50329">
        <ele>718</ele>
      </trkpt>
      <trkpt lat="43.84118" lon="6.50257">
        <ele>718</ele>
      </trkpt>
      <trkpt lat="43.84096" lon="6.50205">
        <ele>719</ele>
      </trkpt>
      <trkpt lat="43.84067" lon="6.50134">
        <ele>718</ele>
      </trkpt>
      <trkpt lat="43.84035" lon="6.50062">
        <ele>718</ele>
      </trkpt>
      <trkpt lat="43.84021" lon="6.50043">
        <ele>718</ele>
      </trkpt>
      <trkpt lat="43.83975" lon="6.49983">
        <ele>717</ele>
      </trkpt>
      <trkpt lat="43.83928" lon="6.49932">
        <ele>718</ele>
      </trkpt>
      <trkpt lat="43.83875" lon="6.49878">
        <ele>718</ele>
      </trkpt>
      <trkpt lat="43.83841" lon="6.49842">
        <ele>717</ele>
      </trkpt>
      <trkpt lat="43.83802" lon="6.49801">
        <ele>717</ele>
      </trkpt>
      <trkpt lat="43.83796" lon="6.49789">
        <ele>717</ele>
      </trkpt>
      <trkpt lat="43.83793" lon="6.49783">
        <ele>717</ele>
      </trkpt>
      <trkpt lat="43.83789" lon="6.4977">
        <ele>718</ele>
      </trkpt>
      <trkpt lat="43.83805" lon="6.49761">
        <ele>718</ele>
      </trkpt>
      <trkpt lat="43.83836" lon="6.49764">
        <ele>719</ele>
      </trkpt>
      <trkpt lat="43.83876" lon="6.49771">
        <ele>719</ele>
      </trkpt>
      <trkpt lat="43.83901" lon="6.4977">
        <ele>719</ele>
      </trkpt>
      <trkpt lat="43.8392" lon="6.49761">
        <ele>719</ele>
      </trkpt>
      <trkpt lat="43.83978" lon="6.49726">
        <ele>719</ele>
      </trkpt>
      <trkpt lat="43.84016" lon="6.49705">
        <ele>719</ele>
      </trkpt>
      <trkpt lat="43.84074" lon="6.49673">
        <ele>717</ele>
      </trkpt>
      <trkpt lat="43.84134" lon="6.49637">
        <ele>714</ele>
      </trkpt>
      <trkpt lat="43.84141" lon="6.49634">
        <ele>715</ele>
      </trkpt>
      <trkpt lat="43.84169" lon="6.49636">
        <ele>718</ele>
      </trkpt>
      <trkpt lat="43.84173" lon="6.49638">
        <ele>720</ele>
      </trkpt>
      <trkpt lat="43.84183" lon="6.49637">
        <ele>724</ele>
      </trkpt>
      <trkpt lat="43.84175" lon="6.49627">
        <ele>721</ele>
      </trkpt>
      <trkpt lat="43.84129" lon="6.49575">
        <ele>714</ele>
      </trkpt>
      <trkpt lat="43.84102" lon="6.49536">
        <ele>718</ele>
      </trkpt>
      <trkpt lat="43.84067" lon="6.4949">
        <ele>723</ele>
      </trkpt>
      <trkpt lat="43.84028" lon="6.49443">
        <ele>722</ele>
      </trkpt>
      <trkpt lat="43.84012" lon="6.49426">
        <ele>724</ele>
      </trkpt>
      <trkpt lat="43.83999" lon="6.49406">
        <ele>725</ele>
      </trkpt>
      <trkpt lat="43.83987" lon="6.4938">
        <ele>726</ele>
      </trkpt>
      <trkpt lat="43.83974" lon="6.49352">
        <ele>729</ele>
      </trkpt>
      <trkpt lat="43.8396" lon="6.49324">
        <ele>731</ele>
      </trkpt>
      <trkpt lat="43.83926" lon="6.49279">
        <ele>732</ele>
      </trkpt>
      <trkpt lat="43.83916" lon="6.49271">
        <ele>731</ele>
      </trkpt>
      <trkpt lat="43.83844" lon="6.49222">
        <ele>737</ele>
      </trkpt>
      <trkpt lat="43.83835" lon="6.49215">
        <ele>738</ele>
      </trkpt>
      <trkpt lat="43.83826" lon="6.4921">
        <ele>738</ele>
      </trkpt>
      <trkpt lat="43.83798" lon="6.49185">
        <ele>747</ele>
      </trkpt>
      <trkpt lat="43.83784" lon="6.49146">
        <ele>754</ele>
      </trkpt>
      <trkpt lat="43.83777" lon="6.49129">
        <ele>756</ele>
      </trkpt>
      <trkpt lat="43.83776" lon="6.49121">
        <ele>757</ele>
      </trkpt>
      <trkpt lat="43.83784" lon="6.49083">
        <ele>760</ele>
      </trkpt>
      <trkpt lat="43.83797" lon="6.49051">
        <ele>765</ele>
      </trkpt>
      <trkpt lat="43.838" lon="6.4904">
        <ele>765</ele>
      </trkpt>
      <trkpt lat="43.83802" lon="6.49027">
        <ele>766</ele>
      </trkpt>
      <trkpt lat="43.83811" lon="6.49006">
        <ele>766</ele>
      </trkpt>
      <trkpt lat="43.83818" lon="6.48997">
        <ele>766</ele>
      </trkpt>
      <trkpt lat="43.83827" lon="6.48989">
        <ele>766</ele>
      </trkpt>
      <trkpt lat="43.83851" lon="6.48964">
        <ele>767</ele>
      </trkpt>
      <trkpt lat="43.83864" lon="6.48938">
        <ele>766</ele>
      </trkpt>
      <trkpt lat="43.83868" lon="6.48918">
        <ele>764</ele>
      </trkpt>
      <trkpt lat="43.83856" lon="6.48911">
        <ele>762</ele>
      </trkpt>
      <trkpt lat="43.83836" lon="6.4891">
        <ele>760</ele>
      </trkpt>
      <trkpt lat="43.83828" lon="6.48908">
        <ele>759</ele>
      </trkpt>
      <trkpt lat="43.83809" lon="6.4889">
        <ele>758</ele>
      </trkpt>
      <trkpt lat="43.8378" lon="6.4881">
        <ele>771</ele>
      </trkpt>
      <trkpt lat="43.83777" lon="6.48798">
        <ele>773</ele>
      </trkpt>
      <trkpt lat="43.8375" lon="6.48754">
        <ele>776</ele>
      </trkpt>
      <trkpt lat="43.83711" lon="6.48729">
        <ele>775</ele>
      </trkpt>
      <trkpt lat="43.83666" lon="6.48723">
        <ele>772</ele>
      </trkpt>
      <trkpt lat="43.83655" lon="6.48722">
        <ele>771</ele>
      </trkpt>
      <trkpt lat="43.83629" lon="6.48713">
        <ele>772</ele>
      </trkpt>
      <trkpt lat="43.83624" lon="6.48707">
        <ele>774</ele>
      </trkpt>
      <trkpt lat="43.8363" lon="6.48677">
        <ele>783</ele>
      </trkpt>
      <trkpt lat="43.83636" lon="6.48665">
        <ele>786</ele>
      </trkpt>
      <trkpt lat="43.83658" lon="6.48632">
        <ele>795</ele>
      </trkpt>
      <trkpt lat="43.83666" lon="6.48622">
        <ele>800</ele>
      </trkpt>
      <trkpt lat="43.83682" lon="6.48583">
        <ele>805</ele>
      </trkpt>
      <trkpt lat="43.83685" lon="6.48553">
        <ele>809</ele>
      </trkpt>
      <trkpt lat="43.83681" lon="6.48522">
        <ele>809</ele>
      </trkpt>
      <trkpt lat="43.83671" lon="6.48479">
        <ele>808</ele>
      </trkpt>
      <trkpt lat="43.83668" lon="6.48464">
        <ele>809</ele>
      </trkpt>
      <trkpt lat="43.83655" lon="6.48392">
        <ele>815</ele>
      </trkpt>
      <trkpt lat="43.83628" lon="6.48334">
        <ele>812</ele>
      </trkpt>
      <trkpt lat="43.83605" lon="6.48277">
        <ele>814</ele>
      </trkpt>
      <trkpt lat="43.83585" lon="6.48246">
        <ele>813</ele>
      </trkpt>
      <trkpt lat="43.8356" lon="6.48221">
        <ele>809</ele>
      </trkpt>
      <trkpt lat="43.83516" lon="6.48191">
        <ele>804</ele>
      </trkpt>
      <trkpt lat="43.835" lon="6.48179">
        <ele>804</ele>
      </trkpt>
      <trkpt lat="43.8349" lon="6.48159">
        <ele>809</ele>
      </trkpt>
      <trkpt lat="43.83477" lon="6.48125">
        <ele>818</ele>
      </trkpt>
      <trkpt lat="43.83468" lon="6.48076">
        <ele>828</ele>
      </trkpt>
      <trkpt lat="43.83471" lon="6.48027">
        <ele>838</ele>
      </trkpt>
      <trkpt lat="43.8347" lon="6.48014">
        <ele>838</ele>
      </trkpt>
      <trkpt lat="43.8346" lon="6.47936">
        <ele>838</ele>
      </trkpt>
      <trkpt lat="43.83454" lon="6.47908">
        <ele>838</ele>
      </trkpt>
      <trkpt lat="43.83438" lon="6.47853">
        <ele>835</ele>
      </trkpt>
      <trkpt lat="43.83429" lon="6.47796">
        <ele>838</ele>
      </trkpt>
      <trkpt lat="43.83425" lon="6.4777">
        <ele>839</ele>
      </trkpt>
      <trkpt lat="43.8341" lon="6.47724">
        <ele>838</ele>
      </trkpt>
      <trkpt lat="43.83398" lon="6.47709">
        <ele>835</ele>
      </trkpt>
      <trkpt lat="43.8339" lon="6.47692">
        <ele>835</ele>
      </trkpt>
      <trkpt lat="43.83392" lon="6.47661">
        <ele>842</ele>
      </trkpt>
      <trkpt lat="43.83394" lon="6.4765">
        <ele>845</ele>
      </trkpt>
      <trkpt lat="43.83391" lon="6.47614">
        <ele>848</ele>
      </trkpt>
      <trkpt lat="43.83379" lon="6.47583">
        <ele>846</ele>
      </trkpt>
      <trkpt lat="43.83378" lon="6.47554">
        <ele>850</ele>
      </trkpt>
      <trkpt lat="43.83394" lon="6.475">
        <ele>862</ele>
      </trkpt>
      <trkpt lat="43.83395" lon="6.4744">
        <ele>863</ele>
      </trkpt>
      <trkpt lat="43.83392" lon="6.47395">
        <ele>863</ele>
      </trkpt>
      <trkpt lat="43.83393" lon="6.47385">
        <ele>866</ele>
      </trkpt>
      <trkpt lat="43.83396" lon="6.4733">
        <ele>871</ele>
      </trkpt>
      <trkpt lat="43.83393" lon="6.47306">
        <ele>869</ele>
      </trkpt>
      <trkpt lat="43.83392" lon="6.47252">
        <ele>868</ele>
      </trkpt>
      <trkpt lat="43.83403" lon="6.47183">
        <ele>871</ele>
      </trkpt>
      <trkpt lat="43.83403" lon="6.47173">
        <ele>871</ele>
      </trkpt>
      <trkpt lat="43.83395" lon="6.4713">
        <ele>868</ele>
      </trkpt>
      <trkpt lat="43.83388" lon="6.47115">
        <ele>866</ele>
      </trkpt>
      <trkpt lat="43.83367" lon="6.47076">
        <ele>862</ele>
      </trkpt>
      <trkpt lat="43.83357" lon="6.47061">
        <ele>862</ele>
      </trkpt>
      <trkpt lat="43.83351" lon="6.47042">
        <ele>865</ele>
      </trkpt>
      <trkpt lat="43.83352" lon="6.47007">
        <ele>868</ele>
      </trkpt>
      <trkpt lat="43.83361" lon="6.46968">
        <ele>872</ele>
      </trkpt>
      <trkpt lat="43.83372" lon="6.46906">
        <ele>866</ele>
      </trkpt>
      <trkpt lat="43.83381" lon="6.4684">
        <ele>864</ele>
      </trkpt>
      <trkpt lat="43.83385" lon="6.46821">
        <ele>864</ele>
      </trkpt>
      <trkpt lat="43.83394" lon="6.46805">
        <ele>866</ele>
      </trkpt>
      <trkpt lat="43.83412" lon="6.46795">
        <ele>870</ele>
      </trkpt>
      <trkpt lat="43.83441" lon="6.46778">
        <ele>873</ele>
      </trkpt>
      <trkpt lat="43.83474" lon="6.4677">
        <ele>881</ele>
      </trkpt>
      <trkpt lat="43.83479" lon="6.46767">
        <ele>882</ele>
      </trkpt>
      <trkpt lat="43.83484" lon="6.46759">
        <ele>882</ele>
      </trkpt>
      <trkpt lat="43.83471" lon="6.46739">
        <ele>873</ele>
      </trkpt>
      <trkpt lat="43.83457" lon="6.46711">
        <ele>867</ele>
      </trkpt>
      <trkpt lat="43.83454" lon="6.467">
        <ele>866</ele>
      </trkpt>
      <trkpt lat="43.83452" lon="6.46688">
        <ele>866</ele>
      </trkpt>
      <trkpt lat="43.83451" lon="6.46641">
        <ele>871</ele>
      </trkpt>
      <trkpt lat="43.8345" lon="6.46629">
        <ele>872</ele>
      </trkpt>
      <trkpt lat="43.83435" lon="6.46586">
        <ele>870</ele>
      </trkpt>
      <trkpt lat="43.83425" lon="6.46569">
        <ele>869</ele>
      </trkpt>
      <trkpt lat="43.83412" lon="6.4653">
        <ele>872</ele>
      </trkpt>
      <trkpt lat="43.83411" lon="6.46504">
        <ele>874</ele>
      </trkpt>
      <trkpt lat="43.83409" lon="6.46462">
        <ele>877</ele>
      </trkpt>
      <trkpt lat="43.83411" lon="6.46427">
        <ele>879</ele>
      </trkpt>
      <trkpt lat="43.83412" lon="6.46416">
        <ele>879</ele>
      </trkpt>
      <trkpt lat="43.83413" lon="6.46406">
        <ele>879</ele>
      </trkpt>
      <trkpt lat="43.83414" lon="6.46397">
        <ele>880</ele>
      </trkpt>
      <trkpt lat="43.83413" lon="6.46376">
        <ele>879</ele>
      </trkpt>
      <trkpt lat="43.83407" lon="6.46345">
        <ele>877</ele>
      </trkpt>
      <trkpt lat="43.83397" lon="6.46318">
        <ele>876</ele>
      </trkpt>
      <trkpt lat="43.83395" lon="6.4631">
        <ele>876</ele>
      </trkpt>
      <trkpt lat="43.83377" lon="6.46257">
        <ele>874</ele>
      </trkpt>
      <trkpt lat="43.83367" lon="6.46241">
        <ele>873</ele>
      </trkpt>
      <trkpt lat="43.83352" lon="6.46214">
        <ele>870</ele>
      </trkpt>
      <trkpt lat="43.83348" lon="6.46202">
        <ele>870</ele>
      </trkpt>
      <trkpt lat="43.83347" lon="6.46196">
        <ele>871</ele>
      </trkpt>
      <trkpt lat="43.8334" lon="6.46159">
        <ele>875</ele>
      </trkpt>
      <trkpt lat="43.8334" lon="6.46144">
        <ele>876</ele>
      </trkpt>
      <trkpt lat="43.83341" lon="6.4614">
        <ele>876</ele>
      </trkpt>
      <trkpt lat="43.83345" lon="6.46131">
        <ele>878</ele>
      </trkpt>
      <trkpt lat="43.83344" lon="6.46128">
        <ele>878</ele>
      </trkpt>
      <trkpt lat="43.8334" lon="6.46093">
        <ele>879</ele>
      </trkpt>
      <trkpt lat="43.83326" lon="6.46055">
        <ele>876</ele>
      </trkpt>
      <trkpt lat="43.83308" lon="6.46031">
        <ele>874</ele>
      </trkpt>
      <trkpt lat="43.83302" lon="6.46016">
        <ele>876</ele>
      </trkpt>
      <trkpt lat="43.83292" lon="6.45991">
        <ele>879</ele>
      </trkpt>
      <trkpt lat="43.83285" lon="6.45977">
        <ele>880</ele>
      </trkpt>
      <trkpt lat="43.83273" lon="6.45956">
        <ele>881</ele>
      </trkpt>
      <trkpt lat="43.83274" lon="6.45932">
        <ele>887</ele>
      </trkpt>
      <trkpt lat="43.83282" lon="6.45901">
        <ele>897</ele>
      </trkpt>
      <trkpt lat="43.83286" lon="6.45874">
        <ele>899</ele>
      </trkpt>
      <trkpt lat="43.83294" lon="6.45849">
        <ele>903</ele>
      </trkpt>
      <trkpt lat="43.83303" lon="6.45822">
        <ele>900</ele>
      </trkpt>
      <trkpt lat="43.83312" lon="6.45805">
        <ele>898</ele>
      </trkpt>
      <trkpt lat="43.83316" lon="6.45798">
        <ele>898</ele>
      </trkpt>
      <trkpt lat="43.83344" lon="6.45775">
        <ele>898</ele>
      </trkpt>
      <trkpt lat="43.83352" lon="6.45772">
        <ele>899</ele>
      </trkpt>
      <trkpt lat="43.83398" lon="6.4576">
        <ele>898</ele>
      </trkpt>
      <trkpt lat="43.83433" lon="6.45764">
        <ele>902</ele>
      </trkpt>
      <trkpt lat="43.8344" lon="6.45768">
        <ele>904</ele>
      </trkpt>
      <trkpt lat="43.83462" lon="6.4578">
        <ele>910</ele>
      </trkpt>
      <trkpt lat="43.8347" lon="6.45779">
        <ele>910</ele>
      </trkpt>
      <trkpt lat="43.83506" lon="6.45777">
        <ele>914</ele>
      </trkpt>
      <trkpt lat="43.83517" lon="6.45781">
        <ele>918</ele>
      </trkpt>
      <trkpt lat="43.83524" lon="6.45784">
        <ele>921</ele>
      </trkpt>
      <trkpt lat="43.83525" lon="6.45759">
        <ele>917</ele>
      </trkpt>
      <trkpt lat="43.83523" lon="6.45747">
        <ele>913</ele>
      </trkpt>
      <trkpt lat="43.83514" lon="6.45673">
        <ele>912</ele>
      </trkpt>
      <trkpt lat="43.8351" lon="6.4564">
        <ele>912</ele>
      </trkpt>
      <trkpt lat="43.83511" lon="6.45613">
        <ele>915</ele>
      </trkpt>
      <trkpt lat="43.83529" lon="6.45589">
        <ele>918</ele>
      </trkpt>
      <trkpt lat="43.83542" lon="6.45582">
        <ele>920</ele>
      </trkpt>
      <trkpt lat="43.83548" lon="6.45577">
        <ele>921</ele>
      </trkpt>
      <trkpt lat="43.83582" lon="6.45572">
        <ele>923</ele>
      </trkpt>
      <trkpt lat="43.83604" lon="6.45583">
        <ele>928</ele>
      </trkpt>
      <trkpt lat="43.83611" lon="6.45586">
        <ele>931</ele>
      </trkpt>
      <trkpt lat="43.83634" lon="6.45587">
        <ele>938</ele>
      </trkpt>
      <trkpt lat="43.8365" lon="6.45573">
        <ele>938</ele>
      </trkpt>
      <trkpt lat="43.8366" lon="6.45556">
        <ele>940</ele>
      </trkpt>
      <trkpt lat="43.83661" lon="6.4554">
        <ele>938</ele>
      </trkpt>
      <trkpt lat="43.83643" lon="6.4552">
        <ele>924</ele>
      </trkpt>
      <trkpt lat="43.83629" lon="6.45479">
        <ele>920</ele>
      </trkpt>
      <trkpt lat="43.83622" lon="6.45452">
        <ele>921</ele>
      </trkpt>
      <trkpt lat="43.83581" lon="6.45398">
        <ele>915</ele>
      </trkpt>
      <trkpt lat="43.83576" lon="6.45392">
        <ele>914</ele>
      </trkpt>
      <trkpt lat="43.8357" lon="6.45377">
        <ele>917</ele>
      </trkpt>
      <trkpt lat="43.83575" lon="6.45349">
        <ele>924</ele>
      </trkpt>
      <trkpt lat="43.83598" lon="6.45315">
        <ele>936</ele>
      </trkpt>
      <trkpt lat="43.83633" lon="6.45249">
        <ele>946</ele>
      </trkpt>
      <trkpt lat="43.83658" lon="6.45211">
        <ele>951</ele>
      </trkpt>
      <trkpt lat="43.83679" lon="6.45174">
        <ele>959</ele>
      </trkpt>
      <trkpt lat="43.83683" lon="6.45164">
        <ele>960</ele>
      </trkpt>
      <trkpt lat="43.83712" lon="6.45108">
        <ele>963</ele>
      </trkpt>
      <trkpt lat="43.83746" lon="6.45075">
        <ele>973</ele>
      </trkpt>
      <trkpt lat="43.83763" lon="6.45054">
        <ele>972</ele>
      </trkpt>
      <trkpt lat="43.8378" lon="6.45038">
        <ele>974</ele>
      </trkpt>
      <trkpt lat="43.83809" lon="6.45005">
        <ele>975</ele>
      </trkpt>
      <trkpt lat="43.8382" lon="6.44991">
        <ele>971</ele>
      </trkpt>
      <trkpt lat="43.83838" lon="6.44981">
        <ele>973</ele>
      </trkpt>
      <trkpt lat="43.83846" lon="6.44976">
        <ele>974</ele>
      </trkpt>
      <trkpt lat="43.83876" lon="6.4495">
        <ele>975</ele>
      </trkpt>
      <trkpt lat="43.83887" lon="6.44938">
        <ele>977</ele>
      </trkpt>
      <trkpt lat="43.83892" lon="6.44929">
        <ele>978</ele>
      </trkpt>
      <trkpt lat="43.83894" lon="6.4492">
        <ele>977</ele>
      </trkpt>
      <trkpt lat="43.83894" lon="6.44916">
        <ele>976</ele>
      </trkpt>
      <trkpt lat="43.83895" lon="6.44914">
        <ele>976</ele>
      </trkpt>
      <trkpt lat="43.83894" lon="6.44912">
        <ele>976</ele>
      </trkpt>
      <trkpt lat="43.83894" lon="6.44906">
        <ele>974</ele>
      </trkpt>
      <trkpt lat="43.83895" lon="6.44901">
        <ele>974</ele>
      </trkpt>
      <trkpt lat="43.83894" lon="6.44901">
        <ele>974</ele>
      </trkpt>
      <trkpt lat="43.83893" lon="6.44899">
        <ele>972</ele>
      </trkpt>
      <trkpt lat="43.83891" lon="6.44898">
        <ele>971</ele>
      </trkpt>
      <trkpt lat="43.83889" lon="6.44891">
        <ele>969</ele>
      </trkpt>
      <trkpt lat="43.83889" lon="6.44891">
        <ele>970</ele>
      </trkpt>
      <trkpt lat="43.83887" lon="6.44885">
        <ele>968</ele>
      </trkpt>
      <trkpt lat="43.8388" lon="6.44861">
        <ele>963</ele>
      </trkpt>
      <trkpt lat="43.83879" lon="6.44836">
        <ele>962</ele>
      </trkpt>
      <trkpt lat="43.83875" lon="6.44815">
        <ele>962</ele>
      </trkpt>
      <trkpt lat="43.83866" lon="6.44804">
        <ele>958</ele>
      </trkpt>
      <trkpt lat="43.83857" lon="6.44791">
        <ele>954</ele>
      </trkpt>
      <trkpt lat="43.83853" lon="6.44783">
        <ele>953</ele>
      </trkpt>
      <trkpt lat="43.8384" lon="6.44753">
        <ele>955</ele>
      </trkpt>
      <trkpt lat="43.83831" lon="6.44735">
        <ele>957</ele>
      </trkpt>
      <trkpt lat="43.83827" lon="6.44714">
        <ele>963</ele>
      </trkpt>
      <trkpt lat="43.83817" lon="6.44694">
        <ele>965</ele>
      </trkpt>
      <trkpt lat="43.83807" lon="6.44681">
        <ele>964</ele>
      </trkpt>
      <trkpt lat="43.83796" lon="6.44672">
        <ele>962</ele>
      </trkpt>
      <trkpt lat="43.83771" lon="6.44668">
        <ele>951</ele>
      </trkpt>
      <trkpt lat="43.83747" lon="6.44662">
        <ele>949</ele>
      </trkpt>
      <trkpt lat="43.83743" lon="6.44661">
        <ele>949</ele>
      </trkpt>
      <trkpt lat="43.83725" lon="6.44669">
        <ele>941</ele>
      </trkpt>
      <trkpt lat="43.83712" lon="6.44672">
        <ele>941</ele>
      </trkpt>
      <trkpt lat="43.83708" lon="6.44673">
        <ele>941</ele>
      </trkpt>
      <trkpt lat="43.83693" lon="6.44684">
        <ele>937</ele>
      </trkpt>
      <trkpt lat="43.83682" lon="6.44683">
        <ele>939</ele>
      </trkpt>
      <trkpt lat="43.83663" lon="6.44667">
        <ele>947</ele>
      </trkpt>
      <trkpt lat="43.83652" lon="6.4465">
        <ele>955</ele>
      </trkpt>
      <trkpt lat="43.83635" lon="6.44634">
        <ele>963</ele>
      </trkpt>
      <trkpt lat="43.83625" lon="6.44627">
        <ele>962</ele>
      </trkpt>
      <trkpt lat="43.83602" lon="6.44614">
        <ele>962</ele>
      </trkpt>
      <trkpt lat="43.83579" lon="6.446">
        <ele>966</ele>
      </trkpt>
      <trkpt lat="43.83569" lon="6.44589">
        <ele>970</ele>
      </trkpt>
      <trkpt lat="43.83561" lon="6.44579">
        <ele>973</ele>
      </trkpt>
      <trkpt lat="43.83555" lon="6.44573">
        <ele>975</ele>
      </trkpt>
      <trkpt lat="43.83551" lon="6.44564">
        <ele>978</ele>
      </trkpt>
      <trkpt lat="43.83551" lon="6.44548">
        <ele>983</ele>
      </trkpt>
      <trkpt lat="43.83555" lon="6.44522">
        <ele>990</ele>
      </trkpt>
      <trkpt lat="43.83557" lon="6.44509">
        <ele>994</ele>
      </trkpt>
      <trkpt lat="43.83557" lon="6.445">
        <ele>996</ele>
      </trkpt>
      <trkpt lat="43.83564" lon="6.44475">
        <ele>998</ele>
      </trkpt>
      <trkpt lat="43.83575" lon="6.44441">
        <ele>1002</ele>
      </trkpt>
      <trkpt lat="43.83585" lon="6.44411">
        <ele>1002</ele>
      </trkpt>
      <trkpt lat="43.83592" lon="6.44382">
        <ele>1001</ele>
      </trkpt>
      <trkpt lat="43.83596" lon="6.44364">
        <ele>1000</ele>
      </trkpt>
      <trkpt lat="43.83603" lon="6.44337">
        <ele>999</ele>
      </trkpt>
      <trkpt lat="43.83606" lon="6.44322">
        <ele>998</ele>
      </trkpt>
      <trkpt lat="43.8361" lon="6.44313">
        <ele>997</ele>
      </trkpt>
      <trkpt lat="43.83615" lon="6.44301">
        <ele>996</ele>
      </trkpt>
      <trkpt lat="43.83621" lon="6.44296">
        <ele>996</ele>
      </trkpt>
      <trkpt lat="43.83622" lon="6.44294">
        <ele>996</ele>
      </trkpt>
      <trkpt lat="43.83631" lon="6.44282">
        <ele>997</ele>
      </trkpt>
      <trkpt lat="43.83634" lon="6.44278">
        <ele>997</ele>
      </trkpt>
      <trkpt lat="43.83639" lon="6.4427">
        <ele>997</ele>
      </trkpt>
      <trkpt lat="43.83644" lon="6.44256">
        <ele>996</ele>
      </trkpt>
      <trkpt lat="43.83646" lon="6.44237">
        <ele>993</ele>
      </trkpt>
      <trkpt lat="43.83645" lon="6.44211">
        <ele>987</ele>
      </trkpt>
      <trkpt lat="43.83647" lon="6.44199">
        <ele>985</ele>
      </trkpt>
      <trkpt lat="43.83649" lon="6.44186">
        <ele>985</ele>
      </trkpt>
      <trkpt lat="43.83649" lon="6.44179">
        <ele>985</ele>
      </trkpt>
      <trkpt lat="43.83653" lon="6.44132">
        <ele>983</ele>
      </trkpt>
      <trkpt lat="43.83664" lon="6.44071">
        <ele>979</ele>
      </trkpt>
      <trkpt lat="43.83669" lon="6.44051">
        <ele>976</ele>
      </trkpt>
      <trkpt lat="43.83686" lon="6.4403">
        <ele>975</ele>
      </trkpt>
      <trkpt lat="43.83705" lon="6.44016">
        <ele>976</ele>
      </trkpt>
      <trkpt lat="43.8372" lon="6.44007">
        <ele>974</ele>
      </trkpt>
      <trkpt lat="43.83745" lon="6.44002">
        <ele>977</ele>
      </trkpt>
      <trkpt lat="43.83757" lon="6.43985">
        <ele>977</ele>
      </trkpt>
      <trkpt lat="43.83758" lon="6.43978">
        <ele>976</ele>
      </trkpt>
      <trkpt lat="43.83765" lon="6.43935">
        <ele>976</ele>
      </trkpt>
      <trkpt lat="43.83765" lon="6.43896">
        <ele>979</ele>
      </trkpt>
      <trkpt lat="43.83762" lon="6.43871">
        <ele>977</ele>
      </trkpt>
      <trkpt lat="43.83756" lon="6.43834">
        <ele>975</ele>
      </trkpt>
      <trkpt lat="43.83755" lon="6.43805">
        <ele>974</ele>
      </trkpt>
      <trkpt lat="43.83753" lon="6.43774">
        <ele>973</ele>
      </trkpt>
      <trkpt lat="43.83755" lon="6.43756">
        <ele>971</ele>
      </trkpt>
      <trkpt lat="43.83756" lon="6.43747">
        <ele>970</ele>
      </trkpt>
      <trkpt lat="43.83759" lon="6.4374">
        <ele>970</ele>
      </trkpt>
      <trkpt lat="43.83767" lon="6.4373">
        <ele>971</ele>
      </trkpt>
      <trkpt lat="43.83772" lon="6.43728">
        <ele>972</ele>
      </trkpt>
      <trkpt lat="43.83778" lon="6.43716">
        <ele>971</ele>
      </trkpt>
      <trkpt lat="43.83786" lon="6.43706">
        <ele>970</ele>
      </trkpt>
      <trkpt lat="43.83796" lon="6.43693">
        <ele>967</ele>
      </trkpt>
      <trkpt lat="43.83797" lon="6.43692">
        <ele>967</ele>
      </trkpt>
      <trkpt lat="43.83805" lon="6.43685">
        <ele>965</ele>
      </trkpt>
      <trkpt lat="43.83811" lon="6.43682">
        <ele>964</ele>
      </trkpt>
      <trkpt lat="43.83821" lon="6.43672">
        <ele>962</ele>
      </trkpt>
      <trkpt lat="43.83832" lon="6.4366">
        <ele>960</ele>
      </trkpt>
      <trkpt lat="43.83843" lon="6.43652">
        <ele>959</ele>
      </trkpt>
      <trkpt lat="43.83853" lon="6.43649">
        <ele>961</ele>
      </trkpt>
      <trkpt lat="43.83861" lon="6.43646">
        <ele>961</ele>
      </trkpt>
      <trkpt lat="43.8387" lon="6.43642">
        <ele>962</ele>
      </trkpt>
      <trkpt lat="43.83875" lon="6.4364">
        <ele>962</ele>
      </trkpt>
      <trkpt lat="43.83881" lon="6.43638">
        <ele>963</ele>
      </trkpt>
      <trkpt lat="43.83886" lon="6.43636">
        <ele>963</ele>
      </trkpt>
      <trkpt lat="43.83898" lon="6.43625">
        <ele>962</ele>
      </trkpt>
      <trkpt lat="43.83912" lon="6.43614">
        <ele>960</ele>
      </trkpt>
      <trkpt lat="43.83922" lon="6.43607">
        <ele>960</ele>
      </trkpt>
      <trkpt lat="43.83935" lon="6.43598">
        <ele>959</ele>
      </trkpt>
      <trkpt lat="43.83947" lon="6.43584">
        <ele>956</ele>
      </trkpt>
      <trkpt lat="43.83955" lon="6.43575">
        <ele>953</ele>
      </trkpt>
      <trkpt lat="43.83964" lon="6.43564">
        <ele>950</ele>
      </trkpt>
      <trkpt lat="43.83972" lon="6.43555">
        <ele>947</ele>
      </trkpt>
      <trkpt lat="43.8398" lon="6.43545">
        <ele>945</ele>
      </trkpt>
      <trkpt lat="43.83985" lon="6.43537">
        <ele>942</ele>
      </trkpt>
      <trkpt lat="43.83987" lon="6.43533">
        <ele>942</ele>
      </trkpt>
      <trkpt lat="43.83994" lon="6.43523">
        <ele>940</ele>
      </trkpt>
      <trkpt lat="43.84002" lon="6.43508">
        <ele>937</ele>
      </trkpt>
      <trkpt lat="43.84006" lon="6.43494">
        <ele>934</ele>
      </trkpt>
      <trkpt lat="43.84006" lon="6.43484">
        <ele>931</ele>
      </trkpt>
      <trkpt lat="43.84004" lon="6.43473">
        <ele>926</ele>
      </trkpt>
      <trkpt lat="43.84004" lon="6.43471">
        <ele>926</ele>
      </trkpt>
      <trkpt lat="43.83999" lon="6.4346">
        <ele>923</ele>
      </trkpt>
      <trkpt lat="43.83994" lon="6.43448">
        <ele>920</ele>
      </trkpt>
      <trkpt lat="43.83989" lon="6.43437">
        <ele>918</ele>
      </trkpt>
      <trkpt lat="43.83985" lon="6.43428">
        <ele>916</ele>
      </trkpt>
      <trkpt lat="43.83981" lon="6.43418">
        <ele>914</ele>
      </trkpt>
      <trkpt lat="43.83976" lon="6.43408">
        <ele>911</ele>
      </trkpt>
      <trkpt lat="43.83976" lon="6.43407">
        <ele>911</ele>
      </trkpt>
      <trkpt lat="43.83972" lon="6.43399">
        <ele>909</ele>
      </trkpt>
      <trkpt lat="43.83967" lon="6.43404">
        <ele>907</ele>
      </trkpt>
      <trkpt lat="43.83965" lon="6.4341">
        <ele>907</ele>
      </trkpt>
      <trkpt lat="43.83965" lon="6.43421">
        <ele>908</ele>
      </trkpt>
      <trkpt lat="43.83963" lon="6.43423">
        <ele>907</ele>
      </trkpt>
      <trkpt lat="43.83958" lon="6.43437">
        <ele>907</ele>
      </trkpt>
      <trkpt lat="43.83952" lon="6.4345">
        <ele>906</ele>
      </trkpt>
      <trkpt lat="43.83946" lon="6.43464">
        <ele>907</ele>
      </trkpt>
      <trkpt lat="43.83939" lon="6.43483">
        <ele>910</ele>
      </trkpt>
      <trkpt lat="43.83932" lon="6.43491">
        <ele>911</ele>
      </trkpt>
      <trkpt lat="43.83923" lon="6.43497">
        <ele>911</ele>
      </trkpt>
      <trkpt lat="43.83919" lon="6.43499">
        <ele>911</ele>
      </trkpt>
      <trkpt lat="43.83911" lon="6.43496">
        <ele>908</ele>
      </trkpt>
      <trkpt lat="43.83912" lon="6.43488">
        <ele>905</ele>
      </trkpt>
      <trkpt lat="43.83917" lon="6.4347">
        <ele>899</ele>
      </trkpt>
      <trkpt lat="43.83916" lon="6.43463">
        <ele>898</ele>
      </trkpt>
      <trkpt lat="43.83914" lon="6.43449">
        <ele>895</ele>
      </trkpt>
      <trkpt lat="43.83913" lon="6.43432">
        <ele>892</ele>
      </trkpt>
      <trkpt lat="43.83914" lon="6.43429">
        <ele>891</ele>
      </trkpt>
      <trkpt lat="43.83913" lon="6.4342">
        <ele>890</ele>
      </trkpt>
      <trkpt lat="43.83908" lon="6.43412">
        <ele>887</ele>
      </trkpt>
      <trkpt lat="43.83905" lon="6.4341">
        <ele>886</ele>
      </trkpt>
      <trkpt lat="43.83897" lon="6.43408">
        <ele>884</ele>
      </trkpt>
      <trkpt lat="43.8389" lon="6.43408">
        <ele>882</ele>
      </trkpt>
      <trkpt lat="43.8389" lon="6.43408">
        <ele>882</ele>
      </trkpt>
      <trkpt lat="43.83885" lon="6.43404">
        <ele>880</ele>
      </trkpt>
      <trkpt lat="43.83876" lon="6.43388">
        <ele>881</ele>
      </trkpt>
      <trkpt lat="43.83854" lon="6.43351">
        <ele>882</ele>
      </trkpt>
      <trkpt lat="43.83845" lon="6.4334">
        <ele>880</ele>
      </trkpt>
      <trkpt lat="43.83821" lon="6.43296">
        <ele>877</ele>
      </trkpt>
      <trkpt lat="43.83778" lon="6.43227">
        <ele>874</ele>
      </trkpt>
      <trkpt lat="43.8376" lon="6.43202">
        <ele>874</ele>
      </trkpt>
      <trkpt lat="43.83747" lon="6.43175">
        <ele>876</ele>
      </trkpt>
      <trkpt lat="43.83729" lon="6.43139">
        <ele>878</ele>
      </trkpt>
      <trkpt lat="43.83712" lon="6.43121">
        <ele>876</ele>
      </trkpt>
      <trkpt lat="43.83709" lon="6.43116">
        <ele>876</ele>
      </trkpt>
      <trkpt lat="43.83704" lon="6.43087">
        <ele>881</ele>
      </trkpt>
      <trkpt lat="43.83707" lon="6.43056">
        <ele>887</ele>
      </trkpt>
      <trkpt lat="43.83707" lon="6.43034">
        <ele>889</ele>
      </trkpt>
      <trkpt lat="43.83708" lon="6.43013">
        <ele>892</ele>
      </trkpt>
      <trkpt lat="43.83709" lon="6.4299">
        <ele>893</ele>
      </trkpt>
      <trkpt lat="43.83709" lon="6.42958">
        <ele>895</ele>
      </trkpt>
      <trkpt lat="43.83711" lon="6.42925">
        <ele>895</ele>
      </trkpt>
      <trkpt lat="43.83713" lon="6.42886">
        <ele>894</ele>
      </trkpt>
      <trkpt lat="43.83712" lon="6.42855">
        <ele>892</ele>
      </trkpt>
      <trkpt lat="43.83712" lon="6.42849">
        <ele>891</ele>
      </trkpt>
      <trkpt lat="43.8372" lon="6.42811">
        <ele>891</ele>
      </trkpt>
      <trkpt lat="43.83724" lon="6.42806">
        <ele>892</ele>
      </trkpt>
      <trkpt lat="43.83742" lon="6.4279">
        <ele>897</ele>
      </trkpt>
      <trkpt lat="43.83755" lon="6.42764">
        <ele>896</ele>
      </trkpt>
      <trkpt lat="43.83769" lon="6.42748">
        <ele>895</ele>
      </trkpt>
      <trkpt lat="43.83773" lon="6.42746">
        <ele>895</ele>
      </trkpt>
      <trkpt lat="43.83794" lon="6.42737">
        <ele>898</ele>
      </trkpt>
      <trkpt lat="43.83816" lon="6.42726">
        <ele>901</ele>
      </trkpt>
      <trkpt lat="43.83828" lon="6.42719">
        <ele>902</ele>
      </trkpt>
      <trkpt lat="43.8384" lon="6.42708">
        <ele>902</ele>
      </trkpt>
      <trkpt lat="43.83843" lon="6.42705">
        <ele>903</ele>
      </trkpt>
      <trkpt lat="43.83846" lon="6.42687">
        <ele>900</ele>
      </trkpt>
      <trkpt lat="43.83839" lon="6.42672">
        <ele>894</ele>
      </trkpt>
      <trkpt lat="43.83834" lon="6.42646">
        <ele>888</ele>
      </trkpt>
      <trkpt lat="43.83832" lon="6.42623">
        <ele>886</ele>
      </trkpt>
      <trkpt lat="43.83831" lon="6.42606">
        <ele>886</ele>
      </trkpt>
      <trkpt lat="43.83839" lon="6.42595">
        <ele>888</ele>
      </trkpt>
      <trkpt lat="43.83858" lon="6.42591">
        <ele>893</ele>
      </trkpt>
      <trkpt lat="43.83862" lon="6.42591">
        <ele>894</ele>
      </trkpt>
      <trkpt lat="43.83883" lon="6.42587">
        <ele>900</ele>
      </trkpt>
      <trkpt lat="43.83889" lon="6.42587">
        <ele>901</ele>
      </trkpt>
      <trkpt lat="43.83895" lon="6.4258">
        <ele>900</ele>
      </trkpt>
      <trkpt lat="43.83896" lon="6.42575">
        <ele>899</ele>
      </trkpt>
      <trkpt lat="43.83898" lon="6.42567">
        <ele>897</ele>
      </trkpt>
      <trkpt lat="43.83894" lon="6.42559">
        <ele>893</ele>
      </trkpt>
      <trkpt lat="43.83897" lon="6.42545">
        <ele>890</ele>
      </trkpt>
      <trkpt lat="43.83896" lon="6.42537">
        <ele>886</ele>
      </trkpt>
      <trkpt lat="43.83894" lon="6.42523">
        <ele>883</ele>
      </trkpt>
      <trkpt lat="43.83892" lon="6.42513">
        <ele>880</ele>
      </trkpt>
      <trkpt lat="43.83891" lon="6.425">
        <ele>878</ele>
      </trkpt>
      <trkpt lat="43.83895" lon="6.42485">
        <ele>877</ele>
      </trkpt>
      <trkpt lat="43.83907" lon="6.42474">
        <ele>879</ele>
      </trkpt>
      <trkpt lat="43.83925" lon="6.42462">
        <ele>880</ele>
      </trkpt>
      <trkpt lat="43.8394" lon="6.4246">
        <ele>883</ele>
      </trkpt>
      <trkpt lat="43.83941" lon="6.4246">
        <ele>883</ele>
      </trkpt>
      <trkpt lat="43.83944" lon="6.42449">
        <ele>881</ele>
      </trkpt>
      <trkpt lat="43.83952" lon="6.4242">
        <ele>877</ele>
      </trkpt>
      <trkpt lat="43.8396" lon="6.42413">
        <ele>879</ele>
      </trkpt>
      <trkpt lat="43.83967" lon="6.42399">
        <ele>882</ele>
      </trkpt>
      <trkpt lat="43.83964" lon="6.42382">
        <ele>880</ele>
      </trkpt>
      <trkpt lat="43.83952" lon="6.42376">
        <ele>874</ele>
      </trkpt>
      <trkpt lat="43.83928" lon="6.42374">
        <ele>865</ele>
      </trkpt>
      <trkpt lat="43.83919" lon="6.42362">
        <ele>863</ele>
      </trkpt>
      <trkpt lat="43.83907" lon="6.4234">
        <ele>863</ele>
      </trkpt>
      <trkpt lat="43.83898" lon="6.42328">
        <ele>867</ele>
      </trkpt>
      <trkpt lat="43.83874" lon="6.42308">
        <ele>869</ele>
      </trkpt>
      <trkpt lat="43.8384" lon="6.42302">
        <ele>866</ele>
      </trkpt>
      <trkpt lat="43.83827" lon="6.42305">
        <ele>864</ele>
      </trkpt>
      <trkpt lat="43.83815" lon="6.42306">
        <ele>863</ele>
      </trkpt>
      <trkpt lat="43.83807" lon="6.42304">
        <ele>864</ele>
      </trkpt>
      <trkpt lat="43.83814" lon="6.42292">
        <ele>868</ele>
      </trkpt>
      <trkpt lat="43.83817" lon="6.42279">
        <ele>873</ele>
      </trkpt>
      <trkpt lat="43.83796" lon="6.42264">
        <ele>880</ele>
      </trkpt>
      <trkpt lat="43.83777" lon="6.42252">
        <ele>884</ele>
      </trkpt>
      <trkpt lat="43.83765" lon="6.42242">
        <ele>886</ele>
      </trkpt>
      <trkpt lat="43.8375" lon="6.42219">
        <ele>891</ele>
      </trkpt>
      <trkpt lat="43.83741" lon="6.42207">
        <ele>893</ele>
      </trkpt>
      <trkpt lat="43.83726" lon="6.4221">
        <ele>891</ele>
      </trkpt>
      <trkpt lat="43.83718" lon="6.42216">
        <ele>889</ele>
      </trkpt>
      <trkpt lat="43.83718" lon="6.42217">
        <ele>888</ele>
      </trkpt>
      <trkpt lat="43.83714" lon="6.42223">
        <ele>887</ele>
      </trkpt>
      <trkpt lat="43.83705" lon="6.42226">
        <ele>885</ele>
      </trkpt>
      <trkpt lat="43.83695" lon="6.42216">
        <ele>886</ele>
      </trkpt>
      <trkpt lat="43.83686" lon="6.422">
        <ele>889</ele>
      </trkpt>
      <trkpt lat="43.83675" lon="6.42179">
        <ele>892</ele>
      </trkpt>
      <trkpt lat="43.83669" lon="6.4216">
        <ele>894</ele>
      </trkpt>
      <trkpt lat="43.83665" lon="6.42135">
        <ele>898</ele>
      </trkpt>
      <trkpt lat="43.83669" lon="6.42096">
        <ele>906</ele>
      </trkpt>
      <trkpt lat="43.83671" lon="6.42078">
        <ele>910</ele>
      </trkpt>
      <trkpt lat="43.83675" lon="6.42057">
        <ele>916</ele>
      </trkpt>
      <trkpt lat="43.83673" lon="6.42044">
        <ele>917</ele>
      </trkpt>
      <trkpt lat="43.83661" lon="6.42032">
        <ele>915</ele>
      </trkpt>
      <trkpt lat="43.8363" lon="6.42017">
        <ele>905</ele>
      </trkpt>
      <trkpt lat="43.83591" lon="6.42009">
        <ele>898</ele>
      </trkpt>
      <trkpt lat="43.83583" lon="6.42007">
        <ele>898</ele>
      </trkpt>
      <trkpt lat="43.83559" lon="6.41989">
        <ele>904</ele>
      </trkpt>
      <trkpt lat="43.83548" lon="6.41948">
        <ele>918</ele>
      </trkpt>
      <trkpt lat="43.83547" lon="6.41937">
        <ele>920</ele>
      </trkpt>
      <trkpt lat="43.83536" lon="6.419">
        <ele>926</ele>
      </trkpt>
      <trkpt lat="43.83506" lon="6.41854">
        <ele>925</ele>
      </trkpt>
      <trkpt lat="43.83487" lon="6.41824">
        <ele>926</ele>
      </trkpt>
      <trkpt lat="43.83478" lon="6.41797">
        <ele>931</ele>
      </trkpt>
      <trkpt lat="43.83464" lon="6.41761">
        <ele>937</ele>
      </trkpt>
      <trkpt lat="43.83444" lon="6.41719">
        <ele>940</ele>
      </trkpt>
      <trkpt lat="43.83433" lon="6.41713">
        <ele>936</ele>
      </trkpt>
      <trkpt lat="43.83416" lon="6.41686">
        <ele>939</ele>
      </trkpt>
      <trkpt lat="43.834" lon="6.41647">
        <ele>948</ele>
      </trkpt>
      <trkpt lat="43.83387" lon="6.41622">
        <ele>952</ele>
      </trkpt>
      <trkpt lat="43.83379" lon="6.41606">
        <ele>953</ele>
      </trkpt>
      <trkpt lat="43.83371" lon="6.41592">
        <ele>954</ele>
      </trkpt>
      <trkpt lat="43.83364" lon="6.41562">
        <ele>960</ele>
      </trkpt>
      <trkpt lat="43.83363" lon="6.41533">
        <ele>966</ele>
      </trkpt>
      <trkpt lat="43.83359" lon="6.41503">
        <ele>971</ele>
      </trkpt>
      <trkpt lat="43.83358" lon="6.41447">
        <ele>979</ele>
      </trkpt>
      <trkpt lat="43.83356" lon="6.41426">
        <ele>981</ele>
      </trkpt>
      <trkpt lat="43.83348" lon="6.41374">
        <ele>985</ele>
      </trkpt>
      <trkpt lat="43.83338" lon="6.41344">
        <ele>986</ele>
      </trkpt>
      <trkpt lat="43.83327" lon="6.41306">
        <ele>987</ele>
      </trkpt>
      <trkpt lat="43.83317" lon="6.41267">
        <ele>989</ele>
      </trkpt>
      <trkpt lat="43.83317" lon="6.41251">
        <ele>992</ele>
      </trkpt>
      <trkpt lat="43.83319" lon="6.41233">
        <ele>996</ele>
      </trkpt>
      <trkpt lat="43.83325" lon="6.41216">
        <ele>1001</ele>
      </trkpt>
      <trkpt lat="43.83337" lon="6.41182">
        <ele>1011</ele>
      </trkpt>
      <trkpt lat="43.83339" lon="6.41137">
        <ele>1004</ele>
      </trkpt>
      <trkpt lat="43.83337" lon="6.4111">
        <ele>1002</ele>
      </trkpt>
      <trkpt lat="43.83327" lon="6.41083">
        <ele>995</ele>
      </trkpt>
      <trkpt lat="43.83297" lon="6.41052">
        <ele>985</ele>
      </trkpt>
      <trkpt lat="43.83264" lon="6.4102">
        <ele>984</ele>
      </trkpt>
      <trkpt lat="43.8323" lon="6.40989">
        <ele>985</ele>
      </trkpt>
      <trkpt lat="43.83202" lon="6.40959">
        <ele>988</ele>
      </trkpt>
      <trkpt lat="43.83192" lon="6.4093">
        <ele>997</ele>
      </trkpt>
      <trkpt lat="43.83189" lon="6.40909">
        <ele>1001</ele>
      </trkpt>
      <trkpt lat="43.83182" lon="6.40868">
        <ele>1008</ele>
      </trkpt>
      <trkpt lat="43.83182" lon="6.40858">
        <ele>1009</ele>
      </trkpt>
      <trkpt lat="43.83184" lon="6.40806">
        <ele>1020</ele>
      </trkpt>
      <trkpt lat="43.83185" lon="6.40727">
        <ele>1029</ele>
      </trkpt>
      <trkpt lat="43.83175" lon="6.40695">
        <ele>1028</ele>
      </trkpt>
      <trkpt lat="43.83171" lon="6.40688">
        <ele>1027</ele>
      </trkpt>
      <trkpt lat="43.83151" lon="6.40633">
        <ele>1030</ele>
      </trkpt>
      <trkpt lat="43.83132" lon="6.406">
        <ele>1032</ele>
      </trkpt>
      <trkpt lat="43.8311" lon="6.40596">
        <ele>1025</ele>
      </trkpt>
      <trkpt lat="43.83106" lon="6.40597">
        <ele>1024</ele>
      </trkpt>
      <trkpt lat="43.83097" lon="6.40596">
        <ele>1024</ele>
      </trkpt>
      <trkpt lat="43.83094" lon="6.40594">
        <ele>1024</ele>
      </trkpt>
      <trkpt lat="43.83083" lon="6.40596">
        <ele>1023</ele>
      </trkpt>
      <trkpt lat="43.83047" lon="6.40605">
        <ele>1023</ele>
      </trkpt>
      <trkpt lat="43.83019" lon="6.40625">
        <ele>1022</ele>
      </trkpt>
      <trkpt lat="43.82988" lon="6.40659">
        <ele>1021</ele>
      </trkpt>
      <trkpt lat="43.82963" lon="6.40687">
        <ele>1023</ele>
      </trkpt>
      <trkpt lat="43.82936" lon="6.40711">
        <ele>1029</ele>
      </trkpt>
      <trkpt lat="43.8292" lon="6.40728">
        <ele>1031</ele>
      </trkpt>
      <trkpt lat="43.82892" lon="6.40742">
        <ele>1037</ele>
      </trkpt>
      <trkpt lat="43.82878" lon="6.40743">
        <ele>1041</ele>
      </trkpt>
      <trkpt lat="43.82864" lon="6.40745">
        <ele>1043</ele>
      </trkpt>
      <trkpt lat="43.82856" lon="6.40748">
        <ele>1044</ele>
      </trkpt>
      <trkpt lat="43.8285" lon="6.40749">
        <ele>1045</ele>
      </trkpt>
      <trkpt lat="43.82848" lon="6.40748">
        <ele>1046</ele>
      </trkpt>
      <trkpt lat="43.82838" lon="6.4074">
        <ele>1050</ele>
      </trkpt>
      <trkpt lat="43.82833" lon="6.40736">
        <ele>1052</ele>
      </trkpt>
      <trkpt lat="43.82818" lon="6.40709">
        <ele>1060</ele>
      </trkpt>
      <trkpt lat="43.82804" lon="6.40696">
        <ele>1064</ele>
      </trkpt>
      <trkpt lat="43.82781" lon="6.40701">
        <ele>1063</ele>
      </trkpt>
      <trkpt lat="43.82763" lon="6.40704">
        <ele>1063</ele>
      </trkpt>
      <trkpt lat="43.82753" lon="6.40703">
        <ele>1063</ele>
      </trkpt>
      <trkpt lat="43.82741" lon="6.40689">
        <ele>1067</ele>
      </trkpt>
      <trkpt lat="43.8273" lon="6.40664">
        <ele>1073</ele>
      </trkpt>
      <trkpt lat="43.82731" lon="6.40651">
        <ele>1076</ele>
      </trkpt>
      <trkpt lat="43.82748" lon="6.40651">
        <ele>1076</ele>
      </trkpt>
      <trkpt lat="43.82766" lon="6.40641">
        <ele>1078</ele>
      </trkpt>
      <trkpt lat="43.82769" lon="6.4063">
        <ele>1080</ele>
      </trkpt>
      <trkpt lat="43.82768" lon="6.40627">
        <ele>1081</ele>
      </trkpt>
      <trkpt lat="43.82746" lon="6.40615">
        <ele>1084</ele>
      </trkpt>
      <trkpt lat="43.82734" lon="6.40604">
        <ele>1086</ele>
      </trkpt>
      <trkpt lat="43.82726" lon="6.406">
        <ele>1087</ele>
      </trkpt>
      <trkpt lat="43.82696" lon="6.40593">
        <ele>1088</ele>
      </trkpt>
      <trkpt lat="43.82674" lon="6.40597">
        <ele>1086</ele>
      </trkpt>
      <trkpt lat="43.8266" lon="6.40597">
        <ele>1086</ele>
      </trkpt>
      <trkpt lat="43.82654" lon="6.40595">
        <ele>1087</ele>
      </trkpt>
      <trkpt lat="43.82628" lon="6.40573">
        <ele>1095</ele>
      </trkpt>
      <trkpt lat="43.82613" lon="6.40559">
        <ele>1100</ele>
      </trkpt>
      <trkpt lat="43.82606" lon="6.40556">
        <ele>1100</ele>
      </trkpt>
      <trkpt lat="43.82564" lon="6.40536">
        <ele>1105</ele>
      </trkpt>
      <trkpt lat="43.82558" lon="6.40534">
        <ele>1106</ele>
      </trkpt>
      <trkpt lat="43.82529" lon="6.40512">
        <ele>1112</ele>
      </trkpt>
      <trkpt lat="43.82526" lon="6.40506">
        <ele>1114</ele>
      </trkpt>
      <trkpt lat="43.8252" lon="6.40486">
        <ele>1120</ele>
      </trkpt>
      <trkpt lat="43.82506" lon="6.40481">
        <ele>1119</ele>
      </trkpt>
      <trkpt lat="43.82483" lon="6.40465">
        <ele>1119</ele>
      </trkpt>
      <trkpt lat="43.8247" lon="6.40453">
        <ele>1121</ele>
      </trkpt>
      <trkpt lat="43.82431" lon="6.4043">
        <ele>1125</ele>
      </trkpt>
      <trkpt lat="43.82403" lon="6.40411">
        <ele>1129</ele>
      </trkpt>
      <trkpt lat="43.82398" lon="6.40408">
        <ele>1129</ele>
      </trkpt>
      <trkpt lat="43.82372" lon="6.40391">
        <ele>1133</ele>
      </trkpt>
      <trkpt lat="43.82368" lon="6.40389">
        <ele>1134</ele>
      </trkpt>
      <trkpt lat="43.82354" lon="6.40378">
        <ele>1135</ele>
      </trkpt>
      <trkpt lat="43.82343" lon="6.40365">
        <ele>1137</ele>
      </trkpt>
      <trkpt lat="43.82337" lon="6.40352">
        <ele>1139</ele>
      </trkpt>
      <trkpt lat="43.82332" lon="6.40335">
        <ele>1142</ele>
      </trkpt>
      <trkpt lat="43.82327" lon="6.40318">
        <ele>1145</ele>
      </trkpt>
      <trkpt lat="43.82322" lon="6.40296">
        <ele>1148</ele>
      </trkpt>
      <trkpt lat="43.82317" lon="6.40278">
        <ele>1151</ele>
      </trkpt>
      <trkpt lat="43.82315" lon="6.40271">
        <ele>1152</ele>
      </trkpt>
      <trkpt lat="43.82313" lon="6.40261">
        <ele>1154</ele>
      </trkpt>
      <trkpt lat="43.82306" lon="6.40243">
        <ele>1156</ele>
      </trkpt>
      <trkpt lat="43.82309" lon="6.40234">
        <ele>1158</ele>
      </trkpt>
      <trkpt lat="43.82315" lon="6.40237">
        <ele>1158</ele>
      </trkpt>
      <trkpt lat="43.82341" lon="6.40251">
        <ele>1160</ele>
      </trkpt>
      <trkpt lat="43.82354" lon="6.40259">
        <ele>1161</ele>
      </trkpt>
      <trkpt lat="43.82362" lon="6.40262">
        <ele>1162</ele>
      </trkpt>
      <trkpt lat="43.8236" lon="6.4026">
        <ele>1162</ele>
      </trkpt>
      <trkpt lat="43.8236" lon="6.40259">
        <ele>1162</ele>
      </trkpt>
      <trkpt lat="43.82357" lon="6.4025">
        <ele>1164</ele>
      </trkpt>
      <trkpt lat="43.82356" lon="6.40246">
        <ele>1164</ele>
      </trkpt>
      <trkpt lat="43.82351" lon="6.40229">
        <ele>1167</ele>
      </trkpt>
      <trkpt lat="43.82348" lon="6.4022">
        <ele>1168</ele>
      </trkpt>
      <trkpt lat="43.82337" lon="6.40182">
        <ele>1173</ele>
      </trkpt>
      <trkpt lat="43.82333" lon="6.40166">
        <ele>1175</ele>
      </trkpt>
      <trkpt lat="43.82326" lon="6.40136">
        <ele>1177</ele>
      </trkpt>
      <trkpt lat="43.82321" lon="6.40113">
        <ele>1180</ele>
      </trkpt>
      <trkpt lat="43.8232" lon="6.40109">
        <ele>1181</ele>
      </trkpt>
      <trkpt lat="43.82318" lon="6.40099">
        <ele>1182</ele>
      </trkpt>
      <trkpt lat="43.82311" lon="6.40062">
        <ele>1186</ele>
      </trkpt>
      <trkpt lat="43.82306" lon="6.40036">
        <ele>1188</ele>
      </trkpt>
      <trkpt lat="43.82305" lon="6.40031">
        <ele>1189</ele>
      </trkpt>
      <trkpt lat="43.82301" lon="6.40011">
        <ele>1191</ele>
      </trkpt>
      <trkpt lat="43.82297" lon="6.39999">
        <ele>1191</ele>
      </trkpt>
      <trkpt lat="43.82296" lon="6.39986">
        <ele>1193</ele>
      </trkpt>
      <trkpt lat="43.82295" lon="6.39984">
        <ele>1194</ele>
      </trkpt>
      <trkpt lat="43.82293" lon="6.3998">
        <ele>1194</ele>
      </trkpt>
      <trkpt lat="43.82288" lon="6.39963">
        <ele>1195</ele>
      </trkpt>
      <trkpt lat="43.82284" lon="6.39948">
        <ele>1196</ele>
      </trkpt>
      <trkpt lat="43.8228" lon="6.39933">
        <ele>1198</ele>
      </trkpt>
      <trkpt lat="43.82279" lon="6.39927">
        <ele>1199</ele>
      </trkpt>
      <trkpt lat="43.82276" lon="6.39916">
        <ele>1201</ele>
      </trkpt>
      <trkpt lat="43.82274" lon="6.39914">
        <ele>1201</ele>
      </trkpt>
      <trkpt lat="43.82272" lon="6.39912">
        <ele>1201</ele>
      </trkpt>
      <trkpt lat="43.82262" lon="6.3991">
        <ele>1199</ele>
      </trkpt>
      <trkpt lat="43.82255" lon="6.39907">
        <ele>1198</ele>
      </trkpt>
      <trkpt lat="43.82252" lon="6.39891">
        <ele>1200</ele>
      </trkpt>
      <trkpt lat="43.82244" lon="6.39893">
        <ele>1198</ele>
      </trkpt>
      <trkpt lat="43.82237" lon="6.39908">
        <ele>1195</ele>
      </trkpt>
      <trkpt lat="43.82225" lon="6.39922">
        <ele>1196</ele>
      </trkpt>
      <trkpt lat="43.82196" lon="6.39935">
        <ele>1202</ele>
      </trkpt>
      <trkpt lat="43.82185" lon="6.39934">
        <ele>1204</ele>
      </trkpt>
      <trkpt lat="43.82156" lon="6.39916">
        <ele>1210</ele>
      </trkpt>
      <trkpt lat="43.82132" lon="6.39906">
        <ele>1213</ele>
      </trkpt>
      <trkpt lat="43.82119" lon="6.39909">
        <ele>1213</ele>
      </trkpt>
      <trkpt lat="43.82108" lon="6.39913">
        <ele>1213</ele>
      </trkpt>
      <trkpt lat="43.82102" lon="6.39914">
        <ele>1213</ele>
      </trkpt>
      <trkpt lat="43.82076" lon="6.39907">
        <ele>1215</ele>
      </trkpt>
      <trkpt lat="43.82072" lon="6.39904">
        <ele>1216</ele>
      </trkpt>
      <trkpt lat="43.82061" lon="6.39894">
        <ele>1218</ele>
      </trkpt>
      <trkpt lat="43.82056" lon="6.39891">
        <ele>1218</ele>
      </trkpt>
      <trkpt lat="43.82029" lon="6.39866">
        <ele>1222</ele>
      </trkpt>
      <trkpt lat="43.82015" lon="6.39849">
        <ele>1225</ele>
      </trkpt>
      <trkpt lat="43.82002" lon="6.39828">
        <ele>1228</ele>
      </trkpt>
      <trkpt lat="43.81985" lon="6.39809">
        <ele>1230</ele>
      </trkpt>
      <trkpt lat="43.81977" lon="6.39797">
        <ele>1232</ele>
      </trkpt>
      <trkpt lat="43.81964" lon="6.39763">
        <ele>1238</ele>
      </trkpt>
      <trkpt lat="43.81956" lon="6.39752">
        <ele>1239</ele>
      </trkpt>
      <trkpt lat="43.81937" lon="6.39732">
        <ele>1239</ele>
      </trkpt>
      <trkpt lat="43.81932" lon="6.3973">
        <ele>1239</ele>
      </trkpt>
      <trkpt lat="43.81912" lon="6.3972">
        <ele>1240</ele>
      </trkpt>
      <trkpt lat="43.819" lon="6.39693">
        <ele>1242</ele>
      </trkpt>
      <trkpt lat="43.81895" lon="6.39674">
        <ele>1243</ele>
      </trkpt>
      <trkpt lat="43.81892" lon="6.39648">
        <ele>1245</ele>
      </trkpt>
      <trkpt lat="43.8189" lon="6.39624">
        <ele>1246</ele>
      </trkpt>
      <trkpt lat="43.8189" lon="6.39599">
        <ele>1247</ele>
      </trkpt>
      <trkpt lat="43.81891" lon="6.39579">
        <ele>1249</ele>
      </trkpt>
      <trkpt lat="43.81889" lon="6.39574">
        <ele>1249</ele>
      </trkpt>
      <trkpt lat="43.81887" lon="6.39572">
        <ele>1248</ele>
      </trkpt>
      <trkpt lat="43.81885" lon="6.39569">
        <ele>1248</ele>
      </trkpt>
      <trkpt lat="43.81883" lon="6.39555">
        <ele>1248</ele>
      </trkpt>
      <trkpt lat="43.81878" lon="6.39535">
        <ele>1248</ele>
      </trkpt>
      <trkpt lat="43.81872" lon="6.39515">
        <ele>1247</ele>
      </trkpt>
      <trkpt lat="43.81867" lon="6.395">
        <ele>1246</ele>
      </trkpt>
      <trkpt lat="43.81867" lon="6.39494">
        <ele>1246</ele>
      </trkpt>
      <trkpt lat="43.81865" lon="6.39489">
        <ele>1246</ele>
      </trkpt>
      <trkpt lat="43.8186" lon="6.3948">
        <ele>1245</ele>
      </trkpt>
      <trkpt lat="43.81853" lon="6.39473">
        <ele>1243</ele>
      </trkpt>
      <trkpt lat="43.81844" lon="6.39466">
        <ele>1242</ele>
      </trkpt>
      <trkpt lat="43.81833" lon="6.39461">
        <ele>1240</ele>
      </trkpt>
      <trkpt lat="43.81825" lon="6.39463">
        <ele>1238</ele>
      </trkpt>
      <trkpt lat="43.81815" lon="6.39464">
        <ele>1236</ele>
      </trkpt>
      <trkpt lat="43.81803" lon="6.39456">
        <ele>1234</ele>
      </trkpt>
      <trkpt lat="43.81797" lon="6.39446">
        <ele>1232</ele>
      </trkpt>
      <trkpt lat="43.81796" lon="6.39422">
        <ele>1231</ele>
      </trkpt>
      <trkpt lat="43.81794" lon="6.394">
        <ele>1230</ele>
      </trkpt>
      <trkpt lat="43.81788" lon="6.39386">
        <ele>1229</ele>
      </trkpt>
      <trkpt lat="43.81785" lon="6.39382">
        <ele>1228</ele>
      </trkpt>
      <trkpt lat="43.81774" lon="6.39376">
        <ele>1226</ele>
      </trkpt>
      <trkpt lat="43.81754" lon="6.39378">
        <ele>1222</ele>
      </trkpt>
      <trkpt lat="43.81741" lon="6.39377">
        <ele>1221</ele>
      </trkpt>
      <trkpt lat="43.81724" lon="6.39377">
        <ele>1219</ele>
      </trkpt>
      <trkpt lat="43.81707" lon="6.39383">
        <ele>1217</ele>
      </trkpt>
      <trkpt lat="43.81689" lon="6.39398">
        <ele>1215</ele>
      </trkpt>
      <trkpt lat="43.81667" lon="6.3941">
        <ele>1214</ele>
      </trkpt>
      <trkpt lat="43.81646" lon="6.39425">
        <ele>1213</ele>
      </trkpt>
      <trkpt lat="43.81632" lon="6.39435">
        <ele>1212</ele>
      </trkpt>
      <trkpt lat="43.81615" lon="6.39432">
        <ele>1211</ele>
      </trkpt>
      <trkpt lat="43.81599" lon="6.39423">
        <ele>1210</ele>
      </trkpt>
      <trkpt lat="43.81574" lon="6.39413">
        <ele>1209</ele>
      </trkpt>
      <trkpt lat="43.81541" lon="6.39387">
        <ele>1207</ele>
      </trkpt>
      <trkpt lat="43.81528" lon="6.3938">
        <ele>1207</ele>
      </trkpt>
      <trkpt lat="43.81495" lon="6.39366">
        <ele>1206</ele>
      </trkpt>
      <trkpt lat="43.81491" lon="6.39366">
        <ele>1206</ele>
      </trkpt>
      <trkpt lat="43.81453" lon="6.39376">
        <ele>1205</ele>
      </trkpt>
      <trkpt lat="43.81399" lon="6.39391">
        <ele>1204</ele>
      </trkpt>
      <trkpt lat="43.81362" lon="6.39397">
        <ele>1204</ele>
      </trkpt>
      <trkpt lat="43.81319" lon="6.39385">
        <ele>1204</ele>
      </trkpt>
      <trkpt lat="43.81285" lon="6.39374">
        <ele>1203</ele>
      </trkpt>
      <trkpt lat="43.81248" lon="6.39352">
        <ele>1203</ele>
      </trkpt>
      <trkpt lat="43.8121" lon="6.39321">
        <ele>1202</ele>
      </trkpt>
      <trkpt lat="43.81179" lon="6.39303">
        <ele>1202</ele>
      </trkpt>
      <trkpt lat="43.81175" lon="6.393">
        <ele>1202</ele>
      </trkpt>
      <trkpt lat="43.81135" lon="6.39273">
        <ele>1203</ele>
      </trkpt>
      <trkpt lat="43.81106" lon="6.39255">
        <ele>1204</ele>
      </trkpt>
      <trkpt lat="43.81065" lon="6.3924">
        <ele>1204</ele>
      </trkpt>
      <trkpt lat="43.81036" lon="6.39232">
        <ele>1204</ele>
      </trkpt>
      <trkpt lat="43.8102" lon="6.39219">
        <ele>1204</ele>
      </trkpt>
      <trkpt lat="43.81006" lon="6.39214">
        <ele>1204</ele>
      </trkpt>
      <trkpt lat="43.8098" lon="6.39204">
        <ele>1204</ele>
      </trkpt>
      <trkpt lat="43.80963" lon="6.392">
        <ele>1204</ele>
      </trkpt>
      <trkpt lat="43.80944" lon="6.39186">
        <ele>1204</ele>
      </trkpt>
      <trkpt lat="43.8093" lon="6.39175">
        <ele>1204</ele>
      </trkpt>
      <trkpt lat="43.80921" lon="6.39169">
        <ele>1204</ele>
      </trkpt>
      <trkpt lat="43.80908" lon="6.39144">
        <ele>1204</ele>
      </trkpt>
      <trkpt lat="43.80898" lon="6.39113">
        <ele>1205</ele>
      </trkpt>
      <trkpt lat="43.80886" lon="6.39093">
        <ele>1205</ele>
      </trkpt>
      <trkpt lat="43.80867" lon="6.3906">
        <ele>1205</ele>
      </trkpt>
      <trkpt lat="43.80863" lon="6.39055">
        <ele>1205</ele>
      </trkpt>
      <trkpt lat="43.80847" lon="6.39049">
        <ele>1206</ele>
      </trkpt>
      <trkpt lat="43.80832" lon="6.39026">
        <ele>1206</ele>
      </trkpt>
      <trkpt lat="43.80832" lon="6.38999">
        <ele>1208</ele>
      </trkpt>
      <trkpt lat="43.80826" lon="6.38992">
        <ele>1208</ele>
      </trkpt>
      <trkpt lat="43.80807" lon="6.39005">
        <ele>1209</ele>
      </trkpt>
      <trkpt lat="43.80791" lon="6.39014">
        <ele>1210</ele>
      </trkpt>
      <trkpt lat="43.8078" lon="6.39022">
        <ele>1211</ele>
      </trkpt>
      <trkpt lat="43.80767" lon="6.39039">
        <ele>1213</ele>
      </trkpt>
      <trkpt lat="43.80764" lon="6.39046">
        <ele>1213</ele>
      </trkpt>
      <trkpt lat="43.80764" lon="6.39046">
        <ele>1213</ele>
      </trkpt>
      <trkpt lat="43.8076" lon="6.39044">
        <ele>1214</ele>
      </trkpt>
      <trkpt lat="43.8075" lon="6.39046">
        <ele>1215</ele>
      </trkpt>
      <trkpt lat="43.80737" lon="6.3905">
        <ele>1216</ele>
      </trkpt>
      <trkpt lat="43.80713" lon="6.39051">
        <ele>1217</ele>
      </trkpt>
      <trkpt lat="43.80691" lon="6.39055">
        <ele>1218</ele>
      </trkpt>
      <trkpt lat="43.80674" lon="6.39066">
        <ele>1219</ele>
      </trkpt>
      <trkpt lat="43.80641" lon="6.39093">
        <ele>1223</ele>
      </trkpt>
      <trkpt lat="43.80622" lon="6.39114">
        <ele>1225</ele>
      </trkpt>
      <trkpt lat="43.80602" lon="6.39134">
        <ele>1225</ele>
      </trkpt>
      <trkpt lat="43.80584" lon="6.39157">
        <ele>1225</ele>
      </trkpt>
      <trkpt lat="43.80571" lon="6.39177">
        <ele>1225</ele>
      </trkpt>
      <trkpt lat="43.80563" lon="6.39192">
        <ele>1225</ele>
      </trkpt>
      <trkpt lat="43.80553" lon="6.39206">
        <ele>1223</ele>
      </trkpt>
      <trkpt lat="43.80543" lon="6.39223">
        <ele>1222</ele>
      </trkpt>
      <trkpt lat="43.80532" lon="6.39244">
        <ele>1220</ele>
      </trkpt>
      <trkpt lat="43.80521" lon="6.39269">
        <ele>1217</ele>
      </trkpt>
      <trkpt lat="43.80507" lon="6.39291">
        <ele>1213</ele>
      </trkpt>
      <trkpt lat="43.80494" lon="6.39312">
        <ele>1210</ele>
      </trkpt>
      <trkpt lat="43.80484" lon="6.39333">
        <ele>1206</ele>
      </trkpt>
      <trkpt lat="43.80473" lon="6.39354">
        <ele>1203</ele>
      </trkpt>
      <trkpt lat="43.80464" lon="6.39374">
        <ele>1199</ele>
      </trkpt>
      <trkpt lat="43.8046" lon="6.39385">
        <ele>1196</ele>
      </trkpt>
      <trkpt lat="43.80453" lon="6.39404">
        <ele>1193</ele>
      </trkpt>
      <trkpt lat="43.80449" lon="6.39418">
        <ele>1191</ele>
      </trkpt>
      <trkpt lat="43.80447" lon="6.39434">
        <ele>1188</ele>
      </trkpt>
      <trkpt lat="43.80446" lon="6.39452">
        <ele>1184</ele>
      </trkpt>
      <trkpt lat="43.8044" lon="6.39467">
        <ele>1180</ele>
      </trkpt>
      <trkpt lat="43.80439" lon="6.39469">
        <ele>1180</ele>
      </trkpt>
      <trkpt lat="43.80438" lon="6.39478">
        <ele>1178</ele>
      </trkpt>
      <trkpt lat="43.80437" lon="6.39487">
        <ele>1176</ele>
      </trkpt>
      <trkpt lat="43.80436" lon="6.39498">
        <ele>1173</ele>
      </trkpt>
      <trkpt lat="43.80441" lon="6.39504">
        <ele>1171</ele>
      </trkpt>
      <trkpt lat="43.80452" lon="6.39511">
        <ele>1169</ele>
      </trkpt>
      <trkpt lat="43.80466" lon="6.39519">
        <ele>1170</ele>
      </trkpt>
      <trkpt lat="43.80474" lon="6.39527">
        <ele>1169</ele>
      </trkpt>
      <trkpt lat="43.80482" lon="6.39539">
        <ele>1167</ele>
      </trkpt>
      <trkpt lat="43.80495" lon="6.39545">
        <ele>1169</ele>
      </trkpt>
      <trkpt lat="43.80503" lon="6.39551">
        <ele>1170</ele>
      </trkpt>
      <trkpt lat="43.80507" lon="6.39562">
        <ele>1168</ele>
      </trkpt>
      <trkpt lat="43.80511" lon="6.3957">
        <ele>1168</ele>
      </trkpt>
      <trkpt lat="43.80511" lon="6.3957">
        <ele>1168</ele>
      </trkpt>
      <trkpt lat="43.80514" lon="6.39575">
        <ele>1168</ele>
      </trkpt>
      <trkpt lat="43.80519" lon="6.39581">
        <ele>1168</ele>
      </trkpt>
      <trkpt lat="43.80522" lon="6.39588">
        <ele>1167</ele>
      </trkpt>
      <trkpt lat="43.80522" lon="6.39591">
        <ele>1166</ele>
      </trkpt>
      <trkpt lat="43.80518" lon="6.39592">
        <ele>1164</ele>
      </trkpt>
      <trkpt lat="43.80515" lon="6.39589">
        <ele>1164</ele>
      </trkpt>
      <trkpt lat="43.80512" lon="6.39586">
        <ele>1163</ele>
      </trkpt>
      <trkpt lat="43.80508" lon="6.39585">
        <ele>1162</ele>
      </trkpt>
      <trkpt lat="43.80507" lon="6.39586">
        <ele>1161</ele>
      </trkpt>
      <trkpt lat="43.80504" lon="6.39595">
        <ele>1157</ele>
      </trkpt>
      <trkpt lat="43.80507" lon="6.39605">
        <ele>1155</ele>
      </trkpt>
      <trkpt lat="43.80512" lon="6.39614">
        <ele>1155</ele>
      </trkpt>
      <trkpt lat="43.80517" lon="6.39622">
        <ele>1155</ele>
      </trkpt>
      <trkpt lat="43.80522" lon="6.3963">
        <ele>1156</ele>
      </trkpt>
      <trkpt lat="43.80527" lon="6.3964">
        <ele>1156</ele>
      </trkpt>
      <trkpt lat="43.80531" lon="6.39651">
        <ele>1155</ele>
      </trkpt>
      <trkpt lat="43.80537" lon="6.39665">
        <ele>1155</ele>
      </trkpt>
      <trkpt lat="43.80541" lon="6.39679">
        <ele>1154</ele>
      </trkpt>
      <trkpt lat="43.80545" lon="6.39692">
        <ele>1154</ele>
      </trkpt>
      <trkpt lat="43.80548" lon="6.39704">
        <ele>1154</ele>
      </trkpt>
      <trkpt lat="43.80551" lon="6.39715">
        <ele>1154</ele>
      </trkpt>
      <trkpt lat="43.80551" lon="6.39716">
        <ele>1154</ele>
      </trkpt>
      <trkpt lat="43.80552" lon="6.39728">
        <ele>1154</ele>
      </trkpt>
      <trkpt lat="43.80554" lon="6.3974">
        <ele>1153</ele>
      </trkpt>
      <trkpt lat="43.80557" lon="6.39752">
        <ele>1154</ele>
      </trkpt>
      <trkpt lat="43.80558" lon="6.39765">
        <ele>1154</ele>
      </trkpt>
      <trkpt lat="43.80557" lon="6.39782">
        <ele>1152</ele>
      </trkpt>
      <trkpt lat="43.80555" lon="6.39788">
        <ele>1151</ele>
      </trkpt>
      <trkpt lat="43.80555" lon="6.39794">
        <ele>1150</ele>
      </trkpt>
      <trkpt lat="43.80555" lon="6.39796">
        <ele>1150</ele>
      </trkpt>
      <trkpt lat="43.80555" lon="6.39806">
        <ele>1150</ele>
      </trkpt>
      <trkpt lat="43.80555" lon="6.39814">
        <ele>1149</ele>
      </trkpt>
      <trkpt lat="43.80553" lon="6.39819">
        <ele>1149</ele>
      </trkpt>
      <trkpt lat="43.8055" lon="6.39829">
        <ele>1147</ele>
      </trkpt>
      <trkpt lat="43.8055" lon="6.39837">
        <ele>1146</ele>
      </trkpt>
      <trkpt lat="43.80547" lon="6.39847">
        <ele>1145</ele>
      </trkpt>
      <trkpt lat="43.80546" lon="6.39854">
        <ele>1144</ele>
      </trkpt>
      <trkpt lat="43.80545" lon="6.39857">
        <ele>1144</ele>
      </trkpt>
      <trkpt lat="43.80542" lon="6.3987">
        <ele>1142</ele>
      </trkpt>
      <trkpt lat="43.80538" lon="6.39888">
        <ele>1141</ele>
      </trkpt>
      <trkpt lat="43.80538" lon="6.3989">
        <ele>1141</ele>
      </trkpt>
      <trkpt lat="43.80536" lon="6.39901">
        <ele>1140</ele>
      </trkpt>
      <trkpt lat="43.80528" lon="6.399">
        <ele>1135</ele>
      </trkpt>
      <trkpt lat="43.80527" lon="6.39897">
        <ele>1135</ele>
      </trkpt>
      <trkpt lat="43.80527" lon="6.39888">
        <ele>1134</ele>
      </trkpt>
      <trkpt lat="43.80526" lon="6.39879">
        <ele>1133</ele>
      </trkpt>
      <trkpt lat="43.80524" lon="6.39862">
        <ele>1132</ele>
      </trkpt>
      <trkpt lat="43.80524" lon="6.39861">
        <ele>1132</ele>
      </trkpt>
      <trkpt lat="43.80522" lon="6.3985">
        <ele>1130</ele>
      </trkpt>
      <trkpt lat="43.80521" lon="6.39842">
        <ele>1130</ele>
      </trkpt>
      <trkpt lat="43.80516" lon="6.39841">
        <ele>1127</ele>
      </trkpt>
      <trkpt lat="43.80515" lon="6.39845">
        <ele>1126</ele>
      </trkpt>
      <trkpt lat="43.8051" lon="6.39857">
        <ele>1124</ele>
      </trkpt>
      <trkpt lat="43.80506" lon="6.3987">
        <ele>1122</ele>
      </trkpt>
      <trkpt lat="43.80503" lon="6.39881">
        <ele>1120</ele>
      </trkpt>
      <trkpt lat="43.80499" lon="6.3989">
        <ele>1118</ele>
      </trkpt>
      <trkpt lat="43.80494" lon="6.39901">
        <ele>1116</ele>
      </trkpt>
      <trkpt lat="43.80491" lon="6.39911">
        <ele>1114</ele>
      </trkpt>
      <trkpt lat="43.80486" lon="6.39925">
        <ele>1112</ele>
      </trkpt>
      <trkpt lat="43.80486" lon="6.39927">
        <ele>1112</ele>
      </trkpt>
      <trkpt lat="43.80483" lon="6.39935">
        <ele>1111</ele>
      </trkpt>
      <trkpt lat="43.8048" lon="6.39941">
        <ele>1111</ele>
      </trkpt>
      <trkpt lat="43.80475" lon="6.39951">
        <ele>1110</ele>
      </trkpt>
      <trkpt lat="43.80468" lon="6.3996">
        <ele>1108</ele>
      </trkpt>
      <trkpt lat="43.8046" lon="6.39976">
        <ele>1105</ele>
      </trkpt>
      <trkpt lat="43.80456" lon="6.39984">
        <ele>1103</ele>
      </trkpt>
      <trkpt lat="43.80453" lon="6.39987">
        <ele>1102</ele>
      </trkpt>
      <trkpt lat="43.8045" lon="6.39993">
        <ele>1101</ele>
      </trkpt>
      <trkpt lat="43.80445" lon="6.40008">
        <ele>1100</ele>
      </trkpt>
      <trkpt lat="43.80443" lon="6.40014">
        <ele>1100</ele>
      </trkpt>
      <trkpt lat="43.80441" lon="6.4002">
        <ele>1100</ele>
      </trkpt>
      <trkpt lat="43.80434" lon="6.40037">
        <ele>1097</ele>
      </trkpt>
      <trkpt lat="43.80432" lon="6.4004">
        <ele>1097</ele>
      </trkpt>
      <trkpt lat="43.80423" lon="6.40063">
        <ele>1096</ele>
      </trkpt>
      <trkpt lat="43.80423" lon="6.40065">
        <ele>1096</ele>
      </trkpt>
      <trkpt lat="43.80417" lon="6.40079">
        <ele>1095</ele>
      </trkpt>
      <trkpt lat="43.80411" lon="6.40089">
        <ele>1093</ele>
      </trkpt>
      <trkpt lat="43.80407" lon="6.40099">
        <ele>1093</ele>
      </trkpt>
      <trkpt lat="43.804" lon="6.40104">
        <ele>1090</ele>
      </trkpt>
      <trkpt lat="43.80398" lon="6.40103">
        <ele>1089</ele>
      </trkpt>
      <trkpt lat="43.80391" lon="6.40087">
        <ele>1082</ele>
      </trkpt>
      <trkpt lat="43.80386" lon="6.40077">
        <ele>1079</ele>
      </trkpt>
      <trkpt lat="43.80382" lon="6.40071">
        <ele>1077</ele>
      </trkpt>
      <trkpt lat="43.8038" lon="6.40068">
        <ele>1076</ele>
      </trkpt>
      <trkpt lat="43.80373" lon="6.40057">
        <ele>1073</ele>
      </trkpt>
      <trkpt lat="43.80369" lon="6.40049">
        <ele>1071</ele>
      </trkpt>
      <trkpt lat="43.80363" lon="6.40042">
        <ele>1069</ele>
      </trkpt>
      <trkpt lat="43.80356" lon="6.40028">
        <ele>1068</ele>
      </trkpt>
      <trkpt lat="43.8035" lon="6.40023">
        <ele>1067</ele>
      </trkpt>
      <trkpt lat="43.80345" lon="6.40028">
        <ele>1065</ele>
      </trkpt>
      <trkpt lat="43.80338" lon="6.40043">
        <ele>1063</ele>
      </trkpt>
      <trkpt lat="43.80331" lon="6.40057">
        <ele>1061</ele>
      </trkpt>
      <trkpt lat="43.80325" lon="6.40068">
        <ele>1060</ele>
      </trkpt>
      <trkpt lat="43.8032" lon="6.40079">
        <ele>1058</ele>
      </trkpt>
      <trkpt lat="43.80318" lon="6.40086">
        <ele>1058</ele>
      </trkpt>
      <trkpt lat="43.80316" lon="6.40105">
        <ele>1056</ele>
      </trkpt>
      <trkpt lat="43.80316" lon="6.40112">
        <ele>1056</ele>
      </trkpt>
      <trkpt lat="43.80312" lon="6.40121">
        <ele>1055</ele>
      </trkpt>
      <trkpt lat="43.80306" lon="6.4013">
        <ele>1052</ele>
      </trkpt>
      <trkpt lat="43.80298" lon="6.40137">
        <ele>1050</ele>
      </trkpt>
      <trkpt lat="43.80297" lon="6.40138">
        <ele>1049</ele>
      </trkpt>
      <trkpt lat="43.80289" lon="6.40137">
        <ele>1047</ele>
      </trkpt>
      <trkpt lat="43.80288" lon="6.40134">
        <ele>1047</ele>
      </trkpt>
      <trkpt lat="43.80283" lon="6.40124">
        <ele>1046</ele>
      </trkpt>
      <trkpt lat="43.80278" lon="6.40111">
        <ele>1046</ele>
      </trkpt>
      <trkpt lat="43.80275" lon="6.40102">
        <ele>1046</ele>
      </trkpt>
      <trkpt lat="43.80274" lon="6.40099">
        <ele>1046</ele>
      </trkpt>
      <trkpt lat="43.8027" lon="6.40089">
        <ele>1045</ele>
      </trkpt>
      <trkpt lat="43.80267" lon="6.40078">
        <ele>1045</ele>
      </trkpt>
      <trkpt lat="43.80265" lon="6.40066">
        <ele>1045</ele>
      </trkpt>
      <trkpt lat="43.80263" lon="6.40059">
        <ele>1045</ele>
      </trkpt>
      <trkpt lat="43.80261" lon="6.40054">
        <ele>1044</ele>
      </trkpt>
      <trkpt lat="43.80261" lon="6.40054">
        <ele>1044</ele>
      </trkpt>
      <trkpt lat="43.80254" lon="6.40052">
        <ele>1042</ele>
      </trkpt>
      <trkpt lat="43.80244" lon="6.40059">
        <ele>1039</ele>
      </trkpt>
      <trkpt lat="43.80233" lon="6.40067">
        <ele>1035</ele>
      </trkpt>
      <trkpt lat="43.80225" lon="6.40076">
        <ele>1032</ele>
      </trkpt>
      <trkpt lat="43.80215" lon="6.40081">
        <ele>1030</ele>
      </trkpt>
      <trkpt lat="43.80211" lon="6.40086">
        <ele>1028</ele>
      </trkpt>
      <trkpt lat="43.80201" lon="6.40092">
        <ele>1026</ele>
      </trkpt>
      <trkpt lat="43.80194" lon="6.40097">
        <ele>1024</ele>
      </trkpt>
      <trkpt lat="43.80192" lon="6.40098">
        <ele>1024</ele>
      </trkpt>
      <trkpt lat="43.8019" lon="6.40098">
        <ele>1024</ele>
      </trkpt>
      <trkpt lat="43.80188" lon="6.401">
        <ele>1023</ele>
      </trkpt>
      <trkpt lat="43.80181" lon="6.40103">
        <ele>1021</ele>
      </trkpt>
      <trkpt lat="43.80178" lon="6.40103">
        <ele>1021</ele>
      </trkpt>
      <trkpt lat="43.80174" lon="6.40105">
        <ele>1020</ele>
      </trkpt>
      <trkpt lat="43.80172" lon="6.40105">
        <ele>1019</ele>
      </trkpt>
      <trkpt lat="43.80162" lon="6.40109">
        <ele>1016</ele>
      </trkpt>
      <trkpt lat="43.80154" lon="6.40114">
        <ele>1014</ele>
      </trkpt>
      <trkpt lat="43.80147" lon="6.40115">
        <ele>1012</ele>
      </trkpt>
      <trkpt lat="43.80142" lon="6.40117">
        <ele>1011</ele>
      </trkpt>
      <trkpt lat="43.80138" lon="6.40117">
        <ele>1010</ele>
      </trkpt>
      <trkpt lat="43.80132" lon="6.40117">
        <ele>1009</ele>
      </trkpt>
      <trkpt lat="43.8013" lon="6.40115">
        <ele>1010</ele>
      </trkpt>
      <trkpt lat="43.80128" lon="6.4011">
        <ele>1010</ele>
      </trkpt>
      <trkpt lat="43.80125" lon="6.4011">
        <ele>1010</ele>
      </trkpt>
      <trkpt lat="43.8012" lon="6.40113">
        <ele>1008</ele>
      </trkpt>
      <trkpt lat="43.80116" lon="6.40117">
        <ele>1007</ele>
      </trkpt>
      <trkpt lat="43.80109" lon="6.40121">
        <ele>1005</ele>
      </trkpt>
      <trkpt lat="43.80104" lon="6.40125">
        <ele>1004</ele>
      </trkpt>
      <trkpt lat="43.80099" lon="6.40128">
        <ele>1002</ele>
      </trkpt>
      <trkpt lat="43.80097" lon="6.40127">
        <ele>1002</ele>
      </trkpt>
      <trkpt lat="43.80089" lon="6.40128">
        <ele>1001</ele>
      </trkpt>
      <trkpt lat="43.80088" lon="6.40128">
        <ele>1001</ele>
      </trkpt>
      <trkpt lat="43.8008" lon="6.40125">
        <ele>1000</ele>
      </trkpt>
      <trkpt lat="43.80071" lon="6.40122">
        <ele>999</ele>
      </trkpt>
      <trkpt lat="43.80066" lon="6.4012">
        <ele>999</ele>
      </trkpt>
      <trkpt lat="43.80058" lon="6.40121">
        <ele>997</ele>
      </trkpt>
      <trkpt lat="43.80051" lon="6.40119">
        <ele>996</ele>
      </trkpt>
      <trkpt lat="43.80041" lon="6.40117">
        <ele>994</ele>
      </trkpt>
      <trkpt lat="43.80029" lon="6.40116">
        <ele>992</ele>
      </trkpt>
      <trkpt lat="43.80016" lon="6.40115">
        <ele>990</ele>
      </trkpt>
      <trkpt lat="43.80007" lon="6.40116">
        <ele>989</ele>
      </trkpt>
      <trkpt lat="43.79995" lon="6.40125">
        <ele>988</ele>
      </trkpt>
      <trkpt lat="43.79987" lon="6.40139">
        <ele>988</ele>
      </trkpt>
      <trkpt lat="43.79982" lon="6.40152">
        <ele>986</ele>
      </trkpt>
      <trkpt lat="43.79976" lon="6.4016">
        <ele>984</ele>
      </trkpt>
      <trkpt lat="43.79965" lon="6.40169">
        <ele>981</ele>
      </trkpt>
      <trkpt lat="43.79957" lon="6.40171">
        <ele>979</ele>
      </trkpt>
      <trkpt lat="43.79949" lon="6.4017">
        <ele>978</ele>
      </trkpt>
      <trkpt lat="43.79943" lon="6.4017">
        <ele>976</ele>
      </trkpt>
      <trkpt lat="43.79941" lon="6.40169">
        <ele>976</ele>
      </trkpt>
      <trkpt lat="43.79939" lon="6.40169">
        <ele>976</ele>
      </trkpt>
      <trkpt lat="43.79934" lon="6.40176">
        <ele>975</ele>
      </trkpt>
      <trkpt lat="43.79932" lon="6.40177">
        <ele>974</ele>
      </trkpt>
      <trkpt lat="43.79928" lon="6.40171">
        <ele>973</ele>
      </trkpt>
      <trkpt lat="43.7993" lon="6.40166">
        <ele>974</ele>
      </trkpt>
      <trkpt lat="43.79925" lon="6.40164">
        <ele>973</ele>
      </trkpt>
      <trkpt lat="43.79921" lon="6.40163">
        <ele>972</ele>
      </trkpt>
      <trkpt lat="43.7992" lon="6.40163">
        <ele>972</ele>
      </trkpt>
      <trkpt lat="43.79922" lon="6.40153">
        <ele>972</ele>
      </trkpt>
      <trkpt lat="43.79921" lon="6.40163">
        <ele>972</ele>
      </trkpt>
      <trkpt lat="43.7992" lon="6.40163">
        <ele>972</ele>
      </trkpt>
      <trkpt lat="43.79922" lon="6.40153">
        <ele>972</ele>
      </trkpt>
      <trkpt lat="43.79922" lon="6.40153">
        <ele>972</ele>
      </trkpt>
      <trkpt lat="43.79922" lon="6.40137">
        <ele>972</ele>
      </trkpt>
      <trkpt lat="43.79923" lon="6.40119">
        <ele>969</ele>
      </trkpt>
      <trkpt lat="43.79923" lon="6.40116">
        <ele>969</ele>
      </trkpt>
      <trkpt lat="43.79924" lon="6.40103">
        <ele>967</ele>
      </trkpt>
      <trkpt lat="43.79924" lon="6.40091">
        <ele>965</ele>
      </trkpt>
      <trkpt lat="43.79924" lon="6.40089">
        <ele>965</ele>
      </trkpt>
      <trkpt lat="43.79925" lon="6.40086">
        <ele>965</ele>
      </trkpt>
      <trkpt lat="43.7993" lon="6.40074">
        <ele>964</ele>
      </trkpt>
      <trkpt lat="43.79943" lon="6.40057">
        <ele>964</ele>
      </trkpt>
      <trkpt lat="43.7996" lon="6.40045">
        <ele>967</ele>
      </trkpt>
      <trkpt lat="43.79974" lon="6.40032">
        <ele>968</ele>
      </trkpt>
      <trkpt lat="43.79977" lon="6.40023">
        <ele>967</ele>
      </trkpt>
      <trkpt lat="43.79978" lon="6.40012">
        <ele>965</ele>
      </trkpt>
      <trkpt lat="43.79982" lon="6.39999">
        <ele>964</ele>
      </trkpt>
      <trkpt lat="43.79994" lon="6.39957">
        <ele>961</ele>
      </trkpt>
      <trkpt lat="43.80004" lon="6.39923">
        <ele>961</ele>
      </trkpt>
      <trkpt lat="43.80011" lon="6.39896">
        <ele>960</ele>
      </trkpt>
      <trkpt lat="43.80004" lon="6.39867">
        <ele>956</ele>
      </trkpt>
      <trkpt lat="43.79992" lon="6.39843">
        <ele>953</ele>
      </trkpt>
      <trkpt lat="43.79976" lon="6.39831">
        <ele>950</ele>
      </trkpt>
      <trkpt lat="43.79955" lon="6.39815">
        <ele>947</ele>
      </trkpt>
      <trkpt lat="43.79943" lon="6.39799">
        <ele>945</ele>
      </trkpt>
      <trkpt lat="43.79936" lon="6.39773">
        <ele>945</ele>
      </trkpt>
      <trkpt lat="43.79933" lon="6.3977">
        <ele>945</ele>
      </trkpt>
      <trkpt lat="43.79916" lon="6.39762">
        <ele>944</ele>
      </trkpt>
      <trkpt lat="43.79896" lon="6.39748">
        <ele>942</ele>
      </trkpt>
      <trkpt lat="43.7988" lon="6.39739">
        <ele>940</ele>
      </trkpt>
      <trkpt lat="43.79868" lon="6.39736">
        <ele>939</ele>
      </trkpt>
      <trkpt lat="43.79855" lon="6.39744">
        <ele>937</ele>
      </trkpt>
      <trkpt lat="43.79848" lon="6.3975">
        <ele>936</ele>
      </trkpt>
      <trkpt lat="43.79845" lon="6.39748">
        <ele>936</ele>
      </trkpt>
      <trkpt lat="43.79838" lon="6.39738">
        <ele>935</ele>
      </trkpt>
      <trkpt lat="43.79836" lon="6.39729">
        <ele>935</ele>
      </trkpt>
      <trkpt lat="43.79835" lon="6.39728">
        <ele>935</ele>
      </trkpt>
      <trkpt lat="43.79828" lon="6.39717">
        <ele>934</ele>
      </trkpt>
      <trkpt lat="43.79825" lon="6.39703">
        <ele>934</ele>
      </trkpt>
      <trkpt lat="43.79819" lon="6.39686">
        <ele>934</ele>
      </trkpt>
      <trkpt lat="43.79818" lon="6.39683">
        <ele>934</ele>
      </trkpt>
      <trkpt lat="43.79814" lon="6.39674">
        <ele>932</ele>
      </trkpt>
      <trkpt lat="43.7981" lon="6.39662">
        <ele>930</ele>
      </trkpt>
      <trkpt lat="43.79806" lon="6.39649">
        <ele>928</ele>
      </trkpt>
      <trkpt lat="43.79805" lon="6.39645">
        <ele>928</ele>
      </trkpt>
      <trkpt lat="43.79803" lon="6.39637">
        <ele>928</ele>
      </trkpt>
      <trkpt lat="43.79799" lon="6.39628">
        <ele>926</ele>
      </trkpt>
      <trkpt lat="43.79796" lon="6.39619">
        <ele>925</ele>
      </trkpt>
      <trkpt lat="43.79795" lon="6.39618">
        <ele>925</ele>
      </trkpt>
      <trkpt lat="43.79786" lon="6.39611">
        <ele>922</ele>
      </trkpt>
      <trkpt lat="43.79778" lon="6.39606">
        <ele>920</ele>
      </trkpt>
      <trkpt lat="43.79773" lon="6.39597">
        <ele>918</ele>
      </trkpt>
      <trkpt lat="43.79767" lon="6.39586">
        <ele>917</ele>
      </trkpt>
      <trkpt lat="43.7976" lon="6.39578">
        <ele>915</ele>
      </trkpt>
      <trkpt lat="43.79756" lon="6.39568">
        <ele>914</ele>
      </trkpt>
      <trkpt lat="43.79756" lon="6.39566">
        <ele>914</ele>
      </trkpt>
      <trkpt lat="43.79752" lon="6.39557">
        <ele>913</ele>
      </trkpt>
      <trkpt lat="43.79749" lon="6.39553">
        <ele>912</ele>
      </trkpt>
      <trkpt lat="43.7974" lon="6.39545">
        <ele>909</ele>
      </trkpt>
      <trkpt lat="43.79734" lon="6.39539">
        <ele>907</ele>
      </trkpt>
      <trkpt lat="43.79726" lon="6.39532">
        <ele>905</ele>
      </trkpt>
      <trkpt lat="43.79719" lon="6.39526">
        <ele>904</ele>
      </trkpt>
      <trkpt lat="43.79711" lon="6.39517">
        <ele>902</ele>
      </trkpt>
      <trkpt lat="43.79702" lon="6.39504">
        <ele>901</ele>
      </trkpt>
      <trkpt lat="43.79688" lon="6.39487">
        <ele>897</ele>
      </trkpt>
      <trkpt lat="43.79676" lon="6.39473">
        <ele>896</ele>
      </trkpt>
      <trkpt lat="43.79664" lon="6.39461">
        <ele>894</ele>
      </trkpt>
      <trkpt lat="43.79657" lon="6.39452">
        <ele>893</ele>
      </trkpt>
      <trkpt lat="43.79651" lon="6.39441">
        <ele>892</ele>
      </trkpt>
      <trkpt lat="43.7965" lon="6.39429">
        <ele>892</ele>
      </trkpt>
      <trkpt lat="43.7965" lon="6.39417">
        <ele>890</ele>
      </trkpt>
      <trkpt lat="43.7965" lon="6.39407">
        <ele>889</ele>
      </trkpt>
      <trkpt lat="43.7965" lon="6.39394">
        <ele>888</ele>
      </trkpt>
      <trkpt lat="43.79648" lon="6.39382">
        <ele>886</ele>
      </trkpt>
      <trkpt lat="43.79649" lon="6.39381">
        <ele>886</ele>
      </trkpt>
      <trkpt lat="43.79647" lon="6.39354">
        <ele>882</ele>
      </trkpt>
      <trkpt lat="43.79644" lon="6.3933">
        <ele>879</ele>
      </trkpt>
      <trkpt lat="43.79641" lon="6.3931">
        <ele>876</ele>
      </trkpt>
      <trkpt lat="43.79634" lon="6.39285">
        <ele>872</ele>
      </trkpt>
      <trkpt lat="43.79629" lon="6.39262">
        <ele>868</ele>
      </trkpt>
      <trkpt lat="43.79627" lon="6.39237">
        <ele>864</ele>
      </trkpt>
      <trkpt lat="43.79631" lon="6.39225">
        <ele>862</ele>
      </trkpt>
      <trkpt lat="43.79634" lon="6.39208">
        <ele>859</ele>
      </trkpt>
      <trkpt lat="43.79647" lon="6.39202">
        <ele>860</ele>
      </trkpt>
      <trkpt lat="43.79663" lon="6.39186">
        <ele>860</ele>
      </trkpt>
      <trkpt lat="43.7967" lon="6.39173">
        <ele>860</ele>
      </trkpt>
      <trkpt lat="43.79672" lon="6.39159">
        <ele>859</ele>
      </trkpt>
      <trkpt lat="43.79671" lon="6.39139">
        <ele>856</ele>
      </trkpt>
      <trkpt lat="43.79673" lon="6.39113">
        <ele>853</ele>
      </trkpt>
      <trkpt lat="43.79679" lon="6.39089">
        <ele>852</ele>
      </trkpt>
      <trkpt lat="43.79682" lon="6.39065">
        <ele>850</ele>
      </trkpt>
      <trkpt lat="43.79689" lon="6.39034">
        <ele>849</ele>
      </trkpt>
      <trkpt lat="43.79696" lon="6.39014">
        <ele>848</ele>
      </trkpt>
      <trkpt lat="43.79701" lon="6.38988">
        <ele>845</ele>
      </trkpt>
      <trkpt lat="43.79709" lon="6.38956">
        <ele>841</ele>
      </trkpt>
      <trkpt lat="43.79719" lon="6.38936">
        <ele>839</ele>
      </trkpt>
      <trkpt lat="43.79729" lon="6.38912">
        <ele>837</ele>
      </trkpt>
      <trkpt lat="43.79737" lon="6.3889">
        <ele>834</ele>
      </trkpt>
      <trkpt lat="43.79749" lon="6.38871">
        <ele>834</ele>
      </trkpt>
      <trkpt lat="43.79753" lon="6.38851">
        <ele>831</ele>
      </trkpt>
      <trkpt lat="43.79755" lon="6.38828">
        <ele>827</ele>
      </trkpt>
      <trkpt lat="43.79738" lon="6.38832">
        <ele>822</ele>
      </trkpt>
      <trkpt lat="43.79717" lon="6.3885">
        <ele>819</ele>
      </trkpt>
      <trkpt lat="43.79723" lon="6.38828">
        <ele>816</ele>
      </trkpt>
      <trkpt lat="43.79728" lon="6.38784">
        <ele>811</ele>
      </trkpt>
      <trkpt lat="43.79728" lon="6.38783">
        <ele>811</ele>
      </trkpt>
      <trkpt lat="43.7973" lon="6.38769">
        <ele>810</ele>
      </trkpt>
      <trkpt lat="43.79729" lon="6.38753">
        <ele>807</ele>
      </trkpt>
      <trkpt lat="43.79725" lon="6.38736">
        <ele>804</ele>
      </trkpt>
      <trkpt lat="43.79725" lon="6.38734">
        <ele>804</ele>
      </trkpt>
      <trkpt lat="43.79727" lon="6.38719">
        <ele>802</ele>
      </trkpt>
      <trkpt lat="43.79726" lon="6.38699">
        <ele>800</ele>
      </trkpt>
      <trkpt lat="43.79724" lon="6.38686">
        <ele>797</ele>
      </trkpt>
      <trkpt lat="43.79724" lon="6.38683">
        <ele>797</ele>
      </trkpt>
      <trkpt lat="43.79722" lon="6.38668">
        <ele>794</ele>
      </trkpt>
      <trkpt lat="43.79722" lon="6.38667">
        <ele>794</ele>
      </trkpt>
      <trkpt lat="43.79723" lon="6.38658">
        <ele>794</ele>
      </trkpt>
      <trkpt lat="43.79726" lon="6.38649">
        <ele>793</ele>
      </trkpt>
      <trkpt lat="43.79728" lon="6.38646">
        <ele>793</ele>
      </trkpt>
      <trkpt lat="43.79729" lon="6.38645">
        <ele>793</ele>
      </trkpt>
      <trkpt lat="43.79733" lon="6.38636">
        <ele>793</ele>
      </trkpt>
      <trkpt lat="43.79736" lon="6.38623">
        <ele>792</ele>
      </trkpt>
      <trkpt lat="43.79739" lon="6.38609">
        <ele>790</ele>
      </trkpt>
      <trkpt lat="43.79739" lon="6.38598">
        <ele>788</ele>
      </trkpt>
      <trkpt lat="43.7974" lon="6.38587">
        <ele>786</ele>
      </trkpt>
      <trkpt lat="43.79742" lon="6.38579">
        <ele>785</ele>
      </trkpt>
      <trkpt lat="43.79745" lon="6.38565">
        <ele>784</ele>
      </trkpt>
      <trkpt lat="43.79746" lon="6.38549">
        <ele>782</ele>
      </trkpt>
      <trkpt lat="43.79749" lon="6.38535">
        <ele>781</ele>
      </trkpt>
      <trkpt lat="43.79755" lon="6.38519">
        <ele>781</ele>
      </trkpt>
      <trkpt lat="43.79756" lon="6.38513">
        <ele>781</ele>
      </trkpt>
      <trkpt lat="43.79755" lon="6.38494">
        <ele>779</ele>
      </trkpt>
      <trkpt lat="43.79754" lon="6.38485">
        <ele>778</ele>
      </trkpt>
      <trkpt lat="43.79752" lon="6.38471">
        <ele>777</ele>
      </trkpt>
      <trkpt lat="43.79749" lon="6.38453">
        <ele>774</ele>
      </trkpt>
      <trkpt lat="43.7974" lon="6.3843">
        <ele>771</ele>
      </trkpt>
      <trkpt lat="43.79735" lon="6.38422">
        <ele>770</ele>
      </trkpt>
      <trkpt lat="43.79729" lon="6.38412">
        <ele>768</ele>
      </trkpt>
      <trkpt lat="43.79714" lon="6.38398">
        <ele>765</ele>
      </trkpt>
      <trkpt lat="43.79711" lon="6.38394">
        <ele>764</ele>
      </trkpt>
      <trkpt lat="43.79697" lon="6.38385">
        <ele>761</ele>
      </trkpt>
      <trkpt lat="43.79682" lon="6.38379">
        <ele>758</ele>
      </trkpt>
      <trkpt lat="43.79672" lon="6.38377">
        <ele>757</ele>
      </trkpt>
      <trkpt lat="43.79659" lon="6.38374">
        <ele>755</ele>
      </trkpt>
      <trkpt lat="43.79647" lon="6.38368">
        <ele>753</ele>
      </trkpt>
      <trkpt lat="43.79635" lon="6.38356">
        <ele>753</ele>
      </trkpt>
      <trkpt lat="43.7963" lon="6.38344">
        <ele>754</ele>
      </trkpt>
      <trkpt lat="43.79632" lon="6.38326">
        <ele>757</ele>
      </trkpt>
      <trkpt lat="43.79639" lon="6.38304">
        <ele>759</ele>
      </trkpt>
      <trkpt lat="43.79648" lon="6.38276">
        <ele>758</ele>
      </trkpt>
      <trkpt lat="43.79648" lon="6.38274">
        <ele>758</ele>
      </trkpt>
      <trkpt lat="43.7964" lon="6.38265">
        <ele>755</ele>
      </trkpt>
      <trkpt lat="43.79639" lon="6.38263">
        <ele>755</ele>
      </trkpt>
      <trkpt lat="43.79625" lon="6.38254">
        <ele>751</ele>
      </trkpt>
      <trkpt lat="43.79609" lon="6.38245">
        <ele>748</ele>
      </trkpt>
      <trkpt lat="43.79599" lon="6.38241">
        <ele>746</ele>
      </trkpt>
      <trkpt lat="43.79598" lon="6.38241">
        <ele>746</ele>
      </trkpt>
      <trkpt lat="43.79593" lon="6.3824">
        <ele>746</ele>
      </trkpt>
      <trkpt lat="43.79588" lon="6.38232">
        <ele>745</ele>
      </trkpt>
      <trkpt lat="43.79584" lon="6.38212">
        <ele>746</ele>
      </trkpt>
      <trkpt lat="43.79577" lon="6.38191">
        <ele>746</ele>
      </trkpt>
      <trkpt lat="43.79571" lon="6.38174">
        <ele>746</ele>
      </trkpt>
      <trkpt lat="43.7957" lon="6.38171">
        <ele>746</ele>
      </trkpt>
      <trkpt lat="43.79563" lon="6.38159">
        <ele>744</ele>
      </trkpt>
      <trkpt lat="43.79556" lon="6.38146">
        <ele>743</ele>
      </trkpt>
      <trkpt lat="43.79551" lon="6.38136">
        <ele>742</ele>
      </trkpt>
      <trkpt lat="43.7955" lon="6.38134">
        <ele>741</ele>
      </trkpt>
      <trkpt lat="43.7954" lon="6.38122">
        <ele>738</ele>
      </trkpt>
      <trkpt lat="43.79535" lon="6.38114">
        <ele>738</ele>
      </trkpt>
      <trkpt lat="43.79526" lon="6.381">
        <ele>736</ele>
      </trkpt>
      <trkpt lat="43.79517" lon="6.3808">
        <ele>735</ele>
      </trkpt>
      <trkpt lat="43.79514" lon="6.38075">
        <ele>735</ele>
      </trkpt>
      <trkpt lat="43.79514" lon="6.38073">
        <ele>735</ele>
      </trkpt>
      <trkpt lat="43.7951" lon="6.38061">
        <ele>735</ele>
      </trkpt>
      <trkpt lat="43.79504" lon="6.38043">
        <ele>734</ele>
      </trkpt>
      <trkpt lat="43.79493" lon="6.38022">
        <ele>732</ele>
      </trkpt>
      <trkpt lat="43.79484" lon="6.38006">
        <ele>731</ele>
      </trkpt>
      <trkpt lat="43.79478" lon="6.37986">
        <ele>730</ele>
      </trkpt>
      <trkpt lat="43.79475" lon="6.37973">
        <ele>731</ele>
      </trkpt>
      <trkpt lat="43.79477" lon="6.37952">
        <ele>733</ele>
      </trkpt>
      <trkpt lat="43.79474" lon="6.37944">
        <ele>733</ele>
      </trkpt>
      <trkpt lat="43.79466" lon="6.37929">
        <ele>732</ele>
      </trkpt>
      <trkpt lat="43.79458" lon="6.37914">
        <ele>729</ele>
      </trkpt>
      <trkpt lat="43.79456" lon="6.37889">
        <ele>728</ele>
      </trkpt>
      <trkpt lat="43.79456" lon="6.37863">
        <ele>728</ele>
      </trkpt>
      <trkpt lat="43.79456" lon="6.37844">
        <ele>728</ele>
      </trkpt>
      <trkpt lat="43.79452" lon="6.37832">
        <ele>726</ele>
      </trkpt>
      <trkpt lat="43.79449" lon="6.37814">
        <ele>725</ele>
      </trkpt>
      <trkpt lat="43.79447" lon="6.37796">
        <ele>723</ele>
      </trkpt>
      <trkpt lat="43.79442" lon="6.37777">
        <ele>720</ele>
      </trkpt>
      <trkpt lat="43.79439" lon="6.3777">
        <ele>719</ele>
      </trkpt>
      <trkpt lat="43.79428" lon="6.37761">
        <ele>716</ele>
      </trkpt>
      <trkpt lat="43.79425" lon="6.3775">
        <ele>715</ele>
      </trkpt>
      <trkpt lat="43.79421" lon="6.37745">
        <ele>714</ele>
      </trkpt>
      <trkpt lat="43.79415" lon="6.3774">
        <ele>713</ele>
      </trkpt>
      <trkpt lat="43.79404" lon="6.37738">
        <ele>711</ele>
      </trkpt>
      <trkpt lat="43.79396" lon="6.37735">
        <ele>710</ele>
      </trkpt>
      <trkpt lat="43.79387" lon="6.37734">
        <ele>709</ele>
      </trkpt>
      <trkpt lat="43.79382" lon="6.37731">
        <ele>708</ele>
      </trkpt>
      <trkpt lat="43.7937" lon="6.37733">
        <ele>706</ele>
      </trkpt>
      <trkpt lat="43.79366" lon="6.37732">
        <ele>706</ele>
      </trkpt>
      <trkpt lat="43.79356" lon="6.37728">
        <ele>705</ele>
      </trkpt>
      <trkpt lat="43.7935" lon="6.37727">
        <ele>704</ele>
      </trkpt>
      <trkpt lat="43.79343" lon="6.37728">
        <ele>703</ele>
      </trkpt>
      <trkpt lat="43.79332" lon="6.37725">
        <ele>702</ele>
      </trkpt>
      <trkpt lat="43.79318" lon="6.37725">
        <ele>700</ele>
      </trkpt>
      <trkpt lat="43.79308" lon="6.37722">
        <ele>699</ele>
      </trkpt>
      <trkpt lat="43.79298" lon="6.37721">
        <ele>699</ele>
      </trkpt>
      <trkpt lat="43.79281" lon="6.37715">
        <ele>697</ele>
      </trkpt>
      <trkpt lat="43.79276" lon="6.37712">
        <ele>697</ele>
      </trkpt>
      <trkpt lat="43.7927" lon="6.37697">
        <ele>697</ele>
      </trkpt>
      <trkpt lat="43.79276" lon="6.37675">
        <ele>697</ele>
      </trkpt>
      <trkpt lat="43.79282" lon="6.37652">
        <ele>698</ele>
      </trkpt>
      <trkpt lat="43.79287" lon="6.3763">
        <ele>698</ele>
      </trkpt>
      <trkpt lat="43.79298" lon="6.37606">
        <ele>699</ele>
      </trkpt>
      <trkpt lat="43.793" lon="6.37597">
        <ele>699</ele>
      </trkpt>
      <trkpt lat="43.79306" lon="6.37581">
        <ele>700</ele>
      </trkpt>
      <trkpt lat="43.79307" lon="6.37562">
        <ele>700</ele>
      </trkpt>
      <trkpt lat="43.79309" lon="6.3754">
        <ele>700</ele>
      </trkpt>
      <trkpt lat="43.7932" lon="6.37519">
        <ele>701</ele>
      </trkpt>
      <trkpt lat="43.79324" lon="6.3751">
        <ele>701</ele>
      </trkpt>
      <trkpt lat="43.7933" lon="6.375">
        <ele>702</ele>
      </trkpt>
      <trkpt lat="43.79335" lon="6.37494">
        <ele>702</ele>
      </trkpt>
      <trkpt lat="43.79328" lon="6.37484">
        <ele>701</ele>
      </trkpt>
      <trkpt lat="43.79321" lon="6.37476">
        <ele>700</ele>
      </trkpt>
      <trkpt lat="43.7932" lon="6.37475">
        <ele>700</ele>
      </trkpt>
      <trkpt lat="43.7932" lon="6.37472">
        <ele>700</ele>
      </trkpt>
      <trkpt lat="43.79314" lon="6.37453">
        <ele>699</ele>
      </trkpt>
      <trkpt lat="43.793" lon="6.3744">
        <ele>699</ele>
      </trkpt>
      <trkpt lat="43.79299" lon="6.37438">
        <ele>699</ele>
      </trkpt>
      <trkpt lat="43.79294" lon="6.37437">
        <ele>699</ele>
      </trkpt>
      <trkpt lat="43.7926" lon="6.37428">
        <ele>701</ele>
      </trkpt>
      <trkpt lat="43.7925" lon="6.37434">
        <ele>701</ele>
      </trkpt>
      <trkpt lat="43.79248" lon="6.37448">
        <ele>701</ele>
      </trkpt>
      <trkpt lat="43.79251" lon="6.37461">
        <ele>699</ele>
      </trkpt>
      <trkpt lat="43.79234" lon="6.37455">
        <ele>702</ele>
      </trkpt>
      <trkpt lat="43.79218" lon="6.37436">
        <ele>705</ele>
      </trkpt>
      <trkpt lat="43.79202" lon="6.37398">
        <ele>709</ele>
      </trkpt>
      <trkpt lat="43.79186" lon="6.37367">
        <ele>713</ele>
      </trkpt>
      <trkpt lat="43.79171" lon="6.37351">
        <ele>715</ele>
      </trkpt>
      <trkpt lat="43.79152" lon="6.37317">
        <ele>719</ele>
      </trkpt>
      <trkpt lat="43.7913" lon="6.37274">
        <ele>726</ele>
      </trkpt>
      <trkpt lat="43.79119" lon="6.37245">
        <ele>729</ele>
      </trkpt>
      <trkpt lat="43.79104" lon="6.37223">
        <ele>729</ele>
      </trkpt>
      <trkpt lat="43.79093" lon="6.37211">
        <ele>732</ele>
      </trkpt>
      <trkpt lat="43.79083" lon="6.37187">
        <ele>736</ele>
      </trkpt>
      <trkpt lat="43.79065" lon="6.37179">
        <ele>737</ele>
      </trkpt>
      <trkpt lat="43.79055" lon="6.37183">
        <ele>738</ele>
      </trkpt>
      <trkpt lat="43.79046" lon="6.3717">
        <ele>739</ele>
      </trkpt>
      <trkpt lat="43.79036" lon="6.37167">
        <ele>741</ele>
      </trkpt>
      <trkpt lat="43.79026" lon="6.37162">
        <ele>743</ele>
      </trkpt>
      <trkpt lat="43.79018" lon="6.37161">
        <ele>744</ele>
      </trkpt>
      <trkpt lat="43.79016" lon="6.37158">
        <ele>745</ele>
      </trkpt>
      <trkpt lat="43.79005" lon="6.37142">
        <ele>748</ele>
      </trkpt>
      <trkpt lat="43.79002" lon="6.37139">
        <ele>748</ele>
      </trkpt>
      <trkpt lat="43.78994" lon="6.37119">
        <ele>751</ele>
      </trkpt>
      <trkpt lat="43.7899" lon="6.37113">
        <ele>753</ele>
      </trkpt>
      <trkpt lat="43.78975" lon="6.371">
        <ele>756</ele>
      </trkpt>
      <trkpt lat="43.7897" lon="6.371">
        <ele>757</ele>
      </trkpt>
      <trkpt lat="43.78967" lon="6.371">
        <ele>757</ele>
      </trkpt>
      <trkpt lat="43.78953" lon="6.37097">
        <ele>758</ele>
      </trkpt>
      <trkpt lat="43.7894" lon="6.37098">
        <ele>759</ele>
      </trkpt>
      <trkpt lat="43.78932" lon="6.3709">
        <ele>760</ele>
      </trkpt>
      <trkpt lat="43.7893" lon="6.37083">
        <ele>761</ele>
      </trkpt>
      <trkpt lat="43.78918" lon="6.37075">
        <ele>765</ele>
      </trkpt>
      <trkpt lat="43.78892" lon="6.37073">
        <ele>770</ele>
      </trkpt>
      <trkpt lat="43.78877" lon="6.37075">
        <ele>772</ele>
      </trkpt>
      <trkpt lat="43.78864" lon="6.37074">
        <ele>777</ele>
      </trkpt>
      <trkpt lat="43.78843" lon="6.37065">
        <ele>786</ele>
      </trkpt>
      <trkpt lat="43.78836" lon="6.37059">
        <ele>789</ele>
      </trkpt>
      <trkpt lat="43.78824" lon="6.37052">
        <ele>791</ele>
      </trkpt>
      <trkpt lat="43.7881" lon="6.37048">
        <ele>793</ele>
      </trkpt>
      <trkpt lat="43.78787" lon="6.37029">
        <ele>795</ele>
      </trkpt>
      <trkpt lat="43.78777" lon="6.37023">
        <ele>795</ele>
      </trkpt>
      <trkpt lat="43.78764" lon="6.37029">
        <ele>794</ele>
      </trkpt>
      <trkpt lat="43.78756" lon="6.37027">
        <ele>793</ele>
      </trkpt>
      <trkpt lat="43.78751" lon="6.37024">
        <ele>794</ele>
      </trkpt>
      <trkpt lat="43.78738" lon="6.37016">
        <ele>795</ele>
      </trkpt>
      <trkpt lat="43.78722" lon="6.36999">
        <ele>798</ele>
      </trkpt>
      <trkpt lat="43.78714" lon="6.36984">
        <ele>801</ele>
      </trkpt>
      <trkpt lat="43.78704" lon="6.36967">
        <ele>806</ele>
      </trkpt>
      <trkpt lat="43.78699" lon="6.36954">
        <ele>809</ele>
      </trkpt>
      <trkpt lat="43.78693" lon="6.3693">
        <ele>813</ele>
      </trkpt>
      <trkpt lat="43.78681" lon="6.36918">
        <ele>815</ele>
      </trkpt>
      <trkpt lat="43.78679" lon="6.36915">
        <ele>815</ele>
      </trkpt>
      <trkpt lat="43.78666" lon="6.36901">
        <ele>817</ele>
      </trkpt>
      <trkpt lat="43.78655" lon="6.36888">
        <ele>818</ele>
      </trkpt>
      <trkpt lat="43.7864" lon="6.36856">
        <ele>822</ele>
      </trkpt>
      <trkpt lat="43.78635" lon="6.36829">
        <ele>823</ele>
      </trkpt>
      <trkpt lat="43.78631" lon="6.36815">
        <ele>824</ele>
      </trkpt>
      <trkpt lat="43.78621" lon="6.36795">
        <ele>826</ele>
      </trkpt>
      <trkpt lat="43.78613" lon="6.36783">
        <ele>828</ele>
      </trkpt>
      <trkpt lat="43.78605" lon="6.36774">
        <ele>828</ele>
      </trkpt>
      <trkpt lat="43.78597" lon="6.36763">
        <ele>829</ele>
      </trkpt>
      <trkpt lat="43.78595" lon="6.36759">
        <ele>830</ele>
      </trkpt>
      <trkpt lat="43.78581" lon="6.36733">
        <ele>832</ele>
      </trkpt>
      <trkpt lat="43.78574" lon="6.3671">
        <ele>833</ele>
      </trkpt>
      <trkpt lat="43.7857" lon="6.36692">
        <ele>834</ele>
      </trkpt>
      <trkpt lat="43.78563" lon="6.36667">
        <ele>835</ele>
      </trkpt>
      <trkpt lat="43.78559" lon="6.36655">
        <ele>836</ele>
      </trkpt>
      <trkpt lat="43.78556" lon="6.36626">
        <ele>837</ele>
      </trkpt>
      <trkpt lat="43.78555" lon="6.36624">
        <ele>837</ele>
      </trkpt>
      <trkpt lat="43.7855" lon="6.36608">
        <ele>838</ele>
      </trkpt>
      <trkpt lat="43.78551" lon="6.36584">
        <ele>840</ele>
      </trkpt>
      <trkpt lat="43.78546" lon="6.36572">
        <ele>840</ele>
      </trkpt>
      <trkpt lat="43.7853" lon="6.36565">
        <ele>838</ele>
      </trkpt>
      <trkpt lat="43.78529" lon="6.36562">
        <ele>838</ele>
      </trkpt>
      <trkpt lat="43.78521" lon="6.36554">
        <ele>837</ele>
      </trkpt>
      <trkpt lat="43.78517" lon="6.36548">
        <ele>837</ele>
      </trkpt>
      <trkpt lat="43.78514" lon="6.36545">
        <ele>837</ele>
      </trkpt>
      <trkpt lat="43.78499" lon="6.36529">
        <ele>838</ele>
      </trkpt>
      <trkpt lat="43.78478" lon="6.36514">
        <ele>840</ele>
      </trkpt>
      <trkpt lat="43.78463" lon="6.36498">
        <ele>842</ele>
      </trkpt>
      <trkpt lat="43.78441" lon="6.36471">
        <ele>845</ele>
      </trkpt>
      <trkpt lat="43.78428" lon="6.36447">
        <ele>847</ele>
      </trkpt>
      <trkpt lat="43.7842" lon="6.36434">
        <ele>849</ele>
      </trkpt>
      <trkpt lat="43.78401" lon="6.36392">
        <ele>852</ele>
      </trkpt>
      <trkpt lat="43.78382" lon="6.36355">
        <ele>854</ele>
      </trkpt>
      <trkpt lat="43.78376" lon="6.36333">
        <ele>855</ele>
      </trkpt>
      <trkpt lat="43.78376" lon="6.36308">
        <ele>859</ele>
      </trkpt>
      <trkpt lat="43.78378" lon="6.36279">
        <ele>862</ele>
      </trkpt>
      <trkpt lat="43.78379" lon="6.36253">
        <ele>864</ele>
      </trkpt>
      <trkpt lat="43.78376" lon="6.3624">
        <ele>864</ele>
      </trkpt>
      <trkpt lat="43.78371" lon="6.36214">
        <ele>864</ele>
      </trkpt>
      <trkpt lat="43.78367" lon="6.36189">
        <ele>865</ele>
      </trkpt>
      <trkpt lat="43.78351" lon="6.36167">
        <ele>864</ele>
      </trkpt>
      <trkpt lat="43.78339" lon="6.36139">
        <ele>865</ele>
      </trkpt>
      <trkpt lat="43.78336" lon="6.36132">
        <ele>865</ele>
      </trkpt>
      <trkpt lat="43.78329" lon="6.36103">
        <ele>867</ele>
      </trkpt>
      <trkpt lat="43.78327" lon="6.36099">
        <ele>867</ele>
      </trkpt>
      <trkpt lat="43.78318" lon="6.36091">
        <ele>867</ele>
      </trkpt>
      <trkpt lat="43.78306" lon="6.3608">
        <ele>867</ele>
      </trkpt>
      <trkpt lat="43.78302" lon="6.36073">
        <ele>867</ele>
      </trkpt>
      <trkpt lat="43.78296" lon="6.36057">
        <ele>869</ele>
      </trkpt>
      <trkpt lat="43.7829" lon="6.36041">
        <ele>871</ele>
      </trkpt>
      <trkpt lat="43.78281" lon="6.36015">
        <ele>874</ele>
      </trkpt>
      <trkpt lat="43.78281" lon="6.36009">
        <ele>875</ele>
      </trkpt>
      <trkpt lat="43.78271" lon="6.35981">
        <ele>878</ele>
      </trkpt>
      <trkpt lat="43.78258" lon="6.35953">
        <ele>878</ele>
      </trkpt>
      <trkpt lat="43.78256" lon="6.35948">
        <ele>878</ele>
      </trkpt>
      <trkpt lat="43.78247" lon="6.35917">
        <ele>881</ele>
      </trkpt>
      <trkpt lat="43.7824" lon="6.35897">
        <ele>881</ele>
      </trkpt>
      <trkpt lat="43.78231" lon="6.35875">
        <ele>881</ele>
      </trkpt>
      <trkpt lat="43.78228" lon="6.35867">
        <ele>881</ele>
      </trkpt>
      <trkpt lat="43.78222" lon="6.35827">
        <ele>883</ele>
      </trkpt>
      <trkpt lat="43.78222" lon="6.35812">
        <ele>884</ele>
      </trkpt>
      <trkpt lat="43.78219" lon="6.3577">
        <ele>885</ele>
      </trkpt>
      <trkpt lat="43.78211" lon="6.35739">
        <ele>882</ele>
      </trkpt>
      <trkpt lat="43.78207" lon="6.35712">
        <ele>882</ele>
      </trkpt>
      <trkpt lat="43.78206" lon="6.35684">
        <ele>883</ele>
      </trkpt>
      <trkpt lat="43.78198" lon="6.35652">
        <ele>884</ele>
      </trkpt>
      <trkpt lat="43.78175" lon="6.35608">
        <ele>885</ele>
      </trkpt>
      <trkpt lat="43.7816" lon="6.35561">
        <ele>887</ele>
      </trkpt>
      <trkpt lat="43.78142" lon="6.35486">
        <ele>892</ele>
      </trkpt>
      <trkpt lat="43.78124" lon="6.35423">
        <ele>893</ele>
      </trkpt>
      <trkpt lat="43.7811" lon="6.35388">
        <ele>894</ele>
      </trkpt>
      <trkpt lat="43.78107" lon="6.35374">
        <ele>894</ele>
      </trkpt>
      <trkpt lat="43.78104" lon="6.35351">
        <ele>895</ele>
      </trkpt>
      <trkpt lat="43.78094" lon="6.3532">
        <ele>895</ele>
      </trkpt>
      <trkpt lat="43.78091" lon="6.35298">
        <ele>896</ele>
      </trkpt>
      <trkpt lat="43.78087" lon="6.35268">
        <ele>896</ele>
      </trkpt>
      <trkpt lat="43.78081" lon="6.35246">
        <ele>896</ele>
      </trkpt>
      <trkpt lat="43.7807" lon="6.3522">
        <ele>896</ele>
      </trkpt>
      <trkpt lat="43.78064" lon="6.35199">
        <ele>896</ele>
      </trkpt>
      <trkpt lat="43.78057" lon="6.35176">
        <ele>897</ele>
      </trkpt>
      <trkpt lat="43.78047" lon="6.35155">
        <ele>897</ele>
      </trkpt>
      <trkpt lat="43.78045" lon="6.35124">
        <ele>897</ele>
      </trkpt>
      <trkpt lat="43.78039" lon="6.3505">
        <ele>898</ele>
      </trkpt>
      <trkpt lat="43.78035" lon="6.3497">
        <ele>899</ele>
      </trkpt>
      <trkpt lat="43.78038" lon="6.34936">
        <ele>901</ele>
      </trkpt>
      <trkpt lat="43.78049" lon="6.34899">
        <ele>903</ele>
      </trkpt>
      <trkpt lat="43.78068" lon="6.34856">
        <ele>907</ele>
      </trkpt>
      <trkpt lat="43.78091" lon="6.34804">
        <ele>908</ele>
      </trkpt>
      <trkpt lat="43.7811" lon="6.34762">
        <ele>909</ele>
      </trkpt>
      <trkpt lat="43.78117" lon="6.34745">
        <ele>908</ele>
      </trkpt>
      <trkpt lat="43.78119" lon="6.34739">
        <ele>908</ele>
      </trkpt>
      <trkpt lat="43.78121" lon="6.34736">
        <ele>908</ele>
      </trkpt>
      <trkpt lat="43.78085" lon="6.34729">
        <ele>905</ele>
      </trkpt>
      <trkpt lat="43.78055" lon="6.34709">
        <ele>904</ele>
      </trkpt>
      <trkpt lat="43.78032" lon="6.34717">
        <ele>903</ele>
      </trkpt>
      <trkpt lat="43.78011" lon="6.34709">
        <ele>902</ele>
      </trkpt>
      <trkpt lat="43.77987" lon="6.34731">
        <ele>901</ele>
      </trkpt>
      <trkpt lat="43.77958" lon="6.34718">
        <ele>900</ele>
      </trkpt>
      <trkpt lat="43.7794" lon="6.34716">
        <ele>899</ele>
      </trkpt>
      <trkpt lat="43.77916" lon="6.34601">
        <ele>902</ele>
      </trkpt>
      <trkpt lat="43.77923" lon="6.34532">
        <ele>904</ele>
      </trkpt>
      <trkpt lat="43.77923" lon="6.34414">
        <ele>909</ele>
      </trkpt>
      <trkpt lat="43.77906" lon="6.3433">
        <ele>910</ele>
      </trkpt>
      <trkpt lat="43.77893" lon="6.34226">
        <ele>915</ele>
      </trkpt>
      <trkpt lat="43.77879" lon="6.34162">
        <ele>918</ele>
      </trkpt>
      <trkpt lat="43.77887" lon="6.34111">
        <ele>922</ele>
      </trkpt>
      <trkpt lat="43.77908" lon="6.34055">
        <ele>926</ele>
      </trkpt>
      <trkpt lat="43.77923" lon="6.34037">
        <ele>928</ele>
      </trkpt>
      <trkpt lat="43.77952" lon="6.34026">
        <ele>931</ele>
      </trkpt>
      <trkpt lat="43.77974" lon="6.34023">
        <ele>931</ele>
      </trkpt>
      <trkpt lat="43.77984" lon="6.34054">
        <ele>930</ele>
      </trkpt>
      <trkpt lat="43.7799" lon="6.34095">
        <ele>929</ele>
      </trkpt>
      <trkpt lat="43.78003" lon="6.34142">
        <ele>926</ele>
      </trkpt>
      <trkpt lat="43.78013" lon="6.34173">
        <ele>924</ele>
      </trkpt>
      <trkpt lat="43.78021" lon="6.34199">
        <ele>923</ele>
      </trkpt>
      <trkpt lat="43.78026" lon="6.34221">
        <ele>922</ele>
      </trkpt>
      <trkpt lat="43.78031" lon="6.34248">
        <ele>921</ele>
      </trkpt>
      <trkpt lat="43.78044" lon="6.34294">
        <ele>919</ele>
      </trkpt>
      <trkpt lat="43.78088" lon="6.34364">
        <ele>913</ele>
      </trkpt>
      <trkpt lat="43.78141" lon="6.34431">
        <ele>909</ele>
      </trkpt>
      <trkpt lat="43.78173" lon="6.34472">
        <ele>908</ele>
      </trkpt>
      <trkpt lat="43.78207" lon="6.34517">
        <ele>908</ele>
      </trkpt>
      <trkpt lat="43.78211" lon="6.34524">
        <ele>908</ele>
      </trkpt>
      <trkpt lat="43.78239" lon="6.34535">
        <ele>909</ele>
      </trkpt>
      <trkpt lat="43.78256" lon="6.34535">
        <ele>910</ele>
      </trkpt>
      <trkpt lat="43.78262" lon="6.34515">
        <ele>910</ele>
      </trkpt>
      <trkpt lat="43.78287" lon="6.34505">
        <ele>912</ele>
      </trkpt>
      <trkpt lat="43.78328" lon="6.34537">
        <ele>914</ele>
      </trkpt>
      <trkpt lat="43.78351" lon="6.34538">
        <ele>916</ele>
      </trkpt>
      <trkpt lat="43.78372" lon="6.34544">
        <ele>916</ele>
      </trkpt>
      <trkpt lat="43.78388" lon="6.34544">
        <ele>917</ele>
      </trkpt>
      <trkpt lat="43.78411" lon="6.34533">
        <ele>920</ele>
      </trkpt>
      <trkpt lat="43.78438" lon="6.34504">
        <ele>921</ele>
      </trkpt>
      <trkpt lat="43.78469" lon="6.34486">
        <ele>928</ele>
      </trkpt>
      <trkpt lat="43.7851" lon="6.34482">
        <ele>932</ele>
      </trkpt>
      <trkpt lat="43.7854" lon="6.34467">
        <ele>931</ele>
      </trkpt>
      <trkpt lat="43.78568" lon="6.3444">
        <ele>928</ele>
      </trkpt>
      <trkpt lat="43.78599" lon="6.34433">
        <ele>928</ele>
      </trkpt>
      <trkpt lat="43.78627" lon="6.34449">
        <ele>928</ele>
      </trkpt>
      <trkpt lat="43.78674" lon="6.34457">
        <ele>931</ele>
      </trkpt>
      <trkpt lat="43.787" lon="6.34455">
        <ele>932</ele>
      </trkpt>
      <trkpt lat="43.78714" lon="6.34454">
        <ele>933</ele>
      </trkpt>
      <trkpt lat="43.7874" lon="6.34453">
        <ele>936</ele>
      </trkpt>
      <trkpt lat="43.78767" lon="6.34426">
        <ele>938</ele>
      </trkpt>
      <trkpt lat="43.78799" lon="6.34421">
        <ele>942</ele>
      </trkpt>
      <trkpt lat="43.78845" lon="6.34422">
        <ele>947</ele>
      </trkpt>
      <trkpt lat="43.78883" lon="6.34419">
        <ele>953</ele>
      </trkpt>
      <trkpt lat="43.78911" lon="6.34407">
        <ele>955</ele>
      </trkpt>
      <trkpt lat="43.78937" lon="6.34424">
        <ele>965</ele>
      </trkpt>
      <trkpt lat="43.78968" lon="6.34396">
        <ele>963</ele>
      </trkpt>
      <trkpt lat="43.79" lon="6.34389">
        <ele>962</ele>
      </trkpt>
      <trkpt lat="43.79033" lon="6.34406">
        <ele>963</ele>
      </trkpt>
      <trkpt lat="43.7906" lon="6.34432">
        <ele>962</ele>
      </trkpt>
      <trkpt lat="43.79092" lon="6.34462">
        <ele>967</ele>
      </trkpt>
      <trkpt lat="43.79092" lon="6.34532">
        <ele>965</ele>
      </trkpt>
      <trkpt lat="43.79086" lon="6.34627">
        <ele>967</ele>
      </trkpt>
      <trkpt lat="43.79092" lon="6.34698">
        <ele>968</ele>
      </trkpt>
      <trkpt lat="43.79109" lon="6.34754">
        <ele>969</ele>
      </trkpt>
      <trkpt lat="43.79109" lon="6.34829">
        <ele>970</ele>
      </trkpt>
      <trkpt lat="43.79141" lon="6.34967">
        <ele>975</ele>
      </trkpt>
      <trkpt lat="43.7917" lon="6.35058">
        <ele>976</ele>
      </trkpt>
      <trkpt lat="43.79205" lon="6.35095">
        <ele>977</ele>
      </trkpt>
      <trkpt lat="43.79224" lon="6.35141">
        <ele>979</ele>
      </trkpt>
      <trkpt lat="43.79225" lon="6.35204">
        <ele>984</ele>
      </trkpt>
      <trkpt lat="43.79253" lon="6.3527">
        <ele>986</ele>
      </trkpt>
      <trkpt lat="43.79301" lon="6.35351">
        <ele>992</ele>
      </trkpt>
      <trkpt lat="43.79363" lon="6.35405">
        <ele>997</ele>
      </trkpt>
      <trkpt lat="43.79412" lon="6.35444">
        <ele>994</ele>
      </trkpt>
      <trkpt lat="43.79441" lon="6.35471">
        <ele>984</ele>
      </trkpt>
      <trkpt lat="43.79475" lon="6.35485">
        <ele>977</ele>
      </trkpt>
      <trkpt lat="43.79488" lon="6.35475">
        <ele>979</ele>
      </trkpt>
      <trkpt lat="43.7951" lon="6.35407">
        <ele>990</ele>
      </trkpt>
      <trkpt lat="43.7952" lon="6.35333">
        <ele>998</ele>
      </trkpt>
      <trkpt lat="43.7952" lon="6.35312">
        <ele>1000</ele>
      </trkpt>
      <trkpt lat="43.79537" lon="6.35289">
        <ele>1003</ele>
      </trkpt>
      <trkpt lat="43.79544" lon="6.35273">
        <ele>1006</ele>
      </trkpt>
      <trkpt lat="43.79544" lon="6.35247">
        <ele>1008</ele>
      </trkpt>
      <trkpt lat="43.7955" lon="6.35227">
        <ele>1010</ele>
      </trkpt>
      <trkpt lat="43.79551" lon="6.35194">
        <ele>1013</ele>
      </trkpt>
      <trkpt lat="43.79543" lon="6.35176">
        <ele>1013</ele>
      </trkpt>
      <trkpt lat="43.79563" lon="6.35156">
        <ele>1019</ele>
      </trkpt>
      <trkpt lat="43.79578" lon="6.35147">
        <ele>1023</ele>
      </trkpt>
      <trkpt lat="43.79589" lon="6.35126">
        <ele>1029</ele>
      </trkpt>
      <trkpt lat="43.79602" lon="6.35102">
        <ele>1035</ele>
      </trkpt>
      <trkpt lat="43.79612" lon="6.35092">
        <ele>1039</ele>
      </trkpt>
      <trkpt lat="43.79618" lon="6.35054">
        <ele>1040</ele>
      </trkpt>
      <trkpt lat="43.79635" lon="6.35035">
        <ele>1042</ele>
      </trkpt>
      <trkpt lat="43.79641" lon="6.3501">
        <ele>1043</ele>
      </trkpt>
      <trkpt lat="43.79663" lon="6.34976">
        <ele>1045</ele>
      </trkpt>
      <trkpt lat="43.79676" lon="6.34955">
        <ele>1044</ele>
      </trkpt>
      <trkpt lat="43.79699" lon="6.3493">
        <ele>1043</ele>
      </trkpt>
      <trkpt lat="43.79723" lon="6.3491">
        <ele>1040</ele>
      </trkpt>
      <trkpt lat="43.79737" lon="6.34876">
        <ele>1038</ele>
      </trkpt>
      <trkpt lat="43.79756" lon="6.34842">
        <ele>1035</ele>
      </trkpt>
      <trkpt lat="43.7978" lon="6.34835">
        <ele>1034</ele>
      </trkpt>
      <trkpt lat="43.79795" lon="6.34828">
        <ele>1034</ele>
      </trkpt>
      <trkpt lat="43.79806" lon="6.34805">
        <ele>1032</ele>
      </trkpt>
      <trkpt lat="43.79824" lon="6.34779">
        <ele>1029</ele>
      </trkpt>
      <trkpt lat="43.79838" lon="6.34758">
        <ele>1029</ele>
      </trkpt>
      <trkpt lat="43.79855" lon="6.34733">
        <ele>1028</ele>
      </trkpt>
      <trkpt lat="43.79892" lon="6.34699">
        <ele>1027</ele>
      </trkpt>
      <trkpt lat="43.79904" lon="6.34687">
        <ele>1026</ele>
      </trkpt>
      <trkpt lat="43.79924" lon="6.34642">
        <ele>1023</ele>
      </trkpt>
      <trkpt lat="43.79948" lon="6.3459">
        <ele>1021</ele>
      </trkpt>
      <trkpt lat="43.79956" lon="6.3457">
        <ele>1020</ele>
      </trkpt>
      <trkpt lat="43.7996" lon="6.34547">
        <ele>1018</ele>
      </trkpt>
      <trkpt lat="43.79962" lon="6.34522">
        <ele>1018</ele>
      </trkpt>
      <trkpt lat="43.79966" lon="6.34495">
        <ele>1018</ele>
      </trkpt>
      <trkpt lat="43.79958" lon="6.34462">
        <ele>1018</ele>
      </trkpt>
      <trkpt lat="43.79949" lon="6.34447">
        <ele>1018</ele>
      </trkpt>
      <trkpt lat="43.79952" lon="6.34403">
        <ele>1017</ele>
      </trkpt>
      <trkpt lat="43.79951" lon="6.34371">
        <ele>1017</ele>
      </trkpt>
      <trkpt lat="43.79949" lon="6.34337">
        <ele>1016</ele>
      </trkpt>
      <trkpt lat="43.79947" lon="6.34313">
        <ele>1016</ele>
      </trkpt>
      <trkpt lat="43.79945" lon="6.34281">
        <ele>1015</ele>
      </trkpt>
      <trkpt lat="43.79942" lon="6.34257">
        <ele>1015</ele>
      </trkpt>
      <trkpt lat="43.79943" lon="6.34232">
        <ele>1015</ele>
      </trkpt>
      <trkpt lat="43.79925" lon="6.34207">
        <ele>1015</ele>
      </trkpt>
      <trkpt lat="43.79932" lon="6.34176">
        <ele>1013</ele>
      </trkpt>
      <trkpt lat="43.79942" lon="6.34137">
        <ele>1012</ele>
      </trkpt>
      <trkpt lat="43.79952" lon="6.3409">
        <ele>1010</ele>
      </trkpt>
      <trkpt lat="43.79962" lon="6.34037">
        <ele>1010</ele>
      </trkpt>
      <trkpt lat="43.79973" lon="6.34003">
        <ele>1010</ele>
      </trkpt>
      <trkpt lat="43.79982" lon="6.33961">
        <ele>1010</ele>
      </trkpt>
      <trkpt lat="43.79998" lon="6.33933">
        <ele>1009</ele>
      </trkpt>
      <trkpt lat="43.80015" lon="6.33903">
        <ele>1010</ele>
      </trkpt>
      <trkpt lat="43.80014" lon="6.33872">
        <ele>1011</ele>
      </trkpt>
      <trkpt lat="43.80045" lon="6.33874">
        <ele>1008</ele>
      </trkpt>
      <trkpt lat="43.80064" lon="6.33882">
        <ele>1009</ele>
      </trkpt>
      <trkpt lat="43.80078" lon="6.33915">
        <ele>1009</ele>
      </trkpt>
      <trkpt lat="43.80109" lon="6.33926">
        <ele>1008</ele>
      </trkpt>
      <trkpt lat="43.80134" lon="6.33925">
        <ele>1008</ele>
      </trkpt>
      <trkpt lat="43.8016" lon="6.33915">
        <ele>1008</ele>
      </trkpt>
      <trkpt lat="43.8019" lon="6.33921">
        <ele>1007</ele>
      </trkpt>
      <trkpt lat="43.80219" lon="6.33927">
        <ele>1008</ele>
      </trkpt>
      <trkpt lat="43.80244" lon="6.33932">
        <ele>1008</ele>
      </trkpt>
      <trkpt lat="43.80279" lon="6.33931">
        <ele>1008</ele>
      </trkpt>
      <trkpt lat="43.80309" lon="6.33941">
        <ele>1009</ele>
      </trkpt>
      <trkpt lat="43.80331" lon="6.33913">
        <ele>1004</ele>
      </trkpt>
      <trkpt lat="43.80345" lon="6.33896">
        <ele>1002</ele>
      </trkpt>
      <trkpt lat="43.80361" lon="6.33882">
        <ele>1000</ele>
      </trkpt>
      <trkpt lat="43.8039" lon="6.33875">
        <ele>1000</ele>
      </trkpt>
      <trkpt lat="43.80415" lon="6.3387">
        <ele>1000</ele>
      </trkpt>
      <trkpt lat="43.80443" lon="6.33873">
        <ele>1000</ele>
      </trkpt>
      <trkpt lat="43.80455" lon="6.33885">
        <ele>1000</ele>
      </trkpt>
      <trkpt lat="43.80459" lon="6.33929">
        <ele>1001</ele>
      </trkpt>
      <trkpt lat="43.80462" lon="6.33958">
        <ele>1002</ele>
      </trkpt>
      <trkpt lat="43.80472" lon="6.3396">
        <ele>1002</ele>
      </trkpt>
      <trkpt lat="43.80493" lon="6.3397">
        <ele>1003</ele>
      </trkpt>
      <trkpt lat="43.80514" lon="6.33973">
        <ele>1004</ele>
      </trkpt>
      <trkpt lat="43.80537" lon="6.33995">
        <ele>1008</ele>
      </trkpt>
      <trkpt lat="43.80546" lon="6.33982">
        <ele>1008</ele>
      </trkpt>
      <trkpt lat="43.80563" lon="6.33913">
        <ele>1007</ele>
      </trkpt>
      <trkpt lat="43.80565" lon="6.33879">
        <ele>1008</ele>
      </trkpt>
      <trkpt lat="43.80568" lon="6.33849">
        <ele>1008</ele>
      </trkpt>
      <trkpt lat="43.80581" lon="6.33802">
        <ele>1009</ele>
      </trkpt>
      <trkpt lat="43.80602" lon="6.33742">
        <ele>1011</ele>
      </trkpt>
      <trkpt lat="43.80616" lon="6.337">
        <ele>1011</ele>
      </trkpt>
      <trkpt lat="43.80634" lon="6.33652">
        <ele>1009</ele>
      </trkpt>
      <trkpt lat="43.8065" lon="6.3361">
        <ele>1009</ele>
      </trkpt>
      <trkpt lat="43.80668" lon="6.33565">
        <ele>1009</ele>
      </trkpt>
      <trkpt lat="43.8068" lon="6.33528">
        <ele>1009</ele>
      </trkpt>
      <trkpt lat="43.80688" lon="6.335">
        <ele>1010</ele>
      </trkpt>
      <trkpt lat="43.807" lon="6.33485">
        <ele>1012</ele>
      </trkpt>
      <trkpt lat="43.80714" lon="6.33471">
        <ele>1014</ele>
      </trkpt>
      <trkpt lat="43.80725" lon="6.33458">
        <ele>1015</ele>
      </trkpt>
      <trkpt lat="43.80741" lon="6.3344">
        <ele>1017</ele>
      </trkpt>
      <trkpt lat="43.80754" lon="6.33427">
        <ele>1019</ele>
      </trkpt>
      <trkpt lat="43.80771" lon="6.33412">
        <ele>1022</ele>
      </trkpt>
      <trkpt lat="43.80786" lon="6.33401">
        <ele>1023</ele>
      </trkpt>
      <trkpt lat="43.80801" lon="6.33391">
        <ele>1024</ele>
      </trkpt>
      <trkpt lat="43.80814" lon="6.33383">
        <ele>1025</ele>
      </trkpt>
      <trkpt lat="43.80831" lon="6.33371">
        <ele>1027</ele>
      </trkpt>
      <trkpt lat="43.80849" lon="6.33357">
        <ele>1028</ele>
      </trkpt>
      <trkpt lat="43.80865" lon="6.33345">
        <ele>1030</ele>
      </trkpt>
      <trkpt lat="43.80879" lon="6.33334">
        <ele>1032</ele>
      </trkpt>
      <trkpt lat="43.80897" lon="6.33323">
        <ele>1034</ele>
      </trkpt>
      <trkpt lat="43.8091" lon="6.33318">
        <ele>1035</ele>
      </trkpt>
      <trkpt lat="43.8092" lon="6.33307">
        <ele>1037</ele>
      </trkpt>
      <trkpt lat="43.80922" lon="6.33303">
        <ele>1038</ele>
      </trkpt>
      <trkpt lat="43.80928" lon="6.33303">
        <ele>1038</ele>
      </trkpt>
      <trkpt lat="43.80935" lon="6.33305">
        <ele>1039</ele>
      </trkpt>
      <trkpt lat="43.80951" lon="6.33305">
        <ele>1041</ele>
      </trkpt>
      <trkpt lat="43.80962" lon="6.33313">
        <ele>1042</ele>
      </trkpt>
      <trkpt lat="43.80972" lon="6.33324">
        <ele>1044</ele>
      </trkpt>
      <trkpt lat="43.80986" lon="6.3334">
        <ele>1046</ele>
      </trkpt>
      <trkpt lat="43.80998" lon="6.33357">
        <ele>1048</ele>
      </trkpt>
      <trkpt lat="43.81006" lon="6.33368">
        <ele>1049</ele>
      </trkpt>
      <trkpt lat="43.81015" lon="6.33379">
        <ele>1052</ele>
      </trkpt>
      <trkpt lat="43.81023" lon="6.33387">
        <ele>1054</ele>
      </trkpt>
      <trkpt lat="43.81031" lon="6.33395">
        <ele>1056</ele>
      </trkpt>
      <trkpt lat="43.81041" lon="6.33407">
        <ele>1059</ele>
      </trkpt>
      <trkpt lat="43.81048" lon="6.33421">
        <ele>1063</ele>
      </trkpt>
      <trkpt lat="43.81055" lon="6.33434">
        <ele>1068</ele>
      </trkpt>
      <trkpt lat="43.81061" lon="6.33451">
        <ele>1072</ele>
      </trkpt>
      <trkpt lat="43.81065" lon="6.33466">
        <ele>1075</ele>
      </trkpt>
      <trkpt lat="43.81069" lon="6.33481">
        <ele>1077</ele>
      </trkpt>
      <trkpt lat="43.81072" lon="6.33497">
        <ele>1078</ele>
      </trkpt>
      <trkpt lat="43.81076" lon="6.33513">
        <ele>1079</ele>
      </trkpt>
      <trkpt lat="43.8108" lon="6.33524">
        <ele>1080</ele>
      </trkpt>
      <trkpt lat="43.81084" lon="6.33537">
        <ele>1081</ele>
      </trkpt>
      <trkpt lat="43.81088" lon="6.33548">
        <ele>1082</ele>
      </trkpt>
      <trkpt lat="43.81094" lon="6.33564">
        <ele>1084</ele>
      </trkpt>
      <trkpt lat="43.811" lon="6.33582">
        <ele>1089</ele>
      </trkpt>
      <trkpt lat="43.81104" lon="6.33597">
        <ele>1092</ele>
      </trkpt>
      <trkpt lat="43.81107" lon="6.33609">
        <ele>1095</ele>
      </trkpt>
      <trkpt lat="43.81105" lon="6.33625">
        <ele>1096</ele>
      </trkpt>
      <trkpt lat="43.81105" lon="6.33629">
        <ele>1096</ele>
      </trkpt>
      <trkpt lat="43.81109" lon="6.33636">
        <ele>1099</ele>
      </trkpt>
      <trkpt lat="43.81114" lon="6.3363">
        <ele>1101</ele>
      </trkpt>
      <trkpt lat="43.81115" lon="6.33625">
        <ele>1101</ele>
      </trkpt>
      <trkpt lat="43.81115" lon="6.336">
        <ele>1098</ele>
      </trkpt>
      <trkpt lat="43.81112" lon="6.33575">
        <ele>1094</ele>
      </trkpt>
      <trkpt lat="43.81108" lon="6.33557">
        <ele>1091</ele>
      </trkpt>
      <trkpt lat="43.81105" lon="6.33539">
        <ele>1090</ele>
      </trkpt>
      <trkpt lat="43.81103" lon="6.33522">
        <ele>1089</ele>
      </trkpt>
      <trkpt lat="43.81102" lon="6.33502">
        <ele>1089</ele>
      </trkpt>
      <trkpt lat="43.81105" lon="6.33488">
        <ele>1091</ele>
      </trkpt>
      <trkpt lat="43.81106" lon="6.33486">
        <ele>1091</ele>
      </trkpt>
      <trkpt lat="43.81111" lon="6.33476">
        <ele>1094</ele>
      </trkpt>
      <trkpt lat="43.81116" lon="6.33476">
        <ele>1095</ele>
      </trkpt>
      <trkpt lat="43.81123" lon="6.33488">
        <ele>1097</ele>
      </trkpt>
      <trkpt lat="43.81124" lon="6.33501">
        <ele>1096</ele>
      </trkpt>
      <trkpt lat="43.8113" lon="6.33514">
        <ele>1098</ele>
      </trkpt>
      <trkpt lat="43.81138" lon="6.33527">
        <ele>1104</ele>
      </trkpt>
      <trkpt lat="43.81149" lon="6.3354">
        <ele>1110</ele>
      </trkpt>
      <trkpt lat="43.81159" lon="6.33559">
        <ele>1118</ele>
      </trkpt>
      <trkpt lat="43.81161" lon="6.33577">
        <ele>1121</ele>
      </trkpt>
      <trkpt lat="43.81158" lon="6.3359">
        <ele>1120</ele>
      </trkpt>
      <trkpt lat="43.81154" lon="6.33599">
        <ele>1117</ele>
      </trkpt>
      <trkpt lat="43.81153" lon="6.33604">
        <ele>1117</ele>
      </trkpt>
      <trkpt lat="43.81153" lon="6.33628">
        <ele>1118</ele>
      </trkpt>
      <trkpt lat="43.81155" lon="6.33642">
        <ele>1119</ele>
      </trkpt>
      <trkpt lat="43.81154" lon="6.33655">
        <ele>1119</ele>
      </trkpt>
      <trkpt lat="43.81158" lon="6.33671">
        <ele>1120</ele>
      </trkpt>
      <trkpt lat="43.8116" lon="6.3368">
        <ele>1121</ele>
      </trkpt>
      <trkpt lat="43.8116" lon="6.33698">
        <ele>1121</ele>
      </trkpt>
      <trkpt lat="43.8116" lon="6.33711">
        <ele>1122</ele>
      </trkpt>
      <trkpt lat="43.81163" lon="6.33722">
        <ele>1123</ele>
      </trkpt>
      <trkpt lat="43.81166" lon="6.33738">
        <ele>1125</ele>
      </trkpt>
      <trkpt lat="43.81167" lon="6.33756">
        <ele>1126</ele>
      </trkpt>
      <trkpt lat="43.81168" lon="6.33773">
        <ele>1127</ele>
      </trkpt>
      <trkpt lat="43.8117" lon="6.33786">
        <ele>1128</ele>
      </trkpt>
      <trkpt lat="43.8117" lon="6.33788">
        <ele>1129</ele>
      </trkpt>
      <trkpt lat="43.81174" lon="6.33794">
        <ele>1130</ele>
      </trkpt>
      <trkpt lat="43.81175" lon="6.33799">
        <ele>1131</ele>
      </trkpt>
      <trkpt lat="43.81175" lon="6.33809">
        <ele>1132</ele>
      </trkpt>
      <trkpt lat="43.8118" lon="6.33809">
        <ele>1134</ele>
      </trkpt>
      <trkpt lat="43.81184" lon="6.33797">
        <ele>1134</ele>
      </trkpt>
      <trkpt lat="43.81188" lon="6.33792">
        <ele>1134</ele>
      </trkpt>
      <trkpt lat="43.81197" lon="6.33778">
        <ele>1135</ele>
      </trkpt>
      <trkpt lat="43.81204" lon="6.33769">
        <ele>1135</ele>
      </trkpt>
      <trkpt lat="43.81205" lon="6.33767">
        <ele>1136</ele>
      </trkpt>
      <trkpt lat="43.81213" lon="6.33752">
        <ele>1136</ele>
      </trkpt>
      <trkpt lat="43.81219" lon="6.33734">
        <ele>1136</ele>
      </trkpt>
      <trkpt lat="43.81222" lon="6.33718">
        <ele>1136</ele>
      </trkpt>
      <trkpt lat="43.81226" lon="6.33705">
        <ele>1136</ele>
      </trkpt>
      <trkpt lat="43.81227" lon="6.33701">
        <ele>1136</ele>
      </trkpt>
      <trkpt lat="43.81229" lon="6.33693">
        <ele>1137</ele>
      </trkpt>
      <trkpt lat="43.81237" lon="6.33691">
        <ele>1138</ele>
      </trkpt>
      <trkpt lat="43.81243" lon="6.33703">
        <ele>1139</ele>
      </trkpt>
      <trkpt lat="43.81248" lon="6.33717">
        <ele>1140</ele>
      </trkpt>
      <trkpt lat="43.81251" lon="6.33726">
        <ele>1140</ele>
      </trkpt>
      <trkpt lat="43.81257" lon="6.33745">
        <ele>1140</ele>
      </trkpt>
      <trkpt lat="43.81263" lon="6.33761">
        <ele>1138</ele>
      </trkpt>
      <trkpt lat="43.81267" lon="6.33779">
        <ele>1137</ele>
      </trkpt>
      <trkpt lat="43.81267" lon="6.33785">
        <ele>1137</ele>
      </trkpt>
      <trkpt lat="43.81274" lon="6.33788">
        <ele>1135</ele>
      </trkpt>
      <trkpt lat="43.81278" lon="6.33791">
        <ele>1134</ele>
      </trkpt>
      <trkpt lat="43.81288" lon="6.33801">
        <ele>1131</ele>
      </trkpt>
      <trkpt lat="43.81295" lon="6.33796">
        <ele>1129</ele>
      </trkpt>
      <trkpt lat="43.81297" lon="6.33794">
        <ele>1128</ele>
      </trkpt>
      <trkpt lat="43.81302" lon="6.33788">
        <ele>1125</ele>
      </trkpt>
      <trkpt lat="43.81314" lon="6.33769">
        <ele>1118</ele>
      </trkpt>
      <trkpt lat="43.81316" lon="6.33764">
        <ele>1117</ele>
      </trkpt>
      <trkpt lat="43.81317" lon="6.33763">
        <ele>1117</ele>
      </trkpt>
      <trkpt lat="43.81318" lon="6.33761">
        <ele>1116</ele>
      </trkpt>
      <trkpt lat="43.81321" lon="6.33754">
        <ele>1115</ele>
      </trkpt>
      <trkpt lat="43.81328" lon="6.33738">
        <ele>1112</ele>
      </trkpt>
      <trkpt lat="43.81334" lon="6.33725">
        <ele>1110</ele>
      </trkpt>
      <trkpt lat="43.81337" lon="6.3372">
        <ele>1110</ele>
      </trkpt>
      <trkpt lat="43.8135" lon="6.33685">
        <ele>1108</ele>
      </trkpt>
      <trkpt lat="43.81356" lon="6.33672">
        <ele>1106</ele>
      </trkpt>
      <trkpt lat="43.81367" lon="6.33655">
        <ele>1103</ele>
      </trkpt>
      <trkpt lat="43.81374" lon="6.33644">
        <ele>1102</ele>
      </trkpt>
      <trkpt lat="43.81387" lon="6.33621">
        <ele>1100</ele>
      </trkpt>
      <trkpt lat="43.8141" lon="6.33592">
        <ele>1096</ele>
      </trkpt>
      <trkpt lat="43.81437" lon="6.3356">
        <ele>1093</ele>
      </trkpt>
      <trkpt lat="43.81443" lon="6.33554">
        <ele>1092</ele>
      </trkpt>
      <trkpt lat="43.8148" lon="6.33523">
        <ele>1088</ele>
      </trkpt>
      <trkpt lat="43.81493" lon="6.33511">
        <ele>1089</ele>
      </trkpt>
      <trkpt lat="43.81527" lon="6.33496">
        <ele>1087</ele>
      </trkpt>
      <trkpt lat="43.81554" lon="6.33487">
        <ele>1080</ele>
      </trkpt>
      <trkpt lat="43.81568" lon="6.33478">
        <ele>1079</ele>
      </trkpt>
      <trkpt lat="43.81574" lon="6.33472">
        <ele>1079</ele>
      </trkpt>
      <trkpt lat="43.81617" lon="6.33423">
        <ele>1083</ele>
      </trkpt>
      <trkpt lat="43.81638" lon="6.33401">
        <ele>1087</ele>
      </trkpt>
      <trkpt lat="43.81654" lon="6.33395">
        <ele>1088</ele>
      </trkpt>
      <trkpt lat="43.81688" lon="6.33398">
        <ele>1083</ele>
      </trkpt>
      <trkpt lat="43.81708" lon="6.33392">
        <ele>1084</ele>
      </trkpt>
      <trkpt lat="43.81732" lon="6.33388">
        <ele>1081</ele>
      </trkpt>
      <trkpt lat="43.81756" lon="6.3338">
        <ele>1078</ele>
      </trkpt>
      <trkpt lat="43.81765" lon="6.33375">
        <ele>1077</ele>
      </trkpt>
      <trkpt lat="43.81779" lon="6.33367">
        <ele>1077</ele>
      </trkpt>
      <trkpt lat="43.81794" lon="6.33354">
        <ele>1078</ele>
      </trkpt>
      <trkpt lat="43.8181" lon="6.33335">
        <ele>1078</ele>
      </trkpt>
      <trkpt lat="43.8181" lon="6.33334">
        <ele>1079</ele>
      </trkpt>
      <trkpt lat="43.81811" lon="6.33333">
        <ele>1079</ele>
      </trkpt>
      <trkpt lat="43.81814" lon="6.33331">
        <ele>1077</ele>
      </trkpt>
      <trkpt lat="43.81822" lon="6.33324">
        <ele>1075</ele>
      </trkpt>
      <trkpt lat="43.81835" lon="6.33315">
        <ele>1072</ele>
      </trkpt>
      <trkpt lat="43.81833" lon="6.33313">
        <ele>1074</ele>
      </trkpt>
      <trkpt lat="43.81834" lon="6.33304">
        <ele>1078</ele>
      </trkpt>
      <trkpt lat="43.81841" lon="6.3329">
        <ele>1080</ele>
      </trkpt>
      <trkpt lat="43.81849" lon="6.33275">
        <ele>1081</ele>
      </trkpt>
      <trkpt lat="43.81857" lon="6.33262">
        <ele>1081</ele>
      </trkpt>
      <trkpt lat="43.81872" lon="6.33244">
        <ele>1079</ele>
      </trkpt>
      <trkpt lat="43.81885" lon="6.33226">
        <ele>1078</ele>
      </trkpt>
      <trkpt lat="43.81895" lon="6.33214">
        <ele>1076</ele>
      </trkpt>
      <trkpt lat="43.81896" lon="6.33214">
        <ele>1076</ele>
      </trkpt>
      <trkpt lat="43.81902" lon="6.33211">
        <ele>1073</ele>
      </trkpt>
      <trkpt lat="43.81911" lon="6.33197">
        <ele>1073</ele>
      </trkpt>
      <trkpt lat="43.81923" lon="6.33174">
        <ele>1076</ele>
      </trkpt>
      <trkpt lat="43.81934" lon="6.33153">
        <ele>1077</ele>
      </trkpt>
      <trkpt lat="43.8195" lon="6.33126">
        <ele>1078</ele>
      </trkpt>
      <trkpt lat="43.81965" lon="6.33103">
        <ele>1078</ele>
      </trkpt>
      <trkpt lat="43.81984" lon="6.33077">
        <ele>1078</ele>
      </trkpt>
      <trkpt lat="43.82012" lon="6.33039">
        <ele>1075</ele>
      </trkpt>
      <trkpt lat="43.82022" lon="6.33018">
        <ele>1075</ele>
      </trkpt>
      <trkpt lat="43.82042" lon="6.32981">
        <ele>1074</ele>
      </trkpt>
      <trkpt lat="43.82055" lon="6.32955">
        <ele>1073</ele>
      </trkpt>
      <trkpt lat="43.82071" lon="6.32932">
        <ele>1071</ele>
      </trkpt>
      <trkpt lat="43.82083" lon="6.32911">
        <ele>1072</ele>
      </trkpt>
      <trkpt lat="43.82102" lon="6.32889">
        <ele>1071</ele>
      </trkpt>
      <trkpt lat="43.82119" lon="6.32875">
        <ele>1068</ele>
      </trkpt>
      <trkpt lat="43.82136" lon="6.32855">
        <ele>1068</ele>
      </trkpt>
      <trkpt lat="43.82144" lon="6.32845">
        <ele>1068</ele>
      </trkpt>
      <trkpt lat="43.82155" lon="6.32828">
        <ele>1069</ele>
      </trkpt>
      <trkpt lat="43.8217" lon="6.32811">
        <ele>1069</ele>
      </trkpt>
      <trkpt lat="43.82182" lon="6.32799">
        <ele>1069</ele>
      </trkpt>
      <trkpt lat="43.82197" lon="6.32783">
        <ele>1069</ele>
      </trkpt>
      <trkpt lat="43.82205" lon="6.32774">
        <ele>1070</ele>
      </trkpt>
      <trkpt lat="43.82219" lon="6.32762">
        <ele>1069</ele>
      </trkpt>
      <trkpt lat="43.8223" lon="6.32756">
        <ele>1066</ele>
      </trkpt>
      <trkpt lat="43.8225" lon="6.32742">
        <ele>1067</ele>
      </trkpt>
      <trkpt lat="43.8226" lon="6.32737">
        <ele>1066</ele>
      </trkpt>
      <trkpt lat="43.82291" lon="6.32716">
        <ele>1066</ele>
      </trkpt>
      <trkpt lat="43.82314" lon="6.32699">
        <ele>1066</ele>
      </trkpt>
      <trkpt lat="43.82339" lon="6.32674">
        <ele>1065</ele>
      </trkpt>
      <trkpt lat="43.82348" lon="6.32663">
        <ele>1066</ele>
      </trkpt>
      <trkpt lat="43.82363" lon="6.32645">
        <ele>1067</ele>
      </trkpt>
      <trkpt lat="43.82387" lon="6.3262">
        <ele>1066</ele>
      </trkpt>
      <trkpt lat="43.82414" lon="6.32593">
        <ele>1064</ele>
      </trkpt>
      <trkpt lat="43.82435" lon="6.3257">
        <ele>1063</ele>
      </trkpt>
      <trkpt lat="43.82442" lon="6.32562">
        <ele>1062</ele>
      </trkpt>
      <trkpt lat="43.8246" lon="6.32537">
        <ele>1062</ele>
      </trkpt>
      <trkpt lat="43.82466" lon="6.32525">
        <ele>1062</ele>
      </trkpt>
      <trkpt lat="43.82487" lon="6.32479">
        <ele>1064</ele>
      </trkpt>
      <trkpt lat="43.82499" lon="6.32462">
        <ele>1064</ele>
      </trkpt>
      <trkpt lat="43.82516" lon="6.32447">
        <ele>1062</ele>
      </trkpt>
      <trkpt lat="43.82555" lon="6.32425">
        <ele>1061</ele>
      </trkpt>
      <trkpt lat="43.82585" lon="6.32406">
        <ele>1062</ele>
      </trkpt>
      <trkpt lat="43.82589" lon="6.32402">
        <ele>1062</ele>
      </trkpt>
      <trkpt lat="43.82616" lon="6.32383">
        <ele>1061</ele>
      </trkpt>
      <trkpt lat="43.82626" lon="6.32374">
        <ele>1060</ele>
      </trkpt>
      <trkpt lat="43.8265" lon="6.32351">
        <ele>1060</ele>
      </trkpt>
      <trkpt lat="43.82668" lon="6.32331">
        <ele>1059</ele>
      </trkpt>
      <trkpt lat="43.82699" lon="6.32304">
        <ele>1056</ele>
      </trkpt>
      <trkpt lat="43.82709" lon="6.32292">
        <ele>1056</ele>
      </trkpt>
      <trkpt lat="43.82735" lon="6.32261">
        <ele>1055</ele>
      </trkpt>
      <trkpt lat="43.82759" lon="6.32238">
        <ele>1054</ele>
      </trkpt>
      <trkpt lat="43.82784" lon="6.32219">
        <ele>1052</ele>
      </trkpt>
      <trkpt lat="43.82816" lon="6.32188">
        <ele>1052</ele>
      </trkpt>
      <trkpt lat="43.82845" lon="6.32149">
        <ele>1052</ele>
      </trkpt>
      <trkpt lat="43.8287" lon="6.32112">
        <ele>1052</ele>
      </trkpt>
      <trkpt lat="43.82893" lon="6.3208">
        <ele>1051</ele>
      </trkpt>
      <trkpt lat="43.82917" lon="6.32062">
        <ele>1052</ele>
      </trkpt>
      <trkpt lat="43.82938" lon="6.32051">
        <ele>1050</ele>
      </trkpt>
      <trkpt lat="43.82947" lon="6.32047">
        <ele>1052</ele>
      </trkpt>
      <trkpt lat="43.82964" lon="6.32038">
        <ele>1055</ele>
      </trkpt>
      <trkpt lat="43.82975" lon="6.32035">
        <ele>1056</ele>
      </trkpt>
      <trkpt lat="43.83003" lon="6.3203">
        <ele>1058</ele>
      </trkpt>
      <trkpt lat="43.83023" lon="6.32036">
        <ele>1060</ele>
      </trkpt>
      <trkpt lat="43.83049" lon="6.32034">
        <ele>1064</ele>
      </trkpt>
      <trkpt lat="43.8306" lon="6.32021">
        <ele>1064</ele>
      </trkpt>
      <trkpt lat="43.83074" lon="6.31996">
        <ele>1062</ele>
      </trkpt>
      <trkpt lat="43.83083" lon="6.31974">
        <ele>1061</ele>
      </trkpt>
      <trkpt lat="43.83096" lon="6.31948">
        <ele>1066</ele>
      </trkpt>
      <trkpt lat="43.83103" lon="6.31925">
        <ele>1066</ele>
      </trkpt>
      <trkpt lat="43.83115" lon="6.319">
        <ele>1065</ele>
      </trkpt>
      <trkpt lat="43.83132" lon="6.31876">
        <ele>1066</ele>
      </trkpt>
      <trkpt lat="43.83159" lon="6.31847">
        <ele>1064</ele>
      </trkpt>
      <trkpt lat="43.83169" lon="6.31838">
        <ele>1064</ele>
      </trkpt>
      <trkpt lat="43.83198" lon="6.31813">
        <ele>1068</ele>
      </trkpt>
      <trkpt lat="43.8323" lon="6.31783">
        <ele>1071</ele>
      </trkpt>
      <trkpt lat="43.83257" lon="6.31752">
        <ele>1075</ele>
      </trkpt>
      <trkpt lat="43.83282" lon="6.31729">
        <ele>1076</ele>
      </trkpt>
      <trkpt lat="43.83287" lon="6.31724">
        <ele>1077</ele>
      </trkpt>
      <trkpt lat="43.83307" lon="6.3171">
        <ele>1078</ele>
      </trkpt>
      <trkpt lat="43.83326" lon="6.3169">
        <ele>1079</ele>
      </trkpt>
      <trkpt lat="43.83335" lon="6.31679">
        <ele>1078</ele>
      </trkpt>
      <trkpt lat="43.83346" lon="6.31648">
        <ele>1078</ele>
      </trkpt>
      <trkpt lat="43.83343" lon="6.31632">
        <ele>1078</ele>
      </trkpt>
      <trkpt lat="43.83345" lon="6.31616">
        <ele>1078</ele>
      </trkpt>
      <trkpt lat="43.83351" lon="6.3161">
        <ele>1078</ele>
      </trkpt>
      <trkpt lat="43.83362" lon="6.31593">
        <ele>1079</ele>
      </trkpt>
      <trkpt lat="43.83369" lon="6.31587">
        <ele>1080</ele>
      </trkpt>
      <trkpt lat="43.83377" lon="6.31576">
        <ele>1081</ele>
      </trkpt>
      <trkpt lat="43.83378" lon="6.31575">
        <ele>1082</ele>
      </trkpt>
      <trkpt lat="43.83382" lon="6.3157">
        <ele>1082</ele>
      </trkpt>
      <trkpt lat="43.83393" lon="6.31571">
        <ele>1084</ele>
      </trkpt>
      <trkpt lat="43.83396" lon="6.31573">
        <ele>1085</ele>
      </trkpt>
      <trkpt lat="43.83411" lon="6.31579">
        <ele>1089</ele>
      </trkpt>
      <trkpt lat="43.83418" lon="6.31579">
        <ele>1090</ele>
      </trkpt>
      <trkpt lat="43.8343" lon="6.31577">
        <ele>1093</ele>
      </trkpt>
      <trkpt lat="43.83441" lon="6.31573">
        <ele>1096</ele>
      </trkpt>
      <trkpt lat="43.83453" lon="6.31571">
        <ele>1098</ele>
      </trkpt>
      <trkpt lat="43.83464" lon="6.3157">
        <ele>1100</ele>
      </trkpt>
      <trkpt lat="43.83477" lon="6.31567">
        <ele>1101</ele>
      </trkpt>
      <trkpt lat="43.83492" lon="6.31564">
        <ele>1104</ele>
      </trkpt>
      <trkpt lat="43.83505" lon="6.31558">
        <ele>1104</ele>
      </trkpt>
      <trkpt lat="43.83517" lon="6.31549">
        <ele>1105</ele>
      </trkpt>
      <trkpt lat="43.83526" lon="6.3154">
        <ele>1106</ele>
      </trkpt>
      <trkpt lat="43.83536" lon="6.31532">
        <ele>1108</ele>
      </trkpt>
      <trkpt lat="43.83549" lon="6.31526">
        <ele>1110</ele>
      </trkpt>
      <trkpt lat="43.83557" lon="6.31516">
        <ele>1113</ele>
      </trkpt>
      <trkpt lat="43.83566" lon="6.31501">
        <ele>1117</ele>
      </trkpt>
      <trkpt lat="43.83572" lon="6.3149">
        <ele>1118</ele>
      </trkpt>
      <trkpt lat="43.83573" lon="6.31489">
        <ele>1118</ele>
      </trkpt>
      <trkpt lat="43.83576" lon="6.31496">
        <ele>1119</ele>
      </trkpt>
      <trkpt lat="43.83571" lon="6.31515">
        <ele>1116</ele>
      </trkpt>
      <trkpt lat="43.83569" lon="6.3153">
        <ele>1113</ele>
      </trkpt>
      <trkpt lat="43.83571" lon="6.31547">
        <ele>1109</ele>
      </trkpt>
      <trkpt lat="43.83574" lon="6.31554">
        <ele>1107</ele>
      </trkpt>
      <trkpt lat="43.83583" lon="6.31561">
        <ele>1106</ele>
      </trkpt>
      <trkpt lat="43.8359" lon="6.31562">
        <ele>1107</ele>
      </trkpt>
      <trkpt lat="43.8361" lon="6.31562">
        <ele>1114</ele>
      </trkpt>
      <trkpt lat="43.83619" lon="6.31563">
        <ele>1117</ele>
      </trkpt>
      <trkpt lat="43.83629" lon="6.31563">
        <ele>1121</ele>
      </trkpt>
      <trkpt lat="43.83638" lon="6.31564">
        <ele>1123</ele>
      </trkpt>
      <trkpt lat="43.83651" lon="6.31568">
        <ele>1127</ele>
      </trkpt>
      <trkpt lat="43.8366" lon="6.31574">
        <ele>1129</ele>
      </trkpt>
      <trkpt lat="43.83666" lon="6.31582">
        <ele>1131</ele>
      </trkpt>
      <trkpt lat="43.83672" lon="6.31596">
        <ele>1132</ele>
      </trkpt>
      <trkpt lat="43.83675" lon="6.31612">
        <ele>1133</ele>
      </trkpt>
      <trkpt lat="43.83677" lon="6.31616">
        <ele>1134</ele>
      </trkpt>
      <trkpt lat="43.83682" lon="6.31618">
        <ele>1135</ele>
      </trkpt>
      <trkpt lat="43.83696" lon="6.31617">
        <ele>1137</ele>
      </trkpt>
      <trkpt lat="43.83704" lon="6.31616">
        <ele>1138</ele>
      </trkpt>
      <trkpt lat="43.83709" lon="6.31614">
        <ele>1139</ele>
      </trkpt>
      <trkpt lat="43.83711" lon="6.31613">
        <ele>1139</ele>
      </trkpt>
      <trkpt lat="43.83715" lon="6.31612">
        <ele>1140</ele>
      </trkpt>
      <trkpt lat="43.83718" lon="6.31612">
        <ele>1141</ele>
      </trkpt>
      <trkpt lat="43.83721" lon="6.31609">
        <ele>1140</ele>
      </trkpt>
      <trkpt lat="43.8373" lon="6.31603">
        <ele>1140</ele>
      </trkpt>
      <trkpt lat="43.83739" lon="6.31595">
        <ele>1140</ele>
      </trkpt>
      <trkpt lat="43.8374" lon="6.31595">
        <ele>1140</ele>
      </trkpt>
      <trkpt lat="43.83747" lon="6.31595">
        <ele>1140</ele>
      </trkpt>
      <trkpt lat="43.83751" lon="6.31599">
        <ele>1140</ele>
      </trkpt>
      <trkpt lat="43.83756" lon="6.31613">
        <ele>1141</ele>
      </trkpt>
      <trkpt lat="43.83761" lon="6.31622">
        <ele>1141</ele>
      </trkpt>
      <trkpt lat="43.83767" lon="6.31631">
        <ele>1141</ele>
      </trkpt>
      <trkpt lat="43.83774" lon="6.31642">
        <ele>1141</ele>
      </trkpt>
      <trkpt lat="43.8378" lon="6.31655">
        <ele>1141</ele>
      </trkpt>
      <trkpt lat="43.83782" lon="6.31667">
        <ele>1141</ele>
      </trkpt>
      <trkpt lat="43.83782" lon="6.31675">
        <ele>1141</ele>
      </trkpt>
      <trkpt lat="43.83785" lon="6.31679">
        <ele>1141</ele>
      </trkpt>
      <trkpt lat="43.83786" lon="6.31688">
        <ele>1141</ele>
      </trkpt>
      <trkpt lat="43.83787" lon="6.31696">
        <ele>1141</ele>
      </trkpt>
      <trkpt lat="43.83791" lon="6.31713">
        <ele>1141</ele>
      </trkpt>
      <trkpt lat="43.83795" lon="6.31724">
        <ele>1142</ele>
      </trkpt>
      <trkpt lat="43.83795" lon="6.31733">
        <ele>1144</ele>
      </trkpt>
      <trkpt lat="43.83792" lon="6.31758">
        <ele>1148</ele>
      </trkpt>
      <trkpt lat="43.83782" lon="6.31776">
        <ele>1152</ele>
      </trkpt>
      <trkpt lat="43.83781" lon="6.31799">
        <ele>1155</ele>
      </trkpt>
      <trkpt lat="43.83778" lon="6.31821">
        <ele>1158</ele>
      </trkpt>
      <trkpt lat="43.83768" lon="6.3185">
        <ele>1162</ele>
      </trkpt>
      <trkpt lat="43.83757" lon="6.31875">
        <ele>1164</ele>
      </trkpt>
      <trkpt lat="43.83752" lon="6.31894">
        <ele>1165</ele>
      </trkpt>
      <trkpt lat="43.83745" lon="6.31917">
        <ele>1169</ele>
      </trkpt>
      <trkpt lat="43.83735" lon="6.31939">
        <ele>1172</ele>
      </trkpt>
      <trkpt lat="43.83726" lon="6.31968">
        <ele>1175</ele>
      </trkpt>
      <trkpt lat="43.83716" lon="6.31993">
        <ele>1177</ele>
      </trkpt>
      <trkpt lat="43.83705" lon="6.32016">
        <ele>1178</ele>
      </trkpt>
      <trkpt lat="43.83692" lon="6.32033">
        <ele>1178</ele>
      </trkpt>
      <trkpt lat="43.83679" lon="6.32039">
        <ele>1177</ele>
      </trkpt>
      <trkpt lat="43.83666" lon="6.32046">
        <ele>1176</ele>
      </trkpt>
      <trkpt lat="43.83655" lon="6.32063">
        <ele>1176</ele>
      </trkpt>
      <trkpt lat="43.83654" lon="6.32078">
        <ele>1177</ele>
      </trkpt>
      <trkpt lat="43.83663" lon="6.32082">
        <ele>1179</ele>
      </trkpt>
      <trkpt lat="43.83675" lon="6.32076">
        <ele>1180</ele>
      </trkpt>
      <trkpt lat="43.8369" lon="6.32074">
        <ele>1182</ele>
      </trkpt>
      <trkpt lat="43.83705" lon="6.32069">
        <ele>1183</ele>
      </trkpt>
      <trkpt lat="43.83727" lon="6.32054">
        <ele>1182</ele>
      </trkpt>
      <trkpt lat="43.83741" lon="6.32039">
        <ele>1182</ele>
      </trkpt>
      <trkpt lat="43.83753" lon="6.32026">
        <ele>1181</ele>
      </trkpt>
      <trkpt lat="43.83767" lon="6.32017">
        <ele>1179</ele>
      </trkpt>
      <trkpt lat="43.83777" lon="6.32026">
        <ele>1178</ele>
      </trkpt>
      <trkpt lat="43.83777" lon="6.32039">
        <ele>1179</ele>
      </trkpt>
      <trkpt lat="43.83772" lon="6.32062">
        <ele>1181</ele>
      </trkpt>
      <trkpt lat="43.83762" lon="6.32086">
        <ele>1183</ele>
      </trkpt>
      <trkpt lat="43.83751" lon="6.32113">
        <ele>1183</ele>
      </trkpt>
      <trkpt lat="43.83746" lon="6.32124">
        <ele>1183</ele>
      </trkpt>
      <trkpt lat="43.83744" lon="6.32138">
        <ele>1182</ele>
      </trkpt>
      <trkpt lat="43.83744" lon="6.32162">
        <ele>1186</ele>
      </trkpt>
      <trkpt lat="43.83742" lon="6.32174">
        <ele>1188</ele>
      </trkpt>
      <trkpt lat="43.83741" lon="6.32192">
        <ele>1192</ele>
      </trkpt>
      <trkpt lat="43.8374" lon="6.3221">
        <ele>1195</ele>
      </trkpt>
      <trkpt lat="43.83739" lon="6.32228">
        <ele>1196</ele>
      </trkpt>
      <trkpt lat="43.83734" lon="6.32248">
        <ele>1197</ele>
      </trkpt>
      <trkpt lat="43.83728" lon="6.32271">
        <ele>1199</ele>
      </trkpt>
      <trkpt lat="43.83725" lon="6.32298">
        <ele>1201</ele>
      </trkpt>
      <trkpt lat="43.83725" lon="6.32331">
        <ele>1204</ele>
      </trkpt>
      <trkpt lat="43.83726" lon="6.3236">
        <ele>1209</ele>
      </trkpt>
      <trkpt lat="43.83727" lon="6.3239">
        <ele>1214</ele>
      </trkpt>
      <trkpt lat="43.83728" lon="6.32424">
        <ele>1218</ele>
      </trkpt>
      <trkpt lat="43.83731" lon="6.32456">
        <ele>1223</ele>
      </trkpt>
      <trkpt lat="43.83733" lon="6.32486">
        <ele>1223</ele>
      </trkpt>
      <trkpt lat="43.83735" lon="6.32521">
        <ele>1224</ele>
      </trkpt>
      <trkpt lat="43.83738" lon="6.32545">
        <ele>1225</ele>
      </trkpt>
      <trkpt lat="43.8374" lon="6.32569">
        <ele>1226</ele>
      </trkpt>
      <trkpt lat="43.83742" lon="6.32594">
        <ele>1228</ele>
      </trkpt>
      <trkpt lat="43.83748" lon="6.32616">
        <ele>1232</ele>
      </trkpt>
      <trkpt lat="43.83752" lon="6.32636">
        <ele>1236</ele>
      </trkpt>
      <trkpt lat="43.83753" lon="6.32655">
        <ele>1238</ele>
      </trkpt>
      <trkpt lat="43.83753" lon="6.32681">
        <ele>1241</ele>
      </trkpt>
      <trkpt lat="43.83753" lon="6.32694">
        <ele>1242</ele>
      </trkpt>
      <trkpt lat="43.83753" lon="6.32709">
        <ele>1244</ele>
      </trkpt>
      <trkpt lat="43.83749" lon="6.32725">
        <ele>1244</ele>
      </trkpt>
      <trkpt lat="43.83744" lon="6.32741">
        <ele>1244</ele>
      </trkpt>
      <trkpt lat="43.8374" lon="6.32753">
        <ele>1244</ele>
      </trkpt>
      <trkpt lat="43.83746" lon="6.3276">
        <ele>1247</ele>
      </trkpt>
      <trkpt lat="43.8375" lon="6.32753">
        <ele>1248</ele>
      </trkpt>
      <trkpt lat="43.83762" lon="6.32726">
        <ele>1250</ele>
      </trkpt>
      <trkpt lat="43.83772" lon="6.3269">
        <ele>1249</ele>
      </trkpt>
      <trkpt lat="43.83776" lon="6.32665">
        <ele>1247</ele>
      </trkpt>
      <trkpt lat="43.83787" lon="6.32639">
        <ele>1246</ele>
      </trkpt>
      <trkpt lat="43.83805" lon="6.32624">
        <ele>1246</ele>
      </trkpt>
      <trkpt lat="43.83822" lon="6.32619">
        <ele>1248</ele>
      </trkpt>
      <trkpt lat="43.83847" lon="6.32615">
        <ele>1250</ele>
      </trkpt>
      <trkpt lat="43.83875" lon="6.32604">
        <ele>1250</ele>
      </trkpt>
      <trkpt lat="43.839" lon="6.32582">
        <ele>1248</ele>
      </trkpt>
      <trkpt lat="43.83924" lon="6.32569">
        <ele>1248</ele>
      </trkpt>
      <trkpt lat="43.83956" lon="6.3257">
        <ele>1252</ele>
      </trkpt>
      <trkpt lat="43.83988" lon="6.3257">
        <ele>1258</ele>
      </trkpt>
      <trkpt lat="43.84006" lon="6.32557">
        <ele>1259</ele>
      </trkpt>
      <trkpt lat="43.8401" lon="6.32535">
        <ele>1256</ele>
      </trkpt>
      <trkpt lat="43.84008" lon="6.32525">
        <ele>1255</ele>
      </trkpt>
      <trkpt lat="43.83997" lon="6.32483">
        <ele>1253</ele>
      </trkpt>
      <trkpt lat="43.83987" lon="6.32446">
        <ele>1253</ele>
      </trkpt>
      <trkpt lat="43.83986" lon="6.32413">
        <ele>1256</ele>
      </trkpt>
      <trkpt lat="43.83997" lon="6.32378">
        <ele>1259</ele>
      </trkpt>
      <trkpt lat="43.84018" lon="6.32327">
        <ele>1260</ele>
      </trkpt>
      <trkpt lat="43.8402" lon="6.32295">
        <ele>1259</ele>
      </trkpt>
      <trkpt lat="43.84024" lon="6.32267">
        <ele>1260</ele>
      </trkpt>
      <trkpt lat="43.84039" lon="6.32241">
        <ele>1262</ele>
      </trkpt>
      <trkpt lat="43.84039" lon="6.32241">
        <ele>1262</ele>
      </trkpt>
      <trkpt lat="43.84048" lon="6.32228">
        <ele>1264</ele>
      </trkpt>
      <trkpt lat="43.84048" lon="6.32228">
        <ele>1264</ele>
      </trkpt>
      <trkpt lat="43.84048" lon="6.32228">
        <ele>1264</ele>
      </trkpt>
      <trkpt lat="43.84049" lon="6.32212">
        <ele>1265</ele>
      </trkpt>
      <trkpt lat="43.8405" lon="6.32201">
        <ele>1265</ele>
      </trkpt>
      <trkpt lat="43.84047" lon="6.32153">
        <ele>1264</ele>
      </trkpt>
      <trkpt lat="43.84043" lon="6.32102">
        <ele>1266</ele>
      </trkpt>
      <trkpt lat="43.84037" lon="6.32062">
        <ele>1265</ele>
      </trkpt>
      <trkpt lat="43.84033" lon="6.32033">
        <ele>1265</ele>
      </trkpt>
      <trkpt lat="43.84025" lon="6.31991">
        <ele>1263</ele>
      </trkpt>
      <trkpt lat="43.84023" lon="6.31976">
        <ele>1262</ele>
      </trkpt>
      <trkpt lat="43.84024" lon="6.31938">
        <ele>1260</ele>
      </trkpt>
      <trkpt lat="43.84028" lon="6.31923">
        <ele>1260</ele>
      </trkpt>
      <trkpt lat="43.8404" lon="6.31896">
        <ele>1260</ele>
      </trkpt>
      <trkpt lat="43.84078" lon="6.31861">
        <ele>1259</ele>
      </trkpt>
      <trkpt lat="43.8412" lon="6.3184">
        <ele>1255</ele>
      </trkpt>
      <trkpt lat="43.84153" lon="6.3183">
        <ele>1252</ele>
      </trkpt>
      <trkpt lat="43.84199" lon="6.31832">
        <ele>1249</ele>
      </trkpt>
      <trkpt lat="43.8422" lon="6.31837">
        <ele>1249</ele>
      </trkpt>
      <trkpt lat="43.84262" lon="6.31844">
        <ele>1249</ele>
      </trkpt>
      <trkpt lat="43.84308" lon="6.31828">
        <ele>1242</ele>
      </trkpt>
      <trkpt lat="43.84341" lon="6.31804">
        <ele>1236</ele>
      </trkpt>
      <trkpt lat="43.84382" lon="6.31786">
        <ele>1229</ele>
      </trkpt>
      <trkpt lat="43.84415" lon="6.31788">
        <ele>1230</ele>
      </trkpt>
      <trkpt lat="43.84441" lon="6.31776">
        <ele>1229</ele>
      </trkpt>
      <trkpt lat="43.84445" lon="6.31767">
        <ele>1228</ele>
      </trkpt>
      <trkpt lat="43.84453" lon="6.31738">
        <ele>1223</ele>
      </trkpt>
      <trkpt lat="43.84472" lon="6.31722">
        <ele>1221</ele>
      </trkpt>
      <trkpt lat="43.84489" lon="6.31726">
        <ele>1222</ele>
      </trkpt>
      <trkpt lat="43.84516" lon="6.31733">
        <ele>1226</ele>
      </trkpt>
      <trkpt lat="43.84527" lon="6.31717">
        <ele>1224</ele>
      </trkpt>
      <trkpt lat="43.8454" lon="6.31688">
        <ele>1221</ele>
      </trkpt>
      <trkpt lat="43.84544" lon="6.31684">
        <ele>1221</ele>
      </trkpt>
      <trkpt lat="43.84552" lon="6.31677">
        <ele>1220</ele>
      </trkpt>
      <trkpt lat="43.84564" lon="6.3167">
        <ele>1220</ele>
      </trkpt>
      <trkpt lat="43.84603" lon="6.31661">
        <ele>1219</ele>
      </trkpt>
      <trkpt lat="43.8462" lon="6.31658">
        <ele>1218</ele>
      </trkpt>
      <trkpt lat="43.84633" lon="6.31657">
        <ele>1216</ele>
      </trkpt>
      <trkpt lat="43.84666" lon="6.31667">
        <ele>1213</ele>
      </trkpt>
      <trkpt lat="43.84697" lon="6.31682">
        <ele>1212</ele>
      </trkpt>
      <trkpt lat="43.8473" lon="6.31715">
        <ele>1217</ele>
      </trkpt>
      <trkpt lat="43.84756" lon="6.31726">
        <ele>1219</ele>
      </trkpt>
      <trkpt lat="43.84765" lon="6.31718">
        <ele>1219</ele>
      </trkpt>
      <trkpt lat="43.84765" lon="6.31697">
        <ele>1219</ele>
      </trkpt>
      <trkpt lat="43.84763" lon="6.3169">
        <ele>1219</ele>
      </trkpt>
      <trkpt lat="43.84748" lon="6.3164">
        <ele>1216</ele>
      </trkpt>
      <trkpt lat="43.84729" lon="6.31594">
        <ele>1215</ele>
      </trkpt>
      <trkpt lat="43.84724" lon="6.31578">
        <ele>1214</ele>
      </trkpt>
      <trkpt lat="43.84729" lon="6.31551">
        <ele>1217</ele>
      </trkpt>
      <trkpt lat="43.84748" lon="6.31529">
        <ele>1221</ele>
      </trkpt>
      <trkpt lat="43.84752" lon="6.31524">
        <ele>1221</ele>
      </trkpt>
      <trkpt lat="43.84765" lon="6.3151">
        <ele>1220</ele>
      </trkpt>
      <trkpt lat="43.84778" lon="6.31498">
        <ele>1220</ele>
      </trkpt>
      <trkpt lat="43.84798" lon="6.31487">
        <ele>1221</ele>
      </trkpt>
      <trkpt lat="43.84822" lon="6.31471">
        <ele>1222</ele>
      </trkpt>
      <trkpt lat="43.8484" lon="6.31444">
        <ele>1222</ele>
      </trkpt>
      <trkpt lat="43.84854" lon="6.31379">
        <ele>1221</ele>
      </trkpt>
      <trkpt lat="43.84856" lon="6.31372">
        <ele>1221</ele>
      </trkpt>
      <trkpt lat="43.84877" lon="6.31318">
        <ele>1221</ele>
      </trkpt>
      <trkpt lat="43.84908" lon="6.31269">
        <ele>1222</ele>
      </trkpt>
      <trkpt lat="43.84916" lon="6.31241">
        <ele>1220</ele>
      </trkpt>
      <trkpt lat="43.84922" lon="6.31164">
        <ele>1220</ele>
      </trkpt>
      <trkpt lat="43.84927" lon="6.31145">
        <ele>1219</ele>
      </trkpt>
      <trkpt lat="43.84941" lon="6.31124">
        <ele>1221</ele>
      </trkpt>
      <trkpt lat="43.84961" lon="6.31111">
        <ele>1224</ele>
      </trkpt>
      <trkpt lat="43.84993" lon="6.31103">
        <ele>1229</ele>
      </trkpt>
      <trkpt lat="43.85008" lon="6.31085">
        <ele>1227</ele>
      </trkpt>
      <trkpt lat="43.85003" lon="6.31069">
        <ele>1223</ele>
      </trkpt>
      <trkpt lat="43.84991" lon="6.31062">
        <ele>1219</ele>
      </trkpt>
      <trkpt lat="43.84982" lon="6.31056">
        <ele>1216</ele>
      </trkpt>
      <trkpt lat="43.84958" lon="6.31035">
        <ele>1209</ele>
      </trkpt>
      <trkpt lat="43.84935" lon="6.31029">
        <ele>1207</ele>
      </trkpt>
      <trkpt lat="43.84921" lon="6.31018">
        <ele>1209</ele>
      </trkpt>
      <trkpt lat="43.84912" lon="6.31001">
        <ele>1213</ele>
      </trkpt>
      <trkpt lat="43.84896" lon="6.30979">
        <ele>1218</ele>
      </trkpt>
      <trkpt lat="43.84873" lon="6.30951">
        <ele>1221</ele>
      </trkpt>
      <trkpt lat="43.84866" lon="6.30926">
        <ele>1224</ele>
      </trkpt>
      <trkpt lat="43.84859" lon="6.30902">
        <ele>1227</ele>
      </trkpt>
      <trkpt lat="43.84852" lon="6.30879">
        <ele>1229</ele>
      </trkpt>
      <trkpt lat="43.84844" lon="6.30852">
        <ele>1230</ele>
      </trkpt>
      <trkpt lat="43.84831" lon="6.30835">
        <ele>1230</ele>
      </trkpt>
      <trkpt lat="43.84821" lon="6.30824">
        <ele>1229</ele>
      </trkpt>
      <trkpt lat="43.8482" lon="6.30818">
        <ele>1230</ele>
      </trkpt>
      <trkpt lat="43.8483" lon="6.30811">
        <ele>1233</ele>
      </trkpt>
      <trkpt lat="43.84834" lon="6.30813">
        <ele>1234</ele>
      </trkpt>
      <trkpt lat="43.84849" lon="6.30828">
        <ele>1235</ele>
      </trkpt>
      <trkpt lat="43.84862" lon="6.30844">
        <ele>1235</ele>
      </trkpt>
      <trkpt lat="43.84863" lon="6.30846">
        <ele>1235</ele>
      </trkpt>
      <trkpt lat="43.84869" lon="6.30853">
        <ele>1236</ele>
      </trkpt>
      <trkpt lat="43.84886" lon="6.30868">
        <ele>1237</ele>
      </trkpt>
      <trkpt lat="43.84888" lon="6.30869">
        <ele>1238</ele>
      </trkpt>
      <trkpt lat="43.84902" lon="6.30885">
        <ele>1238</ele>
      </trkpt>
      <trkpt lat="43.84913" lon="6.30903">
        <ele>1237</ele>
      </trkpt>
      <trkpt lat="43.8493" lon="6.30915">
        <ele>1238</ele>
      </trkpt>
      <trkpt lat="43.84948" lon="6.30921">
        <ele>1241</ele>
      </trkpt>
      <trkpt lat="43.8496" lon="6.30925">
        <ele>1242</ele>
      </trkpt>
      <trkpt lat="43.84972" lon="6.30933">
        <ele>1243</ele>
      </trkpt>
      <trkpt lat="43.84976" lon="6.30935">
        <ele>1243</ele>
      </trkpt>
      <trkpt lat="43.84981" lon="6.30929">
        <ele>1245</ele>
      </trkpt>
      <trkpt lat="43.84976" lon="6.3092">
        <ele>1246</ele>
      </trkpt>
      <trkpt lat="43.84959" lon="6.30904">
        <ele>1247</ele>
      </trkpt>
      <trkpt lat="43.84944" lon="6.30884">
        <ele>1248</ele>
      </trkpt>
      <trkpt lat="43.84935" lon="6.30865">
        <ele>1250</ele>
      </trkpt>
      <trkpt lat="43.84928" lon="6.30838">
        <ele>1254</ele>
      </trkpt>
      <trkpt lat="43.8492" lon="6.30812">
        <ele>1257</ele>
      </trkpt>
      <trkpt lat="43.84909" lon="6.30784">
        <ele>1259</ele>
      </trkpt>
      <trkpt lat="43.84897" lon="6.30754">
        <ele>1260</ele>
      </trkpt>
      <trkpt lat="43.84888" lon="6.30735">
        <ele>1260</ele>
      </trkpt>
      <trkpt lat="43.84874" lon="6.30716">
        <ele>1260</ele>
      </trkpt>
      <trkpt lat="43.84858" lon="6.30692">
        <ele>1261</ele>
      </trkpt>
      <trkpt lat="43.84844" lon="6.30684">
        <ele>1260</ele>
      </trkpt>
      <trkpt lat="43.84827" lon="6.30681">
        <ele>1258</ele>
      </trkpt>
      <trkpt lat="43.84819" lon="6.30669">
        <ele>1260</ele>
      </trkpt>
      <trkpt lat="43.84812" lon="6.30647">
        <ele>1265</ele>
      </trkpt>
      <trkpt lat="43.84799" lon="6.30626">
        <ele>1269</ele>
      </trkpt>
      <trkpt lat="43.84784" lon="6.3062">
        <ele>1268</ele>
      </trkpt>
      <trkpt lat="43.84765" lon="6.30631">
        <ele>1264</ele>
      </trkpt>
      <trkpt lat="43.84741" lon="6.30646">
        <ele>1259</ele>
      </trkpt>
      <trkpt lat="43.84723" lon="6.30655">
        <ele>1261</ele>
      </trkpt>
      <trkpt lat="43.84703" lon="6.30675">
        <ele>1262</ele>
      </trkpt>
      <trkpt lat="43.84686" lon="6.30691">
        <ele>1263</ele>
      </trkpt>
      <trkpt lat="43.84667" lon="6.30703">
        <ele>1266</ele>
      </trkpt>
      <trkpt lat="43.8465" lon="6.3071">
        <ele>1268</ele>
      </trkpt>
      <trkpt lat="43.84635" lon="6.3071">
        <ele>1271</ele>
      </trkpt>
      <trkpt lat="43.84634" lon="6.30696">
        <ele>1273</ele>
      </trkpt>
      <trkpt lat="43.84636" lon="6.30694">
        <ele>1273</ele>
      </trkpt>
      <trkpt lat="43.84654" lon="6.30686">
        <ele>1272</ele>
      </trkpt>
      <trkpt lat="43.84672" lon="6.3067">
        <ele>1270</ele>
      </trkpt>
      <trkpt lat="43.84691" lon="6.30645">
        <ele>1270</ele>
      </trkpt>
      <trkpt lat="43.8471" lon="6.30615">
        <ele>1274</ele>
      </trkpt>
      <trkpt lat="43.84722" lon="6.30595">
        <ele>1276</ele>
      </trkpt>
      <trkpt lat="43.84745" lon="6.3057">
        <ele>1278</ele>
      </trkpt>
      <trkpt lat="43.84762" lon="6.30557">
        <ele>1281</ele>
      </trkpt>
      <trkpt lat="43.84777" lon="6.30527">
        <ele>1288</ele>
      </trkpt>
      <trkpt lat="43.84783" lon="6.305">
        <ele>1293</ele>
      </trkpt>
      <trkpt lat="43.84791" lon="6.30474">
        <ele>1298</ele>
      </trkpt>
      <trkpt lat="43.8481" lon="6.30443">
        <ele>1300</ele>
      </trkpt>
      <trkpt lat="43.84823" lon="6.30426">
        <ele>1302</ele>
      </trkpt>
      <trkpt lat="43.84845" lon="6.30397">
        <ele>1303</ele>
      </trkpt>
      <trkpt lat="43.84868" lon="6.30367">
        <ele>1304</ele>
      </trkpt>
      <trkpt lat="43.84884" lon="6.30333">
        <ele>1304</ele>
      </trkpt>
      <trkpt lat="43.84894" lon="6.303">
        <ele>1305</ele>
      </trkpt>
      <trkpt lat="43.84908" lon="6.3026">
        <ele>1305</ele>
      </trkpt>
      <trkpt lat="43.84922" lon="6.30231">
        <ele>1305</ele>
      </trkpt>
      <trkpt lat="43.84941" lon="6.3019">
        <ele>1304</ele>
      </trkpt>
      <trkpt lat="43.84956" lon="6.3015">
        <ele>1302</ele>
      </trkpt>
      <trkpt lat="43.84974" lon="6.301">
        <ele>1301</ele>
      </trkpt>
      <trkpt lat="43.84985" lon="6.30064">
        <ele>1299</ele>
      </trkpt>
      <trkpt lat="43.84999" lon="6.30044">
        <ele>1297</ele>
      </trkpt>
      <trkpt lat="43.85008" lon="6.30036">
        <ele>1296</ele>
      </trkpt>
      <trkpt lat="43.85038" lon="6.30025">
        <ele>1294</ele>
      </trkpt>
      <trkpt lat="43.85071" lon="6.30015">
        <ele>1292</ele>
      </trkpt>
      <trkpt lat="43.85098" lon="6.30015">
        <ele>1293</ele>
      </trkpt>
      <trkpt lat="43.85123" lon="6.30006">
        <ele>1293</ele>
      </trkpt>
      <trkpt lat="43.85133" lon="6.29998">
        <ele>1292</ele>
      </trkpt>
      <trkpt lat="43.85171" lon="6.29978">
        <ele>1292</ele>
      </trkpt>
      <trkpt lat="43.85188" lon="6.2997">
        <ele>1294</ele>
      </trkpt>
      <trkpt lat="43.85209" lon="6.29945">
        <ele>1297</ele>
      </trkpt>
      <trkpt lat="43.85211" lon="6.29917">
        <ele>1297</ele>
      </trkpt>
      <trkpt lat="43.8521" lon="6.29886">
        <ele>1295</ele>
      </trkpt>
      <trkpt lat="43.85206" lon="6.29856">
        <ele>1292</ele>
      </trkpt>
      <trkpt lat="43.85212" lon="6.29829">
        <ele>1292</ele>
      </trkpt>
      <trkpt lat="43.85225" lon="6.29815">
        <ele>1293</ele>
      </trkpt>
      <trkpt lat="43.85265" lon="6.29788">
        <ele>1294</ele>
      </trkpt>
      <trkpt lat="43.8527" lon="6.29785">
        <ele>1294</ele>
      </trkpt>
      <trkpt lat="43.85301" lon="6.29762">
        <ele>1290</ele>
      </trkpt>
      <trkpt lat="43.85326" lon="6.29742">
        <ele>1288</ele>
      </trkpt>
      <trkpt lat="43.85334" lon="6.29727">
        <ele>1285</ele>
      </trkpt>
      <trkpt lat="43.85334" lon="6.29724">
        <ele>1285</ele>
      </trkpt>
      <trkpt lat="43.8534" lon="6.29727">
        <ele>1284</ele>
      </trkpt>
      <trkpt lat="43.8534" lon="6.29723">
        <ele>1284</ele>
      </trkpt>
      <trkpt lat="43.85336" lon="6.2972">
        <ele>1284</ele>
      </trkpt>
      <trkpt lat="43.85329" lon="6.29713">
        <ele>1284</ele>
      </trkpt>
      <trkpt lat="43.85321" lon="6.29708">
        <ele>1285</ele>
      </trkpt>
      <trkpt lat="43.85319" lon="6.29705">
        <ele>1285</ele>
      </trkpt>
      <trkpt lat="43.85323" lon="6.29693">
        <ele>1285</ele>
      </trkpt>
      <trkpt lat="43.85332" lon="6.29684">
        <ele>1284</ele>
      </trkpt>
      <trkpt lat="43.85336" lon="6.29673">
        <ele>1285</ele>
      </trkpt>
      <trkpt lat="43.85333" lon="6.2966">
        <ele>1286</ele>
      </trkpt>
      <trkpt lat="43.85331" lon="6.29657">
        <ele>1287</ele>
      </trkpt>
      <trkpt lat="43.85328" lon="6.29646">
        <ele>1289</ele>
      </trkpt>
      <trkpt lat="43.85328" lon="6.29643">
        <ele>1289</ele>
      </trkpt>
      <trkpt lat="43.85329" lon="6.29641">
        <ele>1289</ele>
      </trkpt>
      <trkpt lat="43.85331" lon="6.29633">
        <ele>1290</ele>
      </trkpt>
      <trkpt lat="43.85334" lon="6.29623">
        <ele>1292</ele>
      </trkpt>
      <trkpt lat="43.85339" lon="6.29616">
        <ele>1293</ele>
      </trkpt>
      <trkpt lat="43.85342" lon="6.29607">
        <ele>1294</ele>
      </trkpt>
      <trkpt lat="43.85344" lon="6.29602">
        <ele>1295</ele>
      </trkpt>
      <trkpt lat="43.85347" lon="6.296">
        <ele>1295</ele>
      </trkpt>
      <trkpt lat="43.8535" lon="6.29594">
        <ele>1296</ele>
      </trkpt>
      <trkpt lat="43.85358" lon="6.29579">
        <ele>1300</ele>
      </trkpt>
      <trkpt lat="43.85361" lon="6.29565">
        <ele>1302</ele>
      </trkpt>
      <trkpt lat="43.85364" lon="6.29552">
        <ele>1304</ele>
      </trkpt>
      <trkpt lat="43.85369" lon="6.29532">
        <ele>1308</ele>
      </trkpt>
      <trkpt lat="43.85375" lon="6.29518">
        <ele>1311</ele>
      </trkpt>
      <trkpt lat="43.85379" lon="6.29506">
        <ele>1313</ele>
      </trkpt>
      <trkpt lat="43.85383" lon="6.29497">
        <ele>1314</ele>
      </trkpt>
      <trkpt lat="43.85386" lon="6.29483">
        <ele>1316</ele>
      </trkpt>
      <trkpt lat="43.85388" lon="6.29475">
        <ele>1317</ele>
      </trkpt>
      <trkpt lat="43.85391" lon="6.29465">
        <ele>1319</ele>
      </trkpt>
      <trkpt lat="43.854" lon="6.2946">
        <ele>1321</ele>
      </trkpt>
      <trkpt lat="43.8541" lon="6.29457">
        <ele>1322</ele>
      </trkpt>
      <trkpt lat="43.85415" lon="6.2945">
        <ele>1324</ele>
      </trkpt>
      <trkpt lat="43.85424" lon="6.2944">
        <ele>1325</ele>
      </trkpt>
      <trkpt lat="43.85434" lon="6.2944">
        <ele>1326</ele>
      </trkpt>
      <trkpt lat="43.85442" lon="6.29439">
        <ele>1326</ele>
      </trkpt>
      <trkpt lat="43.85451" lon="6.29435">
        <ele>1327</ele>
      </trkpt>
      <trkpt lat="43.85457" lon="6.29428">
        <ele>1328</ele>
      </trkpt>
      <trkpt lat="43.85464" lon="6.2942">
        <ele>1330</ele>
      </trkpt>
      <trkpt lat="43.8547" lon="6.29409">
        <ele>1331</ele>
      </trkpt>
      <trkpt lat="43.85471" lon="6.29404">
        <ele>1331</ele>
      </trkpt>
      <trkpt lat="43.85474" lon="6.29398">
        <ele>1332</ele>
      </trkpt>
      <trkpt lat="43.85481" lon="6.29394">
        <ele>1332</ele>
      </trkpt>
      <trkpt lat="43.85488" lon="6.29387">
        <ele>1333</ele>
      </trkpt>
      <trkpt lat="43.85493" lon="6.29378">
        <ele>1334</ele>
      </trkpt>
      <trkpt lat="43.85501" lon="6.29368">
        <ele>1335</ele>
      </trkpt>
      <trkpt lat="43.85505" lon="6.29359">
        <ele>1336</ele>
      </trkpt>
      <trkpt lat="43.85512" lon="6.29341">
        <ele>1338</ele>
      </trkpt>
      <trkpt lat="43.85515" lon="6.29329">
        <ele>1339</ele>
      </trkpt>
      <trkpt lat="43.85513" lon="6.29315">
        <ele>1340</ele>
      </trkpt>
      <trkpt lat="43.85512" lon="6.29297">
        <ele>1342</ele>
      </trkpt>
      <trkpt lat="43.85511" lon="6.29286">
        <ele>1342</ele>
      </trkpt>
      <trkpt lat="43.85514" lon="6.29274">
        <ele>1344</ele>
      </trkpt>
      <trkpt lat="43.85526" lon="6.2926">
        <ele>1345</ele>
      </trkpt>
      <trkpt lat="43.85536" lon="6.29244">
        <ele>1347</ele>
      </trkpt>
      <trkpt lat="43.85547" lon="6.29222">
        <ele>1349</ele>
      </trkpt>
      <trkpt lat="43.85559" lon="6.29203">
        <ele>1350</ele>
      </trkpt>
      <trkpt lat="43.85567" lon="6.29188">
        <ele>1350</ele>
      </trkpt>
      <trkpt lat="43.85578" lon="6.29167">
        <ele>1351</ele>
      </trkpt>
      <trkpt lat="43.85588" lon="6.29151">
        <ele>1351</ele>
      </trkpt>
      <trkpt lat="43.85597" lon="6.29142">
        <ele>1351</ele>
      </trkpt>
      <trkpt lat="43.856" lon="6.29141">
        <ele>1351</ele>
      </trkpt>
      <trkpt lat="43.85615" lon="6.29127">
        <ele>1351</ele>
      </trkpt>
      <trkpt lat="43.85643" lon="6.29093">
        <ele>1347</ele>
      </trkpt>
      <trkpt lat="43.85656" lon="6.29077">
        <ele>1344</ele>
      </trkpt>
      <trkpt lat="43.85656" lon="6.29073">
        <ele>1343</ele>
      </trkpt>
      <trkpt lat="43.8566" lon="6.29041">
        <ele>1339</ele>
      </trkpt>
      <trkpt lat="43.85657" lon="6.29025">
        <ele>1342</ele>
      </trkpt>
      <trkpt lat="43.85645" lon="6.29006">
        <ele>1346</ele>
      </trkpt>
      <trkpt lat="43.8564" lon="6.28989">
        <ele>1348</ele>
      </trkpt>
      <trkpt lat="43.85639" lon="6.28988">
        <ele>1348</ele>
      </trkpt>
      <trkpt lat="43.85637" lon="6.28981">
        <ele>1349</ele>
      </trkpt>
      <trkpt lat="43.85632" lon="6.28967">
        <ele>1350</ele>
      </trkpt>
      <trkpt lat="43.85623" lon="6.28953">
        <ele>1352</ele>
      </trkpt>
      <trkpt lat="43.85602" lon="6.2894">
        <ele>1353</ele>
      </trkpt>
      <trkpt lat="43.85579" lon="6.28926">
        <ele>1353</ele>
      </trkpt>
      <trkpt lat="43.85555" lon="6.28913">
        <ele>1351</ele>
      </trkpt>
      <trkpt lat="43.85538" lon="6.28901">
        <ele>1349</ele>
      </trkpt>
      <trkpt lat="43.85525" lon="6.28898">
        <ele>1348</ele>
      </trkpt>
      <trkpt lat="43.85513" lon="6.28897">
        <ele>1346</ele>
      </trkpt>
      <trkpt lat="43.85504" lon="6.28893">
        <ele>1346</ele>
      </trkpt>
      <trkpt lat="43.85492" lon="6.28888">
        <ele>1346</ele>
      </trkpt>
      <trkpt lat="43.85484" lon="6.28885">
        <ele>1346</ele>
      </trkpt>
      <trkpt lat="43.85474" lon="6.28882">
        <ele>1346</ele>
      </trkpt>
      <trkpt lat="43.85463" lon="6.2888">
        <ele>1346</ele>
      </trkpt>
      <trkpt lat="43.85454" lon="6.28877">
        <ele>1347</ele>
      </trkpt>
      <trkpt lat="43.85445" lon="6.28876">
        <ele>1348</ele>
      </trkpt>
      <trkpt lat="43.85434" lon="6.28878">
        <ele>1347</ele>
      </trkpt>
      <trkpt lat="43.85425" lon="6.28879">
        <ele>1348</ele>
      </trkpt>
      <trkpt lat="43.85418" lon="6.2888">
        <ele>1348</ele>
      </trkpt>
      <trkpt lat="43.85404" lon="6.2888">
        <ele>1350</ele>
      </trkpt>
      <trkpt lat="43.85395" lon="6.28879">
        <ele>1351</ele>
      </trkpt>
      <trkpt lat="43.85383" lon="6.28878">
        <ele>1353</ele>
      </trkpt>
      <trkpt lat="43.85376" lon="6.2888">
        <ele>1354</ele>
      </trkpt>
      <trkpt lat="43.85364" lon="6.28881">
        <ele>1356</ele>
      </trkpt>
      <trkpt lat="43.85352" lon="6.28885">
        <ele>1356</ele>
      </trkpt>
      <trkpt lat="43.85342" lon="6.28887">
        <ele>1357</ele>
      </trkpt>
      <trkpt lat="43.85335" lon="6.28888">
        <ele>1359</ele>
      </trkpt>
      <trkpt lat="43.85332" lon="6.2889">
        <ele>1359</ele>
      </trkpt>
      <trkpt lat="43.85325" lon="6.28891">
        <ele>1360</ele>
      </trkpt>
      <trkpt lat="43.85323" lon="6.28891">
        <ele>1360</ele>
      </trkpt>
      <trkpt lat="43.85318" lon="6.28893">
        <ele>1361</ele>
      </trkpt>
      <trkpt lat="43.85311" lon="6.28893">
        <ele>1363</ele>
      </trkpt>
      <trkpt lat="43.85304" lon="6.28893">
        <ele>1364</ele>
      </trkpt>
      <trkpt lat="43.85299" lon="6.28895">
        <ele>1365</ele>
      </trkpt>
      <trkpt lat="43.85294" lon="6.28897">
        <ele>1366</ele>
      </trkpt>
      <trkpt lat="43.85289" lon="6.28898">
        <ele>1367</ele>
      </trkpt>
      <trkpt lat="43.85282" lon="6.28901">
        <ele>1368</ele>
      </trkpt>
      <trkpt lat="43.85276" lon="6.28903">
        <ele>1369</ele>
      </trkpt>
      <trkpt lat="43.85272" lon="6.28904">
        <ele>1370</ele>
      </trkpt>
      <trkpt lat="43.85265" lon="6.2891">
        <ele>1370</ele>
      </trkpt>
      <trkpt lat="43.85262" lon="6.28911">
        <ele>1370</ele>
      </trkpt>
      <trkpt lat="43.85258" lon="6.28913">
        <ele>1371</ele>
      </trkpt>
      <trkpt lat="43.85252" lon="6.28915">
        <ele>1372</ele>
      </trkpt>
      <trkpt lat="43.85241" lon="6.28919">
        <ele>1375</ele>
      </trkpt>
      <trkpt lat="43.85231" lon="6.28925">
        <ele>1376</ele>
      </trkpt>
      <trkpt lat="43.85223" lon="6.2893">
        <ele>1378</ele>
      </trkpt>
      <trkpt lat="43.85215" lon="6.28935">
        <ele>1379</ele>
      </trkpt>
      <trkpt lat="43.85203" lon="6.28942">
        <ele>1381</ele>
      </trkpt>
      <trkpt lat="43.85191" lon="6.28951">
        <ele>1382</ele>
      </trkpt>
      <trkpt lat="43.85181" lon="6.2896">
        <ele>1383</ele>
      </trkpt>
      <trkpt lat="43.85173" lon="6.28967">
        <ele>1384</ele>
      </trkpt>
      <trkpt lat="43.85164" lon="6.28974">
        <ele>1384</ele>
      </trkpt>
      <trkpt lat="43.85153" lon="6.28979">
        <ele>1386</ele>
      </trkpt>
      <trkpt lat="43.85143" lon="6.28982">
        <ele>1388</ele>
      </trkpt>
      <trkpt lat="43.85133" lon="6.28984">
        <ele>1389</ele>
      </trkpt>
      <trkpt lat="43.85124" lon="6.28985">
        <ele>1392</ele>
      </trkpt>
      <trkpt lat="43.85112" lon="6.28991">
        <ele>1393</ele>
      </trkpt>
      <trkpt lat="43.85101" lon="6.28996">
        <ele>1393</ele>
      </trkpt>
      <trkpt lat="43.85094" lon="6.28997">
        <ele>1395</ele>
      </trkpt>
      <trkpt lat="43.85083" lon="6.29">
        <ele>1397</ele>
      </trkpt>
      <trkpt lat="43.85068" lon="6.29002">
        <ele>1399</ele>
      </trkpt>
      <trkpt lat="43.85054" lon="6.29004">
        <ele>1400</ele>
      </trkpt>
      <trkpt lat="43.85042" lon="6.29001">
        <ele>1402</ele>
      </trkpt>
      <trkpt lat="43.85039" lon="6.29">
        <ele>1403</ele>
      </trkpt>
      <trkpt lat="43.85029" lon="6.29">
        <ele>1405</ele>
      </trkpt>
      <trkpt lat="43.85028" lon="6.28999">
        <ele>1405</ele>
      </trkpt>
      <trkpt lat="43.85024" lon="6.28998">
        <ele>1405</ele>
      </trkpt>
      <trkpt lat="43.85022" lon="6.28997">
        <ele>1406</ele>
      </trkpt>
      <trkpt lat="43.85015" lon="6.28997">
        <ele>1406</ele>
      </trkpt>
      <trkpt lat="43.85004" lon="6.28994">
        <ele>1407</ele>
      </trkpt>
      <trkpt lat="43.84992" lon="6.28992">
        <ele>1408</ele>
      </trkpt>
      <trkpt lat="43.84985" lon="6.28988">
        <ele>1410</ele>
      </trkpt>
      <trkpt lat="43.84972" lon="6.28983">
        <ele>1412</ele>
      </trkpt>
      <trkpt lat="43.84958" lon="6.28981">
        <ele>1413</ele>
      </trkpt>
      <trkpt lat="43.84946" lon="6.2898">
        <ele>1414</ele>
      </trkpt>
      <trkpt lat="43.84937" lon="6.28982">
        <ele>1413</ele>
      </trkpt>
      <trkpt lat="43.84926" lon="6.28985">
        <ele>1414</ele>
      </trkpt>
      <trkpt lat="43.84917" lon="6.28987">
        <ele>1415</ele>
      </trkpt>
      <trkpt lat="43.8491" lon="6.28987">
        <ele>1417</ele>
      </trkpt>
      <trkpt lat="43.84902" lon="6.28989">
        <ele>1418</ele>
      </trkpt>
      <trkpt lat="43.84893" lon="6.28992">
        <ele>1419</ele>
      </trkpt>
      <trkpt lat="43.84879" lon="6.28998">
        <ele>1422</ele>
      </trkpt>
      <trkpt lat="43.84864" lon="6.29007">
        <ele>1424</ele>
      </trkpt>
      <trkpt lat="43.84852" lon="6.29014">
        <ele>1426</ele>
      </trkpt>
      <trkpt lat="43.84841" lon="6.29022">
        <ele>1427</ele>
      </trkpt>
      <trkpt lat="43.84835" lon="6.2903">
        <ele>1427</ele>
      </trkpt>
      <trkpt lat="43.84827" lon="6.29037">
        <ele>1428</ele>
      </trkpt>
      <trkpt lat="43.84815" lon="6.29047">
        <ele>1430</ele>
      </trkpt>
      <trkpt lat="43.84807" lon="6.29049">
        <ele>1431</ele>
      </trkpt>
      <trkpt lat="43.84796" lon="6.29048">
        <ele>1434</ele>
      </trkpt>
      <trkpt lat="43.84791" lon="6.29047">
        <ele>1435</ele>
      </trkpt>
      <trkpt lat="43.8478" lon="6.29043">
        <ele>1438</ele>
      </trkpt>
      <trkpt lat="43.84771" lon="6.29035">
        <ele>1442</ele>
      </trkpt>
      <trkpt lat="43.84764" lon="6.2903">
        <ele>1444</ele>
      </trkpt>
      <trkpt lat="43.84761" lon="6.29021">
        <ele>1446</ele>
      </trkpt>
      <trkpt lat="43.84754" lon="6.29012">
        <ele>1448</ele>
      </trkpt>
      <trkpt lat="43.84749" lon="6.29005">
        <ele>1450</ele>
      </trkpt>
      <trkpt lat="43.84746" lon="6.29001">
        <ele>1450</ele>
      </trkpt>
      <trkpt lat="43.84742" lon="6.28987">
        <ele>1453</ele>
      </trkpt>
      <trkpt lat="43.84738" lon="6.28977">
        <ele>1455</ele>
      </trkpt>
      <trkpt lat="43.84731" lon="6.28962">
        <ele>1457</ele>
      </trkpt>
      <trkpt lat="43.84722" lon="6.28954">
        <ele>1459</ele>
      </trkpt>
      <trkpt lat="43.84717" lon="6.28945">
        <ele>1460</ele>
      </trkpt>
      <trkpt lat="43.84711" lon="6.28935">
        <ele>1462</ele>
      </trkpt>
      <trkpt lat="43.8471" lon="6.28935">
        <ele>1462</ele>
      </trkpt>
      <trkpt lat="43.84709" lon="6.2893">
        <ele>1463</ele>
      </trkpt>
      <trkpt lat="43.84717" lon="6.28925">
        <ele>1464</ele>
      </trkpt>
      <trkpt lat="43.84717" lon="6.28919">
        <ele>1465</ele>
      </trkpt>
      <trkpt lat="43.84717" lon="6.28905">
        <ele>1467</ele>
      </trkpt>
      <trkpt lat="43.84716" lon="6.28891">
        <ele>1470</ele>
      </trkpt>
      <trkpt lat="43.84717" lon="6.28882">
        <ele>1472</ele>
      </trkpt>
      <trkpt lat="43.84714" lon="6.28877">
        <ele>1472</ele>
      </trkpt>
      <trkpt lat="43.84708" lon="6.28863">
        <ele>1475</ele>
      </trkpt>
      <trkpt lat="43.84707" lon="6.28862">
        <ele>1475</ele>
      </trkpt>
      <trkpt lat="43.84698" lon="6.28857">
        <ele>1476</ele>
      </trkpt>
      <trkpt lat="43.84696" lon="6.28857">
        <ele>1476</ele>
      </trkpt>
      <trkpt lat="43.84695" lon="6.28858">
        <ele>1476</ele>
      </trkpt>
      <trkpt lat="43.84694" lon="6.2886">
        <ele>1476</ele>
      </trkpt>
      <trkpt lat="43.8469" lon="6.28857">
        <ele>1476</ele>
      </trkpt>
      <trkpt lat="43.84694" lon="6.28848">
        <ele>1478</ele>
      </trkpt>
      <trkpt lat="43.84697" lon="6.28833">
        <ele>1481</ele>
      </trkpt>
      <trkpt lat="43.84698" lon="6.28831">
        <ele>1481</ele>
      </trkpt>
      <trkpt lat="43.84701" lon="6.28812">
        <ele>1485</ele>
      </trkpt>
      <trkpt lat="43.84705" lon="6.288">
        <ele>1488</ele>
      </trkpt>
      <trkpt lat="43.84711" lon="6.28787">
        <ele>1490</ele>
      </trkpt>
      <trkpt lat="43.8472" lon="6.2878">
        <ele>1491</ele>
      </trkpt>
      <trkpt lat="43.84727" lon="6.28772">
        <ele>1492</ele>
      </trkpt>
      <trkpt lat="43.84735" lon="6.28763">
        <ele>1493</ele>
      </trkpt>
      <trkpt lat="43.84743" lon="6.28755">
        <ele>1494</ele>
      </trkpt>
      <trkpt lat="43.84749" lon="6.28748">
        <ele>1495</ele>
      </trkpt>
      <trkpt lat="43.84759" lon="6.28738">
        <ele>1496</ele>
      </trkpt>
      <trkpt lat="43.84767" lon="6.28729">
        <ele>1497</ele>
      </trkpt>
      <trkpt lat="43.84773" lon="6.2872">
        <ele>1498</ele>
      </trkpt>
      <trkpt lat="43.8478" lon="6.28711">
        <ele>1499</ele>
      </trkpt>
      <trkpt lat="43.84785" lon="6.28706">
        <ele>1499</ele>
      </trkpt>
      <trkpt lat="43.84793" lon="6.28696">
        <ele>1500</ele>
      </trkpt>
      <trkpt lat="43.84798" lon="6.28686">
        <ele>1501</ele>
      </trkpt>
      <trkpt lat="43.84807" lon="6.28678">
        <ele>1502</ele>
      </trkpt>
      <trkpt lat="43.84815" lon="6.28669">
        <ele>1502</ele>
      </trkpt>
      <trkpt lat="43.84822" lon="6.2866">
        <ele>1504</ele>
      </trkpt>
      <trkpt lat="43.84829" lon="6.28653">
        <ele>1504</ele>
      </trkpt>
      <trkpt lat="43.84835" lon="6.28644">
        <ele>1506</ele>
      </trkpt>
      <trkpt lat="43.84835" lon="6.28643">
        <ele>1506</ele>
      </trkpt>
      <trkpt lat="43.84837" lon="6.28635">
        <ele>1507</ele>
      </trkpt>
      <trkpt lat="43.84843" lon="6.28631">
        <ele>1507</ele>
      </trkpt>
      <trkpt lat="43.84857" lon="6.28624">
        <ele>1507</ele>
      </trkpt>
      <trkpt lat="43.8487" lon="6.28616">
        <ele>1508</ele>
      </trkpt>
      <trkpt lat="43.84886" lon="6.28602">
        <ele>1510</ele>
      </trkpt>
      <trkpt lat="43.849" lon="6.28581">
        <ele>1514</ele>
      </trkpt>
      <trkpt lat="43.84912" lon="6.2856">
        <ele>1517</ele>
      </trkpt>
      <trkpt lat="43.84927" lon="6.28547">
        <ele>1520</ele>
      </trkpt>
      <trkpt lat="43.84938" lon="6.28538">
        <ele>1522</ele>
      </trkpt>
      <trkpt lat="43.8495" lon="6.28523">
        <ele>1524</ele>
      </trkpt>
      <trkpt lat="43.84965" lon="6.285">
        <ele>1527</ele>
      </trkpt>
      <trkpt lat="43.84979" lon="6.2847">
        <ele>1529</ele>
      </trkpt>
      <trkpt lat="43.84988" lon="6.28444">
        <ele>1531</ele>
      </trkpt>
      <trkpt lat="43.85002" lon="6.28432">
        <ele>1531</ele>
      </trkpt>
      <trkpt lat="43.85019" lon="6.28416">
        <ele>1532</ele>
      </trkpt>
      <trkpt lat="43.85035" lon="6.28388">
        <ele>1533</ele>
      </trkpt>
      <trkpt lat="43.85054" lon="6.28363">
        <ele>1534</ele>
      </trkpt>
      <trkpt lat="43.85063" lon="6.2835">
        <ele>1536</ele>
      </trkpt>
      <trkpt lat="43.85072" lon="6.28343">
        <ele>1536</ele>
      </trkpt>
      <trkpt lat="43.85088" lon="6.2833">
        <ele>1537</ele>
      </trkpt>
      <trkpt lat="43.85098" lon="6.28322">
        <ele>1538</ele>
      </trkpt>
      <trkpt lat="43.85118" lon="6.28309">
        <ele>1540</ele>
      </trkpt>
      <trkpt lat="43.85137" lon="6.28303">
        <ele>1541</ele>
      </trkpt>
      <trkpt lat="43.85155" lon="6.28295">
        <ele>1542</ele>
      </trkpt>
      <trkpt lat="43.85167" lon="6.28276">
        <ele>1544</ele>
      </trkpt>
      <trkpt lat="43.85179" lon="6.28266">
        <ele>1544</ele>
      </trkpt>
      <trkpt lat="43.85201" lon="6.28254">
        <ele>1543</ele>
      </trkpt>
      <trkpt lat="43.8522" lon="6.28242">
        <ele>1541</ele>
      </trkpt>
      <trkpt lat="43.8523" lon="6.28234">
        <ele>1540</ele>
      </trkpt>
      <trkpt lat="43.8523" lon="6.28234">
        <ele>1540</ele>
      </trkpt>
      <trkpt lat="43.8523" lon="6.28234">
        <ele>1540</ele>
      </trkpt>
      <trkpt lat="43.8523" lon="6.28228">
        <ele>1540</ele>
      </trkpt>
      <trkpt lat="43.85228" lon="6.28225">
        <ele>1540</ele>
      </trkpt>
      <trkpt lat="43.85228" lon="6.28225">
        <ele>1540</ele>
      </trkpt>
      <trkpt lat="43.85228" lon="6.28224">
        <ele>1540</ele>
      </trkpt>
      <trkpt lat="43.85227" lon="6.28221">
        <ele>1539</ele>
      </trkpt>
      <trkpt lat="43.85232" lon="6.28209">
        <ele>1538</ele>
      </trkpt>
      <trkpt lat="43.85239" lon="6.28197">
        <ele>1537</ele>
      </trkpt>
      <trkpt lat="43.85248" lon="6.28176">
        <ele>1537</ele>
      </trkpt>
      <trkpt lat="43.85249" lon="6.28173">
        <ele>1537</ele>
      </trkpt>
      <trkpt lat="43.85255" lon="6.28154">
        <ele>1537</ele>
      </trkpt>
      <trkpt lat="43.85263" lon="6.28134">
        <ele>1537</ele>
      </trkpt>
      <trkpt lat="43.85266" lon="6.28129">
        <ele>1536</ele>
      </trkpt>
      <trkpt lat="43.85272" lon="6.28125">
        <ele>1536</ele>
      </trkpt>
      <trkpt lat="43.85274" lon="6.28124">
        <ele>1536</ele>
      </trkpt>
      <trkpt lat="43.85289" lon="6.28117">
        <ele>1536</ele>
      </trkpt>
      <trkpt lat="43.85292" lon="6.28116">
        <ele>1536</ele>
      </trkpt>
      <trkpt lat="43.85293" lon="6.28116">
        <ele>1536</ele>
      </trkpt>
      <trkpt lat="43.85301" lon="6.28105">
        <ele>1536</ele>
      </trkpt>
      <trkpt lat="43.85295" lon="6.28098">
        <ele>1534</ele>
      </trkpt>
      <trkpt lat="43.85293" lon="6.28098">
        <ele>1534</ele>
      </trkpt>
      <trkpt lat="43.8529" lon="6.28095">
        <ele>1533</ele>
      </trkpt>
      <trkpt lat="43.85281" lon="6.2809">
        <ele>1532</ele>
      </trkpt>
      <trkpt lat="43.85278" lon="6.28084">
        <ele>1531</ele>
      </trkpt>
      <trkpt lat="43.85279" lon="6.28084">
        <ele>1531</ele>
      </trkpt>
      <trkpt lat="43.8529" lon="6.28079">
        <ele>1531</ele>
      </trkpt>
      <trkpt lat="43.85302" lon="6.28069">
        <ele>1530</ele>
      </trkpt>
      <trkpt lat="43.85311" lon="6.28062">
        <ele>1530</ele>
      </trkpt>
      <trkpt lat="43.85324" lon="6.2805">
        <ele>1529</ele>
      </trkpt>
      <trkpt lat="43.8533" lon="6.28037">
        <ele>1526</ele>
      </trkpt>
      <trkpt lat="43.85324" lon="6.28037">
        <ele>1525</ele>
      </trkpt>
      <trkpt lat="43.85314" lon="6.28033">
        <ele>1522</ele>
      </trkpt>
      <trkpt lat="43.85296" lon="6.2802">
        <ele>1516</ele>
      </trkpt>
      <trkpt lat="43.85299" lon="6.28015">
        <ele>1516</ele>
      </trkpt>
      <trkpt lat="43.85307" lon="6.28004">
        <ele>1514</ele>
      </trkpt>
      <trkpt lat="43.85313" lon="6.28">
        <ele>1514</ele>
      </trkpt>
      <trkpt lat="43.85321" lon="6.27989">
        <ele>1512</ele>
      </trkpt>
      <trkpt lat="43.8533" lon="6.27971">
        <ele>1509</ele>
      </trkpt>
      <trkpt lat="43.85336" lon="6.2796">
        <ele>1507</ele>
      </trkpt>
      <trkpt lat="43.85342" lon="6.27946">
        <ele>1505</ele>
      </trkpt>
      <trkpt lat="43.85344" lon="6.2792">
        <ele>1500</ele>
      </trkpt>
      <trkpt lat="43.85343" lon="6.27899">
        <ele>1496</ele>
      </trkpt>
      <trkpt lat="43.85347" lon="6.27871">
        <ele>1492</ele>
      </trkpt>
      <trkpt lat="43.85351" lon="6.27861">
        <ele>1491</ele>
      </trkpt>
      <trkpt lat="43.85352" lon="6.27853">
        <ele>1490</ele>
      </trkpt>
      <trkpt lat="43.85362" lon="6.27832">
        <ele>1487</ele>
      </trkpt>
      <trkpt lat="43.85368" lon="6.27825">
        <ele>1486</ele>
      </trkpt>
      <trkpt lat="43.85377" lon="6.27813">
        <ele>1484</ele>
      </trkpt>
      <trkpt lat="43.85374" lon="6.27805">
        <ele>1482</ele>
      </trkpt>
      <trkpt lat="43.85365" lon="6.27791">
        <ele>1478</ele>
      </trkpt>
      <trkpt lat="43.85355" lon="6.27778">
        <ele>1475</ele>
      </trkpt>
      <trkpt lat="43.85351" lon="6.27771">
        <ele>1473</ele>
      </trkpt>
      <trkpt lat="43.85353" lon="6.27766">
        <ele>1472</ele>
      </trkpt>
      <trkpt lat="43.85358" lon="6.27763">
        <ele>1472</ele>
      </trkpt>
      <trkpt lat="43.85361" lon="6.27759">
        <ele>1471</ele>
      </trkpt>
      <trkpt lat="43.85371" lon="6.27756">
        <ele>1471</ele>
      </trkpt>
      <trkpt lat="43.85374" lon="6.27749">
        <ele>1470</ele>
      </trkpt>
      <trkpt lat="43.8537" lon="6.27741">
        <ele>1468</ele>
      </trkpt>
      <trkpt lat="43.85356" lon="6.27725">
        <ele>1465</ele>
      </trkpt>
      <trkpt lat="43.8536" lon="6.27719">
        <ele>1464</ele>
      </trkpt>
      <trkpt lat="43.85373" lon="6.27717">
        <ele>1463</ele>
      </trkpt>
      <trkpt lat="43.85377" lon="6.27717">
        <ele>1462</ele>
      </trkpt>
      <trkpt lat="43.85374" lon="6.27709">
        <ele>1461</ele>
      </trkpt>
      <trkpt lat="43.85371" lon="6.27702">
        <ele>1460</ele>
      </trkpt>
      <trkpt lat="43.85363" lon="6.27687">
        <ele>1458</ele>
      </trkpt>
      <trkpt lat="43.85367" lon="6.27678">
        <ele>1456</ele>
      </trkpt>
      <trkpt lat="43.8539" lon="6.27673">
        <ele>1454</ele>
      </trkpt>
      <trkpt lat="43.85412" lon="6.27681">
        <ele>1459</ele>
      </trkpt>
      <trkpt lat="43.85427" lon="6.27676">
        <ele>1461</ele>
      </trkpt>
      <trkpt lat="43.85425" lon="6.27675">
        <ele>1461</ele>
      </trkpt>
      <trkpt lat="43.8542" lon="6.27675">
        <ele>1460</ele>
      </trkpt>
      <trkpt lat="43.85411" lon="6.27666">
        <ele>1457</ele>
      </trkpt>
      <trkpt lat="43.85411" lon="6.2766">
        <ele>1456</ele>
      </trkpt>
      <trkpt lat="43.85421" lon="6.27651">
        <ele>1455</ele>
      </trkpt>
      <trkpt lat="43.85423" lon="6.27648">
        <ele>1455</ele>
      </trkpt>
      <trkpt lat="43.85427" lon="6.27645">
        <ele>1455</ele>
      </trkpt>
      <trkpt lat="43.85431" lon="6.27639">
        <ele>1454</ele>
      </trkpt>
      <trkpt lat="43.85432" lon="6.27631">
        <ele>1452</ele>
      </trkpt>
      <trkpt lat="43.85424" lon="6.27628">
        <ele>1450</ele>
      </trkpt>
      <trkpt lat="43.85428" lon="6.27621">
        <ele>1448</ele>
      </trkpt>
      <trkpt lat="43.85434" lon="6.27611">
        <ele>1446</ele>
      </trkpt>
      <trkpt lat="43.85439" lon="6.276">
        <ele>1444</ele>
      </trkpt>
      <trkpt lat="43.85442" lon="6.27593">
        <ele>1442</ele>
      </trkpt>
      <trkpt lat="43.85436" lon="6.27592">
        <ele>1441</ele>
      </trkpt>
      <trkpt lat="43.85434" lon="6.27587">
        <ele>1439</ele>
      </trkpt>
      <trkpt lat="43.85438" lon="6.27581">
        <ele>1438</ele>
      </trkpt>
      <trkpt lat="43.85447" lon="6.27565">
        <ele>1436</ele>
      </trkpt>
      <trkpt lat="43.85452" lon="6.27559">
        <ele>1435</ele>
      </trkpt>
      <trkpt lat="43.85458" lon="6.27547">
        <ele>1433</ele>
      </trkpt>
      <trkpt lat="43.85461" lon="6.27544">
        <ele>1433</ele>
      </trkpt>
      <trkpt lat="43.85476" lon="6.27529">
        <ele>1431</ele>
      </trkpt>
      <trkpt lat="43.85483" lon="6.27523">
        <ele>1430</ele>
      </trkpt>
      <trkpt lat="43.8549" lon="6.27514">
        <ele>1428</ele>
      </trkpt>
      <trkpt lat="43.85494" lon="6.27509">
        <ele>1427</ele>
      </trkpt>
      <trkpt lat="43.85487" lon="6.27503">
        <ele>1424</ele>
      </trkpt>
      <trkpt lat="43.85485" lon="6.27502">
        <ele>1424</ele>
      </trkpt>
      <trkpt lat="43.8549" lon="6.27494">
        <ele>1422</ele>
      </trkpt>
      <trkpt lat="43.85494" lon="6.27492">
        <ele>1421</ele>
      </trkpt>
      <trkpt lat="43.85519" lon="6.27476">
        <ele>1419</ele>
      </trkpt>
      <trkpt lat="43.85528" lon="6.27472">
        <ele>1418</ele>
      </trkpt>
      <trkpt lat="43.85537" lon="6.27467">
        <ele>1418</ele>
      </trkpt>
      <trkpt lat="43.85554" lon="6.27449">
        <ele>1415</ele>
      </trkpt>
      <trkpt lat="43.85576" lon="6.27432">
        <ele>1412</ele>
      </trkpt>
      <trkpt lat="43.85585" lon="6.27424">
        <ele>1410</ele>
      </trkpt>
      <trkpt lat="43.85603" lon="6.27405">
        <ele>1407</ele>
      </trkpt>
      <trkpt lat="43.85614" lon="6.27396">
        <ele>1405</ele>
      </trkpt>
      <trkpt lat="43.85629" lon="6.27384">
        <ele>1403</ele>
      </trkpt>
      <trkpt lat="43.8563" lon="6.27378">
        <ele>1402</ele>
      </trkpt>
      <trkpt lat="43.85629" lon="6.27376">
        <ele>1402</ele>
      </trkpt>
      <trkpt lat="43.85629" lon="6.27376">
        <ele>1402</ele>
      </trkpt>
      <trkpt lat="43.85629" lon="6.27362">
        <ele>1399</ele>
      </trkpt>
      <trkpt lat="43.85628" lon="6.27348">
        <ele>1397</ele>
      </trkpt>
      <trkpt lat="43.85635" lon="6.27337">
        <ele>1396</ele>
      </trkpt>
      <trkpt lat="43.85651" lon="6.27322">
        <ele>1394</ele>
      </trkpt>
      <trkpt lat="43.85667" lon="6.27316">
        <ele>1392</ele>
      </trkpt>
      <trkpt lat="43.85669" lon="6.27316">
        <ele>1392</ele>
      </trkpt>
      <trkpt lat="43.85679" lon="6.27315">
        <ele>1391</ele>
      </trkpt>
      <trkpt lat="43.85692" lon="6.27312">
        <ele>1391</ele>
      </trkpt>
      <trkpt lat="43.8571" lon="6.27302">
        <ele>1389</ele>
      </trkpt>
      <trkpt lat="43.8572" lon="6.27296">
        <ele>1388</ele>
      </trkpt>
      <trkpt lat="43.85727" lon="6.27294">
        <ele>1388</ele>
      </trkpt>
      <trkpt lat="43.85734" lon="6.27287">
        <ele>1388</ele>
      </trkpt>
      <trkpt lat="43.85743" lon="6.27282">
        <ele>1387</ele>
      </trkpt>
      <trkpt lat="43.85747" lon="6.27271">
        <ele>1386</ele>
      </trkpt>
      <trkpt lat="43.85746" lon="6.27265">
        <ele>1385</ele>
      </trkpt>
      <trkpt lat="43.85746" lon="6.27261">
        <ele>1384</ele>
      </trkpt>
      <trkpt lat="43.85746" lon="6.27259">
        <ele>1384</ele>
      </trkpt>
      <trkpt lat="43.85745" lon="6.27256">
        <ele>1383</ele>
      </trkpt>
      <trkpt lat="43.85746" lon="6.27253">
        <ele>1383</ele>
      </trkpt>
      <trkpt lat="43.85749" lon="6.27248">
        <ele>1382</ele>
      </trkpt>
      <trkpt lat="43.85759" lon="6.27234">
        <ele>1381</ele>
      </trkpt>
      <trkpt lat="43.85774" lon="6.27221">
        <ele>1381</ele>
      </trkpt>
      <trkpt lat="43.85785" lon="6.27211">
        <ele>1381</ele>
      </trkpt>
      <trkpt lat="43.85792" lon="6.27207">
        <ele>1381</ele>
      </trkpt>
      <trkpt lat="43.858" lon="6.27197">
        <ele>1380</ele>
      </trkpt>
      <trkpt lat="43.85801" lon="6.27196">
        <ele>1380</ele>
      </trkpt>
      <trkpt lat="43.85802" lon="6.27195">
        <ele>1380</ele>
      </trkpt>
      <trkpt lat="43.85806" lon="6.27192">
        <ele>1380</ele>
      </trkpt>
      <trkpt lat="43.85809" lon="6.27181">
        <ele>1378</ele>
      </trkpt>
      <trkpt lat="43.85813" lon="6.27176">
        <ele>1378</ele>
      </trkpt>
      <trkpt lat="43.85813" lon="6.27176">
        <ele>1378</ele>
      </trkpt>
      <trkpt lat="43.85815" lon="6.27173">
        <ele>1377</ele>
      </trkpt>
      <trkpt lat="43.85819" lon="6.27165">
        <ele>1377</ele>
      </trkpt>
      <trkpt lat="43.8582" lon="6.27156">
        <ele>1375</ele>
      </trkpt>
      <trkpt lat="43.85821" lon="6.27148">
        <ele>1374</ele>
      </trkpt>
      <trkpt lat="43.85825" lon="6.27132">
        <ele>1373</ele>
      </trkpt>
      <trkpt lat="43.85826" lon="6.27131">
        <ele>1372</ele>
      </trkpt>
      <trkpt lat="43.85832" lon="6.27124">
        <ele>1372</ele>
      </trkpt>
      <trkpt lat="43.85834" lon="6.2712">
        <ele>1372</ele>
      </trkpt>
      <trkpt lat="43.85832" lon="6.27106">
        <ele>1370</ele>
      </trkpt>
      <trkpt lat="43.85832" lon="6.27086">
        <ele>1366</ele>
      </trkpt>
      <trkpt lat="43.85833" lon="6.27066">
        <ele>1363</ele>
      </trkpt>
      <trkpt lat="43.8583" lon="6.27048">
        <ele>1361</ele>
      </trkpt>
      <trkpt lat="43.85826" lon="6.2704">
        <ele>1360</ele>
      </trkpt>
      <trkpt lat="43.85829" lon="6.27027">
        <ele>1359</ele>
      </trkpt>
      <trkpt lat="43.85829" lon="6.27022">
        <ele>1359</ele>
      </trkpt>
      <trkpt lat="43.85828" lon="6.2701">
        <ele>1358</ele>
      </trkpt>
      <trkpt lat="43.85823" lon="6.26977">
        <ele>1354</ele>
      </trkpt>
      <trkpt lat="43.85829" lon="6.26964">
        <ele>1353</ele>
      </trkpt>
      <trkpt lat="43.85842" lon="6.26954">
        <ele>1353</ele>
      </trkpt>
      <trkpt lat="43.85848" lon="6.26951">
        <ele>1353</ele>
      </trkpt>
      <trkpt lat="43.85857" lon="6.26945">
        <ele>1352</ele>
      </trkpt>
      <trkpt lat="43.85878" lon="6.26932">
        <ele>1353</ele>
      </trkpt>
      <trkpt lat="43.85894" lon="6.2692">
        <ele>1353</ele>
      </trkpt>
      <trkpt lat="43.85901" lon="6.26914">
        <ele>1353</ele>
      </trkpt>
      <trkpt lat="43.85914" lon="6.2691">
        <ele>1354</ele>
      </trkpt>
      <trkpt lat="43.85915" lon="6.26909">
        <ele>1354</ele>
      </trkpt>
      <trkpt lat="43.85919" lon="6.26908">
        <ele>1354</ele>
      </trkpt>
      <trkpt lat="43.85919" lon="6.26907">
        <ele>1354</ele>
      </trkpt>
      <trkpt lat="43.85923" lon="6.26904">
        <ele>1354</ele>
      </trkpt>
      <trkpt lat="43.85926" lon="6.26897">
        <ele>1353</ele>
      </trkpt>
      <trkpt lat="43.85926" lon="6.26895">
        <ele>1353</ele>
      </trkpt>
      <trkpt lat="43.85927" lon="6.26888">
        <ele>1352</ele>
      </trkpt>
      <trkpt lat="43.85927" lon="6.26878">
        <ele>1349</ele>
      </trkpt>
      <trkpt lat="43.85928" lon="6.26874">
        <ele>1349</ele>
      </trkpt>
      <trkpt lat="43.85929" lon="6.26857">
        <ele>1346</ele>
      </trkpt>
      <trkpt lat="43.85929" lon="6.26852">
        <ele>1345</ele>
      </trkpt>
      <trkpt lat="43.85925" lon="6.26835">
        <ele>1340</ele>
      </trkpt>
      <trkpt lat="43.85919" lon="6.2682">
        <ele>1335</ele>
      </trkpt>
      <trkpt lat="43.85914" lon="6.26811">
        <ele>1335</ele>
      </trkpt>
      <trkpt lat="43.85912" lon="6.26808">
        <ele>1335</ele>
      </trkpt>
      <trkpt lat="43.85911" lon="6.26805">
        <ele>1335</ele>
      </trkpt>
      <trkpt lat="43.85911" lon="6.26796">
        <ele>1333</ele>
      </trkpt>
      <trkpt lat="43.85909" lon="6.26789">
        <ele>1332</ele>
      </trkpt>
      <trkpt lat="43.85904" lon="6.26783">
        <ele>1331</ele>
      </trkpt>
      <trkpt lat="43.85894" lon="6.26772">
        <ele>1329</ele>
      </trkpt>
      <trkpt lat="43.85892" lon="6.26767">
        <ele>1328</ele>
      </trkpt>
      <trkpt lat="43.85886" lon="6.26751">
        <ele>1323</ele>
      </trkpt>
      <trkpt lat="43.85876" lon="6.26731">
        <ele>1319</ele>
      </trkpt>
      <trkpt lat="43.85871" lon="6.2672">
        <ele>1318</ele>
      </trkpt>
      <trkpt lat="43.85865" lon="6.26698">
        <ele>1315</ele>
      </trkpt>
      <trkpt lat="43.85858" lon="6.26674">
        <ele>1310</ele>
      </trkpt>
      <trkpt lat="43.85856" lon="6.26666">
        <ele>1308</ele>
      </trkpt>
      <trkpt lat="43.85859" lon="6.26662">
        <ele>1307</ele>
      </trkpt>
      <trkpt lat="43.85866" lon="6.26665">
        <ele>1308</ele>
      </trkpt>
      <trkpt lat="43.85871" lon="6.26669">
        <ele>1309</ele>
      </trkpt>
      <trkpt lat="43.85875" lon="6.26672">
        <ele>1309</ele>
      </trkpt>
      <trkpt lat="43.85883" lon="6.26681">
        <ele>1313</ele>
      </trkpt>
      <trkpt lat="43.85893" lon="6.26679">
        <ele>1317</ele>
      </trkpt>
      <trkpt lat="43.85893" lon="6.26671">
        <ele>1317</ele>
      </trkpt>
      <trkpt lat="43.8589" lon="6.26657">
        <ele>1314</ele>
      </trkpt>
      <trkpt lat="43.85889" lon="6.2665">
        <ele>1312</ele>
      </trkpt>
      <trkpt lat="43.85888" lon="6.26648">
        <ele>1311</ele>
      </trkpt>
      <trkpt lat="43.85885" lon="6.26643">
        <ele>1309</ele>
      </trkpt>
      <trkpt lat="43.85884" lon="6.26633">
        <ele>1307</ele>
      </trkpt>
      <trkpt lat="43.85882" lon="6.26616">
        <ele>1302</ele>
      </trkpt>
      <trkpt lat="43.85879" lon="6.2661">
        <ele>1299</ele>
      </trkpt>
      <trkpt lat="43.85877" lon="6.26609">
        <ele>1299</ele>
      </trkpt>
      <trkpt lat="43.8587" lon="6.26592">
        <ele>1293</ele>
      </trkpt>
      <trkpt lat="43.85866" lon="6.2657">
        <ele>1287</ele>
      </trkpt>
      <trkpt lat="43.85865" lon="6.26568">
        <ele>1286</ele>
      </trkpt>
      <trkpt lat="43.8586" lon="6.26563">
        <ele>1284</ele>
      </trkpt>
      <trkpt lat="43.85849" lon="6.26539">
        <ele>1279</ele>
      </trkpt>
      <trkpt lat="43.85847" lon="6.26534">
        <ele>1278</ele>
      </trkpt>
      <trkpt lat="43.85842" lon="6.26518">
        <ele>1274</ele>
      </trkpt>
      <trkpt lat="43.85839" lon="6.26503">
        <ele>1272</ele>
      </trkpt>
      <trkpt lat="43.85836" lon="6.26486">
        <ele>1271</ele>
      </trkpt>
      <trkpt lat="43.85833" lon="6.2647">
        <ele>1269</ele>
      </trkpt>
      <trkpt lat="43.85829" lon="6.26454">
        <ele>1266</ele>
      </trkpt>
      <trkpt lat="43.85826" lon="6.26444">
        <ele>1263</ele>
      </trkpt>
      <trkpt lat="43.85819" lon="6.26429">
        <ele>1260</ele>
      </trkpt>
      <trkpt lat="43.85818" lon="6.26427">
        <ele>1259</ele>
      </trkpt>
      <trkpt lat="43.85809" lon="6.26412">
        <ele>1254</ele>
      </trkpt>
      <trkpt lat="43.85803" lon="6.26404">
        <ele>1251</ele>
      </trkpt>
      <trkpt lat="43.85797" lon="6.26379">
        <ele>1246</ele>
      </trkpt>
      <trkpt lat="43.85796" lon="6.26364">
        <ele>1246</ele>
      </trkpt>
      <trkpt lat="43.85792" lon="6.26334">
        <ele>1246</ele>
      </trkpt>
      <trkpt lat="43.85786" lon="6.26305">
        <ele>1244</ele>
      </trkpt>
      <trkpt lat="43.85781" lon="6.26283">
        <ele>1240</ele>
      </trkpt>
      <trkpt lat="43.85777" lon="6.26261">
        <ele>1238</ele>
      </trkpt>
      <trkpt lat="43.85771" lon="6.26247">
        <ele>1234</ele>
      </trkpt>
      <trkpt lat="43.85763" lon="6.26227">
        <ele>1230</ele>
      </trkpt>
      <trkpt lat="43.85757" lon="6.26215">
        <ele>1228</ele>
      </trkpt>
      <trkpt lat="43.85755" lon="6.26202">
        <ele>1227</ele>
      </trkpt>
      <trkpt lat="43.85751" lon="6.26183">
        <ele>1227</ele>
      </trkpt>
      <trkpt lat="43.85751" lon="6.26176">
        <ele>1226</ele>
      </trkpt>
      <trkpt lat="43.85752" lon="6.26163">
        <ele>1225</ele>
      </trkpt>
      <trkpt lat="43.85759" lon="6.26148">
        <ele>1226</ele>
      </trkpt>
      <trkpt lat="43.85768" lon="6.26131">
        <ele>1227</ele>
      </trkpt>
      <trkpt lat="43.85774" lon="6.26121">
        <ele>1227</ele>
      </trkpt>
      <trkpt lat="43.85786" lon="6.26105">
        <ele>1224</ele>
      </trkpt>
      <trkpt lat="43.85796" lon="6.26092">
        <ele>1223</ele>
      </trkpt>
      <trkpt lat="43.85806" lon="6.26077">
        <ele>1220</ele>
      </trkpt>
      <trkpt lat="43.85814" lon="6.26064">
        <ele>1217</ele>
      </trkpt>
      <trkpt lat="43.85827" lon="6.26048">
        <ele>1212</ele>
      </trkpt>
      <trkpt lat="43.85843" lon="6.2603">
        <ele>1207</ele>
      </trkpt>
      <trkpt lat="43.85852" lon="6.26024">
        <ele>1206</ele>
      </trkpt>
      <trkpt lat="43.85854" lon="6.26021">
        <ele>1205</ele>
      </trkpt>
      <trkpt lat="43.85853" lon="6.26021">
        <ele>1205</ele>
      </trkpt>
      <trkpt lat="43.85841" lon="6.26021">
        <ele>1204</ele>
      </trkpt>
      <trkpt lat="43.85829" lon="6.26021">
        <ele>1203</ele>
      </trkpt>
      <trkpt lat="43.85818" lon="6.26021">
        <ele>1202</ele>
      </trkpt>
      <trkpt lat="43.85804" lon="6.26022">
        <ele>1200</ele>
      </trkpt>
      <trkpt lat="43.85793" lon="6.26023">
        <ele>1198</ele>
      </trkpt>
      <trkpt lat="43.85783" lon="6.26028">
        <ele>1198</ele>
      </trkpt>
      <trkpt lat="43.85774" lon="6.26032">
        <ele>1197</ele>
      </trkpt>
      <trkpt lat="43.85768" lon="6.26034">
        <ele>1197</ele>
      </trkpt>
      <trkpt lat="43.85759" lon="6.26036">
        <ele>1195</ele>
      </trkpt>
      <trkpt lat="43.85756" lon="6.26031">
        <ele>1192</ele>
      </trkpt>
      <trkpt lat="43.85762" lon="6.2602">
        <ele>1190</ele>
      </trkpt>
      <trkpt lat="43.85774" lon="6.26006">
        <ele>1188</ele>
      </trkpt>
      <trkpt lat="43.85785" lon="6.25995">
        <ele>1186</ele>
      </trkpt>
      <trkpt lat="43.85797" lon="6.25977">
        <ele>1182</ele>
      </trkpt>
      <trkpt lat="43.8581" lon="6.25967">
        <ele>1181</ele>
      </trkpt>
      <trkpt lat="43.85821" lon="6.25958">
        <ele>1178</ele>
      </trkpt>
      <trkpt lat="43.85827" lon="6.25953">
        <ele>1176</ele>
      </trkpt>
      <trkpt lat="43.85838" lon="6.2594">
        <ele>1170</ele>
      </trkpt>
      <trkpt lat="43.85843" lon="6.25936">
        <ele>1168</ele>
      </trkpt>
      <trkpt lat="43.85837" lon="6.25931">
        <ele>1167</ele>
      </trkpt>
      <trkpt lat="43.85822" lon="6.25929">
        <ele>1167</ele>
      </trkpt>
      <trkpt lat="43.85809" lon="6.25925">
        <ele>1165</ele>
      </trkpt>
      <trkpt lat="43.85803" lon="6.25924">
        <ele>1164</ele>
      </trkpt>
      <trkpt lat="43.85798" lon="6.25922">
        <ele>1163</ele>
      </trkpt>
      <trkpt lat="43.85792" lon="6.25913">
        <ele>1159</ele>
      </trkpt>
      <trkpt lat="43.85798" lon="6.259">
        <ele>1155</ele>
      </trkpt>
      <trkpt lat="43.85802" lon="6.25886">
        <ele>1150</ele>
      </trkpt>
      <trkpt lat="43.85803" lon="6.25868">
        <ele>1146</ele>
      </trkpt>
      <trkpt lat="43.85794" lon="6.2586">
        <ele>1143</ele>
      </trkpt>
      <trkpt lat="43.85792" lon="6.25858">
        <ele>1143</ele>
      </trkpt>
      <trkpt lat="43.85784" lon="6.2584">
        <ele>1138</ele>
      </trkpt>
      <trkpt lat="43.85781" lon="6.25835">
        <ele>1137</ele>
      </trkpt>
      <trkpt lat="43.85773" lon="6.25819">
        <ele>1133</ele>
      </trkpt>
      <trkpt lat="43.85768" lon="6.25806">
        <ele>1129</ele>
      </trkpt>
      <trkpt lat="43.85762" lon="6.25786">
        <ele>1126</ele>
      </trkpt>
      <trkpt lat="43.85759" lon="6.25755">
        <ele>1123</ele>
      </trkpt>
      <trkpt lat="43.85754" lon="6.25714">
        <ele>1118</ele>
      </trkpt>
      <trkpt lat="43.85747" lon="6.25692">
        <ele>1115</ele>
      </trkpt>
      <trkpt lat="43.85742" lon="6.25671">
        <ele>1110</ele>
      </trkpt>
      <trkpt lat="43.85728" lon="6.2565">
        <ele>1102</ele>
      </trkpt>
      <trkpt lat="43.85704" lon="6.2564">
        <ele>1094</ele>
      </trkpt>
      <trkpt lat="43.85688" lon="6.25622">
        <ele>1089</ele>
      </trkpt>
      <trkpt lat="43.85685" lon="6.25617">
        <ele>1088</ele>
      </trkpt>
      <trkpt lat="43.85675" lon="6.25602">
        <ele>1084</ele>
      </trkpt>
      <trkpt lat="43.85673" lon="6.25601">
        <ele>1084</ele>
      </trkpt>
      <trkpt lat="43.85674" lon="6.25602">
        <ele>1084</ele>
      </trkpt>
      <trkpt lat="43.85661" lon="6.25594">
        <ele>1081</ele>
      </trkpt>
      <trkpt lat="43.85644" lon="6.25582">
        <ele>1078</ele>
      </trkpt>
      <trkpt lat="43.85635" lon="6.25584">
        <ele>1078</ele>
      </trkpt>
      <trkpt lat="43.85618" lon="6.25592">
        <ele>1078</ele>
      </trkpt>
      <trkpt lat="43.85604" lon="6.25597">
        <ele>1077</ele>
      </trkpt>
      <trkpt lat="43.85587" lon="6.25602">
        <ele>1077</ele>
      </trkpt>
      <trkpt lat="43.8557" lon="6.25605">
        <ele>1077</ele>
      </trkpt>
      <trkpt lat="43.85558" lon="6.25608">
        <ele>1076</ele>
      </trkpt>
      <trkpt lat="43.85543" lon="6.25612">
        <ele>1075</ele>
      </trkpt>
      <trkpt lat="43.85519" lon="6.25607">
        <ele>1074</ele>
      </trkpt>
      <trkpt lat="43.85489" lon="6.25595">
        <ele>1073</ele>
      </trkpt>
      <trkpt lat="43.85475" lon="6.25591">
        <ele>1073</ele>
      </trkpt>
      <trkpt lat="43.85464" lon="6.25585">
        <ele>1073</ele>
      </trkpt>
      <trkpt lat="43.85446" lon="6.25577">
        <ele>1072</ele>
      </trkpt>
      <trkpt lat="43.85423" lon="6.25575">
        <ele>1069</ele>
      </trkpt>
      <trkpt lat="43.85417" lon="6.25574">
        <ele>1069</ele>
      </trkpt>
      <trkpt lat="43.8539" lon="6.25574">
        <ele>1066</ele>
      </trkpt>
      <trkpt lat="43.85376" lon="6.25562">
        <ele>1066</ele>
      </trkpt>
      <trkpt lat="43.85371" lon="6.25556">
        <ele>1067</ele>
      </trkpt>
      <trkpt lat="43.85369" lon="6.25554">
        <ele>1068</ele>
      </trkpt>
      <trkpt lat="43.8537" lon="6.25541">
        <ele>1070</ele>
      </trkpt>
      <trkpt lat="43.85371" lon="6.25532">
        <ele>1071</ele>
      </trkpt>
      <trkpt lat="43.85369" lon="6.25513">
        <ele>1071</ele>
      </trkpt>
      <trkpt lat="43.85358" lon="6.2548">
        <ele>1070</ele>
      </trkpt>
      <trkpt lat="43.85356" lon="6.25474">
        <ele>1070</ele>
      </trkpt>
      <trkpt lat="43.85349" lon="6.25452">
        <ele>1066</ele>
      </trkpt>
      <trkpt lat="43.85335" lon="6.25428">
        <ele>1059</ele>
      </trkpt>
      <trkpt lat="43.8532" lon="6.2541">
        <ele>1056</ele>
      </trkpt>
      <trkpt lat="43.8531" lon="6.25399">
        <ele>1054</ele>
      </trkpt>
      <trkpt lat="43.85299" lon="6.25387">
        <ele>1050</ele>
      </trkpt>
      <trkpt lat="43.85292" lon="6.25377">
        <ele>1047</ele>
      </trkpt>
      <trkpt lat="43.85274" lon="6.2535">
        <ele>1042</ele>
      </trkpt>
      <trkpt lat="43.8526" lon="6.25326">
        <ele>1039</ele>
      </trkpt>
      <trkpt lat="43.85252" lon="6.25294">
        <ele>1034</ele>
      </trkpt>
      <trkpt lat="43.85251" lon="6.25286">
        <ele>1032</ele>
      </trkpt>
      <trkpt lat="43.85241" lon="6.25252">
        <ele>1030</ele>
      </trkpt>
      <trkpt lat="43.85236" lon="6.25234">
        <ele>1028</ele>
      </trkpt>
      <trkpt lat="43.85228" lon="6.25213">
        <ele>1026</ele>
      </trkpt>
      <trkpt lat="43.85224" lon="6.25193">
        <ele>1024</ele>
      </trkpt>
      <trkpt lat="43.85221" lon="6.25179">
        <ele>1022</ele>
      </trkpt>
      <trkpt lat="43.85221" lon="6.25158">
        <ele>1019</ele>
      </trkpt>
      <trkpt lat="43.85215" lon="6.25127">
        <ele>1013</ele>
      </trkpt>
      <trkpt lat="43.85206" lon="6.25109">
        <ele>1011</ele>
      </trkpt>
      <trkpt lat="43.85192" lon="6.25078">
        <ele>1008</ele>
      </trkpt>
      <trkpt lat="43.85183" lon="6.2504">
        <ele>1003</ele>
      </trkpt>
      <trkpt lat="43.85177" lon="6.25022">
        <ele>1000</ele>
      </trkpt>
      <trkpt lat="43.85164" lon="6.24999">
        <ele>1000</ele>
      </trkpt>
      <trkpt lat="43.8515" lon="6.24971">
        <ele>998</ele>
      </trkpt>
      <trkpt lat="43.85134" lon="6.24946">
        <ele>996</ele>
      </trkpt>
      <trkpt lat="43.85123" lon="6.24924">
        <ele>994</ele>
      </trkpt>
      <trkpt lat="43.85106" lon="6.24906">
        <ele>992</ele>
      </trkpt>
      <trkpt lat="43.85077" lon="6.24881">
        <ele>989</ele>
      </trkpt>
      <trkpt lat="43.85063" lon="6.24879">
        <ele>989</ele>
      </trkpt>
      <trkpt lat="43.85051" lon="6.24868">
        <ele>988</ele>
      </trkpt>
      <trkpt lat="43.85045" lon="6.24862">
        <ele>987</ele>
      </trkpt>
      <trkpt lat="43.85036" lon="6.24854">
        <ele>986</ele>
      </trkpt>
      <trkpt lat="43.85036" lon="6.24854">
        <ele>986</ele>
      </trkpt>
      <trkpt lat="43.85038" lon="6.24842">
        <ele>984</ele>
      </trkpt>
      <trkpt lat="43.85032" lon="6.24836">
        <ele>983</ele>
      </trkpt>
      <trkpt lat="43.85019" lon="6.24821">
        <ele>981</ele>
      </trkpt>
      <trkpt lat="43.85002" lon="6.24807">
        <ele>980</ele>
      </trkpt>
      <trkpt lat="43.84983" lon="6.24789">
        <ele>978</ele>
      </trkpt>
      <trkpt lat="43.84959" lon="6.24738">
        <ele>975</ele>
      </trkpt>
      <trkpt lat="43.84958" lon="6.24736">
        <ele>975</ele>
      </trkpt>
      <trkpt lat="43.84958" lon="6.24736">
        <ele>975</ele>
      </trkpt>
      <trkpt lat="43.84957" lon="6.24737">
        <ele>975</ele>
      </trkpt>
      <trkpt lat="43.84957" lon="6.24735">
        <ele>975</ele>
      </trkpt>
      <trkpt lat="43.84956" lon="6.24732">
        <ele>975</ele>
      </trkpt>
      <trkpt lat="43.84953" lon="6.2473">
        <ele>975</ele>
      </trkpt>
      <trkpt lat="43.84952" lon="6.2473">
        <ele>975</ele>
      </trkpt>
      <trkpt lat="43.84953" lon="6.24729">
        <ele>975</ele>
      </trkpt>
      <trkpt lat="43.84953" lon="6.24729">
        <ele>975</ele>
      </trkpt>
      <trkpt lat="43.84963" lon="6.24722">
        <ele>974</ele>
      </trkpt>
      <trkpt lat="43.84983" lon="6.2471">
        <ele>972</ele>
      </trkpt>
      <trkpt lat="43.85017" lon="6.24687">
        <ele>970</ele>
      </trkpt>
      <trkpt lat="43.85049" lon="6.24668">
        <ele>969</ele>
      </trkpt>
      <trkpt lat="43.85067" lon="6.24655">
        <ele>968</ele>
      </trkpt>
      <trkpt lat="43.85096" lon="6.24637">
        <ele>966</ele>
      </trkpt>
      <trkpt lat="43.85115" lon="6.24625">
        <ele>966</ele>
      </trkpt>
      <trkpt lat="43.85129" lon="6.24612">
        <ele>966</ele>
      </trkpt>
      <trkpt lat="43.85137" lon="6.24606">
        <ele>966</ele>
      </trkpt>
      <trkpt lat="43.85159" lon="6.24586">
        <ele>966</ele>
      </trkpt>
      <trkpt lat="43.85184" lon="6.24564">
        <ele>967</ele>
      </trkpt>
      <trkpt lat="43.85207" lon="6.24544">
        <ele>968</ele>
      </trkpt>
      <trkpt lat="43.8523" lon="6.24532">
        <ele>969</ele>
      </trkpt>
      <trkpt lat="43.8525" lon="6.2452">
        <ele>969</ele>
      </trkpt>
      <trkpt lat="43.85274" lon="6.24506">
        <ele>970</ele>
      </trkpt>
      <trkpt lat="43.85282" lon="6.245">
        <ele>970</ele>
      </trkpt>
      <trkpt lat="43.85309" lon="6.2448">
        <ele>970</ele>
      </trkpt>
      <trkpt lat="43.85317" lon="6.24476">
        <ele>970</ele>
      </trkpt>
      <trkpt lat="43.85329" lon="6.24467">
        <ele>969</ele>
      </trkpt>
      <trkpt lat="43.85361" lon="6.24451">
        <ele>966</ele>
      </trkpt>
      <trkpt lat="43.8541" lon="6.24426">
        <ele>960</ele>
      </trkpt>
      <trkpt lat="43.85437" lon="6.24424">
        <ele>959</ele>
      </trkpt>
      <trkpt lat="43.85443" lon="6.24427">
        <ele>959</ele>
      </trkpt>
      <trkpt lat="43.85457" lon="6.24433">
        <ele>958</ele>
      </trkpt>
      <trkpt lat="43.8549" lon="6.24451">
        <ele>959</ele>
      </trkpt>
      <trkpt lat="43.85522" lon="6.24453">
        <ele>960</ele>
      </trkpt>
      <trkpt lat="43.85536" lon="6.24446">
        <ele>960</ele>
      </trkpt>
      <trkpt lat="43.85539" lon="6.24444">
        <ele>960</ele>
      </trkpt>
      <trkpt lat="43.85558" lon="6.24439">
        <ele>960</ele>
      </trkpt>
      <trkpt lat="43.85576" lon="6.24438">
        <ele>959</ele>
      </trkpt>
      <trkpt lat="43.85616" lon="6.24449">
        <ele>959</ele>
      </trkpt>
      <trkpt lat="43.85658" lon="6.24453">
        <ele>961</ele>
      </trkpt>
      <trkpt lat="43.85669" lon="6.24451">
        <ele>961</ele>
      </trkpt>
      <trkpt lat="43.85679" lon="6.2444">
        <ele>962</ele>
      </trkpt>
      <trkpt lat="43.85679" lon="6.24426">
        <ele>962</ele>
      </trkpt>
      <trkpt lat="43.8567" lon="6.24409">
        <ele>962</ele>
      </trkpt>
      <trkpt lat="43.85658" lon="6.24387">
        <ele>961</ele>
      </trkpt>
      <trkpt lat="43.85645" lon="6.24361">
        <ele>960</ele>
      </trkpt>
      <trkpt lat="43.85634" lon="6.24334">
        <ele>959</ele>
      </trkpt>
      <trkpt lat="43.85616" lon="6.24292">
        <ele>957</ele>
      </trkpt>
      <trkpt lat="43.85611" lon="6.2428">
        <ele>957</ele>
      </trkpt>
      <trkpt lat="43.85609" lon="6.24257">
        <ele>957</ele>
      </trkpt>
      <trkpt lat="43.85613" lon="6.24249">
        <ele>957</ele>
      </trkpt>
      <trkpt lat="43.8564" lon="6.24215">
        <ele>959</ele>
      </trkpt>
      <trkpt lat="43.85646" lon="6.24196">
        <ele>959</ele>
      </trkpt>
      <trkpt lat="43.85642" lon="6.2418">
        <ele>960</ele>
      </trkpt>
      <trkpt lat="43.85632" lon="6.24172">
        <ele>961</ele>
      </trkpt>
      <trkpt lat="43.85618" lon="6.24153">
        <ele>963</ele>
      </trkpt>
      <trkpt lat="43.85612" lon="6.2413">
        <ele>965</ele>
      </trkpt>
      <trkpt lat="43.85613" lon="6.24101">
        <ele>968</ele>
      </trkpt>
      <trkpt lat="43.85619" lon="6.24063">
        <ele>970</ele>
      </trkpt>
      <trkpt lat="43.85628" lon="6.24037">
        <ele>972</ele>
      </trkpt>
      <trkpt lat="43.85633" lon="6.24012">
        <ele>973</ele>
      </trkpt>
      <trkpt lat="43.8563" lon="6.23984">
        <ele>974</ele>
      </trkpt>
      <trkpt lat="43.85623" lon="6.23967">
        <ele>975</ele>
      </trkpt>
      <trkpt lat="43.85615" lon="6.23945">
        <ele>977</ele>
      </trkpt>
      <trkpt lat="43.85613" lon="6.23919">
        <ele>978</ele>
      </trkpt>
      <trkpt lat="43.85616" lon="6.2389">
        <ele>980</ele>
      </trkpt>
      <trkpt lat="43.85618" lon="6.23845">
        <ele>982</ele>
      </trkpt>
      <trkpt lat="43.85621" lon="6.23814">
        <ele>982</ele>
      </trkpt>
      <trkpt lat="43.85623" lon="6.2378">
        <ele>982</ele>
      </trkpt>
      <trkpt lat="43.85625" lon="6.23748">
        <ele>982</ele>
      </trkpt>
      <trkpt lat="43.85633" lon="6.23715">
        <ele>982</ele>
      </trkpt>
      <trkpt lat="43.85648" lon="6.23669">
        <ele>982</ele>
      </trkpt>
      <trkpt lat="43.85671" lon="6.23632">
        <ele>984</ele>
      </trkpt>
      <trkpt lat="43.85685" lon="6.23599">
        <ele>984</ele>
      </trkpt>
      <trkpt lat="43.85693" lon="6.23583">
        <ele>985</ele>
      </trkpt>
      <trkpt lat="43.85699" lon="6.23574">
        <ele>985</ele>
      </trkpt>
      <trkpt lat="43.8572" lon="6.2355">
        <ele>986</ele>
      </trkpt>
      <trkpt lat="43.8573" lon="6.23539">
        <ele>985</ele>
      </trkpt>
      <trkpt lat="43.85741" lon="6.23532">
        <ele>986</ele>
      </trkpt>
      <trkpt lat="43.85776" lon="6.23528">
        <ele>986</ele>
      </trkpt>
      <trkpt lat="43.85787" lon="6.23526">
        <ele>985</ele>
      </trkpt>
      <trkpt lat="43.85815" lon="6.23522">
        <ele>983</ele>
      </trkpt>
      <trkpt lat="43.85852" lon="6.23533">
        <ele>980</ele>
      </trkpt>
      <trkpt lat="43.85858" lon="6.23534">
        <ele>980</ele>
      </trkpt>
      <trkpt lat="43.85866" lon="6.23537">
        <ele>979</ele>
      </trkpt>
      <trkpt lat="43.85872" lon="6.23529">
        <ele>976</ele>
      </trkpt>
      <trkpt lat="43.85864" lon="6.23507">
        <ele>973</ele>
      </trkpt>
      <trkpt lat="43.85868" lon="6.23496">
        <ele>970</ele>
      </trkpt>
      <trkpt lat="43.85876" lon="6.23501">
        <ele>970</ele>
      </trkpt>
      <trkpt lat="43.85888" lon="6.23508">
        <ele>969</ele>
      </trkpt>
      <trkpt lat="43.8591" lon="6.23519">
        <ele>967</ele>
      </trkpt>
      <trkpt lat="43.85937" lon="6.23529">
        <ele>963</ele>
      </trkpt>
      <trkpt lat="43.85962" lon="6.23537">
        <ele>960</ele>
      </trkpt>
      <trkpt lat="43.85973" lon="6.23539">
        <ele>958</ele>
      </trkpt>
      <trkpt lat="43.85974" lon="6.23537">
        <ele>957</ele>
      </trkpt>
      <trkpt lat="43.85967" lon="6.23516">
        <ele>955</ele>
      </trkpt>
      <trkpt lat="43.85962" lon="6.23506">
        <ele>954</ele>
      </trkpt>
      <trkpt lat="43.85949" lon="6.23481">
        <ele>951</ele>
      </trkpt>
      <trkpt lat="43.85945" lon="6.23474">
        <ele>950</ele>
      </trkpt>
      <trkpt lat="43.8594" lon="6.23454">
        <ele>948</ele>
      </trkpt>
      <trkpt lat="43.85949" lon="6.23452">
        <ele>946</ele>
      </trkpt>
      <trkpt lat="43.85963" lon="6.23461">
        <ele>947</ele>
      </trkpt>
      <trkpt lat="43.85991" lon="6.23488">
        <ele>950</ele>
      </trkpt>
      <trkpt lat="43.85995" lon="6.23492">
        <ele>951</ele>
      </trkpt>
      <trkpt lat="43.86002" lon="6.23487">
        <ele>953</ele>
      </trkpt>
      <trkpt lat="43.85996" lon="6.23454">
        <ele>949</ele>
      </trkpt>
      <trkpt lat="43.8599" lon="6.23429">
        <ele>947</ele>
      </trkpt>
      <trkpt lat="43.85984" lon="6.23417">
        <ele>945</ele>
      </trkpt>
      <trkpt lat="43.85983" lon="6.23408">
        <ele>945</ele>
      </trkpt>
      <trkpt lat="43.85989" lon="6.23386">
        <ele>943</ele>
      </trkpt>
      <trkpt lat="43.85998" lon="6.23378">
        <ele>944</ele>
      </trkpt>
      <trkpt lat="43.8602" lon="6.23366">
        <ele>943</ele>
      </trkpt>
      <trkpt lat="43.86019" lon="6.23361">
        <ele>942</ele>
      </trkpt>
      <trkpt lat="43.86017" lon="6.23361">
        <ele>942</ele>
      </trkpt>
      <trkpt lat="43.85992" lon="6.23369">
        <ele>942</ele>
      </trkpt>
      <trkpt lat="43.85966" lon="6.23372">
        <ele>940</ele>
      </trkpt>
      <trkpt lat="43.85954" lon="6.23382">
        <ele>940</ele>
      </trkpt>
      <trkpt lat="43.85952" lon="6.23382">
        <ele>939</ele>
      </trkpt>
      <trkpt lat="43.85947" lon="6.23378">
        <ele>940</ele>
      </trkpt>
      <trkpt lat="43.85941" lon="6.23375">
        <ele>940</ele>
      </trkpt>
      <trkpt lat="43.85934" lon="6.23364">
        <ele>940</ele>
      </trkpt>
      <trkpt lat="43.8593" lon="6.23362">
        <ele>940</ele>
      </trkpt>
      <trkpt lat="43.85928" lon="6.23362">
        <ele>940</ele>
      </trkpt>
      <trkpt lat="43.85908" lon="6.23359">
        <ele>940</ele>
      </trkpt>
      <trkpt lat="43.85892" lon="6.23352">
        <ele>940</ele>
      </trkpt>
      <trkpt lat="43.85887" lon="6.23351">
        <ele>940</ele>
      </trkpt>
      <trkpt lat="43.85882" lon="6.23348">
        <ele>940</ele>
      </trkpt>
      <trkpt lat="43.85882" lon="6.23344">
        <ele>939</ele>
      </trkpt>
      <trkpt lat="43.85883" lon="6.23341">
        <ele>939</ele>
      </trkpt>
      <trkpt lat="43.85876" lon="6.23338">
        <ele>938</ele>
      </trkpt>
      <trkpt lat="43.85869" lon="6.23321">
        <ele>938</ele>
      </trkpt>
      <trkpt lat="43.85866" lon="6.23306">
        <ele>938</ele>
      </trkpt>
      <trkpt lat="43.85862" lon="6.233">
        <ele>938</ele>
      </trkpt>
      <trkpt lat="43.8586" lon="6.23294">
        <ele>938</ele>
      </trkpt>
      <trkpt lat="43.85859" lon="6.23289">
        <ele>938</ele>
      </trkpt>
      <trkpt lat="43.85858" lon="6.23281">
        <ele>939</ele>
      </trkpt>
      <trkpt lat="43.85858" lon="6.23275">
        <ele>939</ele>
      </trkpt>
      <trkpt lat="43.85856" lon="6.2327">
        <ele>939</ele>
      </trkpt>
      <trkpt lat="43.85858" lon="6.23266">
        <ele>940</ele>
      </trkpt>
      <trkpt lat="43.85858" lon="6.23263">
        <ele>940</ele>
      </trkpt>
      <trkpt lat="43.8586" lon="6.23261">
        <ele>941</ele>
      </trkpt>
      <trkpt lat="43.8586" lon="6.23257">
        <ele>942</ele>
      </trkpt>
      <trkpt lat="43.8586" lon="6.23253">
        <ele>943</ele>
      </trkpt>
      <trkpt lat="43.85861" lon="6.23251">
        <ele>944</ele>
      </trkpt>
      <trkpt lat="43.8586" lon="6.23248">
        <ele>944</ele>
      </trkpt>
      <trkpt lat="43.85859" lon="6.23247">
        <ele>944</ele>
      </trkpt>
      <trkpt lat="43.85856" lon="6.23242">
        <ele>945</ele>
      </trkpt>
      <trkpt lat="43.85848" lon="6.23233">
        <ele>946</ele>
      </trkpt>
      <trkpt lat="43.85834" lon="6.23222">
        <ele>945</ele>
      </trkpt>
      <trkpt lat="43.85829" lon="6.23218">
        <ele>945</ele>
      </trkpt>
      <trkpt lat="43.85822" lon="6.23203">
        <ele>946</ele>
      </trkpt>
      <trkpt lat="43.85817" lon="6.23192">
        <ele>948</ele>
      </trkpt>
      <trkpt lat="43.85814" lon="6.23183">
        <ele>949</ele>
      </trkpt>
      <trkpt lat="43.85812" lon="6.23177">
        <ele>950</ele>
      </trkpt>
      <trkpt lat="43.85804" lon="6.23161">
        <ele>952</ele>
      </trkpt>
      <trkpt lat="43.85798" lon="6.23153">
        <ele>951</ele>
      </trkpt>
      <trkpt lat="43.85794" lon="6.23146">
        <ele>951</ele>
      </trkpt>
      <trkpt lat="43.85793" lon="6.23141">
        <ele>951</ele>
      </trkpt>
      <trkpt lat="43.85791" lon="6.23135">
        <ele>952</ele>
      </trkpt>
      <trkpt lat="43.85791" lon="6.23126">
        <ele>954</ele>
      </trkpt>
      <trkpt lat="43.85789" lon="6.23117">
        <ele>955</ele>
      </trkpt>
      <trkpt lat="43.85787" lon="6.23107">
        <ele>957</ele>
      </trkpt>
      <trkpt lat="43.85787" lon="6.23104">
        <ele>958</ele>
      </trkpt>
      <trkpt lat="43.85788" lon="6.23095">
        <ele>960</ele>
      </trkpt>
      <trkpt lat="43.85789" lon="6.23082">
        <ele>964</ele>
      </trkpt>
      <trkpt lat="43.85789" lon="6.23075">
        <ele>966</ele>
      </trkpt>
      <trkpt lat="43.85785" lon="6.2307">
        <ele>965</ele>
      </trkpt>
      <trkpt lat="43.85783" lon="6.2306">
        <ele>965</ele>
      </trkpt>
      <trkpt lat="43.8578" lon="6.23053">
        <ele>965</ele>
      </trkpt>
      <trkpt lat="43.85779" lon="6.23047">
        <ele>965</ele>
      </trkpt>
      <trkpt lat="43.85779" lon="6.23046">
        <ele>965</ele>
      </trkpt>
      <trkpt lat="43.85778" lon="6.23041">
        <ele>966</ele>
      </trkpt>
      <trkpt lat="43.8578" lon="6.23034">
        <ele>968</ele>
      </trkpt>
      <trkpt lat="43.8578" lon="6.2303">
        <ele>968</ele>
      </trkpt>
      <trkpt lat="43.85779" lon="6.23028">
        <ele>969</ele>
      </trkpt>
      <trkpt lat="43.85779" lon="6.23027">
        <ele>969</ele>
      </trkpt>
      <trkpt lat="43.85776" lon="6.23022">
        <ele>968</ele>
      </trkpt>
      <trkpt lat="43.85774" lon="6.23013">
        <ele>968</ele>
      </trkpt>
      <trkpt lat="43.85775" lon="6.23002">
        <ele>970</ele>
      </trkpt>
      <trkpt lat="43.85775" lon="6.22992">
        <ele>972</ele>
      </trkpt>
      <trkpt lat="43.85775" lon="6.22982">
        <ele>974</ele>
      </trkpt>
      <trkpt lat="43.85776" lon="6.22974">
        <ele>976</ele>
      </trkpt>
      <trkpt lat="43.85776" lon="6.22971">
        <ele>976</ele>
      </trkpt>
      <trkpt lat="43.85773" lon="6.22961">
        <ele>976</ele>
      </trkpt>
      <trkpt lat="43.85767" lon="6.22952">
        <ele>975</ele>
      </trkpt>
      <trkpt lat="43.85759" lon="6.22945">
        <ele>974</ele>
      </trkpt>
      <trkpt lat="43.85751" lon="6.22934">
        <ele>973</ele>
      </trkpt>
      <trkpt lat="43.85748" lon="6.22932">
        <ele>972</ele>
      </trkpt>
      <trkpt lat="43.85742" lon="6.22924">
        <ele>972</ele>
      </trkpt>
      <trkpt lat="43.8574" lon="6.2292">
        <ele>972</ele>
      </trkpt>
      <trkpt lat="43.85737" lon="6.22912">
        <ele>973</ele>
      </trkpt>
      <trkpt lat="43.85727" lon="6.22897">
        <ele>974</ele>
      </trkpt>
      <trkpt lat="43.85721" lon="6.22886">
        <ele>976</ele>
      </trkpt>
      <trkpt lat="43.85717" lon="6.22875">
        <ele>976</ele>
      </trkpt>
      <trkpt lat="43.85717" lon="6.22869">
        <ele>978</ele>
      </trkpt>
      <trkpt lat="43.85718" lon="6.2287">
        <ele>978</ele>
      </trkpt>
      <trkpt lat="43.85722" lon="6.2287">
        <ele>978</ele>
      </trkpt>
      <trkpt lat="43.85737" lon="6.22872">
        <ele>981</ele>
      </trkpt>
      <trkpt lat="43.8575" lon="6.22873">
        <ele>983</ele>
      </trkpt>
      <trkpt lat="43.85769" lon="6.22873">
        <ele>986</ele>
      </trkpt>
      <trkpt lat="43.85783" lon="6.22875">
        <ele>989</ele>
      </trkpt>
      <trkpt lat="43.85785" lon="6.22875">
        <ele>989</ele>
      </trkpt>
      <trkpt lat="43.85797" lon="6.22877">
        <ele>991</ele>
      </trkpt>
      <trkpt lat="43.85803" lon="6.22878">
        <ele>992</ele>
      </trkpt>
      <trkpt lat="43.85804" lon="6.22865">
        <ele>993</ele>
      </trkpt>
      <trkpt lat="43.858" lon="6.22857">
        <ele>992</ele>
      </trkpt>
      <trkpt lat="43.85778" lon="6.22834">
        <ele>991</ele>
      </trkpt>
      <trkpt lat="43.85765" lon="6.22812">
        <ele>991</ele>
      </trkpt>
      <trkpt lat="43.85756" lon="6.22795">
        <ele>990</ele>
      </trkpt>
      <trkpt lat="43.85749" lon="6.22773">
        <ele>991</ele>
      </trkpt>
      <trkpt lat="43.85736" lon="6.22739">
        <ele>989</ele>
      </trkpt>
      <trkpt lat="43.85723" lon="6.22703">
        <ele>987</ele>
      </trkpt>
      <trkpt lat="43.85722" lon="6.22698">
        <ele>986</ele>
      </trkpt>
      <trkpt lat="43.85708" lon="6.22684">
        <ele>984</ele>
      </trkpt>
      <trkpt lat="43.85704" lon="6.22682">
        <ele>984</ele>
      </trkpt>
      <trkpt lat="43.85693" lon="6.22671">
        <ele>983</ele>
      </trkpt>
      <trkpt lat="43.85684" lon="6.22664">
        <ele>983</ele>
      </trkpt>
      <trkpt lat="43.8566" lon="6.22631">
        <ele>981</ele>
      </trkpt>
      <trkpt lat="43.85653" lon="6.22599">
        <ele>978</ele>
      </trkpt>
      <trkpt lat="43.85654" lon="6.2259">
        <ele>978</ele>
      </trkpt>
      <trkpt lat="43.85657" lon="6.22572">
        <ele>978</ele>
      </trkpt>
      <trkpt lat="43.85659" lon="6.22562">
        <ele>978</ele>
      </trkpt>
      <trkpt lat="43.85658" lon="6.22524">
        <ele>976</ele>
      </trkpt>
      <trkpt lat="43.85655" lon="6.22501">
        <ele>973</ele>
      </trkpt>
      <trkpt lat="43.85659" lon="6.22464">
        <ele>973</ele>
      </trkpt>
      <trkpt lat="43.85672" lon="6.22418">
        <ele>971</ele>
      </trkpt>
      <trkpt lat="43.85681" lon="6.22384">
        <ele>965</ele>
      </trkpt>
      <trkpt lat="43.85692" lon="6.22349">
        <ele>961</ele>
      </trkpt>
      <trkpt lat="43.85708" lon="6.22312">
        <ele>956</ele>
      </trkpt>
      <trkpt lat="43.85719" lon="6.22271">
        <ele>951</ele>
      </trkpt>
      <trkpt lat="43.85725" lon="6.22249">
        <ele>948</ele>
      </trkpt>
      <trkpt lat="43.85731" lon="6.22232">
        <ele>946</ele>
      </trkpt>
      <trkpt lat="43.85738" lon="6.22195">
        <ele>941</ele>
      </trkpt>
      <trkpt lat="43.85739" lon="6.22179">
        <ele>938</ele>
      </trkpt>
      <trkpt lat="43.8574" lon="6.2215">
        <ele>934</ele>
      </trkpt>
      <trkpt lat="43.85753" lon="6.22107">
        <ele>928</ele>
      </trkpt>
      <trkpt lat="43.85759" lon="6.22098">
        <ele>926</ele>
      </trkpt>
      <trkpt lat="43.85775" lon="6.22077">
        <ele>921</ele>
      </trkpt>
      <trkpt lat="43.858" lon="6.22033">
        <ele>921</ele>
      </trkpt>
      <trkpt lat="43.85829" lon="6.21988">
        <ele>917</ele>
      </trkpt>
      <trkpt lat="43.85845" lon="6.21963">
        <ele>915</ele>
      </trkpt>
      <trkpt lat="43.85861" lon="6.21922">
        <ele>908</ele>
      </trkpt>
      <trkpt lat="43.85868" lon="6.21882">
        <ele>901</ele>
      </trkpt>
      <trkpt lat="43.85873" lon="6.21827">
        <ele>895</ele>
      </trkpt>
      <trkpt lat="43.85876" lon="6.21796">
        <ele>893</ele>
      </trkpt>
      <trkpt lat="43.85876" lon="6.21779">
        <ele>892</ele>
      </trkpt>
      <trkpt lat="43.85876" lon="6.2176">
        <ele>892</ele>
      </trkpt>
      <trkpt lat="43.85876" lon="6.21746">
        <ele>892</ele>
      </trkpt>
      <trkpt lat="43.85869" lon="6.21727">
        <ele>896</ele>
      </trkpt>
      <trkpt lat="43.85854" lon="6.2171">
        <ele>901</ele>
      </trkpt>
      <trkpt lat="43.8584" lon="6.21699">
        <ele>905</ele>
      </trkpt>
      <trkpt lat="43.85829" lon="6.21688">
        <ele>907</ele>
      </trkpt>
      <trkpt lat="43.85808" lon="6.21662">
        <ele>909</ele>
      </trkpt>
      <trkpt lat="43.85795" lon="6.21647">
        <ele>909</ele>
      </trkpt>
      <trkpt lat="43.85784" lon="6.21636">
        <ele>909</ele>
      </trkpt>
      <trkpt lat="43.8577" lon="6.2162">
        <ele>908</ele>
      </trkpt>
      <trkpt lat="43.85752" lon="6.21603">
        <ele>906</ele>
      </trkpt>
      <trkpt lat="43.85745" lon="6.21599">
        <ele>906</ele>
      </trkpt>
      <trkpt lat="43.85738" lon="6.21598">
        <ele>906</ele>
      </trkpt>
      <trkpt lat="43.85734" lon="6.21599">
        <ele>906</ele>
      </trkpt>
      <trkpt lat="43.85732" lon="6.21601">
        <ele>907</ele>
      </trkpt>
      <trkpt lat="43.85723" lon="6.21604">
        <ele>908</ele>
      </trkpt>
      <trkpt lat="43.85715" lon="6.216">
        <ele>907</ele>
      </trkpt>
      <trkpt lat="43.85719" lon="6.21594">
        <ele>905</ele>
      </trkpt>
      <trkpt lat="43.85728" lon="6.21582">
        <ele>902</ele>
      </trkpt>
      <trkpt lat="43.85727" lon="6.21576">
        <ele>900</ele>
      </trkpt>
      <trkpt lat="43.85719" lon="6.21573">
        <ele>899</ele>
      </trkpt>
      <trkpt lat="43.85722" lon="6.21569">
        <ele>897</ele>
      </trkpt>
      <trkpt lat="43.85727" lon="6.21566">
        <ele>895</ele>
      </trkpt>
      <trkpt lat="43.85728" lon="6.21563">
        <ele>894</ele>
      </trkpt>
      <trkpt lat="43.85727" lon="6.21562">
        <ele>893</ele>
      </trkpt>
      <trkpt lat="43.85719" lon="6.2156">
        <ele>893</ele>
      </trkpt>
      <trkpt lat="43.85722" lon="6.21552">
        <ele>890</ele>
      </trkpt>
      <trkpt lat="43.85724" lon="6.21551">
        <ele>889</ele>
      </trkpt>
      <trkpt lat="43.85729" lon="6.21551">
        <ele>889</ele>
      </trkpt>
      <trkpt lat="43.8573" lon="6.21551">
        <ele>889</ele>
      </trkpt>
      <trkpt lat="43.85735" lon="6.21551">
        <ele>888</ele>
      </trkpt>
      <trkpt lat="43.85738" lon="6.21549">
        <ele>887</ele>
      </trkpt>
      <trkpt lat="43.85738" lon="6.21548">
        <ele>887</ele>
      </trkpt>
      <trkpt lat="43.85738" lon="6.2154">
        <ele>883</ele>
      </trkpt>
      <trkpt lat="43.85727" lon="6.21528">
        <ele>879</ele>
      </trkpt>
      <trkpt lat="43.8572" lon="6.21525">
        <ele>878</ele>
      </trkpt>
      <trkpt lat="43.85715" lon="6.21525">
        <ele>878</ele>
      </trkpt>
      <trkpt lat="43.857" lon="6.21525">
        <ele>878</ele>
      </trkpt>
      <trkpt lat="43.85697" lon="6.21526">
        <ele>878</ele>
      </trkpt>
      <trkpt lat="43.85681" lon="6.21534">
        <ele>878</ele>
      </trkpt>
      <trkpt lat="43.85673" lon="6.21537">
        <ele>878</ele>
      </trkpt>
      <trkpt lat="43.85657" lon="6.21546">
        <ele>878</ele>
      </trkpt>
      <trkpt lat="43.85639" lon="6.21568">
        <ele>876</ele>
      </trkpt>
      <trkpt lat="43.85632" lon="6.21577">
        <ele>874</ele>
      </trkpt>
      <trkpt lat="43.85614" lon="6.21598">
        <ele>866</ele>
      </trkpt>
      <trkpt lat="43.8559" lon="6.21618">
        <ele>861</ele>
      </trkpt>
      <trkpt lat="43.85579" lon="6.21621">
        <ele>857</ele>
      </trkpt>
      <trkpt lat="43.85564" lon="6.21626">
        <ele>853</ele>
      </trkpt>
      <trkpt lat="43.85561" lon="6.21626">
        <ele>852</ele>
      </trkpt>
      <trkpt lat="43.85545" lon="6.21618">
        <ele>846</ele>
      </trkpt>
      <trkpt lat="43.85539" lon="6.21615">
        <ele>844</ele>
      </trkpt>
      <trkpt lat="43.85521" lon="6.21608">
        <ele>838</ele>
      </trkpt>
      <trkpt lat="43.85519" lon="6.21606">
        <ele>836</ele>
      </trkpt>
      <trkpt lat="43.85515" lon="6.21602">
        <ele>835</ele>
      </trkpt>
      <trkpt lat="43.85512" lon="6.21594">
        <ele>832</ele>
      </trkpt>
      <trkpt lat="43.85498" lon="6.21575">
        <ele>824</ele>
      </trkpt>
      <trkpt lat="43.85485" lon="6.2156">
        <ele>819</ele>
      </trkpt>
      <trkpt lat="43.85482" lon="6.21558">
        <ele>819</ele>
      </trkpt>
      <trkpt lat="43.85473" lon="6.21558">
        <ele>817</ele>
      </trkpt>
      <trkpt lat="43.85467" lon="6.21559">
        <ele>816</ele>
      </trkpt>
      <trkpt lat="43.85465" lon="6.21559">
        <ele>816</ele>
      </trkpt>
      <trkpt lat="43.85455" lon="6.21561">
        <ele>814</ele>
      </trkpt>
      <trkpt lat="43.85436" lon="6.21574">
        <ele>812</ele>
      </trkpt>
      <trkpt lat="43.85428" lon="6.21572">
        <ele>809</ele>
      </trkpt>
      <trkpt lat="43.85405" lon="6.21555">
        <ele>802</ele>
      </trkpt>
      <trkpt lat="43.85394" lon="6.2154">
        <ele>798</ele>
      </trkpt>
      <trkpt lat="43.85391" lon="6.21537">
        <ele>797</ele>
      </trkpt>
      <trkpt lat="43.85388" lon="6.21535">
        <ele>796</ele>
      </trkpt>
      <trkpt lat="43.85365" lon="6.21512">
        <ele>791</ele>
      </trkpt>
      <trkpt lat="43.85351" lon="6.215">
        <ele>787</ele>
      </trkpt>
      <trkpt lat="43.85349" lon="6.21492">
        <ele>787</ele>
      </trkpt>
      <trkpt lat="43.85345" lon="6.21477">
        <ele>785</ele>
      </trkpt>
      <trkpt lat="43.85345" lon="6.21471">
        <ele>784</ele>
      </trkpt>
      <trkpt lat="43.8534" lon="6.21442">
        <ele>781</ele>
      </trkpt>
      <trkpt lat="43.85336" lon="6.21428">
        <ele>779</ele>
      </trkpt>
      <trkpt lat="43.85337" lon="6.21422">
        <ele>778</ele>
      </trkpt>
      <trkpt lat="43.85343" lon="6.21408">
        <ele>778</ele>
      </trkpt>
      <trkpt lat="43.85333" lon="6.21398">
        <ele>774</ele>
      </trkpt>
      <trkpt lat="43.85319" lon="6.21383">
        <ele>771</ele>
      </trkpt>
      <trkpt lat="43.85317" lon="6.2138">
        <ele>770</ele>
      </trkpt>
      <trkpt lat="43.85317" lon="6.2138">
        <ele>770</ele>
      </trkpt>
      <trkpt lat="43.85312" lon="6.21369">
        <ele>769</ele>
      </trkpt>
      <trkpt lat="43.85314" lon="6.2135">
        <ele>767</ele>
      </trkpt>
      <trkpt lat="43.85312" lon="6.21341">
        <ele>766</ele>
      </trkpt>
      <trkpt lat="43.85307" lon="6.21329">
        <ele>764</ele>
      </trkpt>
      <trkpt lat="43.85313" lon="6.21304">
        <ele>762</ele>
      </trkpt>
      <trkpt lat="43.85314" lon="6.21298">
        <ele>761</ele>
      </trkpt>
      <trkpt lat="43.85306" lon="6.21275">
        <ele>756</ele>
      </trkpt>
      <trkpt lat="43.85293" lon="6.21252">
        <ele>749</ele>
      </trkpt>
      <trkpt lat="43.85285" lon="6.21239">
        <ele>746</ele>
      </trkpt>
      <trkpt lat="43.85275" lon="6.21231">
        <ele>742</ele>
      </trkpt>
      <trkpt lat="43.85271" lon="6.21221">
        <ele>740</ele>
      </trkpt>
      <trkpt lat="43.85265" lon="6.21219">
        <ele>739</ele>
      </trkpt>
      <trkpt lat="43.85251" lon="6.21225">
        <ele>736</ele>
      </trkpt>
      <trkpt lat="43.85245" lon="6.2123">
        <ele>735</ele>
      </trkpt>
      <trkpt lat="43.85238" lon="6.21242">
        <ele>733</ele>
      </trkpt>
      <trkpt lat="43.85222" lon="6.21262">
        <ele>729</ele>
      </trkpt>
      <trkpt lat="43.85209" lon="6.21282">
        <ele>725</ele>
      </trkpt>
      <trkpt lat="43.85199" lon="6.21294">
        <ele>722</ele>
      </trkpt>
      <trkpt lat="43.85189" lon="6.21308">
        <ele>718</ele>
      </trkpt>
      <trkpt lat="43.85173" lon="6.21335">
        <ele>713</ele>
      </trkpt>
      <trkpt lat="43.85158" lon="6.21353">
        <ele>707</ele>
      </trkpt>
      <trkpt lat="43.85154" lon="6.21363">
        <ele>706</ele>
      </trkpt>
      <trkpt lat="43.85151" lon="6.21375">
        <ele>705</ele>
      </trkpt>
      <trkpt lat="43.85142" lon="6.21407">
        <ele>701</ele>
      </trkpt>
      <trkpt lat="43.85132" lon="6.21411">
        <ele>698</ele>
      </trkpt>
      <trkpt lat="43.85122" lon="6.21416">
        <ele>694</ele>
      </trkpt>
      <trkpt lat="43.85115" lon="6.21423">
        <ele>694</ele>
      </trkpt>
      <trkpt lat="43.85111" lon="6.21431">
        <ele>695</ele>
      </trkpt>
      <trkpt lat="43.85104" lon="6.21422">
        <ele>691</ele>
      </trkpt>
      <trkpt lat="43.85101" lon="6.2142">
        <ele>690</ele>
      </trkpt>
      <trkpt lat="43.85088" lon="6.21423">
        <ele>687</ele>
      </trkpt>
      <trkpt lat="43.8508" lon="6.21429">
        <ele>686</ele>
      </trkpt>
      <trkpt lat="43.85049" lon="6.21459">
        <ele>682</ele>
      </trkpt>
      <trkpt lat="43.85044" lon="6.21465">
        <ele>682</ele>
      </trkpt>
      <trkpt lat="43.85027" lon="6.21468">
        <ele>676</ele>
      </trkpt>
      <trkpt lat="43.85022" lon="6.21466">
        <ele>674</ele>
      </trkpt>
      <trkpt lat="43.8501" lon="6.21477">
        <ele>672</ele>
      </trkpt>
      <trkpt lat="43.85006" lon="6.2148">
        <ele>671</ele>
      </trkpt>
      <trkpt lat="43.85005" lon="6.21478">
        <ele>670</ele>
      </trkpt>
      <trkpt lat="43.84989" lon="6.21453">
        <ele>664</ele>
      </trkpt>
      <trkpt lat="43.84983" lon="6.21448">
        <ele>663</ele>
      </trkpt>
      <trkpt lat="43.84985" lon="6.21445">
        <ele>663</ele>
      </trkpt>
      <trkpt lat="43.84981" lon="6.21442">
        <ele>662</ele>
      </trkpt>
      <trkpt lat="43.84968" lon="6.21441">
        <ele>659</ele>
      </trkpt>
      <trkpt lat="43.8494" lon="6.21443">
        <ele>654</ele>
      </trkpt>
      <trkpt lat="43.8493" lon="6.21445">
        <ele>653</ele>
      </trkpt>
      <trkpt lat="43.8492" lon="6.21449">
        <ele>651</ele>
      </trkpt>
      <trkpt lat="43.84911" lon="6.21449">
        <ele>650</ele>
      </trkpt>
      <trkpt lat="43.84893" lon="6.21461">
        <ele>648</ele>
      </trkpt>
      <trkpt lat="43.84859" lon="6.21491">
        <ele>643</ele>
      </trkpt>
      <trkpt lat="43.84844" lon="6.21506">
        <ele>640</ele>
      </trkpt>
      <trkpt lat="43.84824" lon="6.21517">
        <ele>638</ele>
      </trkpt>
      <trkpt lat="43.84818" lon="6.21519">
        <ele>637</ele>
      </trkpt>
      <trkpt lat="43.84804" lon="6.21538">
        <ele>634</ele>
      </trkpt>
      <trkpt lat="43.84799" lon="6.21543">
        <ele>632</ele>
      </trkpt>
      <trkpt lat="43.84793" lon="6.21548">
        <ele>631</ele>
      </trkpt>
      <trkpt lat="43.84759" lon="6.21582">
        <ele>624</ele>
      </trkpt>
      <trkpt lat="43.84754" lon="6.21587">
        <ele>623</ele>
      </trkpt>
      <trkpt lat="43.84734" lon="6.2159">
        <ele>620</ele>
      </trkpt>
      <trkpt lat="43.84728" lon="6.21587">
        <ele>620</ele>
      </trkpt>
      <trkpt lat="43.84709" lon="6.21569">
        <ele>621</ele>
      </trkpt>
      <trkpt lat="43.84701" lon="6.21548">
        <ele>622</ele>
      </trkpt>
      <trkpt lat="43.84692" lon="6.21535">
        <ele>620</ele>
      </trkpt>
      <trkpt lat="43.8469" lon="6.21535">
        <ele>620</ele>
      </trkpt>
      <trkpt lat="43.84689" lon="6.21535">
        <ele>620</ele>
      </trkpt>
      <trkpt lat="43.84687" lon="6.21549">
        <ele>618</ele>
      </trkpt>
      <trkpt lat="43.84685" lon="6.21553">
        <ele>618</ele>
      </trkpt>
      <trkpt lat="43.84676" lon="6.2156">
        <ele>615</ele>
      </trkpt>
      <trkpt lat="43.84657" lon="6.21572">
        <ele>610</ele>
      </trkpt>
      <trkpt lat="43.84639" lon="6.21593">
        <ele>602</ele>
      </trkpt>
      <trkpt lat="43.84622" lon="6.21624">
        <ele>594</ele>
      </trkpt>
      <trkpt lat="43.84596" lon="6.2166">
        <ele>586</ele>
      </trkpt>
      <trkpt lat="43.84581" lon="6.21678">
        <ele>582</ele>
      </trkpt>
      <trkpt lat="43.84577" lon="6.21684">
        <ele>580</ele>
      </trkpt>
      <trkpt lat="43.84577" lon="6.21684">
        <ele>580</ele>
      </trkpt>
      <trkpt lat="43.84578" lon="6.21683">
        <ele>580</ele>
      </trkpt>
      <trkpt lat="43.84577" lon="6.21683">
        <ele>580</ele>
      </trkpt>
      <trkpt lat="43.84565" lon="6.21676">
        <ele>580</ele>
      </trkpt>
      <trkpt lat="43.84562" lon="6.21673">
        <ele>580</ele>
      </trkpt>
      <trkpt lat="43.84548" lon="6.21654">
        <ele>580</ele>
      </trkpt>
      <trkpt lat="43.84533" lon="6.21626">
        <ele>580</ele>
      </trkpt>
      <trkpt lat="43.84523" lon="6.21592">
        <ele>580</ele>
      </trkpt>
      <trkpt lat="43.84505" lon="6.21562">
        <ele>577</ele>
      </trkpt>
      <trkpt lat="43.84485" lon="6.21557">
        <ele>575</ele>
      </trkpt>
      <trkpt lat="43.84478" lon="6.21559">
        <ele>574</ele>
      </trkpt>
      <trkpt lat="43.84451" lon="6.2156">
        <ele>573</ele>
      </trkpt>
      <trkpt lat="43.84439" lon="6.21547">
        <ele>572</ele>
      </trkpt>
      <trkpt lat="43.84397" lon="6.21484">
        <ele>572</ele>
      </trkpt>
      <trkpt lat="43.84386" lon="6.21472">
        <ele>572</ele>
      </trkpt>
      <trkpt lat="43.84363" lon="6.21456">
        <ele>572</ele>
      </trkpt>
      <trkpt lat="43.84325" lon="6.21444">
        <ele>572</ele>
      </trkpt>
      <trkpt lat="43.84274" lon="6.21424">
        <ele>573</ele>
      </trkpt>
      <trkpt lat="43.84229" lon="6.21396">
        <ele>574</ele>
      </trkpt>
      <trkpt lat="43.84213" lon="6.21376">
        <ele>574</ele>
      </trkpt>
      <trkpt lat="43.84198" lon="6.21361">
        <ele>574</ele>
      </trkpt>
      <trkpt lat="43.84188" lon="6.21356">
        <ele>574</ele>
      </trkpt>
      <trkpt lat="43.84168" lon="6.21329">
        <ele>573</ele>
      </trkpt>
      <trkpt lat="43.84165" lon="6.21319">
        <ele>573</ele>
      </trkpt>
      <trkpt lat="43.84161" lon="6.21308">
        <ele>572</ele>
      </trkpt>
      <trkpt lat="43.84138" lon="6.2122">
        <ele>566</ele>
      </trkpt>
      <trkpt lat="43.84123" lon="6.2116">
        <ele>563</ele>
      </trkpt>
      <trkpt lat="43.84121" lon="6.21151">
        <ele>562</ele>
      </trkpt>
      <trkpt lat="43.84111" lon="6.21137">
        <ele>561</ele>
      </trkpt>
      <trkpt lat="43.84105" lon="6.21139">
        <ele>560</ele>
      </trkpt>
      <trkpt lat="43.84104" lon="6.21141">
        <ele>560</ele>
      </trkpt>
      <trkpt lat="43.84105" lon="6.21143">
        <ele>560</ele>
      </trkpt>
      <trkpt lat="43.84099" lon="6.21156">
        <ele>559</ele>
      </trkpt>
      <trkpt lat="43.84082" lon="6.2119">
        <ele>558</ele>
      </trkpt>
      <trkpt lat="43.84057" lon="6.21233">
        <ele>557</ele>
      </trkpt>
      <trkpt lat="43.84024" lon="6.21288">
        <ele>555</ele>
      </trkpt>
      <trkpt lat="43.83998" lon="6.2133">
        <ele>554</ele>
      </trkpt>
      <trkpt lat="43.83975" lon="6.21367">
        <ele>554</ele>
      </trkpt>
      <trkpt lat="43.83947" lon="6.21416">
        <ele>553</ele>
      </trkpt>
      <trkpt lat="43.83911" lon="6.21475">
        <ele>551</ele>
      </trkpt>
      <trkpt lat="43.83876" lon="6.21518">
        <ele>549</ele>
      </trkpt>
      <trkpt lat="43.83847" lon="6.2153">
        <ele>547</ele>
      </trkpt>
      <trkpt lat="43.83821" lon="6.21542">
        <ele>546</ele>
      </trkpt>
      <trkpt lat="43.83795" lon="6.21554">
        <ele>546</ele>
      </trkpt>
      <trkpt lat="43.83762" lon="6.21566">
        <ele>545</ele>
      </trkpt>
      <trkpt lat="43.8373" lon="6.21581">
        <ele>544</ele>
      </trkpt>
      <trkpt lat="43.8371" lon="6.21604">
        <ele>543</ele>
      </trkpt>
      <trkpt lat="43.83706" lon="6.21612">
        <ele>543</ele>
      </trkpt>
      <trkpt lat="43.83698" lon="6.21628">
        <ele>542</ele>
      </trkpt>
      <trkpt lat="43.83679" lon="6.21663">
        <ele>542</ele>
      </trkpt>
      <trkpt lat="43.83664" lon="6.21677">
        <ele>542</ele>
      </trkpt>
      <trkpt lat="43.83641" lon="6.21702">
        <ele>541</ele>
      </trkpt>
      <trkpt lat="43.83614" lon="6.2176">
        <ele>540</ele>
      </trkpt>
      <trkpt lat="43.83593" lon="6.2178">
        <ele>540</ele>
      </trkpt>
      <trkpt lat="43.83586" lon="6.21783">
        <ele>540</ele>
      </trkpt>
      <trkpt lat="43.83541" lon="6.21793">
        <ele>539</ele>
      </trkpt>
      <trkpt lat="43.83523" lon="6.21795">
        <ele>539</ele>
      </trkpt>
      <trkpt lat="43.8352" lon="6.21793">
        <ele>538</ele>
      </trkpt>
      <trkpt lat="43.83519" lon="6.21794">
        <ele>538</ele>
      </trkpt>
      <trkpt lat="43.83517" lon="6.21792">
        <ele>538</ele>
      </trkpt>
      <trkpt lat="43.83507" lon="6.2179">
        <ele>538</ele>
      </trkpt>
      <trkpt lat="43.83489" lon="6.21783">
        <ele>537</ele>
      </trkpt>
      <trkpt lat="43.83456" lon="6.21775">
        <ele>537</ele>
      </trkpt>
      <trkpt lat="43.83416" lon="6.21768">
        <ele>536</ele>
      </trkpt>
      <trkpt lat="43.83384" lon="6.21765">
        <ele>535</ele>
      </trkpt>
      <trkpt lat="43.83343" lon="6.21756">
        <ele>535</ele>
      </trkpt>
      <trkpt lat="43.83308" lon="6.2175">
        <ele>535</ele>
      </trkpt>
      <trkpt lat="43.83275" lon="6.21748">
        <ele>535</ele>
      </trkpt>
      <trkpt lat="43.83234" lon="6.21759">
        <ele>534</ele>
      </trkpt>
      <trkpt lat="43.83195" lon="6.21776">
        <ele>533</ele>
      </trkpt>
      <trkpt lat="43.83169" lon="6.21786">
        <ele>533</ele>
      </trkpt>
      <trkpt lat="43.83167" lon="6.21786">
        <ele>533</ele>
      </trkpt>
      <trkpt lat="43.83167" lon="6.21786">
        <ele>533</ele>
      </trkpt>
      <trkpt lat="43.83175" lon="6.2179">
        <ele>533</ele>
      </trkpt>
      <trkpt lat="43.83174" lon="6.21797">
        <ele>532</ele>
      </trkpt>
      <trkpt lat="43.8316" lon="6.21832">
        <ele>530</ele>
      </trkpt>
      <trkpt lat="43.83136" lon="6.21881">
        <ele>529</ele>
      </trkpt>
      <trkpt lat="43.83114" lon="6.2191">
        <ele>528</ele>
      </trkpt>
      <trkpt lat="43.8309" lon="6.21923">
        <ele>527</ele>
      </trkpt>
      <trkpt lat="43.83077" lon="6.21925">
        <ele>527</ele>
      </trkpt>
      <trkpt lat="43.83067" lon="6.21924">
        <ele>527</ele>
      </trkpt>
      <trkpt lat="43.83044" lon="6.21925">
        <ele>526</ele>
      </trkpt>
      <trkpt lat="43.83036" lon="6.21921">
        <ele>526</ele>
      </trkpt>
      <trkpt lat="43.82995" lon="6.21902">
        <ele>526</ele>
      </trkpt>
      <trkpt lat="43.82987" lon="6.21899">
        <ele>526</ele>
      </trkpt>
      <trkpt lat="43.82985" lon="6.21896">
        <ele>526</ele>
      </trkpt>
      <trkpt lat="43.82982" lon="6.21894">
        <ele>526</ele>
      </trkpt>
      <trkpt lat="43.82977" lon="6.21899">
        <ele>525</ele>
      </trkpt>
      <trkpt lat="43.82963" lon="6.21916">
        <ele>525</ele>
      </trkpt>
      <trkpt lat="43.82951" lon="6.21923">
        <ele>524</ele>
      </trkpt>
      <trkpt lat="43.82946" lon="6.21915">
        <ele>524</ele>
      </trkpt>
      <trkpt lat="43.82941" lon="6.21904">
        <ele>524</ele>
      </trkpt>
      <trkpt lat="43.82937" lon="6.21903">
        <ele>524</ele>
      </trkpt>
      <trkpt lat="43.82922" lon="6.21899">
        <ele>524</ele>
      </trkpt>
      <trkpt lat="43.829" lon="6.21905">
        <ele>523</ele>
      </trkpt>
      <trkpt lat="43.8288" lon="6.2191">
        <ele>523</ele>
      </trkpt>
      <trkpt lat="43.82859" lon="6.21916">
        <ele>522</ele>
      </trkpt>
      <trkpt lat="43.82842" lon="6.2193">
        <ele>521</ele>
      </trkpt>
      <trkpt lat="43.82831" lon="6.21958">
        <ele>520</ele>
      </trkpt>
      <trkpt lat="43.82814" lon="6.21983">
        <ele>520</ele>
      </trkpt>
      <trkpt lat="43.82805" lon="6.21996">
        <ele>520</ele>
      </trkpt>
      <trkpt lat="43.8279" lon="6.22012">
        <ele>519</ele>
      </trkpt>
      <trkpt lat="43.82765" lon="6.22025">
        <ele>518</ele>
      </trkpt>
      <trkpt lat="43.8275" lon="6.22037">
        <ele>517</ele>
      </trkpt>
      <trkpt lat="43.82737" lon="6.22052">
        <ele>516</ele>
      </trkpt>
      <trkpt lat="43.82725" lon="6.22072">
        <ele>515</ele>
      </trkpt>
      <trkpt lat="43.8271" lon="6.22083">
        <ele>515</ele>
      </trkpt>
      <trkpt lat="43.82694" lon="6.22077">
        <ele>514</ele>
      </trkpt>
      <trkpt lat="43.82684" lon="6.22071">
        <ele>514</ele>
      </trkpt>
      <trkpt lat="43.82674" lon="6.22065">
        <ele>514</ele>
      </trkpt>
      <trkpt lat="43.82637" lon="6.22051">
        <ele>513</ele>
      </trkpt>
      <trkpt lat="43.8262" lon="6.22041">
        <ele>513</ele>
      </trkpt>
      <trkpt lat="43.82612" lon="6.22038">
        <ele>513</ele>
      </trkpt>
      <trkpt lat="43.82588" lon="6.22031">
        <ele>514</ele>
      </trkpt>
      <trkpt lat="43.82568" lon="6.22031">
        <ele>514</ele>
      </trkpt>
      <trkpt lat="43.82544" lon="6.22037">
        <ele>513</ele>
      </trkpt>
      <trkpt lat="43.82514" lon="6.22043">
        <ele>512</ele>
      </trkpt>
      <trkpt lat="43.82471" lon="6.22059">
        <ele>510</ele>
      </trkpt>
      <trkpt lat="43.82456" lon="6.22062">
        <ele>510</ele>
      </trkpt>
      <trkpt lat="43.82449" lon="6.22064">
        <ele>510</ele>
      </trkpt>
      <trkpt lat="43.82422" lon="6.22087">
        <ele>508</ele>
      </trkpt>
      <trkpt lat="43.82416" lon="6.22105">
        <ele>506</ele>
      </trkpt>
      <trkpt lat="43.82408" lon="6.22132">
        <ele>505</ele>
      </trkpt>
      <trkpt lat="43.82391" lon="6.22147">
        <ele>504</ele>
      </trkpt>
      <trkpt lat="43.82385" lon="6.22146">
        <ele>504</ele>
      </trkpt>
      <trkpt lat="43.82379" lon="6.22145">
        <ele>504</ele>
      </trkpt>
      <trkpt lat="43.82347" lon="6.2215">
        <ele>504</ele>
      </trkpt>
      <trkpt lat="43.82343" lon="6.22154">
        <ele>503</ele>
      </trkpt>
      <trkpt lat="43.82326" lon="6.2217">
        <ele>502</ele>
      </trkpt>
      <trkpt lat="43.82324" lon="6.22171">
        <ele>502</ele>
      </trkpt>
      <trkpt lat="43.82325" lon="6.22172">
        <ele>502</ele>
      </trkpt>
      <trkpt lat="43.82326" lon="6.22185">
        <ele>502</ele>
      </trkpt>
      <trkpt lat="43.82322" lon="6.22196">
        <ele>502</ele>
      </trkpt>
      <trkpt lat="43.82309" lon="6.22205">
        <ele>501</ele>
      </trkpt>
      <trkpt lat="43.82304" lon="6.22205">
        <ele>501</ele>
      </trkpt>
      <trkpt lat="43.82278" lon="6.22213">
        <ele>501</ele>
      </trkpt>
      <trkpt lat="43.82269" lon="6.22219">
        <ele>501</ele>
      </trkpt>
      <trkpt lat="43.82244" lon="6.22228">
        <ele>501</ele>
      </trkpt>
      <trkpt lat="43.82218" lon="6.22223">
        <ele>500</ele>
      </trkpt>
      <trkpt lat="43.82198" lon="6.22222">
        <ele>500</ele>
      </trkpt>
      <trkpt lat="43.82184" lon="6.22224">
        <ele>499</ele>
      </trkpt>
      <trkpt lat="43.82142" lon="6.22233">
        <ele>498</ele>
      </trkpt>
      <trkpt lat="43.82102" lon="6.22251">
        <ele>497</ele>
      </trkpt>
      <trkpt lat="43.82071" lon="6.22274">
        <ele>496</ele>
      </trkpt>
      <trkpt lat="43.82037" lon="6.22299">
        <ele>498</ele>
      </trkpt>
      <trkpt lat="43.82032" lon="6.22303">
        <ele>498</ele>
      </trkpt>
      <trkpt lat="43.82008" lon="6.22314">
        <ele>497</ele>
      </trkpt>
      <trkpt lat="43.81981" lon="6.22323">
        <ele>497</ele>
      </trkpt>
      <trkpt lat="43.81965" lon="6.2233">
        <ele>496</ele>
      </trkpt>
      <trkpt lat="43.81954" lon="6.22338">
        <ele>496</ele>
      </trkpt>
      <trkpt lat="43.81939" lon="6.22355">
        <ele>495</ele>
      </trkpt>
      <trkpt lat="43.8193" lon="6.2237">
        <ele>495</ele>
      </trkpt>
      <trkpt lat="43.81901" lon="6.22401">
        <ele>494</ele>
      </trkpt>
      <trkpt lat="43.81891" lon="6.2241">
        <ele>494</ele>
      </trkpt>
      <trkpt lat="43.81878" lon="6.22408">
        <ele>493</ele>
      </trkpt>
      <trkpt lat="43.81859" lon="6.22408">
        <ele>493</ele>
      </trkpt>
      <trkpt lat="43.81852" lon="6.22414">
        <ele>493</ele>
      </trkpt>
      <trkpt lat="43.81835" lon="6.22426">
        <ele>492</ele>
      </trkpt>
      <trkpt lat="43.81817" lon="6.22424">
        <ele>492</ele>
      </trkpt>
      <trkpt lat="43.81812" lon="6.2242">
        <ele>492</ele>
      </trkpt>
      <trkpt lat="43.8179" lon="6.22418">
        <ele>491</ele>
      </trkpt>
      <trkpt lat="43.81766" lon="6.22429">
        <ele>491</ele>
      </trkpt>
      <trkpt lat="43.81761" lon="6.22433">
        <ele>491</ele>
      </trkpt>
      <trkpt lat="43.81742" lon="6.22443">
        <ele>491</ele>
      </trkpt>
      <trkpt lat="43.81727" lon="6.22455">
        <ele>491</ele>
      </trkpt>
      <trkpt lat="43.81712" lon="6.22464">
        <ele>491</ele>
      </trkpt>
      <trkpt lat="43.81686" lon="6.22471">
        <ele>490</ele>
      </trkpt>
      <trkpt lat="43.81676" lon="6.22469">
        <ele>489</ele>
      </trkpt>
      <trkpt lat="43.81649" lon="6.2248">
        <ele>488</ele>
      </trkpt>
      <trkpt lat="43.81644" lon="6.22484">
        <ele>488</ele>
      </trkpt>
      <trkpt lat="43.81622" lon="6.22507">
        <ele>488</ele>
      </trkpt>
      <trkpt lat="43.81607" lon="6.22518">
        <ele>488</ele>
      </trkpt>
      <trkpt lat="43.81594" lon="6.22537">
        <ele>488</ele>
      </trkpt>
      <trkpt lat="43.81591" lon="6.22543">
        <ele>488</ele>
      </trkpt>
      <trkpt lat="43.81565" lon="6.22563">
        <ele>489</ele>
      </trkpt>
      <trkpt lat="43.81543" lon="6.22572">
        <ele>490</ele>
      </trkpt>
      <trkpt lat="43.81523" lon="6.2258">
        <ele>490</ele>
      </trkpt>
      <trkpt lat="43.8151" lon="6.22593">
        <ele>491</ele>
      </trkpt>
      <trkpt lat="43.81495" lon="6.22598">
        <ele>491</ele>
      </trkpt>
      <trkpt lat="43.81487" lon="6.22596">
        <ele>490</ele>
      </trkpt>
      <trkpt lat="43.81481" lon="6.22587">
        <ele>489</ele>
      </trkpt>
      <trkpt lat="43.8148" lon="6.22581">
        <ele>489</ele>
      </trkpt>
      <trkpt lat="43.81474" lon="6.22544">
        <ele>486</ele>
      </trkpt>
      <trkpt lat="43.81464" lon="6.22526">
        <ele>485</ele>
      </trkpt>
      <trkpt lat="43.81451" lon="6.22527">
        <ele>485</ele>
      </trkpt>
      <trkpt lat="43.81435" lon="6.22532">
        <ele>485</ele>
      </trkpt>
      <trkpt lat="43.81418" lon="6.22533">
        <ele>485</ele>
      </trkpt>
      <trkpt lat="43.81399" lon="6.22537">
        <ele>484</ele>
      </trkpt>
      <trkpt lat="43.81371" lon="6.22533">
        <ele>484</ele>
      </trkpt>
      <trkpt lat="43.81341" lon="6.22535">
        <ele>483</ele>
      </trkpt>
      <trkpt lat="43.81326" lon="6.22541">
        <ele>483</ele>
      </trkpt>
      <trkpt lat="43.81298" lon="6.22536">
        <ele>481</ele>
      </trkpt>
      <trkpt lat="43.81282" lon="6.22525">
        <ele>481</ele>
      </trkpt>
      <trkpt lat="43.81252" lon="6.22511">
        <ele>480</ele>
      </trkpt>
      <trkpt lat="43.81241" lon="6.22511">
        <ele>481</ele>
      </trkpt>
      <trkpt lat="43.81216" lon="6.22506">
        <ele>481</ele>
      </trkpt>
      <trkpt lat="43.81185" lon="6.22516">
        <ele>480</ele>
      </trkpt>
      <trkpt lat="43.81165" lon="6.22527">
        <ele>479</ele>
      </trkpt>
      <trkpt lat="43.81143" lon="6.22532">
        <ele>479</ele>
      </trkpt>
      <trkpt lat="43.81124" lon="6.22527">
        <ele>479</ele>
      </trkpt>
      <trkpt lat="43.81118" lon="6.2252">
        <ele>479</ele>
      </trkpt>
      <trkpt lat="43.81105" lon="6.22514">
        <ele>478</ele>
      </trkpt>
      <trkpt lat="43.81104" lon="6.22513">
        <ele>478</ele>
      </trkpt>
      <trkpt lat="43.81103" lon="6.2251">
        <ele>479</ele>
      </trkpt>
      <trkpt lat="43.81098" lon="6.22508">
        <ele>478</ele>
      </trkpt>
      <trkpt lat="43.81084" lon="6.22499">
        <ele>479</ele>
      </trkpt>
      <trkpt lat="43.81062" lon="6.22496">
        <ele>478</ele>
      </trkpt>
      <trkpt lat="43.81029" lon="6.22499">
        <ele>477</ele>
      </trkpt>
      <trkpt lat="43.81004" lon="6.22503">
        <ele>477</ele>
      </trkpt>
      <trkpt lat="43.80984" lon="6.225">
        <ele>477</ele>
      </trkpt>
      <trkpt lat="43.80966" lon="6.22488">
        <ele>478</ele>
      </trkpt>
      <trkpt lat="43.80944" lon="6.22475">
        <ele>478</ele>
      </trkpt>
      <trkpt lat="43.80914" lon="6.22472">
        <ele>478</ele>
      </trkpt>
      <trkpt lat="43.80879" lon="6.22469">
        <ele>477</ele>
      </trkpt>
      <trkpt lat="43.80869" lon="6.22468">
        <ele>477</ele>
      </trkpt>
      <trkpt lat="43.80851" lon="6.22457">
        <ele>478</ele>
      </trkpt>
      <trkpt lat="43.80847" lon="6.22451">
        <ele>478</ele>
      </trkpt>
      <trkpt lat="43.80826" lon="6.22431">
        <ele>478</ele>
      </trkpt>
      <trkpt lat="43.8081" lon="6.22413">
        <ele>478</ele>
      </trkpt>
      <trkpt lat="43.80783" lon="6.22384">
        <ele>478</ele>
      </trkpt>
      <trkpt lat="43.80779" lon="6.22372">
        <ele>478</ele>
      </trkpt>
      <trkpt lat="43.8078" lon="6.22369">
        <ele>479</ele>
      </trkpt>
      <trkpt lat="43.80781" lon="6.2237">
        <ele>479</ele>
      </trkpt>
      <trkpt lat="43.80785" lon="6.22361">
        <ele>479</ele>
      </trkpt>
      <trkpt lat="43.80793" lon="6.22338">
        <ele>481</ele>
      </trkpt>
      <trkpt lat="43.80796" lon="6.22313">
        <ele>483</ele>
      </trkpt>
      <trkpt lat="43.80789" lon="6.22299">
        <ele>483</ele>
      </trkpt>
      <trkpt lat="43.8077" lon="6.2229">
        <ele>483</ele>
      </trkpt>
      <trkpt lat="43.80747" lon="6.22278">
        <ele>483</ele>
      </trkpt>
      <trkpt lat="43.80708" lon="6.22259">
        <ele>484</ele>
      </trkpt>
      <trkpt lat="43.80672" lon="6.22243">
        <ele>484</ele>
      </trkpt>
      <trkpt lat="43.80663" lon="6.2224">
        <ele>484</ele>
      </trkpt>
      <trkpt lat="43.80654" lon="6.22235">
        <ele>484</ele>
      </trkpt>
      <trkpt lat="43.80637" lon="6.22216">
        <ele>484</ele>
      </trkpt>
      <trkpt lat="43.80627" lon="6.22193">
        <ele>485</ele>
      </trkpt>
      <trkpt lat="43.80627" lon="6.22171">
        <ele>487</ele>
      </trkpt>
      <trkpt lat="43.80631" lon="6.22145">
        <ele>488</ele>
      </trkpt>
      <trkpt lat="43.80636" lon="6.22127">
        <ele>489</ele>
      </trkpt>
      <trkpt lat="43.80644" lon="6.22106">
        <ele>491</ele>
      </trkpt>
      <trkpt lat="43.80652" lon="6.22074">
        <ele>496</ele>
      </trkpt>
      <trkpt lat="43.80649" lon="6.22041">
        <ele>498</ele>
      </trkpt>
      <trkpt lat="43.80645" lon="6.22012">
        <ele>498</ele>
      </trkpt>
      <trkpt lat="43.80638" lon="6.21977">
        <ele>497</ele>
      </trkpt>
      <trkpt lat="43.80632" lon="6.21945">
        <ele>492</ele>
      </trkpt>
      <trkpt lat="43.80616" lon="6.21909">
        <ele>486</ele>
      </trkpt>
      <trkpt lat="43.80605" lon="6.21897">
        <ele>484</ele>
      </trkpt>
      <trkpt lat="43.80577" lon="6.21876">
        <ele>482</ele>
      </trkpt>
      <trkpt lat="43.80573" lon="6.21873">
        <ele>482</ele>
      </trkpt>
      <trkpt lat="43.80559" lon="6.2187">
        <ele>481</ele>
      </trkpt>
      <trkpt lat="43.80549" lon="6.21867">
        <ele>481</ele>
      </trkpt>
      <trkpt lat="43.80543" lon="6.21851">
        <ele>482</ele>
      </trkpt>
      <trkpt lat="43.80542" lon="6.21837">
        <ele>482</ele>
      </trkpt>
      <trkpt lat="43.80543" lon="6.21829">
        <ele>483</ele>
      </trkpt>
      <trkpt lat="43.80548" lon="6.21798">
        <ele>484</ele>
      </trkpt>
      <trkpt lat="43.80557" lon="6.21756">
        <ele>485</ele>
      </trkpt>
      <trkpt lat="43.80554" lon="6.21718">
        <ele>483</ele>
      </trkpt>
      <trkpt lat="43.80551" lon="6.21701">
        <ele>483</ele>
      </trkpt>
      <trkpt lat="43.80547" lon="6.21676">
        <ele>482</ele>
      </trkpt>
      <trkpt lat="43.80543" lon="6.21665">
        <ele>482</ele>
      </trkpt>
      <trkpt lat="43.80536" lon="6.21641">
        <ele>480</ele>
      </trkpt>
      <trkpt lat="43.80522" lon="6.21618">
        <ele>479</ele>
      </trkpt>
      <trkpt lat="43.80513" lon="6.21613">
        <ele>478</ele>
      </trkpt>
      <trkpt lat="43.80493" lon="6.21585">
        <ele>477</ele>
      </trkpt>
      <trkpt lat="43.80487" lon="6.21574">
        <ele>478</ele>
      </trkpt>
      <trkpt lat="43.8047" lon="6.21527">
        <ele>478</ele>
      </trkpt>
      <trkpt lat="43.80466" lon="6.21508">
        <ele>478</ele>
      </trkpt>
      <trkpt lat="43.80471" lon="6.21509">
        <ele>478</ele>
      </trkpt>
      <trkpt lat="43.80487" lon="6.2151">
        <ele>480</ele>
      </trkpt>
      <trkpt lat="43.80504" lon="6.21509">
        <ele>481</ele>
      </trkpt>
      <trkpt lat="43.80517" lon="6.21501">
        <ele>483</ele>
      </trkpt>
      <trkpt lat="43.80514" lon="6.21483">
        <ele>483</ele>
      </trkpt>
      <trkpt lat="43.80512" lon="6.2148">
        <ele>483</ele>
      </trkpt>
      <trkpt lat="43.80496" lon="6.21464">
        <ele>482</ele>
      </trkpt>
      <trkpt lat="43.80481" lon="6.21449">
        <ele>482</ele>
      </trkpt>
      <trkpt lat="43.80477" lon="6.21445">
        <ele>482</ele>
      </trkpt>
      <trkpt lat="43.80477" lon="6.21438">
        <ele>482</ele>
      </trkpt>
      <trkpt lat="43.80483" lon="6.21432">
        <ele>484</ele>
      </trkpt>
      <trkpt lat="43.8049" lon="6.21421">
        <ele>486</ele>
      </trkpt>
      <trkpt lat="43.80498" lon="6.2141">
        <ele>488</ele>
      </trkpt>
      <trkpt lat="43.80504" lon="6.21399">
        <ele>490</ele>
      </trkpt>
      <trkpt lat="43.80506" lon="6.21396">
        <ele>491</ele>
      </trkpt>
      <trkpt lat="43.80513" lon="6.21383">
        <ele>494</ele>
      </trkpt>
      <trkpt lat="43.80517" lon="6.21378">
        <ele>495</ele>
      </trkpt>
      <trkpt lat="43.80518" lon="6.21377">
        <ele>495</ele>
      </trkpt>
      <trkpt lat="43.80522" lon="6.21379">
        <ele>496</ele>
      </trkpt>
      <trkpt lat="43.80527" lon="6.21379">
        <ele>497</ele>
      </trkpt>
      <trkpt lat="43.80533" lon="6.21376">
        <ele>498</ele>
      </trkpt>
      <trkpt lat="43.80545" lon="6.21378">
        <ele>499</ele>
      </trkpt>
      <trkpt lat="43.80556" lon="6.2138">
        <ele>500</ele>
      </trkpt>
      <trkpt lat="43.80564" lon="6.21381">
        <ele>501</ele>
      </trkpt>
      <trkpt lat="43.80568" lon="6.21387">
        <ele>500</ele>
      </trkpt>
      <trkpt lat="43.80578" lon="6.21386">
        <ele>502</ele>
      </trkpt>
      <trkpt lat="43.8058" lon="6.21385">
        <ele>502</ele>
      </trkpt>
      <trkpt lat="43.80584" lon="6.21386">
        <ele>501</ele>
      </trkpt>
      <trkpt lat="43.80591" lon="6.21382">
        <ele>502</ele>
      </trkpt>
      <trkpt lat="43.80592" lon="6.21381">
        <ele>503</ele>
      </trkpt>
      <trkpt lat="43.80599" lon="6.21373">
        <ele>505</ele>
      </trkpt>
      <trkpt lat="43.80604" lon="6.21365">
        <ele>506</ele>
      </trkpt>
      <trkpt lat="43.8061" lon="6.21356">
        <ele>508</ele>
      </trkpt>
      <trkpt lat="43.80614" lon="6.21353">
        <ele>509</ele>
      </trkpt>
      <trkpt lat="43.80617" lon="6.21345">
        <ele>511</ele>
      </trkpt>
      <trkpt lat="43.80618" lon="6.21343">
        <ele>511</ele>
      </trkpt>
      <trkpt lat="43.80618" lon="6.21331">
        <ele>514</ele>
      </trkpt>
      <trkpt lat="43.8062" lon="6.21323">
        <ele>516</ele>
      </trkpt>
      <trkpt lat="43.80621" lon="6.21322">
        <ele>516</ele>
      </trkpt>
      <trkpt lat="43.80625" lon="6.21307">
        <ele>520</ele>
      </trkpt>
      <trkpt lat="43.80627" lon="6.21297">
        <ele>523</ele>
      </trkpt>
      <trkpt lat="43.80629" lon="6.2129">
        <ele>523</ele>
      </trkpt>
      <trkpt lat="43.80631" lon="6.21279">
        <ele>523</ele>
      </trkpt>
      <trkpt lat="43.80632" lon="6.21276">
        <ele>524</ele>
      </trkpt>
      <trkpt lat="43.80635" lon="6.2127">
        <ele>524</ele>
      </trkpt>
      <trkpt lat="43.8064" lon="6.21259">
        <ele>524</ele>
      </trkpt>
      <trkpt lat="43.80647" lon="6.21248">
        <ele>525</ele>
      </trkpt>
      <trkpt lat="43.80653" lon="6.2124">
        <ele>526</ele>
      </trkpt>
      <trkpt lat="43.80655" lon="6.21238">
        <ele>526</ele>
      </trkpt>
      <trkpt lat="43.80659" lon="6.21235">
        <ele>526</ele>
      </trkpt>
      <trkpt lat="43.80665" lon="6.21225">
        <ele>528</ele>
      </trkpt>
      <trkpt lat="43.80669" lon="6.21215">
        <ele>530</ele>
      </trkpt>
      <trkpt lat="43.80671" lon="6.2121">
        <ele>531</ele>
      </trkpt>
      <trkpt lat="43.80676" lon="6.21198">
        <ele>534</ele>
      </trkpt>
      <trkpt lat="43.80681" lon="6.21184">
        <ele>535</ele>
      </trkpt>
      <trkpt lat="43.80683" lon="6.21175">
        <ele>536</ele>
      </trkpt>
      <trkpt lat="43.80683" lon="6.21173">
        <ele>536</ele>
      </trkpt>
      <trkpt lat="43.80684" lon="6.21166">
        <ele>537</ele>
      </trkpt>
      <trkpt lat="43.80686" lon="6.21158">
        <ele>539</ele>
      </trkpt>
      <trkpt lat="43.80687" lon="6.21154">
        <ele>539</ele>
      </trkpt>
      <trkpt lat="43.8069" lon="6.21149">
        <ele>539</ele>
      </trkpt>
      <trkpt lat="43.80693" lon="6.21148">
        <ele>538</ele>
      </trkpt>
      <trkpt lat="43.80704" lon="6.21142">
        <ele>536</ele>
      </trkpt>
      <trkpt lat="43.80708" lon="6.21138">
        <ele>536</ele>
      </trkpt>
      <trkpt lat="43.80709" lon="6.21136">
        <ele>537</ele>
      </trkpt>
      <trkpt lat="43.80717" lon="6.2113">
        <ele>537</ele>
      </trkpt>
      <trkpt lat="43.80724" lon="6.21122">
        <ele>539</ele>
      </trkpt>
      <trkpt lat="43.80731" lon="6.21114">
        <ele>539</ele>
      </trkpt>
      <trkpt lat="43.80737" lon="6.21101">
        <ele>539</ele>
      </trkpt>
      <trkpt lat="43.80738" lon="6.21098">
        <ele>539</ele>
      </trkpt>
      <trkpt lat="43.80741" lon="6.21086">
        <ele>541</ele>
      </trkpt>
      <trkpt lat="43.80742" lon="6.21082">
        <ele>541</ele>
      </trkpt>
      <trkpt lat="43.80748" lon="6.21065">
        <ele>543</ele>
      </trkpt>
      <trkpt lat="43.80758" lon="6.2105">
        <ele>543</ele>
      </trkpt>
      <trkpt lat="43.80767" lon="6.21047">
        <ele>540</ele>
      </trkpt>
      <trkpt lat="43.80783" lon="6.21031">
        <ele>544</ele>
      </trkpt>
      <trkpt lat="43.8079" lon="6.21003">
        <ele>551</ele>
      </trkpt>
      <trkpt lat="43.8079" lon="6.20994">
        <ele>552</ele>
      </trkpt>
      <trkpt lat="43.808" lon="6.20975">
        <ele>556</ele>
      </trkpt>
      <trkpt lat="43.80815" lon="6.20976">
        <ele>557</ele>
      </trkpt>
      <trkpt lat="43.80822" lon="6.20991">
        <ele>554</ele>
      </trkpt>
      <trkpt lat="43.80829" lon="6.2101">
        <ele>552</ele>
      </trkpt>
      <trkpt lat="43.80841" lon="6.21023">
        <ele>551</ele>
      </trkpt>
      <trkpt lat="43.80854" lon="6.2102">
        <ele>552</ele>
      </trkpt>
      <trkpt lat="43.80859" lon="6.21014">
        <ele>552</ele>
      </trkpt>
      <trkpt lat="43.80875" lon="6.2099">
        <ele>555</ele>
      </trkpt>
      <trkpt lat="43.80882" lon="6.20982">
        <ele>558</ele>
      </trkpt>
      <trkpt lat="43.80888" lon="6.20992">
        <ele>559</ele>
      </trkpt>
      <trkpt lat="43.80888" lon="6.21007">
        <ele>559</ele>
      </trkpt>
      <trkpt lat="43.80887" lon="6.21034">
        <ele>559</ele>
      </trkpt>
      <trkpt lat="43.80892" lon="6.21049">
        <ele>561</ele>
      </trkpt>
      <trkpt lat="43.80889" lon="6.2107">
        <ele>561</ele>
      </trkpt>
      <trkpt lat="43.80888" lon="6.21079">
        <ele>560</ele>
      </trkpt>
      <trkpt lat="43.80888" lon="6.21099">
        <ele>560</ele>
      </trkpt>
      <trkpt lat="43.80888" lon="6.21115">
        <ele>560</ele>
      </trkpt>
      <trkpt lat="43.80889" lon="6.21117">
        <ele>560</ele>
      </trkpt>
      <trkpt lat="43.80896" lon="6.21139">
        <ele>563</ele>
      </trkpt>
      <trkpt lat="43.80905" lon="6.21153">
        <ele>566</ele>
      </trkpt>
      <trkpt lat="43.80909" lon="6.21164">
        <ele>567</ele>
      </trkpt>
      <trkpt lat="43.80917" lon="6.2118">
        <ele>570</ele>
      </trkpt>
      <trkpt lat="43.80922" lon="6.21184">
        <ele>571</ele>
      </trkpt>
      <trkpt lat="43.80928" lon="6.21202">
        <ele>573</ele>
      </trkpt>
      <trkpt lat="43.80929" lon="6.21221">
        <ele>574</ele>
      </trkpt>
      <trkpt lat="43.80929" lon="6.21224">
        <ele>574</ele>
      </trkpt>
      <trkpt lat="43.80928" lon="6.2124">
        <ele>574</ele>
      </trkpt>
      <trkpt lat="43.80927" lon="6.21251">
        <ele>574</ele>
      </trkpt>
      <trkpt lat="43.80932" lon="6.2127">
        <ele>576</ele>
      </trkpt>
      <trkpt lat="43.80942" lon="6.21284">
        <ele>578</ele>
      </trkpt>
      <trkpt lat="43.80948" lon="6.21298">
        <ele>578</ele>
      </trkpt>
      <trkpt lat="43.8095" lon="6.21313">
        <ele>577</ele>
      </trkpt>
      <trkpt lat="43.80949" lon="6.21329">
        <ele>574</ele>
      </trkpt>
      <trkpt lat="43.80952" lon="6.21348">
        <ele>571</ele>
      </trkpt>
      <trkpt lat="43.80954" lon="6.21352">
        <ele>570</ele>
      </trkpt>
      <trkpt lat="43.80964" lon="6.21355">
        <ele>571</ele>
      </trkpt>
      <trkpt lat="43.80986" lon="6.21357">
        <ele>572</ele>
      </trkpt>
      <trkpt lat="43.80998" lon="6.2136">
        <ele>573</ele>
      </trkpt>
      <trkpt lat="43.81009" lon="6.21366">
        <ele>573</ele>
      </trkpt>
      <trkpt lat="43.81017" lon="6.21384">
        <ele>572</ele>
      </trkpt>
      <trkpt lat="43.81019" lon="6.214">
        <ele>569</ele>
      </trkpt>
      <trkpt lat="43.81029" lon="6.21428">
        <ele>565</ele>
      </trkpt>
      <trkpt lat="43.81049" lon="6.21451">
        <ele>560</ele>
      </trkpt>
      <trkpt lat="43.81069" lon="6.21458">
        <ele>558</ele>
      </trkpt>
      <trkpt lat="43.81083" lon="6.21454">
        <ele>556</ele>
      </trkpt>
      <trkpt lat="43.81086" lon="6.2145">
        <ele>555</ele>
      </trkpt>
      <trkpt lat="43.81097" lon="6.21436">
        <ele>554</ele>
      </trkpt>
      <trkpt lat="43.81101" lon="6.21431">
        <ele>553</ele>
      </trkpt>
      <trkpt lat="43.81113" lon="6.21403">
        <ele>551</ele>
      </trkpt>
      <trkpt lat="43.81113" lon="6.21393">
        <ele>552</ele>
      </trkpt>
      <trkpt lat="43.81121" lon="6.2135">
        <ele>554</ele>
      </trkpt>
      <trkpt lat="43.81124" lon="6.2132">
        <ele>557</ele>
      </trkpt>
      <trkpt lat="43.8113" lon="6.21318">
        <ele>558</ele>
      </trkpt>
      <trkpt lat="43.81138" lon="6.21331">
        <ele>557</ele>
      </trkpt>
      <trkpt lat="43.81141" lon="6.21336">
        <ele>556</ele>
      </trkpt>
      <trkpt lat="43.81149" lon="6.21356">
        <ele>555</ele>
      </trkpt>
      <trkpt lat="43.81153" lon="6.21381">
        <ele>552</ele>
      </trkpt>
      <trkpt lat="43.81161" lon="6.21405">
        <ele>549</ele>
      </trkpt>
      <trkpt lat="43.81168" lon="6.21422">
        <ele>548</ele>
      </trkpt>
      <trkpt lat="43.81185" lon="6.21462">
        <ele>546</ele>
      </trkpt>
      <trkpt lat="43.812" lon="6.21481">
        <ele>547</ele>
      </trkpt>
      <trkpt lat="43.81204" lon="6.21486">
        <ele>547</ele>
      </trkpt>
      <trkpt lat="43.81212" lon="6.21499">
        <ele>547</ele>
      </trkpt>
      <trkpt lat="43.81217" lon="6.21515">
        <ele>547</ele>
      </trkpt>
      <trkpt lat="43.81218" lon="6.2152">
        <ele>547</ele>
      </trkpt>
      <trkpt lat="43.81222" lon="6.2152">
        <ele>548</ele>
      </trkpt>
      <trkpt lat="43.81227" lon="6.21513">
        <ele>549</ele>
      </trkpt>
      <trkpt lat="43.81233" lon="6.21509">
        <ele>550</ele>
      </trkpt>
      <trkpt lat="43.8124" lon="6.21502">
        <ele>551</ele>
      </trkpt>
      <trkpt lat="43.8125" lon="6.21495">
        <ele>553</ele>
      </trkpt>
      <trkpt lat="43.81257" lon="6.21484">
        <ele>554</ele>
      </trkpt>
      <trkpt lat="43.81261" lon="6.21474">
        <ele>556</ele>
      </trkpt>
      <trkpt lat="43.81262" lon="6.21462">
        <ele>556</ele>
      </trkpt>
      <trkpt lat="43.81262" lon="6.21458">
        <ele>556</ele>
      </trkpt>
      <trkpt lat="43.81264" lon="6.21439">
        <ele>557</ele>
      </trkpt>
      <trkpt lat="43.81265" lon="6.21437">
        <ele>557</ele>
      </trkpt>
      <trkpt lat="43.81266" lon="6.21433">
        <ele>558</ele>
      </trkpt>
      <trkpt lat="43.81264" lon="6.2142">
        <ele>558</ele>
      </trkpt>
      <trkpt lat="43.81259" lon="6.21402">
        <ele>558</ele>
      </trkpt>
      <trkpt lat="43.81259" lon="6.21385">
        <ele>559</ele>
      </trkpt>
      <trkpt lat="43.81255" lon="6.21367">
        <ele>560</ele>
      </trkpt>
      <trkpt lat="43.81249" lon="6.21355">
        <ele>561</ele>
      </trkpt>
      <trkpt lat="43.81248" lon="6.21344">
        <ele>562</ele>
      </trkpt>
      <trkpt lat="43.81245" lon="6.21318">
        <ele>565</ele>
      </trkpt>
      <trkpt lat="43.81241" lon="6.21304">
        <ele>567</ele>
      </trkpt>
      <trkpt lat="43.81238" lon="6.21301">
        <ele>567</ele>
      </trkpt>
      <trkpt lat="43.81233" lon="6.21304">
        <ele>566</ele>
      </trkpt>
      <trkpt lat="43.81226" lon="6.2131">
        <ele>565</ele>
      </trkpt>
      <trkpt lat="43.81223" lon="6.21311">
        <ele>564</ele>
      </trkpt>
      <trkpt lat="43.81217" lon="6.21306">
        <ele>564</ele>
      </trkpt>
      <trkpt lat="43.81212" lon="6.213">
        <ele>564</ele>
      </trkpt>
      <trkpt lat="43.81211" lon="6.21289">
        <ele>565</ele>
      </trkpt>
      <trkpt lat="43.81215" lon="6.21276">
        <ele>567</ele>
      </trkpt>
      <trkpt lat="43.81216" lon="6.21273">
        <ele>568</ele>
      </trkpt>
      <trkpt lat="43.81213" lon="6.21265">
        <ele>568</ele>
      </trkpt>
      <trkpt lat="43.81201" lon="6.21258">
        <ele>569</ele>
      </trkpt>
      <trkpt lat="43.81189" lon="6.21252">
        <ele>571</ele>
      </trkpt>
      <trkpt lat="43.81184" lon="6.21248">
        <ele>572</ele>
      </trkpt>
      <trkpt lat="43.81187" lon="6.21239">
        <ele>573</ele>
      </trkpt>
      <trkpt lat="43.81191" lon="6.21232">
        <ele>574</ele>
      </trkpt>
      <trkpt lat="43.81202" lon="6.21219">
        <ele>575</ele>
      </trkpt>
      <trkpt lat="43.8121" lon="6.21205">
        <ele>576</ele>
      </trkpt>
      <trkpt lat="43.81214" lon="6.21191">
        <ele>577</ele>
      </trkpt>
      <trkpt lat="43.81216" lon="6.21185">
        <ele>578</ele>
      </trkpt>
      <trkpt lat="43.81217" lon="6.21175">
        <ele>580</ele>
      </trkpt>
      <trkpt lat="43.81218" lon="6.21171">
        <ele>581</ele>
      </trkpt>
      <trkpt lat="43.8122" lon="6.21159">
        <ele>583</ele>
      </trkpt>
      <trkpt lat="43.81221" lon="6.21154">
        <ele>583</ele>
      </trkpt>
      <trkpt lat="43.81217" lon="6.21137">
        <ele>586</ele>
      </trkpt>
      <trkpt lat="43.81213" lon="6.21133">
        <ele>587</ele>
      </trkpt>
      <trkpt lat="43.8121" lon="6.21122">
        <ele>589</ele>
      </trkpt>
      <trkpt lat="43.81217" lon="6.21106">
        <ele>590</ele>
      </trkpt>
      <trkpt lat="43.81225" lon="6.21091">
        <ele>593</ele>
      </trkpt>
      <trkpt lat="43.81231" lon="6.2108">
        <ele>594</ele>
      </trkpt>
      <trkpt lat="43.81236" lon="6.2107">
        <ele>596</ele>
      </trkpt>
      <trkpt lat="43.81243" lon="6.21061">
        <ele>597</ele>
      </trkpt>
      <trkpt lat="43.81249" lon="6.21049">
        <ele>599</ele>
      </trkpt>
      <trkpt lat="43.81256" lon="6.21037">
        <ele>601</ele>
      </trkpt>
      <trkpt lat="43.8126" lon="6.21033">
        <ele>602</ele>
      </trkpt>
      <trkpt lat="43.81265" lon="6.21022">
        <ele>604</ele>
      </trkpt>
      <trkpt lat="43.81266" lon="6.21021">
        <ele>604</ele>
      </trkpt>
      <trkpt lat="43.81277" lon="6.21013">
        <ele>606</ele>
      </trkpt>
      <trkpt lat="43.81283" lon="6.21012">
        <ele>607</ele>
      </trkpt>
      <trkpt lat="43.81297" lon="6.21009">
        <ele>608</ele>
      </trkpt>
      <trkpt lat="43.8131" lon="6.21004">
        <ele>610</ele>
      </trkpt>
      <trkpt lat="43.81321" lon="6.21008">
        <ele>611</ele>
      </trkpt>
      <trkpt lat="43.81329" lon="6.21009">
        <ele>611</ele>
      </trkpt>
      <trkpt lat="43.81337" lon="6.21008">
        <ele>612</ele>
      </trkpt>
      <trkpt lat="43.81341" lon="6.21001">
        <ele>614</ele>
      </trkpt>
      <trkpt lat="43.81337" lon="6.20988">
        <ele>616</ele>
      </trkpt>
      <trkpt lat="43.81334" lon="6.20977">
        <ele>618</ele>
      </trkpt>
      <trkpt lat="43.81328" lon="6.20967">
        <ele>619</ele>
      </trkpt>
      <trkpt lat="43.81321" lon="6.20954">
        <ele>622</ele>
      </trkpt>
      <trkpt lat="43.81319" lon="6.20941">
        <ele>624</ele>
      </trkpt>
      <trkpt lat="43.81315" lon="6.20922">
        <ele>629</ele>
      </trkpt>
      <trkpt lat="43.81312" lon="6.20907">
        <ele>632</ele>
      </trkpt>
      <trkpt lat="43.81311" lon="6.20891">
        <ele>635</ele>
      </trkpt>
      <trkpt lat="43.81312" lon="6.20876">
        <ele>639</ele>
      </trkpt>
      <trkpt lat="43.81313" lon="6.20864">
        <ele>642</ele>
      </trkpt>
      <trkpt lat="43.81314" lon="6.20851">
        <ele>645</ele>
      </trkpt>
      <trkpt lat="43.81314" lon="6.20835">
        <ele>647</ele>
      </trkpt>
      <trkpt lat="43.81318" lon="6.20828">
        <ele>649</ele>
      </trkpt>
      <trkpt lat="43.81321" lon="6.20827">
        <ele>650</ele>
      </trkpt>
      <trkpt lat="43.81326" lon="6.20831">
        <ele>650</ele>
      </trkpt>
      <trkpt lat="43.81332" lon="6.20842">
        <ele>649</ele>
      </trkpt>
      <trkpt lat="43.81338" lon="6.20855">
        <ele>647</ele>
      </trkpt>
      <trkpt lat="43.81344" lon="6.20868">
        <ele>645</ele>
      </trkpt>
      <trkpt lat="43.81352" lon="6.20876">
        <ele>644</ele>
      </trkpt>
      <trkpt lat="43.81353" lon="6.20876">
        <ele>644</ele>
      </trkpt>
      <trkpt lat="43.81361" lon="6.20874">
        <ele>645</ele>
      </trkpt>
      <trkpt lat="43.81366" lon="6.2087">
        <ele>647</ele>
      </trkpt>
      <trkpt lat="43.81376" lon="6.20866">
        <ele>648</ele>
      </trkpt>
      <trkpt lat="43.81383" lon="6.20865">
        <ele>649</ele>
      </trkpt>
      <trkpt lat="43.8139" lon="6.20863">
        <ele>649</ele>
      </trkpt>
      <trkpt lat="43.81397" lon="6.20861">
        <ele>650</ele>
      </trkpt>
      <trkpt lat="43.81404" lon="6.20855">
        <ele>651</ele>
      </trkpt>
      <trkpt lat="43.8141" lon="6.20845">
        <ele>651</ele>
      </trkpt>
      <trkpt lat="43.81411" lon="6.20843">
        <ele>651</ele>
      </trkpt>
      <trkpt lat="43.81407" lon="6.20837">
        <ele>653</ele>
      </trkpt>
      <trkpt lat="43.81398" lon="6.20833">
        <ele>654</ele>
      </trkpt>
      <trkpt lat="43.8139" lon="6.20825">
        <ele>655</ele>
      </trkpt>
      <trkpt lat="43.81383" lon="6.20815">
        <ele>657</ele>
      </trkpt>
      <trkpt lat="43.81378" lon="6.20808">
        <ele>659</ele>
      </trkpt>
      <trkpt lat="43.81382" lon="6.20802">
        <ele>660</ele>
      </trkpt>
      <trkpt lat="43.81386" lon="6.20803">
        <ele>659</ele>
      </trkpt>
      <trkpt lat="43.81395" lon="6.20801">
        <ele>658</ele>
      </trkpt>
      <trkpt lat="43.81401" lon="6.20795">
        <ele>658</ele>
      </trkpt>
      <trkpt lat="43.81396" lon="6.20787">
        <ele>660</ele>
      </trkpt>
      <trkpt lat="43.81388" lon="6.20776">
        <ele>664</ele>
      </trkpt>
      <trkpt lat="43.81384" lon="6.20764">
        <ele>668</ele>
      </trkpt>
      <trkpt lat="43.81381" lon="6.20752">
        <ele>671</ele>
      </trkpt>
      <trkpt lat="43.81386" lon="6.20742">
        <ele>673</ele>
      </trkpt>
      <trkpt lat="43.81399" lon="6.2074">
        <ele>672</ele>
      </trkpt>
      <trkpt lat="43.81404" lon="6.2074">
        <ele>672</ele>
      </trkpt>
      <trkpt lat="43.81415" lon="6.20734">
        <ele>674</ele>
      </trkpt>
      <trkpt lat="43.81425" lon="6.20728">
        <ele>676</ele>
      </trkpt>
      <trkpt lat="43.81429" lon="6.20727">
        <ele>677</ele>
      </trkpt>
      <trkpt lat="43.81435" lon="6.20726">
        <ele>678</ele>
      </trkpt>
      <trkpt lat="43.81445" lon="6.20727">
        <ele>678</ele>
      </trkpt>
      <trkpt lat="43.81456" lon="6.2073">
        <ele>678</ele>
      </trkpt>
      <trkpt lat="43.81465" lon="6.20733">
        <ele>677</ele>
      </trkpt>
      <trkpt lat="43.81475" lon="6.20736">
        <ele>677</ele>
      </trkpt>
      <trkpt lat="43.81479" lon="6.20737">
        <ele>677</ele>
      </trkpt>
      <trkpt lat="43.8149" lon="6.2074">
        <ele>678</ele>
      </trkpt>
      <trkpt lat="43.815" lon="6.20741">
        <ele>678</ele>
      </trkpt>
      <trkpt lat="43.81507" lon="6.20738">
        <ele>677</ele>
      </trkpt>
      <trkpt lat="43.81514" lon="6.20733">
        <ele>676</ele>
      </trkpt>
      <trkpt lat="43.81517" lon="6.2073">
        <ele>676</ele>
      </trkpt>
      <trkpt lat="43.81517" lon="6.20725">
        <ele>678</ele>
      </trkpt>
      <trkpt lat="43.81513" lon="6.20724">
        <ele>680</ele>
      </trkpt>
      <trkpt lat="43.8151" lon="6.20723">
        <ele>681</ele>
      </trkpt>
      <trkpt lat="43.81504" lon="6.20721">
        <ele>684</ele>
      </trkpt>
      <trkpt lat="43.81503" lon="6.2072">
        <ele>685</ele>
      </trkpt>
      <trkpt lat="43.81493" lon="6.20713">
        <ele>687</ele>
      </trkpt>
      <trkpt lat="43.81485" lon="6.20709">
        <ele>689</ele>
      </trkpt>
      <trkpt lat="43.81478" lon="6.20705">
        <ele>690</ele>
      </trkpt>
      <trkpt lat="43.81474" lon="6.20701">
        <ele>692</ele>
      </trkpt>
      <trkpt lat="43.81467" lon="6.20692">
        <ele>696</ele>
      </trkpt>
      <trkpt lat="43.81458" lon="6.20685">
        <ele>700</ele>
      </trkpt>
      <trkpt lat="43.8145" lon="6.20679">
        <ele>701</ele>
      </trkpt>
      <trkpt lat="43.81438" lon="6.20672">
        <ele>702</ele>
      </trkpt>
      <trkpt lat="43.81433" lon="6.20661">
        <ele>706</ele>
      </trkpt>
      <trkpt lat="43.81436" lon="6.20658">
        <ele>707</ele>
      </trkpt>
      <trkpt lat="43.81439" lon="6.20663">
        <ele>706</ele>
      </trkpt>
      <trkpt lat="43.81442" lon="6.20665">
        <ele>706</ele>
      </trkpt>
      <trkpt lat="43.81445" lon="6.20664">
        <ele>707</ele>
      </trkpt>
      <trkpt lat="43.81447" lon="6.20663">
        <ele>708</ele>
      </trkpt>
      <trkpt lat="43.81451" lon="6.20663">
        <ele>708</ele>
      </trkpt>
      <trkpt lat="43.81459" lon="6.20664">
        <ele>709</ele>
      </trkpt>
      <trkpt lat="43.81467" lon="6.20666">
        <ele>707</ele>
      </trkpt>
      <trkpt lat="43.8147" lon="6.20667">
        <ele>706</ele>
      </trkpt>
      <trkpt lat="43.81472" lon="6.20667">
        <ele>706</ele>
      </trkpt>
      <trkpt lat="43.81475" lon="6.20666">
        <ele>706</ele>
      </trkpt>
      <trkpt lat="43.81482" lon="6.20667">
        <ele>705</ele>
      </trkpt>
      <trkpt lat="43.8149" lon="6.20667">
        <ele>704</ele>
      </trkpt>
      <trkpt lat="43.81496" lon="6.20667">
        <ele>703</ele>
      </trkpt>
      <trkpt lat="43.81499" lon="6.20666">
        <ele>702</ele>
      </trkpt>
      <trkpt lat="43.81501" lon="6.20666">
        <ele>702</ele>
      </trkpt>
      <trkpt lat="43.81503" lon="6.20664">
        <ele>702</ele>
      </trkpt>
      <trkpt lat="43.81501" lon="6.20664">
        <ele>702</ele>
      </trkpt>
      <trkpt lat="43.81498" lon="6.20663">
        <ele>703</ele>
      </trkpt>
      <trkpt lat="43.8149" lon="6.20656">
        <ele>706</ele>
      </trkpt>
      <trkpt lat="43.81486" lon="6.20651">
        <ele>708</ele>
      </trkpt>
      <trkpt lat="43.81479" lon="6.20643">
        <ele>711</ele>
      </trkpt>
      <trkpt lat="43.81472" lon="6.20635">
        <ele>716</ele>
      </trkpt>
      <trkpt lat="43.8147" lon="6.20633">
        <ele>717</ele>
      </trkpt>
      <trkpt lat="43.81468" lon="6.20627">
        <ele>720</ele>
      </trkpt>
      <trkpt lat="43.81462" lon="6.2061">
        <ele>728</ele>
      </trkpt>
      <trkpt lat="43.81462" lon="6.20606">
        <ele>729</ele>
      </trkpt>
      <trkpt lat="43.81468" lon="6.20606">
        <ele>726</ele>
      </trkpt>
      <trkpt lat="43.81475" lon="6.2061">
        <ele>722</ele>
      </trkpt>
      <trkpt lat="43.81476" lon="6.2061">
        <ele>721</ele>
      </trkpt>
      <trkpt lat="43.81479" lon="6.2061">
        <ele>720</ele>
      </trkpt>
      <trkpt lat="43.8148" lon="6.20602">
        <ele>720</ele>
      </trkpt>
      <trkpt lat="43.81474" lon="6.20589">
        <ele>724</ele>
      </trkpt>
      <trkpt lat="43.81473" lon="6.20574">
        <ele>726</ele>
      </trkpt>
      <trkpt lat="43.81472" lon="6.2056">
        <ele>728</ele>
      </trkpt>
      <trkpt lat="43.81471" lon="6.20541">
        <ele>730</ele>
      </trkpt>
      <trkpt lat="43.81467" lon="6.2053">
        <ele>732</ele>
      </trkpt>
      <trkpt lat="43.81464" lon="6.20519">
        <ele>734</ele>
      </trkpt>
      <trkpt lat="43.81459" lon="6.20506">
        <ele>734</ele>
      </trkpt>
      <trkpt lat="43.81457" lon="6.20493">
        <ele>735</ele>
      </trkpt>
      <trkpt lat="43.81455" lon="6.20485">
        <ele>735</ele>
      </trkpt>
      <trkpt lat="43.81445" lon="6.20476">
        <ele>738</ele>
      </trkpt>
      <trkpt lat="43.8144" lon="6.20471">
        <ele>739</ele>
      </trkpt>
      <trkpt lat="43.81435" lon="6.20466">
        <ele>741</ele>
      </trkpt>
      <trkpt lat="43.81432" lon="6.20456">
        <ele>744</ele>
      </trkpt>
      <trkpt lat="43.81438" lon="6.20445">
        <ele>746</ele>
      </trkpt>
      <trkpt lat="43.81441" lon="6.20444">
        <ele>746</ele>
      </trkpt>
      <trkpt lat="43.81453" lon="6.20437">
        <ele>745</ele>
      </trkpt>
      <trkpt lat="43.81464" lon="6.20428">
        <ele>744</ele>
      </trkpt>
      <trkpt lat="43.81472" lon="6.2042">
        <ele>743</ele>
      </trkpt>
      <trkpt lat="43.81479" lon="6.20407">
        <ele>744</ele>
      </trkpt>
      <trkpt lat="43.81487" lon="6.20403">
        <ele>742</ele>
      </trkpt>
      <trkpt lat="43.81493" lon="6.20397">
        <ele>742</ele>
      </trkpt>
      <trkpt lat="43.81502" lon="6.2038">
        <ele>746</ele>
      </trkpt>
      <trkpt lat="43.81507" lon="6.20363">
        <ele>752</ele>
      </trkpt>
      <trkpt lat="43.81511" lon="6.20343">
        <ele>756</ele>
      </trkpt>
      <trkpt lat="43.81512" lon="6.20341">
        <ele>757</ele>
      </trkpt>
      <trkpt lat="43.81511" lon="6.2034">
        <ele>757</ele>
      </trkpt>
      <trkpt lat="43.81499" lon="6.20328">
        <ele>760</ele>
      </trkpt>
      <trkpt lat="43.81492" lon="6.20325">
        <ele>761</ele>
      </trkpt>
      <trkpt lat="43.81475" lon="6.20317">
        <ele>763</ele>
      </trkpt>
      <trkpt lat="43.81457" lon="6.20312">
        <ele>762</ele>
      </trkpt>
      <trkpt lat="43.81415" lon="6.20288">
        <ele>759</ele>
      </trkpt>
      <trkpt lat="43.81383" lon="6.20267">
        <ele>756</ele>
      </trkpt>
      <trkpt lat="43.81357" lon="6.20248">
        <ele>753</ele>
      </trkpt>
      <trkpt lat="43.81354" lon="6.20245">
        <ele>753</ele>
      </trkpt>
      <trkpt lat="43.81349" lon="6.20245">
        <ele>752</ele>
      </trkpt>
      <trkpt lat="43.81333" lon="6.20233">
        <ele>751</ele>
      </trkpt>
      <trkpt lat="43.81315" lon="6.20223">
        <ele>749</ele>
      </trkpt>
      <trkpt lat="43.81291" lon="6.20207">
        <ele>745</ele>
      </trkpt>
      <trkpt lat="43.81261" lon="6.20176">
        <ele>740</ele>
      </trkpt>
      <trkpt lat="43.81256" lon="6.20172">
        <ele>740</ele>
      </trkpt>
      <trkpt lat="43.8123" lon="6.20163">
        <ele>740</ele>
      </trkpt>
      <trkpt lat="43.81201" lon="6.20154">
        <ele>740</ele>
      </trkpt>
      <trkpt lat="43.81179" lon="6.20142">
        <ele>739</ele>
      </trkpt>
      <trkpt lat="43.8116" lon="6.20127">
        <ele>740</ele>
      </trkpt>
      <trkpt lat="43.81139" lon="6.20103">
        <ele>744</ele>
      </trkpt>
      <trkpt lat="43.81123" lon="6.2009">
        <ele>745</ele>
      </trkpt>
      <trkpt lat="43.81089" lon="6.20048">
        <ele>742</ele>
      </trkpt>
      <trkpt lat="43.81068" lon="6.20017">
        <ele>744</ele>
      </trkpt>
      <trkpt lat="43.8105" lon="6.20004">
        <ele>742</ele>
      </trkpt>
      <trkpt lat="43.81012" lon="6.20001">
        <ele>738</ele>
      </trkpt>
      <trkpt lat="43.80962" lon="6.19998">
        <ele>733</ele>
      </trkpt>
      <trkpt lat="43.80907" lon="6.20003">
        <ele>731</ele>
      </trkpt>
      <trkpt lat="43.80885" lon="6.20007">
        <ele>732</ele>
      </trkpt>
      <trkpt lat="43.80868" lon="6.20006">
        <ele>734</ele>
      </trkpt>
      <trkpt lat="43.8085" lon="6.1999">
        <ele>737</ele>
      </trkpt>
      <trkpt lat="43.80842" lon="6.19962">
        <ele>739</ele>
      </trkpt>
      <trkpt lat="43.8083" lon="6.19906">
        <ele>740</ele>
      </trkpt>
      <trkpt lat="43.80815" lon="6.19837">
        <ele>737</ele>
      </trkpt>
      <trkpt lat="43.80791" lon="6.19741">
        <ele>734</ele>
      </trkpt>
      <trkpt lat="43.80785" lon="6.19711">
        <ele>733</ele>
      </trkpt>
      <trkpt lat="43.80784" lon="6.19669">
        <ele>732</ele>
      </trkpt>
      <trkpt lat="43.80792" lon="6.19628">
        <ele>732</ele>
      </trkpt>
      <trkpt lat="43.80807" lon="6.19547">
        <ele>729</ele>
      </trkpt>
      <trkpt lat="43.80821" lon="6.1947">
        <ele>727</ele>
      </trkpt>
      <trkpt lat="43.80831" lon="6.19411">
        <ele>723</ele>
      </trkpt>
      <trkpt lat="43.80844" lon="6.1938">
        <ele>720</ele>
      </trkpt>
      <trkpt lat="43.8085" lon="6.19374">
        <ele>720</ele>
      </trkpt>
      <trkpt lat="43.80882" lon="6.19343">
        <ele>721</ele>
      </trkpt>
      <trkpt lat="43.80894" lon="6.19333">
        <ele>723</ele>
      </trkpt>
      <trkpt lat="43.80903" lon="6.1933">
        <ele>724</ele>
      </trkpt>
      <trkpt lat="43.80909" lon="6.19313">
        <ele>725</ele>
      </trkpt>
      <trkpt lat="43.80921" lon="6.19294">
        <ele>726</ele>
      </trkpt>
      <trkpt lat="43.80921" lon="6.19277">
        <ele>726</ele>
      </trkpt>
      <trkpt lat="43.80916" lon="6.19264">
        <ele>726</ele>
      </trkpt>
      <trkpt lat="43.80908" lon="6.19222">
        <ele>725</ele>
      </trkpt>
      <trkpt lat="43.80909" lon="6.19214">
        <ele>725</ele>
      </trkpt>
      <trkpt lat="43.80917" lon="6.19188">
        <ele>725</ele>
      </trkpt>
      <trkpt lat="43.80929" lon="6.19148">
        <ele>725</ele>
      </trkpt>
      <trkpt lat="43.80946" lon="6.19089">
        <ele>724</ele>
      </trkpt>
      <trkpt lat="43.80969" lon="6.19008">
        <ele>721</ele>
      </trkpt>
      <trkpt lat="43.80989" lon="6.18939">
        <ele>719</ele>
      </trkpt>
      <trkpt lat="43.81008" lon="6.18868">
        <ele>719</ele>
      </trkpt>
      <trkpt lat="43.81026" lon="6.18799">
        <ele>718</ele>
      </trkpt>
      <trkpt lat="43.81037" lon="6.18755">
        <ele>717</ele>
      </trkpt>
      <trkpt lat="43.81037" lon="6.18736">
        <ele>717</ele>
      </trkpt>
      <trkpt lat="43.81039" lon="6.18723">
        <ele>717</ele>
      </trkpt>
      <trkpt lat="43.81044" lon="6.18702">
        <ele>716</ele>
      </trkpt>
      <trkpt lat="43.81049" lon="6.1866">
        <ele>715</ele>
      </trkpt>
      <trkpt lat="43.81055" lon="6.18598">
        <ele>714</ele>
      </trkpt>
      <trkpt lat="43.81059" lon="6.18559">
        <ele>713</ele>
      </trkpt>
      <trkpt lat="43.8106" lon="6.18554">
        <ele>713</ele>
      </trkpt>
      <trkpt lat="43.81053" lon="6.18543">
        <ele>712</ele>
      </trkpt>
      <trkpt lat="43.81041" lon="6.18536">
        <ele>711</ele>
      </trkpt>
      <trkpt lat="43.81006" lon="6.185">
        <ele>710</ele>
      </trkpt>
      <trkpt lat="43.80968" lon="6.18462">
        <ele>708</ele>
      </trkpt>
      <trkpt lat="43.80927" lon="6.18424">
        <ele>706</ele>
      </trkpt>
      <trkpt lat="43.80867" lon="6.18364">
        <ele>704</ele>
      </trkpt>
      <trkpt lat="43.80797" lon="6.18297">
        <ele>701</ele>
      </trkpt>
      <trkpt lat="43.80761" lon="6.18271">
        <ele>700</ele>
      </trkpt>
      <trkpt lat="43.80705" lon="6.18244">
        <ele>699</ele>
      </trkpt>
      <trkpt lat="43.80699" lon="6.18242">
        <ele>699</ele>
      </trkpt>
      <trkpt lat="43.8068" lon="6.18237">
        <ele>699</ele>
      </trkpt>
      <trkpt lat="43.80673" lon="6.18233">
        <ele>699</ele>
      </trkpt>
      <trkpt lat="43.80656" lon="6.18223">
        <ele>699</ele>
      </trkpt>
      <trkpt lat="43.80609" lon="6.18205">
        <ele>697</ele>
      </trkpt>
      <trkpt lat="43.80569" lon="6.18189">
        <ele>696</ele>
      </trkpt>
      <trkpt lat="43.80515" lon="6.18168">
        <ele>695</ele>
      </trkpt>
      <trkpt lat="43.80509" lon="6.18165">
        <ele>695</ele>
      </trkpt>
      <trkpt lat="43.80485" lon="6.18142">
        <ele>695</ele>
      </trkpt>
      <trkpt lat="43.80481" lon="6.18135">
        <ele>694</ele>
      </trkpt>
      <trkpt lat="43.80466" lon="6.18094">
        <ele>694</ele>
      </trkpt>
      <trkpt lat="43.80448" lon="6.18046">
        <ele>693</ele>
      </trkpt>
      <trkpt lat="43.8042" lon="6.17984">
        <ele>693</ele>
      </trkpt>
      <trkpt lat="43.80391" lon="6.17932">
        <ele>692</ele>
      </trkpt>
      <trkpt lat="43.8036" lon="6.17878">
        <ele>692</ele>
      </trkpt>
      <trkpt lat="43.80314" lon="6.17817">
        <ele>693</ele>
      </trkpt>
      <trkpt lat="43.80272" lon="6.17764">
        <ele>693</ele>
      </trkpt>
      <trkpt lat="43.80233" lon="6.1771">
        <ele>693</ele>
      </trkpt>
      <trkpt lat="43.80219" lon="6.17694">
        <ele>692</ele>
      </trkpt>
      <trkpt lat="43.80188" lon="6.17653">
        <ele>692</ele>
      </trkpt>
      <trkpt lat="43.80147" lon="6.17587">
        <ele>691</ele>
      </trkpt>
      <trkpt lat="43.80119" lon="6.1754">
        <ele>690</ele>
      </trkpt>
      <trkpt lat="43.80082" lon="6.1748">
        <ele>689</ele>
      </trkpt>
      <trkpt lat="43.80053" lon="6.17432">
        <ele>688</ele>
      </trkpt>
      <trkpt lat="43.80012" lon="6.17366">
        <ele>687</ele>
      </trkpt>
      <trkpt lat="43.79988" lon="6.17324">
        <ele>687</ele>
      </trkpt>
      <trkpt lat="43.79962" lon="6.17272">
        <ele>686</ele>
      </trkpt>
      <trkpt lat="43.79934" lon="6.17211">
        <ele>685</ele>
      </trkpt>
      <trkpt lat="43.79897" lon="6.17136">
        <ele>684</ele>
      </trkpt>
      <trkpt lat="43.7986" lon="6.17064">
        <ele>683</ele>
      </trkpt>
      <trkpt lat="43.79827" lon="6.17001">
        <ele>682</ele>
      </trkpt>
      <trkpt lat="43.798" lon="6.16944">
        <ele>681</ele>
      </trkpt>
      <trkpt lat="43.79796" lon="6.16935">
        <ele>681</ele>
      </trkpt>
      <trkpt lat="43.79794" lon="6.16931">
        <ele>681</ele>
      </trkpt>
      <trkpt lat="43.79793" lon="6.16929">
        <ele>681</ele>
      </trkpt>
      <trkpt lat="43.79786" lon="6.16917">
        <ele>680</ele>
      </trkpt>
      <trkpt lat="43.7977" lon="6.16888">
        <ele>680</ele>
      </trkpt>
      <trkpt lat="43.79751" lon="6.16846">
        <ele>679</ele>
      </trkpt>
      <trkpt lat="43.79732" lon="6.16799">
        <ele>679</ele>
      </trkpt>
      <trkpt lat="43.79703" lon="6.16724">
        <ele>678</ele>
      </trkpt>
      <trkpt lat="43.79683" lon="6.16674">
        <ele>678</ele>
      </trkpt>
      <trkpt lat="43.79674" lon="6.16654">
        <ele>677</ele>
      </trkpt>
      <trkpt lat="43.79649" lon="6.16594">
        <ele>677</ele>
      </trkpt>
      <trkpt lat="43.79624" lon="6.16532">
        <ele>676</ele>
      </trkpt>
      <trkpt lat="43.79591" lon="6.16456">
        <ele>675</ele>
      </trkpt>
      <trkpt lat="43.79563" lon="6.16399">
        <ele>675</ele>
      </trkpt>
      <trkpt lat="43.79545" lon="6.16366">
        <ele>675</ele>
      </trkpt>
      <trkpt lat="43.79518" lon="6.1631">
        <ele>675</ele>
      </trkpt>
      <trkpt lat="43.79492" lon="6.16264">
        <ele>674</ele>
      </trkpt>
      <trkpt lat="43.7947" lon="6.16221">
        <ele>674</ele>
      </trkpt>
      <trkpt lat="43.79447" lon="6.16183">
        <ele>673</ele>
      </trkpt>
      <trkpt lat="43.7942" lon="6.16139">
        <ele>672</ele>
      </trkpt>
      <trkpt lat="43.79383" lon="6.16077">
        <ele>672</ele>
      </trkpt>
      <trkpt lat="43.79344" lon="6.16015">
        <ele>671</ele>
      </trkpt>
      <trkpt lat="43.79315" lon="6.15963">
        <ele>670</ele>
      </trkpt>
      <trkpt lat="43.7928" lon="6.15895">
        <ele>668</ele>
      </trkpt>
      <trkpt lat="43.79251" lon="6.1584">
        <ele>667</ele>
      </trkpt>
      <trkpt lat="43.79211" lon="6.15763">
        <ele>666</ele>
      </trkpt>
      <trkpt lat="43.79178" lon="6.15699">
        <ele>664</ele>
      </trkpt>
      <trkpt lat="43.79147" lon="6.15636">
        <ele>662</ele>
      </trkpt>
      <trkpt lat="43.79124" lon="6.15589">
        <ele>661</ele>
      </trkpt>
      <trkpt lat="43.79118" lon="6.15582">
        <ele>661</ele>
      </trkpt>
      <trkpt lat="43.79113" lon="6.15573">
        <ele>661</ele>
      </trkpt>
      <trkpt lat="43.79106" lon="6.15559">
        <ele>661</ele>
      </trkpt>
      <trkpt lat="43.79091" lon="6.15527">
        <ele>660</ele>
      </trkpt>
      <trkpt lat="43.79067" lon="6.15483">
        <ele>660</ele>
      </trkpt>
      <trkpt lat="43.79043" lon="6.15435">
        <ele>660</ele>
      </trkpt>
      <trkpt lat="43.79041" lon="6.15429">
        <ele>660</ele>
      </trkpt>
      <trkpt lat="43.79012" lon="6.15376">
        <ele>659</ele>
      </trkpt>
      <trkpt lat="43.78989" lon="6.15327">
        <ele>658</ele>
      </trkpt>
      <trkpt lat="43.78974" lon="6.15301">
        <ele>657</ele>
      </trkpt>
      <trkpt lat="43.78967" lon="6.15303">
        <ele>656</ele>
      </trkpt>
      <trkpt lat="43.78965" lon="6.1531">
        <ele>656</ele>
      </trkpt>
      <trkpt lat="43.7896" lon="6.15353">
        <ele>657</ele>
      </trkpt>
      <trkpt lat="43.78952" lon="6.15391">
        <ele>656</ele>
      </trkpt>
      <trkpt lat="43.78946" lon="6.15419">
        <ele>656</ele>
      </trkpt>
      <trkpt lat="43.78941" lon="6.1545">
        <ele>655</ele>
      </trkpt>
      <trkpt lat="43.78937" lon="6.15468">
        <ele>655</ele>
      </trkpt>
      <trkpt lat="43.78932" lon="6.15477">
        <ele>655</ele>
      </trkpt>
      <trkpt lat="43.78924" lon="6.15491">
        <ele>655</ele>
      </trkpt>
      <trkpt lat="43.78918" lon="6.15505">
        <ele>655</ele>
      </trkpt>
      <trkpt lat="43.7891" lon="6.15527">
        <ele>656</ele>
      </trkpt>
      <trkpt lat="43.78903" lon="6.15549">
        <ele>656</ele>
      </trkpt>
      <trkpt lat="43.78892" lon="6.15584">
        <ele>657</ele>
      </trkpt>
      <trkpt lat="43.7888" lon="6.15611">
        <ele>657</ele>
      </trkpt>
      <trkpt lat="43.78868" lon="6.15626">
        <ele>657</ele>
      </trkpt>
      <trkpt lat="43.78856" lon="6.15638">
        <ele>657</ele>
      </trkpt>
      <trkpt lat="43.78844" lon="6.15647">
        <ele>657</ele>
      </trkpt>
      <trkpt lat="43.78836" lon="6.15655">
        <ele>657</ele>
      </trkpt>
      <trkpt lat="43.78834" lon="6.15657">
        <ele>657</ele>
      </trkpt>
      <trkpt lat="43.7882" lon="6.15655">
        <ele>657</ele>
      </trkpt>
      <trkpt lat="43.78817" lon="6.15649">
        <ele>657</ele>
      </trkpt>
      <trkpt lat="43.78801" lon="6.15621">
        <ele>657</ele>
      </trkpt>
      <trkpt lat="43.78789" lon="6.15598">
        <ele>656</ele>
      </trkpt>
      <trkpt lat="43.78773" lon="6.15573">
        <ele>656</ele>
      </trkpt>
      <trkpt lat="43.78761" lon="6.15549">
        <ele>655</ele>
      </trkpt>
      <trkpt lat="43.78747" lon="6.15524">
        <ele>654</ele>
      </trkpt>
      <trkpt lat="43.78734" lon="6.155">
        <ele>653</ele>
      </trkpt>
      <trkpt lat="43.78721" lon="6.15483">
        <ele>653</ele>
      </trkpt>
      <trkpt lat="43.78711" lon="6.15465">
        <ele>653</ele>
      </trkpt>
      <trkpt lat="43.78711" lon="6.1545">
        <ele>653</ele>
      </trkpt>
      <trkpt lat="43.78717" lon="6.15424">
        <ele>652</ele>
      </trkpt>
      <trkpt lat="43.78726" lon="6.15392">
        <ele>651</ele>
      </trkpt>
      <trkpt lat="43.78735" lon="6.15364">
        <ele>651</ele>
      </trkpt>
      <trkpt lat="43.78743" lon="6.15353">
        <ele>651</ele>
      </trkpt>
      <trkpt lat="43.78752" lon="6.15335">
        <ele>651</ele>
      </trkpt>
      <trkpt lat="43.78762" lon="6.153">
        <ele>650</ele>
      </trkpt>
      <trkpt lat="43.78774" lon="6.15261">
        <ele>650</ele>
      </trkpt>
      <trkpt lat="43.78781" lon="6.15242">
        <ele>650</ele>
      </trkpt>
      <trkpt lat="43.78779" lon="6.15211">
        <ele>650</ele>
      </trkpt>
      <trkpt lat="43.78777" lon="6.15181">
        <ele>650</ele>
      </trkpt>
      <trkpt lat="43.78775" lon="6.15148">
        <ele>651</ele>
      </trkpt>
      <trkpt lat="43.78771" lon="6.15122">
        <ele>651</ele>
      </trkpt>
      <trkpt lat="43.78761" lon="6.15095">
        <ele>651</ele>
      </trkpt>
      <trkpt lat="43.78752" lon="6.15059">
        <ele>650</ele>
      </trkpt>
      <trkpt lat="43.7874" lon="6.15027">
        <ele>650</ele>
      </trkpt>
      <trkpt lat="43.78718" lon="6.14987">
        <ele>650</ele>
      </trkpt>
      <trkpt lat="43.78697" lon="6.1495">
        <ele>650</ele>
      </trkpt>
      <trkpt lat="43.78687" lon="6.14916">
        <ele>650</ele>
      </trkpt>
      <trkpt lat="43.78682" lon="6.14878">
        <ele>649</ele>
      </trkpt>
      <trkpt lat="43.78682" lon="6.14857">
        <ele>648</ele>
      </trkpt>
      <trkpt lat="43.78684" lon="6.14842">
        <ele>647</ele>
      </trkpt>
      <trkpt lat="43.78692" lon="6.14831">
        <ele>646</ele>
      </trkpt>
      <trkpt lat="43.78698" lon="6.14823">
        <ele>646</ele>
      </trkpt>
      <trkpt lat="43.78693" lon="6.14811">
        <ele>646</ele>
      </trkpt>
      <trkpt lat="43.78673" lon="6.14796">
        <ele>647</ele>
      </trkpt>
      <trkpt lat="43.78655" lon="6.14798">
        <ele>647</ele>
      </trkpt>
      <trkpt lat="43.78638" lon="6.14812">
        <ele>649</ele>
      </trkpt>
      <trkpt lat="43.78618" lon="6.14827">
        <ele>650</ele>
      </trkpt>
      <trkpt lat="43.78594" lon="6.14836">
        <ele>650</ele>
      </trkpt>
      <trkpt lat="43.78579" lon="6.14841">
        <ele>650</ele>
      </trkpt>
      <trkpt lat="43.78554" lon="6.14848">
        <ele>650</ele>
      </trkpt>
      <trkpt lat="43.7853" lon="6.14855">
        <ele>650</ele>
      </trkpt>
      <trkpt lat="43.78499" lon="6.14864">
        <ele>651</ele>
      </trkpt>
      <trkpt lat="43.7847" lon="6.14873">
        <ele>652</ele>
      </trkpt>
      <trkpt lat="43.78444" lon="6.1488">
        <ele>652</ele>
      </trkpt>
      <trkpt lat="43.78416" lon="6.14888">
        <ele>652</ele>
      </trkpt>
      <trkpt lat="43.78391" lon="6.14894">
        <ele>652</ele>
      </trkpt>
      <trkpt lat="43.78366" lon="6.14901">
        <ele>652</ele>
      </trkpt>
      <trkpt lat="43.78332" lon="6.1491">
        <ele>652</ele>
      </trkpt>
      <trkpt lat="43.78299" lon="6.14926">
        <ele>652</ele>
      </trkpt>
      <trkpt lat="43.78269" lon="6.14938">
        <ele>652</ele>
      </trkpt>
      <trkpt lat="43.78236" lon="6.14949">
        <ele>651</ele>
      </trkpt>
      <trkpt lat="43.78211" lon="6.14954">
        <ele>651</ele>
      </trkpt>
      <trkpt lat="43.78192" lon="6.14957">
        <ele>651</ele>
      </trkpt>
      <trkpt lat="43.78163" lon="6.14962">
        <ele>651</ele>
      </trkpt>
      <trkpt lat="43.78159" lon="6.14963">
        <ele>651</ele>
      </trkpt>
      <trkpt lat="43.78142" lon="6.14968">
        <ele>651</ele>
      </trkpt>
      <trkpt lat="43.781" lon="6.14975">
        <ele>650</ele>
      </trkpt>
      <trkpt lat="43.78081" lon="6.14978">
        <ele>650</ele>
      </trkpt>
      <trkpt lat="43.78066" lon="6.14978">
        <ele>650</ele>
      </trkpt>
      <trkpt lat="43.78041" lon="6.14981">
        <ele>651</ele>
      </trkpt>
      <trkpt lat="43.78022" lon="6.14983">
        <ele>651</ele>
      </trkpt>
      <trkpt lat="43.77997" lon="6.14986">
        <ele>651</ele>
      </trkpt>
      <trkpt lat="43.77979" lon="6.14991">
        <ele>651</ele>
      </trkpt>
      <trkpt lat="43.77958" lon="6.14998">
        <ele>651</ele>
      </trkpt>
      <trkpt lat="43.77953" lon="6.14999">
        <ele>651</ele>
      </trkpt>
      <trkpt lat="43.77936" lon="6.15003">
        <ele>651</ele>
      </trkpt>
      <trkpt lat="43.77931" lon="6.15004">
        <ele>651</ele>
      </trkpt>
      <trkpt lat="43.77916" lon="6.15006">
        <ele>651</ele>
      </trkpt>
      <trkpt lat="43.77888" lon="6.15006">
        <ele>650</ele>
      </trkpt>
      <trkpt lat="43.7786" lon="6.15005">
        <ele>650</ele>
      </trkpt>
      <trkpt lat="43.7783" lon="6.15009">
        <ele>650</ele>
      </trkpt>
      <trkpt lat="43.77805" lon="6.15013">
        <ele>649</ele>
      </trkpt>
      <trkpt lat="43.7777" lon="6.15018">
        <ele>649</ele>
      </trkpt>
      <trkpt lat="43.77749" lon="6.15018">
        <ele>649</ele>
      </trkpt>
      <trkpt lat="43.77735" lon="6.15017">
        <ele>649</ele>
      </trkpt>
      <trkpt lat="43.77733" lon="6.15018">
        <ele>649</ele>
      </trkpt>
      <trkpt lat="43.77711" lon="6.15016">
        <ele>649</ele>
      </trkpt>
      <trkpt lat="43.77709" lon="6.15016">
        <ele>649</ele>
      </trkpt>
      <trkpt lat="43.7769" lon="6.15015">
        <ele>649</ele>
      </trkpt>
      <trkpt lat="43.77678" lon="6.15015">
        <ele>649</ele>
      </trkpt>
      <trkpt lat="43.77667" lon="6.15018">
        <ele>649</ele>
      </trkpt>
      <trkpt lat="43.7766" lon="6.1502">
        <ele>649</ele>
      </trkpt>
      <trkpt lat="43.77643" lon="6.1502">
        <ele>649</ele>
      </trkpt>
      <trkpt lat="43.77615" lon="6.15015">
        <ele>649</ele>
      </trkpt>
      <trkpt lat="43.77581" lon="6.15009">
        <ele>648</ele>
      </trkpt>
      <trkpt lat="43.77559" lon="6.15005">
        <ele>648</ele>
      </trkpt>
      <trkpt lat="43.77521" lon="6.14995">
        <ele>648</ele>
      </trkpt>
      <trkpt lat="43.775" lon="6.14987">
        <ele>648</ele>
      </trkpt>
      <trkpt lat="43.77473" lon="6.14971">
        <ele>648</ele>
      </trkpt>
      <trkpt lat="43.77436" lon="6.14952">
        <ele>647</ele>
      </trkpt>
      <trkpt lat="43.77391" lon="6.14932">
        <ele>646</ele>
      </trkpt>
      <trkpt lat="43.77345" lon="6.14911">
        <ele>646</ele>
      </trkpt>
      <trkpt lat="43.77304" lon="6.14898">
        <ele>646</ele>
      </trkpt>
      <trkpt lat="43.77261" lon="6.14892">
        <ele>645</ele>
      </trkpt>
      <trkpt lat="43.772" lon="6.14885">
        <ele>645</ele>
      </trkpt>
      <trkpt lat="43.77164" lon="6.1488">
        <ele>644</ele>
      </trkpt>
      <trkpt lat="43.7712" lon="6.14878">
        <ele>644</ele>
      </trkpt>
      <trkpt lat="43.77081" lon="6.14878">
        <ele>645</ele>
      </trkpt>
      <trkpt lat="43.77035" lon="6.14867">
        <ele>644</ele>
      </trkpt>
      <trkpt lat="43.77" lon="6.14862">
        <ele>644</ele>
      </trkpt>
      <trkpt lat="43.76963" lon="6.14864">
        <ele>644</ele>
      </trkpt>
      <trkpt lat="43.76928" lon="6.14865">
        <ele>643</ele>
      </trkpt>
      <trkpt lat="43.76895" lon="6.14867">
        <ele>644</ele>
      </trkpt>
      <trkpt lat="43.7688" lon="6.14867">
        <ele>643</ele>
      </trkpt>
      <trkpt lat="43.76857" lon="6.14866">
        <ele>643</ele>
      </trkpt>
      <trkpt lat="43.76827" lon="6.14852">
        <ele>643</ele>
      </trkpt>
      <trkpt lat="43.76798" lon="6.14834">
        <ele>643</ele>
      </trkpt>
      <trkpt lat="43.76759" lon="6.14811">
        <ele>642</ele>
      </trkpt>
      <trkpt lat="43.76707" lon="6.14785">
        <ele>643</ele>
      </trkpt>
      <trkpt lat="43.76657" lon="6.14757">
        <ele>643</ele>
      </trkpt>
      <trkpt lat="43.76617" lon="6.14737">
        <ele>643</ele>
      </trkpt>
      <trkpt lat="43.76567" lon="6.1471">
        <ele>643</ele>
      </trkpt>
      <trkpt lat="43.76535" lon="6.14692">
        <ele>643</ele>
      </trkpt>
      <trkpt lat="43.76506" lon="6.14678">
        <ele>643</ele>
      </trkpt>
      <trkpt lat="43.76482" lon="6.14665">
        <ele>643</ele>
      </trkpt>
      <trkpt lat="43.76461" lon="6.14662">
        <ele>643</ele>
      </trkpt>
      <trkpt lat="43.76438" lon="6.14682">
        <ele>643</ele>
      </trkpt>
      <trkpt lat="43.76404" lon="6.14715">
        <ele>642</ele>
      </trkpt>
      <trkpt lat="43.76363" lon="6.14755">
        <ele>640</ele>
      </trkpt>
      <trkpt lat="43.76345" lon="6.14771">
        <ele>638</ele>
      </trkpt>
      <trkpt lat="43.76315" lon="6.14783">
        <ele>634</ele>
      </trkpt>
      <trkpt lat="43.76295" lon="6.14779">
        <ele>632</ele>
      </trkpt>
      <trkpt lat="43.76293" lon="6.14778">
        <ele>632</ele>
      </trkpt>
      <trkpt lat="43.76291" lon="6.1478">
        <ele>631</ele>
      </trkpt>
      <trkpt lat="43.7628" lon="6.14777">
        <ele>630</ele>
      </trkpt>
      <trkpt lat="43.76264" lon="6.14766">
        <ele>630</ele>
      </trkpt>
      <trkpt lat="43.76251" lon="6.14754">
        <ele>631</ele>
      </trkpt>
      <trkpt lat="43.76218" lon="6.14723">
        <ele>634</ele>
      </trkpt>
      <trkpt lat="43.76178" lon="6.14708">
        <ele>627</ele>
      </trkpt>
      <trkpt lat="43.76153" lon="6.147">
        <ele>626</ele>
      </trkpt>
      <trkpt lat="43.76132" lon="6.14678">
        <ele>629</ele>
      </trkpt>
      <trkpt lat="43.76107" lon="6.14601">
        <ele>633</ele>
      </trkpt>
      <trkpt lat="43.76096" lon="6.14546">
        <ele>634</ele>
      </trkpt>
      <trkpt lat="43.76091" lon="6.14524">
        <ele>634</ele>
      </trkpt>
      <trkpt lat="43.76091" lon="6.14524">
        <ele>634</ele>
      </trkpt>
      <trkpt lat="43.76091" lon="6.14524">
        <ele>634</ele>
      </trkpt>
      <trkpt lat="43.76095" lon="6.1449">
        <ele>634</ele>
      </trkpt>
      <trkpt lat="43.76117" lon="6.14456">
        <ele>635</ele>
      </trkpt>
      <trkpt lat="43.76133" lon="6.14441">
        <ele>636</ele>
      </trkpt>
      <trkpt lat="43.76155" lon="6.14431">
        <ele>637</ele>
      </trkpt>
      <trkpt lat="43.76178" lon="6.14425">
        <ele>638</ele>
      </trkpt>
      <trkpt lat="43.76195" lon="6.14417">
        <ele>639</ele>
      </trkpt>
      <trkpt lat="43.76197" lon="6.14413">
        <ele>639</ele>
      </trkpt>
      <trkpt lat="43.76196" lon="6.14383">
        <ele>639</ele>
      </trkpt>
      <trkpt lat="43.76189" lon="6.14351">
        <ele>639</ele>
      </trkpt>
      <trkpt lat="43.76191" lon="6.14318">
        <ele>639</ele>
      </trkpt>
      <trkpt lat="43.76196" lon="6.14305">
        <ele>639</ele>
      </trkpt>
      <trkpt lat="43.76222" lon="6.14254">
        <ele>638</ele>
      </trkpt>
      <trkpt lat="43.76241" lon="6.14213">
        <ele>637</ele>
      </trkpt>
      <trkpt lat="43.76269" lon="6.14158">
        <ele>637</ele>
      </trkpt>
      <trkpt lat="43.76297" lon="6.14108">
        <ele>637</ele>
      </trkpt>
      <trkpt lat="43.76333" lon="6.14057">
        <ele>637</ele>
      </trkpt>
      <trkpt lat="43.76354" lon="6.14017">
        <ele>637</ele>
      </trkpt>
      <trkpt lat="43.76379" lon="6.13971">
        <ele>637</ele>
      </trkpt>
      <trkpt lat="43.76409" lon="6.13913">
        <ele>638</ele>
      </trkpt>
      <trkpt lat="43.76434" lon="6.13859">
        <ele>637</ele>
      </trkpt>
      <trkpt lat="43.76461" lon="6.13796">
        <ele>637</ele>
      </trkpt>
      <trkpt lat="43.76477" lon="6.13758">
        <ele>638</ele>
      </trkpt>
      <trkpt lat="43.76503" lon="6.13693">
        <ele>638</ele>
      </trkpt>
      <trkpt lat="43.76527" lon="6.13631">
        <ele>638</ele>
      </trkpt>
      <trkpt lat="43.76549" lon="6.13581">
        <ele>638</ele>
      </trkpt>
      <trkpt lat="43.76567" lon="6.13536">
        <ele>638</ele>
      </trkpt>
      <trkpt lat="43.76592" lon="6.13489">
        <ele>638</ele>
      </trkpt>
      <trkpt lat="43.76614" lon="6.13447">
        <ele>638</ele>
      </trkpt>
      <trkpt lat="43.76639" lon="6.13394">
        <ele>638</ele>
      </trkpt>
      <trkpt lat="43.76658" lon="6.13344">
        <ele>638</ele>
      </trkpt>
      <trkpt lat="43.7667" lon="6.13299">
        <ele>638</ele>
      </trkpt>
      <trkpt lat="43.76693" lon="6.13245">
        <ele>638</ele>
      </trkpt>
      <trkpt lat="43.76722" lon="6.13209">
        <ele>638</ele>
      </trkpt>
      <trkpt lat="43.76772" lon="6.13155">
        <ele>637</ele>
      </trkpt>
      <trkpt lat="43.7678" lon="6.13146">
        <ele>637</ele>
      </trkpt>
      <trkpt lat="43.76792" lon="6.13132">
        <ele>637</ele>
      </trkpt>
      <trkpt lat="43.76792" lon="6.13132">
        <ele>637</ele>
      </trkpt>
      <trkpt lat="43.76793" lon="6.13124">
        <ele>636</ele>
      </trkpt>
      <trkpt lat="43.76797" lon="6.13105">
        <ele>636</ele>
      </trkpt>
      <trkpt lat="43.76803" lon="6.13082">
        <ele>635</ele>
      </trkpt>
      <trkpt lat="43.76807" lon="6.13068">
        <ele>634</ele>
      </trkpt>
      <trkpt lat="43.76811" lon="6.13052">
        <ele>634</ele>
      </trkpt>
      <trkpt lat="43.76822" lon="6.13025">
        <ele>634</ele>
      </trkpt>
      <trkpt lat="43.7683" lon="6.13">
        <ele>631</ele>
      </trkpt>
      <trkpt lat="43.76835" lon="6.12981">
        <ele>629</ele>
      </trkpt>
      <trkpt lat="43.76834" lon="6.12977">
        <ele>629</ele>
      </trkpt>
      <trkpt lat="43.76843" lon="6.12974">
        <ele>630</ele>
      </trkpt>
      <trkpt lat="43.76855" lon="6.1295">
        <ele>629</ele>
      </trkpt>
      <trkpt lat="43.76857" lon="6.1293">
        <ele>626</ele>
      </trkpt>
      <trkpt lat="43.76857" lon="6.12918">
        <ele>624</ele>
      </trkpt>
      <trkpt lat="43.76852" lon="6.12913">
        <ele>623</ele>
      </trkpt>
      <trkpt lat="43.7685" lon="6.12912">
        <ele>622</ele>
      </trkpt>
      <trkpt lat="43.76847" lon="6.1291">
        <ele>621</ele>
      </trkpt>
      <trkpt lat="43.76853" lon="6.12896">
        <ele>620</ele>
      </trkpt>
      <trkpt lat="43.76865" lon="6.12875">
        <ele>616</ele>
      </trkpt>
      <trkpt lat="43.76884" lon="6.12854">
        <ele>608</ele>
      </trkpt>
      <trkpt lat="43.7691" lon="6.12838">
        <ele>604</ele>
      </trkpt>
      <trkpt lat="43.7694" lon="6.12815">
        <ele>596</ele>
      </trkpt>
      <trkpt lat="43.76945" lon="6.12811">
        <ele>595</ele>
      </trkpt>
      <trkpt lat="43.76973" lon="6.12804">
        <ele>592</ele>
      </trkpt>
      <trkpt lat="43.76976" lon="6.12803">
        <ele>592</ele>
      </trkpt>
      <trkpt lat="43.76984" lon="6.12791">
        <ele>593</ele>
      </trkpt>
      <trkpt lat="43.76976" lon="6.12769">
        <ele>592</ele>
      </trkpt>
      <trkpt lat="43.76966" lon="6.12749">
        <ele>591</ele>
      </trkpt>
      <trkpt lat="43.76958" lon="6.12724">
        <ele>591</ele>
      </trkpt>
      <trkpt lat="43.76957" lon="6.12706">
        <ele>591</ele>
      </trkpt>
      <trkpt lat="43.76953" lon="6.12663">
        <ele>590</ele>
      </trkpt>
      <trkpt lat="43.76947" lon="6.12636">
        <ele>588</ele>
      </trkpt>
      <trkpt lat="43.76941" lon="6.12612">
        <ele>585</ele>
      </trkpt>
      <trkpt lat="43.76938" lon="6.12585">
        <ele>584</ele>
      </trkpt>
      <trkpt lat="43.76936" lon="6.12571">
        <ele>584</ele>
      </trkpt>
      <trkpt lat="43.76934" lon="6.1255">
        <ele>585</ele>
      </trkpt>
      <trkpt lat="43.76926" lon="6.12521">
        <ele>584</ele>
      </trkpt>
      <trkpt lat="43.76923" lon="6.12487">
        <ele>584</ele>
      </trkpt>
      <trkpt lat="43.76921" lon="6.12469">
        <ele>584</ele>
      </trkpt>
      <trkpt lat="43.76902" lon="6.12432">
        <ele>582</ele>
      </trkpt>
      <trkpt lat="43.76887" lon="6.12413">
        <ele>579</ele>
      </trkpt>
      <trkpt lat="43.76856" lon="6.12369">
        <ele>576</ele>
      </trkpt>
      <trkpt lat="43.76846" lon="6.12355">
        <ele>573</ele>
      </trkpt>
      <trkpt lat="43.76821" lon="6.12323">
        <ele>573</ele>
      </trkpt>
      <trkpt lat="43.76795" lon="6.12281">
        <ele>570</ele>
      </trkpt>
      <trkpt lat="43.7679" lon="6.12276">
        <ele>570</ele>
      </trkpt>
      <trkpt lat="43.76757" lon="6.12244">
        <ele>569</ele>
      </trkpt>
      <trkpt lat="43.76726" lon="6.12209">
        <ele>567</ele>
      </trkpt>
      <trkpt lat="43.767" lon="6.12193">
        <ele>568</ele>
      </trkpt>
      <trkpt lat="43.76689" lon="6.12181">
        <ele>567</ele>
      </trkpt>
      <trkpt lat="43.76684" lon="6.12176">
        <ele>566</ele>
      </trkpt>
      <trkpt lat="43.76659" lon="6.12136">
        <ele>561</ele>
      </trkpt>
      <trkpt lat="43.76637" lon="6.12099">
        <ele>560</ele>
      </trkpt>
      <trkpt lat="43.76626" lon="6.12086">
        <ele>558</ele>
      </trkpt>
      <trkpt lat="43.76621" lon="6.1208">
        <ele>558</ele>
      </trkpt>
      <trkpt lat="43.76599" lon="6.12044">
        <ele>558</ele>
      </trkpt>
      <trkpt lat="43.76586" lon="6.12026">
        <ele>555</ele>
      </trkpt>
      <trkpt lat="43.76573" lon="6.12007">
        <ele>555</ele>
      </trkpt>
      <trkpt lat="43.76561" lon="6.11987">
        <ele>554</ele>
      </trkpt>
      <trkpt lat="43.76556" lon="6.11971">
        <ele>553</ele>
      </trkpt>
      <trkpt lat="43.76548" lon="6.11948">
        <ele>550</ele>
      </trkpt>
      <trkpt lat="43.76536" lon="6.11914">
        <ele>551</ele>
      </trkpt>
      <trkpt lat="43.76532" lon="6.11896">
        <ele>551</ele>
      </trkpt>
      <trkpt lat="43.76523" lon="6.11848">
        <ele>550</ele>
      </trkpt>
      <trkpt lat="43.76523" lon="6.1178">
        <ele>546</ele>
      </trkpt>
      <trkpt lat="43.76527" lon="6.11718">
        <ele>544</ele>
      </trkpt>
      <trkpt lat="43.76527" lon="6.11708">
        <ele>544</ele>
      </trkpt>
      <trkpt lat="43.76525" lon="6.1169">
        <ele>543</ele>
      </trkpt>
      <trkpt lat="43.76512" lon="6.11654">
        <ele>538</ele>
      </trkpt>
      <trkpt lat="43.76511" lon="6.11645">
        <ele>538</ele>
      </trkpt>
      <trkpt lat="43.76512" lon="6.11626">
        <ele>537</ele>
      </trkpt>
      <trkpt lat="43.76509" lon="6.11588">
        <ele>535</ele>
      </trkpt>
      <trkpt lat="43.76507" lon="6.11568">
        <ele>534</ele>
      </trkpt>
      <trkpt lat="43.76509" lon="6.1154">
        <ele>532</ele>
      </trkpt>
      <trkpt lat="43.76512" lon="6.11491">
        <ele>530</ele>
      </trkpt>
      <trkpt lat="43.76505" lon="6.11446">
        <ele>528</ele>
      </trkpt>
      <trkpt lat="43.76505" lon="6.11436">
        <ele>527</ele>
      </trkpt>
      <trkpt lat="43.76507" lon="6.11394">
        <ele>524</ele>
      </trkpt>
      <trkpt lat="43.76511" lon="6.11364">
        <ele>523</ele>
      </trkpt>
      <trkpt lat="43.7651" lon="6.11326">
        <ele>523</ele>
      </trkpt>
      <trkpt lat="43.76513" lon="6.11299">
        <ele>523</ele>
      </trkpt>
      <trkpt lat="43.76514" lon="6.1129">
        <ele>523</ele>
      </trkpt>
      <trkpt lat="43.76513" lon="6.11253">
        <ele>524</ele>
      </trkpt>
      <trkpt lat="43.76506" lon="6.112">
        <ele>523</ele>
      </trkpt>
      <trkpt lat="43.76505" lon="6.11158">
        <ele>520</ele>
      </trkpt>
      <trkpt lat="43.76491" lon="6.11117">
        <ele>518</ele>
      </trkpt>
      <trkpt lat="43.76486" lon="6.11112">
        <ele>518</ele>
      </trkpt>
      <trkpt lat="43.76473" lon="6.11104">
        <ele>518</ele>
      </trkpt>
      <trkpt lat="43.76456" lon="6.11085">
        <ele>517</ele>
      </trkpt>
      <trkpt lat="43.76424" lon="6.11058">
        <ele>514</ele>
      </trkpt>
      <trkpt lat="43.76396" lon="6.11039">
        <ele>510</ele>
      </trkpt>
      <trkpt lat="43.76367" lon="6.11025">
        <ele>507</ele>
      </trkpt>
      <trkpt lat="43.76359" lon="6.11024">
        <ele>506</ele>
      </trkpt>
      <trkpt lat="43.76344" lon="6.11023">
        <ele>505</ele>
      </trkpt>
      <trkpt lat="43.76317" lon="6.11039">
        <ele>507</ele>
      </trkpt>
      <trkpt lat="43.76282" lon="6.11052">
        <ele>507</ele>
      </trkpt>
      <trkpt lat="43.76274" lon="6.11055">
        <ele>506</ele>
      </trkpt>
      <trkpt lat="43.76246" lon="6.11054">
        <ele>504</ele>
      </trkpt>
      <trkpt lat="43.76239" lon="6.11051">
        <ele>503</ele>
      </trkpt>
      <trkpt lat="43.76219" lon="6.11027">
        <ele>500</ele>
      </trkpt>
      <trkpt lat="43.76212" lon="6.1102">
        <ele>499</ele>
      </trkpt>
      <trkpt lat="43.76198" lon="6.1101">
        <ele>499</ele>
      </trkpt>
      <trkpt lat="43.76186" lon="6.10995">
        <ele>498</ele>
      </trkpt>
      <trkpt lat="43.76174" lon="6.1098">
        <ele>498</ele>
      </trkpt>
      <trkpt lat="43.76165" lon="6.10971">
        <ele>498</ele>
      </trkpt>
      <trkpt lat="43.76148" lon="6.10958">
        <ele>496</ele>
      </trkpt>
      <trkpt lat="43.76126" lon="6.10948">
        <ele>494</ele>
      </trkpt>
      <trkpt lat="43.76101" lon="6.10945">
        <ele>490</ele>
      </trkpt>
      <trkpt lat="43.76059" lon="6.10944">
        <ele>486</ele>
      </trkpt>
      <trkpt lat="43.76032" lon="6.10959">
        <ele>488</ele>
      </trkpt>
      <trkpt lat="43.7602" lon="6.10971">
        <ele>490</ele>
      </trkpt>
      <trkpt lat="43.76008" lon="6.10971">
        <ele>489</ele>
      </trkpt>
      <trkpt lat="43.75982" lon="6.10966">
        <ele>485</ele>
      </trkpt>
      <trkpt lat="43.75961" lon="6.10963">
        <ele>483</ele>
      </trkpt>
      <trkpt lat="43.75936" lon="6.10974">
        <ele>483</ele>
      </trkpt>
      <trkpt lat="43.75901" lon="6.10983">
        <ele>482</ele>
      </trkpt>
      <trkpt lat="43.75869" lon="6.10999">
        <ele>481</ele>
      </trkpt>
      <trkpt lat="43.75857" lon="6.11">
        <ele>479</ele>
      </trkpt>
      <trkpt lat="43.75826" lon="6.11002">
        <ele>476</ele>
      </trkpt>
      <trkpt lat="43.758" lon="6.11001">
        <ele>473</ele>
      </trkpt>
      <trkpt lat="43.75784" lon="6.11003">
        <ele>472</ele>
      </trkpt>
      <trkpt lat="43.75771" lon="6.11011">
        <ele>472</ele>
      </trkpt>
      <trkpt lat="43.75755" lon="6.11014">
        <ele>469</ele>
      </trkpt>
      <trkpt lat="43.75714" lon="6.11005">
        <ele>460</ele>
      </trkpt>
      <trkpt lat="43.75677" lon="6.11019">
        <ele>459</ele>
      </trkpt>
      <trkpt lat="43.75665" lon="6.1102">
        <ele>459</ele>
      </trkpt>
      <trkpt lat="43.75663" lon="6.11013">
        <ele>459</ele>
      </trkpt>
      <trkpt lat="43.75639" lon="6.10992">
        <ele>458</ele>
      </trkpt>
      <trkpt lat="43.75626" lon="6.10985">
        <ele>457</ele>
      </trkpt>
      <trkpt lat="43.75611" lon="6.10978">
        <ele>455</ele>
      </trkpt>
      <trkpt lat="43.75594" lon="6.10969">
        <ele>453</ele>
      </trkpt>
      <trkpt lat="43.75562" lon="6.1095">
        <ele>449</ele>
      </trkpt>
      <trkpt lat="43.75541" lon="6.10937">
        <ele>447</ele>
      </trkpt>
      <trkpt lat="43.75492" lon="6.10923">
        <ele>444</ele>
      </trkpt>
      <trkpt lat="43.7547" lon="6.10918">
        <ele>442</ele>
      </trkpt>
      <trkpt lat="43.7545" lon="6.10907">
        <ele>440</ele>
      </trkpt>
      <trkpt lat="43.75445" lon="6.10899">
        <ele>440</ele>
      </trkpt>
      <trkpt lat="43.75426" lon="6.10868">
        <ele>438</ele>
      </trkpt>
      <trkpt lat="43.75399" lon="6.10847">
        <ele>437</ele>
      </trkpt>
      <trkpt lat="43.75379" lon="6.10831">
        <ele>436</ele>
      </trkpt>
      <trkpt lat="43.75362" lon="6.10826">
        <ele>435</ele>
      </trkpt>
      <trkpt lat="43.7533" lon="6.10817">
        <ele>433</ele>
      </trkpt>
      <trkpt lat="43.75318" lon="6.10806">
        <ele>432</ele>
      </trkpt>
      <trkpt lat="43.75298" lon="6.10791">
        <ele>429</ele>
      </trkpt>
      <trkpt lat="43.75284" lon="6.10781">
        <ele>427</ele>
      </trkpt>
      <trkpt lat="43.75253" lon="6.10768">
        <ele>424</ele>
      </trkpt>
      <trkpt lat="43.75209" lon="6.10758">
        <ele>422</ele>
      </trkpt>
      <trkpt lat="43.75185" lon="6.10763">
        <ele>422</ele>
      </trkpt>
      <trkpt lat="43.75177" lon="6.10764">
        <ele>421</ele>
      </trkpt>
      <trkpt lat="43.75124" lon="6.10762">
        <ele>419</ele>
      </trkpt>
      <trkpt lat="43.75116" lon="6.10762">
        <ele>419</ele>
      </trkpt>
      <trkpt lat="43.75083" lon="6.10779">
        <ele>419</ele>
      </trkpt>
      <trkpt lat="43.75054" lon="6.108">
        <ele>418</ele>
      </trkpt>
      <trkpt lat="43.75048" lon="6.10803">
        <ele>418</ele>
      </trkpt>
      <trkpt lat="43.75021" lon="6.10807">
        <ele>416</ele>
      </trkpt>
      <trkpt lat="43.74985" lon="6.10801">
        <ele>413</ele>
      </trkpt>
      <trkpt lat="43.74949" lon="6.10786">
        <ele>409</ele>
      </trkpt>
      <trkpt lat="43.74932" lon="6.10776">
        <ele>408</ele>
      </trkpt>
      <trkpt lat="43.74926" lon="6.10772">
        <ele>407</ele>
      </trkpt>
      <trkpt lat="43.74916" lon="6.10766">
        <ele>406</ele>
      </trkpt>
      <trkpt lat="43.74901" lon="6.10755">
        <ele>406</ele>
      </trkpt>
      <trkpt lat="43.74901" lon="6.10754">
        <ele>406</ele>
      </trkpt>
      <trkpt lat="43.74906" lon="6.10756">
        <ele>406</ele>
      </trkpt>
      <trkpt lat="43.749" lon="6.10751">
        <ele>406</ele>
      </trkpt>
      <trkpt lat="43.74892" lon="6.10745">
        <ele>406</ele>
      </trkpt>
      <trkpt lat="43.74869" lon="6.10727">
        <ele>405</ele>
      </trkpt>
      <trkpt lat="43.74861" lon="6.10723">
        <ele>405</ele>
      </trkpt>
      <trkpt lat="43.74836" lon="6.10712">
        <ele>406</ele>
      </trkpt>
      <trkpt lat="43.74807" lon="6.10703">
        <ele>405</ele>
      </trkpt>
      <trkpt lat="43.74772" lon="6.10687">
        <ele>405</ele>
      </trkpt>
      <trkpt lat="43.74735" lon="6.10672">
        <ele>405</ele>
      </trkpt>
      <trkpt lat="43.74725" lon="6.1067">
        <ele>404</ele>
      </trkpt>
      <trkpt lat="43.74715" lon="6.10666">
        <ele>404</ele>
      </trkpt>
      <trkpt lat="43.74698" lon="6.10647">
        <ele>404</ele>
      </trkpt>
      <trkpt lat="43.7469" lon="6.10617">
        <ele>408</ele>
      </trkpt>
      <trkpt lat="43.7469" lon="6.1061">
        <ele>409</ele>
      </trkpt>
      <trkpt lat="43.7469" lon="6.10573">
        <ele>413</ele>
      </trkpt>
      <trkpt lat="43.74691" lon="6.10555">
        <ele>413</ele>
      </trkpt>
      <trkpt lat="43.74693" lon="6.10531">
        <ele>414</ele>
      </trkpt>
      <trkpt lat="43.74691" lon="6.10495">
        <ele>413</ele>
      </trkpt>
      <trkpt lat="43.74689" lon="6.1049">
        <ele>413</ele>
      </trkpt>
      <trkpt lat="43.74678" lon="6.10443">
        <ele>411</ele>
      </trkpt>
      <trkpt lat="43.74677" lon="6.10437">
        <ele>412</ele>
      </trkpt>
      <trkpt lat="43.74677" lon="6.10404">
        <ele>414</ele>
      </trkpt>
      <trkpt lat="43.74677" lon="6.10395">
        <ele>415</ele>
      </trkpt>
      <trkpt lat="43.74666" lon="6.1038">
        <ele>413</ele>
      </trkpt>
      <trkpt lat="43.74658" lon="6.10377">
        <ele>412</ele>
      </trkpt>
      <trkpt lat="43.74655" lon="6.10378">
        <ele>411</ele>
      </trkpt>
      <trkpt lat="43.74651" lon="6.10379">
        <ele>411</ele>
      </trkpt>
      <trkpt lat="43.7464" lon="6.10377">
        <ele>409</ele>
      </trkpt>
      <trkpt lat="43.74626" lon="6.10381">
        <ele>406</ele>
      </trkpt>
      <trkpt lat="43.74613" lon="6.10387">
        <ele>405</ele>
      </trkpt>
      <trkpt lat="43.74606" lon="6.10383">
        <ele>407</ele>
      </trkpt>
      <trkpt lat="43.74607" lon="6.10369">
        <ele>410</ele>
      </trkpt>
      <trkpt lat="43.74611" lon="6.10366">
        <ele>410</ele>
      </trkpt>
      <trkpt lat="43.74625" lon="6.10354">
        <ele>411</ele>
      </trkpt>
      <trkpt lat="43.74643" lon="6.1034">
        <ele>415</ele>
      </trkpt>
      <trkpt lat="43.74654" lon="6.10322">
        <ele>417</ele>
      </trkpt>
      <trkpt lat="43.74667" lon="6.10293">
        <ele>419</ele>
      </trkpt>
      <trkpt lat="43.74676" lon="6.1027">
        <ele>421</ele>
      </trkpt>
      <trkpt lat="43.74678" lon="6.10252">
        <ele>423</ele>
      </trkpt>
      <trkpt lat="43.74682" lon="6.10228">
        <ele>425</ele>
      </trkpt>
      <trkpt lat="43.74687" lon="6.1021">
        <ele>426</ele>
      </trkpt>
      <trkpt lat="43.74695" lon="6.10183">
        <ele>427</ele>
      </trkpt>
      <trkpt lat="43.74696" lon="6.10147">
        <ele>426</ele>
      </trkpt>
      <trkpt lat="43.74695" lon="6.10132">
        <ele>425</ele>
      </trkpt>
      <trkpt lat="43.74698" lon="6.1011">
        <ele>424</ele>
      </trkpt>
      <trkpt lat="43.747" lon="6.10103">
        <ele>423</ele>
      </trkpt>
      <trkpt lat="43.74706" lon="6.10085">
        <ele>423</ele>
      </trkpt>
      <trkpt lat="43.74701" lon="6.10075">
        <ele>423</ele>
      </trkpt>
      <trkpt lat="43.74698" lon="6.10073">
        <ele>423</ele>
      </trkpt>
      <trkpt lat="43.74681" lon="6.10054">
        <ele>423</ele>
      </trkpt>
      <trkpt lat="43.7467" lon="6.10036">
        <ele>422</ele>
      </trkpt>
      <trkpt lat="43.74674" lon="6.10024">
        <ele>423</ele>
      </trkpt>
      <trkpt lat="43.74682" lon="6.10022">
        <ele>424</ele>
      </trkpt>
      <trkpt lat="43.74697" lon="6.10022">
        <ele>424</ele>
      </trkpt>
      <trkpt lat="43.74713" lon="6.10017">
        <ele>426</ele>
      </trkpt>
      <trkpt lat="43.74731" lon="6.10013">
        <ele>427</ele>
      </trkpt>
      <trkpt lat="43.7475" lon="6.10009">
        <ele>429</ele>
      </trkpt>
      <trkpt lat="43.74769" lon="6.10004">
        <ele>431</ele>
      </trkpt>
      <trkpt lat="43.74789" lon="6.09998">
        <ele>434</ele>
      </trkpt>
      <trkpt lat="43.74808" lon="6.09992">
        <ele>437</ele>
      </trkpt>
      <trkpt lat="43.74828" lon="6.09983">
        <ele>440</ele>
      </trkpt>
      <trkpt lat="43.74848" lon="6.09966">
        <ele>443</ele>
      </trkpt>
      <trkpt lat="43.74863" lon="6.09956">
        <ele>444</ele>
      </trkpt>
      <trkpt lat="43.74882" lon="6.09943">
        <ele>446</ele>
      </trkpt>
      <trkpt lat="43.74903" lon="6.09932">
        <ele>447</ele>
      </trkpt>
      <trkpt lat="43.74926" lon="6.0992">
        <ele>449</ele>
      </trkpt>
      <trkpt lat="43.74949" lon="6.09909">
        <ele>450</ele>
      </trkpt>
      <trkpt lat="43.74936" lon="6.09886">
        <ele>447</ele>
      </trkpt>
      <trkpt lat="43.74915" lon="6.09856">
        <ele>443</ele>
      </trkpt>
      <trkpt lat="43.74907" lon="6.09831">
        <ele>442</ele>
      </trkpt>
      <trkpt lat="43.74907" lon="6.09801">
        <ele>441</ele>
      </trkpt>
      <trkpt lat="43.74914" lon="6.09762">
        <ele>441</ele>
      </trkpt>
      <trkpt lat="43.7492" lon="6.09759">
        <ele>441</ele>
      </trkpt>
      <trkpt lat="43.74936" lon="6.09753">
        <ele>442</ele>
      </trkpt>
      <trkpt lat="43.74939" lon="6.09739">
        <ele>442</ele>
      </trkpt>
      <trkpt lat="43.74933" lon="6.09731">
        <ele>442</ele>
      </trkpt>
      <trkpt lat="43.74915" lon="6.09709">
        <ele>441</ele>
      </trkpt>
      <trkpt lat="43.74896" lon="6.09681">
        <ele>443</ele>
      </trkpt>
      <trkpt lat="43.74885" lon="6.0966">
        <ele>443</ele>
      </trkpt>
      <trkpt lat="43.74873" lon="6.09639">
        <ele>444</ele>
      </trkpt>
      <trkpt lat="43.74866" lon="6.09627">
        <ele>443</ele>
      </trkpt>
      <trkpt lat="43.74865" lon="6.09626">
        <ele>443</ele>
      </trkpt>
      <trkpt lat="43.7486" lon="6.09617">
        <ele>443</ele>
      </trkpt>
      <trkpt lat="43.74855" lon="6.096">
        <ele>443</ele>
      </trkpt>
      <trkpt lat="43.74854" lon="6.09595">
        <ele>443</ele>
      </trkpt>
      <trkpt lat="43.74841" lon="6.09544">
        <ele>443</ele>
      </trkpt>
      <trkpt lat="43.74839" lon="6.09538">
        <ele>443</ele>
      </trkpt>
      <trkpt lat="43.7482" lon="6.09499">
        <ele>442</ele>
      </trkpt>
      <trkpt lat="43.74813" lon="6.09475">
        <ele>442</ele>
      </trkpt>
      <trkpt lat="43.74809" lon="6.0945">
        <ele>441</ele>
      </trkpt>
      <trkpt lat="43.74799" lon="6.09391">
        <ele>439</ele>
      </trkpt>
      <trkpt lat="43.74797" lon="6.09353">
        <ele>437</ele>
      </trkpt>
      <trkpt lat="43.74804" lon="6.09321">
        <ele>435</ele>
      </trkpt>
      <trkpt lat="43.74817" lon="6.09282">
        <ele>433</ele>
      </trkpt>
      <trkpt lat="43.74817" lon="6.09271">
        <ele>433</ele>
      </trkpt>
      <trkpt lat="43.74807" lon="6.09244">
        <ele>431</ele>
      </trkpt>
      <trkpt lat="43.74796" lon="6.09224">
        <ele>430</ele>
      </trkpt>
      <trkpt lat="43.74786" lon="6.09195">
        <ele>429</ele>
      </trkpt>
      <trkpt lat="43.74785" lon="6.09177">
        <ele>429</ele>
      </trkpt>
      <trkpt lat="43.74792" lon="6.09153">
        <ele>428</ele>
      </trkpt>
      <trkpt lat="43.74801" lon="6.09136">
        <ele>428</ele>
      </trkpt>
      <trkpt lat="43.74804" lon="6.09135">
        <ele>428</ele>
      </trkpt>
      <trkpt lat="43.74805" lon="6.09137">
        <ele>428</ele>
      </trkpt>
      <trkpt lat="43.74815" lon="6.09128">
        <ele>428</ele>
      </trkpt>
      <trkpt lat="43.7482" lon="6.09122">
        <ele>428</ele>
      </trkpt>
      <trkpt lat="43.74839" lon="6.09116">
        <ele>430</ele>
      </trkpt>
      <trkpt lat="43.74856" lon="6.09114">
        <ele>431</ele>
      </trkpt>
      <trkpt lat="43.74875" lon="6.0911">
        <ele>433</ele>
      </trkpt>
      <trkpt lat="43.74879" lon="6.09111">
        <ele>434</ele>
      </trkpt>
      <trkpt lat="43.74886" lon="6.09127">
        <ele>434</ele>
      </trkpt>
      <trkpt lat="43.74895" lon="6.09136">
        <ele>435</ele>
      </trkpt>
      <trkpt lat="43.74899" lon="6.09136">
        <ele>436</ele>
      </trkpt>
      <trkpt lat="43.74903" lon="6.09135">
        <ele>436</ele>
      </trkpt>
      <trkpt lat="43.74912" lon="6.09122">
        <ele>438</ele>
      </trkpt>
      <trkpt lat="43.74915" lon="6.09101">
        <ele>439</ele>
      </trkpt>
      <trkpt lat="43.74918" lon="6.09085">
        <ele>441</ele>
      </trkpt>
      <trkpt lat="43.74927" lon="6.09068">
        <ele>444</ele>
      </trkpt>
      <trkpt lat="43.74929" lon="6.09057">
        <ele>446</ele>
      </trkpt>
      <trkpt lat="43.74929" lon="6.09054">
        <ele>446</ele>
      </trkpt>
      <trkpt lat="43.74927" lon="6.09044">
        <ele>446</ele>
      </trkpt>
      <trkpt lat="43.74929" lon="6.09023">
        <ele>448</ele>
      </trkpt>
      <trkpt lat="43.74932" lon="6.09006">
        <ele>451</ele>
      </trkpt>
      <trkpt lat="43.74938" lon="6.08989">
        <ele>454</ele>
      </trkpt>
      <trkpt lat="43.74942" lon="6.08983">
        <ele>454</ele>
      </trkpt>
      <trkpt lat="43.74948" lon="6.0897">
        <ele>455</ele>
      </trkpt>
      <trkpt lat="43.74962" lon="6.08947">
        <ele>458</ele>
      </trkpt>
      <trkpt lat="43.7497" lon="6.0893">
        <ele>459</ele>
      </trkpt>
      <trkpt lat="43.74971" lon="6.08915">
        <ele>459</ele>
      </trkpt>
      <trkpt lat="43.74971" lon="6.089">
        <ele>458</ele>
      </trkpt>
      <trkpt lat="43.74974" lon="6.08883">
        <ele>458</ele>
      </trkpt>
      <trkpt lat="43.74979" lon="6.08867">
        <ele>459</ele>
      </trkpt>
      <trkpt lat="43.74989" lon="6.08849">
        <ele>462</ele>
      </trkpt>
      <trkpt lat="43.74992" lon="6.08842">
        <ele>463</ele>
      </trkpt>
      <trkpt lat="43.74995" lon="6.08834">
        <ele>464</ele>
      </trkpt>
      <trkpt lat="43.74996" lon="6.08819">
        <ele>464</ele>
      </trkpt>
      <trkpt lat="43.74994" lon="6.08799">
        <ele>463</ele>
      </trkpt>
      <trkpt lat="43.74999" lon="6.08773">
        <ele>465</ele>
      </trkpt>
      <trkpt lat="43.75008" lon="6.08746">
        <ele>468</ele>
      </trkpt>
      <trkpt lat="43.75021" lon="6.08715">
        <ele>468</ele>
      </trkpt>
      <trkpt lat="43.75028" lon="6.08698">
        <ele>468</ele>
      </trkpt>
      <trkpt lat="43.75041" lon="6.08682">
        <ele>469</ele>
      </trkpt>
      <trkpt lat="43.75053" lon="6.08669">
        <ele>470</ele>
      </trkpt>
      <trkpt lat="43.75055" lon="6.08665">
        <ele>471</ele>
      </trkpt>
      <trkpt lat="43.75065" lon="6.08653">
        <ele>472</ele>
      </trkpt>
      <trkpt lat="43.75071" lon="6.08642">
        <ele>473</ele>
      </trkpt>
      <trkpt lat="43.75079" lon="6.08628">
        <ele>473</ele>
      </trkpt>
      <trkpt lat="43.75082" lon="6.08619">
        <ele>474</ele>
      </trkpt>
      <trkpt lat="43.75082" lon="6.08616">
        <ele>474</ele>
      </trkpt>
      <trkpt lat="43.7508" lon="6.08615">
        <ele>473</ele>
      </trkpt>
      <trkpt lat="43.75075" lon="6.08612">
        <ele>472</ele>
      </trkpt>
      <trkpt lat="43.75052" lon="6.08607">
        <ele>468</ele>
      </trkpt>
      <trkpt lat="43.75038" lon="6.08606">
        <ele>465</ele>
      </trkpt>
      <trkpt lat="43.75009" lon="6.08595">
        <ele>463</ele>
      </trkpt>
      <trkpt lat="43.74999" lon="6.08588">
        <ele>462</ele>
      </trkpt>
      <trkpt lat="43.74982" lon="6.08573">
        <ele>463</ele>
      </trkpt>
      <trkpt lat="43.74971" lon="6.08566">
        <ele>463</ele>
      </trkpt>
      <trkpt lat="43.74949" lon="6.0855">
        <ele>461</ele>
      </trkpt>
      <trkpt lat="43.74916" lon="6.08547">
        <ele>455</ele>
      </trkpt>
      <trkpt lat="43.74897" lon="6.08558">
        <ele>451</ele>
      </trkpt>
      <trkpt lat="43.74883" lon="6.0857">
        <ele>447</ele>
      </trkpt>
      <trkpt lat="43.74865" lon="6.0858">
        <ele>442</ele>
      </trkpt>
      <trkpt lat="43.74857" lon="6.08574">
        <ele>441</ele>
      </trkpt>
      <trkpt lat="43.7485" lon="6.08572">
        <ele>439</ele>
      </trkpt>
      <trkpt lat="43.74847" lon="6.08572">
        <ele>439</ele>
      </trkpt>
      <trkpt lat="43.7484" lon="6.08573">
        <ele>438</ele>
      </trkpt>
      <trkpt lat="43.7482" lon="6.0857">
        <ele>434</ele>
      </trkpt>
      <trkpt lat="43.74793" lon="6.08548">
        <ele>432</ele>
      </trkpt>
      <trkpt lat="43.74789" lon="6.08541">
        <ele>431</ele>
      </trkpt>
      <trkpt lat="43.74764" lon="6.0851">
        <ele>427</ele>
      </trkpt>
      <trkpt lat="43.74743" lon="6.08504">
        <ele>426</ele>
      </trkpt>
      <trkpt lat="43.74725" lon="6.08511">
        <ele>426</ele>
      </trkpt>
      <trkpt lat="43.7472" lon="6.08515">
        <ele>426</ele>
      </trkpt>
      <trkpt lat="43.74708" lon="6.08525">
        <ele>426</ele>
      </trkpt>
      <trkpt lat="43.74699" lon="6.08533">
        <ele>426</ele>
      </trkpt>
      <trkpt lat="43.74669" lon="6.08544">
        <ele>425</ele>
      </trkpt>
      <trkpt lat="43.74654" lon="6.08542">
        <ele>423</ele>
      </trkpt>
      <trkpt lat="43.7463" lon="6.08533">
        <ele>421</ele>
      </trkpt>
      <trkpt lat="43.74606" lon="6.08514">
        <ele>418</ele>
      </trkpt>
      <trkpt lat="43.74595" lon="6.08489">
        <ele>417</ele>
      </trkpt>
      <trkpt lat="43.7459" lon="6.08457">
        <ele>416</ele>
      </trkpt>
      <trkpt lat="43.74591" lon="6.08447">
        <ele>415</ele>
      </trkpt>
      <trkpt lat="43.746" lon="6.08421">
        <ele>416</ele>
      </trkpt>
      <trkpt lat="43.74604" lon="6.08415">
        <ele>416</ele>
      </trkpt>
      <trkpt lat="43.74608" lon="6.0841">
        <ele>415</ele>
      </trkpt>
      <trkpt lat="43.74623" lon="6.08397">
        <ele>414</ele>
      </trkpt>
      <trkpt lat="43.74634" lon="6.08387">
        <ele>413</ele>
      </trkpt>
      <trkpt lat="43.7464" lon="6.08388">
        <ele>413</ele>
      </trkpt>
      <trkpt lat="43.74654" lon="6.08374">
        <ele>411</ele>
      </trkpt>
      <trkpt lat="43.74663" lon="6.08352">
        <ele>408</ele>
      </trkpt>
      <trkpt lat="43.7466" lon="6.08326">
        <ele>410</ele>
      </trkpt>
      <trkpt lat="43.74648" lon="6.08312">
        <ele>410</ele>
      </trkpt>
      <trkpt lat="43.74623" lon="6.08296">
        <ele>407</ele>
      </trkpt>
      <trkpt lat="43.7461" lon="6.08281">
        <ele>405</ele>
      </trkpt>
      <trkpt lat="43.74602" lon="6.08252">
        <ele>406</ele>
      </trkpt>
      <trkpt lat="43.74606" lon="6.08222">
        <ele>409</ele>
      </trkpt>
      <trkpt lat="43.74619" lon="6.0821">
        <ele>411</ele>
      </trkpt>
      <trkpt lat="43.74632" lon="6.082">
        <ele>413</ele>
      </trkpt>
      <trkpt lat="43.74642" lon="6.0818">
        <ele>414</ele>
      </trkpt>
      <trkpt lat="43.74639" lon="6.08163">
        <ele>413</ele>
      </trkpt>
      <trkpt lat="43.74633" lon="6.08155">
        <ele>413</ele>
      </trkpt>
      <trkpt lat="43.74606" lon="6.08131">
        <ele>411</ele>
      </trkpt>
      <trkpt lat="43.74595" lon="6.08114">
        <ele>411</ele>
      </trkpt>
      <trkpt lat="43.74583" lon="6.08087">
        <ele>411</ele>
      </trkpt>
      <trkpt lat="43.74575" lon="6.08043">
        <ele>416</ele>
      </trkpt>
      <trkpt lat="43.74561" lon="6.0802">
        <ele>413</ele>
      </trkpt>
      <trkpt lat="43.74545" lon="6.08021">
        <ele>410</ele>
      </trkpt>
      <trkpt lat="43.7452" lon="6.08019">
        <ele>405</ele>
      </trkpt>
      <trkpt lat="43.74505" lon="6.08001">
        <ele>407</ele>
      </trkpt>
      <trkpt lat="43.74479" lon="6.07961">
        <ele>411</ele>
      </trkpt>
      <trkpt lat="43.74453" lon="6.07927">
        <ele>411</ele>
      </trkpt>
      <trkpt lat="43.74446" lon="6.07899">
        <ele>413</ele>
      </trkpt>
      <trkpt lat="43.74446" lon="6.07873">
        <ele>413</ele>
      </trkpt>
      <trkpt lat="43.74438" lon="6.07835">
        <ele>412</ele>
      </trkpt>
      <trkpt lat="43.74419" lon="6.07814">
        <ele>409</ele>
      </trkpt>
      <trkpt lat="43.74395" lon="6.07809">
        <ele>407</ele>
      </trkpt>
      <trkpt lat="43.74371" lon="6.07819">
        <ele>404</ele>
      </trkpt>
      <trkpt lat="43.7435" lon="6.07831">
        <ele>402</ele>
      </trkpt>
      <trkpt lat="43.74325" lon="6.07828">
        <ele>401</ele>
      </trkpt>
      <trkpt lat="43.74321" lon="6.07825">
        <ele>402</ele>
      </trkpt>
      <trkpt lat="43.74293" lon="6.07784">
        <ele>407</ele>
      </trkpt>
      <trkpt lat="43.74275" lon="6.07753">
        <ele>410</ele>
      </trkpt>
      <trkpt lat="43.74249" lon="6.07737">
        <ele>409</ele>
      </trkpt>
      <trkpt lat="43.74224" lon="6.07746">
        <ele>405</ele>
      </trkpt>
      <trkpt lat="43.7421" lon="6.0774">
        <ele>405</ele>
      </trkpt>
      <trkpt lat="43.74178" lon="6.07718">
        <ele>407</ele>
      </trkpt>
      <trkpt lat="43.74159" lon="6.07715">
        <ele>409</ele>
      </trkpt>
      <trkpt lat="43.74152" lon="6.0772">
        <ele>409</ele>
      </trkpt>
      <trkpt lat="43.74128" lon="6.07735">
        <ele>409</ele>
      </trkpt>
      <trkpt lat="43.74103" lon="6.07745">
        <ele>408</ele>
      </trkpt>
      <trkpt lat="43.7408" lon="6.07755">
        <ele>407</ele>
      </trkpt>
      <trkpt lat="43.74054" lon="6.07767">
        <ele>408</ele>
      </trkpt>
      <trkpt lat="43.7404" lon="6.07771">
        <ele>408</ele>
      </trkpt>
      <trkpt lat="43.74017" lon="6.0776">
        <ele>411</ele>
      </trkpt>
      <trkpt lat="43.74012" lon="6.07752">
        <ele>413</ele>
      </trkpt>
      <trkpt lat="43.73993" lon="6.07711">
        <ele>417</ele>
      </trkpt>
      <trkpt lat="43.73979" lon="6.07693">
        <ele>415</ele>
      </trkpt>
      <trkpt lat="43.73961" lon="6.07689">
        <ele>411</ele>
      </trkpt>
      <trkpt lat="43.73946" lon="6.07701">
        <ele>408</ele>
      </trkpt>
      <trkpt lat="43.73938" lon="6.0772">
        <ele>407</ele>
      </trkpt>
      <trkpt lat="43.73919" lon="6.07797">
        <ele>405</ele>
      </trkpt>
      <trkpt lat="43.73909" lon="6.07831">
        <ele>404</ele>
      </trkpt>
      <trkpt lat="43.73886" lon="6.07858">
        <ele>402</ele>
      </trkpt>
      <trkpt lat="43.73872" lon="6.0787">
        <ele>402</ele>
      </trkpt>
      <trkpt lat="43.73858" lon="6.07885">
        <ele>403</ele>
      </trkpt>
      <trkpt lat="43.73844" lon="6.07916">
        <ele>405</ele>
      </trkpt>
      <trkpt lat="43.73837" lon="6.0795">
        <ele>406</ele>
      </trkpt>
      <trkpt lat="43.73836" lon="6.07971">
        <ele>406</ele>
      </trkpt>
      <trkpt lat="43.73833" lon="6.08025">
        <ele>406</ele>
      </trkpt>
      <trkpt lat="43.73826" lon="6.08085">
        <ele>404</ele>
      </trkpt>
      <trkpt lat="43.73816" lon="6.08112">
        <ele>403</ele>
      </trkpt>
      <trkpt lat="43.73801" lon="6.08133">
        <ele>402</ele>
      </trkpt>
      <trkpt lat="43.73769" lon="6.08153">
        <ele>401</ele>
      </trkpt>
      <trkpt lat="43.73737" lon="6.08159">
        <ele>400</ele>
      </trkpt>
      <trkpt lat="43.73705" lon="6.08152">
        <ele>401</ele>
      </trkpt>
      <trkpt lat="43.73685" lon="6.08139">
        <ele>402</ele>
      </trkpt>
      <trkpt lat="43.73668" lon="6.08111">
        <ele>407</ele>
      </trkpt>
      <trkpt lat="43.73656" lon="6.08096">
        <ele>408</ele>
      </trkpt>
      <trkpt lat="43.73634" lon="6.08063">
        <ele>411</ele>
      </trkpt>
      <trkpt lat="43.73615" lon="6.08037">
        <ele>414</ele>
      </trkpt>
      <trkpt lat="43.73594" lon="6.07991">
        <ele>417</ele>
      </trkpt>
      <trkpt lat="43.73587" lon="6.07932">
        <ele>420</ele>
      </trkpt>
      <trkpt lat="43.7358" lon="6.07881">
        <ele>422</ele>
      </trkpt>
      <trkpt lat="43.73585" lon="6.07842">
        <ele>425</ele>
      </trkpt>
      <trkpt lat="43.73585" lon="6.07818">
        <ele>426</ele>
      </trkpt>
      <trkpt lat="43.73589" lon="6.07793">
        <ele>428</ele>
      </trkpt>
      <trkpt lat="43.73598" lon="6.07755">
        <ele>430</ele>
      </trkpt>
      <trkpt lat="43.73618" lon="6.07728">
        <ele>431</ele>
      </trkpt>
      <trkpt lat="43.73625" lon="6.07702">
        <ele>432</ele>
      </trkpt>
      <trkpt lat="43.73619" lon="6.07667">
        <ele>433</ele>
      </trkpt>
      <trkpt lat="43.73608" lon="6.07657">
        <ele>433</ele>
      </trkpt>
      <trkpt lat="43.73593" lon="6.07651">
        <ele>433</ele>
      </trkpt>
      <trkpt lat="43.73576" lon="6.07659">
        <ele>432</ele>
      </trkpt>
      <trkpt lat="43.73548" lon="6.07665">
        <ele>431</ele>
      </trkpt>
      <trkpt lat="43.73516" lon="6.07654">
        <ele>432</ele>
      </trkpt>
      <trkpt lat="43.73504" lon="6.07634">
        <ele>435</ele>
      </trkpt>
      <trkpt lat="43.73493" lon="6.07607">
        <ele>438</ele>
      </trkpt>
      <trkpt lat="43.73482" lon="6.07589">
        <ele>439</ele>
      </trkpt>
      <trkpt lat="43.73461" lon="6.07588">
        <ele>437</ele>
      </trkpt>
      <trkpt lat="43.73442" lon="6.07591">
        <ele>437</ele>
      </trkpt>
      <trkpt lat="43.73428" lon="6.07587">
        <ele>438</ele>
      </trkpt>
      <trkpt lat="43.73408" lon="6.07578">
        <ele>441</ele>
      </trkpt>
      <trkpt lat="43.73394" lon="6.07568">
        <ele>443</ele>
      </trkpt>
      <trkpt lat="43.73383" lon="6.07556">
        <ele>445</ele>
      </trkpt>
      <trkpt lat="43.73372" lon="6.07553">
        <ele>447</ele>
      </trkpt>
      <trkpt lat="43.73362" lon="6.07549">
        <ele>448</ele>
      </trkpt>
      <trkpt lat="43.73352" lon="6.07541">
        <ele>449</ele>
      </trkpt>
      <trkpt lat="43.73342" lon="6.07532">
        <ele>449</ele>
      </trkpt>
      <trkpt lat="43.73331" lon="6.07524">
        <ele>450</ele>
      </trkpt>
      <trkpt lat="43.7332" lon="6.07512">
        <ele>451</ele>
      </trkpt>
      <trkpt lat="43.73313" lon="6.07502">
        <ele>451</ele>
      </trkpt>
      <trkpt lat="43.73305" lon="6.07484">
        <ele>452</ele>
      </trkpt>
      <trkpt lat="43.73298" lon="6.0747">
        <ele>452</ele>
      </trkpt>
      <trkpt lat="43.73287" lon="6.07453">
        <ele>454</ele>
      </trkpt>
      <trkpt lat="43.73273" lon="6.07438">
        <ele>456</ele>
      </trkpt>
      <trkpt lat="43.73259" lon="6.0744">
        <ele>456</ele>
      </trkpt>
      <trkpt lat="43.73244" lon="6.0743">
        <ele>457</ele>
      </trkpt>
      <trkpt lat="43.73228" lon="6.07425">
        <ele>458</ele>
      </trkpt>
      <trkpt lat="43.73215" lon="6.07419">
        <ele>458</ele>
      </trkpt>
      <trkpt lat="43.73207" lon="6.07408">
        <ele>459</ele>
      </trkpt>
      <trkpt lat="43.73197" lon="6.07399">
        <ele>460</ele>
      </trkpt>
      <trkpt lat="43.73189" lon="6.0739">
        <ele>461</ele>
      </trkpt>
      <trkpt lat="43.73182" lon="6.07383">
        <ele>461</ele>
      </trkpt>
      <trkpt lat="43.73171" lon="6.0737">
        <ele>463</ele>
      </trkpt>
      <trkpt lat="43.73159" lon="6.07366">
        <ele>463</ele>
      </trkpt>
      <trkpt lat="43.73146" lon="6.07359">
        <ele>465</ele>
      </trkpt>
      <trkpt lat="43.73129" lon="6.07346">
        <ele>469</ele>
      </trkpt>
      <trkpt lat="43.73118" lon="6.07338">
        <ele>471</ele>
      </trkpt>
      <trkpt lat="43.731" lon="6.07319">
        <ele>474</ele>
      </trkpt>
      <trkpt lat="43.73062" lon="6.07288">
        <ele>474</ele>
      </trkpt>
      <trkpt lat="43.73036" lon="6.07259">
        <ele>472</ele>
      </trkpt>
      <trkpt lat="43.73021" lon="6.07243">
        <ele>472</ele>
      </trkpt>
      <trkpt lat="43.73004" lon="6.07223">
        <ele>473</ele>
      </trkpt>
      <trkpt lat="43.7299" lon="6.07212">
        <ele>474</ele>
      </trkpt>
      <trkpt lat="43.72975" lon="6.072">
        <ele>475</ele>
      </trkpt>
      <trkpt lat="43.7296" lon="6.07188">
        <ele>475</ele>
      </trkpt>
      <trkpt lat="43.72933" lon="6.07172">
        <ele>473</ele>
      </trkpt>
      <trkpt lat="43.72912" lon="6.07148">
        <ele>471</ele>
      </trkpt>
      <trkpt lat="43.72884" lon="6.07126">
        <ele>471</ele>
      </trkpt>
      <trkpt lat="43.72856" lon="6.0712">
        <ele>474</ele>
      </trkpt>
      <trkpt lat="43.72836" lon="6.07113">
        <ele>475</ele>
      </trkpt>
      <trkpt lat="43.72823" lon="6.07111">
        <ele>474</ele>
      </trkpt>
      <trkpt lat="43.72806" lon="6.07101">
        <ele>473</ele>
      </trkpt>
      <trkpt lat="43.72782" lon="6.07093">
        <ele>472</ele>
      </trkpt>
      <trkpt lat="43.72765" lon="6.07089">
        <ele>471</ele>
      </trkpt>
      <trkpt lat="43.72721" lon="6.07073">
        <ele>469</ele>
      </trkpt>
      <trkpt lat="43.72693" lon="6.07065">
        <ele>469</ele>
      </trkpt>
      <trkpt lat="43.72656" lon="6.07053">
        <ele>467</ele>
      </trkpt>
      <trkpt lat="43.72632" lon="6.07041">
        <ele>467</ele>
      </trkpt>
      <trkpt lat="43.72611" lon="6.07025">
        <ele>467</ele>
      </trkpt>
      <trkpt lat="43.72585" lon="6.06989">
        <ele>468</ele>
      </trkpt>
      <trkpt lat="43.72577" lon="6.06978">
        <ele>469</ele>
      </trkpt>
      <trkpt lat="43.72547" lon="6.06943">
        <ele>469</ele>
      </trkpt>
      <trkpt lat="43.72522" lon="6.06895">
        <ele>469</ele>
      </trkpt>
      <trkpt lat="43.72497" lon="6.06849">
        <ele>468</ele>
      </trkpt>
      <trkpt lat="43.72488" lon="6.06839">
        <ele>468</ele>
      </trkpt>
      <trkpt lat="43.72474" lon="6.06825">
        <ele>467</ele>
      </trkpt>
      <trkpt lat="43.72448" lon="6.06804">
        <ele>467</ele>
      </trkpt>
      <trkpt lat="43.72444" lon="6.06803">
        <ele>467</ele>
      </trkpt>
      <trkpt lat="43.72428" lon="6.06785">
        <ele>466</ele>
      </trkpt>
      <trkpt lat="43.72415" lon="6.06767">
        <ele>467</ele>
      </trkpt>
      <trkpt lat="43.72395" lon="6.06743">
        <ele>467</ele>
      </trkpt>
      <trkpt lat="43.72373" lon="6.06723">
        <ele>468</ele>
      </trkpt>
      <trkpt lat="43.72344" lon="6.067">
        <ele>469</ele>
      </trkpt>
      <trkpt lat="43.72336" lon="6.06693">
        <ele>469</ele>
      </trkpt>
      <trkpt lat="43.72305" lon="6.06663">
        <ele>470</ele>
      </trkpt>
      <trkpt lat="43.72268" lon="6.06615">
        <ele>472</ele>
      </trkpt>
      <trkpt lat="43.72246" lon="6.06587">
        <ele>472</ele>
      </trkpt>
      <trkpt lat="43.72223" lon="6.06535">
        <ele>473</ele>
      </trkpt>
      <trkpt lat="43.72218" lon="6.065">
        <ele>472</ele>
      </trkpt>
      <trkpt lat="43.72216" lon="6.0645">
        <ele>471</ele>
      </trkpt>
      <trkpt lat="43.72213" lon="6.06436">
        <ele>470</ele>
      </trkpt>
      <trkpt lat="43.72196" lon="6.06404">
        <ele>468</ele>
      </trkpt>
      <trkpt lat="43.7219" lon="6.06389">
        <ele>468</ele>
      </trkpt>
      <trkpt lat="43.72186" lon="6.06378">
        <ele>469</ele>
      </trkpt>
      <trkpt lat="43.72187" lon="6.06371">
        <ele>470</ele>
      </trkpt>
      <trkpt lat="43.72189" lon="6.06363">
        <ele>470</ele>
      </trkpt>
      <trkpt lat="43.72198" lon="6.06356">
        <ele>470</ele>
      </trkpt>
      <trkpt lat="43.72199" lon="6.06342">
        <ele>472</ele>
      </trkpt>
      <trkpt lat="43.72199" lon="6.06323">
        <ele>473</ele>
      </trkpt>
      <trkpt lat="43.72198" lon="6.06302">
        <ele>473</ele>
      </trkpt>
      <trkpt lat="43.72198" lon="6.0628">
        <ele>474</ele>
      </trkpt>
      <trkpt lat="43.722" lon="6.06258">
        <ele>476</ele>
      </trkpt>
      <trkpt lat="43.72202" lon="6.06245">
        <ele>477</ele>
      </trkpt>
      <trkpt lat="43.72205" lon="6.06231">
        <ele>478</ele>
      </trkpt>
      <trkpt lat="43.72209" lon="6.06216">
        <ele>480</ele>
      </trkpt>
      <trkpt lat="43.72211" lon="6.06193">
        <ele>481</ele>
      </trkpt>
      <trkpt lat="43.72213" lon="6.06173">
        <ele>483</ele>
      </trkpt>
      <trkpt lat="43.72217" lon="6.0616">
        <ele>484</ele>
      </trkpt>
      <trkpt lat="43.72221" lon="6.06142">
        <ele>485</ele>
      </trkpt>
      <trkpt lat="43.72226" lon="6.06128">
        <ele>487</ele>
      </trkpt>
      <trkpt lat="43.72232" lon="6.06111">
        <ele>489</ele>
      </trkpt>
      <trkpt lat="43.72241" lon="6.06101">
        <ele>490</ele>
      </trkpt>
      <trkpt lat="43.72249" lon="6.06089">
        <ele>491</ele>
      </trkpt>
      <trkpt lat="43.72262" lon="6.06075">
        <ele>492</ele>
      </trkpt>
      <trkpt lat="43.72279" lon="6.0606">
        <ele>492</ele>
      </trkpt>
      <trkpt lat="43.72298" lon="6.06046">
        <ele>491</ele>
      </trkpt>
      <trkpt lat="43.72317" lon="6.06028">
        <ele>493</ele>
      </trkpt>
      <trkpt lat="43.7234" lon="6.05999">
        <ele>494</ele>
      </trkpt>
      <trkpt lat="43.72364" lon="6.0596">
        <ele>498</ele>
      </trkpt>
      <trkpt lat="43.7237" lon="6.05951">
        <ele>499</ele>
      </trkpt>
      <trkpt lat="43.72394" lon="6.05928">
        <ele>500</ele>
      </trkpt>
      <trkpt lat="43.72408" lon="6.05897">
        <ele>502</ele>
      </trkpt>
      <trkpt lat="43.72419" lon="6.05871">
        <ele>504</ele>
      </trkpt>
      <trkpt lat="43.72431" lon="6.0585">
        <ele>504</ele>
      </trkpt>
      <trkpt lat="43.72439" lon="6.0583">
        <ele>505</ele>
      </trkpt>
      <trkpt lat="43.72439" lon="6.05809">
        <ele>504</ele>
      </trkpt>
      <trkpt lat="43.72442" lon="6.05785">
        <ele>505</ele>
      </trkpt>
      <trkpt lat="43.72446" lon="6.05767">
        <ele>506</ele>
      </trkpt>
      <trkpt lat="43.72455" lon="6.05756">
        <ele>508</ele>
      </trkpt>
      <trkpt lat="43.72467" lon="6.05748">
        <ele>510</ele>
      </trkpt>
      <trkpt lat="43.72481" lon="6.05731">
        <ele>511</ele>
      </trkpt>
      <trkpt lat="43.72489" lon="6.05706">
        <ele>512</ele>
      </trkpt>
      <trkpt lat="43.72495" lon="6.05686">
        <ele>513</ele>
      </trkpt>
      <trkpt lat="43.72502" lon="6.05665">
        <ele>515</ele>
      </trkpt>
      <trkpt lat="43.72506" lon="6.05648">
        <ele>517</ele>
      </trkpt>
      <trkpt lat="43.72511" lon="6.05629">
        <ele>518</ele>
      </trkpt>
      <trkpt lat="43.72511" lon="6.05612">
        <ele>519</ele>
      </trkpt>
      <trkpt lat="43.72504" lon="6.05594">
        <ele>518</ele>
      </trkpt>
      <trkpt lat="43.72498" lon="6.05581">
        <ele>518</ele>
      </trkpt>
      <trkpt lat="43.72494" lon="6.05569">
        <ele>518</ele>
      </trkpt>
      <trkpt lat="43.72496" lon="6.05557">
        <ele>518</ele>
      </trkpt>
      <trkpt lat="43.72495" lon="6.05544">
        <ele>518</ele>
      </trkpt>
      <trkpt lat="43.7249" lon="6.05535">
        <ele>519</ele>
      </trkpt>
      <trkpt lat="43.72485" lon="6.05525">
        <ele>521</ele>
      </trkpt>
      <trkpt lat="43.72481" lon="6.05514">
        <ele>523</ele>
      </trkpt>
      <trkpt lat="43.72475" lon="6.05501">
        <ele>525</ele>
      </trkpt>
      <trkpt lat="43.72466" lon="6.05484">
        <ele>529</ele>
      </trkpt>
      <trkpt lat="43.72461" lon="6.05472">
        <ele>532</ele>
      </trkpt>
      <trkpt lat="43.72456" lon="6.05459">
        <ele>534</ele>
      </trkpt>
      <trkpt lat="43.72452" lon="6.05442">
        <ele>536</ele>
      </trkpt>
      <trkpt lat="43.72448" lon="6.05433">
        <ele>538</ele>
      </trkpt>
      <trkpt lat="43.72442" lon="6.0542">
        <ele>540</ele>
      </trkpt>
      <trkpt lat="43.72441" lon="6.05418">
        <ele>540</ele>
      </trkpt>
      <trkpt lat="43.72436" lon="6.05403">
        <ele>542</ele>
      </trkpt>
      <trkpt lat="43.72431" lon="6.0539">
        <ele>544</ele>
      </trkpt>
      <trkpt lat="43.72433" lon="6.05375">
        <ele>544</ele>
      </trkpt>
      <trkpt lat="43.72438" lon="6.05352">
        <ele>544</ele>
      </trkpt>
      <trkpt lat="43.72451" lon="6.05323">
        <ele>546</ele>
      </trkpt>
      <trkpt lat="43.72461" lon="6.05306">
        <ele>548</ele>
      </trkpt>
      <trkpt lat="43.72472" lon="6.0529">
        <ele>551</ele>
      </trkpt>
      <trkpt lat="43.72489" lon="6.05266">
        <ele>552</ele>
      </trkpt>
      <trkpt lat="43.72518" lon="6.05224">
        <ele>552</ele>
      </trkpt>
      <trkpt lat="43.72555" lon="6.05168">
        <ele>554</ele>
      </trkpt>
      <trkpt lat="43.72572" lon="6.05141">
        <ele>556</ele>
      </trkpt>
      <trkpt lat="43.72574" lon="6.05138">
        <ele>556</ele>
      </trkpt>
      <trkpt lat="43.72576" lon="6.05128">
        <ele>557</ele>
      </trkpt>
      <trkpt lat="43.72585" lon="6.0512">
        <ele>558</ele>
      </trkpt>
      <trkpt lat="43.72591" lon="6.05104">
        <ele>558</ele>
      </trkpt>
      <trkpt lat="43.726" lon="6.05064">
        <ele>558</ele>
      </trkpt>
      <trkpt lat="43.72605" lon="6.05041">
        <ele>558</ele>
      </trkpt>
      <trkpt lat="43.72617" lon="6.04996">
        <ele>558</ele>
      </trkpt>
      <trkpt lat="43.72619" lon="6.04988">
        <ele>558</ele>
      </trkpt>
      <trkpt lat="43.72622" lon="6.04963">
        <ele>558</ele>
      </trkpt>
      <trkpt lat="43.72618" lon="6.04906">
        <ele>559</ele>
      </trkpt>
      <trkpt lat="43.72604" lon="6.04828">
        <ele>559</ele>
      </trkpt>
      <trkpt lat="43.72589" lon="6.04772">
        <ele>559</ele>
      </trkpt>
      <trkpt lat="43.72571" lon="6.04711">
        <ele>558</ele>
      </trkpt>
      <trkpt lat="43.72556" lon="6.04645">
        <ele>558</ele>
      </trkpt>
      <trkpt lat="43.72535" lon="6.04557">
        <ele>557</ele>
      </trkpt>
      <trkpt lat="43.72517" lon="6.04463">
        <ele>557</ele>
      </trkpt>
      <trkpt lat="43.72493" lon="6.04369">
        <ele>557</ele>
      </trkpt>
      <trkpt lat="43.72468" lon="6.04277">
        <ele>556</ele>
      </trkpt>
      <trkpt lat="43.72447" lon="6.04195">
        <ele>557</ele>
      </trkpt>
      <trkpt lat="43.7242" lon="6.04103">
        <ele>557</ele>
      </trkpt>
      <trkpt lat="43.72395" lon="6.04011">
        <ele>556</ele>
      </trkpt>
      <trkpt lat="43.7238" lon="6.03926">
        <ele>556</ele>
      </trkpt>
      <trkpt lat="43.72363" lon="6.03835">
        <ele>555</ele>
      </trkpt>
      <trkpt lat="43.72345" lon="6.03757">
        <ele>555</ele>
      </trkpt>
      <trkpt lat="43.72333" lon="6.03681">
        <ele>555</ele>
      </trkpt>
      <trkpt lat="43.7232" lon="6.03595">
        <ele>556</ele>
      </trkpt>
      <trkpt lat="43.72298" lon="6.03505">
        <ele>555</ele>
      </trkpt>
      <trkpt lat="43.7227" lon="6.03431">
        <ele>554</ele>
      </trkpt>
      <trkpt lat="43.7224" lon="6.0336">
        <ele>553</ele>
      </trkpt>
      <trkpt lat="43.72213" lon="6.03287">
        <ele>553</ele>
      </trkpt>
      <trkpt lat="43.7219" lon="6.03216">
        <ele>554</ele>
      </trkpt>
      <trkpt lat="43.72181" lon="6.03194">
        <ele>553</ele>
      </trkpt>
      <trkpt lat="43.72181" lon="6.03191">
        <ele>553</ele>
      </trkpt>
      <trkpt lat="43.72177" lon="6.03188">
        <ele>553</ele>
      </trkpt>
      <trkpt lat="43.72177" lon="6.0319">
        <ele>553</ele>
      </trkpt>
      <trkpt lat="43.72175" lon="6.03201">
        <ele>554</ele>
      </trkpt>
      <trkpt lat="43.72173" lon="6.03209">
        <ele>554</ele>
      </trkpt>
      <trkpt lat="43.72166" lon="6.03232">
        <ele>554</ele>
      </trkpt>
      <trkpt lat="43.72159" lon="6.03249">
        <ele>554</ele>
      </trkpt>
      <trkpt lat="43.72151" lon="6.03271">
        <ele>554</ele>
      </trkpt>
      <trkpt lat="43.72142" lon="6.03294">
        <ele>554</ele>
      </trkpt>
      <trkpt lat="43.72138" lon="6.03304">
        <ele>554</ele>
      </trkpt>
      <trkpt lat="43.72124" lon="6.03344">
        <ele>554</ele>
      </trkpt>
      <trkpt lat="43.72093" lon="6.0342">
        <ele>553</ele>
      </trkpt>
      <trkpt lat="43.7207" lon="6.03476">
        <ele>552</ele>
      </trkpt>
      <trkpt lat="43.72054" lon="6.03499">
        <ele>549</ele>
      </trkpt>
      <trkpt lat="43.72026" lon="6.03523">
        <ele>541</ele>
      </trkpt>
      <trkpt lat="43.72012" lon="6.03539">
        <ele>540</ele>
      </trkpt>
      <trkpt lat="43.72005" lon="6.03553">
        <ele>539</ele>
      </trkpt>
      <trkpt lat="43.71985" lon="6.03579">
        <ele>536</ele>
      </trkpt>
      <trkpt lat="43.71951" lon="6.03628">
        <ele>533</ele>
      </trkpt>
      <trkpt lat="43.71923" lon="6.03669">
        <ele>528</ele>
      </trkpt>
      <trkpt lat="43.7191" lon="6.03687">
        <ele>525</ele>
      </trkpt>
      <trkpt lat="43.71877" lon="6.03716">
        <ele>523</ele>
      </trkpt>
      <trkpt lat="43.71869" lon="6.03725">
        <ele>522</ele>
      </trkpt>
      <trkpt lat="43.7184" lon="6.03769">
        <ele>518</ele>
      </trkpt>
      <trkpt lat="43.71831" lon="6.03787">
        <ele>516</ele>
      </trkpt>
      <trkpt lat="43.71814" lon="6.0385">
        <ele>509</ele>
      </trkpt>
      <trkpt lat="43.71812" lon="6.03862">
        <ele>507</ele>
      </trkpt>
      <trkpt lat="43.71795" lon="6.03915">
        <ele>504</ele>
      </trkpt>
      <trkpt lat="43.71782" lon="6.03956">
        <ele>499</ele>
      </trkpt>
      <trkpt lat="43.7177" lon="6.03975">
        <ele>498</ele>
      </trkpt>
      <trkpt lat="43.71747" lon="6.04019">
        <ele>495</ele>
      </trkpt>
      <trkpt lat="43.71732" lon="6.0404">
        <ele>493</ele>
      </trkpt>
      <trkpt lat="43.71724" lon="6.04062">
        <ele>490</ele>
      </trkpt>
      <trkpt lat="43.71721" lon="6.04066">
        <ele>490</ele>
      </trkpt>
      <trkpt lat="43.7172" lon="6.04066">
        <ele>490</ele>
      </trkpt>
      <trkpt lat="43.7172" lon="6.04063">
        <ele>490</ele>
      </trkpt>
      <trkpt lat="43.71714" lon="6.04079">
        <ele>488</ele>
      </trkpt>
      <trkpt lat="43.717" lon="6.04111">
        <ele>484</ele>
      </trkpt>
      <trkpt lat="43.71696" lon="6.0412">
        <ele>483</ele>
      </trkpt>
      <trkpt lat="43.71682" lon="6.04144">
        <ele>484</ele>
      </trkpt>
      <trkpt lat="43.71674" lon="6.0417">
        <ele>485</ele>
      </trkpt>
      <trkpt lat="43.71666" lon="6.04184">
        <ele>485</ele>
      </trkpt>
      <trkpt lat="43.71657" lon="6.04183">
        <ele>485</ele>
      </trkpt>
      <trkpt lat="43.71642" lon="6.04177">
        <ele>484</ele>
      </trkpt>
      <trkpt lat="43.71618" lon="6.04172">
        <ele>481</ele>
      </trkpt>
      <trkpt lat="43.71588" lon="6.04178">
        <ele>479</ele>
      </trkpt>
      <trkpt lat="43.71582" lon="6.0418">
        <ele>479</ele>
      </trkpt>
      <trkpt lat="43.71557" lon="6.04176">
        <ele>480</ele>
      </trkpt>
      <trkpt lat="43.71528" lon="6.04167">
        <ele>479</ele>
      </trkpt>
      <trkpt lat="43.71504" lon="6.04175">
        <ele>479</ele>
      </trkpt>
      <trkpt lat="43.71497" lon="6.04175">
        <ele>478</ele>
      </trkpt>
      <trkpt lat="43.71485" lon="6.04175">
        <ele>477</ele>
      </trkpt>
      <trkpt lat="43.71449" lon="6.04184">
        <ele>475</ele>
      </trkpt>
      <trkpt lat="43.71432" lon="6.04195">
        <ele>475</ele>
      </trkpt>
      <trkpt lat="43.7142" lon="6.04206">
        <ele>476</ele>
      </trkpt>
      <trkpt lat="43.71394" lon="6.04217">
        <ele>474</ele>
      </trkpt>
      <trkpt lat="43.71374" lon="6.04224">
        <ele>472</ele>
      </trkpt>
      <trkpt lat="43.71362" lon="6.04232">
        <ele>471</ele>
      </trkpt>
      <trkpt lat="43.71341" lon="6.04256">
        <ele>469</ele>
      </trkpt>
      <trkpt lat="43.7133" lon="6.04264">
        <ele>468</ele>
      </trkpt>
      <trkpt lat="43.71302" lon="6.04293">
        <ele>465</ele>
      </trkpt>
      <trkpt lat="43.71288" lon="6.04305">
        <ele>464</ele>
      </trkpt>
      <trkpt lat="43.7127" lon="6.04313">
        <ele>462</ele>
      </trkpt>
      <trkpt lat="43.71251" lon="6.04321">
        <ele>462</ele>
      </trkpt>
      <trkpt lat="43.71237" lon="6.04329">
        <ele>461</ele>
      </trkpt>
      <trkpt lat="43.71222" lon="6.04338">
        <ele>459</ele>
      </trkpt>
      <trkpt lat="43.71216" lon="6.04342">
        <ele>459</ele>
      </trkpt>
      <trkpt lat="43.71205" lon="6.04349">
        <ele>458</ele>
      </trkpt>
      <trkpt lat="43.71182" lon="6.04358">
        <ele>458</ele>
      </trkpt>
      <trkpt lat="43.71152" lon="6.04371">
        <ele>455</ele>
      </trkpt>
      <trkpt lat="43.71134" lon="6.04382">
        <ele>454</ele>
      </trkpt>
      <trkpt lat="43.71131" lon="6.04385">
        <ele>454</ele>
      </trkpt>
      <trkpt lat="43.71124" lon="6.04391">
        <ele>453</ele>
      </trkpt>
      <trkpt lat="43.7112" lon="6.04394">
        <ele>453</ele>
      </trkpt>
      <trkpt lat="43.71116" lon="6.04396">
        <ele>453</ele>
      </trkpt>
      <trkpt lat="43.71113" lon="6.04399">
        <ele>452</ele>
      </trkpt>
      <trkpt lat="43.71105" lon="6.04402">
        <ele>452</ele>
      </trkpt>
      <trkpt lat="43.71105" lon="6.044">
        <ele>452</ele>
      </trkpt>
      <trkpt lat="43.71104" lon="6.04391">
        <ele>452</ele>
      </trkpt>
      <trkpt lat="43.71096" lon="6.04395">
        <ele>451</ele>
      </trkpt>
      <trkpt lat="43.7109" lon="6.04405">
        <ele>451</ele>
      </trkpt>
      <trkpt lat="43.71087" lon="6.04406">
        <ele>451</ele>
      </trkpt>
      <trkpt lat="43.71081" lon="6.04408">
        <ele>450</ele>
      </trkpt>
      <trkpt lat="43.71075" lon="6.044">
        <ele>449</ele>
      </trkpt>
      <trkpt lat="43.71074" lon="6.04397">
        <ele>448</ele>
      </trkpt>
      <trkpt lat="43.71072" lon="6.04384">
        <ele>447</ele>
      </trkpt>
      <trkpt lat="43.71075" lon="6.04375">
        <ele>447</ele>
      </trkpt>
      <trkpt lat="43.71076" lon="6.04372">
        <ele>447</ele>
      </trkpt>
      <trkpt lat="43.71076" lon="6.04367">
        <ele>447</ele>
      </trkpt>
      <trkpt lat="43.71077" lon="6.04362">
        <ele>447</ele>
      </trkpt>
      <trkpt lat="43.71072" lon="6.04358">
        <ele>445</ele>
      </trkpt>
      <trkpt lat="43.71066" lon="6.04356">
        <ele>444</ele>
      </trkpt>
      <trkpt lat="43.7106" lon="6.04349">
        <ele>442</ele>
      </trkpt>
      <trkpt lat="43.71033" lon="6.04328">
        <ele>433</ele>
      </trkpt>
      <trkpt lat="43.71027" lon="6.04323">
        <ele>432</ele>
      </trkpt>
      <trkpt lat="43.71018" lon="6.04312">
        <ele>431</ele>
      </trkpt>
      <trkpt lat="43.71008" lon="6.04302">
        <ele>429</ele>
      </trkpt>
      <trkpt lat="43.70992" lon="6.0427">
        <ele>426</ele>
      </trkpt>
      <trkpt lat="43.70978" lon="6.04252">
        <ele>421</ele>
      </trkpt>
      <trkpt lat="43.70957" lon="6.04264">
        <ele>412</ele>
      </trkpt>
      <trkpt lat="43.70926" lon="6.04266">
        <ele>407</ele>
      </trkpt>
      <trkpt lat="43.70892" lon="6.04281">
        <ele>402</ele>
      </trkpt>
      <trkpt lat="43.70841" lon="6.0429">
        <ele>398</ele>
      </trkpt>
      <trkpt lat="43.7081" lon="6.0433">
        <ele>395</ele>
      </trkpt>
      <trkpt lat="43.70784" lon="6.04349">
        <ele>394</ele>
      </trkpt>
      <trkpt lat="43.7075" lon="6.04381">
        <ele>392</ele>
      </trkpt>
      <trkpt lat="43.70716" lon="6.04396">
        <ele>390</ele>
      </trkpt>
      <trkpt lat="43.70687" lon="6.0442">
        <ele>389</ele>
      </trkpt>
      <trkpt lat="43.70658" lon="6.04431">
        <ele>388</ele>
      </trkpt>
      <trkpt lat="43.70618" lon="6.04442">
        <ele>386</ele>
      </trkpt>
      <trkpt lat="43.70603" lon="6.04448">
        <ele>385</ele>
      </trkpt>
      <trkpt lat="43.70587" lon="6.04449">
        <ele>383</ele>
      </trkpt>
      <trkpt lat="43.70567" lon="6.04457">
        <ele>382</ele>
      </trkpt>
      <trkpt lat="43.70535" lon="6.04473">
        <ele>381</ele>
      </trkpt>
      <trkpt lat="43.70513" lon="6.04493">
        <ele>381</ele>
      </trkpt>
      <trkpt lat="43.70477" lon="6.04516">
        <ele>380</ele>
      </trkpt>
      <trkpt lat="43.70454" lon="6.04534">
        <ele>379</ele>
      </trkpt>
      <trkpt lat="43.7042" lon="6.04539">
        <ele>379</ele>
      </trkpt>
      <trkpt lat="43.70374" lon="6.0455">
        <ele>379</ele>
      </trkpt>
      <trkpt lat="43.70327" lon="6.04564">
        <ele>376</ele>
      </trkpt>
      <trkpt lat="43.70307" lon="6.04575">
        <ele>375</ele>
      </trkpt>
      <trkpt lat="43.70265" lon="6.04614">
        <ele>373</ele>
      </trkpt>
      <trkpt lat="43.7027" lon="6.04572">
        <ele>372</ele>
      </trkpt>
      <trkpt lat="43.70281" lon="6.04524">
        <ele>372</ele>
      </trkpt>
      <trkpt lat="43.70288" lon="6.04495">
        <ele>373</ele>
      </trkpt>
      <trkpt lat="43.70285" lon="6.04442">
        <ele>372</ele>
      </trkpt>
      <trkpt lat="43.70288" lon="6.04408">
        <ele>372</ele>
      </trkpt>
      <trkpt lat="43.70289" lon="6.04392">
        <ele>373</ele>
      </trkpt>
      <trkpt lat="43.70279" lon="6.0435">
        <ele>372</ele>
      </trkpt>
      <trkpt lat="43.70265" lon="6.04314">
        <ele>371</ele>
      </trkpt>
      <trkpt lat="43.70252" lon="6.04274">
        <ele>371</ele>
      </trkpt>
      <trkpt lat="43.70254" lon="6.04254">
        <ele>372</ele>
      </trkpt>
      <trkpt lat="43.70255" lon="6.04226">
        <ele>372</ele>
      </trkpt>
      <trkpt lat="43.70238" lon="6.04207">
        <ele>371</ele>
      </trkpt>
      <trkpt lat="43.70242" lon="6.04179">
        <ele>371</ele>
      </trkpt>
      <trkpt lat="43.70239" lon="6.04149">
        <ele>371</ele>
      </trkpt>
      <trkpt lat="43.70222" lon="6.04131">
        <ele>372</ele>
      </trkpt>
      <trkpt lat="43.70202" lon="6.0411">
        <ele>372</ele>
      </trkpt>
      <trkpt lat="43.702" lon="6.04089">
        <ele>372</ele>
      </trkpt>
      <trkpt lat="43.70198" lon="6.04059">
        <ele>374</ele>
      </trkpt>
      <trkpt lat="43.70221" lon="6.04034">
        <ele>376</ele>
      </trkpt>
      <trkpt lat="43.70248" lon="6.04004">
        <ele>379</ele>
      </trkpt>
      <trkpt lat="43.70266" lon="6.03988">
        <ele>379</ele>
      </trkpt>
      <trkpt lat="43.70263" lon="6.03983">
        <ele>380</ele>
      </trkpt>
      <trkpt lat="43.70256" lon="6.03972">
        <ele>381</ele>
      </trkpt>
      <trkpt lat="43.70245" lon="6.03961">
        <ele>381</ele>
      </trkpt>
      <trkpt lat="43.7023" lon="6.03938">
        <ele>383</ele>
      </trkpt>
      <trkpt lat="43.70213" lon="6.0391">
        <ele>385</ele>
      </trkpt>
      <trkpt lat="43.70198" lon="6.03901">
        <ele>385</ele>
      </trkpt>
      <trkpt lat="43.70185" lon="6.03904">
        <ele>384</ele>
      </trkpt>
      <trkpt lat="43.70166" lon="6.03916">
        <ele>382</ele>
      </trkpt>
      <trkpt lat="43.70151" lon="6.03921">
        <ele>381</ele>
      </trkpt>
      <trkpt lat="43.70151" lon="6.03921">
        <ele>381</ele>
      </trkpt>
      <trkpt lat="43.70151" lon="6.03918">
        <ele>381</ele>
      </trkpt>
      <trkpt lat="43.70151" lon="6.03918">
        <ele>381</ele>
      </trkpt>
      <trkpt lat="43.7016" lon="6.03907">
        <ele>382</ele>
      </trkpt>
      <trkpt lat="43.70174" lon="6.03881">
        <ele>385</ele>
      </trkpt>
      <trkpt lat="43.70185" lon="6.03861">
        <ele>386</ele>
      </trkpt>
      <trkpt lat="43.70187" lon="6.03843">
        <ele>388</ele>
      </trkpt>
      <trkpt lat="43.70186" lon="6.03834">
        <ele>388</ele>
      </trkpt>
      <trkpt lat="43.70176" lon="6.03816">
        <ele>389</ele>
      </trkpt>
      <trkpt lat="43.70158" lon="6.03785">
        <ele>389</ele>
      </trkpt>
      <trkpt lat="43.70148" lon="6.03759">
        <ele>389</ele>
      </trkpt>
      <trkpt lat="43.7014" lon="6.03723">
        <ele>391</ele>
      </trkpt>
      <trkpt lat="43.70137" lon="6.03697">
        <ele>392</ele>
      </trkpt>
      <trkpt lat="43.70143" lon="6.03678">
        <ele>393</ele>
      </trkpt>
      <trkpt lat="43.70153" lon="6.03645">
        <ele>395</ele>
      </trkpt>
      <trkpt lat="43.70165" lon="6.03606">
        <ele>397</ele>
      </trkpt>
      <trkpt lat="43.70174" lon="6.03578">
        <ele>399</ele>
      </trkpt>
      <trkpt lat="43.70176" lon="6.03556">
        <ele>400</ele>
      </trkpt>
      <trkpt lat="43.70168" lon="6.03539">
        <ele>400</ele>
      </trkpt>
      <trkpt lat="43.70168" lon="6.03538">
        <ele>400</ele>
      </trkpt>
      <trkpt lat="43.70161" lon="6.03532">
        <ele>400</ele>
      </trkpt>
      <trkpt lat="43.70154" lon="6.03523">
        <ele>400</ele>
      </trkpt>
      <trkpt lat="43.70147" lon="6.03514">
        <ele>400</ele>
      </trkpt>
      <trkpt lat="43.70135" lon="6.0351">
        <ele>399</ele>
      </trkpt>
      <trkpt lat="43.70119" lon="6.035">
        <ele>399</ele>
      </trkpt>
      <trkpt lat="43.701" lon="6.03485">
        <ele>399</ele>
      </trkpt>
      <trkpt lat="43.70082" lon="6.03473">
        <ele>399</ele>
      </trkpt>
      <trkpt lat="43.70067" lon="6.03462">
        <ele>399</ele>
      </trkpt>
      <trkpt lat="43.70053" lon="6.03451">
        <ele>400</ele>
      </trkpt>
      <trkpt lat="43.70036" lon="6.03437">
        <ele>401</ele>
      </trkpt>
      <trkpt lat="43.70022" lon="6.03426">
        <ele>402</ele>
      </trkpt>
      <trkpt lat="43.70016" lon="6.0342">
        <ele>403</ele>
      </trkpt>
      <trkpt lat="43.70006" lon="6.03408">
        <ele>404</ele>
      </trkpt>
      <trkpt lat="43.70006" lon="6.03398">
        <ele>406</ele>
      </trkpt>
      <trkpt lat="43.70009" lon="6.03391">
        <ele>407</ele>
      </trkpt>
      <trkpt lat="43.70017" lon="6.03384">
        <ele>408</ele>
      </trkpt>
      <trkpt lat="43.70029" lon="6.03375">
        <ele>410</ele>
      </trkpt>
      <trkpt lat="43.7004" lon="6.03363">
        <ele>411</ele>
      </trkpt>
      <trkpt lat="43.7005" lon="6.03354">
        <ele>412</ele>
      </trkpt>
      <trkpt lat="43.70063" lon="6.03342">
        <ele>413</ele>
      </trkpt>
      <trkpt lat="43.70074" lon="6.03335">
        <ele>413</ele>
      </trkpt>
      <trkpt lat="43.70088" lon="6.03322">
        <ele>414</ele>
      </trkpt>
      <trkpt lat="43.70099" lon="6.0331">
        <ele>416</ele>
      </trkpt>
      <trkpt lat="43.70112" lon="6.03298">
        <ele>417</ele>
      </trkpt>
      <trkpt lat="43.70122" lon="6.03286">
        <ele>419</ele>
      </trkpt>
      <trkpt lat="43.70139" lon="6.03267">
        <ele>421</ele>
      </trkpt>
      <trkpt lat="43.70154" lon="6.03244">
        <ele>425</ele>
      </trkpt>
      <trkpt lat="43.70163" lon="6.03228">
        <ele>427</ele>
      </trkpt>
      <trkpt lat="43.70168" lon="6.03211">
        <ele>430</ele>
      </trkpt>
      <trkpt lat="43.70176" lon="6.03196">
        <ele>432</ele>
      </trkpt>
      <trkpt lat="43.70189" lon="6.03182">
        <ele>434</ele>
      </trkpt>
      <trkpt lat="43.70198" lon="6.03174">
        <ele>436</ele>
      </trkpt>
      <trkpt lat="43.70208" lon="6.03166">
        <ele>439</ele>
      </trkpt>
      <trkpt lat="43.70216" lon="6.0316">
        <ele>441</ele>
      </trkpt>
      <trkpt lat="43.70224" lon="6.03159">
        <ele>443</ele>
      </trkpt>
      <trkpt lat="43.70228" lon="6.03156">
        <ele>444</ele>
      </trkpt>
      <trkpt lat="43.70235" lon="6.03153">
        <ele>445</ele>
      </trkpt>
      <trkpt lat="43.70236" lon="6.03154">
        <ele>446</ele>
      </trkpt>
      <trkpt lat="43.70243" lon="6.0315">
        <ele>447</ele>
      </trkpt>
      <trkpt lat="43.70245" lon="6.03149">
        <ele>447</ele>
      </trkpt>
      <trkpt lat="43.70252" lon="6.0315">
        <ele>448</ele>
      </trkpt>
      <trkpt lat="43.70257" lon="6.03151">
        <ele>448</ele>
      </trkpt>
      <trkpt lat="43.70264" lon="6.03151">
        <ele>449</ele>
      </trkpt>
      <trkpt lat="43.70266" lon="6.03151">
        <ele>449</ele>
      </trkpt>
      <trkpt lat="43.70267" lon="6.03144">
        <ele>450</ele>
      </trkpt>
      <trkpt lat="43.70265" lon="6.03137">
        <ele>451</ele>
      </trkpt>
      <trkpt lat="43.70265" lon="6.03133">
        <ele>452</ele>
      </trkpt>
      <trkpt lat="43.70265" lon="6.03131">
        <ele>453</ele>
      </trkpt>
      <trkpt lat="43.70266" lon="6.03123">
        <ele>454</ele>
      </trkpt>
      <trkpt lat="43.70265" lon="6.03118">
        <ele>455</ele>
      </trkpt>
      <trkpt lat="43.70266" lon="6.03114">
        <ele>456</ele>
      </trkpt>
      <trkpt lat="43.70267" lon="6.03107">
        <ele>457</ele>
      </trkpt>
      <trkpt lat="43.70268" lon="6.03103">
        <ele>458</ele>
      </trkpt>
      <trkpt lat="43.70267" lon="6.03099">
        <ele>458</ele>
      </trkpt>
      <trkpt lat="43.70268" lon="6.03095">
        <ele>459</ele>
      </trkpt>
      <trkpt lat="43.70267" lon="6.0309">
        <ele>460</ele>
      </trkpt>
      <trkpt lat="43.70267" lon="6.03087">
        <ele>461</ele>
      </trkpt>
      <trkpt lat="43.70265" lon="6.0308">
        <ele>462</ele>
      </trkpt>
      <trkpt lat="43.70263" lon="6.03074">
        <ele>463</ele>
      </trkpt>
      <trkpt lat="43.7026" lon="6.03069">
        <ele>464</ele>
      </trkpt>
      <trkpt lat="43.70257" lon="6.03064">
        <ele>465</ele>
      </trkpt>
      <trkpt lat="43.70254" lon="6.03058">
        <ele>466</ele>
      </trkpt>
      <trkpt lat="43.70251" lon="6.03053">
        <ele>468</ele>
      </trkpt>
      <trkpt lat="43.70248" lon="6.03048">
        <ele>469</ele>
      </trkpt>
      <trkpt lat="43.70245" lon="6.03046">
        <ele>469</ele>
      </trkpt>
      <trkpt lat="43.70243" lon="6.03043">
        <ele>470</ele>
      </trkpt>
      <trkpt lat="43.7024" lon="6.03038">
        <ele>471</ele>
      </trkpt>
      <trkpt lat="43.70239" lon="6.03033">
        <ele>474</ele>
      </trkpt>
      <trkpt lat="43.70236" lon="6.03031">
        <ele>475</ele>
      </trkpt>
      <trkpt lat="43.70231" lon="6.0303">
        <ele>475</ele>
      </trkpt>
      <trkpt lat="43.70227" lon="6.0303">
        <ele>476</ele>
      </trkpt>
      <trkpt lat="43.70222" lon="6.03032">
        <ele>475</ele>
      </trkpt>
      <trkpt lat="43.70218" lon="6.03034">
        <ele>474</ele>
      </trkpt>
      <trkpt lat="43.7021" lon="6.03029">
        <ele>477</ele>
      </trkpt>
      <trkpt lat="43.70206" lon="6.03029">
        <ele>477</ele>
      </trkpt>
      <trkpt lat="43.70202" lon="6.03033">
        <ele>476</ele>
      </trkpt>
      <trkpt lat="43.70197" lon="6.03035">
        <ele>475</ele>
      </trkpt>
      <trkpt lat="43.70192" lon="6.03038">
        <ele>475</ele>
      </trkpt>
      <trkpt lat="43.70189" lon="6.03037">
        <ele>477</ele>
      </trkpt>
      <trkpt lat="43.70185" lon="6.03036">
        <ele>478</ele>
      </trkpt>
      <trkpt lat="43.70181" lon="6.03035">
        <ele>480</ele>
      </trkpt>
      <trkpt lat="43.70177" lon="6.03038">
        <ele>481</ele>
      </trkpt>
      <trkpt lat="43.7017" lon="6.03042">
        <ele>481</ele>
      </trkpt>
      <trkpt lat="43.70166" lon="6.03043">
        <ele>483</ele>
      </trkpt>
      <trkpt lat="43.7016" lon="6.03047">
        <ele>483</ele>
      </trkpt>
      <trkpt lat="43.70153" lon="6.03052">
        <ele>483</ele>
      </trkpt>
      <trkpt lat="43.70149" lon="6.03055">
        <ele>482</ele>
      </trkpt>
      <trkpt lat="43.70144" lon="6.03059">
        <ele>482</ele>
      </trkpt>
      <trkpt lat="43.70141" lon="6.03061">
        <ele>483</ele>
      </trkpt>
      <trkpt lat="43.70136" lon="6.03063">
        <ele>484</ele>
      </trkpt>
      <trkpt lat="43.70133" lon="6.03063">
        <ele>486</ele>
      </trkpt>
      <trkpt lat="43.7013" lon="6.0306">
        <ele>489</ele>
      </trkpt>
      <trkpt lat="43.70131" lon="6.03055">
        <ele>491</ele>
      </trkpt>
      <trkpt lat="43.70131" lon="6.03051">
        <ele>494</ele>
      </trkpt>
      <trkpt lat="43.7013" lon="6.03046">
        <ele>497</ele>
      </trkpt>
      <trkpt lat="43.70129" lon="6.03039">
        <ele>501</ele>
      </trkpt>
      <trkpt lat="43.70129" lon="6.03034">
        <ele>504</ele>
      </trkpt>
      <trkpt lat="43.70129" lon="6.03031">
        <ele>506</ele>
      </trkpt>
      <trkpt lat="43.70128" lon="6.03027">
        <ele>507</ele>
      </trkpt>
      <trkpt lat="43.70128" lon="6.03024">
        <ele>508</ele>
      </trkpt>
      <trkpt lat="43.70125" lon="6.03015">
        <ele>512</ele>
      </trkpt>
      <trkpt lat="43.70122" lon="6.0301">
        <ele>514</ele>
      </trkpt>
      <trkpt lat="43.70114" lon="6.02999">
        <ele>519</ele>
      </trkpt>
      <trkpt lat="43.70112" lon="6.02997">
        <ele>520</ele>
      </trkpt>
      <trkpt lat="43.701" lon="6.02983">
        <ele>524</ele>
      </trkpt>
      <trkpt lat="43.70098" lon="6.02977">
        <ele>525</ele>
      </trkpt>
      <trkpt lat="43.70103" lon="6.02969">
        <ele>526</ele>
      </trkpt>
      <trkpt lat="43.7012" lon="6.02961">
        <ele>525</ele>
      </trkpt>
      <trkpt lat="43.7014" lon="6.02952">
        <ele>524</ele>
      </trkpt>
      <trkpt lat="43.70162" lon="6.02948">
        <ele>522</ele>
      </trkpt>
      <trkpt lat="43.70166" lon="6.02948">
        <ele>521</ele>
      </trkpt>
      <trkpt lat="43.70187" lon="6.0294">
        <ele>520</ele>
      </trkpt>
      <trkpt lat="43.70204" lon="6.02923">
        <ele>525</ele>
      </trkpt>
      <trkpt lat="43.70224" lon="6.02913">
        <ele>528</ele>
      </trkpt>
      <trkpt lat="43.70261" lon="6.02897">
        <ele>530</ele>
      </trkpt>
      <trkpt lat="43.70266" lon="6.02896">
        <ele>530</ele>
      </trkpt>
      <trkpt lat="43.70283" lon="6.02887">
        <ele>532</ele>
      </trkpt>
      <trkpt lat="43.70306" lon="6.02876">
        <ele>533</ele>
      </trkpt>
      <trkpt lat="43.70329" lon="6.02869">
        <ele>534</ele>
      </trkpt>
      <trkpt lat="43.70358" lon="6.02869">
        <ele>532</ele>
      </trkpt>
      <trkpt lat="43.7039" lon="6.02872">
        <ele>530</ele>
      </trkpt>
      <trkpt lat="43.70409" lon="6.02865">
        <ele>532</ele>
      </trkpt>
      <trkpt lat="43.70417" lon="6.02858">
        <ele>532</ele>
      </trkpt>
      <trkpt lat="43.70434" lon="6.02845">
        <ele>533</ele>
      </trkpt>
      <trkpt lat="43.70448" lon="6.0283">
        <ele>533</ele>
      </trkpt>
      <trkpt lat="43.70475" lon="6.0279">
        <ele>534</ele>
      </trkpt>
      <trkpt lat="43.70479" lon="6.02787">
        <ele>535</ele>
      </trkpt>
      <trkpt lat="43.70495" lon="6.02782">
        <ele>535</ele>
      </trkpt>
      <trkpt lat="43.7052" lon="6.02765">
        <ele>535</ele>
      </trkpt>
      <trkpt lat="43.70524" lon="6.02762">
        <ele>535</ele>
      </trkpt>
      <trkpt lat="43.70543" lon="6.02757">
        <ele>535</ele>
      </trkpt>
      <trkpt lat="43.70553" lon="6.02756">
        <ele>535</ele>
      </trkpt>
      <trkpt lat="43.70582" lon="6.02753">
        <ele>535</ele>
      </trkpt>
      <trkpt lat="43.70587" lon="6.02753">
        <ele>535</ele>
      </trkpt>
      <trkpt lat="43.70596" lon="6.02754">
        <ele>536</ele>
      </trkpt>
      <trkpt lat="43.70615" lon="6.02759">
        <ele>536</ele>
      </trkpt>
      <trkpt lat="43.70619" lon="6.02763">
        <ele>536</ele>
      </trkpt>
      <trkpt lat="43.70616" lon="6.02755">
        <ele>536</ele>
      </trkpt>
      <trkpt lat="43.70623" lon="6.02748">
        <ele>537</ele>
      </trkpt>
      <trkpt lat="43.70643" lon="6.02732">
        <ele>538</ele>
      </trkpt>
      <trkpt lat="43.70654" lon="6.02724">
        <ele>538</ele>
      </trkpt>
      <trkpt lat="43.70673" lon="6.02704">
        <ele>539</ele>
      </trkpt>
      <trkpt lat="43.70688" lon="6.02694">
        <ele>540</ele>
      </trkpt>
      <trkpt lat="43.70705" lon="6.02684">
        <ele>540</ele>
      </trkpt>
      <trkpt lat="43.70723" lon="6.02674">
        <ele>540</ele>
      </trkpt>
      <trkpt lat="43.7075" lon="6.02667">
        <ele>541</ele>
      </trkpt>
      <trkpt lat="43.70774" lon="6.02669">
        <ele>541</ele>
      </trkpt>
      <trkpt lat="43.70789" lon="6.02667">
        <ele>541</ele>
      </trkpt>
      <trkpt lat="43.70809" lon="6.02661">
        <ele>541</ele>
      </trkpt>
      <trkpt lat="43.70824" lon="6.02654">
        <ele>541</ele>
      </trkpt>
      <trkpt lat="43.70826" lon="6.02653">
        <ele>541</ele>
      </trkpt>
      <trkpt lat="43.70838" lon="6.02649">
        <ele>541</ele>
      </trkpt>
      <trkpt lat="43.70862" lon="6.02634">
        <ele>542</ele>
      </trkpt>
      <trkpt lat="43.70883" lon="6.02625">
        <ele>542</ele>
      </trkpt>
      <trkpt lat="43.70904" lon="6.02614">
        <ele>542</ele>
      </trkpt>
      <trkpt lat="43.70924" lon="6.02604">
        <ele>542</ele>
      </trkpt>
      <trkpt lat="43.70936" lon="6.02597">
        <ele>542</ele>
      </trkpt>
      <trkpt lat="43.70977" lon="6.0257">
        <ele>543</ele>
      </trkpt>
      <trkpt lat="43.7102" lon="6.02542">
        <ele>543</ele>
      </trkpt>
      <trkpt lat="43.71057" lon="6.02514">
        <ele>543</ele>
      </trkpt>
      <trkpt lat="43.711" lon="6.02485">
        <ele>543</ele>
      </trkpt>
      <trkpt lat="43.71127" lon="6.02451">
        <ele>543</ele>
      </trkpt>
      <trkpt lat="43.7115" lon="6.02413">
        <ele>543</ele>
      </trkpt>
      <trkpt lat="43.71154" lon="6.02406">
        <ele>543</ele>
      </trkpt>
      <trkpt lat="43.71185" lon="6.02373">
        <ele>544</ele>
      </trkpt>
      <trkpt lat="43.71223" lon="6.02332">
        <ele>544</ele>
      </trkpt>
      <trkpt lat="43.71246" lon="6.0231">
        <ele>544</ele>
      </trkpt>
      <trkpt lat="43.71307" lon="6.02261">
        <ele>544</ele>
      </trkpt>
      <trkpt lat="43.71363" lon="6.0222">
        <ele>545</ele>
      </trkpt>
      <trkpt lat="43.71422" lon="6.02174">
        <ele>546</ele>
      </trkpt>
      <trkpt lat="43.71438" lon="6.02162">
        <ele>546</ele>
      </trkpt>
      <trkpt lat="43.71455" lon="6.02137">
        <ele>546</ele>
      </trkpt>
      <trkpt lat="43.71488" lon="6.02068">
        <ele>546</ele>
      </trkpt>
      <trkpt lat="43.71518" lon="6.0201">
        <ele>546</ele>
      </trkpt>
      <trkpt lat="43.71549" lon="6.01966">
        <ele>545</ele>
      </trkpt>
      <trkpt lat="43.71554" lon="6.0196">
        <ele>545</ele>
      </trkpt>
      <trkpt lat="43.7159" lon="6.01922">
        <ele>545</ele>
      </trkpt>
      <trkpt lat="43.71641" lon="6.01871">
        <ele>544</ele>
      </trkpt>
      <trkpt lat="43.71698" lon="6.01815">
        <ele>543</ele>
      </trkpt>
      <trkpt lat="43.71764" lon="6.0175">
        <ele>541</ele>
      </trkpt>
      <trkpt lat="43.71792" lon="6.0172">
        <ele>541</ele>
      </trkpt>
      <trkpt lat="43.71824" lon="6.01679">
        <ele>540</ele>
      </trkpt>
      <trkpt lat="43.71832" lon="6.01662">
        <ele>540</ele>
      </trkpt>
      <trkpt lat="43.71829" lon="6.0164">
        <ele>540</ele>
      </trkpt>
      <trkpt lat="43.71839" lon="6.0163">
        <ele>540</ele>
      </trkpt>
      <trkpt lat="43.71854" lon="6.01602">
        <ele>540</ele>
      </trkpt>
      <trkpt lat="43.71879" lon="6.01568">
        <ele>540</ele>
      </trkpt>
      <trkpt lat="43.71896" lon="6.01532">
        <ele>539</ele>
      </trkpt>
      <trkpt lat="43.71903" lon="6.01516">
        <ele>539</ele>
      </trkpt>
      <trkpt lat="43.71916" lon="6.01489">
        <ele>539</ele>
      </trkpt>
      <trkpt lat="43.71927" lon="6.01467">
        <ele>539</ele>
      </trkpt>
      <trkpt lat="43.71954" lon="6.0142">
        <ele>539</ele>
      </trkpt>
      <trkpt lat="43.71971" lon="6.01392">
        <ele>539</ele>
      </trkpt>
      <trkpt lat="43.71996" lon="6.01347">
        <ele>540</ele>
      </trkpt>
      <trkpt lat="43.72021" lon="6.013">
        <ele>540</ele>
      </trkpt>
      <trkpt lat="43.72045" lon="6.01267">
        <ele>540</ele>
      </trkpt>
      <trkpt lat="43.72105" lon="6.01196">
        <ele>541</ele>
      </trkpt>
      <trkpt lat="43.72129" lon="6.01166">
        <ele>541</ele>
      </trkpt>
      <trkpt lat="43.72165" lon="6.01125">
        <ele>541</ele>
      </trkpt>
      <trkpt lat="43.72215" lon="6.01062">
        <ele>541</ele>
      </trkpt>
      <trkpt lat="43.72237" lon="6.0102">
        <ele>541</ele>
      </trkpt>
      <trkpt lat="43.72256" lon="6.00984">
        <ele>541</ele>
      </trkpt>
      <trkpt lat="43.72293" lon="6.00923">
        <ele>541</ele>
      </trkpt>
      <trkpt lat="43.72331" lon="6.00871">
        <ele>541</ele>
      </trkpt>
      <trkpt lat="43.72362" lon="6.00821">
        <ele>541</ele>
      </trkpt>
      <trkpt lat="43.72393" lon="6.00764">
        <ele>541</ele>
      </trkpt>
      <trkpt lat="43.72425" lon="6.00705">
        <ele>541</ele>
      </trkpt>
      <trkpt lat="43.72462" lon="6.00652">
        <ele>541</ele>
      </trkpt>
      <trkpt lat="43.72495" lon="6.00591">
        <ele>541</ele>
      </trkpt>
      <trkpt lat="43.72531" lon="6.00542">
        <ele>541</ele>
      </trkpt>
      <trkpt lat="43.72558" lon="6.00472">
        <ele>541</ele>
      </trkpt>
      <trkpt lat="43.726" lon="6.00357">
        <ele>540</ele>
      </trkpt>
      <trkpt lat="43.72627" lon="6.00279">
        <ele>540</ele>
      </trkpt>
      <trkpt lat="43.72666" lon="6.00171">
        <ele>539</ele>
      </trkpt>
      <trkpt lat="43.7269" lon="6.00145">
        <ele>539</ele>
      </trkpt>
      <trkpt lat="43.7267" lon="6.00109">
        <ele>538</ele>
      </trkpt>
      <trkpt lat="43.72651" lon="6.00067">
        <ele>537</ele>
      </trkpt>
      <trkpt lat="43.72671" lon="6.00033">
        <ele>537</ele>
      </trkpt>
      <trkpt lat="43.72651" lon="6.00012">
        <ele>536</ele>
      </trkpt>
      <trkpt lat="43.72621" lon="5.99981">
        <ele>535</ele>
      </trkpt>
      <trkpt lat="43.72595" lon="5.99961">
        <ele>535</ele>
      </trkpt>
      <trkpt lat="43.72607" lon="5.99925">
        <ele>534</ele>
      </trkpt>
      <trkpt lat="43.72623" lon="5.9989">
        <ele>534</ele>
      </trkpt>
      <trkpt lat="43.7264" lon="5.99838">
        <ele>533</ele>
      </trkpt>
      <trkpt lat="43.72663" lon="5.99794">
        <ele>533</ele>
      </trkpt>
      <trkpt lat="43.72664" lon="5.99768">
        <ele>532</ele>
      </trkpt>
      <trkpt lat="43.72673" lon="5.99737">
        <ele>532</ele>
      </trkpt>
      <trkpt lat="43.72701" lon="5.99732">
        <ele>532</ele>
      </trkpt>
      <trkpt lat="43.72721" lon="5.9971">
        <ele>532</ele>
      </trkpt>
      <trkpt lat="43.72749" lon="5.99676">
        <ele>530</ele>
      </trkpt>
      <trkpt lat="43.7278" lon="5.99674">
        <ele>530</ele>
      </trkpt>
      <trkpt lat="43.72808" lon="5.99654">
        <ele>530</ele>
      </trkpt>
      <trkpt lat="43.72841" lon="5.99674">
        <ele>531</ele>
      </trkpt>
      <trkpt lat="43.72877" lon="5.99688">
        <ele>532</ele>
      </trkpt>
      <trkpt lat="43.72914" lon="5.99711">
        <ele>534</ele>
      </trkpt>
      <trkpt lat="43.72933" lon="5.99667">
        <ele>534</ele>
      </trkpt>
      <trkpt lat="43.72953" lon="5.99581">
        <ele>536</ele>
      </trkpt>
      <trkpt lat="43.72981" lon="5.99518">
        <ele>536</ele>
      </trkpt>
      <trkpt lat="43.73" lon="5.99462">
        <ele>536</ele>
      </trkpt>
      <trkpt lat="43.73011" lon="5.99411">
        <ele>535</ele>
      </trkpt>
      <trkpt lat="43.73036" lon="5.99344">
        <ele>534</ele>
      </trkpt>
      <trkpt lat="43.73046" lon="5.99304">
        <ele>535</ele>
      </trkpt>
      <trkpt lat="43.73061" lon="5.99259">
        <ele>535</ele>
      </trkpt>
      <trkpt lat="43.73078" lon="5.99225">
        <ele>534</ele>
      </trkpt>
      <trkpt lat="43.73082" lon="5.99214">
        <ele>534</ele>
      </trkpt>
      <trkpt lat="43.73087" lon="5.99192">
        <ele>533</ele>
      </trkpt>
      <trkpt lat="43.73099" lon="5.99171">
        <ele>532</ele>
      </trkpt>
      <trkpt lat="43.73115" lon="5.99121">
        <ele>530</ele>
      </trkpt>
      <trkpt lat="43.73117" lon="5.99093">
        <ele>529</ele>
      </trkpt>
      <trkpt lat="43.73118" lon="5.99084">
        <ele>529</ele>
      </trkpt>
      <trkpt lat="43.73128" lon="5.99047">
        <ele>527</ele>
      </trkpt>
      <trkpt lat="43.73163" lon="5.98983">
        <ele>523</ele>
      </trkpt>
      <trkpt lat="43.73174" lon="5.9897">
        <ele>522</ele>
      </trkpt>
      <trkpt lat="43.73176" lon="5.98968">
        <ele>522</ele>
      </trkpt>
      <trkpt lat="43.73179" lon="5.98968">
        <ele>522</ele>
      </trkpt>
      <trkpt lat="43.73178" lon="5.98969">
        <ele>522</ele>
      </trkpt>
      <trkpt lat="43.73187" lon="5.98974">
        <ele>521</ele>
      </trkpt>
      <trkpt lat="43.73195" lon="5.98973">
        <ele>521</ele>
      </trkpt>
      <trkpt lat="43.7322" lon="5.98971">
        <ele>519</ele>
      </trkpt>
      <trkpt lat="43.73253" lon="5.9896">
        <ele>514</ele>
      </trkpt>
      <trkpt lat="43.73271" lon="5.98947">
        <ele>510</ele>
      </trkpt>
      <trkpt lat="43.73302" lon="5.98903">
        <ele>503</ele>
      </trkpt>
      <trkpt lat="43.73321" lon="5.98876">
        <ele>497</ele>
      </trkpt>
      <trkpt lat="43.73347" lon="5.98838">
        <ele>491</ele>
      </trkpt>
      <trkpt lat="43.73379" lon="5.9881">
        <ele>486</ele>
      </trkpt>
      <trkpt lat="43.73416" lon="5.98786">
        <ele>480</ele>
      </trkpt>
      <trkpt lat="43.73425" lon="5.98779">
        <ele>479</ele>
      </trkpt>
      <trkpt lat="43.73453" lon="5.98766">
        <ele>473</ele>
      </trkpt>
      <trkpt lat="43.73474" lon="5.98761">
        <ele>470</ele>
      </trkpt>
      <trkpt lat="43.73519" lon="5.98736">
        <ele>462</ele>
      </trkpt>
      <trkpt lat="43.73555" lon="5.98715">
        <ele>455</ele>
      </trkpt>
      <trkpt lat="43.7356" lon="5.98708">
        <ele>455</ele>
      </trkpt>
      <trkpt lat="43.73588" lon="5.98688">
        <ele>452</ele>
      </trkpt>
      <trkpt lat="43.73611" lon="5.98674">
        <ele>451</ele>
      </trkpt>
      <trkpt lat="43.73646" lon="5.98628">
        <ele>451</ele>
      </trkpt>
      <trkpt lat="43.73655" lon="5.9861">
        <ele>453</ele>
      </trkpt>
      <trkpt lat="43.73668" lon="5.98595">
        <ele>453</ele>
      </trkpt>
      <trkpt lat="43.73677" lon="5.98604">
        <ele>453</ele>
      </trkpt>
      <trkpt lat="43.73695" lon="5.98641">
        <ele>447</ele>
      </trkpt>
      <trkpt lat="43.73715" lon="5.98659">
        <ele>443</ele>
      </trkpt>
      <trkpt lat="43.73725" lon="5.98663">
        <ele>442</ele>
      </trkpt>
      <trkpt lat="43.73769" lon="5.98691">
        <ele>435</ele>
      </trkpt>
      <trkpt lat="43.73823" lon="5.98716">
        <ele>427</ele>
      </trkpt>
      <trkpt lat="43.73873" lon="5.98732">
        <ele>421</ele>
      </trkpt>
      <trkpt lat="43.73889" lon="5.98737">
        <ele>420</ele>
      </trkpt>
      <trkpt lat="43.73905" lon="5.98752">
        <ele>418</ele>
      </trkpt>
      <trkpt lat="43.73909" lon="5.98761">
        <ele>418</ele>
      </trkpt>
      <trkpt lat="43.73932" lon="5.98795">
        <ele>416</ele>
      </trkpt>
      <trkpt lat="43.73944" lon="5.98808">
        <ele>416</ele>
      </trkpt>
      <trkpt lat="43.73963" lon="5.98822">
        <ele>418</ele>
      </trkpt>
      <trkpt lat="43.73976" lon="5.98841">
        <ele>420</ele>
      </trkpt>
      <trkpt lat="43.73986" lon="5.98857">
        <ele>424</ele>
      </trkpt>
      <trkpt lat="43.73996" lon="5.9885">
        <ele>426</ele>
      </trkpt>
      <trkpt lat="43.74007" lon="5.98835">
        <ele>426</ele>
      </trkpt>
      <trkpt lat="43.74045" lon="5.98805">
        <ele>424</ele>
      </trkpt>
      <trkpt lat="43.74082" lon="5.98775">
        <ele>419</ele>
      </trkpt>
      <trkpt lat="43.74097" lon="5.98763">
        <ele>415</ele>
      </trkpt>
      <trkpt lat="43.74104" lon="5.98756">
        <ele>414</ele>
      </trkpt>
      <trkpt lat="43.74108" lon="5.98738">
        <ele>413</ele>
      </trkpt>
      <trkpt lat="43.74109" lon="5.98721">
        <ele>412</ele>
      </trkpt>
      <trkpt lat="43.74113" lon="5.9869">
        <ele>411</ele>
      </trkpt>
      <trkpt lat="43.74126" lon="5.98606">
        <ele>406</ele>
      </trkpt>
      <trkpt lat="43.74129" lon="5.9858">
        <ele>403</ele>
      </trkpt>
      <trkpt lat="43.74125" lon="5.98469">
        <ele>398</ele>
      </trkpt>
      <trkpt lat="43.74125" lon="5.9843">
        <ele>397</ele>
      </trkpt>
      <trkpt lat="43.74116" lon="5.98387">
        <ele>398</ele>
      </trkpt>
      <trkpt lat="43.7409" lon="5.98317">
        <ele>399</ele>
      </trkpt>
      <trkpt lat="43.74078" lon="5.98287">
        <ele>400</ele>
      </trkpt>
      <trkpt lat="43.74073" lon="5.98252">
        <ele>397</ele>
      </trkpt>
      <trkpt lat="43.74073" lon="5.98243">
        <ele>397</ele>
      </trkpt>
      <trkpt lat="43.74075" lon="5.98181">
        <ele>393</ele>
      </trkpt>
      <trkpt lat="43.74068" lon="5.98126">
        <ele>393</ele>
      </trkpt>
      <trkpt lat="43.74061" lon="5.98103">
        <ele>392</ele>
      </trkpt>
      <trkpt lat="43.74053" lon="5.98079">
        <ele>391</ele>
      </trkpt>
      <trkpt lat="43.7405" lon="5.98068">
        <ele>391</ele>
      </trkpt>
      <trkpt lat="43.74045" lon="5.9803">
        <ele>390</ele>
      </trkpt>
      <trkpt lat="43.74048" lon="5.98018">
        <ele>389</ele>
      </trkpt>
      <trkpt lat="43.74048" lon="5.97968">
        <ele>387</ele>
      </trkpt>
      <trkpt lat="43.7404" lon="5.97955">
        <ele>389</ele>
      </trkpt>
      <trkpt lat="43.73999" lon="5.97907">
        <ele>394</ele>
      </trkpt>
      <trkpt lat="43.73982" lon="5.97883">
        <ele>395</ele>
      </trkpt>
      <trkpt lat="43.73969" lon="5.97847">
        <ele>396</ele>
      </trkpt>
      <trkpt lat="43.7395" lon="5.97814">
        <ele>400</ele>
      </trkpt>
      <trkpt lat="43.73946" lon="5.97809">
        <ele>400</ele>
      </trkpt>
      <trkpt lat="43.73924" lon="5.978">
        <ele>403</ele>
      </trkpt>
      <trkpt lat="43.7392" lon="5.97801">
        <ele>404</ele>
      </trkpt>
      <trkpt lat="43.73908" lon="5.97805">
        <ele>406</ele>
      </trkpt>
      <trkpt lat="43.73864" lon="5.97821">
        <ele>412</ele>
      </trkpt>
      <trkpt lat="43.73854" lon="5.97825">
        <ele>413</ele>
      </trkpt>
      <trkpt lat="43.73842" lon="5.97816">
        <ele>411</ele>
      </trkpt>
      <trkpt lat="43.73844" lon="5.97799">
        <ele>406</ele>
      </trkpt>
      <trkpt lat="43.73865" lon="5.97739">
        <ele>392</ele>
      </trkpt>
      <trkpt lat="43.73879" lon="5.97689">
        <ele>387</ele>
      </trkpt>
      <trkpt lat="43.73883" lon="5.97676">
        <ele>387</ele>
      </trkpt>
      <trkpt lat="43.7389" lon="5.97652">
        <ele>385</ele>
      </trkpt>
      <trkpt lat="43.73891" lon="5.9765">
        <ele>385</ele>
      </trkpt>
      <trkpt lat="43.73888" lon="5.97649">
        <ele>385</ele>
      </trkpt>
      <trkpt lat="43.73893" lon="5.97631">
        <ele>384</ele>
      </trkpt>
      <trkpt lat="43.73896" lon="5.97622">
        <ele>384</ele>
      </trkpt>
      <trkpt lat="43.73909" lon="5.97604">
        <ele>383</ele>
      </trkpt>
      <trkpt lat="43.7393" lon="5.97594">
        <ele>380</ele>
      </trkpt>
      <trkpt lat="43.73947" lon="5.97586">
        <ele>378</ele>
      </trkpt>
      <trkpt lat="43.73957" lon="5.97577">
        <ele>376</ele>
      </trkpt>
      <trkpt lat="43.73972" lon="5.97551">
        <ele>373</ele>
      </trkpt>
      <trkpt lat="43.73976" lon="5.97535">
        <ele>372</ele>
      </trkpt>
      <trkpt lat="43.73989" lon="5.97485">
        <ele>376</ele>
      </trkpt>
      <trkpt lat="43.73989" lon="5.97443">
        <ele>379</ele>
      </trkpt>
      <trkpt lat="43.73975" lon="5.97427">
        <ele>377</ele>
      </trkpt>
      <trkpt lat="43.73956" lon="5.97428">
        <ele>374</ele>
      </trkpt>
      <trkpt lat="43.7395" lon="5.97433">
        <ele>373</ele>
      </trkpt>
      <trkpt lat="43.73941" lon="5.97442">
        <ele>371</ele>
      </trkpt>
      <trkpt lat="43.73923" lon="5.97445">
        <ele>370</ele>
      </trkpt>
      <trkpt lat="43.73905" lon="5.97431">
        <ele>372</ele>
      </trkpt>
      <trkpt lat="43.73894" lon="5.97419">
        <ele>374</ele>
      </trkpt>
      <trkpt lat="43.73878" lon="5.97404">
        <ele>376</ele>
      </trkpt>
      <trkpt lat="43.73869" lon="5.97379">
        <ele>378</ele>
      </trkpt>
      <trkpt lat="43.73874" lon="5.97361">
        <ele>380</ele>
      </trkpt>
      <trkpt lat="43.73886" lon="5.97345">
        <ele>383</ele>
      </trkpt>
      <trkpt lat="43.73899" lon="5.97316">
        <ele>387</ele>
      </trkpt>
      <trkpt lat="43.73899" lon="5.97309">
        <ele>387</ele>
      </trkpt>
      <trkpt lat="43.73894" lon="5.97269">
        <ele>386</ele>
      </trkpt>
      <trkpt lat="43.73892" lon="5.97256">
        <ele>386</ele>
      </trkpt>
      <trkpt lat="43.73887" lon="5.97227">
        <ele>385</ele>
      </trkpt>
      <trkpt lat="43.73878" lon="5.97205">
        <ele>383</ele>
      </trkpt>
      <trkpt lat="43.73869" lon="5.9719">
        <ele>381</ele>
      </trkpt>
      <trkpt lat="43.73837" lon="5.97162">
        <ele>376</ele>
      </trkpt>
      <trkpt lat="43.73813" lon="5.97143">
        <ele>376</ele>
      </trkpt>
      <trkpt lat="43.73804" lon="5.97137">
        <ele>377</ele>
      </trkpt>
      <trkpt lat="43.73796" lon="5.97133">
        <ele>377</ele>
      </trkpt>
      <trkpt lat="43.73796" lon="5.97133">
        <ele>377</ele>
      </trkpt>
      <trkpt lat="43.73791" lon="5.97118">
        <ele>379</ele>
      </trkpt>
      <trkpt lat="43.73791" lon="5.97118">
        <ele>379</ele>
      </trkpt>
      <trkpt lat="43.73799" lon="5.97118">
        <ele>380</ele>
      </trkpt>
      <trkpt lat="43.73813" lon="5.97135">
        <ele>378</ele>
      </trkpt>
      <trkpt lat="43.73836" lon="5.97147">
        <ele>379</ele>
      </trkpt>
      <trkpt lat="43.73862" lon="5.97145">
        <ele>384</ele>
      </trkpt>
      <trkpt lat="43.73891" lon="5.97151">
        <ele>389</ele>
      </trkpt>
      <trkpt lat="43.73911" lon="5.97165">
        <ele>395</ele>
      </trkpt>
      <trkpt lat="43.73924" lon="5.97178">
        <ele>399</ele>
      </trkpt>
      <trkpt lat="43.73925" lon="5.9718">
        <ele>400</ele>
      </trkpt>
      <trkpt lat="43.73926" lon="5.97184">
        <ele>400</ele>
      </trkpt>
      <trkpt lat="43.73925" lon="5.97193">
        <ele>400</ele>
      </trkpt>
      <trkpt lat="43.73924" lon="5.97203">
        <ele>399</ele>
      </trkpt>
      <trkpt lat="43.73923" lon="5.97207">
        <ele>398</ele>
      </trkpt>
      <trkpt lat="43.73924" lon="5.97235">
        <ele>397</ele>
      </trkpt>
      <trkpt lat="43.73924" lon="5.97239">
        <ele>396</ele>
      </trkpt>
      <trkpt lat="43.7392" lon="5.97277">
        <ele>393</ele>
      </trkpt>
      <trkpt lat="43.73922" lon="5.97291">
        <ele>393</ele>
      </trkpt>
      <trkpt lat="43.73927" lon="5.97309">
        <ele>392</ele>
      </trkpt>
      <trkpt lat="43.73936" lon="5.97329">
        <ele>391</ele>
      </trkpt>
      <trkpt lat="43.73947" lon="5.9735">
        <ele>387</ele>
      </trkpt>
      <trkpt lat="43.73952" lon="5.97357">
        <ele>386</ele>
      </trkpt>
      <trkpt lat="43.73961" lon="5.97363">
        <ele>385</ele>
      </trkpt>
      <trkpt lat="43.73968" lon="5.97369">
        <ele>385</ele>
      </trkpt>
      <trkpt lat="43.73991" lon="5.97374">
        <ele>386</ele>
      </trkpt>
      <trkpt lat="43.74014" lon="5.97377">
        <ele>392</ele>
      </trkpt>
      <trkpt lat="43.74028" lon="5.9738">
        <ele>396</ele>
      </trkpt>
      <trkpt lat="43.74044" lon="5.97384">
        <ele>400</ele>
      </trkpt>
      <trkpt lat="43.74057" lon="5.97385">
        <ele>403</ele>
      </trkpt>
      <trkpt lat="43.74063" lon="5.97384">
        <ele>405</ele>
      </trkpt>
      <trkpt lat="43.74064" lon="5.97384">
        <ele>405</ele>
      </trkpt>
      <trkpt lat="43.74066" lon="5.97385">
        <ele>405</ele>
      </trkpt>
      <trkpt lat="43.74064" lon="5.97389">
        <ele>405</ele>
      </trkpt>
      <trkpt lat="43.74078" lon="5.97389">
        <ele>408</ele>
      </trkpt>
      <trkpt lat="43.74091" lon="5.97389">
        <ele>411</ele>
      </trkpt>
      <trkpt lat="43.74105" lon="5.97387">
        <ele>414</ele>
      </trkpt>
      <trkpt lat="43.74116" lon="5.97386">
        <ele>416</ele>
      </trkpt>
      <trkpt lat="43.74127" lon="5.97385">
        <ele>417</ele>
      </trkpt>
      <trkpt lat="43.74131" lon="5.97384">
        <ele>418</ele>
      </trkpt>
      <trkpt lat="43.74138" lon="5.97374">
        <ele>417</ele>
      </trkpt>
      <trkpt lat="43.74144" lon="5.97369">
        <ele>416</ele>
      </trkpt>
      <trkpt lat="43.7416" lon="5.97375">
        <ele>419</ele>
      </trkpt>
      <trkpt lat="43.74176" lon="5.97378">
        <ele>421</ele>
      </trkpt>
      <trkpt lat="43.74191" lon="5.97379">
        <ele>422</ele>
      </trkpt>
      <trkpt lat="43.74205" lon="5.97379">
        <ele>422</ele>
      </trkpt>
      <trkpt lat="43.74221" lon="5.97378">
        <ele>422</ele>
      </trkpt>
      <trkpt lat="43.7424" lon="5.97377">
        <ele>422</ele>
      </trkpt>
      <trkpt lat="43.74256" lon="5.97374">
        <ele>422</ele>
      </trkpt>
      <trkpt lat="43.74272" lon="5.97364">
        <ele>426</ele>
      </trkpt>
      <trkpt lat="43.74285" lon="5.9735">
        <ele>429</ele>
      </trkpt>
      <trkpt lat="43.74298" lon="5.97336">
        <ele>432</ele>
      </trkpt>
      <trkpt lat="43.74309" lon="5.97324">
        <ele>434</ele>
      </trkpt>
      <trkpt lat="43.74323" lon="5.97307">
        <ele>436</ele>
      </trkpt>
      <trkpt lat="43.74335" lon="5.97294">
        <ele>438</ele>
      </trkpt>
      <trkpt lat="43.74349" lon="5.97279">
        <ele>439</ele>
      </trkpt>
      <trkpt lat="43.74367" lon="5.97259">
        <ele>440</ele>
      </trkpt>
      <trkpt lat="43.74369" lon="5.97258">
        <ele>440</ele>
      </trkpt>
      <trkpt lat="43.74373" lon="5.97268">
        <ele>442</ele>
      </trkpt>
      <trkpt lat="43.74372" lon="5.97271">
        <ele>443</ele>
      </trkpt>
      <trkpt lat="43.74353" lon="5.97299">
        <ele>443</ele>
      </trkpt>
      <trkpt lat="43.74335" lon="5.97328">
        <ele>442</ele>
      </trkpt>
      <trkpt lat="43.74328" lon="5.97352">
        <ele>442</ele>
      </trkpt>
      <trkpt lat="43.74327" lon="5.97382">
        <ele>441</ele>
      </trkpt>
      <trkpt lat="43.74332" lon="5.97404">
        <ele>442</ele>
      </trkpt>
      <trkpt lat="43.74345" lon="5.97422">
        <ele>446</ele>
      </trkpt>
      <trkpt lat="43.74352" lon="5.97435">
        <ele>449</ele>
      </trkpt>
      <trkpt lat="43.74345" lon="5.9745">
        <ele>448</ele>
      </trkpt>
      <trkpt lat="43.74326" lon="5.97476">
        <ele>445</ele>
      </trkpt>
      <trkpt lat="43.74324" lon="5.97498">
        <ele>446</ele>
      </trkpt>
      <trkpt lat="43.74335" lon="5.97516">
        <ele>449</ele>
      </trkpt>
      <trkpt lat="43.74354" lon="5.97529">
        <ele>453</ele>
      </trkpt>
      <trkpt lat="43.74372" lon="5.97549">
        <ele>458</ele>
      </trkpt>
      <trkpt lat="43.74373" lon="5.97567">
        <ele>460</ele>
      </trkpt>
      <trkpt lat="43.74355" lon="5.97578">
        <ele>459</ele>
      </trkpt>
      <trkpt lat="43.74332" lon="5.97591">
        <ele>457</ele>
      </trkpt>
      <trkpt lat="43.74337" lon="5.97612">
        <ele>456</ele>
      </trkpt>
      <trkpt lat="43.74358" lon="5.97609">
        <ele>460</ele>
      </trkpt>
      <trkpt lat="43.74385" lon="5.97623">
        <ele>463</ele>
      </trkpt>
      <trkpt lat="43.74408" lon="5.97633">
        <ele>465</ele>
      </trkpt>
      <trkpt lat="43.74432" lon="5.97635">
        <ele>469</ele>
      </trkpt>
      <trkpt lat="43.74453" lon="5.97637">
        <ele>473</ele>
      </trkpt>
      <trkpt lat="43.74476" lon="5.97645">
        <ele>476</ele>
      </trkpt>
      <trkpt lat="43.74502" lon="5.97654">
        <ele>479</ele>
      </trkpt>
      <trkpt lat="43.74529" lon="5.97685">
        <ele>477</ele>
      </trkpt>
      <trkpt lat="43.74546" lon="5.97708">
        <ele>473</ele>
      </trkpt>
      <trkpt lat="43.74558" lon="5.97736">
        <ele>470</ele>
      </trkpt>
      <trkpt lat="43.74574" lon="5.97747">
        <ele>468</ele>
      </trkpt>
      <trkpt lat="43.74573" lon="5.9776">
        <ele>468</ele>
      </trkpt>
      <trkpt lat="43.74575" lon="5.97786">
        <ele>469</ele>
      </trkpt>
      <trkpt lat="43.74588" lon="5.97792">
        <ele>468</ele>
      </trkpt>
      <trkpt lat="43.74594" lon="5.97791">
        <ele>467</ele>
      </trkpt>
      <trkpt lat="43.74622" lon="5.97778">
        <ele>463</ele>
      </trkpt>
      <trkpt lat="43.74644" lon="5.97775">
        <ele>460</ele>
      </trkpt>
      <trkpt lat="43.74651" lon="5.97778">
        <ele>459</ele>
      </trkpt>
      <trkpt lat="43.74658" lon="5.97781">
        <ele>458</ele>
      </trkpt>
      <trkpt lat="43.74697" lon="5.97787">
        <ele>450</ele>
      </trkpt>
      <trkpt lat="43.74712" lon="5.97797">
        <ele>448</ele>
      </trkpt>
      <trkpt lat="43.74719" lon="5.97804">
        <ele>447</ele>
      </trkpt>
      <trkpt lat="43.74761" lon="5.97825">
        <ele>445</ele>
      </trkpt>
      <trkpt lat="43.74782" lon="5.97815">
        <ele>443</ele>
      </trkpt>
      <trkpt lat="43.74821" lon="5.97799">
        <ele>440</ele>
      </trkpt>
      <trkpt lat="43.74838" lon="5.97805">
        <ele>439</ele>
      </trkpt>
      <trkpt lat="43.749" lon="5.97818">
        <ele>434</ele>
      </trkpt>
      <trkpt lat="43.74949" lon="5.97821">
        <ele>424</ele>
      </trkpt>
      <trkpt lat="43.74957" lon="5.97821">
        <ele>422</ele>
      </trkpt>
      <trkpt lat="43.74974" lon="5.97824">
        <ele>419</ele>
      </trkpt>
      <trkpt lat="43.74989" lon="5.9783">
        <ele>416</ele>
      </trkpt>
      <trkpt lat="43.75005" lon="5.97825">
        <ele>413</ele>
      </trkpt>
      <trkpt lat="43.75009" lon="5.97813">
        <ele>413</ele>
      </trkpt>
      <trkpt lat="43.75007" lon="5.97791">
        <ele>413</ele>
      </trkpt>
      <trkpt lat="43.75017" lon="5.97779">
        <ele>412</ele>
      </trkpt>
      <trkpt lat="43.75022" lon="5.97775">
        <ele>412</ele>
      </trkpt>
      <trkpt lat="43.75024" lon="5.97775">
        <ele>412</ele>
      </trkpt>
      <trkpt lat="43.75022" lon="5.97763">
        <ele>412</ele>
      </trkpt>
      <trkpt lat="43.75018" lon="5.97748">
        <ele>412</ele>
      </trkpt>
      <trkpt lat="43.75015" lon="5.97738">
        <ele>413</ele>
      </trkpt>
      <trkpt lat="43.75005" lon="5.9771">
        <ele>414</ele>
      </trkpt>
      <trkpt lat="43.74998" lon="5.97679">
        <ele>414</ele>
      </trkpt>
      <trkpt lat="43.74993" lon="5.97648">
        <ele>413</ele>
      </trkpt>
      <trkpt lat="43.74988" lon="5.97625">
        <ele>413</ele>
      </trkpt>
      <trkpt lat="43.74983" lon="5.97602">
        <ele>413</ele>
      </trkpt>
      <trkpt lat="43.74979" lon="5.97574">
        <ele>413</ele>
      </trkpt>
      <trkpt lat="43.74978" lon="5.97541">
        <ele>413</ele>
      </trkpt>
      <trkpt lat="43.74977" lon="5.97503">
        <ele>414</ele>
      </trkpt>
      <trkpt lat="43.74979" lon="5.97475">
        <ele>413</ele>
      </trkpt>
      <trkpt lat="43.74984" lon="5.97439">
        <ele>412</ele>
      </trkpt>
      <trkpt lat="43.74984" lon="5.97413">
        <ele>411</ele>
      </trkpt>
      <trkpt lat="43.74983" lon="5.97406">
        <ele>411</ele>
      </trkpt>
      <trkpt lat="43.74974" lon="5.97368">
        <ele>412</ele>
      </trkpt>
      <trkpt lat="43.74972" lon="5.97363">
        <ele>412</ele>
      </trkpt>
      <trkpt lat="43.74969" lon="5.97346">
        <ele>412</ele>
      </trkpt>
      <trkpt lat="43.74971" lon="5.9732">
        <ele>411</ele>
      </trkpt>
      <trkpt lat="43.7497" lon="5.97296">
        <ele>411</ele>
      </trkpt>
      <trkpt lat="43.7497" lon="5.97261">
        <ele>410</ele>
      </trkpt>
      <trkpt lat="43.7497" lon="5.97211">
        <ele>411</ele>
      </trkpt>
      <trkpt lat="43.7497" lon="5.97204">
        <ele>411</ele>
      </trkpt>
      <trkpt lat="43.74977" lon="5.97142">
        <ele>408</ele>
      </trkpt>
      <trkpt lat="43.74986" lon="5.97086">
        <ele>405</ele>
      </trkpt>
      <trkpt lat="43.7499" lon="5.97061">
        <ele>404</ele>
      </trkpt>
      <trkpt lat="43.74983" lon="5.97019">
        <ele>405</ele>
      </trkpt>
      <trkpt lat="43.74978" lon="5.97003">
        <ele>406</ele>
      </trkpt>
      <trkpt lat="43.74978" lon="5.96979">
        <ele>404</ele>
      </trkpt>
      <trkpt lat="43.7498" lon="5.96971">
        <ele>404</ele>
      </trkpt>
      <trkpt lat="43.74982" lon="5.96959">
        <ele>403</ele>
      </trkpt>
      <trkpt lat="43.74986" lon="5.96951">
        <ele>402</ele>
      </trkpt>
      <trkpt lat="43.74992" lon="5.96952">
        <ele>402</ele>
      </trkpt>
      <trkpt lat="43.75012" lon="5.96952">
        <ele>400</ele>
      </trkpt>
      <trkpt lat="43.75045" lon="5.96945">
        <ele>397</ele>
      </trkpt>
      <trkpt lat="43.7508" lon="5.96948">
        <ele>398</ele>
      </trkpt>
      <trkpt lat="43.75117" lon="5.96937">
        <ele>399</ele>
      </trkpt>
      <trkpt lat="43.75123" lon="5.96932">
        <ele>399</ele>
      </trkpt>
      <trkpt lat="43.75129" lon="5.96922">
        <ele>400</ele>
      </trkpt>
      <trkpt lat="43.75128" lon="5.96922">
        <ele>400</ele>
      </trkpt>
      <trkpt lat="43.75131" lon="5.96919">
        <ele>400</ele>
      </trkpt>
      <trkpt lat="43.75133" lon="5.96915">
        <ele>400</ele>
      </trkpt>
      <trkpt lat="43.75136" lon="5.96914">
        <ele>400</ele>
      </trkpt>
      <trkpt lat="43.75137" lon="5.96922">
        <ele>401</ele>
      </trkpt>
      <trkpt lat="43.75136" lon="5.9693">
        <ele>401</ele>
      </trkpt>
      <trkpt lat="43.75133" lon="5.96953">
        <ele>401</ele>
      </trkpt>
      <trkpt lat="43.75143" lon="5.96962">
        <ele>402</ele>
      </trkpt>
      <trkpt lat="43.75159" lon="5.9697">
        <ele>404</ele>
      </trkpt>
      <trkpt lat="43.75177" lon="5.96974">
        <ele>405</ele>
      </trkpt>
      <trkpt lat="43.75193" lon="5.9698">
        <ele>408</ele>
      </trkpt>
      <trkpt lat="43.75205" lon="5.96978">
        <ele>408</ele>
      </trkpt>
      <trkpt lat="43.75215" lon="5.96967">
        <ele>408</ele>
      </trkpt>
      <trkpt lat="43.75226" lon="5.96961">
        <ele>410</ele>
      </trkpt>
      <trkpt lat="43.75234" lon="5.96962">
        <ele>410</ele>
      </trkpt>
      <trkpt lat="43.75238" lon="5.96959">
        <ele>411</ele>
      </trkpt>
      <trkpt lat="43.75248" lon="5.96959">
        <ele>412</ele>
      </trkpt>
      <trkpt lat="43.75259" lon="5.96959">
        <ele>414</ele>
      </trkpt>
      <trkpt lat="43.75274" lon="5.96959">
        <ele>415</ele>
      </trkpt>
      <trkpt lat="43.75292" lon="5.96958">
        <ele>416</ele>
      </trkpt>
      <trkpt lat="43.75294" lon="5.96958">
        <ele>416</ele>
      </trkpt>
      <trkpt lat="43.75294" lon="5.96952">
        <ele>417</ele>
      </trkpt>
      <trkpt lat="43.75292" lon="5.96952">
        <ele>417</ele>
      </trkpt>
      <trkpt lat="43.75271" lon="5.96944">
        <ele>417</ele>
      </trkpt>
      <trkpt lat="43.75262" lon="5.96936">
        <ele>417</ele>
      </trkpt>
      <trkpt lat="43.75257" lon="5.96918">
        <ele>419</ele>
      </trkpt>
      <trkpt lat="43.7526" lon="5.96902">
        <ele>421</ele>
      </trkpt>
      <trkpt lat="43.7526" lon="5.96885">
        <ele>423</ele>
      </trkpt>
      <trkpt lat="43.75264" lon="5.96862">
        <ele>426</ele>
      </trkpt>
      <trkpt lat="43.75267" lon="5.96852">
        <ele>427</ele>
      </trkpt>
      <trkpt lat="43.75277" lon="5.96822">
        <ele>429</ele>
      </trkpt>
      <trkpt lat="43.75297" lon="5.96776">
        <ele>429</ele>
      </trkpt>
      <trkpt lat="43.75301" lon="5.96768">
        <ele>428</ele>
      </trkpt>
      <trkpt lat="43.75306" lon="5.96743">
        <ele>424</ele>
      </trkpt>
      <trkpt lat="43.753" lon="5.96726">
        <ele>418</ele>
      </trkpt>
      <trkpt lat="43.75278" lon="5.96674">
        <ele>416</ele>
      </trkpt>
      <trkpt lat="43.75273" lon="5.96655">
        <ele>416</ele>
      </trkpt>
      <trkpt lat="43.75273" lon="5.96634">
        <ele>417</ele>
      </trkpt>
      <trkpt lat="43.75277" lon="5.96591">
        <ele>419</ele>
      </trkpt>
      <trkpt lat="43.75294" lon="5.96548">
        <ele>418</ele>
      </trkpt>
      <trkpt lat="43.75306" lon="5.96518">
        <ele>416</ele>
      </trkpt>
      <trkpt lat="43.75304" lon="5.96487">
        <ele>409</ele>
      </trkpt>
      <trkpt lat="43.75304" lon="5.96458">
        <ele>409</ele>
      </trkpt>
      <trkpt lat="43.75315" lon="5.96397">
        <ele>416</ele>
      </trkpt>
      <trkpt lat="43.7531" lon="5.96352">
        <ele>409</ele>
      </trkpt>
      <trkpt lat="43.75287" lon="5.96274">
        <ele>404</ele>
      </trkpt>
      <trkpt lat="43.75268" lon="5.96228">
        <ele>403</ele>
      </trkpt>
      <trkpt lat="43.75264" lon="5.9622">
        <ele>402</ele>
      </trkpt>
      <trkpt lat="43.75248" lon="5.96195">
        <ele>399</ele>
      </trkpt>
      <trkpt lat="43.75244" lon="5.96179">
        <ele>399</ele>
      </trkpt>
      <trkpt lat="43.75242" lon="5.96172">
        <ele>399</ele>
      </trkpt>
      <trkpt lat="43.75243" lon="5.96157">
        <ele>401</ele>
      </trkpt>
      <trkpt lat="43.7525" lon="5.96124">
        <ele>405</ele>
      </trkpt>
      <trkpt lat="43.75254" lon="5.96114">
        <ele>407</ele>
      </trkpt>
      <trkpt lat="43.75266" lon="5.96092">
        <ele>412</ele>
      </trkpt>
      <trkpt lat="43.75269" lon="5.96068">
        <ele>412</ele>
      </trkpt>
      <trkpt lat="43.75269" lon="5.96036">
        <ele>410</ele>
      </trkpt>
      <trkpt lat="43.75278" lon="5.95994">
        <ele>417</ele>
      </trkpt>
      <trkpt lat="43.75289" lon="5.95959">
        <ele>420</ele>
      </trkpt>
      <trkpt lat="43.75291" lon="5.95953">
        <ele>420</ele>
      </trkpt>
      <trkpt lat="43.75291" lon="5.95928">
        <ele>417</ele>
      </trkpt>
      <trkpt lat="43.75286" lon="5.9592">
        <ele>415</ele>
      </trkpt>
      <trkpt lat="43.75271" lon="5.95908">
        <ele>413</ele>
      </trkpt>
      <trkpt lat="43.75258" lon="5.95884">
        <ele>413</ele>
      </trkpt>
      <trkpt lat="43.75257" lon="5.95878">
        <ele>414</ele>
      </trkpt>
      <trkpt lat="43.75252" lon="5.95835">
        <ele>417</ele>
      </trkpt>
      <trkpt lat="43.75245" lon="5.95815">
        <ele>415</ele>
      </trkpt>
      <trkpt lat="43.7523" lon="5.95777">
        <ele>413</ele>
      </trkpt>
      <trkpt lat="43.75224" lon="5.95753">
        <ele>414</ele>
      </trkpt>
      <trkpt lat="43.75221" lon="5.95716">
        <ele>414</ele>
      </trkpt>
      <trkpt lat="43.75224" lon="5.95668">
        <ele>416</ele>
      </trkpt>
      <trkpt lat="43.7523" lon="5.95642">
        <ele>420</ele>
      </trkpt>
      <trkpt lat="43.75226" lon="5.95608">
        <ele>421</ele>
      </trkpt>
      <trkpt lat="43.75222" lon="5.95599">
        <ele>421</ele>
      </trkpt>
      <trkpt lat="43.75213" lon="5.95556">
        <ele>420</ele>
      </trkpt>
      <trkpt lat="43.7521" lon="5.95531">
        <ele>421</ele>
      </trkpt>
      <trkpt lat="43.75213" lon="5.955">
        <ele>423</ele>
      </trkpt>
      <trkpt lat="43.75225" lon="5.95459">
        <ele>425</ele>
      </trkpt>
      <trkpt lat="43.75234" lon="5.95431">
        <ele>423</ele>
      </trkpt>
      <trkpt lat="43.75249" lon="5.95418">
        <ele>423</ele>
      </trkpt>
      <trkpt lat="43.75266" lon="5.95408">
        <ele>425</ele>
      </trkpt>
      <trkpt lat="43.75266" lon="5.95394">
        <ele>425</ele>
      </trkpt>
      <trkpt lat="43.75267" lon="5.95379">
        <ele>425</ele>
      </trkpt>
      <trkpt lat="43.75269" lon="5.95318">
        <ele>425</ele>
      </trkpt>
      <trkpt lat="43.75269" lon="5.95291">
        <ele>424</ele>
      </trkpt>
      <trkpt lat="43.75279" lon="5.95265">
        <ele>423</ele>
      </trkpt>
      <trkpt lat="43.75291" lon="5.9524">
        <ele>422</ele>
      </trkpt>
      <trkpt lat="43.75286" lon="5.95229">
        <ele>420</ele>
      </trkpt>
      <trkpt lat="43.75269" lon="5.95205">
        <ele>419</ele>
      </trkpt>
      <trkpt lat="43.75248" lon="5.95175">
        <ele>417</ele>
      </trkpt>
      <trkpt lat="43.75238" lon="5.95151">
        <ele>418</ele>
      </trkpt>
      <trkpt lat="43.75229" lon="5.95127">
        <ele>421</ele>
      </trkpt>
      <trkpt lat="43.7523" lon="5.95109">
        <ele>425</ele>
      </trkpt>
      <trkpt lat="43.75237" lon="5.95109">
        <ele>427</ele>
      </trkpt>
      <trkpt lat="43.75239" lon="5.95119">
        <ele>425</ele>
      </trkpt>
      <trkpt lat="43.7524" lon="5.95122">
        <ele>425</ele>
      </trkpt>
      <trkpt lat="43.75249" lon="5.95136">
        <ele>424</ele>
      </trkpt>
      <trkpt lat="43.75256" lon="5.95145">
        <ele>424</ele>
      </trkpt>
      <trkpt lat="43.75268" lon="5.95157">
        <ele>425</ele>
      </trkpt>
      <trkpt lat="43.75279" lon="5.95165">
        <ele>427</ele>
      </trkpt>
      <trkpt lat="43.75297" lon="5.95177">
        <ele>430</ele>
      </trkpt>
      <trkpt lat="43.75317" lon="5.95189">
        <ele>433</ele>
      </trkpt>
      <trkpt lat="43.75335" lon="5.95199">
        <ele>435</ele>
      </trkpt>
      <trkpt lat="43.75349" lon="5.95209">
        <ele>437</ele>
      </trkpt>
      <trkpt lat="43.7537" lon="5.95222">
        <ele>440</ele>
      </trkpt>
      <trkpt lat="43.75387" lon="5.95232">
        <ele>443</ele>
      </trkpt>
      <trkpt lat="43.75399" lon="5.9524">
        <ele>445</ele>
      </trkpt>
      <trkpt lat="43.75416" lon="5.9525">
        <ele>451</ele>
      </trkpt>
      <trkpt lat="43.75429" lon="5.95259">
        <ele>456</ele>
      </trkpt>
      <trkpt lat="43.7543" lon="5.95262">
        <ele>457</ele>
      </trkpt>
      <trkpt lat="43.75428" lon="5.95283">
        <ele>460</ele>
      </trkpt>
      <trkpt lat="43.75422" lon="5.95304">
        <ele>461</ele>
      </trkpt>
      <trkpt lat="43.7541" lon="5.95317">
        <ele>460</ele>
      </trkpt>
      <trkpt lat="43.75388" lon="5.95334">
        <ele>456</ele>
      </trkpt>
      <trkpt lat="43.75371" lon="5.95351">
        <ele>454</ele>
      </trkpt>
      <trkpt lat="43.75365" lon="5.95369">
        <ele>453</ele>
      </trkpt>
      <trkpt lat="43.75366" lon="5.95386">
        <ele>452</ele>
      </trkpt>
      <trkpt lat="43.75373" lon="5.95396">
        <ele>454</ele>
      </trkpt>
      <trkpt lat="43.75386" lon="5.95397">
        <ele>458</ele>
      </trkpt>
      <trkpt lat="43.75397" lon="5.95381">
        <ele>462</ele>
      </trkpt>
      <trkpt lat="43.75406" lon="5.95362">
        <ele>465</ele>
      </trkpt>
      <trkpt lat="43.75422" lon="5.95353">
        <ele>469</ele>
      </trkpt>
      <trkpt lat="43.75442" lon="5.95343">
        <ele>473</ele>
      </trkpt>
      <trkpt lat="43.75453" lon="5.95332">
        <ele>475</ele>
      </trkpt>
      <trkpt lat="43.75468" lon="5.95313">
        <ele>477</ele>
      </trkpt>
      <trkpt lat="43.75483" lon="5.95286">
        <ele>478</ele>
      </trkpt>
      <trkpt lat="43.75494" lon="5.95265">
        <ele>477</ele>
      </trkpt>
      <trkpt lat="43.75506" lon="5.95239">
        <ele>474</ele>
      </trkpt>
      <trkpt lat="43.7551" lon="5.95236">
        <ele>474</ele>
      </trkpt>
      <trkpt lat="43.75526" lon="5.95233">
        <ele>473</ele>
      </trkpt>
      <trkpt lat="43.75553" lon="5.95232">
        <ele>471</ele>
      </trkpt>
      <trkpt lat="43.75567" lon="5.95234">
        <ele>468</ele>
      </trkpt>
      <trkpt lat="43.75568" lon="5.95234">
        <ele>468</ele>
      </trkpt>
      <trkpt lat="43.75577" lon="5.95238">
        <ele>466</ele>
      </trkpt>
      <trkpt lat="43.75588" lon="5.95236">
        <ele>464</ele>
      </trkpt>
      <trkpt lat="43.75602" lon="5.9523">
        <ele>461</ele>
      </trkpt>
      <trkpt lat="43.75628" lon="5.95211">
        <ele>457</ele>
      </trkpt>
      <trkpt lat="43.75635" lon="5.95206">
        <ele>456</ele>
      </trkpt>
      <trkpt lat="43.75642" lon="5.95201">
        <ele>455</ele>
      </trkpt>
      <trkpt lat="43.7565" lon="5.95196">
        <ele>454</ele>
      </trkpt>
      <trkpt lat="43.75663" lon="5.95189">
        <ele>450</ele>
      </trkpt>
      <trkpt lat="43.75674" lon="5.95172">
        <ele>447</ele>
      </trkpt>
      <trkpt lat="43.75678" lon="5.95162">
        <ele>446</ele>
      </trkpt>
      <trkpt lat="43.75684" lon="5.95139">
        <ele>444</ele>
      </trkpt>
      <trkpt lat="43.75689" lon="5.95118">
        <ele>440</ele>
      </trkpt>
      <trkpt lat="43.75693" lon="5.95092">
        <ele>436</ele>
      </trkpt>
      <trkpt lat="43.75686" lon="5.95066">
        <ele>434</ele>
      </trkpt>
      <trkpt lat="43.75672" lon="5.95061">
        <ele>435</ele>
      </trkpt>
      <trkpt lat="43.75661" lon="5.95058">
        <ele>435</ele>
      </trkpt>
      <trkpt lat="43.75653" lon="5.95047">
        <ele>434</ele>
      </trkpt>
      <trkpt lat="43.75661" lon="5.9504">
        <ele>432</ele>
      </trkpt>
      <trkpt lat="43.75664" lon="5.95037">
        <ele>431</ele>
      </trkpt>
      <trkpt lat="43.75688" lon="5.95018">
        <ele>425</ele>
      </trkpt>
      <trkpt lat="43.75701" lon="5.95016">
        <ele>423</ele>
      </trkpt>
      <trkpt lat="43.75717" lon="5.95018">
        <ele>420</ele>
      </trkpt>
      <trkpt lat="43.75728" lon="5.95022">
        <ele>419</ele>
      </trkpt>
      <trkpt lat="43.75738" lon="5.95032">
        <ele>417</ele>
      </trkpt>
      <trkpt lat="43.75752" lon="5.95057">
        <ele>418</ele>
      </trkpt>
      <trkpt lat="43.75764" lon="5.95078">
        <ele>418</ele>
      </trkpt>
      <trkpt lat="43.75782" lon="5.95095">
        <ele>415</ele>
      </trkpt>
      <trkpt lat="43.758" lon="5.95117">
        <ele>414</ele>
      </trkpt>
      <trkpt lat="43.75804" lon="5.95125">
        <ele>414</ele>
      </trkpt>
      <trkpt lat="43.75824" lon="5.95151">
        <ele>412</ele>
      </trkpt>
      <trkpt lat="43.75846" lon="5.95173">
        <ele>408</ele>
      </trkpt>
      <trkpt lat="43.7585" lon="5.95179">
        <ele>407</ele>
      </trkpt>
      <trkpt lat="43.75858" lon="5.95192">
        <ele>406</ele>
      </trkpt>
      <trkpt lat="43.75887" lon="5.95241">
        <ele>404</ele>
      </trkpt>
      <trkpt lat="43.75897" lon="5.9526">
        <ele>403</ele>
      </trkpt>
      <trkpt lat="43.75901" lon="5.95252">
        <ele>402</ele>
      </trkpt>
      <trkpt lat="43.75903" lon="5.95208">
        <ele>400</ele>
      </trkpt>
      <trkpt lat="43.75904" lon="5.95197">
        <ele>399</ele>
      </trkpt>
      <trkpt lat="43.75901" lon="5.95164">
        <ele>397</ele>
      </trkpt>
      <trkpt lat="43.75894" lon="5.95148">
        <ele>397</ele>
      </trkpt>
      <trkpt lat="43.75881" lon="5.95128">
        <ele>397</ele>
      </trkpt>
      <trkpt lat="43.75873" lon="5.95113">
        <ele>397</ele>
      </trkpt>
      <trkpt lat="43.75857" lon="5.95089">
        <ele>395</ele>
      </trkpt>
      <trkpt lat="43.75853" lon="5.95066">
        <ele>395</ele>
      </trkpt>
      <trkpt lat="43.75849" lon="5.95033">
        <ele>393</ele>
      </trkpt>
      <trkpt lat="43.7585" lon="5.95015">
        <ele>393</ele>
      </trkpt>
      <trkpt lat="43.75851" lon="5.95012">
        <ele>393</ele>
      </trkpt>
      <trkpt lat="43.75854" lon="5.95006">
        <ele>393</ele>
      </trkpt>
      <trkpt lat="43.75857" lon="5.94997">
        <ele>394</ele>
      </trkpt>
      <trkpt lat="43.75861" lon="5.94988">
        <ele>395</ele>
      </trkpt>
      <trkpt lat="43.75863" lon="5.94982">
        <ele>396</ele>
      </trkpt>
      <trkpt lat="43.75863" lon="5.94974">
        <ele>397</ele>
      </trkpt>
      <trkpt lat="43.7586" lon="5.94961">
        <ele>397</ele>
      </trkpt>
      <trkpt lat="43.75859" lon="5.9495">
        <ele>399</ele>
      </trkpt>
      <trkpt lat="43.75858" lon="5.94946">
        <ele>399</ele>
      </trkpt>
      <trkpt lat="43.75856" lon="5.94941">
        <ele>399</ele>
      </trkpt>
      <trkpt lat="43.75853" lon="5.94924">
        <ele>401</ele>
      </trkpt>
      <trkpt lat="43.75853" lon="5.94919">
        <ele>401</ele>
      </trkpt>
      <trkpt lat="43.75846" lon="5.94906">
        <ele>401</ele>
      </trkpt>
      <trkpt lat="43.75839" lon="5.94897">
        <ele>399</ele>
      </trkpt>
      <trkpt lat="43.75828" lon="5.94892">
        <ele>395</ele>
      </trkpt>
      <trkpt lat="43.7582" lon="5.94884">
        <ele>395</ele>
      </trkpt>
      <trkpt lat="43.7582" lon="5.9488">
        <ele>396</ele>
      </trkpt>
      <trkpt lat="43.7582" lon="5.94879">
        <ele>396</ele>
      </trkpt>
      <trkpt lat="43.75822" lon="5.94877">
        <ele>397</ele>
      </trkpt>
      <trkpt lat="43.75823" lon="5.94871">
        <ele>399</ele>
      </trkpt>
      <trkpt lat="43.75824" lon="5.9487">
        <ele>400</ele>
      </trkpt>
      <trkpt lat="43.75816" lon="5.94863">
        <ele>399</ele>
      </trkpt>
      <trkpt lat="43.75802" lon="5.9485">
        <ele>400</ele>
      </trkpt>
      <trkpt lat="43.75794" lon="5.94827">
        <ele>405</ele>
      </trkpt>
      <trkpt lat="43.75784" lon="5.94791">
        <ele>411</ele>
      </trkpt>
      <trkpt lat="43.75776" lon="5.9476">
        <ele>414</ele>
      </trkpt>
      <trkpt lat="43.75764" lon="5.94717">
        <ele>414</ele>
      </trkpt>
      <trkpt lat="43.7576" lon="5.94687">
        <ele>414</ele>
      </trkpt>
      <trkpt lat="43.75765" lon="5.94664">
        <ele>418</ele>
      </trkpt>
      <trkpt lat="43.75778" lon="5.94637">
        <ele>422</ele>
      </trkpt>
      <trkpt lat="43.75779" lon="5.94612">
        <ele>420</ele>
      </trkpt>
      <trkpt lat="43.75771" lon="5.94596">
        <ele>417</ele>
      </trkpt>
      <trkpt lat="43.75759" lon="5.94587">
        <ele>414</ele>
      </trkpt>
      <trkpt lat="43.75743" lon="5.94579">
        <ele>410</ele>
      </trkpt>
      <trkpt lat="43.75725" lon="5.94563">
        <ele>411</ele>
      </trkpt>
      <trkpt lat="43.75714" lon="5.94532">
        <ele>418</ele>
      </trkpt>
      <trkpt lat="43.75708" lon="5.94491">
        <ele>424</ele>
      </trkpt>
      <trkpt lat="43.75715" lon="5.94468">
        <ele>429</ele>
      </trkpt>
      <trkpt lat="43.7573" lon="5.94444">
        <ele>434</ele>
      </trkpt>
      <trkpt lat="43.75733" lon="5.94439">
        <ele>434</ele>
      </trkpt>
      <trkpt lat="43.75748" lon="5.94421">
        <ele>437</ele>
      </trkpt>
      <trkpt lat="43.75746" lon="5.94409">
        <ele>436</ele>
      </trkpt>
      <trkpt lat="43.75756" lon="5.9439">
        <ele>437</ele>
      </trkpt>
      <trkpt lat="43.75778" lon="5.94388">
        <ele>443</ele>
      </trkpt>
      <trkpt lat="43.75773" lon="5.94415">
        <ele>443</ele>
      </trkpt>
      <trkpt lat="43.75766" lon="5.94462">
        <ele>443</ele>
      </trkpt>
      <trkpt lat="43.75768" lon="5.94491">
        <ele>438</ele>
      </trkpt>
      <trkpt lat="43.7579" lon="5.94493">
        <ele>442</ele>
      </trkpt>
      <trkpt lat="43.7583" lon="5.94481">
        <ele>449</ele>
      </trkpt>
      <trkpt lat="43.75854" lon="5.94477">
        <ele>451</ele>
      </trkpt>
      <trkpt lat="43.7588" lon="5.94455">
        <ele>457</ele>
      </trkpt>
      <trkpt lat="43.75908" lon="5.9444">
        <ele>466</ele>
      </trkpt>
      <trkpt lat="43.75926" lon="5.94406">
        <ele>477</ele>
      </trkpt>
      <trkpt lat="43.75937" lon="5.94353">
        <ele>486</ele>
      </trkpt>
      <trkpt lat="43.75943" lon="5.94314">
        <ele>487</ele>
      </trkpt>
      <trkpt lat="43.7595" lon="5.94283">
        <ele>487</ele>
      </trkpt>
      <trkpt lat="43.75927" lon="5.94248">
        <ele>485</ele>
      </trkpt>
      <trkpt lat="43.75892" lon="5.94197">
        <ele>486</ele>
      </trkpt>
      <trkpt lat="43.75863" lon="5.9413">
        <ele>490</ele>
      </trkpt>
      <trkpt lat="43.75852" lon="5.94062">
        <ele>498</ele>
      </trkpt>
      <trkpt lat="43.75834" lon="5.93995">
        <ele>500</ele>
      </trkpt>
      <trkpt lat="43.75811" lon="5.93934">
        <ele>503</ele>
      </trkpt>
      <trkpt lat="43.75781" lon="5.93875">
        <ele>503</ele>
      </trkpt>
      <trkpt lat="43.75775" lon="5.93809">
        <ele>503</ele>
      </trkpt>
      <trkpt lat="43.75778" lon="5.93737">
        <ele>500</ele>
      </trkpt>
      <trkpt lat="43.75778" lon="5.93689">
        <ele>499</ele>
      </trkpt>
      <trkpt lat="43.75773" lon="5.93645">
        <ele>498</ele>
      </trkpt>
      <trkpt lat="43.75759" lon="5.93615">
        <ele>497</ele>
      </trkpt>
      <trkpt lat="43.75732" lon="5.93608">
        <ele>498</ele>
      </trkpt>
      <trkpt lat="43.75708" lon="5.93594">
        <ele>493</ele>
      </trkpt>
      <trkpt lat="43.75684" lon="5.9356">
        <ele>488</ele>
      </trkpt>
      <trkpt lat="43.75663" lon="5.93518">
        <ele>485</ele>
      </trkpt>
      <trkpt lat="43.7564" lon="5.93483">
        <ele>483</ele>
      </trkpt>
      <trkpt lat="43.7563" lon="5.93432">
        <ele>481</ele>
      </trkpt>
      <trkpt lat="43.75622" lon="5.93376">
        <ele>478</ele>
      </trkpt>
      <trkpt lat="43.75612" lon="5.93309">
        <ele>474</ele>
      </trkpt>
      <trkpt lat="43.7561" lon="5.93267">
        <ele>469</ele>
      </trkpt>
      <trkpt lat="43.75582" lon="5.93259">
        <ele>470</ele>
      </trkpt>
      <trkpt lat="43.75538" lon="5.93248">
        <ele>466</ele>
      </trkpt>
      <trkpt lat="43.75502" lon="5.93229">
        <ele>459</ele>
      </trkpt>
      <trkpt lat="43.75475" lon="5.93211">
        <ele>456</ele>
      </trkpt>
      <trkpt lat="43.7545" lon="5.93197">
        <ele>454</ele>
      </trkpt>
      <trkpt lat="43.75438" lon="5.93171">
        <ele>451</ele>
      </trkpt>
      <trkpt lat="43.75443" lon="5.93166">
        <ele>451</ele>
      </trkpt>
      <trkpt lat="43.75444" lon="5.93166">
        <ele>451</ele>
      </trkpt>
      <trkpt lat="43.75443" lon="5.93166">
        <ele>451</ele>
      </trkpt>
      <trkpt lat="43.75451" lon="5.9316">
        <ele>451</ele>
      </trkpt>
      <trkpt lat="43.75463" lon="5.93151">
        <ele>452</ele>
      </trkpt>
      <trkpt lat="43.75477" lon="5.93139">
        <ele>452</ele>
      </trkpt>
      <trkpt lat="43.75498" lon="5.93123">
        <ele>453</ele>
      </trkpt>
      <trkpt lat="43.7551" lon="5.9311">
        <ele>454</ele>
      </trkpt>
      <trkpt lat="43.75525" lon="5.93077">
        <ele>453</ele>
      </trkpt>
      <trkpt lat="43.75534" lon="5.93058">
        <ele>453</ele>
      </trkpt>
      <trkpt lat="43.7556" lon="5.93019">
        <ele>453</ele>
      </trkpt>
      <trkpt lat="43.75584" lon="5.92987">
        <ele>447</ele>
      </trkpt>
      <trkpt lat="43.75605" lon="5.92981">
        <ele>443</ele>
      </trkpt>
      <trkpt lat="43.75626" lon="5.92998">
        <ele>443</ele>
      </trkpt>
      <trkpt lat="43.75646" lon="5.9302">
        <ele>446</ele>
      </trkpt>
      <trkpt lat="43.75666" lon="5.93034">
        <ele>446</ele>
      </trkpt>
      <trkpt lat="43.75697" lon="5.9304">
        <ele>442</ele>
      </trkpt>
      <trkpt lat="43.75721" lon="5.93038">
        <ele>439</ele>
      </trkpt>
      <trkpt lat="43.75741" lon="5.93025">
        <ele>436</ele>
      </trkpt>
      <trkpt lat="43.75748" lon="5.93001">
        <ele>434</ele>
      </trkpt>
      <trkpt lat="43.75762" lon="5.92979">
        <ele>431</ele>
      </trkpt>
      <trkpt lat="43.75779" lon="5.92964">
        <ele>429</ele>
      </trkpt>
      <trkpt lat="43.75819" lon="5.92932">
        <ele>422</ele>
      </trkpt>
      <trkpt lat="43.75825" lon="5.92927">
        <ele>422</ele>
      </trkpt>
      <trkpt lat="43.7584" lon="5.92906">
        <ele>421</ele>
      </trkpt>
      <trkpt lat="43.75841" lon="5.92897">
        <ele>422</ele>
      </trkpt>
      <trkpt lat="43.75844" lon="5.92871">
        <ele>422</ele>
      </trkpt>
      <trkpt lat="43.75844" lon="5.92846">
        <ele>423</ele>
      </trkpt>
      <trkpt lat="43.75842" lon="5.9282">
        <ele>423</ele>
      </trkpt>
      <trkpt lat="43.75849" lon="5.92792">
        <ele>423</ele>
      </trkpt>
      <trkpt lat="43.75864" lon="5.92755">
        <ele>422</ele>
      </trkpt>
      <trkpt lat="43.75874" lon="5.92715">
        <ele>420</ele>
      </trkpt>
      <trkpt lat="43.75872" lon="5.92679">
        <ele>418</ele>
      </trkpt>
      <trkpt lat="43.7587" lon="5.9266">
        <ele>417</ele>
      </trkpt>
      <trkpt lat="43.75872" lon="5.92641">
        <ele>413</ele>
      </trkpt>
      <trkpt lat="43.75881" lon="5.92641">
        <ele>411</ele>
      </trkpt>
      <trkpt lat="43.75897" lon="5.92658">
        <ele>410</ele>
      </trkpt>
      <trkpt lat="43.75926" lon="5.92696">
        <ele>400</ele>
      </trkpt>
      <trkpt lat="43.75931" lon="5.92703">
        <ele>399</ele>
      </trkpt>
      <trkpt lat="43.75946" lon="5.92736">
        <ele>400</ele>
      </trkpt>
      <trkpt lat="43.75947" lon="5.92745">
        <ele>400</ele>
      </trkpt>
      <trkpt lat="43.75947" lon="5.92782">
        <ele>407</ele>
      </trkpt>
      <trkpt lat="43.7595" lon="5.92809">
        <ele>408</ele>
      </trkpt>
      <trkpt lat="43.75952" lon="5.92833">
        <ele>407</ele>
      </trkpt>
      <trkpt lat="43.75957" lon="5.92871">
        <ele>403</ele>
      </trkpt>
      <trkpt lat="43.7596" lon="5.92888">
        <ele>399</ele>
      </trkpt>
      <trkpt lat="43.75956" lon="5.92912">
        <ele>395</ele>
      </trkpt>
      <trkpt lat="43.75952" lon="5.92917">
        <ele>395</ele>
      </trkpt>
      <trkpt lat="43.75922" lon="5.92945">
        <ele>399</ele>
      </trkpt>
      <trkpt lat="43.75905" lon="5.92962">
        <ele>400</ele>
      </trkpt>
      <trkpt lat="43.75895" lon="5.9298">
        <ele>401</ele>
      </trkpt>
      <trkpt lat="43.75889" lon="5.93">
        <ele>405</ele>
      </trkpt>
      <trkpt lat="43.75895" lon="5.93025">
        <ele>407</ele>
      </trkpt>
      <trkpt lat="43.75914" lon="5.93027">
        <ele>404</ele>
      </trkpt>
      <trkpt lat="43.75928" lon="5.93035">
        <ele>403</ele>
      </trkpt>
      <trkpt lat="43.75932" lon="5.93038">
        <ele>402</ele>
      </trkpt>
      <trkpt lat="43.75951" lon="5.9307">
        <ele>397</ele>
      </trkpt>
      <trkpt lat="43.75952" lon="5.93094">
        <ele>399</ele>
      </trkpt>
      <trkpt lat="43.75949" lon="5.93115">
        <ele>401</ele>
      </trkpt>
      <trkpt lat="43.7595" lon="5.93164">
        <ele>407</ele>
      </trkpt>
      <trkpt lat="43.7595" lon="5.93172">
        <ele>408</ele>
      </trkpt>
      <trkpt lat="43.75964" lon="5.93194">
        <ele>411</ele>
      </trkpt>
      <trkpt lat="43.75973" lon="5.93187">
        <ele>412</ele>
      </trkpt>
      <trkpt lat="43.75982" lon="5.93177">
        <ele>412</ele>
      </trkpt>
      <trkpt lat="43.75992" lon="5.93164">
        <ele>412</ele>
      </trkpt>
      <trkpt lat="43.76" lon="5.93155">
        <ele>411</ele>
      </trkpt>
      <trkpt lat="43.76032" lon="5.93138">
        <ele>407</ele>
      </trkpt>
      <trkpt lat="43.76059" lon="5.93136">
        <ele>404</ele>
      </trkpt>
      <trkpt lat="43.76095" lon="5.93151">
        <ele>401</ele>
      </trkpt>
      <trkpt lat="43.76121" lon="5.93169">
        <ele>399</ele>
      </trkpt>
      <trkpt lat="43.76143" lon="5.93202">
        <ele>398</ele>
      </trkpt>
      <trkpt lat="43.76161" lon="5.9323">
        <ele>395</ele>
      </trkpt>
      <trkpt lat="43.76174" lon="5.93264">
        <ele>393</ele>
      </trkpt>
      <trkpt lat="43.76174" lon="5.93275">
        <ele>393</ele>
      </trkpt>
      <trkpt lat="43.76183" lon="5.93338">
        <ele>391</ele>
      </trkpt>
      <trkpt lat="43.76191" lon="5.93386">
        <ele>388</ele>
      </trkpt>
      <trkpt lat="43.76191" lon="5.93418">
        <ele>387</ele>
      </trkpt>
      <trkpt lat="43.76191" lon="5.93428">
        <ele>387</ele>
      </trkpt>
      <trkpt lat="43.76194" lon="5.93488">
        <ele>387</ele>
      </trkpt>
      <trkpt lat="43.762" lon="5.93516">
        <ele>386</ele>
      </trkpt>
      <trkpt lat="43.76213" lon="5.93525">
        <ele>383</ele>
      </trkpt>
      <trkpt lat="43.76234" lon="5.93546">
        <ele>379</ele>
      </trkpt>
      <trkpt lat="43.76228" lon="5.93563">
        <ele>380</ele>
      </trkpt>
      <trkpt lat="43.7622" lon="5.93598">
        <ele>384</ele>
      </trkpt>
      <trkpt lat="43.76229" lon="5.9362">
        <ele>384</ele>
      </trkpt>
      <trkpt lat="43.76234" lon="5.93642">
        <ele>383</ele>
      </trkpt>
      <trkpt lat="43.76233" lon="5.9367">
        <ele>384</ele>
      </trkpt>
      <trkpt lat="43.7624" lon="5.93716">
        <ele>382</ele>
      </trkpt>
      <trkpt lat="43.76253" lon="5.93737">
        <ele>379</ele>
      </trkpt>
      <trkpt lat="43.76258" lon="5.93758">
        <ele>380</ele>
      </trkpt>
      <trkpt lat="43.7625" lon="5.93773">
        <ele>383</ele>
      </trkpt>
      <trkpt lat="43.76246" lon="5.93778">
        <ele>384</ele>
      </trkpt>
      <trkpt lat="43.76229" lon="5.93801">
        <ele>388</ele>
      </trkpt>
      <trkpt lat="43.76225" lon="5.93831">
        <ele>395</ele>
      </trkpt>
      <trkpt lat="43.76233" lon="5.93833">
        <ele>395</ele>
      </trkpt>
      <trkpt lat="43.76251" lon="5.93829">
        <ele>393</ele>
      </trkpt>
      <trkpt lat="43.76278" lon="5.93833">
        <ele>392</ele>
      </trkpt>
      <trkpt lat="43.76313" lon="5.93847">
        <ele>391</ele>
      </trkpt>
      <trkpt lat="43.76327" lon="5.93864">
        <ele>391</ele>
      </trkpt>
      <trkpt lat="43.7633" lon="5.93874">
        <ele>392</ele>
      </trkpt>
      <trkpt lat="43.76336" lon="5.93898">
        <ele>393</ele>
      </trkpt>
      <trkpt lat="43.76354" lon="5.93942">
        <ele>394</ele>
      </trkpt>
      <trkpt lat="43.76362" lon="5.93962">
        <ele>394</ele>
      </trkpt>
      <trkpt lat="43.7638" lon="5.93979">
        <ele>392</ele>
      </trkpt>
      <trkpt lat="43.76396" lon="5.93994">
        <ele>390</ele>
      </trkpt>
      <trkpt lat="43.7642" lon="5.9404">
        <ele>384</ele>
      </trkpt>
      <trkpt lat="43.76434" lon="5.9407">
        <ele>381</ele>
      </trkpt>
      <trkpt lat="43.76445" lon="5.94115">
        <ele>383</ele>
      </trkpt>
      <trkpt lat="43.76448" lon="5.94126">
        <ele>384</ele>
      </trkpt>
      <trkpt lat="43.76471" lon="5.94162">
        <ele>385</ele>
      </trkpt>
      <trkpt lat="43.76475" lon="5.94168">
        <ele>386</ele>
      </trkpt>
      <trkpt lat="43.76492" lon="5.94196">
        <ele>387</ele>
      </trkpt>
      <trkpt lat="43.76507" lon="5.94212">
        <ele>387</ele>
      </trkpt>
      <trkpt lat="43.76516" lon="5.94222">
        <ele>386</ele>
      </trkpt>
      <trkpt lat="43.76543" lon="5.94257">
        <ele>381</ele>
      </trkpt>
      <trkpt lat="43.76555" lon="5.9427">
        <ele>379</ele>
      </trkpt>
      <trkpt lat="43.76562" lon="5.94295">
        <ele>377</ele>
      </trkpt>
      <trkpt lat="43.76548" lon="5.94328">
        <ele>379</ele>
      </trkpt>
      <trkpt lat="43.76539" lon="5.94348">
        <ele>381</ele>
      </trkpt>
      <trkpt lat="43.76531" lon="5.9437">
        <ele>383</ele>
      </trkpt>
      <trkpt lat="43.76528" lon="5.94405">
        <ele>384</ele>
      </trkpt>
      <trkpt lat="43.76539" lon="5.94424">
        <ele>382</ele>
      </trkpt>
      <trkpt lat="43.76551" lon="5.94445">
        <ele>379</ele>
      </trkpt>
      <trkpt lat="43.76553" lon="5.94463">
        <ele>378</ele>
      </trkpt>
      <trkpt lat="43.76547" lon="5.94534">
        <ele>383</ele>
      </trkpt>
      <trkpt lat="43.76539" lon="5.94586">
        <ele>389</ele>
      </trkpt>
      <trkpt lat="43.76545" lon="5.94608">
        <ele>393</ele>
      </trkpt>
      <trkpt lat="43.7656" lon="5.94607">
        <ele>396</ele>
      </trkpt>
      <trkpt lat="43.76565" lon="5.94605">
        <ele>396</ele>
      </trkpt>
      <trkpt lat="43.76574" lon="5.946">
        <ele>397</ele>
      </trkpt>
      <trkpt lat="43.76591" lon="5.94587">
        <ele>397</ele>
      </trkpt>
      <trkpt lat="43.76599" lon="5.94583">
        <ele>397</ele>
      </trkpt>
      <trkpt lat="43.76621" lon="5.94567">
        <ele>397</ele>
      </trkpt>
      <trkpt lat="43.76634" lon="5.94565">
        <ele>398</ele>
      </trkpt>
      <trkpt lat="43.76663" lon="5.94556">
        <ele>398</ele>
      </trkpt>
      <trkpt lat="43.76685" lon="5.94538">
        <ele>396</ele>
      </trkpt>
      <trkpt lat="43.76697" lon="5.94526">
        <ele>395</ele>
      </trkpt>
      <trkpt lat="43.76708" lon="5.9453">
        <ele>394</ele>
      </trkpt>
      <trkpt lat="43.76716" lon="5.94551">
        <ele>395</ele>
      </trkpt>
      <trkpt lat="43.76726" lon="5.94578">
        <ele>394</ele>
      </trkpt>
      <trkpt lat="43.76737" lon="5.94591">
        <ele>393</ele>
      </trkpt>
      <trkpt lat="43.76749" lon="5.94611">
        <ele>391</ele>
      </trkpt>
      <trkpt lat="43.76754" lon="5.94631">
        <ele>391</ele>
      </trkpt>
      <trkpt lat="43.76772" lon="5.9467">
        <ele>389</ele>
      </trkpt>
      <trkpt lat="43.76798" lon="5.94712">
        <ele>383</ele>
      </trkpt>
      <trkpt lat="43.76806" lon="5.94725">
        <ele>381</ele>
      </trkpt>
      <trkpt lat="43.76817" lon="5.94765">
        <ele>380</ele>
      </trkpt>
      <trkpt lat="43.76817" lon="5.94774">
        <ele>380</ele>
      </trkpt>
      <trkpt lat="43.76817" lon="5.94792">
        <ele>383</ele>
      </trkpt>
      <trkpt lat="43.76827" lon="5.94828">
        <ele>385</ele>
      </trkpt>
      <trkpt lat="43.76838" lon="5.94841">
        <ele>383</ele>
      </trkpt>
      <trkpt lat="43.7685" lon="5.94855">
        <ele>379</ele>
      </trkpt>
      <trkpt lat="43.76873" lon="5.94901">
        <ele>372</ele>
      </trkpt>
      <trkpt lat="43.76891" lon="5.94966">
        <ele>369</ele>
      </trkpt>
      <trkpt lat="43.76896" lon="5.94989">
        <ele>368</ele>
      </trkpt>
      <trkpt lat="43.76914" lon="5.95058">
        <ele>369</ele>
      </trkpt>
      <trkpt lat="43.76923" lon="5.95107">
        <ele>370</ele>
      </trkpt>
      <trkpt lat="43.76925" lon="5.95117">
        <ele>370</ele>
      </trkpt>
      <trkpt lat="43.76935" lon="5.95145">
        <ele>370</ele>
      </trkpt>
      <trkpt lat="43.76945" lon="5.95145">
        <ele>368</ele>
      </trkpt>
      <trkpt lat="43.76949" lon="5.95139">
        <ele>367</ele>
      </trkpt>
      <trkpt lat="43.76951" lon="5.95124">
        <ele>366</ele>
      </trkpt>
      <trkpt lat="43.76944" lon="5.951">
        <ele>365</ele>
      </trkpt>
      <trkpt lat="43.76927" lon="5.95047">
        <ele>365</ele>
      </trkpt>
      <trkpt lat="43.76923" lon="5.9503">
        <ele>365</ele>
      </trkpt>
      <trkpt lat="43.76919" lon="5.94978">
        <ele>362</ele>
      </trkpt>
      <trkpt lat="43.76921" lon="5.94917">
        <ele>359</ele>
      </trkpt>
      <trkpt lat="43.76918" lon="5.9485">
        <ele>359</ele>
      </trkpt>
      <trkpt lat="43.76917" lon="5.9484">
        <ele>358</ele>
      </trkpt>
      <trkpt lat="43.76911" lon="5.94803">
        <ele>358</ele>
      </trkpt>
      <trkpt lat="43.76918" lon="5.94775">
        <ele>358</ele>
      </trkpt>
      <trkpt lat="43.76923" lon="5.94771">
        <ele>358</ele>
      </trkpt>
      <trkpt lat="43.76946" lon="5.94751">
        <ele>361</ele>
      </trkpt>
      <trkpt lat="43.76943" lon="5.94731">
        <ele>362</ele>
      </trkpt>
      <trkpt lat="43.76937" lon="5.9472">
        <ele>361</ele>
      </trkpt>
      <trkpt lat="43.76931" lon="5.94707">
        <ele>360</ele>
      </trkpt>
      <trkpt lat="43.76928" lon="5.94666">
        <ele>361</ele>
      </trkpt>
      <trkpt lat="43.7693" lon="5.94659">
        <ele>362</ele>
      </trkpt>
      <trkpt lat="43.76935" lon="5.94637">
        <ele>362</ele>
      </trkpt>
      <trkpt lat="43.76934" lon="5.94615">
        <ele>362</ele>
      </trkpt>
      <trkpt lat="43.7694" lon="5.94591">
        <ele>362</ele>
      </trkpt>
      <trkpt lat="43.76947" lon="5.94565">
        <ele>363</ele>
      </trkpt>
      <trkpt lat="43.76958" lon="5.9454">
        <ele>364</ele>
      </trkpt>
      <trkpt lat="43.76965" lon="5.94517">
        <ele>365</ele>
      </trkpt>
      <trkpt lat="43.76969" lon="5.94499">
        <ele>365</ele>
      </trkpt>
      <trkpt lat="43.76974" lon="5.94492">
        <ele>366</ele>
      </trkpt>
      <trkpt lat="43.76979" lon="5.94492">
        <ele>368</ele>
      </trkpt>
      <trkpt lat="43.7698" lon="5.94494">
        <ele>368</ele>
      </trkpt>
      <trkpt lat="43.76981" lon="5.94499">
        <ele>368</ele>
      </trkpt>
      <trkpt lat="43.76986" lon="5.94493">
        <ele>369</ele>
      </trkpt>
      <trkpt lat="43.76992" lon="5.94478">
        <ele>371</ele>
      </trkpt>
      <trkpt lat="43.76995" lon="5.94468">
        <ele>371</ele>
      </trkpt>
      <trkpt lat="43.77003" lon="5.94451">
        <ele>371</ele>
      </trkpt>
      <trkpt lat="43.77016" lon="5.94425">
        <ele>369</ele>
      </trkpt>
      <trkpt lat="43.77028" lon="5.94416">
        <ele>369</ele>
      </trkpt>
      <trkpt lat="43.77031" lon="5.94414">
        <ele>369</ele>
      </trkpt>
      <trkpt lat="43.77031" lon="5.94403">
        <ele>367</ele>
      </trkpt>
      <trkpt lat="43.77035" lon="5.94388">
        <ele>365</ele>
      </trkpt>
      <trkpt lat="43.77026" lon="5.94381">
        <ele>363</ele>
      </trkpt>
      <trkpt lat="43.77017" lon="5.9438">
        <ele>363</ele>
      </trkpt>
      <trkpt lat="43.76992" lon="5.94372">
        <ele>359</ele>
      </trkpt>
      <trkpt lat="43.76979" lon="5.94354">
        <ele>356</ele>
      </trkpt>
      <trkpt lat="43.7697" lon="5.94325">
        <ele>356</ele>
      </trkpt>
      <trkpt lat="43.76962" lon="5.94297">
        <ele>356</ele>
      </trkpt>
      <trkpt lat="43.76958" lon="5.94277">
        <ele>356</ele>
      </trkpt>
      <trkpt lat="43.76953" lon="5.94254">
        <ele>357</ele>
      </trkpt>
      <trkpt lat="43.76946" lon="5.94233">
        <ele>358</ele>
      </trkpt>
      <trkpt lat="43.76948" lon="5.94221">
        <ele>359</ele>
      </trkpt>
      <trkpt lat="43.76948" lon="5.94211">
        <ele>360</ele>
      </trkpt>
      <trkpt lat="43.76948" lon="5.94186">
        <ele>362</ele>
      </trkpt>
      <trkpt lat="43.76947" lon="5.94165">
        <ele>364</ele>
      </trkpt>
      <trkpt lat="43.76948" lon="5.94145">
        <ele>366</ele>
      </trkpt>
      <trkpt lat="43.76948" lon="5.94139">
        <ele>366</ele>
      </trkpt>
      <trkpt lat="43.76947" lon="5.94114">
        <ele>368</ele>
      </trkpt>
      <trkpt lat="43.76945" lon="5.94093">
        <ele>370</ele>
      </trkpt>
      <trkpt lat="43.76945" lon="5.94085">
        <ele>370</ele>
      </trkpt>
      <trkpt lat="43.76944" lon="5.9407">
        <ele>372</ele>
      </trkpt>
      <trkpt lat="43.76945" lon="5.94054">
        <ele>373</ele>
      </trkpt>
      <trkpt lat="43.76948" lon="5.94032">
        <ele>375</ele>
      </trkpt>
      <trkpt lat="43.7695" lon="5.9401">
        <ele>378</ele>
      </trkpt>
      <trkpt lat="43.76951" lon="5.94005">
        <ele>378</ele>
      </trkpt>
      <trkpt lat="43.76944" lon="5.94001">
        <ele>379</ele>
      </trkpt>
      <trkpt lat="43.76939" lon="5.94003">
        <ele>379</ele>
      </trkpt>
      <trkpt lat="43.76925" lon="5.94003">
        <ele>379</ele>
      </trkpt>
      <trkpt lat="43.76918" lon="5.93984">
        <ele>380</ele>
      </trkpt>
      <trkpt lat="43.76912" lon="5.93952">
        <ele>381</ele>
      </trkpt>
      <trkpt lat="43.76908" lon="5.93921">
        <ele>382</ele>
      </trkpt>
      <trkpt lat="43.76901" lon="5.93884">
        <ele>383</ele>
      </trkpt>
      <trkpt lat="43.76889" lon="5.93885">
        <ele>381</ele>
      </trkpt>
      <trkpt lat="43.76866" lon="5.9391">
        <ele>377</ele>
      </trkpt>
      <trkpt lat="43.76862" lon="5.93914">
        <ele>376</ele>
      </trkpt>
      <trkpt lat="43.76852" lon="5.93907">
        <ele>375</ele>
      </trkpt>
      <trkpt lat="43.76839" lon="5.93892">
        <ele>374</ele>
      </trkpt>
      <trkpt lat="43.76823" lon="5.93869">
        <ele>375</ele>
      </trkpt>
      <trkpt lat="43.76814" lon="5.93848">
        <ele>376</ele>
      </trkpt>
      <trkpt lat="43.76812" lon="5.9383">
        <ele>377</ele>
      </trkpt>
      <trkpt lat="43.76812" lon="5.93815">
        <ele>379</ele>
      </trkpt>
      <trkpt lat="43.76815" lon="5.93789">
        <ele>381</ele>
      </trkpt>
      <trkpt lat="43.76817" lon="5.93775">
        <ele>382</ele>
      </trkpt>
      <trkpt lat="43.76822" lon="5.93763">
        <ele>383</ele>
      </trkpt>
      <trkpt lat="43.76824" lon="5.93749">
        <ele>383</ele>
      </trkpt>
      <trkpt lat="43.76824" lon="5.93719">
        <ele>383</ele>
      </trkpt>
      <trkpt lat="43.76816" lon="5.93693">
        <ele>384</ele>
      </trkpt>
      <trkpt lat="43.76808" lon="5.93673">
        <ele>383</ele>
      </trkpt>
      <trkpt lat="43.76803" lon="5.93651">
        <ele>384</ele>
      </trkpt>
      <trkpt lat="43.76806" lon="5.93622">
        <ele>386</ele>
      </trkpt>
      <trkpt lat="43.76808" lon="5.93605">
        <ele>387</ele>
      </trkpt>
      <trkpt lat="43.768" lon="5.93569">
        <ele>384</ele>
      </trkpt>
      <trkpt lat="43.76789" lon="5.93557">
        <ele>380</ele>
      </trkpt>
      <trkpt lat="43.76758" lon="5.93531">
        <ele>372</ele>
      </trkpt>
      <trkpt lat="43.76751" lon="5.93527">
        <ele>371</ele>
      </trkpt>
      <trkpt lat="43.76749" lon="5.93526">
        <ele>371</ele>
      </trkpt>
      <trkpt lat="43.76751" lon="5.93528">
        <ele>371</ele>
      </trkpt>
      <trkpt lat="43.76748" lon="5.93527">
        <ele>370</ele>
      </trkpt>
      <trkpt lat="43.76748" lon="5.93526">
        <ele>370</ele>
      </trkpt>
      <trkpt lat="43.76738" lon="5.93515">
        <ele>371</ele>
      </trkpt>
      <trkpt lat="43.76725" lon="5.93501">
        <ele>371</ele>
      </trkpt>
      <trkpt lat="43.76713" lon="5.93479">
        <ele>373</ele>
      </trkpt>
      <trkpt lat="43.76706" lon="5.93446">
        <ele>377</ele>
      </trkpt>
      <trkpt lat="43.76707" lon="5.93413">
        <ele>381</ele>
      </trkpt>
      <trkpt lat="43.76708" lon="5.93392">
        <ele>383</ele>
      </trkpt>
      <trkpt lat="43.76704" lon="5.93359">
        <ele>379</ele>
      </trkpt>
      <trkpt lat="43.76694" lon="5.9335">
        <ele>375</ele>
      </trkpt>
      <trkpt lat="43.76673" lon="5.93348">
        <ele>371</ele>
      </trkpt>
      <trkpt lat="43.76661" lon="5.93345">
        <ele>371</ele>
      </trkpt>
      <trkpt lat="43.76644" lon="5.93343">
        <ele>371</ele>
      </trkpt>
      <trkpt lat="43.76627" lon="5.93342">
        <ele>373</ele>
      </trkpt>
      <trkpt lat="43.76611" lon="5.93338">
        <ele>375</ele>
      </trkpt>
      <trkpt lat="43.76604" lon="5.93335">
        <ele>376</ele>
      </trkpt>
      <trkpt lat="43.76594" lon="5.9332">
        <ele>379</ele>
      </trkpt>
      <trkpt lat="43.76587" lon="5.93297">
        <ele>380</ele>
      </trkpt>
      <trkpt lat="43.7659" lon="5.93273">
        <ele>382</ele>
      </trkpt>
      <trkpt lat="43.76605" lon="5.93238">
        <ele>382</ele>
      </trkpt>
      <trkpt lat="43.76613" lon="5.93214">
        <ele>383</ele>
      </trkpt>
      <trkpt lat="43.76608" lon="5.93199">
        <ele>383</ele>
      </trkpt>
      <trkpt lat="43.76588" lon="5.93164">
        <ele>381</ele>
      </trkpt>
      <trkpt lat="43.76574" lon="5.93134">
        <ele>380</ele>
      </trkpt>
      <trkpt lat="43.76554" lon="5.93111">
        <ele>380</ele>
      </trkpt>
      <trkpt lat="43.76524" lon="5.93081">
        <ele>378</ele>
      </trkpt>
      <trkpt lat="43.7652" lon="5.93076">
        <ele>378</ele>
      </trkpt>
      <trkpt lat="43.7651" lon="5.93042">
        <ele>380</ele>
      </trkpt>
      <trkpt lat="43.76511" lon="5.93025">
        <ele>382</ele>
      </trkpt>
      <trkpt lat="43.76517" lon="5.92983">
        <ele>385</ele>
      </trkpt>
      <trkpt lat="43.76508" lon="5.92955">
        <ele>382</ele>
      </trkpt>
      <trkpt lat="43.76504" lon="5.92951">
        <ele>381</ele>
      </trkpt>
      <trkpt lat="43.76469" lon="5.92917">
        <ele>375</ele>
      </trkpt>
      <trkpt lat="43.76465" lon="5.92912">
        <ele>375</ele>
      </trkpt>
      <trkpt lat="43.76453" lon="5.92882">
        <ele>376</ele>
      </trkpt>
      <trkpt lat="43.76448" lon="5.92847">
        <ele>380</ele>
      </trkpt>
      <trkpt lat="43.76448" lon="5.92831">
        <ele>382</ele>
      </trkpt>
      <trkpt lat="43.76455" lon="5.92782">
        <ele>386</ele>
      </trkpt>
      <trkpt lat="43.76447" lon="5.92762">
        <ele>383</ele>
      </trkpt>
      <trkpt lat="43.76434" lon="5.92766">
        <ele>379</ele>
      </trkpt>
      <trkpt lat="43.76422" lon="5.92773">
        <ele>378</ele>
      </trkpt>
      <trkpt lat="43.76397" lon="5.92779">
        <ele>374</ele>
      </trkpt>
      <trkpt lat="43.76377" lon="5.92781">
        <ele>372</ele>
      </trkpt>
      <trkpt lat="43.76361" lon="5.9278">
        <ele>372</ele>
      </trkpt>
      <trkpt lat="43.76344" lon="5.92768">
        <ele>375</ele>
      </trkpt>
      <trkpt lat="43.76338" lon="5.92753">
        <ele>378</ele>
      </trkpt>
      <trkpt lat="43.7633" lon="5.92733">
        <ele>381</ele>
      </trkpt>
      <trkpt lat="43.76322" lon="5.92718">
        <ele>382</ele>
      </trkpt>
      <trkpt lat="43.76301" lon="5.92686">
        <ele>384</ele>
      </trkpt>
      <trkpt lat="43.7629" lon="5.92651">
        <ele>385</ele>
      </trkpt>
      <trkpt lat="43.76283" lon="5.92599">
        <ele>389</ele>
      </trkpt>
      <trkpt lat="43.76278" lon="5.92575">
        <ele>388</ele>
      </trkpt>
      <trkpt lat="43.76276" lon="5.92573">
        <ele>387</ele>
      </trkpt>
      <trkpt lat="43.76276" lon="5.92578">
        <ele>387</ele>
      </trkpt>
      <trkpt lat="43.76272" lon="5.92575">
        <ele>386</ele>
      </trkpt>
      <trkpt lat="43.7627" lon="5.92571">
        <ele>386</ele>
      </trkpt>
      <trkpt lat="43.76257" lon="5.92562">
        <ele>382</ele>
      </trkpt>
      <trkpt lat="43.76256" lon="5.92549">
        <ele>383</ele>
      </trkpt>
      <trkpt lat="43.76261" lon="5.9254">
        <ele>385</ele>
      </trkpt>
      <trkpt lat="43.76267" lon="5.92535">
        <ele>387</ele>
      </trkpt>
      <trkpt lat="43.76274" lon="5.92522">
        <ele>390</ele>
      </trkpt>
      <trkpt lat="43.76277" lon="5.92518">
        <ele>391</ele>
      </trkpt>
      <trkpt lat="43.76278" lon="5.92509">
        <ele>391</ele>
      </trkpt>
      <trkpt lat="43.76275" lon="5.92495">
        <ele>392</ele>
      </trkpt>
      <trkpt lat="43.76278" lon="5.9248">
        <ele>394</ele>
      </trkpt>
      <trkpt lat="43.76278" lon="5.92478">
        <ele>395</ele>
      </trkpt>
      <trkpt lat="43.76277" lon="5.92459">
        <ele>397</ele>
      </trkpt>
      <trkpt lat="43.76275" lon="5.92438">
        <ele>398</ele>
      </trkpt>
      <trkpt lat="43.76269" lon="5.92413">
        <ele>400</ele>
      </trkpt>
      <trkpt lat="43.76257" lon="5.92403">
        <ele>399</ele>
      </trkpt>
      <trkpt lat="43.7624" lon="5.924">
        <ele>396</ele>
      </trkpt>
      <trkpt lat="43.7623" lon="5.9239">
        <ele>396</ele>
      </trkpt>
      <trkpt lat="43.76224" lon="5.92374">
        <ele>397</ele>
      </trkpt>
      <trkpt lat="43.76224" lon="5.92356">
        <ele>400</ele>
      </trkpt>
      <trkpt lat="43.76224" lon="5.92334">
        <ele>402</ele>
      </trkpt>
      <trkpt lat="43.76221" lon="5.92311">
        <ele>405</ele>
      </trkpt>
      <trkpt lat="43.7622" lon="5.92286">
        <ele>407</ele>
      </trkpt>
      <trkpt lat="43.76222" lon="5.92263">
        <ele>409</ele>
      </trkpt>
      <trkpt lat="43.76228" lon="5.92236">
        <ele>413</ele>
      </trkpt>
      <trkpt lat="43.76231" lon="5.92222">
        <ele>415</ele>
      </trkpt>
      <trkpt lat="43.76225" lon="5.9221">
        <ele>414</ele>
      </trkpt>
      <trkpt lat="43.76223" lon="5.92209">
        <ele>413</ele>
      </trkpt>
      <trkpt lat="43.762" lon="5.92204">
        <ele>407</ele>
      </trkpt>
      <trkpt lat="43.76184" lon="5.92189">
        <ele>405</ele>
      </trkpt>
      <trkpt lat="43.76172" lon="5.92167">
        <ele>407</ele>
      </trkpt>
      <trkpt lat="43.76165" lon="5.92146">
        <ele>410</ele>
      </trkpt>
      <trkpt lat="43.76159" lon="5.92121">
        <ele>414</ele>
      </trkpt>
      <trkpt lat="43.76155" lon="5.92101">
        <ele>416</ele>
      </trkpt>
      <trkpt lat="43.76147" lon="5.92062">
        <ele>419</ele>
      </trkpt>
      <trkpt lat="43.76144" lon="5.92034">
        <ele>419</ele>
      </trkpt>
      <trkpt lat="43.76137" lon="5.92016">
        <ele>417</ele>
      </trkpt>
      <trkpt lat="43.76128" lon="5.92003">
        <ele>415</ele>
      </trkpt>
      <trkpt lat="43.76115" lon="5.91995">
        <ele>412</ele>
      </trkpt>
      <trkpt lat="43.76103" lon="5.91989">
        <ele>408</ele>
      </trkpt>
      <trkpt lat="43.76101" lon="5.91987">
        <ele>407</ele>
      </trkpt>
      <trkpt lat="43.76097" lon="5.91984">
        <ele>406</ele>
      </trkpt>
      <trkpt lat="43.76096" lon="5.91983">
        <ele>406</ele>
      </trkpt>
      <trkpt lat="43.7609" lon="5.91982">
        <ele>405</ele>
      </trkpt>
      <trkpt lat="43.76088" lon="5.91981">
        <ele>405</ele>
      </trkpt>
      <trkpt lat="43.76089" lon="5.91981">
        <ele>405</ele>
      </trkpt>
      <trkpt lat="43.76084" lon="5.91977">
        <ele>404</ele>
      </trkpt>
      <trkpt lat="43.76075" lon="5.91972">
        <ele>402</ele>
      </trkpt>
      <trkpt lat="43.76073" lon="5.91971">
        <ele>402</ele>
      </trkpt>
      <trkpt lat="43.76069" lon="5.91971">
        <ele>402</ele>
      </trkpt>
      <trkpt lat="43.76065" lon="5.91971">
        <ele>401</ele>
      </trkpt>
      <trkpt lat="43.76058" lon="5.91972">
        <ele>400</ele>
      </trkpt>
      <trkpt lat="43.76057" lon="5.91973">
        <ele>400</ele>
      </trkpt>
      <trkpt lat="43.76052" lon="5.91968">
        <ele>399</ele>
      </trkpt>
      <trkpt lat="43.7605" lon="5.91967">
        <ele>399</ele>
      </trkpt>
      <trkpt lat="43.76048" lon="5.91965">
        <ele>398</ele>
      </trkpt>
      <trkpt lat="43.76033" lon="5.91958">
        <ele>395</ele>
      </trkpt>
      <trkpt lat="43.76024" lon="5.91955">
        <ele>393</ele>
      </trkpt>
      <trkpt lat="43.7602" lon="5.91954">
        <ele>392</ele>
      </trkpt>
      <trkpt lat="43.76002" lon="5.91955">
        <ele>387</ele>
      </trkpt>
      <trkpt lat="43.75997" lon="5.91955">
        <ele>386</ele>
      </trkpt>
      <trkpt lat="43.75986" lon="5.91952">
        <ele>384</ele>
      </trkpt>
      <trkpt lat="43.75972" lon="5.91951">
        <ele>381</ele>
      </trkpt>
      <trkpt lat="43.75957" lon="5.91948">
        <ele>378</ele>
      </trkpt>
      <trkpt lat="43.75944" lon="5.91946">
        <ele>376</ele>
      </trkpt>
      <trkpt lat="43.75925" lon="5.91941">
        <ele>374</ele>
      </trkpt>
      <trkpt lat="43.75909" lon="5.91935">
        <ele>373</ele>
      </trkpt>
      <trkpt lat="43.75895" lon="5.9192">
        <ele>375</ele>
      </trkpt>
      <trkpt lat="43.75884" lon="5.91923">
        <ele>372</ele>
      </trkpt>
      <trkpt lat="43.75878" lon="5.91926">
        <ele>369</ele>
      </trkpt>
      <trkpt lat="43.7586" lon="5.91927">
        <ele>366</ele>
      </trkpt>
      <trkpt lat="43.75851" lon="5.91934">
        <ele>361</ele>
      </trkpt>
      <trkpt lat="43.75837" lon="5.91936">
        <ele>358</ele>
      </trkpt>
      <trkpt lat="43.75826" lon="5.91938">
        <ele>356</ele>
      </trkpt>
      <trkpt lat="43.75818" lon="5.91943">
        <ele>353</ele>
      </trkpt>
      <trkpt lat="43.75804" lon="5.91935">
        <ele>355</ele>
      </trkpt>
      <trkpt lat="43.75795" lon="5.91924">
        <ele>357</ele>
      </trkpt>
      <trkpt lat="43.75792" lon="5.9192">
        <ele>358</ele>
      </trkpt>
      <trkpt lat="43.75787" lon="5.91919">
        <ele>357</ele>
      </trkpt>
      <trkpt lat="43.75779" lon="5.91915">
        <ele>356</ele>
      </trkpt>
      <trkpt lat="43.7577" lon="5.91912">
        <ele>355</ele>
      </trkpt>
      <trkpt lat="43.75759" lon="5.91917">
        <ele>353</ele>
      </trkpt>
      <trkpt lat="43.75755" lon="5.91929">
        <ele>351</ele>
      </trkpt>
      <trkpt lat="43.75747" lon="5.91942">
        <ele>350</ele>
      </trkpt>
      <trkpt lat="43.75732" lon="5.91941">
        <ele>346</ele>
      </trkpt>
      <trkpt lat="43.75726" lon="5.91923">
        <ele>344</ele>
      </trkpt>
      <trkpt lat="43.75732" lon="5.91894">
        <ele>343</ele>
      </trkpt>
      <trkpt lat="43.75731" lon="5.91871">
        <ele>338</ele>
      </trkpt>
      <trkpt lat="43.75718" lon="5.91852">
        <ele>332</ele>
      </trkpt>
      <trkpt lat="43.75713" lon="5.9185">
        <ele>331</ele>
      </trkpt>
      <trkpt lat="43.75698" lon="5.91857">
        <ele>329</ele>
      </trkpt>
      <trkpt lat="43.75677" lon="5.91867">
        <ele>326</ele>
      </trkpt>
      <trkpt lat="43.75665" lon="5.91856">
        <ele>325</ele>
      </trkpt>
      <trkpt lat="43.75637" lon="5.91813">
        <ele>329</ele>
      </trkpt>
      <trkpt lat="43.75628" lon="5.91796">
        <ele>330</ele>
      </trkpt>
      <trkpt lat="43.75624" lon="5.91786">
        <ele>331</ele>
      </trkpt>
      <trkpt lat="43.75616" lon="5.91743">
        <ele>332</ele>
      </trkpt>
      <trkpt lat="43.75619" lon="5.91699">
        <ele>334</ele>
      </trkpt>
      <trkpt lat="43.75639" lon="5.91614">
        <ele>336</ele>
      </trkpt>
      <trkpt lat="43.75657" lon="5.91541">
        <ele>332</ele>
      </trkpt>
      <trkpt lat="43.75669" lon="5.91484">
        <ele>329</ele>
      </trkpt>
      <trkpt lat="43.75677" lon="5.91452">
        <ele>328</ele>
      </trkpt>
      <trkpt lat="43.75668" lon="5.91432">
        <ele>326</ele>
      </trkpt>
      <trkpt lat="43.75657" lon="5.91433">
        <ele>325</ele>
      </trkpt>
      <trkpt lat="43.75646" lon="5.91437">
        <ele>324</ele>
      </trkpt>
      <trkpt lat="43.75626" lon="5.91448">
        <ele>321</ele>
      </trkpt>
      <trkpt lat="43.7562" lon="5.91464">
        <ele>321</ele>
      </trkpt>
      <trkpt lat="43.75599" lon="5.91514">
        <ele>321</ele>
      </trkpt>
      <trkpt lat="43.75577" lon="5.91528">
        <ele>318</ele>
      </trkpt>
      <trkpt lat="43.75548" lon="5.91532">
        <ele>317</ele>
      </trkpt>
      <trkpt lat="43.75514" lon="5.91537">
        <ele>315</ele>
      </trkpt>
      <trkpt lat="43.75502" lon="5.9154">
        <ele>315</ele>
      </trkpt>
      <trkpt lat="43.75449" lon="5.91551">
        <ele>313</ele>
      </trkpt>
      <trkpt lat="43.75426" lon="5.91557">
        <ele>311</ele>
      </trkpt>
      <trkpt lat="43.75413" lon="5.9155">
        <ele>309</ele>
      </trkpt>
      <trkpt lat="43.75406" lon="5.9153">
        <ele>309</ele>
      </trkpt>
      <trkpt lat="43.7539" lon="5.91488">
        <ele>309</ele>
      </trkpt>
      <trkpt lat="43.75377" lon="5.91437">
        <ele>308</ele>
      </trkpt>
      <trkpt lat="43.75376" lon="5.9143">
        <ele>308</ele>
      </trkpt>
      <trkpt lat="43.75368" lon="5.91392">
        <ele>308</ele>
      </trkpt>
      <trkpt lat="43.75363" lon="5.9136">
        <ele>307</ele>
      </trkpt>
      <trkpt lat="43.75357" lon="5.91323">
        <ele>306</ele>
      </trkpt>
      <trkpt lat="43.75353" lon="5.91276">
        <ele>306</ele>
      </trkpt>
      <trkpt lat="43.75357" lon="5.91239">
        <ele>306</ele>
      </trkpt>
      <trkpt lat="43.75356" lon="5.91176">
        <ele>307</ele>
      </trkpt>
      <trkpt lat="43.75358" lon="5.91132">
        <ele>307</ele>
      </trkpt>
      <trkpt lat="43.75362" lon="5.91067">
        <ele>307</ele>
      </trkpt>
      <trkpt lat="43.75363" lon="5.91051">
        <ele>307</ele>
      </trkpt>
      <trkpt lat="43.75368" lon="5.90992">
        <ele>307</ele>
      </trkpt>
      <trkpt lat="43.75378" lon="5.90942">
        <ele>306</ele>
      </trkpt>
      <trkpt lat="43.75395" lon="5.90888">
        <ele>306</ele>
      </trkpt>
      <trkpt lat="43.75409" lon="5.90851">
        <ele>306</ele>
      </trkpt>
      <trkpt lat="43.7542" lon="5.90814">
        <ele>306</ele>
      </trkpt>
      <trkpt lat="43.7543" lon="5.90768">
        <ele>306</ele>
      </trkpt>
      <trkpt lat="43.75434" lon="5.90738">
        <ele>306</ele>
      </trkpt>
      <trkpt lat="43.75434" lon="5.90678">
        <ele>305</ele>
      </trkpt>
      <trkpt lat="43.75434" lon="5.90643">
        <ele>304</ele>
      </trkpt>
      <trkpt lat="43.75439" lon="5.90584">
        <ele>304</ele>
      </trkpt>
      <trkpt lat="43.75441" lon="5.90571">
        <ele>304</ele>
      </trkpt>
      <trkpt lat="43.75445" lon="5.90558">
        <ele>304</ele>
      </trkpt>
      <trkpt lat="43.75451" lon="5.90517">
        <ele>304</ele>
      </trkpt>
      <trkpt lat="43.75448" lon="5.90464">
        <ele>304</ele>
      </trkpt>
      <trkpt lat="43.75441" lon="5.90417">
        <ele>304</ele>
      </trkpt>
      <trkpt lat="43.7544" lon="5.90371">
        <ele>304</ele>
      </trkpt>
      <trkpt lat="43.75436" lon="5.90322">
        <ele>305</ele>
      </trkpt>
      <trkpt lat="43.75431" lon="5.90263">
        <ele>306</ele>
      </trkpt>
      <trkpt lat="43.75425" lon="5.90235">
        <ele>307</ele>
      </trkpt>
      <trkpt lat="43.75418" lon="5.90218">
        <ele>307</ele>
      </trkpt>
      <trkpt lat="43.75406" lon="5.9018">
        <ele>306</ele>
      </trkpt>
      <trkpt lat="43.754" lon="5.90139">
        <ele>306</ele>
      </trkpt>
      <trkpt lat="43.75396" lon="5.90078">
        <ele>307</ele>
      </trkpt>
      <trkpt lat="43.75391" lon="5.90052">
        <ele>308</ele>
      </trkpt>
      <trkpt lat="43.75375" lon="5.90002">
        <ele>307</ele>
      </trkpt>
      <trkpt lat="43.75371" lon="5.89991">
        <ele>307</ele>
      </trkpt>
      <trkpt lat="43.75365" lon="5.8995">
        <ele>307</ele>
      </trkpt>
      <trkpt lat="43.75362" lon="5.89904">
        <ele>306</ele>
      </trkpt>
      <trkpt lat="43.75359" lon="5.8985">
        <ele>305</ele>
      </trkpt>
      <trkpt lat="43.75361" lon="5.89774">
        <ele>304</ele>
      </trkpt>
      <trkpt lat="43.75361" lon="5.89758">
        <ele>303</ele>
      </trkpt>
      <trkpt lat="43.75367" lon="5.89698">
        <ele>302</ele>
      </trkpt>
      <trkpt lat="43.75373" lon="5.89611">
        <ele>303</ele>
      </trkpt>
      <trkpt lat="43.75377" lon="5.89549">
        <ele>303</ele>
      </trkpt>
      <trkpt lat="43.75382" lon="5.89496">
        <ele>302</ele>
      </trkpt>
      <trkpt lat="43.75388" lon="5.89447">
        <ele>301</ele>
      </trkpt>
      <trkpt lat="43.7539" lon="5.89397">
        <ele>301</ele>
      </trkpt>
      <trkpt lat="43.75396" lon="5.89338">
        <ele>303</ele>
      </trkpt>
      <trkpt lat="43.75398" lon="5.89323">
        <ele>304</ele>
      </trkpt>
      <trkpt lat="43.75394" lon="5.89257">
        <ele>305</ele>
      </trkpt>
      <trkpt lat="43.75395" lon="5.89229">
        <ele>306</ele>
      </trkpt>
      <trkpt lat="43.75407" lon="5.89219">
        <ele>307</ele>
      </trkpt>
      <trkpt lat="43.75418" lon="5.89212">
        <ele>308</ele>
      </trkpt>
      <trkpt lat="43.7544" lon="5.89187">
        <ele>309</ele>
      </trkpt>
      <trkpt lat="43.7547" lon="5.89169">
        <ele>311</ele>
      </trkpt>
      <trkpt lat="43.75482" lon="5.89163">
        <ele>311</ele>
      </trkpt>
      <trkpt lat="43.75491" lon="5.89161">
        <ele>311</ele>
      </trkpt>
      <trkpt lat="43.75531" lon="5.89145">
        <ele>310</ele>
      </trkpt>
      <trkpt lat="43.7554" lon="5.89142">
        <ele>310</ele>
      </trkpt>
      <trkpt lat="43.75549" lon="5.8914">
        <ele>309</ele>
      </trkpt>
      <trkpt lat="43.75568" lon="5.89133">
        <ele>309</ele>
      </trkpt>
      <trkpt lat="43.75586" lon="5.8912">
        <ele>309</ele>
      </trkpt>
      <trkpt lat="43.75617" lon="5.89088">
        <ele>310</ele>
      </trkpt>
      <trkpt lat="43.75636" lon="5.89063">
        <ele>312</ele>
      </trkpt>
      <trkpt lat="43.75644" lon="5.8905">
        <ele>313</ele>
      </trkpt>
      <trkpt lat="43.75668" lon="5.89013">
        <ele>315</ele>
      </trkpt>
      <trkpt lat="43.75677" lon="5.88986">
        <ele>316</ele>
      </trkpt>
      <trkpt lat="43.75706" lon="5.88946">
        <ele>318</ele>
      </trkpt>
      <trkpt lat="43.75722" lon="5.8892">
        <ele>320</ele>
      </trkpt>
      <trkpt lat="43.75734" lon="5.88887">
        <ele>323</ele>
      </trkpt>
      <trkpt lat="43.75744" lon="5.88845">
        <ele>325</ele>
      </trkpt>
      <trkpt lat="43.75768" lon="5.88808">
        <ele>328</ele>
      </trkpt>
      <trkpt lat="43.75788" lon="5.88786">
        <ele>329</ele>
      </trkpt>
      <trkpt lat="43.75788" lon="5.88786">
        <ele>335</ele>
      </trkpt>
      <trkpt lat="43.75794" lon="5.88784">
        <ele>335</ele>
      </trkpt>
      <trkpt lat="43.758" lon="5.88784">
        <ele>335</ele>
      </trkpt>
      <trkpt lat="43.75809" lon="5.88791">
        <ele>334</ele>
      </trkpt>
      <trkpt lat="43.75808" lon="5.888">
        <ele>334</ele>
      </trkpt>
      <trkpt lat="43.75807" lon="5.88804">
        <ele>334</ele>
      </trkpt>
      <trkpt lat="43.75807" lon="5.88806">
        <ele>334</ele>
      </trkpt>
      <trkpt lat="43.75807" lon="5.88808">
        <ele>334</ele>
      </trkpt>
      <trkpt lat="43.75818" lon="5.88802">
        <ele>334</ele>
      </trkpt>
      <trkpt lat="43.75828" lon="5.88805">
        <ele>334</ele>
      </trkpt>
      <trkpt lat="43.75841" lon="5.8881">
        <ele>334</ele>
      </trkpt>
      <trkpt lat="43.75859" lon="5.88811">
        <ele>335</ele>
      </trkpt>
      <trkpt lat="43.75885" lon="5.88807">
        <ele>336</ele>
      </trkpt>
      <trkpt lat="43.75894" lon="5.88807">
        <ele>336</ele>
      </trkpt>
      <trkpt lat="43.75904" lon="5.88806">
        <ele>336</ele>
      </trkpt>
      <trkpt lat="43.75915" lon="5.88805">
        <ele>336</ele>
      </trkpt>
      <trkpt lat="43.75926" lon="5.88804">
        <ele>340</ele>
      </trkpt>
      <trkpt lat="43.75943" lon="5.88798">
        <ele>341</ele>
      </trkpt>
      <trkpt lat="43.75959" lon="5.88789">
        <ele>343</ele>
      </trkpt>
      <trkpt lat="43.75972" lon="5.88772">
        <ele>344</ele>
      </trkpt>
      <trkpt lat="43.75985" lon="5.88754">
        <ele>348</ele>
      </trkpt>
      <trkpt lat="43.75996" lon="5.88733">
        <ele>350</ele>
      </trkpt>
      <trkpt lat="43.76005" lon="5.88718">
        <ele>355</ele>
      </trkpt>
      <trkpt lat="43.76012" lon="5.88704">
        <ele>355</ele>
      </trkpt>
      <trkpt lat="43.76016" lon="5.88679">
        <ele>356</ele>
      </trkpt>
      <trkpt lat="43.76029" lon="5.88654">
        <ele>358</ele>
      </trkpt>
      <trkpt lat="43.7605" lon="5.8861">
        <ele>359</ele>
      </trkpt>
      <trkpt lat="43.76056" lon="5.88577">
        <ele>363</ele>
      </trkpt>
      <trkpt lat="43.76058" lon="5.88559">
        <ele>363</ele>
      </trkpt>
      <trkpt lat="43.76061" lon="5.88557">
        <ele>363</ele>
      </trkpt>
      <trkpt lat="43.76061" lon="5.8855">
        <ele>364</ele>
      </trkpt>
      <trkpt lat="43.76061" lon="5.88549">
        <ele>364</ele>
      </trkpt>
      <trkpt lat="43.76054" lon="5.88535">
        <ele>364</ele>
      </trkpt>
      <trkpt lat="43.76052" lon="5.88528">
        <ele>365</ele>
      </trkpt>
      <trkpt lat="43.7605" lon="5.88517">
        <ele>365</ele>
      </trkpt>
      <trkpt lat="43.76045" lon="5.88502">
        <ele>365</ele>
      </trkpt>
      <trkpt lat="43.76042" lon="5.88488">
        <ele>372</ele>
      </trkpt>
      <trkpt lat="43.76043" lon="5.88481">
        <ele>373</ele>
      </trkpt>
      <trkpt lat="43.76043" lon="5.88478">
        <ele>373</ele>
      </trkpt>
      <trkpt lat="43.76045" lon="5.88474">
        <ele>373</ele>
      </trkpt>
      <trkpt lat="43.76049" lon="5.88469">
        <ele>373</ele>
      </trkpt>
      <trkpt lat="43.76052" lon="5.88464">
        <ele>374</ele>
      </trkpt>
      <trkpt lat="43.76054" lon="5.88462">
        <ele>374</ele>
      </trkpt>
      <trkpt lat="43.76056" lon="5.88457">
        <ele>374</ele>
      </trkpt>
      <trkpt lat="43.7606" lon="5.88451">
        <ele>374</ele>
      </trkpt>
      <trkpt lat="43.76068" lon="5.88439">
        <ele>375</ele>
      </trkpt>
      <trkpt lat="43.76074" lon="5.88428">
        <ele>376</ele>
      </trkpt>
      <trkpt lat="43.76088" lon="5.88403">
        <ele>377</ele>
      </trkpt>
      <trkpt lat="43.76103" lon="5.88381">
        <ele>377</ele>
      </trkpt>
      <trkpt lat="43.76102" lon="5.88366">
        <ele>378</ele>
      </trkpt>
      <trkpt lat="43.76107" lon="5.8836">
        <ele>378</ele>
      </trkpt>
      <trkpt lat="43.76155" lon="5.88338">
        <ele>380</ele>
      </trkpt>
      <trkpt lat="43.76166" lon="5.88328">
        <ele>382</ele>
      </trkpt>
      <trkpt lat="43.76167" lon="5.88313">
        <ele>383</ele>
      </trkpt>
      <trkpt lat="43.76173" lon="5.88292">
        <ele>383</ele>
      </trkpt>
      <trkpt lat="43.76184" lon="5.88281">
        <ele>384</ele>
      </trkpt>
      <trkpt lat="43.76197" lon="5.88269">
        <ele>384</ele>
      </trkpt>
      <trkpt lat="43.76211" lon="5.88256">
        <ele>385</ele>
      </trkpt>
      <trkpt lat="43.76221" lon="5.88247">
        <ele>389</ele>
      </trkpt>
      <trkpt lat="43.7623" lon="5.88233">
        <ele>389</ele>
      </trkpt>
      <trkpt lat="43.76237" lon="5.88228">
        <ele>389</ele>
      </trkpt>
      <trkpt lat="43.76256" lon="5.88218">
        <ele>393</ele>
      </trkpt>
      <trkpt lat="43.76272" lon="5.88211">
        <ele>394</ele>
      </trkpt>
      <trkpt lat="43.76282" lon="5.88205">
        <ele>394</ele>
      </trkpt>
      <trkpt lat="43.76285" lon="5.88203">
        <ele>395</ele>
      </trkpt>
      <trkpt lat="43.76286" lon="5.88203">
        <ele>395</ele>
      </trkpt>
      <trkpt lat="43.76292" lon="5.88199">
        <ele>395</ele>
      </trkpt>
      <trkpt lat="43.76294" lon="5.88199">
        <ele>395</ele>
      </trkpt>
      <trkpt lat="43.76306" lon="5.88188">
        <ele>397</ele>
      </trkpt>
      <trkpt lat="43.76319" lon="5.88175">
        <ele>400</ele>
      </trkpt>
      <trkpt lat="43.76328" lon="5.88167">
        <ele>403</ele>
      </trkpt>
      <trkpt lat="43.76346" lon="5.88158">
        <ele>409</ele>
      </trkpt>
      <trkpt lat="43.76364" lon="5.88149">
        <ele>412</ele>
      </trkpt>
      <trkpt lat="43.76375" lon="5.88144">
        <ele>413</ele>
      </trkpt>
      <trkpt lat="43.76386" lon="5.88139">
        <ele>414</ele>
      </trkpt>
      <trkpt lat="43.76392" lon="5.88136">
        <ele>415</ele>
      </trkpt>
      <trkpt lat="43.76404" lon="5.88131">
        <ele>416</ele>
      </trkpt>
      <trkpt lat="43.76413" lon="5.88127">
        <ele>416</ele>
      </trkpt>
      <trkpt lat="43.76415" lon="5.88124">
        <ele>417</ele>
      </trkpt>
      <trkpt lat="43.76421" lon="5.88123">
        <ele>421</ele>
      </trkpt>
      <trkpt lat="43.76423" lon="5.88122">
        <ele>421</ele>
      </trkpt>
      <trkpt lat="43.76431" lon="5.88118">
        <ele>422</ele>
      </trkpt>
      <trkpt lat="43.76431" lon="5.88118">
        <ele>422</ele>
      </trkpt>
      <trkpt lat="43.76438" lon="5.88108">
        <ele>423</ele>
      </trkpt>
      <trkpt lat="43.76444" lon="5.88101">
        <ele>423</ele>
      </trkpt>
      <trkpt lat="43.7645" lon="5.88094">
        <ele>424</ele>
      </trkpt>
      <trkpt lat="43.76459" lon="5.88086">
        <ele>424</ele>
      </trkpt>
      <trkpt lat="43.76462" lon="5.88082">
        <ele>433</ele>
      </trkpt>
      <trkpt lat="43.7647" lon="5.88074">
        <ele>434</ele>
      </trkpt>
      <trkpt lat="43.76477" lon="5.88068">
        <ele>434</ele>
      </trkpt>
      <trkpt lat="43.76478" lon="5.88068">
        <ele>434</ele>
      </trkpt>
      <trkpt lat="43.76487" lon="5.88064">
        <ele>434</ele>
      </trkpt>
      <trkpt lat="43.76488" lon="5.88064">
        <ele>434</ele>
      </trkpt>
      <trkpt lat="43.76496" lon="5.8806">
        <ele>434</ele>
      </trkpt>
      <trkpt lat="43.76503" lon="5.88051">
        <ele>430</ele>
      </trkpt>
      <trkpt lat="43.76505" lon="5.88038">
        <ele>431</ele>
      </trkpt>
      <trkpt lat="43.76502" lon="5.88026">
        <ele>433</ele>
      </trkpt>
      <trkpt lat="43.765" lon="5.88013">
        <ele>439</ele>
      </trkpt>
      <trkpt lat="43.76498" lon="5.87991">
        <ele>443</ele>
      </trkpt>
      <trkpt lat="43.76496" lon="5.87973">
        <ele>444</ele>
      </trkpt>
      <trkpt lat="43.76489" lon="5.87947">
        <ele>445</ele>
      </trkpt>
      <trkpt lat="43.76482" lon="5.87923">
        <ele>446</ele>
      </trkpt>
      <trkpt lat="43.76481" lon="5.87895">
        <ele>448</ele>
      </trkpt>
      <trkpt lat="43.76483" lon="5.87875">
        <ele>449</ele>
      </trkpt>
      <trkpt lat="43.76485" lon="5.87849">
        <ele>449</ele>
      </trkpt>
      <trkpt lat="43.76488" lon="5.87802">
        <ele>447</ele>
      </trkpt>
      <trkpt lat="43.7649" lon="5.87784">
        <ele>446</ele>
      </trkpt>
      <trkpt lat="43.76504" lon="5.87755">
        <ele>446</ele>
      </trkpt>
      <trkpt lat="43.76517" lon="5.87729">
        <ele>448</ele>
      </trkpt>
      <trkpt lat="43.76532" lon="5.87696">
        <ele>449</ele>
      </trkpt>
      <trkpt lat="43.76543" lon="5.87672">
        <ele>450</ele>
      </trkpt>
      <trkpt lat="43.76555" lon="5.87653">
        <ele>456</ele>
      </trkpt>
      <trkpt lat="43.76566" lon="5.8764">
        <ele>456</ele>
      </trkpt>
      <trkpt lat="43.76581" lon="5.87627">
        <ele>457</ele>
      </trkpt>
      <trkpt lat="43.76593" lon="5.87615">
        <ele>457</ele>
      </trkpt>
      <trkpt lat="43.76605" lon="5.87598">
        <ele>457</ele>
      </trkpt>
      <trkpt lat="43.76616" lon="5.87582">
        <ele>464</ele>
      </trkpt>
      <trkpt lat="43.7663" lon="5.87563">
        <ele>464</ele>
      </trkpt>
      <trkpt lat="43.76644" lon="5.87546">
        <ele>465</ele>
      </trkpt>
      <trkpt lat="43.7666" lon="5.87517">
        <ele>468</ele>
      </trkpt>
      <trkpt lat="43.76665" lon="5.87492">
        <ele>473</ele>
      </trkpt>
      <trkpt lat="43.76665" lon="5.87459">
        <ele>477</ele>
      </trkpt>
      <trkpt lat="43.76672" lon="5.87432">
        <ele>477</ele>
      </trkpt>
      <trkpt lat="43.76687" lon="5.87405">
        <ele>480</ele>
      </trkpt>
      <trkpt lat="43.76705" lon="5.87389">
        <ele>479</ele>
      </trkpt>
      <trkpt lat="43.76726" lon="5.87383">
        <ele>479</ele>
      </trkpt>
      <trkpt lat="43.76745" lon="5.87386">
        <ele>478</ele>
      </trkpt>
      <trkpt lat="43.76748" lon="5.87387">
        <ele>478</ele>
      </trkpt>
      <trkpt lat="43.76762" lon="5.87383">
        <ele>478</ele>
      </trkpt>
      <trkpt lat="43.76775" lon="5.87376">
        <ele>479</ele>
      </trkpt>
      <trkpt lat="43.7679" lon="5.87372">
        <ele>479</ele>
      </trkpt>
      <trkpt lat="43.76807" lon="5.87372">
        <ele>479</ele>
      </trkpt>
      <trkpt lat="43.76829" lon="5.87379">
        <ele>479</ele>
      </trkpt>
      <trkpt lat="43.76863" lon="5.87399">
        <ele>480</ele>
      </trkpt>
      <trkpt lat="43.76882" lon="5.87413">
        <ele>481</ele>
      </trkpt>
      <trkpt lat="43.76896" lon="5.87431">
        <ele>481</ele>
      </trkpt>
      <trkpt lat="43.76906" lon="5.87442">
        <ele>481</ele>
      </trkpt>
      <trkpt lat="43.7692" lon="5.87459">
        <ele>482</ele>
      </trkpt>
      <trkpt lat="43.76931" lon="5.87477">
        <ele>482</ele>
      </trkpt>
      <trkpt lat="43.76942" lon="5.87497">
        <ele>481</ele>
      </trkpt>
      <trkpt lat="43.76962" lon="5.87529">
        <ele>483</ele>
      </trkpt>
      <trkpt lat="43.76969" lon="5.87543">
        <ele>483</ele>
      </trkpt>
      <trkpt lat="43.76987" lon="5.87569">
        <ele>485</ele>
      </trkpt>
      <trkpt lat="43.77008" lon="5.87578">
        <ele>486</ele>
      </trkpt>
      <trkpt lat="43.77036" lon="5.87576">
        <ele>486</ele>
      </trkpt>
      <trkpt lat="43.77057" lon="5.87572">
        <ele>486</ele>
      </trkpt>
      <trkpt lat="43.7708" lon="5.87575">
        <ele>488</ele>
      </trkpt>
      <trkpt lat="43.77123" lon="5.87594">
        <ele>489</ele>
      </trkpt>
      <trkpt lat="43.77151" lon="5.87607">
        <ele>489</ele>
      </trkpt>
      <trkpt lat="43.77173" lon="5.87609">
        <ele>489</ele>
      </trkpt>
      <trkpt lat="43.77183" lon="5.87611">
        <ele>489</ele>
      </trkpt>
      <trkpt lat="43.7722" lon="5.87611">
        <ele>490</ele>
      </trkpt>
      <trkpt lat="43.77257" lon="5.87616">
        <ele>490</ele>
      </trkpt>
      <trkpt lat="43.77266" lon="5.87617">
        <ele>490</ele>
      </trkpt>
      <trkpt lat="43.77301" lon="5.87611">
        <ele>491</ele>
      </trkpt>
      <trkpt lat="43.77306" lon="5.87609">
        <ele>491</ele>
      </trkpt>
      <trkpt lat="43.77332" lon="5.87586">
        <ele>493</ele>
      </trkpt>
      <trkpt lat="43.77342" lon="5.87584">
        <ele>492</ele>
      </trkpt>
      <trkpt lat="43.77355" lon="5.87577">
        <ele>492</ele>
      </trkpt>
      <trkpt lat="43.77359" lon="5.87573">
        <ele>492</ele>
      </trkpt>
      <trkpt lat="43.77367" lon="5.87564">
        <ele>492</ele>
      </trkpt>
      <trkpt lat="43.77404" lon="5.87523">
        <ele>492</ele>
      </trkpt>
      <trkpt lat="43.77461" lon="5.87479">
        <ele>493</ele>
      </trkpt>
      <trkpt lat="43.77507" lon="5.87443">
        <ele>495</ele>
      </trkpt>
      <trkpt lat="43.7757" lon="5.87398">
        <ele>495</ele>
      </trkpt>
      <trkpt lat="43.77593" lon="5.87388">
        <ele>496</ele>
      </trkpt>
      <trkpt lat="43.77646" lon="5.87372">
        <ele>496</ele>
      </trkpt>
      <trkpt lat="43.77706" lon="5.87354">
        <ele>497</ele>
      </trkpt>
      <trkpt lat="43.77752" lon="5.87338">
        <ele>498</ele>
      </trkpt>
      <trkpt lat="43.77786" lon="5.87303">
        <ele>497</ele>
      </trkpt>
      <trkpt lat="43.77815" lon="5.87254">
        <ele>496</ele>
      </trkpt>
      <trkpt lat="43.77864" lon="5.87167">
        <ele>494</ele>
      </trkpt>
      <trkpt lat="43.77908" lon="5.87105">
        <ele>495</ele>
      </trkpt>
      <trkpt lat="43.77951" lon="5.87044">
        <ele>495</ele>
      </trkpt>
      <trkpt lat="43.77956" lon="5.87036">
        <ele>495</ele>
      </trkpt>
      <trkpt lat="43.77968" lon="5.87011">
        <ele>495</ele>
      </trkpt>
      <trkpt lat="43.77985" lon="5.86979">
        <ele>493</ele>
      </trkpt>
      <trkpt lat="43.77997" lon="5.86946">
        <ele>492</ele>
      </trkpt>
      <trkpt lat="43.78001" lon="5.8694">
        <ele>492</ele>
      </trkpt>
      <trkpt lat="43.78016" lon="5.86917">
        <ele>491</ele>
      </trkpt>
      <trkpt lat="43.78052" lon="5.86865">
        <ele>490</ele>
      </trkpt>
      <trkpt lat="43.78064" lon="5.86852">
        <ele>489</ele>
      </trkpt>
      <trkpt lat="43.78073" lon="5.86838">
        <ele>489</ele>
      </trkpt>
      <trkpt lat="43.78082" lon="5.86822">
        <ele>488</ele>
      </trkpt>
      <trkpt lat="43.78094" lon="5.868">
        <ele>486</ele>
      </trkpt>
      <trkpt lat="43.78103" lon="5.86785">
        <ele>486</ele>
      </trkpt>
      <trkpt lat="43.78112" lon="5.86767">
        <ele>485</ele>
      </trkpt>
      <trkpt lat="43.78126" lon="5.8674">
        <ele>483</ele>
      </trkpt>
      <trkpt lat="43.78151" lon="5.86708">
        <ele>481</ele>
      </trkpt>
      <trkpt lat="43.78175" lon="5.86669">
        <ele>478</ele>
      </trkpt>
      <trkpt lat="43.78188" lon="5.86634">
        <ele>478</ele>
      </trkpt>
      <trkpt lat="43.78197" lon="5.86589">
        <ele>477</ele>
      </trkpt>
      <trkpt lat="43.782" lon="5.86577">
        <ele>475</ele>
      </trkpt>
      <trkpt lat="43.78212" lon="5.86544">
        <ele>473</ele>
      </trkpt>
      <trkpt lat="43.78215" lon="5.86533">
        <ele>473</ele>
      </trkpt>
      <trkpt lat="43.78221" lon="5.86508">
        <ele>471</ele>
      </trkpt>
      <trkpt lat="43.78227" lon="5.86484">
        <ele>468</ele>
      </trkpt>
      <trkpt lat="43.78235" lon="5.86459">
        <ele>467</ele>
      </trkpt>
      <trkpt lat="43.78259" lon="5.86419">
        <ele>462</ele>
      </trkpt>
      <trkpt lat="43.78276" lon="5.86404">
        <ele>461</ele>
      </trkpt>
      <trkpt lat="43.78301" lon="5.86379">
        <ele>461</ele>
      </trkpt>
      <trkpt lat="43.78357" lon="5.86319">
        <ele>453</ele>
      </trkpt>
      <trkpt lat="43.78387" lon="5.86285">
        <ele>452</ele>
      </trkpt>
      <trkpt lat="43.78411" lon="5.86263">
        <ele>448</ele>
      </trkpt>
      <trkpt lat="43.78433" lon="5.86242">
        <ele>444</ele>
      </trkpt>
      <trkpt lat="43.78456" lon="5.86224">
        <ele>444</ele>
      </trkpt>
      <trkpt lat="43.7849" lon="5.86201">
        <ele>443</ele>
      </trkpt>
      <trkpt lat="43.78518" lon="5.86176">
        <ele>439</ele>
      </trkpt>
      <trkpt lat="43.78547" lon="5.86134">
        <ele>439</ele>
      </trkpt>
      <trkpt lat="43.78575" lon="5.86092">
        <ele>439</ele>
      </trkpt>
      <trkpt lat="43.78589" lon="5.86061">
        <ele>436</ele>
      </trkpt>
      <trkpt lat="43.78593" lon="5.8603">
        <ele>437</ele>
      </trkpt>
      <trkpt lat="43.78595" lon="5.86017">
        <ele>438</ele>
      </trkpt>
      <trkpt lat="43.78616" lon="5.85972">
        <ele>436</ele>
      </trkpt>
      <trkpt lat="43.78638" lon="5.85934">
        <ele>435</ele>
      </trkpt>
      <trkpt lat="43.78655" lon="5.85894">
        <ele>434</ele>
      </trkpt>
      <trkpt lat="43.78661" lon="5.85875">
        <ele>434</ele>
      </trkpt>
      <trkpt lat="43.78674" lon="5.85833">
        <ele>432</ele>
      </trkpt>
      <trkpt lat="43.78692" lon="5.85798">
        <ele>429</ele>
      </trkpt>
      <trkpt lat="43.78698" lon="5.85791">
        <ele>428</ele>
      </trkpt>
      <trkpt lat="43.78722" lon="5.8576">
        <ele>426</ele>
      </trkpt>
      <trkpt lat="43.78769" lon="5.85704">
        <ele>420</ele>
      </trkpt>
      <trkpt lat="43.78775" lon="5.85695">
        <ele>420</ele>
      </trkpt>
      <trkpt lat="43.78802" lon="5.85652">
        <ele>418</ele>
      </trkpt>
      <trkpt lat="43.78816" lon="5.85607">
        <ele>417</ele>
      </trkpt>
      <trkpt lat="43.78828" lon="5.85555">
        <ele>414</ele>
      </trkpt>
      <trkpt lat="43.78839" lon="5.85516">
        <ele>408</ele>
      </trkpt>
      <trkpt lat="43.78864" lon="5.85474">
        <ele>402</ele>
      </trkpt>
      <trkpt lat="43.78875" lon="5.85456">
        <ele>400</ele>
      </trkpt>
      <trkpt lat="43.78906" lon="5.85414">
        <ele>395</ele>
      </trkpt>
      <trkpt lat="43.78917" lon="5.854">
        <ele>391</ele>
      </trkpt>
      <trkpt lat="43.78936" lon="5.85384">
        <ele>389</ele>
      </trkpt>
      <trkpt lat="43.78957" lon="5.85371">
        <ele>387</ele>
      </trkpt>
      <trkpt lat="43.78964" lon="5.85364">
        <ele>386</ele>
      </trkpt>
      <trkpt lat="43.78976" lon="5.85348">
        <ele>385</ele>
      </trkpt>
      <trkpt lat="43.79012" lon="5.85279">
        <ele>379</ele>
      </trkpt>
      <trkpt lat="43.79025" lon="5.85248">
        <ele>378</ele>
      </trkpt>
      <trkpt lat="43.79058" lon="5.85183">
        <ele>375</ele>
      </trkpt>
      <trkpt lat="43.79066" lon="5.85164">
        <ele>373</ele>
      </trkpt>
      <trkpt lat="43.79085" lon="5.85129">
        <ele>370</ele>
      </trkpt>
      <trkpt lat="43.79126" lon="5.85052">
        <ele>365</ele>
      </trkpt>
      <trkpt lat="43.79145" lon="5.85008">
        <ele>364</ele>
      </trkpt>
      <trkpt lat="43.79166" lon="5.84944">
        <ele>357</ele>
      </trkpt>
      <trkpt lat="43.79176" lon="5.84903">
        <ele>351</ele>
      </trkpt>
      <trkpt lat="43.79179" lon="5.84889">
        <ele>349</ele>
      </trkpt>
      <trkpt lat="43.79186" lon="5.84874">
        <ele>349</ele>
      </trkpt>
      <trkpt lat="43.79189" lon="5.8487">
        <ele>348</ele>
      </trkpt>
      <trkpt lat="43.79189" lon="5.84871">
        <ele>348</ele>
      </trkpt>
      <trkpt lat="43.79198" lon="5.84876">
        <ele>348</ele>
      </trkpt>
      <trkpt lat="43.79201" lon="5.8488">
        <ele>348</ele>
      </trkpt>
      <trkpt lat="43.79218" lon="5.84907">
        <ele>348</ele>
      </trkpt>
      <trkpt lat="43.79229" lon="5.84922">
        <ele>350</ele>
      </trkpt>
      <trkpt lat="43.79242" lon="5.84925">
        <ele>348</ele>
      </trkpt>
      <trkpt lat="43.79245" lon="5.84922">
        <ele>348</ele>
      </trkpt>
      <trkpt lat="43.79247" lon="5.84916">
        <ele>346</ele>
      </trkpt>
      <trkpt lat="43.79251" lon="5.84888">
        <ele>350</ele>
      </trkpt>
      <trkpt lat="43.79252" lon="5.84856">
        <ele>349</ele>
      </trkpt>
      <trkpt lat="43.79258" lon="5.84835">
        <ele>347</ele>
      </trkpt>
      <trkpt lat="43.79266" lon="5.8479">
        <ele>350</ele>
      </trkpt>
      <trkpt lat="43.79267" lon="5.84764">
        <ele>349</ele>
      </trkpt>
      <trkpt lat="43.79267" lon="5.84744">
        <ele>349</ele>
      </trkpt>
      <trkpt lat="43.7927" lon="5.84732">
        <ele>350</ele>
      </trkpt>
      <trkpt lat="43.79276" lon="5.8471">
        <ele>351</ele>
      </trkpt>
      <trkpt lat="43.79282" lon="5.84697">
        <ele>352</ele>
      </trkpt>
      <trkpt lat="43.7929" lon="5.84673">
        <ele>353</ele>
      </trkpt>
      <trkpt lat="43.79301" lon="5.84647">
        <ele>356</ele>
      </trkpt>
      <trkpt lat="43.79311" lon="5.84623">
        <ele>357</ele>
      </trkpt>
      <trkpt lat="43.79314" lon="5.84615">
        <ele>357</ele>
      </trkpt>
      <trkpt lat="43.79326" lon="5.84585">
        <ele>362</ele>
      </trkpt>
      <trkpt lat="43.79338" lon="5.84572">
        <ele>365</ele>
      </trkpt>
      <trkpt lat="43.7934" lon="5.84559">
        <ele>365</ele>
      </trkpt>
      <trkpt lat="43.79332" lon="5.84529">
        <ele>360</ele>
      </trkpt>
      <trkpt lat="43.79331" lon="5.84511">
        <ele>362</ele>
      </trkpt>
      <trkpt lat="43.79341" lon="5.84498">
        <ele>364</ele>
      </trkpt>
      <trkpt lat="43.79378" lon="5.84472">
        <ele>363</ele>
      </trkpt>
      <trkpt lat="43.7941" lon="5.84451">
        <ele>363</ele>
      </trkpt>
      <trkpt lat="43.79431" lon="5.84437">
        <ele>361</ele>
      </trkpt>
      <trkpt lat="43.79455" lon="5.84421">
        <ele>360</ele>
      </trkpt>
      <trkpt lat="43.79473" lon="5.84411">
        <ele>358</ele>
      </trkpt>
      <trkpt lat="43.79502" lon="5.84394">
        <ele>354</ele>
      </trkpt>
      <trkpt lat="43.79509" lon="5.84389">
        <ele>354</ele>
      </trkpt>
      <trkpt lat="43.79524" lon="5.84377">
        <ele>353</ele>
      </trkpt>
      <trkpt lat="43.79548" lon="5.84361">
        <ele>352</ele>
      </trkpt>
      <trkpt lat="43.79562" lon="5.84353">
        <ele>351</ele>
      </trkpt>
      <trkpt lat="43.79577" lon="5.84335">
        <ele>349</ele>
      </trkpt>
      <trkpt lat="43.79587" lon="5.84317">
        <ele>346</ele>
      </trkpt>
      <trkpt lat="43.79611" lon="5.84283">
        <ele>344</ele>
      </trkpt>
      <trkpt lat="43.79635" lon="5.84241">
        <ele>343</ele>
      </trkpt>
      <trkpt lat="43.79668" lon="5.84181">
        <ele>335</ele>
      </trkpt>
      <trkpt lat="43.7968" lon="5.84162">
        <ele>335</ele>
      </trkpt>
      <trkpt lat="43.79693" lon="5.84118">
        <ele>332</ele>
      </trkpt>
      <trkpt lat="43.79699" lon="5.84093">
        <ele>332</ele>
      </trkpt>
      <trkpt lat="43.79728" lon="5.84026">
        <ele>329</ele>
      </trkpt>
      <trkpt lat="43.79746" lon="5.83993">
        <ele>326</ele>
      </trkpt>
      <trkpt lat="43.79754" lon="5.83979">
        <ele>319</ele>
      </trkpt>
      <trkpt lat="43.79783" lon="5.83941">
        <ele>317</ele>
      </trkpt>
      <trkpt lat="43.79807" lon="5.83913">
        <ele>311</ele>
      </trkpt>
      <trkpt lat="43.79818" lon="5.83904">
        <ele>310</ele>
      </trkpt>
      <trkpt lat="43.79829" lon="5.83899">
        <ele>309</ele>
      </trkpt>
      <trkpt lat="43.79838" lon="5.83891">
        <ele>304</ele>
      </trkpt>
      <trkpt lat="43.7985" lon="5.83861">
        <ele>302</ele>
      </trkpt>
      <trkpt lat="43.79869" lon="5.8381">
        <ele>297</ele>
      </trkpt>
      <trkpt lat="43.79898" lon="5.83731">
        <ele>295</ele>
      </trkpt>
      <trkpt lat="43.79929" lon="5.83648">
        <ele>294</ele>
      </trkpt>
      <trkpt lat="43.79963" lon="5.83558">
        <ele>293</ele>
      </trkpt>
      <trkpt lat="43.80009" lon="5.83432">
        <ele>293</ele>
      </trkpt>
      <trkpt lat="43.80023" lon="5.83387">
        <ele>294</ele>
      </trkpt>
      <trkpt lat="43.80042" lon="5.8335">
        <ele>294</ele>
      </trkpt>
      <trkpt lat="43.80053" lon="5.83319">
        <ele>294</ele>
      </trkpt>
      <trkpt lat="43.80081" lon="5.83258">
        <ele>295</ele>
      </trkpt>
      <trkpt lat="43.80126" lon="5.83155">
        <ele>293</ele>
      </trkpt>
      <trkpt lat="43.80179" lon="5.83039">
        <ele>292</ele>
      </trkpt>
      <trkpt lat="43.80221" lon="5.82945">
        <ele>293</ele>
      </trkpt>
      <trkpt lat="43.80264" lon="5.82849">
        <ele>293</ele>
      </trkpt>
      <trkpt lat="43.80303" lon="5.82763">
        <ele>293</ele>
      </trkpt>
      <trkpt lat="43.8035" lon="5.8266">
        <ele>295</ele>
      </trkpt>
      <trkpt lat="43.804" lon="5.82548">
        <ele>292</ele>
      </trkpt>
      <trkpt lat="43.80451" lon="5.82433">
        <ele>288</ele>
      </trkpt>
      <trkpt lat="43.8046" lon="5.82414">
        <ele>289</ele>
      </trkpt>
      <trkpt lat="43.80508" lon="5.82308">
        <ele>294</ele>
      </trkpt>
      <trkpt lat="43.80565" lon="5.82182">
        <ele>297</ele>
      </trkpt>
      <trkpt lat="43.80616" lon="5.8207">
        <ele>294</ele>
      </trkpt>
      <trkpt lat="43.80651" lon="5.81987">
        <ele>294</ele>
      </trkpt>
      <trkpt lat="43.80656" lon="5.81979">
        <ele>294</ele>
      </trkpt>
      <trkpt lat="43.8068" lon="5.81945">
        <ele>294</ele>
      </trkpt>
      <trkpt lat="43.80681" lon="5.81927">
        <ele>294</ele>
      </trkpt>
      <trkpt lat="43.8069" lon="5.81883">
        <ele>294</ele>
      </trkpt>
      <trkpt lat="43.80721" lon="5.81798">
        <ele>294</ele>
      </trkpt>
      <trkpt lat="43.80752" lon="5.81722">
        <ele>294</ele>
      </trkpt>
      <trkpt lat="43.80796" lon="5.81631">
        <ele>294</ele>
      </trkpt>
      <trkpt lat="43.80835" lon="5.81558">
        <ele>294</ele>
      </trkpt>
      <trkpt lat="43.80876" lon="5.81483">
        <ele>295</ele>
      </trkpt>
      <trkpt lat="43.80924" lon="5.81394">
        <ele>295</ele>
      </trkpt>
      <trkpt lat="43.80966" lon="5.81313">
        <ele>295</ele>
      </trkpt>
      <trkpt lat="43.80989" lon="5.81258">
        <ele>296</ele>
      </trkpt>
      <trkpt lat="43.80991" lon="5.81249">
        <ele>296</ele>
      </trkpt>
      <trkpt lat="43.81006" lon="5.81209">
        <ele>296</ele>
      </trkpt>
      <trkpt lat="43.81023" lon="5.81179">
        <ele>295</ele>
      </trkpt>
      <trkpt lat="43.81063" lon="5.81118">
        <ele>295</ele>
      </trkpt>
      <trkpt lat="43.81107" lon="5.81034">
        <ele>296</ele>
      </trkpt>
      <trkpt lat="43.81136" lon="5.8098">
        <ele>297</ele>
      </trkpt>
      <trkpt lat="43.81167" lon="5.80917">
        <ele>298</ele>
      </trkpt>
      <trkpt lat="43.812" lon="5.8085">
        <ele>298</ele>
      </trkpt>
      <trkpt lat="43.81214" lon="5.80825">
        <ele>299</ele>
      </trkpt>
      <trkpt lat="43.81242" lon="5.80754">
        <ele>300</ele>
      </trkpt>
      <trkpt lat="43.81271" lon="5.80676">
        <ele>300</ele>
      </trkpt>
      <trkpt lat="43.81302" lon="5.80591">
        <ele>300</ele>
      </trkpt>
      <trkpt lat="43.81335" lon="5.80495">
        <ele>302</ele>
      </trkpt>
      <trkpt lat="43.8136" lon="5.80427">
        <ele>303</ele>
      </trkpt>
      <trkpt lat="43.81389" lon="5.80359">
        <ele>303</ele>
      </trkpt>
      <trkpt lat="43.81391" lon="5.80375">
        <ele>303</ele>
      </trkpt>
      <trkpt lat="43.81395" lon="5.80389">
        <ele>303</ele>
      </trkpt>
      <trkpt lat="43.81416" lon="5.80419">
        <ele>304</ele>
      </trkpt>
      <trkpt lat="43.81448" lon="5.80457">
        <ele>303</ele>
      </trkpt>
      <trkpt lat="43.81484" lon="5.80496">
        <ele>302</ele>
      </trkpt>
      <trkpt lat="43.81521" lon="5.80531">
        <ele>301</ele>
      </trkpt>
      <trkpt lat="43.81544" lon="5.80548">
        <ele>301</ele>
      </trkpt>
      <trkpt lat="43.81594" lon="5.80589">
        <ele>300</ele>
      </trkpt>
      <trkpt lat="43.81609" lon="5.8061">
        <ele>300</ele>
      </trkpt>
      <trkpt lat="43.81619" lon="5.80639">
        <ele>299</ele>
      </trkpt>
      <trkpt lat="43.81625" lon="5.8068">
        <ele>299</ele>
      </trkpt>
      <trkpt lat="43.81627" lon="5.80737">
        <ele>299</ele>
      </trkpt>
      <trkpt lat="43.81632" lon="5.80769">
        <ele>299</ele>
      </trkpt>
      <trkpt lat="43.81634" lon="5.80821">
        <ele>299</ele>
      </trkpt>
      <trkpt lat="43.81632" lon="5.80861">
        <ele>299</ele>
      </trkpt>
      <trkpt lat="43.8164" lon="5.80907">
        <ele>300</ele>
      </trkpt>
      <trkpt lat="43.81645" lon="5.80976">
        <ele>300</ele>
      </trkpt>
      <trkpt lat="43.81651" lon="5.8101">
        <ele>300</ele>
      </trkpt>
      <trkpt lat="43.81667" lon="5.81068">
        <ele>302</ele>
      </trkpt>
      <trkpt lat="43.81686" lon="5.8112">
        <ele>302</ele>
      </trkpt>
      <trkpt lat="43.81705" lon="5.81185">
        <ele>301</ele>
      </trkpt>
      <trkpt lat="43.81727" lon="5.81256">
        <ele>301</ele>
      </trkpt>
      <trkpt lat="43.81749" lon="5.81302">
        <ele>301</ele>
      </trkpt>
      <trkpt lat="43.81772" lon="5.81337">
        <ele>302</ele>
      </trkpt>
      <trkpt lat="43.81794" lon="5.81372">
        <ele>303</ele>
      </trkpt>
      <trkpt lat="43.81798" lon="5.81378">
        <ele>303</ele>
      </trkpt>
      <trkpt lat="43.81821" lon="5.8142">
        <ele>304</ele>
      </trkpt>
      <trkpt lat="43.81828" lon="5.81429">
        <ele>304</ele>
      </trkpt>
      <trkpt lat="43.81839" lon="5.8144">
        <ele>304</ele>
      </trkpt>
      <trkpt lat="43.81862" lon="5.81459">
        <ele>305</ele>
      </trkpt>
      <trkpt lat="43.81892" lon="5.81487">
        <ele>305</ele>
      </trkpt>
      <trkpt lat="43.819" lon="5.81493">
        <ele>305</ele>
      </trkpt>
      <trkpt lat="43.8191" lon="5.81503">
        <ele>304</ele>
      </trkpt>
      <trkpt lat="43.81919" lon="5.81506">
        <ele>305</ele>
      </trkpt>
      <trkpt lat="43.81927" lon="5.81502">
        <ele>304</ele>
      </trkpt>
      <trkpt lat="43.81946" lon="5.81483">
        <ele>305</ele>
      </trkpt>
      <trkpt lat="43.82004" lon="5.81433">
        <ele>305</ele>
      </trkpt>
      <trkpt lat="43.82044" lon="5.814">
        <ele>306</ele>
      </trkpt>
      <trkpt lat="43.82085" lon="5.81361">
        <ele>306</ele>
      </trkpt>
      <trkpt lat="43.82122" lon="5.8132">
        <ele>306</ele>
      </trkpt>
      <trkpt lat="43.82154" lon="5.81276">
        <ele>306</ele>
      </trkpt>
      <trkpt lat="43.82176" lon="5.81243">
        <ele>307</ele>
      </trkpt>
      <trkpt lat="43.82184" lon="5.8123">
        <ele>307</ele>
      </trkpt>
      <trkpt lat="43.822" lon="5.81204">
        <ele>307</ele>
      </trkpt>
      <trkpt lat="43.82212" lon="5.81186">
        <ele>308</ele>
      </trkpt>
      <trkpt lat="43.82243" lon="5.81138">
        <ele>308</ele>
      </trkpt>
      <trkpt lat="43.82283" lon="5.81077">
        <ele>309</ele>
      </trkpt>
      <trkpt lat="43.82308" lon="5.81047">
        <ele>309</ele>
      </trkpt>
      <trkpt lat="43.82336" lon="5.81026">
        <ele>308</ele>
      </trkpt>
      <trkpt lat="43.82379" lon="5.80996">
        <ele>308</ele>
      </trkpt>
      <trkpt lat="43.82424" lon="5.80958">
        <ele>308</ele>
      </trkpt>
      <trkpt lat="43.82437" lon="5.80938">
        <ele>308</ele>
      </trkpt>
      <trkpt lat="43.82449" lon="5.80892">
        <ele>308</ele>
      </trkpt>
      <trkpt lat="43.82472" lon="5.80822">
        <ele>307</ele>
      </trkpt>
      <trkpt lat="43.82491" lon="5.80768">
        <ele>308</ele>
      </trkpt>
      <trkpt lat="43.82495" lon="5.80739">
        <ele>308</ele>
      </trkpt>
      <trkpt lat="43.82489" lon="5.80701">
        <ele>308</ele>
      </trkpt>
      <trkpt lat="43.82478" lon="5.80633">
        <ele>309</ele>
      </trkpt>
      <trkpt lat="43.82469" lon="5.80588">
        <ele>309</ele>
      </trkpt>
      <trkpt lat="43.82468" lon="5.80577">
        <ele>310</ele>
      </trkpt>
      <trkpt lat="43.82476" lon="5.80567">
        <ele>310</ele>
      </trkpt>
      <trkpt lat="43.82482" lon="5.80565">
        <ele>310</ele>
      </trkpt>
      <trkpt lat="43.82519" lon="5.80557">
        <ele>311</ele>
      </trkpt>
      <trkpt lat="43.82543" lon="5.80553">
        <ele>311</ele>
      </trkpt>
      <trkpt lat="43.82554" lon="5.8054">
        <ele>311</ele>
      </trkpt>
      <trkpt lat="43.82564" lon="5.80506">
        <ele>311</ele>
      </trkpt>
      <trkpt lat="43.82584" lon="5.80429">
        <ele>310</ele>
      </trkpt>
      <trkpt lat="43.82592" lon="5.804">
        <ele>311</ele>
      </trkpt>
      <trkpt lat="43.82612" lon="5.80392">
        <ele>311</ele>
      </trkpt>
      <trkpt lat="43.8263" lon="5.80399">
        <ele>312</ele>
      </trkpt>
      <trkpt lat="43.82667" lon="5.80416">
        <ele>312</ele>
      </trkpt>
      <trkpt lat="43.82676" lon="5.80417">
        <ele>312</ele>
      </trkpt>
      <trkpt lat="43.8269" lon="5.80414">
        <ele>313</ele>
      </trkpt>
      <trkpt lat="43.82697" lon="5.80394">
        <ele>313</ele>
      </trkpt>
      <trkpt lat="43.82692" lon="5.80362">
        <ele>314</ele>
      </trkpt>
      <trkpt lat="43.82682" lon="5.80294">
        <ele>316</ele>
      </trkpt>
      <trkpt lat="43.8267" lon="5.80201">
        <ele>316</ele>
      </trkpt>
      <trkpt lat="43.82667" lon="5.80173">
        <ele>315</ele>
      </trkpt>
      <trkpt lat="43.82667" lon="5.80122">
        <ele>318</ele>
      </trkpt>
      <trkpt lat="43.8267" lon="5.80103">
        <ele>319</ele>
      </trkpt>
      <trkpt lat="43.82686" lon="5.80035">
        <ele>324</ele>
      </trkpt>
      <trkpt lat="43.82701" lon="5.79983">
        <ele>327</ele>
      </trkpt>
      <trkpt lat="43.82706" lon="5.79968">
        <ele>328</ele>
      </trkpt>
      <trkpt lat="43.82732" lon="5.79886">
        <ele>329</ele>
      </trkpt>
      <trkpt lat="43.82749" lon="5.79841">
        <ele>331</ele>
      </trkpt>
      <trkpt lat="43.82771" lon="5.79815">
        <ele>334</ele>
      </trkpt>
      <trkpt lat="43.82761" lon="5.79792">
        <ele>334</ele>
      </trkpt>
      <trkpt lat="43.82749" lon="5.79783">
        <ele>331</ele>
      </trkpt>
      <trkpt lat="43.82732" lon="5.79758">
        <ele>332</ele>
      </trkpt>
      <trkpt lat="43.82716" lon="5.79741">
        <ele>333</ele>
      </trkpt>
      <trkpt lat="43.82696" lon="5.79719">
        <ele>333</ele>
      </trkpt>
      <trkpt lat="43.82677" lon="5.79701">
        <ele>333</ele>
      </trkpt>
      <trkpt lat="43.82662" lon="5.79681">
        <ele>332</ele>
      </trkpt>
      <trkpt lat="43.82647" lon="5.79666">
        <ele>333</ele>
      </trkpt>
      <trkpt lat="43.82633" lon="5.7965">
        <ele>332</ele>
      </trkpt>
      <trkpt lat="43.82609" lon="5.79622">
        <ele>332</ele>
      </trkpt>
      <trkpt lat="43.82585" lon="5.79594">
        <ele>331</ele>
      </trkpt>
      <trkpt lat="43.8256" lon="5.7957">
        <ele>331</ele>
      </trkpt>
      <trkpt lat="43.82537" lon="5.7954">
        <ele>331</ele>
      </trkpt>
      <trkpt lat="43.82517" lon="5.79517">
        <ele>331</ele>
      </trkpt>
      <trkpt lat="43.82492" lon="5.79487">
        <ele>331</ele>
      </trkpt>
      <trkpt lat="43.82478" lon="5.79454">
        <ele>331</ele>
      </trkpt>
      <trkpt lat="43.82462" lon="5.79422">
        <ele>331</ele>
      </trkpt>
      <trkpt lat="43.82438" lon="5.79406">
        <ele>332</ele>
      </trkpt>
      <trkpt lat="43.82415" lon="5.79379">
        <ele>331</ele>
      </trkpt>
      <trkpt lat="43.82394" lon="5.79356">
        <ele>331</ele>
      </trkpt>
      <trkpt lat="43.82352" lon="5.79311">
        <ele>331</ele>
      </trkpt>
      <trkpt lat="43.82337" lon="5.79309">
        <ele>331</ele>
      </trkpt>
      <trkpt lat="43.82342" lon="5.79317">
        <ele>330</ele>
      </trkpt>
      <trkpt lat="43.82361" lon="5.79321">
        <ele>331</ele>
      </trkpt>
      <trkpt lat="43.82376" lon="5.79334">
        <ele>331</ele>
      </trkpt>
      <trkpt lat="43.82412" lon="5.79373">
        <ele>331</ele>
      </trkpt>
      <trkpt lat="43.8246" lon="5.79423">
        <ele>331</ele>
      </trkpt>
      <trkpt lat="43.82475" lon="5.79449">
        <ele>331</ele>
      </trkpt>
      <trkpt lat="43.8248" lon="5.79466">
        <ele>331</ele>
      </trkpt>
      <trkpt lat="43.82492" lon="5.79501">
        <ele>330</ele>
      </trkpt>
      <trkpt lat="43.82513" lon="5.79531">
        <ele>331</ele>
      </trkpt>
      <trkpt lat="43.82546" lon="5.79573">
        <ele>331</ele>
      </trkpt>
      <trkpt lat="43.82574" lon="5.79604">
        <ele>329</ele>
      </trkpt>
      <trkpt lat="43.82614" lon="5.79649">
        <ele>332</ele>
      </trkpt>
      <trkpt lat="43.82641" lon="5.79679">
        <ele>331</ele>
      </trkpt>
      <trkpt lat="43.8267" lon="5.79712">
        <ele>333</ele>
      </trkpt>
      <trkpt lat="43.82693" lon="5.79739">
        <ele>332</ele>
      </trkpt>
      <trkpt lat="43.8272" lon="5.7977">
        <ele>331</ele>
      </trkpt>
      <trkpt lat="43.8274" lon="5.79793">
        <ele>331</ele>
      </trkpt>
      <trkpt lat="43.82747" lon="5.79801">
        <ele>331</ele>
      </trkpt>
      <trkpt lat="43.82761" lon="5.79804">
        <ele>334</ele>
      </trkpt>
      <trkpt lat="43.82768" lon="5.79793">
        <ele>334</ele>
      </trkpt>
      <trkpt lat="43.82784" lon="5.79757">
        <ele>335</ele>
      </trkpt>
      <trkpt lat="43.82814" lon="5.79706">
        <ele>338</ele>
      </trkpt>
      <trkpt lat="43.82818" lon="5.79698">
        <ele>338</ele>
      </trkpt>
      <trkpt lat="43.82847" lon="5.79645">
        <ele>340</ele>
      </trkpt>
      <trkpt lat="43.82864" lon="5.79604">
        <ele>341</ele>
      </trkpt>
      <trkpt lat="43.82875" lon="5.79566">
        <ele>343</ele>
      </trkpt>
      <trkpt lat="43.8288" lon="5.79555">
        <ele>343</ele>
      </trkpt>
      <trkpt lat="43.8289" lon="5.79534">
        <ele>344</ele>
      </trkpt>
      <trkpt lat="43.82905" lon="5.79485">
        <ele>346</ele>
      </trkpt>
      <trkpt lat="43.82908" lon="5.79469">
        <ele>347</ele>
      </trkpt>
      <trkpt lat="43.82874" lon="5.79422">
        <ele>348</ele>
      </trkpt>
      <trkpt lat="43.82853" lon="5.79386">
        <ele>350</ele>
      </trkpt>
      <trkpt lat="43.82831" lon="5.79344">
        <ele>349</ele>
      </trkpt>
      <trkpt lat="43.82808" lon="5.79291">
        <ele>348</ele>
      </trkpt>
      <trkpt lat="43.82786" lon="5.79259">
        <ele>347</ele>
      </trkpt>
      <trkpt lat="43.82767" lon="5.79247">
        <ele>347</ele>
      </trkpt>
      <trkpt lat="43.82752" lon="5.7925">
        <ele>345</ele>
      </trkpt>
      <trkpt lat="43.82737" lon="5.79259">
        <ele>344</ele>
      </trkpt>
      <trkpt lat="43.82745" lon="5.79215">
        <ele>344</ele>
      </trkpt>
      <trkpt lat="43.82756" lon="5.79166">
        <ele>346</ele>
      </trkpt>
      <trkpt lat="43.8277" lon="5.79131">
        <ele>348</ele>
      </trkpt>
      <trkpt lat="43.82783" lon="5.79106">
        <ele>348</ele>
      </trkpt>
      <trkpt lat="43.82792" lon="5.7908">
        <ele>348</ele>
      </trkpt>
      <trkpt lat="43.82801" lon="5.7906">
        <ele>349</ele>
      </trkpt>
      <trkpt lat="43.82812" lon="5.7903">
        <ele>349</ele>
      </trkpt>
      <trkpt lat="43.8283" lon="5.7899">
        <ele>352</ele>
      </trkpt>
      <trkpt lat="43.82845" lon="5.78958">
        <ele>354</ele>
      </trkpt>
      <trkpt lat="43.82861" lon="5.7894">
        <ele>355</ele>
      </trkpt>
      <trkpt lat="43.82885" lon="5.78915">
        <ele>355</ele>
      </trkpt>
      <trkpt lat="43.82907" lon="5.78907">
        <ele>356</ele>
      </trkpt>
      <trkpt lat="43.82935" lon="5.78895">
        <ele>357</ele>
      </trkpt>
      <trkpt lat="43.82964" lon="5.78872">
        <ele>358</ele>
      </trkpt>
      <trkpt lat="43.82989" lon="5.78858">
        <ele>358</ele>
      </trkpt>
      <trkpt lat="43.83004" lon="5.78838">
        <ele>360</ele>
      </trkpt>
      <trkpt lat="43.83027" lon="5.78822">
        <ele>360</ele>
      </trkpt>
      <trkpt lat="43.8305" lon="5.78812">
        <ele>361</ele>
      </trkpt>
      <trkpt lat="43.83086" lon="5.7882">
        <ele>364</ele>
      </trkpt>
      <trkpt lat="43.83107" lon="5.78834">
        <ele>365</ele>
      </trkpt>
      <trkpt lat="43.83117" lon="5.78815">
        <ele>364</ele>
      </trkpt>
      <trkpt lat="43.83129" lon="5.78781">
        <ele>363</ele>
      </trkpt>
      <trkpt lat="43.8315" lon="5.78744">
        <ele>363</ele>
      </trkpt>
      <trkpt lat="43.83168" lon="5.78703">
        <ele>365</ele>
      </trkpt>
      <trkpt lat="43.83168" lon="5.78656">
        <ele>366</ele>
      </trkpt>
      <trkpt lat="43.83151" lon="5.78626">
        <ele>367</ele>
      </trkpt>
      <trkpt lat="43.83136" lon="5.7858">
        <ele>371</ele>
      </trkpt>
      <trkpt lat="43.83112" lon="5.78589">
        <ele>368</ele>
      </trkpt>
      <trkpt lat="43.83093" lon="5.78606">
        <ele>368</ele>
      </trkpt>
      <trkpt lat="43.83066" lon="5.78625">
        <ele>367</ele>
      </trkpt>
      <trkpt lat="43.83041" lon="5.78643">
        <ele>366</ele>
      </trkpt>
      <trkpt lat="43.83019" lon="5.78661">
        <ele>365</ele>
      </trkpt>
      <trkpt lat="43.82993" lon="5.78683">
        <ele>362</ele>
      </trkpt>
      <trkpt lat="43.82977" lon="5.78633">
        <ele>366</ele>
      </trkpt>
      <trkpt lat="43.82963" lon="5.78596">
        <ele>367</ele>
      </trkpt>
      <trkpt lat="43.82949" lon="5.78552">
        <ele>369</ele>
      </trkpt>
      <trkpt lat="43.82972" lon="5.78528">
        <ele>370</ele>
      </trkpt>
      <trkpt lat="43.82995" lon="5.78515">
        <ele>371</ele>
      </trkpt>
      <trkpt lat="43.83019" lon="5.785">
        <ele>373</ele>
      </trkpt>
      <trkpt lat="43.8305" lon="5.78482">
        <ele>373</ele>
      </trkpt>
      <trkpt lat="43.83053" lon="5.7848">
        <ele>373</ele>
      </trkpt>
      <trkpt lat="43.83066" lon="5.78466">
        <ele>373</ele>
      </trkpt>
      <trkpt lat="43.83092" lon="5.78454">
        <ele>376</ele>
      </trkpt>
      <trkpt lat="43.83126" lon="5.78437">
        <ele>377</ele>
      </trkpt>
      <trkpt lat="43.83152" lon="5.78415">
        <ele>380</ele>
      </trkpt>
      <trkpt lat="43.83157" lon="5.784">
        <ele>380</ele>
      </trkpt>
      <trkpt lat="43.83155" lon="5.78401">
        <ele>380</ele>
      </trkpt>
      <trkpt lat="43.83154" lon="5.78397">
        <ele>380</ele>
      </trkpt>
      <trkpt lat="43.83147" lon="5.78374">
        <ele>380</ele>
      </trkpt>
      <trkpt lat="43.83143" lon="5.78344">
        <ele>381</ele>
      </trkpt>
      <trkpt lat="43.83143" lon="5.78329">
        <ele>380</ele>
      </trkpt>
      <trkpt lat="43.83149" lon="5.78266">
        <ele>379</ele>
      </trkpt>
      <trkpt lat="43.83157" lon="5.78237">
        <ele>378</ele>
      </trkpt>
      <trkpt lat="43.8316" lon="5.78231">
        <ele>377</ele>
      </trkpt>
      <trkpt lat="43.83193" lon="5.78183">
        <ele>380</ele>
      </trkpt>
      <trkpt lat="43.83213" lon="5.78158">
        <ele>377</ele>
      </trkpt>
      <trkpt lat="43.83235" lon="5.78137">
        <ele>377</ele>
      </trkpt>
      <trkpt lat="43.83276" lon="5.78114">
        <ele>380</ele>
      </trkpt>
      <trkpt lat="43.83288" lon="5.78112">
        <ele>380</ele>
      </trkpt>
      <trkpt lat="43.8333" lon="5.78107">
        <ele>381</ele>
      </trkpt>
      <trkpt lat="43.83352" lon="5.78107">
        <ele>384</ele>
      </trkpt>
      <trkpt lat="43.834" lon="5.78132">
        <ele>385</ele>
      </trkpt>
      <trkpt lat="43.83422" lon="5.78137">
        <ele>387</ele>
      </trkpt>
      <trkpt lat="43.83472" lon="5.7815">
        <ele>388</ele>
      </trkpt>
      <trkpt lat="43.83511" lon="5.78155">
        <ele>390</ele>
      </trkpt>
      <trkpt lat="43.83537" lon="5.78154">
        <ele>391</ele>
      </trkpt>
      <trkpt lat="43.83568" lon="5.7815">
        <ele>391</ele>
      </trkpt>
      <trkpt lat="43.83588" lon="5.78145">
        <ele>393</ele>
      </trkpt>
      <trkpt lat="43.83615" lon="5.7814">
        <ele>393</ele>
      </trkpt>
      <trkpt lat="43.83642" lon="5.78133">
        <ele>393</ele>
      </trkpt>
      <trkpt lat="43.83679" lon="5.78125">
        <ele>394</ele>
      </trkpt>
      <trkpt lat="43.83708" lon="5.78114">
        <ele>394</ele>
      </trkpt>
      <trkpt lat="43.83733" lon="5.78104">
        <ele>395</ele>
      </trkpt>
      <trkpt lat="43.8376" lon="5.78083">
        <ele>396</ele>
      </trkpt>
      <trkpt lat="43.83789" lon="5.78058">
        <ele>395</ele>
      </trkpt>
      <trkpt lat="43.83831" lon="5.78024">
        <ele>396</ele>
      </trkpt>
      <trkpt lat="43.83877" lon="5.77991">
        <ele>398</ele>
      </trkpt>
      <trkpt lat="43.83914" lon="5.77966">
        <ele>399</ele>
      </trkpt>
      <trkpt lat="43.83929" lon="5.77961">
        <ele>403</ele>
      </trkpt>
      <trkpt lat="43.83946" lon="5.7795">
        <ele>403</ele>
      </trkpt>
      <trkpt lat="43.83954" lon="5.77938">
        <ele>404</ele>
      </trkpt>
      <trkpt lat="43.83974" lon="5.77923">
        <ele>404</ele>
      </trkpt>
      <trkpt lat="43.83989" lon="5.77916">
        <ele>405</ele>
      </trkpt>
      <trkpt lat="43.84041" lon="5.77886">
        <ele>409</ele>
      </trkpt>
      <trkpt lat="43.84094" lon="5.77852">
        <ele>412</ele>
      </trkpt>
      <trkpt lat="43.8413" lon="5.77831">
        <ele>414</ele>
      </trkpt>
      <trkpt lat="43.84166" lon="5.77808">
        <ele>416</ele>
      </trkpt>
      <trkpt lat="43.84193" lon="5.77791">
        <ele>419</ele>
      </trkpt>
      <trkpt lat="43.84255" lon="5.77755">
        <ele>423</ele>
      </trkpt>
      <trkpt lat="43.843" lon="5.77736">
        <ele>426</ele>
      </trkpt>
      <trkpt lat="43.8432" lon="5.77722">
        <ele>426</ele>
      </trkpt>
      <trkpt lat="43.84332" lon="5.77708">
        <ele>427</ele>
      </trkpt>
      <trkpt lat="43.84357" lon="5.77687">
        <ele>426</ele>
      </trkpt>
      <trkpt lat="43.844" lon="5.77669">
        <ele>425</ele>
      </trkpt>
      <trkpt lat="43.8442" lon="5.77646">
        <ele>427</ele>
      </trkpt>
      <trkpt lat="43.84431" lon="5.77636">
        <ele>427</ele>
      </trkpt>
      <trkpt lat="43.84465" lon="5.77605">
        <ele>427</ele>
      </trkpt>
      <trkpt lat="43.84482" lon="5.77572">
        <ele>432</ele>
      </trkpt>
      <trkpt lat="43.84484" lon="5.77557">
        <ele>433</ele>
      </trkpt>
      <trkpt lat="43.84486" lon="5.77551">
        <ele>434</ele>
      </trkpt>
      <trkpt lat="43.84503" lon="5.77532">
        <ele>433</ele>
      </trkpt>
      <trkpt lat="43.84523" lon="5.77526">
        <ele>433</ele>
      </trkpt>
      <trkpt lat="43.84551" lon="5.77526">
        <ele>433</ele>
      </trkpt>
      <trkpt lat="43.84561" lon="5.77528">
        <ele>433</ele>
      </trkpt>
      <trkpt lat="43.84566" lon="5.77526">
        <ele>434</ele>
      </trkpt>
      <trkpt lat="43.84613" lon="5.77501">
        <ele>436</ele>
      </trkpt>
      <trkpt lat="43.84642" lon="5.77494">
        <ele>444</ele>
      </trkpt>
      <trkpt lat="43.84689" lon="5.77486">
        <ele>446</ele>
      </trkpt>
      <trkpt lat="43.84697" lon="5.77483">
        <ele>447</ele>
      </trkpt>
      <trkpt lat="43.84727" lon="5.77453">
        <ele>451</ele>
      </trkpt>
      <trkpt lat="43.84751" lon="5.77431">
        <ele>455</ele>
      </trkpt>
      <trkpt lat="43.84764" lon="5.77425">
        <ele>455</ele>
      </trkpt>
      <trkpt lat="43.84786" lon="5.77422">
        <ele>455</ele>
      </trkpt>
      <trkpt lat="43.84811" lon="5.77435">
        <ele>456</ele>
      </trkpt>
      <trkpt lat="43.84839" lon="5.77442">
        <ele>459</ele>
      </trkpt>
      <trkpt lat="43.84875" lon="5.77452">
        <ele>458</ele>
      </trkpt>
      <trkpt lat="43.84915" lon="5.77463">
        <ele>458</ele>
      </trkpt>
      <trkpt lat="43.84928" lon="5.77463">
        <ele>458</ele>
      </trkpt>
      <trkpt lat="43.84948" lon="5.77476">
        <ele>457</ele>
      </trkpt>
      <trkpt lat="43.84968" lon="5.77487">
        <ele>457</ele>
      </trkpt>
      <trkpt lat="43.84992" lon="5.77486">
        <ele>456</ele>
      </trkpt>
      <trkpt lat="43.85" lon="5.77483">
        <ele>456</ele>
      </trkpt>
      <trkpt lat="43.85004" lon="5.77482">
        <ele>457</ele>
      </trkpt>
      <trkpt lat="43.85027" lon="5.77474">
        <ele>458</ele>
      </trkpt>
      <trkpt lat="43.85047" lon="5.77475">
        <ele>458</ele>
      </trkpt>
      <trkpt lat="43.85094" lon="5.77484">
        <ele>462</ele>
      </trkpt>
      <trkpt lat="43.85102" lon="5.77488">
        <ele>463</ele>
      </trkpt>
      <trkpt lat="43.85135" lon="5.77494">
        <ele>467</ele>
      </trkpt>
      <trkpt lat="43.8516" lon="5.77503">
        <ele>469</ele>
      </trkpt>
      <trkpt lat="43.85199" lon="5.77519">
        <ele>477</ele>
      </trkpt>
      <trkpt lat="43.85226" lon="5.77538">
        <ele>479</ele>
      </trkpt>
      <trkpt lat="43.85234" lon="5.77541">
        <ele>479</ele>
      </trkpt>
      <trkpt lat="43.85277" lon="5.77559">
        <ele>486</ele>
      </trkpt>
      <trkpt lat="43.85284" lon="5.77564">
        <ele>486</ele>
      </trkpt>
      <trkpt lat="43.85308" lon="5.77566">
        <ele>487</ele>
      </trkpt>
      <trkpt lat="43.85321" lon="5.77566">
        <ele>488</ele>
      </trkpt>
      <trkpt lat="43.85337" lon="5.77588">
        <ele>488</ele>
      </trkpt>
      <trkpt lat="43.85369" lon="5.77611">
        <ele>491</ele>
      </trkpt>
      <trkpt lat="43.85378" lon="5.77613">
        <ele>492</ele>
      </trkpt>
      <trkpt lat="43.85417" lon="5.77626">
        <ele>493</ele>
      </trkpt>
      <trkpt lat="43.8543" lon="5.77634">
        <ele>500</ele>
      </trkpt>
      <trkpt lat="43.85436" lon="5.7764">
        <ele>500</ele>
      </trkpt>
      <trkpt lat="43.85474" lon="5.77665">
        <ele>502</ele>
      </trkpt>
      <trkpt lat="43.85504" lon="5.77676">
        <ele>503</ele>
      </trkpt>
      <trkpt lat="43.85533" lon="5.77666">
        <ele>512</ele>
      </trkpt>
      <trkpt lat="43.85541" lon="5.77659">
        <ele>513</ele>
      </trkpt>
      <trkpt lat="43.85548" lon="5.77668">
        <ele>508</ele>
      </trkpt>
      <trkpt lat="43.85554" lon="5.77702">
        <ele>507</ele>
      </trkpt>
      <trkpt lat="43.85583" lon="5.77752">
        <ele>508</ele>
      </trkpt>
      <trkpt lat="43.85626" lon="5.77783">
        <ele>516</ele>
      </trkpt>
      <trkpt lat="43.85678" lon="5.77796">
        <ele>530</ele>
      </trkpt>
      <trkpt lat="43.85687" lon="5.77799">
        <ele>530</ele>
      </trkpt>
      <trkpt lat="43.85719" lon="5.77834">
        <ele>528</ele>
      </trkpt>
      <trkpt lat="43.85744" lon="5.77849">
        <ele>531</ele>
      </trkpt>
      <trkpt lat="43.85762" lon="5.77867">
        <ele>542</ele>
      </trkpt>
      <trkpt lat="43.85774" lon="5.77897">
        <ele>542</ele>
      </trkpt>
      <trkpt lat="43.85777" lon="5.77907">
        <ele>542</ele>
      </trkpt>
      <trkpt lat="43.85795" lon="5.77961">
        <ele>541</ele>
      </trkpt>
      <trkpt lat="43.858" lon="5.77973">
        <ele>541</ele>
      </trkpt>
      <trkpt lat="43.85816" lon="5.78001">
        <ele>541</ele>
      </trkpt>
      <trkpt lat="43.85819" lon="5.78003">
        <ele>541</ele>
      </trkpt>
      <trkpt lat="43.85822" lon="5.78006">
        <ele>540</ele>
      </trkpt>
      <trkpt lat="43.85841" lon="5.78011">
        <ele>542</ele>
      </trkpt>
      <trkpt lat="43.85858" lon="5.78009">
        <ele>544</ele>
      </trkpt>
      <trkpt lat="43.85876" lon="5.78009">
        <ele>546</ele>
      </trkpt>
      <trkpt lat="43.85913" lon="5.78025">
        <ele>549</ele>
      </trkpt>
      <trkpt lat="43.85932" lon="5.78037">
        <ele>556</ele>
      </trkpt>
      <trkpt lat="43.85976" lon="5.78049">
        <ele>558</ele>
      </trkpt>
      <trkpt lat="43.85996" lon="5.78059">
        <ele>557</ele>
      </trkpt>
      <trkpt lat="43.86025" lon="5.78075">
        <ele>564</ele>
      </trkpt>
      <trkpt lat="43.86074" lon="5.78078">
        <ele>569</ele>
      </trkpt>
      <trkpt lat="43.86084" lon="5.78076">
        <ele>572</ele>
      </trkpt>
      <trkpt lat="43.86119" lon="5.78068">
        <ele>578</ele>
      </trkpt>
      <trkpt lat="43.86147" lon="5.78051">
        <ele>581</ele>
      </trkpt>
      <trkpt lat="43.86165" lon="5.78038">
        <ele>582</ele>
      </trkpt>
      <trkpt lat="43.86183" lon="5.78029">
        <ele>588</ele>
      </trkpt>
      <trkpt lat="43.86243" lon="5.78">
        <ele>588</ele>
      </trkpt>
      <trkpt lat="43.86273" lon="5.77992">
        <ele>593</ele>
      </trkpt>
      <trkpt lat="43.863" lon="5.77972">
        <ele>596</ele>
      </trkpt>
      <trkpt lat="43.86316" lon="5.77961">
        <ele>597</ele>
      </trkpt>
      <trkpt lat="43.86335" lon="5.77928">
        <ele>601</ele>
      </trkpt>
      <trkpt lat="43.8634" lon="5.77918">
        <ele>601</ele>
      </trkpt>
      <trkpt lat="43.86353" lon="5.77927">
        <ele>603</ele>
      </trkpt>
      <trkpt lat="43.86366" lon="5.77958">
        <ele>604</ele>
      </trkpt>
      <trkpt lat="43.86373" lon="5.77971">
        <ele>604</ele>
      </trkpt>
      <trkpt lat="43.86394" lon="5.78007">
        <ele>605</ele>
      </trkpt>
      <trkpt lat="43.86399" lon="5.78021">
        <ele>605</ele>
      </trkpt>
      <trkpt lat="43.86426" lon="5.78106">
        <ele>603</ele>
      </trkpt>
      <trkpt lat="43.86428" lon="5.7812">
        <ele>604</ele>
      </trkpt>
      <trkpt lat="43.86432" lon="5.78188">
        <ele>608</ele>
      </trkpt>
      <trkpt lat="43.86426" lon="5.78247">
        <ele>614</ele>
      </trkpt>
      <trkpt lat="43.86428" lon="5.78295">
        <ele>618</ele>
      </trkpt>
      <trkpt lat="43.86454" lon="5.7835">
        <ele>629</ele>
      </trkpt>
      <trkpt lat="43.86481" lon="5.78381">
        <ele>629</ele>
      </trkpt>
      <trkpt lat="43.86516" lon="5.78422">
        <ele>633</ele>
      </trkpt>
      <trkpt lat="43.86533" lon="5.78436">
        <ele>633</ele>
      </trkpt>
      <trkpt lat="43.86535" lon="5.78449">
        <ele>634</ele>
      </trkpt>
      <trkpt lat="43.86522" lon="5.78448">
        <ele>635</ele>
      </trkpt>
      <trkpt lat="43.86506" lon="5.78441">
        <ele>635</ele>
      </trkpt>
      <trkpt lat="43.86495" lon="5.7844">
        <ele>642</ele>
      </trkpt>
      <trkpt lat="43.86475" lon="5.78437">
        <ele>643</ele>
      </trkpt>
      <trkpt lat="43.86452" lon="5.78436">
        <ele>646</ele>
      </trkpt>
      <trkpt lat="43.8643" lon="5.78432">
        <ele>647</ele>
      </trkpt>
      <trkpt lat="43.86419" lon="5.78429">
        <ele>647</ele>
      </trkpt>
      <trkpt lat="43.86414" lon="5.78425">
        <ele>648</ele>
      </trkpt>
      <trkpt lat="43.8641" lon="5.78424">
        <ele>648</ele>
      </trkpt>
      <trkpt lat="43.86404" lon="5.78424">
        <ele>648</ele>
      </trkpt>
      <trkpt lat="43.86403" lon="5.78422">
        <ele>648</ele>
      </trkpt>
      <trkpt lat="43.86399" lon="5.78422">
        <ele>648</ele>
      </trkpt>
      <trkpt lat="43.86394" lon="5.78427">
        <ele>648</ele>
      </trkpt>
      <trkpt lat="43.86391" lon="5.7843">
        <ele>648</ele>
      </trkpt>
      <trkpt lat="43.86393" lon="5.78452">
        <ele>648</ele>
      </trkpt>
      <trkpt lat="43.86401" lon="5.7847">
        <ele>649</ele>
      </trkpt>
      <trkpt lat="43.86405" lon="5.78475">
        <ele>649</ele>
      </trkpt>
      <trkpt lat="43.86429" lon="5.78495">
        <ele>651</ele>
      </trkpt>
      <trkpt lat="43.86439" lon="5.78499">
        <ele>650</ele>
      </trkpt>
      <trkpt lat="43.86456" lon="5.78525">
        <ele>654</ele>
      </trkpt>
      <trkpt lat="43.86465" lon="5.78557">
        <ele>655</ele>
      </trkpt>
      <trkpt lat="43.86467" lon="5.78564">
        <ele>655</ele>
      </trkpt>
      <trkpt lat="43.86476" lon="5.78581">
        <ele>657</ele>
      </trkpt>
      <trkpt lat="43.86482" lon="5.78591">
        <ele>657</ele>
      </trkpt>
      <trkpt lat="43.86485" lon="5.78596">
        <ele>657</ele>
      </trkpt>
      <trkpt lat="43.86494" lon="5.78609">
        <ele>657</ele>
      </trkpt>
      <trkpt lat="43.86509" lon="5.78623">
        <ele>659</ele>
      </trkpt>
      <trkpt lat="43.86517" lon="5.78629">
        <ele>659</ele>
      </trkpt>
      <trkpt lat="43.86532" lon="5.7865">
        <ele>659</ele>
      </trkpt>
      <trkpt lat="43.86539" lon="5.78666">
        <ele>660</ele>
      </trkpt>
      <trkpt lat="43.86556" lon="5.78694">
        <ele>662</ele>
      </trkpt>
      <trkpt lat="43.86576" lon="5.78738">
        <ele>666</ele>
      </trkpt>
      <trkpt lat="43.86589" lon="5.78762">
        <ele>669</ele>
      </trkpt>
      <trkpt lat="43.8659" lon="5.78766">
        <ele>669</ele>
      </trkpt>
      <trkpt lat="43.86593" lon="5.78771">
        <ele>669</ele>
      </trkpt>
      <trkpt lat="43.86612" lon="5.78798">
        <ele>670</ele>
      </trkpt>
      <trkpt lat="43.86625" lon="5.78811">
        <ele>670</ele>
      </trkpt>
      <trkpt lat="43.86649" lon="5.78832">
        <ele>673</ele>
      </trkpt>
      <trkpt lat="43.8667" lon="5.78863">
        <ele>670</ele>
      </trkpt>
      <trkpt lat="43.86685" lon="5.78891">
        <ele>670</ele>
      </trkpt>
      <trkpt lat="43.86698" lon="5.78924">
        <ele>671</ele>
      </trkpt>
      <trkpt lat="43.86714" lon="5.78959">
        <ele>669</ele>
      </trkpt>
      <trkpt lat="43.86723" lon="5.7898">
        <ele>670</ele>
      </trkpt>
      <trkpt lat="43.86738" lon="5.7901">
        <ele>671</ele>
      </trkpt>
      <trkpt lat="43.86758" lon="5.79038">
        <ele>670</ele>
      </trkpt>
      <trkpt lat="43.86787" lon="5.79066">
        <ele>670</ele>
      </trkpt>
      <trkpt lat="43.86806" lon="5.79085">
        <ele>673</ele>
      </trkpt>
      <trkpt lat="43.86825" lon="5.7911">
        <ele>673</ele>
      </trkpt>
      <trkpt lat="43.86833" lon="5.7913">
        <ele>673</ele>
      </trkpt>
      <trkpt lat="43.86845" lon="5.79147">
        <ele>674</ele>
      </trkpt>
      <trkpt lat="43.86859" lon="5.79157">
        <ele>673</ele>
      </trkpt>
      <trkpt lat="43.86873" lon="5.79173">
        <ele>673</ele>
      </trkpt>
      <trkpt lat="43.86886" lon="5.79191">
        <ele>672</ele>
      </trkpt>
      <trkpt lat="43.86899" lon="5.79199">
        <ele>673</ele>
      </trkpt>
      <trkpt lat="43.86923" lon="5.79207">
        <ele>676</ele>
      </trkpt>
      <trkpt lat="43.86939" lon="5.79218">
        <ele>676</ele>
      </trkpt>
      <trkpt lat="43.86952" lon="5.79239">
        <ele>677</ele>
      </trkpt>
      <trkpt lat="43.86965" lon="5.79253">
        <ele>676</ele>
      </trkpt>
      <trkpt lat="43.86981" lon="5.79277">
        <ele>676</ele>
      </trkpt>
      <trkpt lat="43.87" lon="5.79309">
        <ele>676</ele>
      </trkpt>
      <trkpt lat="43.87014" lon="5.79333">
        <ele>679</ele>
      </trkpt>
      <trkpt lat="43.8703" lon="5.79357">
        <ele>676</ele>
      </trkpt>
      <trkpt lat="43.87049" lon="5.79383">
        <ele>676</ele>
      </trkpt>
      <trkpt lat="43.87066" lon="5.79407">
        <ele>676</ele>
      </trkpt>
      <trkpt lat="43.87082" lon="5.79421">
        <ele>676</ele>
      </trkpt>
      <trkpt lat="43.871" lon="5.79431">
        <ele>675</ele>
      </trkpt>
      <trkpt lat="43.87113" lon="5.79437">
        <ele>675</ele>
      </trkpt>
      <trkpt lat="43.87124" lon="5.7944">
        <ele>674</ele>
      </trkpt>
      <trkpt lat="43.8714" lon="5.79446">
        <ele>674</ele>
      </trkpt>
      <trkpt lat="43.87149" lon="5.79457">
        <ele>674</ele>
      </trkpt>
      <trkpt lat="43.87154" lon="5.79476">
        <ele>674</ele>
      </trkpt>
      <trkpt lat="43.87159" lon="5.79494">
        <ele>674</ele>
      </trkpt>
      <trkpt lat="43.87168" lon="5.79513">
        <ele>674</ele>
      </trkpt>
      <trkpt lat="43.87176" lon="5.7953">
        <ele>674</ele>
      </trkpt>
      <trkpt lat="43.87187" lon="5.79548">
        <ele>673</ele>
      </trkpt>
      <trkpt lat="43.87205" lon="5.79567">
        <ele>673</ele>
      </trkpt>
      <trkpt lat="43.87228" lon="5.79588">
        <ele>668</ele>
      </trkpt>
      <trkpt lat="43.87249" lon="5.79605">
        <ele>668</ele>
      </trkpt>
      <trkpt lat="43.87264" lon="5.79621">
        <ele>670</ele>
      </trkpt>
      <trkpt lat="43.8728" lon="5.79642">
        <ele>669</ele>
      </trkpt>
      <trkpt lat="43.87295" lon="5.79662">
        <ele>669</ele>
      </trkpt>
      <trkpt lat="43.8731" lon="5.79685">
        <ele>663</ele>
      </trkpt>
      <trkpt lat="43.87319" lon="5.79698">
        <ele>663</ele>
      </trkpt>
      <trkpt lat="43.87325" lon="5.79714">
        <ele>662</ele>
      </trkpt>
      <trkpt lat="43.87323" lon="5.79738">
        <ele>661</ele>
      </trkpt>
      <trkpt lat="43.87313" lon="5.7976">
        <ele>658</ele>
      </trkpt>
      <trkpt lat="43.87303" lon="5.79775">
        <ele>658</ele>
      </trkpt>
      <trkpt lat="43.87293" lon="5.79789">
        <ele>658</ele>
      </trkpt>
      <trkpt lat="43.87286" lon="5.7981">
        <ele>658</ele>
      </trkpt>
      <trkpt lat="43.87287" lon="5.79838">
        <ele>658</ele>
      </trkpt>
      <trkpt lat="43.87291" lon="5.79858">
        <ele>658</ele>
      </trkpt>
      <trkpt lat="43.87292" lon="5.79859">
        <ele>658</ele>
      </trkpt>
      <trkpt lat="43.87294" lon="5.79859">
        <ele>658</ele>
      </trkpt>
      <trkpt lat="43.87295" lon="5.79858">
        <ele>658</ele>
      </trkpt>
      <trkpt lat="43.87297" lon="5.79859">
        <ele>658</ele>
      </trkpt>
      <trkpt lat="43.87299" lon="5.79866">
        <ele>658</ele>
      </trkpt>
      <trkpt lat="43.87308" lon="5.79896">
        <ele>658</ele>
      </trkpt>
      <trkpt lat="43.87317" lon="5.79919">
        <ele>658</ele>
      </trkpt>
      <trkpt lat="43.87326" lon="5.79936">
        <ele>658</ele>
      </trkpt>
      <trkpt lat="43.87335" lon="5.79954">
        <ele>654</ele>
      </trkpt>
      <trkpt lat="43.87342" lon="5.7997">
        <ele>655</ele>
      </trkpt>
      <trkpt lat="43.87349" lon="5.79985">
        <ele>656</ele>
      </trkpt>
      <trkpt lat="43.87355" lon="5.79997">
        <ele>656</ele>
      </trkpt>
      <trkpt lat="43.87362" lon="5.8001">
        <ele>660</ele>
      </trkpt>
      <trkpt lat="43.87372" lon="5.80024">
        <ele>660</ele>
      </trkpt>
      <trkpt lat="43.87381" lon="5.80033">
        <ele>660</ele>
      </trkpt>
      <trkpt lat="43.87395" lon="5.80035">
        <ele>659</ele>
      </trkpt>
      <trkpt lat="43.8741" lon="5.80032">
        <ele>658</ele>
      </trkpt>
      <trkpt lat="43.87419" lon="5.80028">
        <ele>653</ele>
      </trkpt>
      <trkpt lat="43.87433" lon="5.80021">
        <ele>652</ele>
      </trkpt>
      <trkpt lat="43.87447" lon="5.80013">
        <ele>652</ele>
      </trkpt>
      <trkpt lat="43.8746" lon="5.80008">
        <ele>651</ele>
      </trkpt>
      <trkpt lat="43.87473" lon="5.80002">
        <ele>650</ele>
      </trkpt>
      <trkpt lat="43.87484" lon="5.79998">
        <ele>640</ele>
      </trkpt>
      <trkpt lat="43.87498" lon="5.79996">
        <ele>642</ele>
      </trkpt>
      <trkpt lat="43.87511" lon="5.79997">
        <ele>635</ele>
      </trkpt>
      <trkpt lat="43.87514" lon="5.79997">
        <ele>634</ele>
      </trkpt>
      <trkpt lat="43.87526" lon="5.8">
        <ele>629</ele>
      </trkpt>
      <trkpt lat="43.87538" lon="5.80005">
        <ele>637</ele>
      </trkpt>
      <trkpt lat="43.8755" lon="5.8002">
        <ele>635</ele>
      </trkpt>
      <trkpt lat="43.87556" lon="5.80036">
        <ele>636</ele>
      </trkpt>
      <trkpt lat="43.8756" lon="5.80044">
        <ele>636</ele>
      </trkpt>
      <trkpt lat="43.87564" lon="5.80042">
        <ele>635</ele>
      </trkpt>
      <trkpt lat="43.87564" lon="5.80029">
        <ele>634</ele>
      </trkpt>
      <trkpt lat="43.87558" lon="5.8001">
        <ele>633</ele>
      </trkpt>
      <trkpt lat="43.87552" lon="5.79997">
        <ele>623</ele>
      </trkpt>
      <trkpt lat="43.87541" lon="5.79983">
        <ele>624</ele>
      </trkpt>
      <trkpt lat="43.87531" lon="5.79973">
        <ele>624</ele>
      </trkpt>
      <trkpt lat="43.87517" lon="5.79963">
        <ele>625</ele>
      </trkpt>
      <trkpt lat="43.87501" lon="5.79954">
        <ele>624</ele>
      </trkpt>
      <trkpt lat="43.87489" lon="5.79947">
        <ele>632</ele>
      </trkpt>
      <trkpt lat="43.87478" lon="5.79942">
        <ele>632</ele>
      </trkpt>
      <trkpt lat="43.87464" lon="5.79936">
        <ele>633</ele>
      </trkpt>
      <trkpt lat="43.8745" lon="5.79931">
        <ele>634</ele>
      </trkpt>
      <trkpt lat="43.87436" lon="5.7992">
        <ele>634</ele>
      </trkpt>
      <trkpt lat="43.8743" lon="5.79906">
        <ele>629</ele>
      </trkpt>
      <trkpt lat="43.87431" lon="5.79892">
        <ele>627</ele>
      </trkpt>
      <trkpt lat="43.8744" lon="5.79893">
        <ele>626</ele>
      </trkpt>
      <trkpt lat="43.87447" lon="5.79903">
        <ele>626</ele>
      </trkpt>
      <trkpt lat="43.87457" lon="5.79908">
        <ele>625</ele>
      </trkpt>
      <trkpt lat="43.8747" lon="5.79908">
        <ele>623</ele>
      </trkpt>
      <trkpt lat="43.87482" lon="5.7991">
        <ele>622</ele>
      </trkpt>
      <trkpt lat="43.87497" lon="5.79911">
        <ele>620</ele>
      </trkpt>
      <trkpt lat="43.87513" lon="5.7991">
        <ele>612</ele>
      </trkpt>
      <trkpt lat="43.87533" lon="5.79909">
        <ele>607</ele>
      </trkpt>
      <trkpt lat="43.87548" lon="5.7991">
        <ele>604</ele>
      </trkpt>
      <trkpt lat="43.87565" lon="5.79912">
        <ele>602</ele>
      </trkpt>
      <trkpt lat="43.87576" lon="5.79916">
        <ele>601</ele>
      </trkpt>
      <trkpt lat="43.87589" lon="5.79923">
        <ele>602</ele>
      </trkpt>
      <trkpt lat="43.876" lon="5.79932">
        <ele>604</ele>
      </trkpt>
      <trkpt lat="43.87608" lon="5.79929">
        <ele>604</ele>
      </trkpt>
      <trkpt lat="43.87609" lon="5.79925">
        <ele>603</ele>
      </trkpt>
      <trkpt lat="43.87603" lon="5.79916">
        <ele>594</ele>
      </trkpt>
      <trkpt lat="43.87596" lon="5.79907">
        <ele>595</ele>
      </trkpt>
      <trkpt lat="43.87585" lon="5.79895">
        <ele>593</ele>
      </trkpt>
      <trkpt lat="43.87573" lon="5.79884">
        <ele>600</ele>
      </trkpt>
      <trkpt lat="43.87563" lon="5.79877">
        <ele>600</ele>
      </trkpt>
      <trkpt lat="43.87551" lon="5.7987">
        <ele>601</ele>
      </trkpt>
      <trkpt lat="43.8754" lon="5.79865">
        <ele>602</ele>
      </trkpt>
      <trkpt lat="43.87532" lon="5.79855">
        <ele>603</ele>
      </trkpt>
      <trkpt lat="43.87535" lon="5.79839">
        <ele>602</ele>
      </trkpt>
      <trkpt lat="43.87546" lon="5.79823">
        <ele>595</ele>
      </trkpt>
      <trkpt lat="43.87553" lon="5.79812">
        <ele>594</ele>
      </trkpt>
      <trkpt lat="43.87559" lon="5.79802">
        <ele>593</ele>
      </trkpt>
      <trkpt lat="43.87565" lon="5.79793">
        <ele>593</ele>
      </trkpt>
      <trkpt lat="43.8757" lon="5.79781">
        <ele>592</ele>
      </trkpt>
      <trkpt lat="43.87573" lon="5.79763">
        <ele>588</ele>
      </trkpt>
      <trkpt lat="43.87574" lon="5.79756">
        <ele>586</ele>
      </trkpt>
      <trkpt lat="43.8758" lon="5.79752">
        <ele>582</ele>
      </trkpt>
      <trkpt lat="43.87582" lon="5.79756">
        <ele>584</ele>
      </trkpt>
      <trkpt lat="43.87583" lon="5.79774">
        <ele>589</ele>
      </trkpt>
      <trkpt lat="43.87582" lon="5.79789">
        <ele>591</ele>
      </trkpt>
      <trkpt lat="43.87582" lon="5.79809">
        <ele>590</ele>
      </trkpt>
      <trkpt lat="43.87586" lon="5.79824">
        <ele>581</ele>
      </trkpt>
      <trkpt lat="43.87599" lon="5.79828">
        <ele>579</ele>
      </trkpt>
      <trkpt lat="43.87614" lon="5.79832">
        <ele>578</ele>
      </trkpt>
      <trkpt lat="43.87627" lon="5.79838">
        <ele>584</ele>
      </trkpt>
      <trkpt lat="43.87637" lon="5.79849">
        <ele>584</ele>
      </trkpt>
      <trkpt lat="43.87643" lon="5.79858">
        <ele>584</ele>
      </trkpt>
      <trkpt lat="43.87653" lon="5.79856">
        <ele>583</ele>
      </trkpt>
      <trkpt lat="43.87655" lon="5.79846">
        <ele>581</ele>
      </trkpt>
      <trkpt lat="43.8766" lon="5.79828">
        <ele>574</ele>
      </trkpt>
      <trkpt lat="43.87664" lon="5.79813">
        <ele>574</ele>
      </trkpt>
      <trkpt lat="43.8767" lon="5.79795">
        <ele>572</ele>
      </trkpt>
      <trkpt lat="43.87671" lon="5.79781">
        <ele>571</ele>
      </trkpt>
      <trkpt lat="43.87673" lon="5.79768">
        <ele>569</ele>
      </trkpt>
      <trkpt lat="43.87679" lon="5.79757">
        <ele>569</ele>
      </trkpt>
      <trkpt lat="43.87689" lon="5.79751">
        <ele>570</ele>
      </trkpt>
      <trkpt lat="43.87699" lon="5.79747">
        <ele>563</ele>
      </trkpt>
      <trkpt lat="43.87709" lon="5.79739">
        <ele>562</ele>
      </trkpt>
      <trkpt lat="43.87719" lon="5.79729">
        <ele>562</ele>
      </trkpt>
      <trkpt lat="43.8772" lon="5.79728">
        <ele>562</ele>
      </trkpt>
      <trkpt lat="43.87725" lon="5.79719">
        <ele>561</ele>
      </trkpt>
      <trkpt lat="43.87724" lon="5.79708">
        <ele>560</ele>
      </trkpt>
      <trkpt lat="43.87717" lon="5.79703">
        <ele>560</ele>
      </trkpt>
      <trkpt lat="43.87705" lon="5.79702">
        <ele>560</ele>
      </trkpt>
      <trkpt lat="43.87695" lon="5.797">
        <ele>560</ele>
      </trkpt>
      <trkpt lat="43.87688" lon="5.79688">
        <ele>559</ele>
      </trkpt>
      <trkpt lat="43.8769" lon="5.79675">
        <ele>559</ele>
      </trkpt>
      <trkpt lat="43.87694" lon="5.79672">
        <ele>559</ele>
      </trkpt>
      <trkpt lat="43.87706" lon="5.79665">
        <ele>553</ele>
      </trkpt>
      <trkpt lat="43.87715" lon="5.79653">
        <ele>552</ele>
      </trkpt>
      <trkpt lat="43.87723" lon="5.79641">
        <ele>551</ele>
      </trkpt>
      <trkpt lat="43.87732" lon="5.79631">
        <ele>550</ele>
      </trkpt>
      <trkpt lat="43.8774" lon="5.79625">
        <ele>549</ele>
      </trkpt>
      <trkpt lat="43.87746" lon="5.79613">
        <ele>548</ele>
      </trkpt>
      <trkpt lat="43.87748" lon="5.7961">
        <ele>547</ele>
      </trkpt>
      <trkpt lat="43.87754" lon="5.796">
        <ele>544</ele>
      </trkpt>
      <trkpt lat="43.87763" lon="5.79586">
        <ele>543</ele>
      </trkpt>
      <trkpt lat="43.87771" lon="5.79571">
        <ele>539</ele>
      </trkpt>
      <trkpt lat="43.87777" lon="5.7956">
        <ele>539</ele>
      </trkpt>
      <trkpt lat="43.87786" lon="5.79545">
        <ele>538</ele>
      </trkpt>
      <trkpt lat="43.87794" lon="5.79535">
        <ele>538</ele>
      </trkpt>
      <trkpt lat="43.87804" lon="5.79525">
        <ele>537</ele>
      </trkpt>
      <trkpt lat="43.87816" lon="5.79514">
        <ele>535</ele>
      </trkpt>
      <trkpt lat="43.87827" lon="5.79506">
        <ele>533</ele>
      </trkpt>
      <trkpt lat="43.87837" lon="5.795">
        <ele>531</ele>
      </trkpt>
      <trkpt lat="43.8785" lon="5.79494">
        <ele>530</ele>
      </trkpt>
      <trkpt lat="43.87862" lon="5.7949">
        <ele>530</ele>
      </trkpt>
      <trkpt lat="43.87875" lon="5.79483">
        <ele>530</ele>
      </trkpt>
      <trkpt lat="43.87876" lon="5.79482">
        <ele>530</ele>
      </trkpt>
      <trkpt lat="43.87887" lon="5.79474">
        <ele>530</ele>
      </trkpt>
      <trkpt lat="43.87898" lon="5.79465">
        <ele>529</ele>
      </trkpt>
      <trkpt lat="43.87911" lon="5.79453">
        <ele>527</ele>
      </trkpt>
      <trkpt lat="43.87919" lon="5.79443">
        <ele>522</ele>
      </trkpt>
      <trkpt lat="43.87929" lon="5.79432">
        <ele>520</ele>
      </trkpt>
      <trkpt lat="43.87937" lon="5.79419">
        <ele>520</ele>
      </trkpt>
      <trkpt lat="43.87944" lon="5.7941">
        <ele>513</ele>
      </trkpt>
      <trkpt lat="43.87955" lon="5.79395">
        <ele>512</ele>
      </trkpt>
      <trkpt lat="43.87961" lon="5.79388">
        <ele>512</ele>
      </trkpt>
      <trkpt lat="43.87973" lon="5.79374">
        <ele>511</ele>
      </trkpt>
      <trkpt lat="43.87983" lon="5.79358">
        <ele>509</ele>
      </trkpt>
      <trkpt lat="43.87995" lon="5.79347">
        <ele>506</ele>
      </trkpt>
      <trkpt lat="43.88006" lon="5.79343">
        <ele>502</ele>
      </trkpt>
      <trkpt lat="43.88024" lon="5.79349">
        <ele>503</ele>
      </trkpt>
      <trkpt lat="43.88037" lon="5.79352">
        <ele>503</ele>
      </trkpt>
      <trkpt lat="43.88049" lon="5.79351">
        <ele>503</ele>
      </trkpt>
      <trkpt lat="43.88063" lon="5.79348">
        <ele>502</ele>
      </trkpt>
      <trkpt lat="43.8807" lon="5.79337">
        <ele>500</ele>
      </trkpt>
      <trkpt lat="43.88068" lon="5.79312">
        <ele>495</ele>
      </trkpt>
      <trkpt lat="43.88068" lon="5.79289">
        <ele>494</ele>
      </trkpt>
      <trkpt lat="43.88072" lon="5.7927">
        <ele>493</ele>
      </trkpt>
      <trkpt lat="43.88075" lon="5.79252">
        <ele>490</ele>
      </trkpt>
      <trkpt lat="43.88077" lon="5.79235">
        <ele>487</ele>
      </trkpt>
      <trkpt lat="43.88078" lon="5.79215">
        <ele>486</ele>
      </trkpt>
      <trkpt lat="43.88075" lon="5.79193">
        <ele>484</ele>
      </trkpt>
      <trkpt lat="43.88077" lon="5.79172">
        <ele>481</ele>
      </trkpt>
      <trkpt lat="43.8808" lon="5.79146">
        <ele>480</ele>
      </trkpt>
      <trkpt lat="43.88081" lon="5.79126">
        <ele>480</ele>
      </trkpt>
      <trkpt lat="43.88076" lon="5.79107">
        <ele>480</ele>
      </trkpt>
      <trkpt lat="43.88069" lon="5.79089">
        <ele>479</ele>
      </trkpt>
      <trkpt lat="43.88065" lon="5.79075">
        <ele>482</ele>
      </trkpt>
      <trkpt lat="43.88071" lon="5.79059">
        <ele>483</ele>
      </trkpt>
      <trkpt lat="43.8808" lon="5.79043">
        <ele>484</ele>
      </trkpt>
      <trkpt lat="43.88088" lon="5.79019">
        <ele>480</ele>
      </trkpt>
      <trkpt lat="43.88103" lon="5.78991">
        <ele>482</ele>
      </trkpt>
      <trkpt lat="43.88116" lon="5.78967">
        <ele>482</ele>
      </trkpt>
      <trkpt lat="43.88132" lon="5.78938">
        <ele>481</ele>
      </trkpt>
      <trkpt lat="43.88145" lon="5.78918">
        <ele>479</ele>
      </trkpt>
      <trkpt lat="43.88158" lon="5.78894">
        <ele>484</ele>
      </trkpt>
      <trkpt lat="43.88169" lon="5.78876">
        <ele>475</ele>
      </trkpt>
      <trkpt lat="43.88179" lon="5.78859">
        <ele>476</ele>
      </trkpt>
      <trkpt lat="43.88188" lon="5.7884">
        <ele>476</ele>
      </trkpt>
      <trkpt lat="43.88191" lon="5.78826">
        <ele>477</ele>
      </trkpt>
      <trkpt lat="43.8819" lon="5.78812">
        <ele>477</ele>
      </trkpt>
      <trkpt lat="43.88191" lon="5.78792">
        <ele>476</ele>
      </trkpt>
      <trkpt lat="43.88197" lon="5.78777">
        <ele>476</ele>
      </trkpt>
      <trkpt lat="43.88211" lon="5.7877">
        <ele>474</ele>
      </trkpt>
      <trkpt lat="43.88226" lon="5.78777">
        <ele>473</ele>
      </trkpt>
      <trkpt lat="43.8824" lon="5.78782">
        <ele>471</ele>
      </trkpt>
      <trkpt lat="43.88252" lon="5.78777">
        <ele>467</ele>
      </trkpt>
      <trkpt lat="43.8826" lon="5.78767">
        <ele>467</ele>
      </trkpt>
      <trkpt lat="43.8827" lon="5.78751">
        <ele>467</ele>
      </trkpt>
      <trkpt lat="43.88281" lon="5.78727">
        <ele>466</ele>
      </trkpt>
      <trkpt lat="43.88293" lon="5.78705">
        <ele>466</ele>
      </trkpt>
      <trkpt lat="43.88305" lon="5.78684">
        <ele>464</ele>
      </trkpt>
      <trkpt lat="43.88319" lon="5.7866">
        <ele>464</ele>
      </trkpt>
      <trkpt lat="43.88334" lon="5.78645">
        <ele>457</ele>
      </trkpt>
      <trkpt lat="43.88348" lon="5.7863">
        <ele>458</ele>
      </trkpt>
      <trkpt lat="43.88369" lon="5.78614">
        <ele>458</ele>
      </trkpt>
      <trkpt lat="43.88393" lon="5.78604">
        <ele>456</ele>
      </trkpt>
      <trkpt lat="43.88421" lon="5.78584">
        <ele>450</ele>
      </trkpt>
      <trkpt lat="43.88432" lon="5.78568">
        <ele>450</ele>
      </trkpt>
      <trkpt lat="43.88439" lon="5.78547">
        <ele>449</ele>
      </trkpt>
      <trkpt lat="43.88442" lon="5.78513">
        <ele>451</ele>
      </trkpt>
      <trkpt lat="43.88442" lon="5.78498">
        <ele>453</ele>
      </trkpt>
      <trkpt lat="43.88446" lon="5.7848">
        <ele>452</ele>
      </trkpt>
      <trkpt lat="43.88453" lon="5.78469">
        <ele>451</ele>
      </trkpt>
      <trkpt lat="43.88465" lon="5.78463">
        <ele>450</ele>
      </trkpt>
      <trkpt lat="43.88477" lon="5.78455">
        <ele>449</ele>
      </trkpt>
      <trkpt lat="43.88487" lon="5.78443">
        <ele>448</ele>
      </trkpt>
      <trkpt lat="43.88496" lon="5.78424">
        <ele>445</ele>
      </trkpt>
      <trkpt lat="43.88504" lon="5.78409">
        <ele>443</ele>
      </trkpt>
      <trkpt lat="43.88517" lon="5.78406">
        <ele>443</ele>
      </trkpt>
      <trkpt lat="43.88527" lon="5.78411">
        <ele>442</ele>
      </trkpt>
      <trkpt lat="43.88538" lon="5.78409">
        <ele>442</ele>
      </trkpt>
      <trkpt lat="43.88554" lon="5.78401">
        <ele>441</ele>
      </trkpt>
      <trkpt lat="43.88567" lon="5.78392">
        <ele>440</ele>
      </trkpt>
      <trkpt lat="43.8858" lon="5.7838">
        <ele>440</ele>
      </trkpt>
      <trkpt lat="43.88593" lon="5.78361">
        <ele>438</ele>
      </trkpt>
      <trkpt lat="43.88607" lon="5.78343">
        <ele>437</ele>
      </trkpt>
      <trkpt lat="43.8862" lon="5.78328">
        <ele>435</ele>
      </trkpt>
      <trkpt lat="43.88634" lon="5.78305">
        <ele>435</ele>
      </trkpt>
      <trkpt lat="43.88648" lon="5.78284">
        <ele>434</ele>
      </trkpt>
      <trkpt lat="43.88659" lon="5.78266">
        <ele>431</ele>
      </trkpt>
      <trkpt lat="43.88665" lon="5.78244">
        <ele>428</ele>
      </trkpt>
      <trkpt lat="43.8867" lon="5.78223">
        <ele>428</ele>
      </trkpt>
      <trkpt lat="43.88672" lon="5.78205">
        <ele>429</ele>
      </trkpt>
      <trkpt lat="43.88671" lon="5.78179">
        <ele>427</ele>
      </trkpt>
      <trkpt lat="43.88671" lon="5.78161">
        <ele>425</ele>
      </trkpt>
      <trkpt lat="43.88668" lon="5.78146">
        <ele>425</ele>
      </trkpt>
      <trkpt lat="43.88666" lon="5.78121">
        <ele>433</ele>
      </trkpt>
      <trkpt lat="43.88662" lon="5.78095">
        <ele>428</ele>
      </trkpt>
      <trkpt lat="43.88662" lon="5.78074">
        <ele>427</ele>
      </trkpt>
      <trkpt lat="43.88668" lon="5.78057">
        <ele>421</ele>
      </trkpt>
      <trkpt lat="43.88679" lon="5.78047">
        <ele>421</ele>
      </trkpt>
      <trkpt lat="43.88696" lon="5.78037">
        <ele>420</ele>
      </trkpt>
      <trkpt lat="43.88708" lon="5.78033">
        <ele>419</ele>
      </trkpt>
      <trkpt lat="43.88721" lon="5.78027">
        <ele>417</ele>
      </trkpt>
      <trkpt lat="43.88733" lon="5.78023">
        <ele>416</ele>
      </trkpt>
      <trkpt lat="43.88746" lon="5.78015">
        <ele>413</ele>
      </trkpt>
      <trkpt lat="43.88755" lon="5.77999">
        <ele>408</ele>
      </trkpt>
      <trkpt lat="43.88758" lon="5.77983">
        <ele>409</ele>
      </trkpt>
      <trkpt lat="43.88765" lon="5.77966">
        <ele>409</ele>
      </trkpt>
      <trkpt lat="43.88778" lon="5.7795">
        <ele>409</ele>
      </trkpt>
      <trkpt lat="43.88794" lon="5.77934">
        <ele>409</ele>
      </trkpt>
      <trkpt lat="43.88805" lon="5.77916">
        <ele>405</ele>
      </trkpt>
      <trkpt lat="43.88822" lon="5.77893">
        <ele>404</ele>
      </trkpt>
      <trkpt lat="43.88833" lon="5.7788">
        <ele>404</ele>
      </trkpt>
      <trkpt lat="43.88846" lon="5.77862">
        <ele>403</ele>
      </trkpt>
      <trkpt lat="43.88856" lon="5.77849">
        <ele>402</ele>
      </trkpt>
      <trkpt lat="43.88865" lon="5.77836">
        <ele>402</ele>
      </trkpt>
      <trkpt lat="43.8887" lon="5.77824">
        <ele>398</ele>
      </trkpt>
      <trkpt lat="43.88876" lon="5.7781">
        <ele>397</ele>
      </trkpt>
      <trkpt lat="43.88882" lon="5.77797">
        <ele>397</ele>
      </trkpt>
      <trkpt lat="43.88891" lon="5.77786">
        <ele>397</ele>
      </trkpt>
      <trkpt lat="43.88906" lon="5.77784">
        <ele>397</ele>
      </trkpt>
      <trkpt lat="43.88921" lon="5.77786">
        <ele>396</ele>
      </trkpt>
      <trkpt lat="43.88934" lon="5.77783">
        <ele>395</ele>
      </trkpt>
      <trkpt lat="43.88947" lon="5.77777">
        <ele>395</ele>
      </trkpt>
      <trkpt lat="43.88964" lon="5.77776">
        <ele>395</ele>
      </trkpt>
      <trkpt lat="43.88988" lon="5.77777">
        <ele>394</ele>
      </trkpt>
      <trkpt lat="43.89005" lon="5.77778">
        <ele>393</ele>
      </trkpt>
      <trkpt lat="43.89026" lon="5.77781">
        <ele>393</ele>
      </trkpt>
      <trkpt lat="43.89048" lon="5.77781">
        <ele>394</ele>
      </trkpt>
      <trkpt lat="43.89076" lon="5.77779">
        <ele>394</ele>
      </trkpt>
      <trkpt lat="43.89096" lon="5.7778">
        <ele>393</ele>
      </trkpt>
      <trkpt lat="43.89122" lon="5.77787">
        <ele>392</ele>
      </trkpt>
      <trkpt lat="43.89146" lon="5.77792">
        <ele>392</ele>
      </trkpt>
      <trkpt lat="43.89166" lon="5.77799">
        <ele>391</ele>
      </trkpt>
      <trkpt lat="43.89183" lon="5.77803">
        <ele>389</ele>
      </trkpt>
      <trkpt lat="43.89197" lon="5.77801">
        <ele>388</ele>
      </trkpt>
      <trkpt lat="43.89196" lon="5.77801">
        <ele>388</ele>
      </trkpt>
      <trkpt lat="43.89206" lon="5.77805">
        <ele>388</ele>
      </trkpt>
      <trkpt lat="43.89217" lon="5.77805">
        <ele>388</ele>
      </trkpt>
      <trkpt lat="43.89219" lon="5.77801">
        <ele>388</ele>
      </trkpt>
      <trkpt lat="43.89225" lon="5.77771">
        <ele>388</ele>
      </trkpt>
      <trkpt lat="43.89231" lon="5.77759">
        <ele>388</ele>
      </trkpt>
      <trkpt lat="43.89241" lon="5.7776">
        <ele>387</ele>
      </trkpt>
      <trkpt lat="43.89273" lon="5.77765">
        <ele>386</ele>
      </trkpt>
      <trkpt lat="43.89318" lon="5.77771">
        <ele>385</ele>
      </trkpt>
      <trkpt lat="43.89331" lon="5.77771">
        <ele>385</ele>
      </trkpt>
      <trkpt lat="43.89353" lon="5.77769">
        <ele>385</ele>
      </trkpt>
      <trkpt lat="43.89378" lon="5.77764">
        <ele>384</ele>
      </trkpt>
      <trkpt lat="43.894" lon="5.77756">
        <ele>384</ele>
      </trkpt>
      <trkpt lat="43.89418" lon="5.77744">
        <ele>385</ele>
      </trkpt>
      <trkpt lat="43.89435" lon="5.77723">
        <ele>386</ele>
      </trkpt>
      <trkpt lat="43.89464" lon="5.77674">
        <ele>388</ele>
      </trkpt>
      <trkpt lat="43.89482" lon="5.77632">
        <ele>387</ele>
      </trkpt>
      <trkpt lat="43.89487" lon="5.77606">
        <ele>387</ele>
      </trkpt>
      <trkpt lat="43.89489" lon="5.77598">
        <ele>386</ele>
      </trkpt>
      <trkpt lat="43.89506" lon="5.77573">
        <ele>387</ele>
      </trkpt>
      <trkpt lat="43.89524" lon="5.7756">
        <ele>387</ele>
      </trkpt>
      <trkpt lat="43.89544" lon="5.77552">
        <ele>388</ele>
      </trkpt>
      <trkpt lat="43.89576" lon="5.77549">
        <ele>389</ele>
      </trkpt>
      <trkpt lat="43.89615" lon="5.77541">
        <ele>393</ele>
      </trkpt>
      <trkpt lat="43.89648" lon="5.7753">
        <ele>394</ele>
      </trkpt>
      <trkpt lat="43.89677" lon="5.77515">
        <ele>396</ele>
      </trkpt>
      <trkpt lat="43.8971" lon="5.775">
        <ele>397</ele>
      </trkpt>
      <trkpt lat="43.89747" lon="5.77491">
        <ele>395</ele>
      </trkpt>
      <trkpt lat="43.89785" lon="5.77479">
        <ele>396</ele>
      </trkpt>
      <trkpt lat="43.89812" lon="5.77471">
        <ele>396</ele>
      </trkpt>
      <trkpt lat="43.89827" lon="5.77459">
        <ele>396</ele>
      </trkpt>
      <trkpt lat="43.89845" lon="5.77431">
        <ele>397</ele>
      </trkpt>
      <trkpt lat="43.89848" lon="5.77411">
        <ele>394</ele>
      </trkpt>
      <trkpt lat="43.89843" lon="5.77394">
        <ele>394</ele>
      </trkpt>
      <trkpt lat="43.89828" lon="5.77361">
        <ele>391</ele>
      </trkpt>
      <trkpt lat="43.89823" lon="5.77339">
        <ele>391</ele>
      </trkpt>
      <trkpt lat="43.89822" lon="5.77308">
        <ele>390</ele>
      </trkpt>
      <trkpt lat="43.89819" lon="5.77269">
        <ele>391</ele>
      </trkpt>
      <trkpt lat="43.89818" lon="5.77264">
        <ele>391</ele>
      </trkpt>
      <trkpt lat="43.89822" lon="5.77218">
        <ele>391</ele>
      </trkpt>
      <trkpt lat="43.89827" lon="5.77166">
        <ele>392</ele>
      </trkpt>
      <trkpt lat="43.89826" lon="5.77131">
        <ele>393</ele>
      </trkpt>
      <trkpt lat="43.89802" lon="5.77087">
        <ele>394</ele>
      </trkpt>
      <trkpt lat="43.89783" lon="5.7704">
        <ele>395</ele>
      </trkpt>
      <trkpt lat="43.89771" lon="5.77014">
        <ele>395</ele>
      </trkpt>
      <trkpt lat="43.89752" lon="5.76969">
        <ele>396</ele>
      </trkpt>
      <trkpt lat="43.89737" lon="5.76924">
        <ele>395</ele>
      </trkpt>
      <trkpt lat="43.89725" lon="5.7685">
        <ele>398</ele>
      </trkpt>
      <trkpt lat="43.89701" lon="5.76844">
        <ele>398</ele>
      </trkpt>
      <trkpt lat="43.89675" lon="5.7682">
        <ele>400</ele>
      </trkpt>
      <trkpt lat="43.8965" lon="5.76779">
        <ele>398</ele>
      </trkpt>
      <trkpt lat="43.89645" lon="5.76727">
        <ele>398</ele>
      </trkpt>
      <trkpt lat="43.89637" lon="5.7666">
        <ele>400</ele>
      </trkpt>
      <trkpt lat="43.89629" lon="5.76594">
        <ele>400</ele>
      </trkpt>
      <trkpt lat="43.89616" lon="5.7653">
        <ele>402</ele>
      </trkpt>
      <trkpt lat="43.89601" lon="5.76465">
        <ele>403</ele>
      </trkpt>
      <trkpt lat="43.89583" lon="5.76413">
        <ele>400</ele>
      </trkpt>
      <trkpt lat="43.89578" lon="5.7636">
        <ele>399</ele>
      </trkpt>
      <trkpt lat="43.89571" lon="5.76318">
        <ele>399</ele>
      </trkpt>
      <trkpt lat="43.89569" lon="5.76249">
        <ele>401</ele>
      </trkpt>
      <trkpt lat="43.89569" lon="5.76205">
        <ele>400</ele>
      </trkpt>
      <trkpt lat="43.89568" lon="5.76159">
        <ele>403</ele>
      </trkpt>
      <trkpt lat="43.89559" lon="5.76114">
        <ele>403</ele>
      </trkpt>
      <trkpt lat="43.89538" lon="5.76049">
        <ele>404</ele>
      </trkpt>
      <trkpt lat="43.8951" lon="5.75994">
        <ele>403</ele>
      </trkpt>
      <trkpt lat="43.89486" lon="5.7596">
        <ele>400</ele>
      </trkpt>
      <trkpt lat="43.89506" lon="5.75925">
        <ele>403</ele>
      </trkpt>
      <trkpt lat="43.89527" lon="5.75905">
        <ele>407</ele>
      </trkpt>
      <trkpt lat="43.89579" lon="5.75861">
        <ele>412</ele>
      </trkpt>
      <trkpt lat="43.89618" lon="5.75839">
        <ele>421</ele>
      </trkpt>
      <trkpt lat="43.89668" lon="5.75826">
        <ele>429</ele>
      </trkpt>
      <trkpt lat="43.897" lon="5.75827">
        <ele>433</ele>
      </trkpt>
      <trkpt lat="43.89738" lon="5.75828">
        <ele>436</ele>
      </trkpt>
      <trkpt lat="43.89763" lon="5.75825">
        <ele>438</ele>
      </trkpt>
      <trkpt lat="43.89784" lon="5.75819">
        <ele>439</ele>
      </trkpt>
      <trkpt lat="43.8981" lon="5.75811">
        <ele>439</ele>
      </trkpt>
      <trkpt lat="43.89843" lon="5.758">
        <ele>438</ele>
      </trkpt>
      <trkpt lat="43.89868" lon="5.75794">
        <ele>438</ele>
      </trkpt>
      <trkpt lat="43.89903" lon="5.75796">
        <ele>438</ele>
      </trkpt>
      <trkpt lat="43.89926" lon="5.75797">
        <ele>436</ele>
      </trkpt>
      <trkpt lat="43.89948" lon="5.75798">
        <ele>436</ele>
      </trkpt>
      <trkpt lat="43.89974" lon="5.75797">
        <ele>435</ele>
      </trkpt>
      <trkpt lat="43.89988" lon="5.75794">
        <ele>435</ele>
      </trkpt>
      <trkpt lat="43.89995" lon="5.75772">
        <ele>436</ele>
      </trkpt>
      <trkpt lat="43.89992" lon="5.75739">
        <ele>437</ele>
      </trkpt>
      <trkpt lat="43.89991" lon="5.75732">
        <ele>437</ele>
      </trkpt>
      <trkpt lat="43.89986" lon="5.75688">
        <ele>437</ele>
      </trkpt>
      <trkpt lat="43.89981" lon="5.75655">
        <ele>438</ele>
      </trkpt>
      <trkpt lat="43.89977" lon="5.75623">
        <ele>438</ele>
      </trkpt>
      <trkpt lat="43.89971" lon="5.75583">
        <ele>438</ele>
      </trkpt>
      <trkpt lat="43.89966" lon="5.75548">
        <ele>439</ele>
      </trkpt>
      <trkpt lat="43.89959" lon="5.75513">
        <ele>439</ele>
      </trkpt>
      <trkpt lat="43.89951" lon="5.75481">
        <ele>440</ele>
      </trkpt>
      <trkpt lat="43.89943" lon="5.75441">
        <ele>440</ele>
      </trkpt>
      <trkpt lat="43.89939" lon="5.75405">
        <ele>441</ele>
      </trkpt>
      <trkpt lat="43.89936" lon="5.75371">
        <ele>441</ele>
      </trkpt>
      <trkpt lat="43.89936" lon="5.75347">
        <ele>441</ele>
      </trkpt>
      <trkpt lat="43.89935" lon="5.75324">
        <ele>440</ele>
      </trkpt>
      <trkpt lat="43.89934" lon="5.753">
        <ele>440</ele>
      </trkpt>
      <trkpt lat="43.89935" lon="5.75278">
        <ele>439</ele>
      </trkpt>
      <trkpt lat="43.89933" lon="5.75258">
        <ele>439</ele>
      </trkpt>
      <trkpt lat="43.89934" lon="5.75243">
        <ele>437</ele>
      </trkpt>
      <trkpt lat="43.89934" lon="5.7524">
        <ele>437</ele>
      </trkpt>
      <trkpt lat="43.89929" lon="5.75227">
        <ele>437</ele>
      </trkpt>
      <trkpt lat="43.89926" lon="5.7521">
        <ele>436</ele>
      </trkpt>
      <trkpt lat="43.89921" lon="5.75193">
        <ele>436</ele>
      </trkpt>
      <trkpt lat="43.89912" lon="5.75169">
        <ele>434</ele>
      </trkpt>
      <trkpt lat="43.89901" lon="5.7513">
        <ele>431</ele>
      </trkpt>
      <trkpt lat="43.89889" lon="5.75078">
        <ele>429</ele>
      </trkpt>
      <trkpt lat="43.89868" lon="5.75022">
        <ele>429</ele>
      </trkpt>
      <trkpt lat="43.89845" lon="5.7496">
        <ele>431</ele>
      </trkpt>
      <trkpt lat="43.8984" lon="5.74939">
        <ele>432</ele>
      </trkpt>
      <trkpt lat="43.89833" lon="5.74898">
        <ele>433</ele>
      </trkpt>
      <trkpt lat="43.89837" lon="5.7487">
        <ele>435</ele>
      </trkpt>
      <trkpt lat="43.89838" lon="5.74834">
        <ele>435</ele>
      </trkpt>
      <trkpt lat="43.89828" lon="5.74785">
        <ele>436</ele>
      </trkpt>
      <trkpt lat="43.89816" lon="5.74753">
        <ele>436</ele>
      </trkpt>
      <trkpt lat="43.89803" lon="5.7471">
        <ele>439</ele>
      </trkpt>
      <trkpt lat="43.89781" lon="5.7466">
        <ele>442</ele>
      </trkpt>
      <trkpt lat="43.8976" lon="5.74589">
        <ele>444</ele>
      </trkpt>
      <trkpt lat="43.89749" lon="5.74552">
        <ele>444</ele>
      </trkpt>
      <trkpt lat="43.89734" lon="5.74488">
        <ele>447</ele>
      </trkpt>
      <trkpt lat="43.89717" lon="5.74424">
        <ele>449</ele>
      </trkpt>
      <trkpt lat="43.89705" lon="5.74365">
        <ele>453</ele>
      </trkpt>
      <trkpt lat="43.89695" lon="5.74327">
        <ele>456</ele>
      </trkpt>
      <trkpt lat="43.8968" lon="5.74268">
        <ele>457</ele>
      </trkpt>
      <trkpt lat="43.89669" lon="5.74215">
        <ele>458</ele>
      </trkpt>
      <trkpt lat="43.8965" lon="5.74153">
        <ele>459</ele>
      </trkpt>
      <trkpt lat="43.89646" lon="5.74143">
        <ele>459</ele>
      </trkpt>
      <trkpt lat="43.89639" lon="5.74127">
        <ele>459</ele>
      </trkpt>
      <trkpt lat="43.89633" lon="5.74112">
        <ele>459</ele>
      </trkpt>
      <trkpt lat="43.89631" lon="5.7411">
        <ele>459</ele>
      </trkpt>
      <trkpt lat="43.89631" lon="5.74111">
        <ele>459</ele>
      </trkpt>
      <trkpt lat="43.89627" lon="5.74093">
        <ele>459</ele>
      </trkpt>
      <trkpt lat="43.89625" lon="5.74078">
        <ele>459</ele>
      </trkpt>
      <trkpt lat="43.89633" lon="5.74043">
        <ele>459</ele>
      </trkpt>
      <trkpt lat="43.89669" lon="5.7399">
        <ele>462</ele>
      </trkpt>
      <trkpt lat="43.89684" lon="5.73967">
        <ele>464</ele>
      </trkpt>
      <trkpt lat="43.89712" lon="5.73917">
        <ele>465</ele>
      </trkpt>
      <trkpt lat="43.89725" lon="5.73892">
        <ele>467</ele>
      </trkpt>
      <trkpt lat="43.89766" lon="5.73838">
        <ele>470</ele>
      </trkpt>
      <trkpt lat="43.89775" lon="5.73824">
        <ele>471</ele>
      </trkpt>
      <trkpt lat="43.89798" lon="5.73785">
        <ele>472</ele>
      </trkpt>
      <trkpt lat="43.89805" lon="5.73777">
        <ele>472</ele>
      </trkpt>
      <trkpt lat="43.89811" lon="5.7376">
        <ele>473</ele>
      </trkpt>
      <trkpt lat="43.89822" lon="5.73724">
        <ele>474</ele>
      </trkpt>
      <trkpt lat="43.89865" lon="5.73661">
        <ele>480</ele>
      </trkpt>
      <trkpt lat="43.89877" lon="5.73636">
        <ele>481</ele>
      </trkpt>
      <trkpt lat="43.89919" lon="5.73565">
        <ele>487</ele>
      </trkpt>
      <trkpt lat="43.89933" lon="5.73542">
        <ele>488</ele>
      </trkpt>
      <trkpt lat="43.89955" lon="5.73509">
        <ele>489</ele>
      </trkpt>
      <trkpt lat="43.89999" lon="5.73429">
        <ele>494</ele>
      </trkpt>
      <trkpt lat="43.90005" lon="5.73418">
        <ele>495</ele>
      </trkpt>
      <trkpt lat="43.90042" lon="5.73357">
        <ele>500</ele>
      </trkpt>
      <trkpt lat="43.90076" lon="5.73302">
        <ele>506</ele>
      </trkpt>
      <trkpt lat="43.90096" lon="5.73268">
        <ele>509</ele>
      </trkpt>
      <trkpt lat="43.90108" lon="5.73233">
        <ele>512</ele>
      </trkpt>
      <trkpt lat="43.9012" lon="5.73203">
        <ele>513</ele>
      </trkpt>
      <trkpt lat="43.90129" lon="5.73183">
        <ele>513</ele>
      </trkpt>
      <trkpt lat="43.90132" lon="5.73171">
        <ele>513</ele>
      </trkpt>
      <trkpt lat="43.90128" lon="5.73153">
        <ele>515</ele>
      </trkpt>
      <trkpt lat="43.90117" lon="5.73152">
        <ele>515</ele>
      </trkpt>
      <trkpt lat="43.90083" lon="5.73136">
        <ele>515</ele>
      </trkpt>
      <trkpt lat="43.90075" lon="5.73129">
        <ele>515</ele>
      </trkpt>
      <trkpt lat="43.90057" lon="5.73106">
        <ele>516</ele>
      </trkpt>
      <trkpt lat="43.90038" lon="5.73068">
        <ele>520</ele>
      </trkpt>
      <trkpt lat="43.90023" lon="5.73044">
        <ele>520</ele>
      </trkpt>
      <trkpt lat="43.90011" lon="5.73025">
        <ele>521</ele>
      </trkpt>
      <trkpt lat="43.89996" lon="5.73007">
        <ele>521</ele>
      </trkpt>
      <trkpt lat="43.8998" lon="5.72991">
        <ele>522</ele>
      </trkpt>
      <trkpt lat="43.89963" lon="5.72974">
        <ele>521</ele>
      </trkpt>
      <trkpt lat="43.89946" lon="5.72958">
        <ele>521</ele>
      </trkpt>
      <trkpt lat="43.89927" lon="5.7294">
        <ele>521</ele>
      </trkpt>
      <trkpt lat="43.89908" lon="5.72918">
        <ele>520</ele>
      </trkpt>
      <trkpt lat="43.89896" lon="5.72906">
        <ele>521</ele>
      </trkpt>
      <trkpt lat="43.89882" lon="5.72894">
        <ele>521</ele>
      </trkpt>
      <trkpt lat="43.89867" lon="5.72879">
        <ele>521</ele>
      </trkpt>
      <trkpt lat="43.89849" lon="5.72863">
        <ele>521</ele>
      </trkpt>
      <trkpt lat="43.89838" lon="5.72853">
        <ele>521</ele>
      </trkpt>
      <trkpt lat="43.89827" lon="5.72844">
        <ele>520</ele>
      </trkpt>
      <trkpt lat="43.89823" lon="5.72835">
        <ele>521</ele>
      </trkpt>
      <trkpt lat="43.89824" lon="5.72832">
        <ele>522</ele>
      </trkpt>
      <trkpt lat="43.89824" lon="5.72832">
        <ele>522</ele>
      </trkpt>
      <trkpt lat="43.89826" lon="5.72832">
        <ele>522</ele>
      </trkpt>
      <trkpt lat="43.89829" lon="5.72832">
        <ele>522</ele>
      </trkpt>
      <trkpt lat="43.8984" lon="5.72818">
        <ele>523</ele>
      </trkpt>
      <trkpt lat="43.89844" lon="5.72797">
        <ele>524</ele>
      </trkpt>
      <trkpt lat="43.89857" lon="5.72759">
        <ele>525</ele>
      </trkpt>
      <trkpt lat="43.8986" lon="5.72752">
        <ele>525</ele>
      </trkpt>
      <trkpt lat="43.89868" lon="5.72734">
        <ele>528</ele>
      </trkpt>
      <trkpt lat="43.89883" lon="5.72709">
        <ele>529</ele>
      </trkpt>
      <trkpt lat="43.89898" lon="5.72675">
        <ele>531</ele>
      </trkpt>
      <trkpt lat="43.8991" lon="5.7265">
        <ele>533</ele>
      </trkpt>
      <trkpt lat="43.89923" lon="5.72639">
        <ele>536</ele>
      </trkpt>
      <trkpt lat="43.8993" lon="5.72633">
        <ele>536</ele>
      </trkpt>
      <trkpt lat="43.89942" lon="5.72607">
        <ele>537</ele>
      </trkpt>
      <trkpt lat="43.89959" lon="5.72592">
        <ele>537</ele>
      </trkpt>
      <trkpt lat="43.89979" lon="5.72564">
        <ele>540</ele>
      </trkpt>
      <trkpt lat="43.89983" lon="5.72556">
        <ele>540</ele>
      </trkpt>
      <trkpt lat="43.89982" lon="5.7253">
        <ele>541</ele>
      </trkpt>
      <trkpt lat="43.89981" lon="5.72503">
        <ele>542</ele>
      </trkpt>
      <trkpt lat="43.89979" lon="5.72453">
        <ele>546</ele>
      </trkpt>
      <trkpt lat="43.89979" lon="5.72446">
        <ele>546</ele>
      </trkpt>
      <trkpt lat="43.89983" lon="5.72425">
        <ele>547</ele>
      </trkpt>
      <trkpt lat="43.89988" lon="5.72401">
        <ele>549</ele>
      </trkpt>
      <trkpt lat="43.89998" lon="5.7238">
        <ele>549</ele>
      </trkpt>
      <trkpt lat="43.90008" lon="5.72341">
        <ele>552</ele>
      </trkpt>
      <trkpt lat="43.90011" lon="5.72303">
        <ele>554</ele>
      </trkpt>
      <trkpt lat="43.90011" lon="5.72295">
        <ele>554</ele>
      </trkpt>
      <trkpt lat="43.90022" lon="5.72267">
        <ele>554</ele>
      </trkpt>
      <trkpt lat="43.90038" lon="5.7225">
        <ele>557</ele>
      </trkpt>
      <trkpt lat="43.90048" lon="5.72237">
        <ele>557</ele>
      </trkpt>
      <trkpt lat="43.90071" lon="5.72211">
        <ele>558</ele>
      </trkpt>
      <trkpt lat="43.90101" lon="5.72189">
        <ele>554</ele>
      </trkpt>
      <trkpt lat="43.90109" lon="5.72183">
        <ele>553</ele>
      </trkpt>
      <trkpt lat="43.90118" lon="5.72163">
        <ele>556</ele>
      </trkpt>
      <trkpt lat="43.90119" lon="5.72151">
        <ele>556</ele>
      </trkpt>
      <trkpt lat="43.90121" lon="5.72141">
        <ele>556</ele>
      </trkpt>
      <trkpt lat="43.90127" lon="5.72108">
        <ele>557</ele>
      </trkpt>
      <trkpt lat="43.90131" lon="5.72081">
        <ele>560</ele>
      </trkpt>
      <trkpt lat="43.90134" lon="5.72064">
        <ele>560</ele>
      </trkpt>
      <trkpt lat="43.90137" lon="5.7204">
        <ele>560</ele>
      </trkpt>
      <trkpt lat="43.90139" lon="5.71991">
        <ele>559</ele>
      </trkpt>
      <trkpt lat="43.90135" lon="5.71947">
        <ele>559</ele>
      </trkpt>
      <trkpt lat="43.90129" lon="5.71913">
        <ele>560</ele>
      </trkpt>
      <trkpt lat="43.90125" lon="5.71884">
        <ele>561</ele>
      </trkpt>
      <trkpt lat="43.90124" lon="5.71875">
        <ele>561</ele>
      </trkpt>
      <trkpt lat="43.90123" lon="5.71871">
        <ele>561</ele>
      </trkpt>
      <trkpt lat="43.90122" lon="5.7185">
        <ele>561</ele>
      </trkpt>
      <trkpt lat="43.90118" lon="5.71821">
        <ele>559</ele>
      </trkpt>
      <trkpt lat="43.90119" lon="5.71796">
        <ele>557</ele>
      </trkpt>
      <trkpt lat="43.90128" lon="5.71768">
        <ele>555</ele>
      </trkpt>
      <trkpt lat="43.90141" lon="5.7174">
        <ele>550</ele>
      </trkpt>
      <trkpt lat="43.90161" lon="5.71717">
        <ele>549</ele>
      </trkpt>
      <trkpt lat="43.90178" lon="5.71699">
        <ele>548</ele>
      </trkpt>
      <trkpt lat="43.90187" lon="5.71674">
        <ele>548</ele>
      </trkpt>
      <trkpt lat="43.90192" lon="5.71649">
        <ele>547</ele>
      </trkpt>
      <trkpt lat="43.90197" lon="5.71626">
        <ele>547</ele>
      </trkpt>
      <trkpt lat="43.90207" lon="5.71601">
        <ele>546</ele>
      </trkpt>
      <trkpt lat="43.90218" lon="5.71583">
        <ele>545</ele>
      </trkpt>
      <trkpt lat="43.90237" lon="5.71572">
        <ele>545</ele>
      </trkpt>
      <trkpt lat="43.90243" lon="5.71571">
        <ele>545</ele>
      </trkpt>
      <trkpt lat="43.90284" lon="5.71563">
        <ele>546</ele>
      </trkpt>
      <trkpt lat="43.90329" lon="5.71549">
        <ele>547</ele>
      </trkpt>
      <trkpt lat="43.90333" lon="5.71547">
        <ele>547</ele>
      </trkpt>
      <trkpt lat="43.90369" lon="5.71517">
        <ele>548</ele>
      </trkpt>
      <trkpt lat="43.90376" lon="5.71508">
        <ele>548</ele>
      </trkpt>
      <trkpt lat="43.90395" lon="5.71479">
        <ele>549</ele>
      </trkpt>
      <trkpt lat="43.9041" lon="5.71455">
        <ele>550</ele>
      </trkpt>
      <trkpt lat="43.9042" lon="5.71435">
        <ele>550</ele>
      </trkpt>
      <trkpt lat="43.90428" lon="5.71418">
        <ele>551</ele>
      </trkpt>
      <trkpt lat="43.90437" lon="5.714">
        <ele>551</ele>
      </trkpt>
      <trkpt lat="43.90445" lon="5.71385">
        <ele>551</ele>
      </trkpt>
      <trkpt lat="43.90454" lon="5.71375">
        <ele>551</ele>
      </trkpt>
      <trkpt lat="43.90477" lon="5.71374">
        <ele>551</ele>
      </trkpt>
      <trkpt lat="43.90497" lon="5.71379">
        <ele>551</ele>
      </trkpt>
      <trkpt lat="43.90519" lon="5.71388">
        <ele>549</ele>
      </trkpt>
      <trkpt lat="43.90546" lon="5.714">
        <ele>548</ele>
      </trkpt>
      <trkpt lat="43.90571" lon="5.71411">
        <ele>547</ele>
      </trkpt>
      <trkpt lat="43.90599" lon="5.71432">
        <ele>543</ele>
      </trkpt>
      <trkpt lat="43.90606" lon="5.7144">
        <ele>542</ele>
      </trkpt>
      <trkpt lat="43.90633" lon="5.71475">
        <ele>541</ele>
      </trkpt>
      <trkpt lat="43.90665" lon="5.71504">
        <ele>540</ele>
      </trkpt>
      <trkpt lat="43.90707" lon="5.71539">
        <ele>543</ele>
      </trkpt>
      <trkpt lat="43.90739" lon="5.71566">
        <ele>544</ele>
      </trkpt>
      <trkpt lat="43.90779" lon="5.71602">
        <ele>550</ele>
      </trkpt>
      <trkpt lat="43.90819" lon="5.71636">
        <ele>553</ele>
      </trkpt>
      <trkpt lat="43.90825" lon="5.7164">
        <ele>553</ele>
      </trkpt>
      <trkpt lat="43.90849" lon="5.71644">
        <ele>559</ele>
      </trkpt>
      <trkpt lat="43.90858" lon="5.71641">
        <ele>559</ele>
      </trkpt>
      <trkpt lat="43.90865" lon="5.71637">
        <ele>560</ele>
      </trkpt>
      <trkpt lat="43.90873" lon="5.71633">
        <ele>560</ele>
      </trkpt>
      <trkpt lat="43.90873" lon="5.71631">
        <ele>560</ele>
      </trkpt>
      <trkpt lat="43.90874" lon="5.7163">
        <ele>560</ele>
      </trkpt>
      <trkpt lat="43.90878" lon="5.71627">
        <ele>560</ele>
      </trkpt>
      <trkpt lat="43.90881" lon="5.71625">
        <ele>560</ele>
      </trkpt>
      <trkpt lat="43.90892" lon="5.7162">
        <ele>561</ele>
      </trkpt>
      <trkpt lat="43.9091" lon="5.71611">
        <ele>562</ele>
      </trkpt>
      <trkpt lat="43.90933" lon="5.71603">
        <ele>566</ele>
      </trkpt>
      <trkpt lat="43.90953" lon="5.71595">
        <ele>567</ele>
      </trkpt>
      <trkpt lat="43.90977" lon="5.7158">
        <ele>570</ele>
      </trkpt>
      <trkpt lat="43.91001" lon="5.71564">
        <ele>574</ele>
      </trkpt>
      <trkpt lat="43.91009" lon="5.71559">
        <ele>574</ele>
      </trkpt>
      <trkpt lat="43.91034" lon="5.71566">
        <ele>574</ele>
      </trkpt>
      <trkpt lat="43.91054" lon="5.71567">
        <ele>574</ele>
      </trkpt>
      <trkpt lat="43.91076" lon="5.71586">
        <ele>570</ele>
      </trkpt>
      <trkpt lat="43.91103" lon="5.71615">
        <ele>564</ele>
      </trkpt>
      <trkpt lat="43.91114" lon="5.71623">
        <ele>563</ele>
      </trkpt>
      <trkpt lat="43.91129" lon="5.71634">
        <ele>562</ele>
      </trkpt>
      <trkpt lat="43.91144" lon="5.71639">
        <ele>561</ele>
      </trkpt>
      <trkpt lat="43.91163" lon="5.71641">
        <ele>560</ele>
      </trkpt>
      <trkpt lat="43.91191" lon="5.71644">
        <ele>557</ele>
      </trkpt>
      <trkpt lat="43.91213" lon="5.71643">
        <ele>556</ele>
      </trkpt>
      <trkpt lat="43.91235" lon="5.7164">
        <ele>555</ele>
      </trkpt>
      <trkpt lat="43.91253" lon="5.71637">
        <ele>551</ele>
      </trkpt>
      <trkpt lat="43.91268" lon="5.71634">
        <ele>550</ele>
      </trkpt>
      <trkpt lat="43.91284" lon="5.71631">
        <ele>550</ele>
      </trkpt>
      <trkpt lat="43.91306" lon="5.71626">
        <ele>549</ele>
      </trkpt>
      <trkpt lat="43.91326" lon="5.71625">
        <ele>549</ele>
      </trkpt>
      <trkpt lat="43.91351" lon="5.71632">
        <ele>544</ele>
      </trkpt>
      <trkpt lat="43.91368" lon="5.71642">
        <ele>543</ele>
      </trkpt>
      <trkpt lat="43.91389" lon="5.71659">
        <ele>542</ele>
      </trkpt>
      <trkpt lat="43.91411" lon="5.71676">
        <ele>539</ele>
      </trkpt>
      <trkpt lat="43.91436" lon="5.71687">
        <ele>537</ele>
      </trkpt>
      <trkpt lat="43.91467" lon="5.71701">
        <ele>536</ele>
      </trkpt>
      <trkpt lat="43.9149" lon="5.71712">
        <ele>536</ele>
      </trkpt>
      <trkpt lat="43.91511" lon="5.71721">
        <ele>534</ele>
      </trkpt>
      <trkpt lat="43.91538" lon="5.71729">
        <ele>534</ele>
      </trkpt>
      <trkpt lat="43.91557" lon="5.71736">
        <ele>533</ele>
      </trkpt>
      <trkpt lat="43.91582" lon="5.71748">
        <ele>531</ele>
      </trkpt>
      <trkpt lat="43.91612" lon="5.71751">
        <ele>529</ele>
      </trkpt>
      <trkpt lat="43.91626" lon="5.71749">
        <ele>531</ele>
      </trkpt>
      <trkpt lat="43.91656" lon="5.71752">
        <ele>528</ele>
      </trkpt>
      <trkpt lat="43.91699" lon="5.71773">
        <ele>529</ele>
      </trkpt>
      <trkpt lat="43.91732" lon="5.71795">
        <ele>530</ele>
      </trkpt>
      <trkpt lat="43.91756" lon="5.7181">
        <ele>533</ele>
      </trkpt>
      <trkpt lat="43.91773" lon="5.71823">
        <ele>533</ele>
      </trkpt>
      <trkpt lat="43.91786" lon="5.71827">
        <ele>534</ele>
      </trkpt>
      <trkpt lat="43.91793" lon="5.71824">
        <ele>534</ele>
      </trkpt>
      <trkpt lat="43.91823" lon="5.71831">
        <ele>536</ele>
      </trkpt>
      <trkpt lat="43.91843" lon="5.71839">
        <ele>538</ele>
      </trkpt>
      <trkpt lat="43.91866" lon="5.71845">
        <ele>538</ele>
      </trkpt>
      <trkpt lat="43.9189" lon="5.71852">
        <ele>539</ele>
      </trkpt>
      <trkpt lat="43.91918" lon="5.7186">
        <ele>542</ele>
      </trkpt>
      <trkpt lat="43.91949" lon="5.71869">
        <ele>543</ele>
      </trkpt>
      <trkpt lat="43.91977" lon="5.71878">
        <ele>543</ele>
      </trkpt>
      <trkpt lat="43.92014" lon="5.71883">
        <ele>546</ele>
      </trkpt>
      <trkpt lat="43.92048" lon="5.71892">
        <ele>547</ele>
      </trkpt>
      <trkpt lat="43.92109" lon="5.71893">
        <ele>549</ele>
      </trkpt>
      <trkpt lat="43.92109" lon="5.71891">
        <ele>550</ele>
      </trkpt>
      <trkpt lat="43.92113" lon="5.71891">
        <ele>550</ele>
      </trkpt>
      <trkpt lat="43.9213" lon="5.71892">
        <ele>550</ele>
      </trkpt>
      <trkpt lat="43.92137" lon="5.71899">
        <ele>550</ele>
      </trkpt>
      <trkpt lat="43.92139" lon="5.71901">
        <ele>550</ele>
      </trkpt>
      <trkpt lat="43.92146" lon="5.71915">
        <ele>550</ele>
      </trkpt>
      <trkpt lat="43.9216" lon="5.71942">
        <ele>550</ele>
      </trkpt>
      <trkpt lat="43.92185" lon="5.72">
        <ele>552</ele>
      </trkpt>
      <trkpt lat="43.92198" lon="5.7204">
        <ele>554</ele>
      </trkpt>
      <trkpt lat="43.92208" lon="5.72093">
        <ele>560</ele>
      </trkpt>
      <trkpt lat="43.92212" lon="5.72106">
        <ele>561</ele>
      </trkpt>
      <trkpt lat="43.92223" lon="5.72124">
        <ele>562</ele>
      </trkpt>
      <trkpt lat="43.92239" lon="5.7213">
        <ele>563</ele>
      </trkpt>
      <trkpt lat="43.92278" lon="5.72131">
        <ele>566</ele>
      </trkpt>
      <trkpt lat="43.92296" lon="5.72129">
        <ele>567</ele>
      </trkpt>
      <trkpt lat="43.92304" lon="5.72129">
        <ele>567</ele>
      </trkpt>
      <trkpt lat="43.92322" lon="5.72135">
        <ele>568</ele>
      </trkpt>
      <trkpt lat="43.92335" lon="5.7217">
        <ele>575</ele>
      </trkpt>
      <trkpt lat="43.9235" lon="5.7219">
        <ele>578</ele>
      </trkpt>
      <trkpt lat="43.92365" lon="5.72197">
        <ele>580</ele>
      </trkpt>
      <trkpt lat="43.92378" lon="5.72197">
        <ele>580</ele>
      </trkpt>
      <trkpt lat="43.92414" lon="5.72188">
        <ele>580</ele>
      </trkpt>
      <trkpt lat="43.92449" lon="5.72189">
        <ele>583</ele>
      </trkpt>
      <trkpt lat="43.92472" lon="5.72196">
        <ele>584</ele>
      </trkpt>
      <trkpt lat="43.92499" lon="5.72207">
        <ele>585</ele>
      </trkpt>
      <trkpt lat="43.92521" lon="5.72221">
        <ele>586</ele>
      </trkpt>
      <trkpt lat="43.92527" lon="5.72224">
        <ele>586</ele>
      </trkpt>
      <trkpt lat="43.92532" lon="5.72228">
        <ele>586</ele>
      </trkpt>
      <trkpt lat="43.92546" lon="5.72236">
        <ele>586</ele>
      </trkpt>
      <trkpt lat="43.92556" lon="5.72241">
        <ele>585</ele>
      </trkpt>
      <trkpt lat="43.92585" lon="5.72254">
        <ele>583</ele>
      </trkpt>
      <trkpt lat="43.926" lon="5.72252">
        <ele>580</ele>
      </trkpt>
      <trkpt lat="43.92623" lon="5.7224">
        <ele>584</ele>
      </trkpt>
      <trkpt lat="43.92645" lon="5.72228">
        <ele>584</ele>
      </trkpt>
      <trkpt lat="43.92659" lon="5.72218">
        <ele>584</ele>
      </trkpt>
      <trkpt lat="43.92681" lon="5.72208">
        <ele>583</ele>
      </trkpt>
      <trkpt lat="43.92707" lon="5.72197">
        <ele>583</ele>
      </trkpt>
      <trkpt lat="43.92731" lon="5.72189">
        <ele>583</ele>
      </trkpt>
      <trkpt lat="43.92759" lon="5.72181">
        <ele>582</ele>
      </trkpt>
      <trkpt lat="43.92775" lon="5.72179">
        <ele>582</ele>
      </trkpt>
      <trkpt lat="43.92785" lon="5.7218">
        <ele>582</ele>
      </trkpt>
      <trkpt lat="43.92787" lon="5.72179">
        <ele>582</ele>
      </trkpt>
      <trkpt lat="43.9279" lon="5.72178">
        <ele>582</ele>
      </trkpt>
      <trkpt lat="43.92793" lon="5.7218">
        <ele>582</ele>
      </trkpt>
      <trkpt lat="43.92799" lon="5.72181">
        <ele>582</ele>
      </trkpt>
      <trkpt lat="43.92805" lon="5.72185">
        <ele>582</ele>
      </trkpt>
      <trkpt lat="43.9281" lon="5.72189">
        <ele>582</ele>
      </trkpt>
      <trkpt lat="43.92814" lon="5.72193">
        <ele>582</ele>
      </trkpt>
      <trkpt lat="43.92817" lon="5.72196">
        <ele>581</ele>
      </trkpt>
      <trkpt lat="43.92821" lon="5.72202">
        <ele>581</ele>
      </trkpt>
      <trkpt lat="43.92822" lon="5.72205">
        <ele>581</ele>
      </trkpt>
      <trkpt lat="43.92825" lon="5.7221">
        <ele>580</ele>
      </trkpt>
      <trkpt lat="43.92828" lon="5.72215">
        <ele>580</ele>
      </trkpt>
      <trkpt lat="43.92831" lon="5.72221">
        <ele>579</ele>
      </trkpt>
      <trkpt lat="43.92833" lon="5.72225">
        <ele>578</ele>
      </trkpt>
      <trkpt lat="43.92837" lon="5.72233">
        <ele>578</ele>
      </trkpt>
      <trkpt lat="43.9284" lon="5.72242">
        <ele>577</ele>
      </trkpt>
      <trkpt lat="43.92847" lon="5.72256">
        <ele>573</ele>
      </trkpt>
      <trkpt lat="43.92854" lon="5.72274">
        <ele>572</ele>
      </trkpt>
      <trkpt lat="43.9286" lon="5.7229">
        <ele>571</ele>
      </trkpt>
      <trkpt lat="43.92867" lon="5.7231">
        <ele>570</ele>
      </trkpt>
      <trkpt lat="43.9287" lon="5.72322">
        <ele>570</ele>
      </trkpt>
      <trkpt lat="43.92874" lon="5.7233">
        <ele>569</ele>
      </trkpt>
      <trkpt lat="43.92878" lon="5.72347">
        <ele>565</ele>
      </trkpt>
      <trkpt lat="43.9288" lon="5.72368">
        <ele>565</ele>
      </trkpt>
      <trkpt lat="43.92879" lon="5.72381">
        <ele>564</ele>
      </trkpt>
      <trkpt lat="43.92881" lon="5.72396">
        <ele>564</ele>
      </trkpt>
      <trkpt lat="43.92881" lon="5.72409">
        <ele>563</ele>
      </trkpt>
      <trkpt lat="43.92883" lon="5.7242">
        <ele>560</ele>
      </trkpt>
      <trkpt lat="43.92881" lon="5.72431">
        <ele>559</ele>
      </trkpt>
      <trkpt lat="43.9288" lon="5.72448">
        <ele>559</ele>
      </trkpt>
      <trkpt lat="43.92878" lon="5.72462">
        <ele>558</ele>
      </trkpt>
      <trkpt lat="43.92875" lon="5.72479">
        <ele>557</ele>
      </trkpt>
      <trkpt lat="43.92872" lon="5.72495">
        <ele>557</ele>
      </trkpt>
      <trkpt lat="43.9287" lon="5.72509">
        <ele>551</ele>
      </trkpt>
      <trkpt lat="43.92867" lon="5.72513">
        <ele>551</ele>
      </trkpt>
      <trkpt lat="43.92863" lon="5.72524">
        <ele>550</ele>
      </trkpt>
      <trkpt lat="43.92864" lon="5.72544">
        <ele>549</ele>
      </trkpt>
      <trkpt lat="43.92864" lon="5.72564">
        <ele>548</ele>
      </trkpt>
      <trkpt lat="43.92863" lon="5.7258">
        <ele>547</ele>
      </trkpt>
      <trkpt lat="43.92863" lon="5.72598">
        <ele>541</ele>
      </trkpt>
      <trkpt lat="43.92863" lon="5.72613">
        <ele>540</ele>
      </trkpt>
      <trkpt lat="43.92862" lon="5.72626">
        <ele>539</ele>
      </trkpt>
      <trkpt lat="43.92861" lon="5.72642">
        <ele>538</ele>
      </trkpt>
      <trkpt lat="43.92862" lon="5.72654">
        <ele>538</ele>
      </trkpt>
      <trkpt lat="43.92865" lon="5.72667">
        <ele>532</ele>
      </trkpt>
      <trkpt lat="43.92865" lon="5.72671">
        <ele>532</ele>
      </trkpt>
      <trkpt lat="43.92865" lon="5.72686">
        <ele>532</ele>
      </trkpt>
      <trkpt lat="43.9286" lon="5.72705">
        <ele>531</ele>
      </trkpt>
      <trkpt lat="43.92858" lon="5.72713">
        <ele>531</ele>
      </trkpt>
      <trkpt lat="43.92859" lon="5.72726">
        <ele>530</ele>
      </trkpt>
      <trkpt lat="43.92855" lon="5.72741">
        <ele>529</ele>
      </trkpt>
      <trkpt lat="43.92849" lon="5.72751">
        <ele>524</ele>
      </trkpt>
      <trkpt lat="43.9284" lon="5.7276">
        <ele>524</ele>
      </trkpt>
      <trkpt lat="43.92834" lon="5.72775">
        <ele>523</ele>
      </trkpt>
      <trkpt lat="43.92835" lon="5.72786">
        <ele>523</ele>
      </trkpt>
      <trkpt lat="43.92836" lon="5.72804">
        <ele>521</ele>
      </trkpt>
      <trkpt lat="43.92836" lon="5.72819">
        <ele>520</ele>
      </trkpt>
      <trkpt lat="43.92836" lon="5.72832">
        <ele>519</ele>
      </trkpt>
      <trkpt lat="43.9284" lon="5.72848">
        <ele>516</ele>
      </trkpt>
      <trkpt lat="43.92842" lon="5.72865">
        <ele>515</ele>
      </trkpt>
      <trkpt lat="43.92842" lon="5.72877">
        <ele>514</ele>
      </trkpt>
      <trkpt lat="43.92844" lon="5.72891">
        <ele>513</ele>
      </trkpt>
      <trkpt lat="43.92845" lon="5.72901">
        <ele>512</ele>
      </trkpt>
      <trkpt lat="43.92846" lon="5.72912">
        <ele>512</ele>
      </trkpt>
      <trkpt lat="43.92849" lon="5.72926">
        <ele>509</ele>
      </trkpt>
      <trkpt lat="43.92848" lon="5.7293">
        <ele>509</ele>
      </trkpt>
      <trkpt lat="43.92846" lon="5.72941">
        <ele>509</ele>
      </trkpt>
      <trkpt lat="43.92844" lon="5.72952">
        <ele>508</ele>
      </trkpt>
      <trkpt lat="43.92844" lon="5.72964">
        <ele>508</ele>
      </trkpt>
      <trkpt lat="43.92842" lon="5.72974">
        <ele>507</ele>
      </trkpt>
      <trkpt lat="43.9284" lon="5.72986">
        <ele>506</ele>
      </trkpt>
      <trkpt lat="43.92838" lon="5.72996">
        <ele>506</ele>
      </trkpt>
      <trkpt lat="43.92838" lon="5.72999">
        <ele>506</ele>
      </trkpt>
      <trkpt lat="43.92839" lon="5.73016">
        <ele>505</ele>
      </trkpt>
      <trkpt lat="43.92838" lon="5.7303">
        <ele>505</ele>
      </trkpt>
      <trkpt lat="43.92841" lon="5.73047">
        <ele>504</ele>
      </trkpt>
      <trkpt lat="43.92852" lon="5.73062">
        <ele>504</ele>
      </trkpt>
      <trkpt lat="43.92855" lon="5.73064">
        <ele>504</ele>
      </trkpt>
      <trkpt lat="43.92862" lon="5.73079">
        <ele>504</ele>
      </trkpt>
      <trkpt lat="43.92866" lon="5.73091">
        <ele>506</ele>
      </trkpt>
      <trkpt lat="43.92864" lon="5.73105">
        <ele>507</ele>
      </trkpt>
      <trkpt lat="43.92864" lon="5.73119">
        <ele>507</ele>
      </trkpt>
      <trkpt lat="43.92862" lon="5.73137">
        <ele>508</ele>
      </trkpt>
      <trkpt lat="43.92858" lon="5.73154">
        <ele>508</ele>
      </trkpt>
      <trkpt lat="43.92857" lon="5.73155">
        <ele>508</ele>
      </trkpt>
      <trkpt lat="43.92848" lon="5.73167">
        <ele>510</ele>
      </trkpt>
      <trkpt lat="43.92841" lon="5.73177">
        <ele>510</ele>
      </trkpt>
      <trkpt lat="43.92841" lon="5.7318">
        <ele>510</ele>
      </trkpt>
      <trkpt lat="43.92842" lon="5.73183">
        <ele>511</ele>
      </trkpt>
      <trkpt lat="43.92842" lon="5.73206">
        <ele>513</ele>
      </trkpt>
      <trkpt lat="43.92844" lon="5.73216">
        <ele>514</ele>
      </trkpt>
      <trkpt lat="43.92848" lon="5.7322">
        <ele>514</ele>
      </trkpt>
      <trkpt lat="43.92855" lon="5.73223">
        <ele>514</ele>
      </trkpt>
      <trkpt lat="43.9287" lon="5.73226">
        <ele>515</ele>
      </trkpt>
      <trkpt lat="43.9291" lon="5.7323">
        <ele>519</ele>
      </trkpt>
      <trkpt lat="43.9292" lon="5.73229">
        <ele>525</ele>
      </trkpt>
      <trkpt lat="43.92939" lon="5.73215">
        <ele>525</ele>
      </trkpt>
      <trkpt lat="43.92961" lon="5.73211">
        <ele>526</ele>
      </trkpt>
      <trkpt lat="43.92969" lon="5.73211">
        <ele>527</ele>
      </trkpt>
      <trkpt lat="43.93008" lon="5.73209">
        <ele>534</ele>
      </trkpt>
      <trkpt lat="43.9302" lon="5.73205">
        <ele>535</ele>
      </trkpt>
      <trkpt lat="43.93032" lon="5.73204">
        <ele>535</ele>
      </trkpt>
      <trkpt lat="43.93044" lon="5.73205">
        <ele>536</ele>
      </trkpt>
      <trkpt lat="43.93068" lon="5.73204">
        <ele>538</ele>
      </trkpt>
      <trkpt lat="43.93084" lon="5.732">
        <ele>545</ele>
      </trkpt>
      <trkpt lat="43.93131" lon="5.73191">
        <ele>547</ele>
      </trkpt>
      <trkpt lat="43.93152" lon="5.73183">
        <ele>547</ele>
      </trkpt>
      <trkpt lat="43.93182" lon="5.73177">
        <ele>552</ele>
      </trkpt>
      <trkpt lat="43.93202" lon="5.73163">
        <ele>548</ele>
      </trkpt>
      <trkpt lat="43.93213" lon="5.73156">
        <ele>549</ele>
      </trkpt>
      <trkpt lat="43.93226" lon="5.73149">
        <ele>550</ele>
      </trkpt>
      <trkpt lat="43.93248" lon="5.73138">
        <ele>551</ele>
      </trkpt>
      <trkpt lat="43.9326" lon="5.73129">
        <ele>557</ele>
      </trkpt>
      <trkpt lat="43.93263" lon="5.73127">
        <ele>557</ele>
      </trkpt>
      <trkpt lat="43.93281" lon="5.73128">
        <ele>558</ele>
      </trkpt>
      <trkpt lat="43.93297" lon="5.7313">
        <ele>559</ele>
      </trkpt>
      <trkpt lat="43.93324" lon="5.73122">
        <ele>560</ele>
      </trkpt>
      <trkpt lat="43.93345" lon="5.73113">
        <ele>566</ele>
      </trkpt>
      <trkpt lat="43.93361" lon="5.73116">
        <ele>567</ele>
      </trkpt>
      <trkpt lat="43.93368" lon="5.73123">
        <ele>567</ele>
      </trkpt>
      <trkpt lat="43.93378" lon="5.7313">
        <ele>568</ele>
      </trkpt>
      <trkpt lat="43.93383" lon="5.73145">
        <ele>569</ele>
      </trkpt>
      <trkpt lat="43.93388" lon="5.73161">
        <ele>569</ele>
      </trkpt>
      <trkpt lat="43.93393" lon="5.73186">
        <ele>571</ele>
      </trkpt>
      <trkpt lat="43.93396" lon="5.73205">
        <ele>571</ele>
      </trkpt>
      <trkpt lat="43.93391" lon="5.73231">
        <ele>571</ele>
      </trkpt>
      <trkpt lat="43.93391" lon="5.73239">
        <ele>571</ele>
      </trkpt>
      <trkpt lat="43.9339" lon="5.73243">
        <ele>571</ele>
      </trkpt>
      <trkpt lat="43.93389" lon="5.73254">
        <ele>569</ele>
      </trkpt>
      <trkpt lat="43.93382" lon="5.73273">
        <ele>569</ele>
      </trkpt>
      <trkpt lat="43.93359" lon="5.73302">
        <ele>568</ele>
      </trkpt>
      <trkpt lat="43.93334" lon="5.73331">
        <ele>568</ele>
      </trkpt>
      <trkpt lat="43.93317" lon="5.7335">
        <ele>569</ele>
      </trkpt>
      <trkpt lat="43.933" lon="5.73368">
        <ele>570</ele>
      </trkpt>
      <trkpt lat="43.93288" lon="5.73375">
        <ele>571</ele>
      </trkpt>
      <trkpt lat="43.93282" lon="5.73378">
        <ele>571</ele>
      </trkpt>
      <trkpt lat="43.9328" lon="5.73379">
        <ele>571</ele>
      </trkpt>
      <trkpt lat="43.93281" lon="5.7338">
        <ele>571</ele>
      </trkpt>
      <trkpt lat="43.9329" lon="5.73381">
        <ele>570</ele>
      </trkpt>
      <trkpt lat="43.93294" lon="5.73381">
        <ele>570</ele>
      </trkpt>
      <trkpt lat="43.93308" lon="5.73386">
        <ele>569</ele>
      </trkpt>
      <trkpt lat="43.9332" lon="5.73389">
        <ele>568</ele>
      </trkpt>
      <trkpt lat="43.93333" lon="5.73387">
        <ele>567</ele>
      </trkpt>
      <trkpt lat="43.93344" lon="5.73384">
        <ele>561</ele>
      </trkpt>
      <trkpt lat="43.93356" lon="5.73381">
        <ele>561</ele>
      </trkpt>
      <trkpt lat="43.9337" lon="5.73377">
        <ele>561</ele>
      </trkpt>
      <trkpt lat="43.93396" lon="5.73374">
        <ele>560</ele>
      </trkpt>
      <trkpt lat="43.93433" lon="5.73371">
        <ele>557</ele>
      </trkpt>
      <trkpt lat="43.93459" lon="5.7337">
        <ele>557</ele>
      </trkpt>
      <trkpt lat="43.93482" lon="5.73372">
        <ele>557</ele>
      </trkpt>
      <trkpt lat="43.93508" lon="5.73377">
        <ele>557</ele>
      </trkpt>
      <trkpt lat="43.93529" lon="5.73385">
        <ele>556</ele>
      </trkpt>
      <trkpt lat="43.93552" lon="5.73395">
        <ele>555</ele>
      </trkpt>
      <trkpt lat="43.93568" lon="5.73401">
        <ele>553</ele>
      </trkpt>
      <trkpt lat="43.93586" lon="5.73398">
        <ele>552</ele>
      </trkpt>
      <trkpt lat="43.93607" lon="5.73386">
        <ele>553</ele>
      </trkpt>
      <trkpt lat="43.93632" lon="5.73368">
        <ele>555</ele>
      </trkpt>
      <trkpt lat="43.93648" lon="5.7336">
        <ele>555</ele>
      </trkpt>
      <trkpt lat="43.93658" lon="5.73353">
        <ele>556</ele>
      </trkpt>
      <trkpt lat="43.93685" lon="5.73328">
        <ele>563</ele>
      </trkpt>
      <trkpt lat="43.93701" lon="5.7332">
        <ele>564</ele>
      </trkpt>
      <trkpt lat="43.93724" lon="5.73319">
        <ele>563</ele>
      </trkpt>
      <trkpt lat="43.93749" lon="5.73298">
        <ele>564</ele>
      </trkpt>
      <trkpt lat="43.93767" lon="5.73276">
        <ele>566</ele>
      </trkpt>
      <trkpt lat="43.93779" lon="5.73269">
        <ele>566</ele>
      </trkpt>
      <trkpt lat="43.93791" lon="5.73277">
        <ele>566</ele>
      </trkpt>
      <trkpt lat="43.93799" lon="5.73287">
        <ele>566</ele>
      </trkpt>
      <trkpt lat="43.93801" lon="5.73284">
        <ele>566</ele>
      </trkpt>
      <trkpt lat="43.93801" lon="5.73281">
        <ele>566</ele>
      </trkpt>
      <trkpt lat="43.93804" lon="5.73265">
        <ele>566</ele>
      </trkpt>
      <trkpt lat="43.93816" lon="5.73223">
        <ele>570</ele>
      </trkpt>
      <trkpt lat="43.93824" lon="5.73209">
        <ele>570</ele>
      </trkpt>
      <trkpt lat="43.93842" lon="5.73171">
        <ele>572</ele>
      </trkpt>
      <trkpt lat="43.93851" lon="5.7315">
        <ele>575</ele>
      </trkpt>
      <trkpt lat="43.93851" lon="5.73127">
        <ele>577</ele>
      </trkpt>
      <trkpt lat="43.93854" lon="5.73111">
        <ele>578</ele>
      </trkpt>
      <trkpt lat="43.93856" lon="5.731">
        <ele>578</ele>
      </trkpt>
      <trkpt lat="43.93863" lon="5.73067">
        <ele>583</ele>
      </trkpt>
      <trkpt lat="43.93871" lon="5.73049">
        <ele>584</ele>
      </trkpt>
      <trkpt lat="43.93875" lon="5.73041">
        <ele>584</ele>
      </trkpt>
      <trkpt lat="43.93882" lon="5.72999">
        <ele>589</ele>
      </trkpt>
      <trkpt lat="43.93883" lon="5.72992">
        <ele>590</ele>
      </trkpt>
      <trkpt lat="43.93895" lon="5.72974">
        <ele>590</ele>
      </trkpt>
      <trkpt lat="43.93909" lon="5.72938">
        <ele>591</ele>
      </trkpt>
      <trkpt lat="43.93915" lon="5.72881">
        <ele>597</ele>
      </trkpt>
      <trkpt lat="43.93915" lon="5.72848">
        <ele>599</ele>
      </trkpt>
      <trkpt lat="43.93919" lon="5.72826">
        <ele>602</ele>
      </trkpt>
      <trkpt lat="43.93925" lon="5.72774">
        <ele>606</ele>
      </trkpt>
      <trkpt lat="43.93927" lon="5.72736">
        <ele>609</ele>
      </trkpt>
      <trkpt lat="43.93929" lon="5.72714">
        <ele>611</ele>
      </trkpt>
      <trkpt lat="43.93933" lon="5.72703">
        <ele>611</ele>
      </trkpt>
      <trkpt lat="43.93945" lon="5.72693">
        <ele>612</ele>
      </trkpt>
      <trkpt lat="43.93962" lon="5.72682">
        <ele>612</ele>
      </trkpt>
      <trkpt lat="43.93983" lon="5.72672">
        <ele>612</ele>
      </trkpt>
      <trkpt lat="43.93997" lon="5.72672">
        <ele>613</ele>
      </trkpt>
      <trkpt lat="43.94001" lon="5.72673">
        <ele>614</ele>
      </trkpt>
      <trkpt lat="43.94011" lon="5.72692">
        <ele>616</ele>
      </trkpt>
      <trkpt lat="43.9401" lon="5.72698">
        <ele>616</ele>
      </trkpt>
      <trkpt lat="43.94003" lon="5.72731">
        <ele>615</ele>
      </trkpt>
      <trkpt lat="43.94" lon="5.72752">
        <ele>612</ele>
      </trkpt>
      <trkpt lat="43.94005" lon="5.7277">
        <ele>614</ele>
      </trkpt>
      <trkpt lat="43.94008" lon="5.72778">
        <ele>614</ele>
      </trkpt>
      <trkpt lat="43.9403" lon="5.72804">
        <ele>615</ele>
      </trkpt>
      <trkpt lat="43.94048" lon="5.72812">
        <ele>616</ele>
      </trkpt>
      <trkpt lat="43.94056" lon="5.72811">
        <ele>617</ele>
      </trkpt>
      <trkpt lat="43.94067" lon="5.72807">
        <ele>618</ele>
      </trkpt>
      <trkpt lat="43.94081" lon="5.72793">
        <ele>618</ele>
      </trkpt>
      <trkpt lat="43.94093" lon="5.72782">
        <ele>627</ele>
      </trkpt>
      <trkpt lat="43.94104" lon="5.72784">
        <ele>627</ele>
      </trkpt>
      <trkpt lat="43.94113" lon="5.72799">
        <ele>627</ele>
      </trkpt>
      <trkpt lat="43.94117" lon="5.72799">
        <ele>628</ele>
      </trkpt>
      <trkpt lat="43.94123" lon="5.72794">
        <ele>628</ele>
      </trkpt>
      <trkpt lat="43.94134" lon="5.72792">
        <ele>629</ele>
      </trkpt>
      <trkpt lat="43.94143" lon="5.72794">
        <ele>630</ele>
      </trkpt>
      <trkpt lat="43.94158" lon="5.72794">
        <ele>631</ele>
      </trkpt>
      <trkpt lat="43.94178" lon="5.72799">
        <ele>637</ele>
      </trkpt>
      <trkpt lat="43.94182" lon="5.728">
        <ele>638</ele>
      </trkpt>
      <trkpt lat="43.94211" lon="5.72806">
        <ele>639</ele>
      </trkpt>
      <trkpt lat="43.94235" lon="5.72812">
        <ele>639</ele>
      </trkpt>
      <trkpt lat="43.94254" lon="5.72813">
        <ele>642</ele>
      </trkpt>
      <trkpt lat="43.94275" lon="5.72801">
        <ele>643</ele>
      </trkpt>
      <trkpt lat="43.94292" lon="5.72795">
        <ele>644</ele>
      </trkpt>
      <trkpt lat="43.94303" lon="5.72792">
        <ele>644</ele>
      </trkpt>
      <trkpt lat="43.9432" lon="5.72793">
        <ele>644</ele>
      </trkpt>
      <trkpt lat="43.94341" lon="5.72805">
        <ele>646</ele>
      </trkpt>
      <trkpt lat="43.94352" lon="5.72818">
        <ele>646</ele>
      </trkpt>
      <trkpt lat="43.94366" lon="5.72826">
        <ele>646</ele>
      </trkpt>
      <trkpt lat="43.9437" lon="5.72828">
        <ele>646</ele>
      </trkpt>
      <trkpt lat="43.94393" lon="5.72826">
        <ele>648</ele>
      </trkpt>
      <trkpt lat="43.94402" lon="5.72826">
        <ele>648</ele>
      </trkpt>
      <trkpt lat="43.94411" lon="5.72825">
        <ele>648</ele>
      </trkpt>
      <trkpt lat="43.94415" lon="5.72825">
        <ele>648</ele>
      </trkpt>
      <trkpt lat="43.94431" lon="5.72832">
        <ele>650</ele>
      </trkpt>
      <trkpt lat="43.94433" lon="5.72837">
        <ele>648</ele>
      </trkpt>
      <trkpt lat="43.94452" lon="5.72856">
        <ele>649</ele>
      </trkpt>
      <trkpt lat="43.94455" lon="5.72857">
        <ele>649</ele>
      </trkpt>
      <trkpt lat="43.94482" lon="5.72866">
        <ele>650</ele>
      </trkpt>
      <trkpt lat="43.94487" lon="5.72868">
        <ele>650</ele>
      </trkpt>
      <trkpt lat="43.94516" lon="5.72881">
        <ele>653</ele>
      </trkpt>
      <trkpt lat="43.94522" lon="5.72881">
        <ele>653</ele>
      </trkpt>
      <trkpt lat="43.9453" lon="5.72885">
        <ele>654</ele>
      </trkpt>
      <trkpt lat="43.94546" lon="5.72885">
        <ele>654</ele>
      </trkpt>
      <trkpt lat="43.94562" lon="5.7288">
        <ele>655</ele>
      </trkpt>
      <trkpt lat="43.94587" lon="5.72881">
        <ele>658</ele>
      </trkpt>
      <trkpt lat="43.94604" lon="5.72889">
        <ele>658</ele>
      </trkpt>
      <trkpt lat="43.94621" lon="5.72901">
        <ele>658</ele>
      </trkpt>
      <trkpt lat="43.9464" lon="5.72899">
        <ele>659</ele>
      </trkpt>
      <trkpt lat="43.94661" lon="5.72899">
        <ele>659</ele>
      </trkpt>
      <trkpt lat="43.94668" lon="5.729">
        <ele>658</ele>
      </trkpt>
      <trkpt lat="43.94696" lon="5.72899">
        <ele>657</ele>
      </trkpt>
      <trkpt lat="43.9472" lon="5.72894">
        <ele>655</ele>
      </trkpt>
      <trkpt lat="43.94747" lon="5.72872">
        <ele>655</ele>
      </trkpt>
      <trkpt lat="43.94772" lon="5.72839">
        <ele>649</ele>
      </trkpt>
      <trkpt lat="43.94798" lon="5.72804">
        <ele>653</ele>
      </trkpt>
      <trkpt lat="43.9482" lon="5.72765">
        <ele>653</ele>
      </trkpt>
      <trkpt lat="43.94847" lon="5.72729">
        <ele>650</ele>
      </trkpt>
      <trkpt lat="43.94875" lon="5.72695">
        <ele>649</ele>
      </trkpt>
      <trkpt lat="43.94902" lon="5.72672">
        <ele>646</ele>
      </trkpt>
      <trkpt lat="43.94931" lon="5.7267">
        <ele>644</ele>
      </trkpt>
      <trkpt lat="43.94965" lon="5.72674">
        <ele>645</ele>
      </trkpt>
      <trkpt lat="43.94991" lon="5.72655">
        <ele>647</ele>
      </trkpt>
      <trkpt lat="43.95008" lon="5.72644">
        <ele>650</ele>
      </trkpt>
      <trkpt lat="43.9505" lon="5.72618">
        <ele>654</ele>
      </trkpt>
      <trkpt lat="43.95058" lon="5.72612">
        <ele>654</ele>
      </trkpt>
      <trkpt lat="43.95107" lon="5.72586">
        <ele>660</ele>
      </trkpt>
      <trkpt lat="43.95139" lon="5.72576">
        <ele>659</ele>
      </trkpt>
      <trkpt lat="43.95154" lon="5.72565">
        <ele>660</ele>
      </trkpt>
      <trkpt lat="43.9519" lon="5.72552">
        <ele>662</ele>
      </trkpt>
      <trkpt lat="43.95253" lon="5.72556">
        <ele>667</ele>
      </trkpt>
      <trkpt lat="43.95303" lon="5.72578">
        <ele>670</ele>
      </trkpt>
      <trkpt lat="43.95352" lon="5.72593">
        <ele>676</ele>
      </trkpt>
      <trkpt lat="43.95393" lon="5.72596">
        <ele>678</ele>
      </trkpt>
      <trkpt lat="43.95425" lon="5.72598">
        <ele>678</ele>
      </trkpt>
      <trkpt lat="43.9545" lon="5.72602">
        <ele>678</ele>
      </trkpt>
      <trkpt lat="43.95466" lon="5.72606">
        <ele>678</ele>
      </trkpt>
      <trkpt lat="43.9548" lon="5.72611">
        <ele>678</ele>
      </trkpt>
      <trkpt lat="43.95492" lon="5.72615">
        <ele>678</ele>
      </trkpt>
      <trkpt lat="43.95501" lon="5.72619">
        <ele>677</ele>
      </trkpt>
      <trkpt lat="43.9551" lon="5.72623">
        <ele>676</ele>
      </trkpt>
      <trkpt lat="43.95519" lon="5.72629">
        <ele>676</ele>
      </trkpt>
      <trkpt lat="43.95528" lon="5.72635">
        <ele>675</ele>
      </trkpt>
      <trkpt lat="43.95534" lon="5.72637">
        <ele>675</ele>
      </trkpt>
      <trkpt lat="43.95544" lon="5.72639">
        <ele>675</ele>
      </trkpt>
      <trkpt lat="43.95554" lon="5.72641">
        <ele>674</ele>
      </trkpt>
      <trkpt lat="43.95563" lon="5.72642">
        <ele>673</ele>
      </trkpt>
      <trkpt lat="43.95576" lon="5.72646">
        <ele>672</ele>
      </trkpt>
      <trkpt lat="43.95588" lon="5.72649">
        <ele>671</ele>
      </trkpt>
      <trkpt lat="43.956" lon="5.72652">
        <ele>671</ele>
      </trkpt>
      <trkpt lat="43.95616" lon="5.72657">
        <ele>671</ele>
      </trkpt>
      <trkpt lat="43.9563" lon="5.72661">
        <ele>671</ele>
      </trkpt>
      <trkpt lat="43.9565" lon="5.72669">
        <ele>662</ele>
      </trkpt>
      <trkpt lat="43.95665" lon="5.72674">
        <ele>664</ele>
      </trkpt>
      <trkpt lat="43.95679" lon="5.72681">
        <ele>663</ele>
      </trkpt>
      <trkpt lat="43.95689" lon="5.72691">
        <ele>662</ele>
      </trkpt>
      <trkpt lat="43.95704" lon="5.72707">
        <ele>661</ele>
      </trkpt>
      <trkpt lat="43.95716" lon="5.7272">
        <ele>660</ele>
      </trkpt>
      <trkpt lat="43.95729" lon="5.72734">
        <ele>659</ele>
      </trkpt>
      <trkpt lat="43.95746" lon="5.72749">
        <ele>657</ele>
      </trkpt>
      <trkpt lat="43.95763" lon="5.72763">
        <ele>655</ele>
      </trkpt>
      <trkpt lat="43.95778" lon="5.72775">
        <ele>655</ele>
      </trkpt>
      <trkpt lat="43.95788" lon="5.72783">
        <ele>654</ele>
      </trkpt>
      <trkpt lat="43.95802" lon="5.72795">
        <ele>654</ele>
      </trkpt>
      <trkpt lat="43.95814" lon="5.72805">
        <ele>654</ele>
      </trkpt>
      <trkpt lat="43.95822" lon="5.72813">
        <ele>653</ele>
      </trkpt>
      <trkpt lat="43.95832" lon="5.7282">
        <ele>652</ele>
      </trkpt>
      <trkpt lat="43.95842" lon="5.72826">
        <ele>652</ele>
      </trkpt>
      <trkpt lat="43.95852" lon="5.72834">
        <ele>648</ele>
      </trkpt>
      <trkpt lat="43.95863" lon="5.72842">
        <ele>647</ele>
      </trkpt>
      <trkpt lat="43.95871" lon="5.72849">
        <ele>647</ele>
      </trkpt>
      <trkpt lat="43.95876" lon="5.72848">
        <ele>647</ele>
      </trkpt>
      <trkpt lat="43.95876" lon="5.72848">
        <ele>647</ele>
      </trkpt>
      <trkpt lat="43.95877" lon="5.7285">
        <ele>647</ele>
      </trkpt>
      <trkpt lat="43.95887" lon="5.72856">
        <ele>646</ele>
      </trkpt>
      <trkpt lat="43.95898" lon="5.72859">
        <ele>646</ele>
      </trkpt>
      <trkpt lat="43.95907" lon="5.72864">
        <ele>646</ele>
      </trkpt>
      <trkpt lat="43.95919" lon="5.72871">
        <ele>640</ele>
      </trkpt>
      <trkpt lat="43.95931" lon="5.7288">
        <ele>639</ele>
      </trkpt>
      <trkpt lat="43.95945" lon="5.72885">
        <ele>638</ele>
      </trkpt>
      <trkpt lat="43.95955" lon="5.72884">
        <ele>637</ele>
      </trkpt>
      <trkpt lat="43.95969" lon="5.72883">
        <ele>636</ele>
      </trkpt>
      <trkpt lat="43.95977" lon="5.72881">
        <ele>636</ele>
      </trkpt>
      <trkpt lat="43.95988" lon="5.72872">
        <ele>636</ele>
      </trkpt>
      <trkpt lat="43.95995" lon="5.72867">
        <ele>636</ele>
      </trkpt>
      <trkpt lat="43.96004" lon="5.72863">
        <ele>630</ele>
      </trkpt>
      <trkpt lat="43.96017" lon="5.72857">
        <ele>630</ele>
      </trkpt>
      <trkpt lat="43.9603" lon="5.72857">
        <ele>629</ele>
      </trkpt>
      <trkpt lat="43.96043" lon="5.72858">
        <ele>628</ele>
      </trkpt>
      <trkpt lat="43.96057" lon="5.72856">
        <ele>627</ele>
      </trkpt>
      <trkpt lat="43.96073" lon="5.72857">
        <ele>627</ele>
      </trkpt>
      <trkpt lat="43.96082" lon="5.72857">
        <ele>626</ele>
      </trkpt>
      <trkpt lat="43.96088" lon="5.72857">
        <ele>618</ele>
      </trkpt>
      <trkpt lat="43.96099" lon="5.72858">
        <ele>617</ele>
      </trkpt>
      <trkpt lat="43.96102" lon="5.72857">
        <ele>616</ele>
      </trkpt>
      <trkpt lat="43.9611" lon="5.72856">
        <ele>615</ele>
      </trkpt>
      <trkpt lat="43.96116" lon="5.72859">
        <ele>614</ele>
      </trkpt>
      <trkpt lat="43.96119" lon="5.7286">
        <ele>614</ele>
      </trkpt>
      <trkpt lat="43.96128" lon="5.72866">
        <ele>612</ele>
      </trkpt>
      <trkpt lat="43.96138" lon="5.72866">
        <ele>611</ele>
      </trkpt>
      <trkpt lat="43.96149" lon="5.72859">
        <ele>611</ele>
      </trkpt>
      <trkpt lat="43.96158" lon="5.7285">
        <ele>611</ele>
      </trkpt>
      <trkpt lat="43.96167" lon="5.72839">
        <ele>612</ele>
      </trkpt>
      <trkpt lat="43.96175" lon="5.72828">
        <ele>610</ele>
      </trkpt>
      <trkpt lat="43.96185" lon="5.72813">
        <ele>609</ele>
      </trkpt>
      <trkpt lat="43.96192" lon="5.728">
        <ele>609</ele>
      </trkpt>
      <trkpt lat="43.96201" lon="5.72786">
        <ele>609</ele>
      </trkpt>
      <trkpt lat="43.9621" lon="5.72775">
        <ele>608</ele>
      </trkpt>
      <trkpt lat="43.96219" lon="5.72762">
        <ele>607</ele>
      </trkpt>
      <trkpt lat="43.96223" lon="5.72756">
        <ele>606</ele>
      </trkpt>
      <trkpt lat="43.96224" lon="5.72753">
        <ele>606</ele>
      </trkpt>
      <trkpt lat="43.96231" lon="5.72744">
        <ele>613</ele>
      </trkpt>
      <trkpt lat="43.96234" lon="5.72738">
        <ele>613</ele>
      </trkpt>
      <trkpt lat="43.96241" lon="5.72726">
        <ele>615</ele>
      </trkpt>
      <trkpt lat="43.96248" lon="5.72718">
        <ele>617</ele>
      </trkpt>
      <trkpt lat="43.96256" lon="5.72708">
        <ele>604</ele>
      </trkpt>
      <trkpt lat="43.96262" lon="5.72703">
        <ele>605</ele>
      </trkpt>
      <trkpt lat="43.96269" lon="5.72699">
        <ele>605</ele>
      </trkpt>
      <trkpt lat="43.96277" lon="5.72697">
        <ele>604</ele>
      </trkpt>
      <trkpt lat="43.96286" lon="5.727">
        <ele>603</ele>
      </trkpt>
      <trkpt lat="43.96296" lon="5.72707">
        <ele>602</ele>
      </trkpt>
      <trkpt lat="43.96307" lon="5.72717">
        <ele>600</ele>
      </trkpt>
      <trkpt lat="43.96314" lon="5.72723">
        <ele>598</ele>
      </trkpt>
      <trkpt lat="43.96326" lon="5.72727">
        <ele>597</ele>
      </trkpt>
      <trkpt lat="43.96338" lon="5.72724">
        <ele>591</ele>
      </trkpt>
      <trkpt lat="43.96351" lon="5.72723">
        <ele>591</ele>
      </trkpt>
      <trkpt lat="43.96368" lon="5.72722">
        <ele>590</ele>
      </trkpt>
      <trkpt lat="43.96388" lon="5.72722">
        <ele>589</ele>
      </trkpt>
      <trkpt lat="43.96404" lon="5.72721">
        <ele>588</ele>
      </trkpt>
      <trkpt lat="43.96421" lon="5.7272">
        <ele>584</ele>
      </trkpt>
      <trkpt lat="43.96437" lon="5.7272">
        <ele>584</ele>
      </trkpt>
      <trkpt lat="43.96443" lon="5.72721">
        <ele>584</ele>
      </trkpt>
      <trkpt lat="43.96451" lon="5.7272">
        <ele>584</ele>
      </trkpt>
      <trkpt lat="43.96456" lon="5.72719">
        <ele>584</ele>
      </trkpt>
      <trkpt lat="43.96454" lon="5.72714">
        <ele>584</ele>
      </trkpt>
      <trkpt lat="43.96458" lon="5.72714">
        <ele>584</ele>
      </trkpt>
      <trkpt lat="43.96465" lon="5.72713">
        <ele>584</ele>
      </trkpt>
      <trkpt lat="43.96475" lon="5.72714">
        <ele>584</ele>
      </trkpt>
      <trkpt lat="43.96476" lon="5.72715">
        <ele>584</ele>
      </trkpt>
      <trkpt lat="43.96478" lon="5.7272">
        <ele>583</ele>
      </trkpt>
      <trkpt lat="43.96481" lon="5.72727">
        <ele>582</ele>
      </trkpt>
      <trkpt lat="43.96481" lon="5.72737">
        <ele>581</ele>
      </trkpt>
      <trkpt lat="43.96481" lon="5.72746">
        <ele>581</ele>
      </trkpt>
      <trkpt lat="43.96481" lon="5.72749">
        <ele>581</ele>
      </trkpt>
      <trkpt lat="43.96481" lon="5.72751">
        <ele>577</ele>
      </trkpt>
      <trkpt lat="43.96479" lon="5.7277">
        <ele>577</ele>
      </trkpt>
      <trkpt lat="43.96477" lon="5.72783">
        <ele>577</ele>
      </trkpt>
      <trkpt lat="43.96476" lon="5.72791">
        <ele>576</ele>
      </trkpt>
      <trkpt lat="43.96476" lon="5.72808">
        <ele>576</ele>
      </trkpt>
      <trkpt lat="43.96476" lon="5.72814">
        <ele>575</ele>
      </trkpt>
      <trkpt lat="43.96476" lon="5.72819">
        <ele>575</ele>
      </trkpt>
      <trkpt lat="43.96477" lon="5.72838">
        <ele>572</ele>
      </trkpt>
      <trkpt lat="43.96477" lon="5.7285">
        <ele>572</ele>
      </trkpt>
      <trkpt lat="43.96477" lon="5.72854">
        <ele>571</ele>
      </trkpt>
      <trkpt lat="43.96478" lon="5.72868">
        <ele>571</ele>
      </trkpt>
      <trkpt lat="43.96477" lon="5.72878">
        <ele>571</ele>
      </trkpt>
      <trkpt lat="43.96477" lon="5.72885">
        <ele>570</ele>
      </trkpt>
      <trkpt lat="43.96474" lon="5.72902">
        <ele>570</ele>
      </trkpt>
      <trkpt lat="43.9647" lon="5.72919">
        <ele>566</ele>
      </trkpt>
      <trkpt lat="43.96465" lon="5.72937">
        <ele>565</ele>
      </trkpt>
      <trkpt lat="43.96462" lon="5.72944">
        <ele>565</ele>
      </trkpt>
      <trkpt lat="43.96459" lon="5.72956">
        <ele>565</ele>
      </trkpt>
      <trkpt lat="43.96458" lon="5.72974">
        <ele>564</ele>
      </trkpt>
      <trkpt lat="43.96455" lon="5.72991">
        <ele>564</ele>
      </trkpt>
      <trkpt lat="43.96454" lon="5.73">
        <ele>560</ele>
      </trkpt>
      <trkpt lat="43.96451" lon="5.73014">
        <ele>560</ele>
      </trkpt>
      <trkpt lat="43.96448" lon="5.73028">
        <ele>559</ele>
      </trkpt>
      <trkpt lat="43.96448" lon="5.73042">
        <ele>559</ele>
      </trkpt>
      <trkpt lat="43.96447" lon="5.73052">
        <ele>558</ele>
      </trkpt>
      <trkpt lat="43.96447" lon="5.73063">
        <ele>558</ele>
      </trkpt>
      <trkpt lat="43.96447" lon="5.73067">
        <ele>558</ele>
      </trkpt>
      <trkpt lat="43.96445" lon="5.73075">
        <ele>558</ele>
      </trkpt>
      <trkpt lat="43.96446" lon="5.73083">
        <ele>558</ele>
      </trkpt>
      <trkpt lat="43.96449" lon="5.73099">
        <ele>553</ele>
      </trkpt>
      <trkpt lat="43.96453" lon="5.73114">
        <ele>552</ele>
      </trkpt>
      <trkpt lat="43.96451" lon="5.73128">
        <ele>552</ele>
      </trkpt>
      <trkpt lat="43.96449" lon="5.73142">
        <ele>551</ele>
      </trkpt>
      <trkpt lat="43.96446" lon="5.73159">
        <ele>550</ele>
      </trkpt>
      <trkpt lat="43.96444" lon="5.73173">
        <ele>547</ele>
      </trkpt>
      <trkpt lat="43.96442" lon="5.73184">
        <ele>546</ele>
      </trkpt>
      <trkpt lat="43.96437" lon="5.73198">
        <ele>546</ele>
      </trkpt>
      <trkpt lat="43.96436" lon="5.73204">
        <ele>546</ele>
      </trkpt>
      <trkpt lat="43.96432" lon="5.73215">
        <ele>545</ele>
      </trkpt>
      <trkpt lat="43.96426" lon="5.73225">
        <ele>545</ele>
      </trkpt>
      <trkpt lat="43.96422" lon="5.73231">
        <ele>545</ele>
      </trkpt>
      <trkpt lat="43.96419" lon="5.73233">
        <ele>544</ele>
      </trkpt>
      <trkpt lat="43.96413" lon="5.73239">
        <ele>543</ele>
      </trkpt>
      <trkpt lat="43.96407" lon="5.73248">
        <ele>543</ele>
      </trkpt>
      <trkpt lat="43.964" lon="5.73258">
        <ele>539</ele>
      </trkpt>
      <trkpt lat="43.96396" lon="5.73271">
        <ele>538</ele>
      </trkpt>
      <trkpt lat="43.96395" lon="5.73284">
        <ele>538</ele>
      </trkpt>
      <trkpt lat="43.96393" lon="5.73295">
        <ele>537</ele>
      </trkpt>
      <trkpt lat="43.96389" lon="5.73311">
        <ele>537</ele>
      </trkpt>
      <trkpt lat="43.96388" lon="5.73317">
        <ele>536</ele>
      </trkpt>
      <trkpt lat="43.96386" lon="5.73324">
        <ele>536</ele>
      </trkpt>
      <trkpt lat="43.96385" lon="5.73328">
        <ele>536</ele>
      </trkpt>
      <trkpt lat="43.96384" lon="5.73341">
        <ele>531</ele>
      </trkpt>
      <trkpt lat="43.96379" lon="5.7336">
        <ele>530</ele>
      </trkpt>
      <trkpt lat="43.96379" lon="5.73365">
        <ele>530</ele>
      </trkpt>
      <trkpt lat="43.96376" lon="5.73374">
        <ele>529</ele>
      </trkpt>
      <trkpt lat="43.96374" lon="5.73385">
        <ele>528</ele>
      </trkpt>
      <trkpt lat="43.96373" lon="5.7339">
        <ele>528</ele>
      </trkpt>
      <trkpt lat="43.96372" lon="5.73394">
        <ele>528</ele>
      </trkpt>
      <trkpt lat="43.9637" lon="5.73407">
        <ele>527</ele>
      </trkpt>
      <trkpt lat="43.96369" lon="5.73411">
        <ele>527</ele>
      </trkpt>
      <trkpt lat="43.96368" lon="5.73422">
        <ele>521</ele>
      </trkpt>
      <trkpt lat="43.96368" lon="5.73424">
        <ele>521</ele>
      </trkpt>
      <trkpt lat="43.96369" lon="5.7343">
        <ele>521</ele>
      </trkpt>
      <trkpt lat="43.96369" lon="5.73432">
        <ele>521</ele>
      </trkpt>
      <trkpt lat="43.96367" lon="5.73437">
        <ele>520</ele>
      </trkpt>
      <trkpt lat="43.96367" lon="5.7344">
        <ele>520</ele>
      </trkpt>
      <trkpt lat="43.96366" lon="5.73446">
        <ele>520</ele>
      </trkpt>
      <trkpt lat="43.96365" lon="5.73451">
        <ele>520</ele>
      </trkpt>
      <trkpt lat="43.96363" lon="5.73458">
        <ele>519</ele>
      </trkpt>
      <trkpt lat="43.96363" lon="5.73466">
        <ele>519</ele>
      </trkpt>
      <trkpt lat="43.96362" lon="5.73471">
        <ele>518</ele>
      </trkpt>
      <trkpt lat="43.96361" lon="5.73482">
        <ele>518</ele>
      </trkpt>
      <trkpt lat="43.96359" lon="5.73489">
        <ele>517</ele>
      </trkpt>
      <trkpt lat="43.96357" lon="5.73494">
        <ele>517</ele>
      </trkpt>
      <trkpt lat="43.96355" lon="5.735">
        <ele>517</ele>
      </trkpt>
      <trkpt lat="43.96352" lon="5.73505">
        <ele>512</ele>
      </trkpt>
      <trkpt lat="43.9635" lon="5.73511">
        <ele>511</ele>
      </trkpt>
      <trkpt lat="43.96347" lon="5.73517">
        <ele>511</ele>
      </trkpt>
      <trkpt lat="43.96346" lon="5.73521">
        <ele>511</ele>
      </trkpt>
      <trkpt lat="43.96345" lon="5.73527">
        <ele>510</ele>
      </trkpt>
      <trkpt lat="43.96342" lon="5.73533">
        <ele>510</ele>
      </trkpt>
      <trkpt lat="43.96337" lon="5.73539">
        <ele>509</ele>
      </trkpt>
      <trkpt lat="43.96331" lon="5.73546">
        <ele>507</ele>
      </trkpt>
      <trkpt lat="43.96327" lon="5.73552">
        <ele>507</ele>
      </trkpt>
      <trkpt lat="43.96323" lon="5.73558">
        <ele>506</ele>
      </trkpt>
      <trkpt lat="43.9632" lon="5.7357">
        <ele>506</ele>
      </trkpt>
      <trkpt lat="43.9632" lon="5.73583">
        <ele>505</ele>
      </trkpt>
      <trkpt lat="43.96323" lon="5.73598">
        <ele>501</ele>
      </trkpt>
      <trkpt lat="43.96325" lon="5.73607">
        <ele>501</ele>
      </trkpt>
      <trkpt lat="43.96329" lon="5.73619">
        <ele>500</ele>
      </trkpt>
      <trkpt lat="43.96331" lon="5.7363">
        <ele>499</ele>
      </trkpt>
      <trkpt lat="43.96333" lon="5.73643">
        <ele>499</ele>
      </trkpt>
      <trkpt lat="43.96335" lon="5.73654">
        <ele>499</ele>
      </trkpt>
      <trkpt lat="43.96337" lon="5.73662">
        <ele>498</ele>
      </trkpt>
      <trkpt lat="43.96337" lon="5.73669">
        <ele>497</ele>
      </trkpt>
      <trkpt lat="43.96339" lon="5.7368">
        <ele>495</ele>
      </trkpt>
      <trkpt lat="43.96342" lon="5.73692">
        <ele>494</ele>
      </trkpt>
      <trkpt lat="43.96342" lon="5.73697">
        <ele>493</ele>
      </trkpt>
      <trkpt lat="43.96344" lon="5.73709">
        <ele>492</ele>
      </trkpt>
      <trkpt lat="43.96346" lon="5.73722">
        <ele>491</ele>
      </trkpt>
      <trkpt lat="43.96347" lon="5.73727">
        <ele>491</ele>
      </trkpt>
      <trkpt lat="43.96349" lon="5.73744">
        <ele>490</ele>
      </trkpt>
      <trkpt lat="43.96351" lon="5.73757">
        <ele>485</ele>
      </trkpt>
      <trkpt lat="43.96353" lon="5.73769">
        <ele>484</ele>
      </trkpt>
      <trkpt lat="43.96356" lon="5.73785">
        <ele>483</ele>
      </trkpt>
      <trkpt lat="43.96357" lon="5.73791">
        <ele>482</ele>
      </trkpt>
      <trkpt lat="43.96356" lon="5.73796">
        <ele>482</ele>
      </trkpt>
      <trkpt lat="43.96359" lon="5.73807">
        <ele>481</ele>
      </trkpt>
      <trkpt lat="43.96367" lon="5.73815">
        <ele>481</ele>
      </trkpt>
      <trkpt lat="43.96376" lon="5.73818">
        <ele>481</ele>
      </trkpt>
      <trkpt lat="43.9638" lon="5.7382">
        <ele>481</ele>
      </trkpt>
      <trkpt lat="43.96384" lon="5.7382">
        <ele>481</ele>
      </trkpt>
      <trkpt lat="43.96391" lon="5.73824">
        <ele>481</ele>
      </trkpt>
      <trkpt lat="43.96394" lon="5.73833">
        <ele>480</ele>
      </trkpt>
      <trkpt lat="43.96397" lon="5.7385">
        <ele>475</ele>
      </trkpt>
      <trkpt lat="43.964" lon="5.73864">
        <ele>474</ele>
      </trkpt>
      <trkpt lat="43.96401" lon="5.7387">
        <ele>474</ele>
      </trkpt>
      <trkpt lat="43.96405" lon="5.73883">
        <ele>473</ele>
      </trkpt>
      <trkpt lat="43.96412" lon="5.73896">
        <ele>472</ele>
      </trkpt>
      <trkpt lat="43.96416" lon="5.73901">
        <ele>472</ele>
      </trkpt>
      <trkpt lat="43.96421" lon="5.73909">
        <ele>472</ele>
      </trkpt>
      <trkpt lat="43.96427" lon="5.73918">
        <ele>471</ele>
      </trkpt>
      <trkpt lat="43.96431" lon="5.73934">
        <ele>471</ele>
      </trkpt>
      <trkpt lat="43.96428" lon="5.73951">
        <ele>471</ele>
      </trkpt>
      <trkpt lat="43.96422" lon="5.73962">
        <ele>471</ele>
      </trkpt>
      <trkpt lat="43.9641" lon="5.73954">
        <ele>470</ele>
      </trkpt>
      <trkpt lat="43.96401" lon="5.73956">
        <ele>470</ele>
      </trkpt>
      <trkpt lat="43.96398" lon="5.73969">
        <ele>470</ele>
      </trkpt>
      <trkpt lat="43.96392" lon="5.73986">
        <ele>470</ele>
      </trkpt>
      <trkpt lat="43.96393" lon="5.74001">
        <ele>473</ele>
      </trkpt>
      <trkpt lat="43.96406" lon="5.7401">
        <ele>472</ele>
      </trkpt>
      <trkpt lat="43.96411" lon="5.74023">
        <ele>473</ele>
      </trkpt>
      <trkpt lat="43.96406" lon="5.7403">
        <ele>474</ele>
      </trkpt>
      <trkpt lat="43.96385" lon="5.74059">
        <ele>476</ele>
      </trkpt>
      <trkpt lat="43.96385" lon="5.7408">
        <ele>477</ele>
      </trkpt>
      <trkpt lat="43.96387" lon="5.74098">
        <ele>486</ele>
      </trkpt>
      <trkpt lat="43.96386" lon="5.74103">
        <ele>486</ele>
      </trkpt>
      <trkpt lat="43.96378" lon="5.74125">
        <ele>488</ele>
      </trkpt>
      <trkpt lat="43.96375" lon="5.74133">
        <ele>489</ele>
      </trkpt>
      <trkpt lat="43.96371" lon="5.74147">
        <ele>490</ele>
      </trkpt>
      <trkpt lat="43.96364" lon="5.74156">
        <ele>491</ele>
      </trkpt>
      <trkpt lat="43.96358" lon="5.74172">
        <ele>502</ele>
      </trkpt>
      <trkpt lat="43.96355" lon="5.7418">
        <ele>503</ele>
      </trkpt>
      <trkpt lat="43.96349" lon="5.74202">
        <ele>506</ele>
      </trkpt>
      <trkpt lat="43.96346" lon="5.74202">
        <ele>506</ele>
      </trkpt>
      <trkpt lat="43.96326" lon="5.74201">
        <ele>507</ele>
      </trkpt>
      <trkpt lat="43.96308" lon="5.74199">
        <ele>507</ele>
      </trkpt>
      <trkpt lat="43.96306" lon="5.74199">
        <ele>507</ele>
      </trkpt>
      <trkpt lat="43.96311" lon="5.7421">
        <ele>509</ele>
      </trkpt>
      <trkpt lat="43.96325" lon="5.74231">
        <ele>513</ele>
      </trkpt>
      <trkpt lat="43.96331" lon="5.74253">
        <ele>520</ele>
      </trkpt>
      <trkpt lat="43.96328" lon="5.74264">
        <ele>526</ele>
      </trkpt>
      <trkpt lat="43.96319" lon="5.74257">
        <ele>526</ele>
      </trkpt>
      <trkpt lat="43.96312" lon="5.7425">
        <ele>514</ele>
      </trkpt>
      <trkpt lat="43.96294" lon="5.74233">
        <ele>513</ele>
      </trkpt>
      <trkpt lat="43.9629" lon="5.74232">
        <ele>513</ele>
      </trkpt>
      <trkpt lat="43.96275" lon="5.74229">
        <ele>515</ele>
      </trkpt>
      <trkpt lat="43.96251" lon="5.74232">
        <ele>519</ele>
      </trkpt>
      <trkpt lat="43.96238" lon="5.74233">
        <ele>519</ele>
      </trkpt>
      <trkpt lat="43.96226" lon="5.74237">
        <ele>518</ele>
      </trkpt>
      <trkpt lat="43.96211" lon="5.74244">
        <ele>517</ele>
      </trkpt>
      <trkpt lat="43.96199" lon="5.7425">
        <ele>538</ele>
      </trkpt>
      <trkpt lat="43.96187" lon="5.74251">
        <ele>536</ele>
      </trkpt>
      <trkpt lat="43.96174" lon="5.7425">
        <ele>533</ele>
      </trkpt>
      <trkpt lat="43.9616" lon="5.74255">
        <ele>533</ele>
      </trkpt>
      <trkpt lat="43.96151" lon="5.74258">
        <ele>536</ele>
      </trkpt>
      <trkpt lat="43.96143" lon="5.74264">
        <ele>538</ele>
      </trkpt>
      <trkpt lat="43.96129" lon="5.74269">
        <ele>539</ele>
      </trkpt>
      <trkpt lat="43.96111" lon="5.74274">
        <ele>539</ele>
      </trkpt>
      <trkpt lat="43.96102" lon="5.74281">
        <ele>540</ele>
      </trkpt>
      <trkpt lat="43.96093" lon="5.74287">
        <ele>541</ele>
      </trkpt>
      <trkpt lat="43.96087" lon="5.74305">
        <ele>544</ele>
      </trkpt>
      <trkpt lat="43.9608" lon="5.74313">
        <ele>546</ele>
      </trkpt>
      <trkpt lat="43.96067" lon="5.74326">
        <ele>547</ele>
      </trkpt>
      <trkpt lat="43.96063" lon="5.74329">
        <ele>547</ele>
      </trkpt>
      <trkpt lat="43.96052" lon="5.74334">
        <ele>551</ele>
      </trkpt>
      <trkpt lat="43.9605" lon="5.74338">
        <ele>551</ele>
      </trkpt>
      <trkpt lat="43.96048" lon="5.74342">
        <ele>551</ele>
      </trkpt>
      <trkpt lat="43.96047" lon="5.74343">
        <ele>551</ele>
      </trkpt>
      <trkpt lat="43.96039" lon="5.74354">
        <ele>551</ele>
      </trkpt>
      <trkpt lat="43.96033" lon="5.74371">
        <ele>551</ele>
      </trkpt>
      <trkpt lat="43.96026" lon="5.74394">
        <ele>551</ele>
      </trkpt>
      <trkpt lat="43.9602" lon="5.74407">
        <ele>550</ele>
      </trkpt>
      <trkpt lat="43.96009" lon="5.74441">
        <ele>552</ele>
      </trkpt>
      <trkpt lat="43.96005" lon="5.74452">
        <ele>552</ele>
      </trkpt>
      <trkpt lat="43.95994" lon="5.74482">
        <ele>550</ele>
      </trkpt>
      <trkpt lat="43.95987" lon="5.74503">
        <ele>553</ele>
      </trkpt>
      <trkpt lat="43.95981" lon="5.74548">
        <ele>557</ele>
      </trkpt>
      <trkpt lat="43.95979" lon="5.74566">
        <ele>558</ele>
      </trkpt>
      <trkpt lat="43.95966" lon="5.74586">
        <ele>568</ele>
      </trkpt>
      <trkpt lat="43.95957" lon="5.74602">
        <ele>569</ele>
      </trkpt>
      <trkpt lat="43.95937" lon="5.74618">
        <ele>569</ele>
      </trkpt>
      <trkpt lat="43.95932" lon="5.74621">
        <ele>570</ele>
      </trkpt>
      <trkpt lat="43.9592" lon="5.74639">
        <ele>572</ele>
      </trkpt>
      <trkpt lat="43.95908" lon="5.74647">
        <ele>572</ele>
      </trkpt>
      <trkpt lat="43.95893" lon="5.74661">
        <ele>572</ele>
      </trkpt>
      <trkpt lat="43.9588" lon="5.74667">
        <ele>588</ele>
      </trkpt>
      <trkpt lat="43.95861" lon="5.74672">
        <ele>589</ele>
      </trkpt>
      <trkpt lat="43.95846" lon="5.74677">
        <ele>587</ele>
      </trkpt>
      <trkpt lat="43.95838" lon="5.74679">
        <ele>587</ele>
      </trkpt>
      <trkpt lat="43.9582" lon="5.74685">
        <ele>588</ele>
      </trkpt>
      <trkpt lat="43.95813" lon="5.74683">
        <ele>588</ele>
      </trkpt>
      <trkpt lat="43.95799" lon="5.74686">
        <ele>589</ele>
      </trkpt>
      <trkpt lat="43.95778" lon="5.74692">
        <ele>589</ele>
      </trkpt>
      <trkpt lat="43.95762" lon="5.74705">
        <ele>590</ele>
      </trkpt>
      <trkpt lat="43.95747" lon="5.74718">
        <ele>586</ele>
      </trkpt>
      <trkpt lat="43.95741" lon="5.74732">
        <ele>589</ele>
      </trkpt>
      <trkpt lat="43.95738" lon="5.74742">
        <ele>591</ele>
      </trkpt>
      <trkpt lat="43.95741" lon="5.74762">
        <ele>598</ele>
      </trkpt>
      <trkpt lat="43.95742" lon="5.74771">
        <ele>598</ele>
      </trkpt>
      <trkpt lat="43.95738" lon="5.74815">
        <ele>603</ele>
      </trkpt>
      <trkpt lat="43.95731" lon="5.74849">
        <ele>612</ele>
      </trkpt>
      <trkpt lat="43.95725" lon="5.74876">
        <ele>614</ele>
      </trkpt>
      <trkpt lat="43.95723" lon="5.74884">
        <ele>615</ele>
      </trkpt>
      <trkpt lat="43.95712" lon="5.74911">
        <ele>616</ele>
      </trkpt>
      <trkpt lat="43.95702" lon="5.74931">
        <ele>628</ele>
      </trkpt>
      <trkpt lat="43.95688" lon="5.7494">
        <ele>628</ele>
      </trkpt>
      <trkpt lat="43.95675" lon="5.74943">
        <ele>628</ele>
      </trkpt>
      <trkpt lat="43.95668" lon="5.74945">
        <ele>628</ele>
      </trkpt>
      <trkpt lat="43.95645" lon="5.74949">
        <ele>629</ele>
      </trkpt>
      <trkpt lat="43.95636" lon="5.74953">
        <ele>630</ele>
      </trkpt>
      <trkpt lat="43.95629" lon="5.74955">
        <ele>630</ele>
      </trkpt>
      <trkpt lat="43.95626" lon="5.74956">
        <ele>630</ele>
      </trkpt>
      <trkpt lat="43.95616" lon="5.74959">
        <ele>631</ele>
      </trkpt>
      <trkpt lat="43.95609" lon="5.74959">
        <ele>631</ele>
      </trkpt>
      <trkpt lat="43.95606" lon="5.74959">
        <ele>631</ele>
      </trkpt>
      <trkpt lat="43.95592" lon="5.74959">
        <ele>632</ele>
      </trkpt>
      <trkpt lat="43.95578" lon="5.74957">
        <ele>634</ele>
      </trkpt>
      <trkpt lat="43.95566" lon="5.74959">
        <ele>634</ele>
      </trkpt>
      <trkpt lat="43.95558" lon="5.74969">
        <ele>635</ele>
      </trkpt>
      <trkpt lat="43.95559" lon="5.74984">
        <ele>636</ele>
      </trkpt>
      <trkpt lat="43.95559" lon="5.75001">
        <ele>637</ele>
      </trkpt>
      <trkpt lat="43.95558" lon="5.75016">
        <ele>637</ele>
      </trkpt>
      <trkpt lat="43.95559" lon="5.75033">
        <ele>637</ele>
      </trkpt>
      <trkpt lat="43.95561" lon="5.75047">
        <ele>636</ele>
      </trkpt>
      <trkpt lat="43.9556" lon="5.7507">
        <ele>636</ele>
      </trkpt>
      <trkpt lat="43.9556" lon="5.75085">
        <ele>634</ele>
      </trkpt>
      <trkpt lat="43.95559" lon="5.75104">
        <ele>634</ele>
      </trkpt>
      <trkpt lat="43.95556" lon="5.75127">
        <ele>633</ele>
      </trkpt>
      <trkpt lat="43.95553" lon="5.75147">
        <ele>633</ele>
      </trkpt>
      <trkpt lat="43.95553" lon="5.75166">
        <ele>633</ele>
      </trkpt>
      <trkpt lat="43.95551" lon="5.75184">
        <ele>632</ele>
      </trkpt>
      <trkpt lat="43.95546" lon="5.75212">
        <ele>632</ele>
      </trkpt>
      <trkpt lat="43.95544" lon="5.75232">
        <ele>632</ele>
      </trkpt>
      <trkpt lat="43.95546" lon="5.75249">
        <ele>632</ele>
      </trkpt>
      <trkpt lat="43.95548" lon="5.75263">
        <ele>630</ele>
      </trkpt>
      <trkpt lat="43.9555" lon="5.75273">
        <ele>630</ele>
      </trkpt>
      <trkpt lat="43.9555" lon="5.75276">
        <ele>630</ele>
      </trkpt>
      <trkpt lat="43.9555" lon="5.75291">
        <ele>629</ele>
      </trkpt>
      <trkpt lat="43.9555" lon="5.75306">
        <ele>628</ele>
      </trkpt>
      <trkpt lat="43.95548" lon="5.75313">
        <ele>628</ele>
      </trkpt>
      <trkpt lat="43.95551" lon="5.75328">
        <ele>628</ele>
      </trkpt>
      <trkpt lat="43.95552" lon="5.75343">
        <ele>623</ele>
      </trkpt>
      <trkpt lat="43.95551" lon="5.75353">
        <ele>623</ele>
      </trkpt>
      <trkpt lat="43.95551" lon="5.75365">
        <ele>622</ele>
      </trkpt>
      <trkpt lat="43.9555" lon="5.7537">
        <ele>622</ele>
      </trkpt>
      <trkpt lat="43.9555" lon="5.75379">
        <ele>621</ele>
      </trkpt>
      <trkpt lat="43.95553" lon="5.75389">
        <ele>621</ele>
      </trkpt>
      <trkpt lat="43.95554" lon="5.7539">
        <ele>621</ele>
      </trkpt>
      <trkpt lat="43.95558" lon="5.75393">
        <ele>621</ele>
      </trkpt>
      <trkpt lat="43.95563" lon="5.75396">
        <ele>620</ele>
      </trkpt>
      <trkpt lat="43.95568" lon="5.754">
        <ele>620</ele>
      </trkpt>
      <trkpt lat="43.95572" lon="5.75403">
        <ele>620</ele>
      </trkpt>
      <trkpt lat="43.95576" lon="5.75405">
        <ele>620</ele>
      </trkpt>
      <trkpt lat="43.95576" lon="5.75405">
        <ele>620</ele>
      </trkpt>
      <trkpt lat="43.95587" lon="5.75416">
        <ele>619</ele>
      </trkpt>
      <trkpt lat="43.95596" lon="5.75426">
        <ele>619</ele>
      </trkpt>
      <trkpt lat="43.95608" lon="5.75443">
        <ele>620</ele>
      </trkpt>
      <trkpt lat="43.95615" lon="5.75456">
        <ele>620</ele>
      </trkpt>
      <trkpt lat="43.95626" lon="5.75473">
        <ele>621</ele>
      </trkpt>
      <trkpt lat="43.95632" lon="5.75485">
        <ele>621</ele>
      </trkpt>
      <trkpt lat="43.95648" lon="5.75528">
        <ele>620</ele>
      </trkpt>
      <trkpt lat="43.95659" lon="5.75555">
        <ele>620</ele>
      </trkpt>
      <trkpt lat="43.95664" lon="5.75574">
        <ele>622</ele>
      </trkpt>
      <trkpt lat="43.95671" lon="5.75596">
        <ele>625</ele>
      </trkpt>
      <trkpt lat="43.95676" lon="5.75613">
        <ele>625</ele>
      </trkpt>
      <trkpt lat="43.9568" lon="5.75636">
        <ele>625</ele>
      </trkpt>
      <trkpt lat="43.95687" lon="5.75658">
        <ele>624</ele>
      </trkpt>
      <trkpt lat="43.95695" lon="5.75676">
        <ele>621</ele>
      </trkpt>
      <trkpt lat="43.95703" lon="5.75692">
        <ele>621</ele>
      </trkpt>
      <trkpt lat="43.95707" lon="5.75703">
        <ele>621</ele>
      </trkpt>
      <trkpt lat="43.95714" lon="5.75715">
        <ele>620</ele>
      </trkpt>
      <trkpt lat="43.95719" lon="5.75723">
        <ele>620</ele>
      </trkpt>
      <trkpt lat="43.95723" lon="5.75728">
        <ele>620</ele>
      </trkpt>
      <trkpt lat="43.95726" lon="5.75735">
        <ele>619</ele>
      </trkpt>
      <trkpt lat="43.95728" lon="5.75736">
        <ele>619</ele>
      </trkpt>
      <trkpt lat="43.95739" lon="5.75744">
        <ele>618</ele>
      </trkpt>
      <trkpt lat="43.95749" lon="5.75752">
        <ele>617</ele>
      </trkpt>
      <trkpt lat="43.95758" lon="5.75756">
        <ele>618</ele>
      </trkpt>
      <trkpt lat="43.95767" lon="5.75762">
        <ele>618</ele>
      </trkpt>
      <trkpt lat="43.9577" lon="5.7577">
        <ele>619</ele>
      </trkpt>
      <trkpt lat="43.95778" lon="5.75791">
        <ele>619</ele>
      </trkpt>
      <trkpt lat="43.95783" lon="5.75809">
        <ele>619</ele>
      </trkpt>
      <trkpt lat="43.95777" lon="5.75821">
        <ele>618</ele>
      </trkpt>
      <trkpt lat="43.95772" lon="5.7583">
        <ele>617</ele>
      </trkpt>
      <trkpt lat="43.95782" lon="5.75834">
        <ele>618</ele>
      </trkpt>
      <trkpt lat="43.95793" lon="5.75847">
        <ele>619</ele>
      </trkpt>
      <trkpt lat="43.95799" lon="5.75872">
        <ele>620</ele>
      </trkpt>
      <trkpt lat="43.95805" lon="5.7589">
        <ele>620</ele>
      </trkpt>
      <trkpt lat="43.95811" lon="5.75904">
        <ele>620</ele>
      </trkpt>
      <trkpt lat="43.95816" lon="5.75918">
        <ele>618</ele>
      </trkpt>
      <trkpt lat="43.95816" lon="5.75921">
        <ele>618</ele>
      </trkpt>
      <trkpt lat="43.95816" lon="5.75932">
        <ele>618</ele>
      </trkpt>
      <trkpt lat="43.95825" lon="5.75935">
        <ele>617</ele>
      </trkpt>
      <trkpt lat="43.95835" lon="5.75931">
        <ele>616</ele>
      </trkpt>
      <trkpt lat="43.95849" lon="5.75923">
        <ele>615</ele>
      </trkpt>
      <trkpt lat="43.95858" lon="5.75919">
        <ele>614</ele>
      </trkpt>
      <trkpt lat="43.95869" lon="5.7592">
        <ele>614</ele>
      </trkpt>
      <trkpt lat="43.95882" lon="5.75919">
        <ele>613</ele>
      </trkpt>
      <trkpt lat="43.959" lon="5.75921">
        <ele>613</ele>
      </trkpt>
      <trkpt lat="43.95913" lon="5.75928">
        <ele>613</ele>
      </trkpt>
      <trkpt lat="43.95924" lon="5.75941">
        <ele>614</ele>
      </trkpt>
      <trkpt lat="43.95934" lon="5.75977">
        <ele>613</ele>
      </trkpt>
      <trkpt lat="43.95936" lon="5.76013">
        <ele>609</ele>
      </trkpt>
      <trkpt lat="43.95937" lon="5.76029">
        <ele>609</ele>
      </trkpt>
      <trkpt lat="43.95936" lon="5.7605">
        <ele>609</ele>
      </trkpt>
      <trkpt lat="43.95938" lon="5.76064">
        <ele>608</ele>
      </trkpt>
      <trkpt lat="43.95938" lon="5.76066">
        <ele>608</ele>
      </trkpt>
      <trkpt lat="43.95936" lon="5.76087">
        <ele>604</ele>
      </trkpt>
      <trkpt lat="43.95934" lon="5.76105">
        <ele>604</ele>
      </trkpt>
      <trkpt lat="43.95931" lon="5.76123">
        <ele>603</ele>
      </trkpt>
      <trkpt lat="43.95931" lon="5.76141">
        <ele>602</ele>
      </trkpt>
      <trkpt lat="43.95929" lon="5.76166">
        <ele>600</ele>
      </trkpt>
      <trkpt lat="43.95927" lon="5.76183">
        <ele>597</ele>
      </trkpt>
      <trkpt lat="43.95925" lon="5.762">
        <ele>597</ele>
      </trkpt>
      <trkpt lat="43.95919" lon="5.76223">
        <ele>595</ele>
      </trkpt>
      <trkpt lat="43.95911" lon="5.76247">
        <ele>592</ele>
      </trkpt>
      <trkpt lat="43.95904" lon="5.76273">
        <ele>589</ele>
      </trkpt>
      <trkpt lat="43.95896" lon="5.76293">
        <ele>588</ele>
      </trkpt>
      <trkpt lat="43.95888" lon="5.76315">
        <ele>588</ele>
      </trkpt>
      <trkpt lat="43.95884" lon="5.76337">
        <ele>586</ele>
      </trkpt>
      <trkpt lat="43.95881" lon="5.76359">
        <ele>585</ele>
      </trkpt>
      <trkpt lat="43.95881" lon="5.76373">
        <ele>585</ele>
      </trkpt>
      <trkpt lat="43.95881" lon="5.76388">
        <ele>585</ele>
      </trkpt>
      <trkpt lat="43.95878" lon="5.76399">
        <ele>585</ele>
      </trkpt>
      <trkpt lat="43.95877" lon="5.76404">
        <ele>584</ele>
      </trkpt>
      <trkpt lat="43.95879" lon="5.76408">
        <ele>584</ele>
      </trkpt>
      <trkpt lat="43.9588" lon="5.76412">
        <ele>584</ele>
      </trkpt>
      <trkpt lat="43.95879" lon="5.76423">
        <ele>582</ele>
      </trkpt>
      <trkpt lat="43.95879" lon="5.76426">
        <ele>582</ele>
      </trkpt>
      <trkpt lat="43.95881" lon="5.76437">
        <ele>582</ele>
      </trkpt>
      <trkpt lat="43.95882" lon="5.76445">
        <ele>582</ele>
      </trkpt>
      <trkpt lat="43.95885" lon="5.76456">
        <ele>582</ele>
      </trkpt>
      <trkpt lat="43.95886" lon="5.76461">
        <ele>581</ele>
      </trkpt>
      <trkpt lat="43.95887" lon="5.76467">
        <ele>581</ele>
      </trkpt>
      <trkpt lat="43.95889" lon="5.76476">
        <ele>581</ele>
      </trkpt>
      <trkpt lat="43.95891" lon="5.76482">
        <ele>580</ele>
      </trkpt>
      <trkpt lat="43.95891" lon="5.76485">
        <ele>580</ele>
      </trkpt>
      <trkpt lat="43.95891" lon="5.76494">
        <ele>579</ele>
      </trkpt>
      <trkpt lat="43.95893" lon="5.76507">
        <ele>577</ele>
      </trkpt>
      <trkpt lat="43.95894" lon="5.7652">
        <ele>577</ele>
      </trkpt>
      <trkpt lat="43.95894" lon="5.76526">
        <ele>577</ele>
      </trkpt>
      <trkpt lat="43.95893" lon="5.76531">
        <ele>577</ele>
      </trkpt>
      <trkpt lat="43.95893" lon="5.76533">
        <ele>577</ele>
      </trkpt>
      <trkpt lat="43.95892" lon="5.76543">
        <ele>576</ele>
      </trkpt>
      <trkpt lat="43.95891" lon="5.76552">
        <ele>576</ele>
      </trkpt>
      <trkpt lat="43.95892" lon="5.7656">
        <ele>575</ele>
      </trkpt>
      <trkpt lat="43.95891" lon="5.76568">
        <ele>575</ele>
      </trkpt>
      <trkpt lat="43.95891" lon="5.76574">
        <ele>575</ele>
      </trkpt>
      <trkpt lat="43.9589" lon="5.76581">
        <ele>575</ele>
      </trkpt>
      <trkpt lat="43.95888" lon="5.76589">
        <ele>570</ele>
      </trkpt>
      <trkpt lat="43.95887" lon="5.76598">
        <ele>570</ele>
      </trkpt>
      <trkpt lat="43.95886" lon="5.76606">
        <ele>570</ele>
      </trkpt>
      <trkpt lat="43.95884" lon="5.76615">
        <ele>569</ele>
      </trkpt>
      <trkpt lat="43.95881" lon="5.76623">
        <ele>569</ele>
      </trkpt>
      <trkpt lat="43.95878" lon="5.76631">
        <ele>569</ele>
      </trkpt>
      <trkpt lat="43.95875" lon="5.76639">
        <ele>569</ele>
      </trkpt>
      <trkpt lat="43.95872" lon="5.76646">
        <ele>568</ele>
      </trkpt>
      <trkpt lat="43.9587" lon="5.7665">
        <ele>569</ele>
      </trkpt>
      <trkpt lat="43.95869" lon="5.76657">
        <ele>568</ele>
      </trkpt>
      <trkpt lat="43.95868" lon="5.76661">
        <ele>568</ele>
      </trkpt>
      <trkpt lat="43.95868" lon="5.76666">
        <ele>568</ele>
      </trkpt>
      <trkpt lat="43.95867" lon="5.7667">
        <ele>561</ele>
      </trkpt>
      <trkpt lat="43.95867" lon="5.76677">
        <ele>560</ele>
      </trkpt>
      <trkpt lat="43.95866" lon="5.76681">
        <ele>560</ele>
      </trkpt>
      <trkpt lat="43.95866" lon="5.76687">
        <ele>560</ele>
      </trkpt>
      <trkpt lat="43.95866" lon="5.76692">
        <ele>559</ele>
      </trkpt>
      <trkpt lat="43.95865" lon="5.76697">
        <ele>559</ele>
      </trkpt>
      <trkpt lat="43.95865" lon="5.767">
        <ele>559</ele>
      </trkpt>
      <trkpt lat="43.95866" lon="5.76708">
        <ele>558</ele>
      </trkpt>
      <trkpt lat="43.95866" lon="5.76716">
        <ele>557</ele>
      </trkpt>
      <trkpt lat="43.95866" lon="5.7672">
        <ele>557</ele>
      </trkpt>
      <trkpt lat="43.95866" lon="5.76728">
        <ele>556</ele>
      </trkpt>
      <trkpt lat="43.95867" lon="5.76732">
        <ele>556</ele>
      </trkpt>
      <trkpt lat="43.95869" lon="5.7674">
        <ele>555</ele>
      </trkpt>
      <trkpt lat="43.95873" lon="5.76747">
        <ele>555</ele>
      </trkpt>
      <trkpt lat="43.95877" lon="5.76754">
        <ele>547</ele>
      </trkpt>
      <trkpt lat="43.95879" lon="5.76757">
        <ele>547</ele>
      </trkpt>
      <trkpt lat="43.95881" lon="5.76765">
        <ele>547</ele>
      </trkpt>
      <trkpt lat="43.95882" lon="5.7677">
        <ele>546</ele>
      </trkpt>
      <trkpt lat="43.95883" lon="5.76777">
        <ele>546</ele>
      </trkpt>
      <trkpt lat="43.95884" lon="5.76782">
        <ele>546</ele>
      </trkpt>
      <trkpt lat="43.95887" lon="5.76787">
        <ele>545</ele>
      </trkpt>
      <trkpt lat="43.95889" lon="5.76792">
        <ele>545</ele>
      </trkpt>
      <trkpt lat="43.95889" lon="5.76793">
        <ele>545</ele>
      </trkpt>
      <trkpt lat="43.95892" lon="5.76793">
        <ele>545</ele>
      </trkpt>
      <trkpt lat="43.9589" lon="5.76795">
        <ele>545</ele>
      </trkpt>
      <trkpt lat="43.95891" lon="5.76798">
        <ele>544</ele>
      </trkpt>
      <trkpt lat="43.95889" lon="5.76806">
        <ele>544</ele>
      </trkpt>
      <trkpt lat="43.95888" lon="5.76817">
        <ele>543</ele>
      </trkpt>
      <trkpt lat="43.95888" lon="5.76822">
        <ele>543</ele>
      </trkpt>
      <trkpt lat="43.95887" lon="5.76832">
        <ele>543</ele>
      </trkpt>
      <trkpt lat="43.95886" lon="5.76843">
        <ele>537</ele>
      </trkpt>
      <trkpt lat="43.95885" lon="5.76853">
        <ele>536</ele>
      </trkpt>
      <trkpt lat="43.95884" lon="5.76867">
        <ele>536</ele>
      </trkpt>
      <trkpt lat="43.95881" lon="5.76883">
        <ele>535</ele>
      </trkpt>
      <trkpt lat="43.95878" lon="5.76895">
        <ele>535</ele>
      </trkpt>
      <trkpt lat="43.95877" lon="5.76901">
        <ele>534</ele>
      </trkpt>
      <trkpt lat="43.95874" lon="5.76911">
        <ele>534</ele>
      </trkpt>
      <trkpt lat="43.95871" lon="5.76925">
        <ele>526</ele>
      </trkpt>
      <trkpt lat="43.95866" lon="5.76936">
        <ele>526</ele>
      </trkpt>
      <trkpt lat="43.95862" lon="5.76944">
        <ele>525</ele>
      </trkpt>
      <trkpt lat="43.95858" lon="5.76951">
        <ele>525</ele>
      </trkpt>
      <trkpt lat="43.95854" lon="5.76959">
        <ele>524</ele>
      </trkpt>
      <trkpt lat="43.9585" lon="5.76967">
        <ele>523</ele>
      </trkpt>
      <trkpt lat="43.95847" lon="5.76975">
        <ele>522</ele>
      </trkpt>
      <trkpt lat="43.95842" lon="5.76983">
        <ele>521</ele>
      </trkpt>
      <trkpt lat="43.95838" lon="5.76994">
        <ele>520</ele>
      </trkpt>
      <trkpt lat="43.95836" lon="5.77001">
        <ele>518</ele>
      </trkpt>
      <trkpt lat="43.95833" lon="5.77009">
        <ele>519</ele>
      </trkpt>
      <trkpt lat="43.95831" lon="5.77019">
        <ele>519</ele>
      </trkpt>
      <trkpt lat="43.95829" lon="5.77029">
        <ele>519</ele>
      </trkpt>
      <trkpt lat="43.95835" lon="5.77035">
        <ele>512</ele>
      </trkpt>
      <trkpt lat="43.95842" lon="5.7703">
        <ele>513</ele>
      </trkpt>
      <trkpt lat="43.95847" lon="5.77029">
        <ele>513</ele>
      </trkpt>
      <trkpt lat="43.95849" lon="5.77029">
        <ele>513</ele>
      </trkpt>
      <trkpt lat="43.95858" lon="5.77031">
        <ele>512</ele>
      </trkpt>
      <trkpt lat="43.95869" lon="5.77038">
        <ele>512</ele>
      </trkpt>
      <trkpt lat="43.95873" lon="5.77041">
        <ele>511</ele>
      </trkpt>
      <trkpt lat="43.95876" lon="5.77044">
        <ele>511</ele>
      </trkpt>
      <trkpt lat="43.95885" lon="5.7705">
        <ele>511</ele>
      </trkpt>
      <trkpt lat="43.95897" lon="5.77053">
        <ele>510</ele>
      </trkpt>
      <trkpt lat="43.95904" lon="5.77059">
        <ele>510</ele>
      </trkpt>
      <trkpt lat="43.95906" lon="5.77059">
        <ele>510</ele>
      </trkpt>
      <trkpt lat="43.95915" lon="5.77066">
        <ele>509</ele>
      </trkpt>
      <trkpt lat="43.95922" lon="5.7708">
        <ele>509</ele>
      </trkpt>
      <trkpt lat="43.95916" lon="5.77109">
        <ele>510</ele>
      </trkpt>
      <trkpt lat="43.95909" lon="5.77122">
        <ele>511</ele>
      </trkpt>
      <trkpt lat="43.9589" lon="5.77163">
        <ele>513</ele>
      </trkpt>
      <trkpt lat="43.95881" lon="5.77178">
        <ele>520</ele>
      </trkpt>
      <trkpt lat="43.95873" lon="5.7719">
        <ele>520</ele>
      </trkpt>
      <trkpt lat="43.9586" lon="5.7721">
        <ele>521</ele>
      </trkpt>
      <trkpt lat="43.95851" lon="5.77218">
        <ele>521</ele>
      </trkpt>
      <trkpt lat="43.95827" lon="5.77232">
        <ele>516</ele>
      </trkpt>
      <trkpt lat="43.95819" lon="5.77239">
        <ele>516</ele>
      </trkpt>
      <trkpt lat="43.95796" lon="5.77259">
        <ele>526</ele>
      </trkpt>
      <trkpt lat="43.95779" lon="5.77272">
        <ele>525</ele>
      </trkpt>
      <trkpt lat="43.95762" lon="5.77283">
        <ele>526</ele>
      </trkpt>
      <trkpt lat="43.95741" lon="5.77294">
        <ele>521</ele>
      </trkpt>
      <trkpt lat="43.95737" lon="5.77297">
        <ele>521</ele>
      </trkpt>
      <trkpt lat="43.95744" lon="5.77302">
        <ele>523</ele>
      </trkpt>
      <trkpt lat="43.9575" lon="5.77301">
        <ele>523</ele>
      </trkpt>
      <trkpt lat="43.9575" lon="5.77307">
        <ele>531</ele>
      </trkpt>
      <trkpt lat="43.95737" lon="5.77315">
        <ele>526</ele>
      </trkpt>
      <trkpt lat="43.9572" lon="5.77323">
        <ele>524</ele>
      </trkpt>
      <trkpt lat="43.95706" lon="5.77329">
        <ele>522</ele>
      </trkpt>
      <trkpt lat="43.95701" lon="5.77335">
        <ele>532</ele>
      </trkpt>
      <trkpt lat="43.95692" lon="5.77334">
        <ele>530</ele>
      </trkpt>
      <trkpt lat="43.95682" lon="5.77335">
        <ele>529</ele>
      </trkpt>
      <trkpt lat="43.95675" lon="5.77339">
        <ele>527</ele>
      </trkpt>
      <trkpt lat="43.95665" lon="5.77346">
        <ele>524</ele>
      </trkpt>
      <trkpt lat="43.95655" lon="5.77349">
        <ele>524</ele>
      </trkpt>
      <trkpt lat="43.95646" lon="5.77352">
        <ele>524</ele>
      </trkpt>
      <trkpt lat="43.95634" lon="5.77356">
        <ele>523</ele>
      </trkpt>
      <trkpt lat="43.95629" lon="5.77358">
        <ele>523</ele>
      </trkpt>
      <trkpt lat="43.95626" lon="5.77368">
        <ele>523</ele>
      </trkpt>
      <trkpt lat="43.95626" lon="5.77374">
        <ele>523</ele>
      </trkpt>
      <trkpt lat="43.95623" lon="5.77388">
        <ele>524</ele>
      </trkpt>
      <trkpt lat="43.95616" lon="5.77393">
        <ele>524</ele>
      </trkpt>
      <trkpt lat="43.95609" lon="5.77397">
        <ele>524</ele>
      </trkpt>
      <trkpt lat="43.95607" lon="5.77411">
        <ele>524</ele>
      </trkpt>
      <trkpt lat="43.95602" lon="5.77426">
        <ele>526</ele>
      </trkpt>
      <trkpt lat="43.95601" lon="5.77427">
        <ele>526</ele>
      </trkpt>
      <trkpt lat="43.95592" lon="5.77432">
        <ele>526</ele>
      </trkpt>
      <trkpt lat="43.95587" lon="5.77434">
        <ele>526</ele>
      </trkpt>
      <trkpt lat="43.95582" lon="5.77437">
        <ele>522</ele>
      </trkpt>
      <trkpt lat="43.95576" lon="5.77442">
        <ele>522</ele>
      </trkpt>
      <trkpt lat="43.95574" lon="5.77447">
        <ele>522</ele>
      </trkpt>
      <trkpt lat="43.95573" lon="5.77452">
        <ele>522</ele>
      </trkpt>
      <trkpt lat="43.95566" lon="5.77459">
        <ele>521</ele>
      </trkpt>
      <trkpt lat="43.95576" lon="5.77489">
        <ele>522</ele>
      </trkpt>
      <trkpt lat="43.95601" lon="5.77556">
        <ele>526</ele>
      </trkpt>
      <trkpt lat="43.95604" lon="5.77564">
        <ele>526</ele>
      </trkpt>
      <trkpt lat="43.9562" lon="5.77585">
        <ele>525</ele>
      </trkpt>
      <trkpt lat="43.95626" lon="5.77589">
        <ele>525</ele>
      </trkpt>
      <trkpt lat="43.95668" lon="5.77606">
        <ele>529</ele>
      </trkpt>
      <trkpt lat="43.957" lon="5.77618">
        <ele>530</ele>
      </trkpt>
      <trkpt lat="43.95723" lon="5.77627">
        <ele>530</ele>
      </trkpt>
      <trkpt lat="43.95745" lon="5.77635">
        <ele>531</ele>
      </trkpt>
      <trkpt lat="43.95769" lon="5.77648">
        <ele>535</ele>
      </trkpt>
      <trkpt lat="43.95777" lon="5.77655">
        <ele>535</ele>
      </trkpt>
      <trkpt lat="43.958" lon="5.77689">
        <ele>534</ele>
      </trkpt>
      <trkpt lat="43.95806" lon="5.77707">
        <ele>534</ele>
      </trkpt>
      <trkpt lat="43.9581" lon="5.77741">
        <ele>534</ele>
      </trkpt>
      <trkpt lat="43.95809" lon="5.77755">
        <ele>533</ele>
      </trkpt>
      <trkpt lat="43.958" lon="5.77817">
        <ele>533</ele>
      </trkpt>
      <trkpt lat="43.95779" lon="5.77888">
        <ele>539</ele>
      </trkpt>
      <trkpt lat="43.95778" lon="5.77913">
        <ele>540</ele>
      </trkpt>
      <trkpt lat="43.95797" lon="5.7794">
        <ele>549</ele>
      </trkpt>
      <trkpt lat="43.95815" lon="5.77946">
        <ele>549</ele>
      </trkpt>
      <trkpt lat="43.95839" lon="5.77955">
        <ele>548</ele>
      </trkpt>
      <trkpt lat="43.95845" lon="5.77957">
        <ele>548</ele>
      </trkpt>
      <trkpt lat="43.95872" lon="5.7798">
        <ele>549</ele>
      </trkpt>
      <trkpt lat="43.95875" lon="5.77986">
        <ele>549</ele>
      </trkpt>
      <trkpt lat="43.959" lon="5.78027">
        <ele>556</ele>
      </trkpt>
      <trkpt lat="43.95916" lon="5.78048">
        <ele>557</ele>
      </trkpt>
      <trkpt lat="43.95945" lon="5.78083">
        <ele>554</ele>
      </trkpt>
      <trkpt lat="43.95945" lon="5.78083">
        <ele>554</ele>
      </trkpt>
      <trkpt lat="43.95946" lon="5.78081">
        <ele>554</ele>
      </trkpt>
      <trkpt lat="43.95949" lon="5.78077">
        <ele>554</ele>
      </trkpt>
      <trkpt lat="43.95954" lon="5.78075">
        <ele>554</ele>
      </trkpt>
      <trkpt lat="43.95954" lon="5.78074">
        <ele>553</ele>
      </trkpt>
      <trkpt lat="43.95959" lon="5.78069">
        <ele>553</ele>
      </trkpt>
      <trkpt lat="43.95963" lon="5.78066">
        <ele>553</ele>
      </trkpt>
      <trkpt lat="43.95963" lon="5.78066">
        <ele>553</ele>
      </trkpt>
      <trkpt lat="43.95962" lon="5.78063">
        <ele>553</ele>
      </trkpt>
      <trkpt lat="43.95964" lon="5.78062">
        <ele>553</ele>
      </trkpt>
      <trkpt lat="43.95976" lon="5.78049">
        <ele>552</ele>
      </trkpt>
      <trkpt lat="43.95988" lon="5.78037">
        <ele>552</ele>
      </trkpt>
      <trkpt lat="43.96008" lon="5.78013">
        <ele>550</ele>
      </trkpt>
      <trkpt lat="43.96017" lon="5.78004">
        <ele>550</ele>
      </trkpt>
      <trkpt lat="43.9602" lon="5.78014">
        <ele>550</ele>
      </trkpt>
      <trkpt lat="43.96021" lon="5.78016">
        <ele>550</ele>
      </trkpt>
      <trkpt lat="43.96028" lon="5.78029">
        <ele>551</ele>
      </trkpt>
      <trkpt lat="43.96045" lon="5.7805">
        <ele>551</ele>
      </trkpt>
      <trkpt lat="43.96061" lon="5.78071">
        <ele>551</ele>
      </trkpt>
      <trkpt lat="43.96078" lon="5.78088">
        <ele>551</ele>
      </trkpt>
      <trkpt lat="43.96094" lon="5.78108">
        <ele>550</ele>
      </trkpt>
      <trkpt lat="43.9611" lon="5.78126">
        <ele>550</ele>
      </trkpt>
      <trkpt lat="43.96137" lon="5.78144">
        <ele>549</ele>
      </trkpt>
      <trkpt lat="43.96162" lon="5.78167">
        <ele>548</ele>
      </trkpt>
      <trkpt lat="43.96181" lon="5.78193">
        <ele>548</ele>
      </trkpt>
      <trkpt lat="43.96202" lon="5.78218">
        <ele>548</ele>
      </trkpt>
      <trkpt lat="43.96222" lon="5.78239">
        <ele>548</ele>
      </trkpt>
      <trkpt lat="43.96232" lon="5.78256">
        <ele>547</ele>
      </trkpt>
      <trkpt lat="43.96235" lon="5.7826">
        <ele>547</ele>
      </trkpt>
      <trkpt lat="43.96257" lon="5.78299">
        <ele>550</ele>
      </trkpt>
      <trkpt lat="43.96266" lon="5.78319">
        <ele>550</ele>
      </trkpt>
      <trkpt lat="43.96277" lon="5.78335">
        <ele>548</ele>
      </trkpt>
      <trkpt lat="43.96304" lon="5.78371">
        <ele>548</ele>
      </trkpt>
      <trkpt lat="43.96333" lon="5.7841">
        <ele>548</ele>
      </trkpt>
      <trkpt lat="43.96357" lon="5.78443">
        <ele>550</ele>
      </trkpt>
      <trkpt lat="43.96381" lon="5.78477">
        <ele>551</ele>
      </trkpt>
      <trkpt lat="43.96405" lon="5.78508">
        <ele>551</ele>
      </trkpt>
      <trkpt lat="43.96416" lon="5.78528">
        <ele>550</ele>
      </trkpt>
      <trkpt lat="43.96417" lon="5.78546">
        <ele>552</ele>
      </trkpt>
      <trkpt lat="43.964" lon="5.78572">
        <ele>548</ele>
      </trkpt>
      <trkpt lat="43.96389" lon="5.78587">
        <ele>546</ele>
      </trkpt>
      <trkpt lat="43.96375" lon="5.78606">
        <ele>545</ele>
      </trkpt>
      <trkpt lat="43.96365" lon="5.7862">
        <ele>545</ele>
      </trkpt>
      <trkpt lat="43.96361" lon="5.78641">
        <ele>544</ele>
      </trkpt>
      <trkpt lat="43.96369" lon="5.7866">
        <ele>544</ele>
      </trkpt>
      <trkpt lat="43.96393" lon="5.78667">
        <ele>542</ele>
      </trkpt>
      <trkpt lat="43.96422" lon="5.78675">
        <ele>545</ele>
      </trkpt>
      <trkpt lat="43.96442" lon="5.78687">
        <ele>546</ele>
      </trkpt>
      <trkpt lat="43.96455" lon="5.78693">
        <ele>546</ele>
      </trkpt>
      <trkpt lat="43.96475" lon="5.78695">
        <ele>547</ele>
      </trkpt>
      <trkpt lat="43.96493" lon="5.78695">
        <ele>548</ele>
      </trkpt>
      <trkpt lat="43.96499" lon="5.78693">
        <ele>548</ele>
      </trkpt>
      <trkpt lat="43.96511" lon="5.78691">
        <ele>553</ele>
      </trkpt>
      <trkpt lat="43.96535" lon="5.78691">
        <ele>555</ele>
      </trkpt>
      <trkpt lat="43.96574" lon="5.78699">
        <ele>557</ele>
      </trkpt>
      <trkpt lat="43.96613" lon="5.78702">
        <ele>564</ele>
      </trkpt>
      <trkpt lat="43.9662" lon="5.78703">
        <ele>564</ele>
      </trkpt>
      <trkpt lat="43.96661" lon="5.78709">
        <ele>566</ele>
      </trkpt>
      <trkpt lat="43.96666" lon="5.7871">
        <ele>566</ele>
      </trkpt>
      <trkpt lat="43.9667" lon="5.78713">
        <ele>571</ele>
      </trkpt>
      <trkpt lat="43.96694" lon="5.7874">
        <ele>572</ele>
      </trkpt>
      <trkpt lat="43.96705" lon="5.78747">
        <ele>573</ele>
      </trkpt>
      <trkpt lat="43.96721" lon="5.78757">
        <ele>574</ele>
      </trkpt>
      <trkpt lat="43.96742" lon="5.78769">
        <ele>575</ele>
      </trkpt>
      <trkpt lat="43.96767" lon="5.7878">
        <ele>580</ele>
      </trkpt>
      <trkpt lat="43.96788" lon="5.78794">
        <ele>580</ele>
      </trkpt>
      <trkpt lat="43.96799" lon="5.78803">
        <ele>581</ele>
      </trkpt>
      <trkpt lat="43.96809" lon="5.78822">
        <ele>581</ele>
      </trkpt>
      <trkpt lat="43.96816" lon="5.78839">
        <ele>579</ele>
      </trkpt>
      <trkpt lat="43.96826" lon="5.78853">
        <ele>578</ele>
      </trkpt>
      <trkpt lat="43.96841" lon="5.7887">
        <ele>581</ele>
      </trkpt>
      <trkpt lat="43.96859" lon="5.78889">
        <ele>580</ele>
      </trkpt>
      <trkpt lat="43.96872" lon="5.789">
        <ele>580</ele>
      </trkpt>
      <trkpt lat="43.96884" lon="5.78927">
        <ele>577</ele>
      </trkpt>
      <trkpt lat="43.969" lon="5.78949">
        <ele>577</ele>
      </trkpt>
      <trkpt lat="43.96907" lon="5.78956">
        <ele>577</ele>
      </trkpt>
      <trkpt lat="43.96908" lon="5.7896">
        <ele>577</ele>
      </trkpt>
      <trkpt lat="43.96909" lon="5.78965">
        <ele>577</ele>
      </trkpt>
      <trkpt lat="43.96905" lon="5.78975">
        <ele>576</ele>
      </trkpt>
      <trkpt lat="43.96907" lon="5.78978">
        <ele>576</ele>
      </trkpt>
      <trkpt lat="43.96914" lon="5.78972">
        <ele>577</ele>
      </trkpt>
      <trkpt lat="43.96917" lon="5.78971">
        <ele>577</ele>
      </trkpt>
      <trkpt lat="43.9692" lon="5.78968">
        <ele>572</ele>
      </trkpt>
      <trkpt lat="43.96922" lon="5.78967">
        <ele>572</ele>
      </trkpt>
      <trkpt lat="43.96927" lon="5.78964">
        <ele>572</ele>
      </trkpt>
      <trkpt lat="43.9694" lon="5.78965">
        <ele>570</ele>
      </trkpt>
      <trkpt lat="43.96956" lon="5.78966">
        <ele>568</ele>
      </trkpt>
      <trkpt lat="43.96967" lon="5.78962">
        <ele>567</ele>
      </trkpt>
      <trkpt lat="43.96971" lon="5.78947">
        <ele>567</ele>
      </trkpt>
      <trkpt lat="43.96981" lon="5.78921">
        <ele>567</ele>
      </trkpt>
      <trkpt lat="43.9699" lon="5.78903">
        <ele>571</ele>
      </trkpt>
      <trkpt lat="43.96998" lon="5.78884">
        <ele>574</ele>
      </trkpt>
      <trkpt lat="43.97003" lon="5.78861">
        <ele>563</ele>
      </trkpt>
      <trkpt lat="43.97013" lon="5.78817">
        <ele>571</ele>
      </trkpt>
      <trkpt lat="43.97036" lon="5.78765">
        <ele>569</ele>
      </trkpt>
      <trkpt lat="43.97047" lon="5.78751">
        <ele>566</ele>
      </trkpt>
      <trkpt lat="43.97058" lon="5.78733">
        <ele>571</ele>
      </trkpt>
      <trkpt lat="43.97067" lon="5.78717">
        <ele>572</ele>
      </trkpt>
      <trkpt lat="43.97079" lon="5.78697">
        <ele>573</ele>
      </trkpt>
      <trkpt lat="43.97081" lon="5.78676">
        <ele>572</ele>
      </trkpt>
      <trkpt lat="43.97081" lon="5.78657">
        <ele>576</ele>
      </trkpt>
      <trkpt lat="43.97089" lon="5.7864">
        <ele>569</ele>
      </trkpt>
      <trkpt lat="43.97093" lon="5.7862">
        <ele>570</ele>
      </trkpt>
      <trkpt lat="43.971" lon="5.78607">
        <ele>572</ele>
      </trkpt>
      <trkpt lat="43.97107" lon="5.78606">
        <ele>571</ele>
      </trkpt>
      <trkpt lat="43.9712" lon="5.78598">
        <ele>569</ele>
      </trkpt>
      <trkpt lat="43.97129" lon="5.78587">
        <ele>568</ele>
      </trkpt>
      <trkpt lat="43.97139" lon="5.78583">
        <ele>575</ele>
      </trkpt>
      <trkpt lat="43.97155" lon="5.78584">
        <ele>564</ele>
      </trkpt>
      <trkpt lat="43.97165" lon="5.78577">
        <ele>567</ele>
      </trkpt>
      <trkpt lat="43.97171" lon="5.78561">
        <ele>566</ele>
      </trkpt>
      <trkpt lat="43.97183" lon="5.78547">
        <ele>568</ele>
      </trkpt>
      <trkpt lat="43.97203" lon="5.78525">
        <ele>569</ele>
      </trkpt>
      <trkpt lat="43.97226" lon="5.78507">
        <ele>568</ele>
      </trkpt>
      <trkpt lat="43.97245" lon="5.78487">
        <ele>571</ele>
      </trkpt>
      <trkpt lat="43.97248" lon="5.78483">
        <ele>572</ele>
      </trkpt>
      <trkpt lat="43.97258" lon="5.78485">
        <ele>571</ele>
      </trkpt>
      <trkpt lat="43.97259" lon="5.78488">
        <ele>571</ele>
      </trkpt>
      <trkpt lat="43.97258" lon="5.78509">
        <ele>569</ele>
      </trkpt>
      <trkpt lat="43.97255" lon="5.78529">
        <ele>572</ele>
      </trkpt>
      <trkpt lat="43.97253" lon="5.78545">
        <ele>572</ele>
      </trkpt>
      <trkpt lat="43.97248" lon="5.78562">
        <ele>566</ele>
      </trkpt>
      <trkpt lat="43.97241" lon="5.78583">
        <ele>565</ele>
      </trkpt>
      <trkpt lat="43.97235" lon="5.78605">
        <ele>563</ele>
      </trkpt>
      <trkpt lat="43.97231" lon="5.78616">
        <ele>562</ele>
      </trkpt>
      <trkpt lat="43.97225" lon="5.78623">
        <ele>562</ele>
      </trkpt>
      <trkpt lat="43.97224" lon="5.78622">
        <ele>562</ele>
      </trkpt>
      <trkpt lat="43.97225" lon="5.78622">
        <ele>562</ele>
      </trkpt>
      <trkpt lat="43.97226" lon="5.78618">
        <ele>562</ele>
      </trkpt>
      <trkpt lat="43.9722" lon="5.78628">
        <ele>562</ele>
      </trkpt>
      <trkpt lat="43.97214" lon="5.78642">
        <ele>561</ele>
      </trkpt>
      <trkpt lat="43.97205" lon="5.78661">
        <ele>560</ele>
      </trkpt>
      <trkpt lat="43.97204" lon="5.78663">
        <ele>560</ele>
      </trkpt>
      <trkpt lat="43.97197" lon="5.78674">
        <ele>557</ele>
      </trkpt>
      <trkpt lat="43.97192" lon="5.7868">
        <ele>556</ele>
      </trkpt>
      <trkpt lat="43.97185" lon="5.78694">
        <ele>556</ele>
      </trkpt>
      <trkpt lat="43.97177" lon="5.78713">
        <ele>556</ele>
      </trkpt>
      <trkpt lat="43.9717" lon="5.78732">
        <ele>554</ele>
      </trkpt>
      <trkpt lat="43.97163" lon="5.78752">
        <ele>549</ele>
      </trkpt>
      <trkpt lat="43.97156" lon="5.78777">
        <ele>548</ele>
      </trkpt>
      <trkpt lat="43.97148" lon="5.788">
        <ele>548</ele>
      </trkpt>
      <trkpt lat="43.97136" lon="5.78842">
        <ele>544</ele>
      </trkpt>
      <trkpt lat="43.97136" lon="5.78872">
        <ele>543</ele>
      </trkpt>
      <trkpt lat="43.97141" lon="5.78892">
        <ele>543</ele>
      </trkpt>
      <trkpt lat="43.97146" lon="5.78903">
        <ele>544</ele>
      </trkpt>
      <trkpt lat="43.97154" lon="5.78905">
        <ele>544</ele>
      </trkpt>
      <trkpt lat="43.97175" lon="5.78897">
        <ele>550</ele>
      </trkpt>
      <trkpt lat="43.9719" lon="5.78895">
        <ele>552</ele>
      </trkpt>
      <trkpt lat="43.97222" lon="5.78888">
        <ele>555</ele>
      </trkpt>
      <trkpt lat="43.9724" lon="5.78888">
        <ele>556</ele>
      </trkpt>
      <trkpt lat="43.97252" lon="5.78894">
        <ele>562</ele>
      </trkpt>
      <trkpt lat="43.97269" lon="5.789">
        <ele>562</ele>
      </trkpt>
      <trkpt lat="43.97286" lon="5.78908">
        <ele>563</ele>
      </trkpt>
      <trkpt lat="43.97315" lon="5.78913">
        <ele>564</ele>
      </trkpt>
      <trkpt lat="43.97329" lon="5.78907">
        <ele>564</ele>
      </trkpt>
      <trkpt lat="43.97339" lon="5.78897">
        <ele>564</ele>
      </trkpt>
      <trkpt lat="43.97349" lon="5.78891">
        <ele>564</ele>
      </trkpt>
      <trkpt lat="43.97359" lon="5.78885">
        <ele>564</ele>
      </trkpt>
      <trkpt lat="43.97371" lon="5.78879">
        <ele>564</ele>
      </trkpt>
      <trkpt lat="43.97384" lon="5.78875">
        <ele>564</ele>
      </trkpt>
      <trkpt lat="43.97393" lon="5.78871">
        <ele>564</ele>
      </trkpt>
      <trkpt lat="43.97409" lon="5.78862">
        <ele>565</ele>
      </trkpt>
      <trkpt lat="43.97423" lon="5.78855">
        <ele>560</ele>
      </trkpt>
      <trkpt lat="43.97436" lon="5.78849">
        <ele>560</ele>
      </trkpt>
      <trkpt lat="43.97449" lon="5.78842">
        <ele>558</ele>
      </trkpt>
      <trkpt lat="43.97462" lon="5.78829">
        <ele>566</ele>
      </trkpt>
      <trkpt lat="43.97476" lon="5.78813">
        <ele>566</ele>
      </trkpt>
      <trkpt lat="43.97486" lon="5.78804">
        <ele>566</ele>
      </trkpt>
      <trkpt lat="43.97499" lon="5.7879">
        <ele>567</ele>
      </trkpt>
      <trkpt lat="43.97503" lon="5.78782">
        <ele>564</ele>
      </trkpt>
      <trkpt lat="43.97511" lon="5.78772">
        <ele>566</ele>
      </trkpt>
      <trkpt lat="43.97517" lon="5.78773">
        <ele>565</ele>
      </trkpt>
      <trkpt lat="43.97529" lon="5.78766">
        <ele>565</ele>
      </trkpt>
      <trkpt lat="43.97541" lon="5.78758">
        <ele>565</ele>
      </trkpt>
      <trkpt lat="43.97546" lon="5.78751">
        <ele>565</ele>
      </trkpt>
      <trkpt lat="43.97553" lon="5.78744">
        <ele>573</ele>
      </trkpt>
      <trkpt lat="43.97564" lon="5.78736">
        <ele>573</ele>
      </trkpt>
      <trkpt lat="43.97571" lon="5.78737">
        <ele>572</ele>
      </trkpt>
      <trkpt lat="43.97572" lon="5.78739">
        <ele>571</ele>
      </trkpt>
      <trkpt lat="43.97573" lon="5.78745">
        <ele>570</ele>
      </trkpt>
      <trkpt lat="43.97571" lon="5.7877">
        <ele>565</ele>
      </trkpt>
      <trkpt lat="43.97568" lon="5.78796">
        <ele>564</ele>
      </trkpt>
      <trkpt lat="43.97569" lon="5.78806">
        <ele>564</ele>
      </trkpt>
      <trkpt lat="43.97575" lon="5.78817">
        <ele>565</ele>
      </trkpt>
      <trkpt lat="43.97589" lon="5.78845">
        <ele>568</ele>
      </trkpt>
      <trkpt lat="43.97591" lon="5.78849">
        <ele>568</ele>
      </trkpt>
      <trkpt lat="43.97604" lon="5.78855">
        <ele>569</ele>
      </trkpt>
      <trkpt lat="43.97619" lon="5.78871">
        <ele>570</ele>
      </trkpt>
      <trkpt lat="43.97628" lon="5.78884">
        <ele>570</ele>
      </trkpt>
      <trkpt lat="43.97642" lon="5.78887">
        <ele>571</ele>
      </trkpt>
      <trkpt lat="43.9765" lon="5.7889">
        <ele>571</ele>
      </trkpt>
      <trkpt lat="43.97667" lon="5.78892">
        <ele>571</ele>
      </trkpt>
      <trkpt lat="43.97681" lon="5.78892">
        <ele>577</ele>
      </trkpt>
      <trkpt lat="43.97697" lon="5.78887">
        <ele>578</ele>
      </trkpt>
      <trkpt lat="43.97711" lon="5.78879">
        <ele>580</ele>
      </trkpt>
      <trkpt lat="43.97723" lon="5.78874">
        <ele>580</ele>
      </trkpt>
      <trkpt lat="43.97738" lon="5.78867">
        <ele>581</ele>
      </trkpt>
      <trkpt lat="43.97747" lon="5.78869">
        <ele>581</ele>
      </trkpt>
      <trkpt lat="43.97752" lon="5.78872">
        <ele>585</ele>
      </trkpt>
      <trkpt lat="43.97769" lon="5.78878">
        <ele>585</ele>
      </trkpt>
      <trkpt lat="43.9779" lon="5.78879">
        <ele>587</ele>
      </trkpt>
      <trkpt lat="43.97804" lon="5.78876">
        <ele>588</ele>
      </trkpt>
      <trkpt lat="43.97813" lon="5.78871">
        <ele>588</ele>
      </trkpt>
      <trkpt lat="43.97818" lon="5.78875">
        <ele>588</ele>
      </trkpt>
      <trkpt lat="43.97824" lon="5.78898">
        <ele>589</ele>
      </trkpt>
      <trkpt lat="43.97832" lon="5.78909">
        <ele>590</ele>
      </trkpt>
      <trkpt lat="43.97835" lon="5.78908">
        <ele>593</ele>
      </trkpt>
      <trkpt lat="43.97851" lon="5.78903">
        <ele>595</ele>
      </trkpt>
      <trkpt lat="43.97866" lon="5.78902">
        <ele>597</ele>
      </trkpt>
      <trkpt lat="43.97882" lon="5.78904">
        <ele>598</ele>
      </trkpt>
      <trkpt lat="43.97893" lon="5.78905">
        <ele>599</ele>
      </trkpt>
      <trkpt lat="43.97903" lon="5.78911">
        <ele>601</ele>
      </trkpt>
      <trkpt lat="43.9791" lon="5.78924">
        <ele>601</ele>
      </trkpt>
      <trkpt lat="43.97917" lon="5.78935">
        <ele>600</ele>
      </trkpt>
      <trkpt lat="43.97924" lon="5.78946">
        <ele>600</ele>
      </trkpt>
      <trkpt lat="43.97932" lon="5.78961">
        <ele>599</ele>
      </trkpt>
      <trkpt lat="43.97934" lon="5.78973">
        <ele>599</ele>
      </trkpt>
      <trkpt lat="43.97934" lon="5.78973">
        <ele>599</ele>
      </trkpt>
      <trkpt lat="43.97932" lon="5.78976">
        <ele>599</ele>
      </trkpt>
      <trkpt lat="43.97933" lon="5.78975">
        <ele>599</ele>
      </trkpt>
      <trkpt lat="43.97935" lon="5.78972">
        <ele>599</ele>
      </trkpt>
      <trkpt lat="43.97954" lon="5.78949">
        <ele>600</ele>
      </trkpt>
      <trkpt lat="43.97958" lon="5.78932">
        <ele>600</ele>
      </trkpt>
      <trkpt lat="43.97963" lon="5.78892">
        <ele>606</ele>
      </trkpt>
      <trkpt lat="43.97965" lon="5.78872">
        <ele>607</ele>
      </trkpt>
      <trkpt lat="43.9797" lon="5.78828">
        <ele>612</ele>
      </trkpt>
      <trkpt lat="43.97967" lon="5.78781">
        <ele>613</ele>
      </trkpt>
      <trkpt lat="43.97969" lon="5.78766">
        <ele>614</ele>
      </trkpt>
      <trkpt lat="43.97972" lon="5.78761">
        <ele>614</ele>
      </trkpt>
      <trkpt lat="43.97991" lon="5.78745">
        <ele>619</ele>
      </trkpt>
      <trkpt lat="43.97997" lon="5.78733">
        <ele>619</ele>
      </trkpt>
      <trkpt lat="43.98001" lon="5.78722">
        <ele>617</ele>
      </trkpt>
      <trkpt lat="43.98006" lon="5.78709">
        <ele>617</ele>
      </trkpt>
      <trkpt lat="43.98012" lon="5.78694">
        <ele>618</ele>
      </trkpt>
      <trkpt lat="43.98029" lon="5.78661">
        <ele>620</ele>
      </trkpt>
      <trkpt lat="43.98034" lon="5.78649">
        <ele>619</ele>
      </trkpt>
      <trkpt lat="43.9804" lon="5.78633">
        <ele>619</ele>
      </trkpt>
      <trkpt lat="43.98044" lon="5.78622">
        <ele>619</ele>
      </trkpt>
      <trkpt lat="43.98042" lon="5.78598">
        <ele>620</ele>
      </trkpt>
      <trkpt lat="43.98042" lon="5.78578">
        <ele>623</ele>
      </trkpt>
      <trkpt lat="43.98042" lon="5.7856">
        <ele>624</ele>
      </trkpt>
      <trkpt lat="43.98033" lon="5.78546">
        <ele>625</ele>
      </trkpt>
      <trkpt lat="43.98019" lon="5.78528">
        <ele>627</ele>
      </trkpt>
      <trkpt lat="43.97997" lon="5.7852">
        <ele>634</ele>
      </trkpt>
      <trkpt lat="43.97986" lon="5.78514">
        <ele>634</ele>
      </trkpt>
      <trkpt lat="43.97983" lon="5.78512">
        <ele>633</ele>
      </trkpt>
      <trkpt lat="43.97975" lon="5.78503">
        <ele>633</ele>
      </trkpt>
      <trkpt lat="43.97965" lon="5.7849">
        <ele>637</ele>
      </trkpt>
      <trkpt lat="43.97962" lon="5.78465">
        <ele>637</ele>
      </trkpt>
      <trkpt lat="43.97961" lon="5.7845">
        <ele>638</ele>
      </trkpt>
      <trkpt lat="43.97963" lon="5.78436">
        <ele>638</ele>
      </trkpt>
      <trkpt lat="43.97966" lon="5.78417">
        <ele>639</ele>
      </trkpt>
      <trkpt lat="43.97969" lon="5.78404">
        <ele>643</ele>
      </trkpt>
      <trkpt lat="43.97969" lon="5.78398">
        <ele>644</ele>
      </trkpt>
      <trkpt lat="43.97972" lon="5.78375">
        <ele>645</ele>
      </trkpt>
      <trkpt lat="43.97976" lon="5.78341">
        <ele>646</ele>
      </trkpt>
      <trkpt lat="43.97972" lon="5.783">
        <ele>654</ele>
      </trkpt>
      <trkpt lat="43.97973" lon="5.78271">
        <ele>656</ele>
      </trkpt>
      <trkpt lat="43.97982" lon="5.78252">
        <ele>657</ele>
      </trkpt>
      <trkpt lat="43.97997" lon="5.78239">
        <ele>661</ele>
      </trkpt>
      <trkpt lat="43.98006" lon="5.78231">
        <ele>654</ele>
      </trkpt>
      <trkpt lat="43.98017" lon="5.7822">
        <ele>652</ele>
      </trkpt>
      <trkpt lat="43.9802" lon="5.78192">
        <ele>654</ele>
      </trkpt>
      <trkpt lat="43.98021" lon="5.78169">
        <ele>657</ele>
      </trkpt>
      <trkpt lat="43.9802" lon="5.78153">
        <ele>661</ele>
      </trkpt>
      <trkpt lat="43.98017" lon="5.78124">
        <ele>662</ele>
      </trkpt>
      <trkpt lat="43.98019" lon="5.78092">
        <ele>666</ele>
      </trkpt>
      <trkpt lat="43.98023" lon="5.78063">
        <ele>668</ele>
      </trkpt>
      <trkpt lat="43.98024" lon="5.78044">
        <ele>668</ele>
      </trkpt>
      <trkpt lat="43.98027" lon="5.78013">
        <ele>669</ele>
      </trkpt>
      <trkpt lat="43.98027" lon="5.77998">
        <ele>673</ele>
      </trkpt>
      <trkpt lat="43.98027" lon="5.7799">
        <ele>673</ele>
      </trkpt>
      <trkpt lat="43.98027" lon="5.77947">
        <ele>674</ele>
      </trkpt>
      <trkpt lat="43.98028" lon="5.77937">
        <ele>675</ele>
      </trkpt>
      <trkpt lat="43.98028" lon="5.77915">
        <ele>679</ele>
      </trkpt>
      <trkpt lat="43.9803" lon="5.77884">
        <ele>679</ele>
      </trkpt>
      <trkpt lat="43.98029" lon="5.77865">
        <ele>680</ele>
      </trkpt>
      <trkpt lat="43.9803" lon="5.77861">
        <ele>680</ele>
      </trkpt>
      <trkpt lat="43.9803" lon="5.77853">
        <ele>680</ele>
      </trkpt>
      <trkpt lat="43.98027" lon="5.77851">
        <ele>681</ele>
      </trkpt>
      <trkpt lat="43.9801" lon="5.77841">
        <ele>686</ele>
      </trkpt>
      <trkpt lat="43.98007" lon="5.77838">
        <ele>687</ele>
      </trkpt>
      <trkpt lat="43.98012" lon="5.77819">
        <ele>688</ele>
      </trkpt>
      <trkpt lat="43.9802" lon="5.77812">
        <ele>687</ele>
      </trkpt>
      <trkpt lat="43.98023" lon="5.77808">
        <ele>686</ele>
      </trkpt>
      <trkpt lat="43.9803" lon="5.77783">
        <ele>687</ele>
      </trkpt>
      <trkpt lat="43.98033" lon="5.77769">
        <ele>687</ele>
      </trkpt>
      <trkpt lat="43.98036" lon="5.77762">
        <ele>687</ele>
      </trkpt>
      <trkpt lat="43.98045" lon="5.77731">
        <ele>693</ele>
      </trkpt>
      <trkpt lat="43.98046" lon="5.77726">
        <ele>693</ele>
      </trkpt>
      <trkpt lat="43.9805" lon="5.77704">
        <ele>694</ele>
      </trkpt>
      <trkpt lat="43.98054" lon="5.77692">
        <ele>694</ele>
      </trkpt>
      <trkpt lat="43.98059" lon="5.77661">
        <ele>702</ele>
      </trkpt>
      <trkpt lat="43.9806" lon="5.77629">
        <ele>705</ele>
      </trkpt>
      <trkpt lat="43.98062" lon="5.77588">
        <ele>709</ele>
      </trkpt>
      <trkpt lat="43.98066" lon="5.77539">
        <ele>717</ele>
      </trkpt>
      <trkpt lat="43.98065" lon="5.77505">
        <ele>719</ele>
      </trkpt>
      <trkpt lat="43.98067" lon="5.77474">
        <ele>723</ele>
      </trkpt>
      <trkpt lat="43.98063" lon="5.77433">
        <ele>725</ele>
      </trkpt>
      <trkpt lat="43.98056" lon="5.77408">
        <ele>728</ele>
      </trkpt>
      <trkpt lat="43.98046" lon="5.77382">
        <ele>728</ele>
      </trkpt>
      <trkpt lat="43.98039" lon="5.77355">
        <ele>729</ele>
      </trkpt>
      <trkpt lat="43.98036" lon="5.77327">
        <ele>733</ele>
      </trkpt>
      <trkpt lat="43.9803" lon="5.77304">
        <ele>733</ele>
      </trkpt>
      <trkpt lat="43.98026" lon="5.77298">
        <ele>733</ele>
      </trkpt>
      <trkpt lat="43.98026" lon="5.77298">
        <ele>733</ele>
      </trkpt>
      <trkpt lat="43.98024" lon="5.77288">
        <ele>733</ele>
      </trkpt>
      <trkpt lat="43.9802" lon="5.77267">
        <ele>733</ele>
      </trkpt>
      <trkpt lat="43.98026" lon="5.7722">
        <ele>733</ele>
      </trkpt>
      <trkpt lat="43.98029" lon="5.77208">
        <ele>732</ele>
      </trkpt>
      <trkpt lat="43.98053" lon="5.77198">
        <ele>733</ele>
      </trkpt>
      <trkpt lat="43.98081" lon="5.77197">
        <ele>734</ele>
      </trkpt>
      <trkpt lat="43.98094" lon="5.77188">
        <ele>738</ele>
      </trkpt>
      <trkpt lat="43.98137" lon="5.77161">
        <ele>739</ele>
      </trkpt>
      <trkpt lat="43.98159" lon="5.77147">
        <ele>740</ele>
      </trkpt>
      <trkpt lat="43.98164" lon="5.77144">
        <ele>740</ele>
      </trkpt>
      <trkpt lat="43.982" lon="5.77127">
        <ele>745</ele>
      </trkpt>
      <trkpt lat="43.98227" lon="5.77113">
        <ele>746</ele>
      </trkpt>
      <trkpt lat="43.9824" lon="5.77105">
        <ele>747</ele>
      </trkpt>
      <trkpt lat="43.98268" lon="5.7708">
        <ele>746</ele>
      </trkpt>
      <trkpt lat="43.98275" lon="5.77068">
        <ele>746</ele>
      </trkpt>
      <trkpt lat="43.98306" lon="5.77023">
        <ele>744</ele>
      </trkpt>
      <trkpt lat="43.98333" lon="5.76988">
        <ele>743</ele>
      </trkpt>
      <trkpt lat="43.9837" lon="5.76945">
        <ele>744</ele>
      </trkpt>
      <trkpt lat="43.98393" lon="5.76926">
        <ele>744</ele>
      </trkpt>
      <trkpt lat="43.98408" lon="5.76914">
        <ele>745</ele>
      </trkpt>
      <trkpt lat="43.98416" lon="5.76909">
        <ele>745</ele>
      </trkpt>
      <trkpt lat="43.98452" lon="5.76881">
        <ele>750</ele>
      </trkpt>
      <trkpt lat="43.9847" lon="5.76864">
        <ele>751</ele>
      </trkpt>
      <trkpt lat="43.98493" lon="5.76848">
        <ele>752</ele>
      </trkpt>
      <trkpt lat="43.98498" lon="5.76846">
        <ele>753</ele>
      </trkpt>
      <trkpt lat="43.98519" lon="5.76846">
        <ele>756</ele>
      </trkpt>
      <trkpt lat="43.98536" lon="5.76854">
        <ele>757</ele>
      </trkpt>
      <trkpt lat="43.9855" lon="5.76857">
        <ele>757</ele>
      </trkpt>
      <trkpt lat="43.98591" lon="5.76862">
        <ele>761</ele>
      </trkpt>
      <trkpt lat="43.98598" lon="5.76862">
        <ele>762</ele>
      </trkpt>
      <trkpt lat="43.98619" lon="5.76854">
        <ele>762</ele>
      </trkpt>
      <trkpt lat="43.98646" lon="5.76838">
        <ele>763</ele>
      </trkpt>
      <trkpt lat="43.9866" lon="5.76838">
        <ele>763</ele>
      </trkpt>
      <trkpt lat="43.98668" lon="5.76838">
        <ele>764</ele>
      </trkpt>
      <trkpt lat="43.98694" lon="5.76817">
        <ele>765</ele>
      </trkpt>
      <trkpt lat="43.98707" lon="5.76789">
        <ele>766</ele>
      </trkpt>
      <trkpt lat="43.98711" lon="5.76779">
        <ele>766</ele>
      </trkpt>
      <trkpt lat="43.98716" lon="5.76736">
        <ele>768</ele>
      </trkpt>
      <trkpt lat="43.9872" lon="5.76709">
        <ele>769</ele>
      </trkpt>
      <trkpt lat="43.98723" lon="5.76702">
        <ele>769</ele>
      </trkpt>
      <trkpt lat="43.98734" lon="5.76669">
        <ele>773</ele>
      </trkpt>
      <trkpt lat="43.98736" lon="5.76627">
        <ele>775</ele>
      </trkpt>
      <trkpt lat="43.98736" lon="5.76601">
        <ele>777</ele>
      </trkpt>
      <trkpt lat="43.98735" lon="5.76558">
        <ele>779</ele>
      </trkpt>
      <trkpt lat="43.98736" lon="5.7652">
        <ele>780</ele>
      </trkpt>
      <trkpt lat="43.98735" lon="5.76513">
        <ele>781</ele>
      </trkpt>
      <trkpt lat="43.98724" lon="5.76469">
        <ele>782</ele>
      </trkpt>
      <trkpt lat="43.98721" lon="5.76464">
        <ele>782</ele>
      </trkpt>
      <trkpt lat="43.98712" lon="5.76441">
        <ele>782</ele>
      </trkpt>
      <trkpt lat="43.98703" lon="5.76402">
        <ele>786</ele>
      </trkpt>
      <trkpt lat="43.98692" lon="5.76381">
        <ele>786</ele>
      </trkpt>
      <trkpt lat="43.98688" lon="5.76361">
        <ele>787</ele>
      </trkpt>
      <trkpt lat="43.98689" lon="5.76339">
        <ele>787</ele>
      </trkpt>
      <trkpt lat="43.98685" lon="5.76333">
        <ele>792</ele>
      </trkpt>
      <trkpt lat="43.98674" lon="5.7631">
        <ele>793</ele>
      </trkpt>
      <trkpt lat="43.98668" lon="5.76295">
        <ele>794</ele>
      </trkpt>
      <trkpt lat="43.98664" lon="5.76287">
        <ele>789</ele>
      </trkpt>
      <trkpt lat="43.98651" lon="5.76263">
        <ele>791</ele>
      </trkpt>
      <trkpt lat="43.98643" lon="5.76247">
        <ele>797</ele>
      </trkpt>
      <trkpt lat="43.98635" lon="5.76234">
        <ele>797</ele>
      </trkpt>
      <trkpt lat="43.98632" lon="5.7621">
        <ele>798</ele>
      </trkpt>
      <trkpt lat="43.98624" lon="5.76192">
        <ele>799</ele>
      </trkpt>
      <trkpt lat="43.98621" lon="5.76186">
        <ele>799</ele>
      </trkpt>
      <trkpt lat="43.98607" lon="5.7615">
        <ele>805</ele>
      </trkpt>
      <trkpt lat="43.98605" lon="5.76132">
        <ele>806</ele>
      </trkpt>
      <trkpt lat="43.98604" lon="5.76091">
        <ele>807</ele>
      </trkpt>
      <trkpt lat="43.98607" lon="5.76056">
        <ele>812</ele>
      </trkpt>
      <trkpt lat="43.98608" lon="5.76026">
        <ele>814</ele>
      </trkpt>
      <trkpt lat="43.98614" lon="5.76008">
        <ele>814</ele>
      </trkpt>
      <trkpt lat="43.98619" lon="5.76002">
        <ele>815</ele>
      </trkpt>
      <trkpt lat="43.98621" lon="5.75985">
        <ele>816</ele>
      </trkpt>
      <trkpt lat="43.98622" lon="5.75962">
        <ele>816</ele>
      </trkpt>
      <trkpt lat="43.98621" lon="5.75955">
        <ele>816</ele>
      </trkpt>
      <trkpt lat="43.98622" lon="5.75953">
        <ele>816</ele>
      </trkpt>
      <trkpt lat="43.98622" lon="5.75945">
        <ele>816</ele>
      </trkpt>
      <trkpt lat="43.98622" lon="5.75944">
        <ele>816</ele>
      </trkpt>
      <trkpt lat="43.98625" lon="5.75937">
        <ele>816</ele>
      </trkpt>
      <trkpt lat="43.98626" lon="5.7593">
        <ele>816</ele>
      </trkpt>
      <trkpt lat="43.98626" lon="5.75928">
        <ele>816</ele>
      </trkpt>
      <trkpt lat="43.98627" lon="5.75926">
        <ele>816</ele>
      </trkpt>
      <trkpt lat="43.98648" lon="5.75908">
        <ele>816</ele>
      </trkpt>
      <trkpt lat="43.98663" lon="5.75898">
        <ele>816</ele>
      </trkpt>
      <trkpt lat="43.98694" lon="5.75878">
        <ele>822</ele>
      </trkpt>
      <trkpt lat="43.98703" lon="5.75874">
        <ele>822</ele>
      </trkpt>
      <trkpt lat="43.98741" lon="5.75867">
        <ele>824</ele>
      </trkpt>
      <trkpt lat="43.98749" lon="5.75869">
        <ele>824</ele>
      </trkpt>
      <trkpt lat="43.98781" lon="5.75865">
        <ele>832</ele>
      </trkpt>
      <trkpt lat="43.98787" lon="5.75861">
        <ele>832</ele>
      </trkpt>
      <trkpt lat="43.98807" lon="5.75855">
        <ele>833</ele>
      </trkpt>
      <trkpt lat="43.98844" lon="5.7586">
        <ele>839</ele>
      </trkpt>
      <trkpt lat="43.98858" lon="5.75861">
        <ele>840</ele>
      </trkpt>
      <trkpt lat="43.98871" lon="5.7586">
        <ele>841</ele>
      </trkpt>
      <trkpt lat="43.98894" lon="5.75855">
        <ele>842</ele>
      </trkpt>
      <trkpt lat="43.989" lon="5.75853">
        <ele>842</ele>
      </trkpt>
      <trkpt lat="43.98931" lon="5.75849">
        <ele>845</ele>
      </trkpt>
      <trkpt lat="43.98945" lon="5.7585">
        <ele>846</ele>
      </trkpt>
      <trkpt lat="43.98952" lon="5.75852">
        <ele>847</ele>
      </trkpt>
      <trkpt lat="43.98979" lon="5.7586">
        <ele>848</ele>
      </trkpt>
      <trkpt lat="43.98994" lon="5.75863">
        <ele>848</ele>
      </trkpt>
      <trkpt lat="43.99016" lon="5.75867">
        <ele>851</ele>
      </trkpt>
      <trkpt lat="43.99031" lon="5.75863">
        <ele>851</ele>
      </trkpt>
      <trkpt lat="43.99061" lon="5.75858">
        <ele>852</ele>
      </trkpt>
      <trkpt lat="43.99076" lon="5.75862">
        <ele>852</ele>
      </trkpt>
      <trkpt lat="43.99091" lon="5.75869">
        <ele>855</ele>
      </trkpt>
      <trkpt lat="43.99099" lon="5.75874">
        <ele>855</ele>
      </trkpt>
      <trkpt lat="43.99111" lon="5.75886">
        <ele>855</ele>
      </trkpt>
      <trkpt lat="43.99125" lon="5.75906">
        <ele>856</ele>
      </trkpt>
      <trkpt lat="43.99143" lon="5.75944">
        <ele>860</ele>
      </trkpt>
      <trkpt lat="43.99157" lon="5.75973">
        <ele>861</ele>
      </trkpt>
      <trkpt lat="43.99171" lon="5.7599">
        <ele>862</ele>
      </trkpt>
      <trkpt lat="43.99177" lon="5.76005">
        <ele>864</ele>
      </trkpt>
      <trkpt lat="43.99185" lon="5.76018">
        <ele>865</ele>
      </trkpt>
      <trkpt lat="43.99212" lon="5.76033">
        <ele>866</ele>
      </trkpt>
      <trkpt lat="43.99241" lon="5.76051">
        <ele>866</ele>
      </trkpt>
      <trkpt lat="43.99252" lon="5.76059">
        <ele>867</ele>
      </trkpt>
      <trkpt lat="43.9927" lon="5.76069">
        <ele>867</ele>
      </trkpt>
      <trkpt lat="43.99297" lon="5.76089">
        <ele>870</ele>
      </trkpt>
      <trkpt lat="43.99312" lon="5.76101">
        <ele>870</ele>
      </trkpt>
      <trkpt lat="43.99336" lon="5.76122">
        <ele>870</ele>
      </trkpt>
      <trkpt lat="43.99349" lon="5.76138">
        <ele>871</ele>
      </trkpt>
      <trkpt lat="43.99373" lon="5.7616">
        <ele>871</ele>
      </trkpt>
      <trkpt lat="43.99389" lon="5.7618">
        <ele>875</ele>
      </trkpt>
      <trkpt lat="43.99412" lon="5.762">
        <ele>876</ele>
      </trkpt>
      <trkpt lat="43.99417" lon="5.76203">
        <ele>875</ele>
      </trkpt>
      <trkpt lat="43.99441" lon="5.76215">
        <ele>875</ele>
      </trkpt>
      <trkpt lat="43.99459" lon="5.76231">
        <ele>875</ele>
      </trkpt>
      <trkpt lat="43.99472" lon="5.76241">
        <ele>875</ele>
      </trkpt>
      <trkpt lat="43.99489" lon="5.76259">
        <ele>878</ele>
      </trkpt>
      <trkpt lat="43.99506" lon="5.76277">
        <ele>878</ele>
      </trkpt>
      <trkpt lat="43.99519" lon="5.76285">
        <ele>878</ele>
      </trkpt>
      <trkpt lat="43.99541" lon="5.76307">
        <ele>879</ele>
      </trkpt>
      <trkpt lat="43.99549" lon="5.76321">
        <ele>879</ele>
      </trkpt>
      <trkpt lat="43.99573" lon="5.76353">
        <ele>884</ele>
      </trkpt>
      <trkpt lat="43.99588" lon="5.76377">
        <ele>884</ele>
      </trkpt>
      <trkpt lat="43.99602" lon="5.76393">
        <ele>885</ele>
      </trkpt>
      <trkpt lat="43.99617" lon="5.7641">
        <ele>885</ele>
      </trkpt>
      <trkpt lat="43.99634" lon="5.7643">
        <ele>889</ele>
      </trkpt>
      <trkpt lat="43.99646" lon="5.76444">
        <ele>889</ele>
      </trkpt>
      <trkpt lat="43.99667" lon="5.76467">
        <ele>887</ele>
      </trkpt>
      <trkpt lat="43.99674" lon="5.76477">
        <ele>888</ele>
      </trkpt>
      <trkpt lat="43.99674" lon="5.76491">
        <ele>890</ele>
      </trkpt>
      <trkpt lat="43.99671" lon="5.76507">
        <ele>891</ele>
      </trkpt>
      <trkpt lat="43.99683" lon="5.76522">
        <ele>890</ele>
      </trkpt>
      <trkpt lat="43.99687" lon="5.76523">
        <ele>890</ele>
      </trkpt>
      <trkpt lat="43.99697" lon="5.76525">
        <ele>890</ele>
      </trkpt>
      <trkpt lat="43.9971" lon="5.76538">
        <ele>889</ele>
      </trkpt>
      <trkpt lat="43.99726" lon="5.76552">
        <ele>889</ele>
      </trkpt>
      <trkpt lat="43.99734" lon="5.76559">
        <ele>889</ele>
      </trkpt>
      <trkpt lat="43.99745" lon="5.76574">
        <ele>890</ele>
      </trkpt>
      <trkpt lat="43.9975" lon="5.76592">
        <ele>889</ele>
      </trkpt>
      <trkpt lat="43.99758" lon="5.76625">
        <ele>888</ele>
      </trkpt>
      <trkpt lat="43.9976" lon="5.76644">
        <ele>888</ele>
      </trkpt>
      <trkpt lat="43.99772" lon="5.76661">
        <ele>888</ele>
      </trkpt>
      <trkpt lat="43.99784" lon="5.76683">
        <ele>886</ele>
      </trkpt>
      <trkpt lat="43.99792" lon="5.76701">
        <ele>886</ele>
      </trkpt>
      <trkpt lat="43.998" lon="5.76727">
        <ele>886</ele>
      </trkpt>
      <trkpt lat="43.99813" lon="5.76752">
        <ele>885</ele>
      </trkpt>
      <trkpt lat="43.99823" lon="5.76777">
        <ele>885</ele>
      </trkpt>
      <trkpt lat="43.99834" lon="5.76794">
        <ele>887</ele>
      </trkpt>
      <trkpt lat="43.99849" lon="5.7681">
        <ele>886</ele>
      </trkpt>
      <trkpt lat="43.99856" lon="5.76829">
        <ele>886</ele>
      </trkpt>
      <trkpt lat="43.99854" lon="5.76838">
        <ele>887</ele>
      </trkpt>
      <trkpt lat="43.99849" lon="5.76845">
        <ele>887</ele>
      </trkpt>
      <trkpt lat="43.99852" lon="5.7685">
        <ele>887</ele>
      </trkpt>
      <trkpt lat="43.99864" lon="5.76873">
        <ele>888</ele>
      </trkpt>
      <trkpt lat="43.99872" lon="5.7689">
        <ele>888</ele>
      </trkpt>
      <trkpt lat="43.99873" lon="5.76897">
        <ele>888</ele>
      </trkpt>
      <trkpt lat="43.99875" lon="5.76909">
        <ele>888</ele>
      </trkpt>
      <trkpt lat="43.99886" lon="5.76917">
        <ele>890</ele>
      </trkpt>
      <trkpt lat="43.99897" lon="5.76907">
        <ele>889</ele>
      </trkpt>
      <trkpt lat="43.99908" lon="5.76913">
        <ele>890</ele>
      </trkpt>
      <trkpt lat="43.9992" lon="5.76909">
        <ele>890</ele>
      </trkpt>
      <trkpt lat="43.99927" lon="5.769">
        <ele>890</ele>
      </trkpt>
      <trkpt lat="43.99933" lon="5.76888">
        <ele>889</ele>
      </trkpt>
      <trkpt lat="43.99941" lon="5.76876">
        <ele>889</ele>
      </trkpt>
      <trkpt lat="43.99951" lon="5.76868">
        <ele>889</ele>
      </trkpt>
      <trkpt lat="43.99951" lon="5.76866">
        <ele>889</ele>
      </trkpt>
      <trkpt lat="43.99952" lon="5.76852">
        <ele>888</ele>
      </trkpt>
      <trkpt lat="43.99948" lon="5.76836">
        <ele>888</ele>
      </trkpt>
      <trkpt lat="43.99943" lon="5.7682">
        <ele>885</ele>
      </trkpt>
      <trkpt lat="43.99946" lon="5.76809">
        <ele>884</ele>
      </trkpt>
      <trkpt lat="43.99951" lon="5.76797">
        <ele>884</ele>
      </trkpt>
      <trkpt lat="43.99955" lon="5.76782">
        <ele>883</ele>
      </trkpt>
      <trkpt lat="43.99957" lon="5.76767">
        <ele>883</ele>
      </trkpt>
      <trkpt lat="43.9996" lon="5.76752">
        <ele>882</ele>
      </trkpt>
      <trkpt lat="43.99966" lon="5.76744">
        <ele>878</ele>
      </trkpt>
      <trkpt lat="43.99976" lon="5.76733">
        <ele>878</ele>
      </trkpt>
      <trkpt lat="43.99985" lon="5.76723">
        <ele>877</ele>
      </trkpt>
      <trkpt lat="43.99991" lon="5.76717">
        <ele>877</ele>
      </trkpt>
      <trkpt lat="43.99996" lon="5.76716">
        <ele>877</ele>
      </trkpt>
      <trkpt lat="44.00003" lon="5.76712">
        <ele>870</ele>
      </trkpt>
      <trkpt lat="44.00009" lon="5.76707">
        <ele>870</ele>
      </trkpt>
      <trkpt lat="44.00018" lon="5.767">
        <ele>869</ele>
      </trkpt>
      <trkpt lat="44.00023" lon="5.76697">
        <ele>868</ele>
      </trkpt>
      <trkpt lat="44.00027" lon="5.76697">
        <ele>868</ele>
      </trkpt>
      <trkpt lat="44.00036" lon="5.76695">
        <ele>867</ele>
      </trkpt>
      <trkpt lat="44.00043" lon="5.76695">
        <ele>867</ele>
      </trkpt>
      <trkpt lat="44.00046" lon="5.76695">
        <ele>866</ele>
      </trkpt>
      <trkpt lat="44.0005" lon="5.76693">
        <ele>866</ele>
      </trkpt>
      <trkpt lat="44.00055" lon="5.76693">
        <ele>866</ele>
      </trkpt>
      <trkpt lat="44.00065" lon="5.76693">
        <ele>865</ele>
      </trkpt>
      <trkpt lat="44.00073" lon="5.76696">
        <ele>864</ele>
      </trkpt>
      <trkpt lat="44.00081" lon="5.767">
        <ele>864</ele>
      </trkpt>
      <trkpt lat="44.0009" lon="5.76701">
        <ele>855</ele>
      </trkpt>
      <trkpt lat="44.00091" lon="5.76701">
        <ele>855</ele>
      </trkpt>
      <trkpt lat="44.00098" lon="5.76705">
        <ele>855</ele>
      </trkpt>
      <trkpt lat="44.00106" lon="5.76708">
        <ele>855</ele>
      </trkpt>
      <trkpt lat="44.00114" lon="5.76712">
        <ele>854</ele>
      </trkpt>
      <trkpt lat="44.00121" lon="5.76712">
        <ele>853</ele>
      </trkpt>
      <trkpt lat="44.00127" lon="5.76713">
        <ele>853</ele>
      </trkpt>
      <trkpt lat="44.00135" lon="5.76714">
        <ele>852</ele>
      </trkpt>
      <trkpt lat="44.00144" lon="5.76715">
        <ele>851</ele>
      </trkpt>
      <trkpt lat="44.00149" lon="5.76717">
        <ele>851</ele>
      </trkpt>
      <trkpt lat="44.00158" lon="5.76721">
        <ele>851</ele>
      </trkpt>
      <trkpt lat="44.00167" lon="5.76725">
        <ele>841</ele>
      </trkpt>
      <trkpt lat="44.00171" lon="5.76727">
        <ele>841</ele>
      </trkpt>
      <trkpt lat="44.00179" lon="5.7673">
        <ele>841</ele>
      </trkpt>
      <trkpt lat="44.00187" lon="5.76732">
        <ele>839</ele>
      </trkpt>
      <trkpt lat="44.00195" lon="5.76734">
        <ele>838</ele>
      </trkpt>
      <trkpt lat="44.00204" lon="5.76738">
        <ele>836</ele>
      </trkpt>
      <trkpt lat="44.00211" lon="5.76744">
        <ele>835</ele>
      </trkpt>
      <trkpt lat="44.00218" lon="5.76747">
        <ele>834</ele>
      </trkpt>
      <trkpt lat="44.00228" lon="5.76754">
        <ele>842</ele>
      </trkpt>
      <trkpt lat="44.00236" lon="5.76758">
        <ele>840</ele>
      </trkpt>
      <trkpt lat="44.00245" lon="5.76762">
        <ele>838</ele>
      </trkpt>
      <trkpt lat="44.00255" lon="5.76769">
        <ele>830</ele>
      </trkpt>
      <trkpt lat="44.00264" lon="5.76777">
        <ele>830</ele>
      </trkpt>
      <trkpt lat="44.00268" lon="5.76778">
        <ele>829</ele>
      </trkpt>
      <trkpt lat="44.00273" lon="5.76781">
        <ele>829</ele>
      </trkpt>
      <trkpt lat="44.00281" lon="5.76786">
        <ele>829</ele>
      </trkpt>
      <trkpt lat="44.00295" lon="5.76804">
        <ele>829</ele>
      </trkpt>
      <trkpt lat="44.00312" lon="5.76842">
        <ele>834</ele>
      </trkpt>
      <trkpt lat="44.00329" lon="5.76888">
        <ele>839</ele>
      </trkpt>
      <trkpt lat="44.00347" lon="5.76915">
        <ele>830</ele>
      </trkpt>
      <trkpt lat="44.00376" lon="5.76951">
        <ele>835</ele>
      </trkpt>
      <trkpt lat="44.00396" lon="5.7698">
        <ele>835</ele>
      </trkpt>
      <trkpt lat="44.00408" lon="5.77005">
        <ele>839</ele>
      </trkpt>
      <trkpt lat="44.00419" lon="5.77017">
        <ele>833</ele>
      </trkpt>
      <trkpt lat="44.00421" lon="5.77017">
        <ele>833</ele>
      </trkpt>
      <trkpt lat="44.00426" lon="5.77015">
        <ele>833</ele>
      </trkpt>
      <trkpt lat="44.00426" lon="5.77002">
        <ele>833</ele>
      </trkpt>
      <trkpt lat="44.00432" lon="5.76994">
        <ele>826</ele>
      </trkpt>
      <trkpt lat="44.00438" lon="5.76997">
        <ele>825</ele>
      </trkpt>
      <trkpt lat="44.00443" lon="5.76997">
        <ele>823</ele>
      </trkpt>
      <trkpt lat="44.00454" lon="5.77005">
        <ele>830</ele>
      </trkpt>
      <trkpt lat="44.00469" lon="5.77017">
        <ele>829</ele>
      </trkpt>
      <trkpt lat="44.00476" lon="5.77023">
        <ele>828</ele>
      </trkpt>
      <trkpt lat="44.00478" lon="5.77026">
        <ele>828</ele>
      </trkpt>
      <trkpt lat="44.00484" lon="5.7704">
        <ele>829</ele>
      </trkpt>
      <trkpt lat="44.0049" lon="5.77051">
        <ele>830</ele>
      </trkpt>
      <trkpt lat="44.00498" lon="5.77062">
        <ele>830</ele>
      </trkpt>
      <trkpt lat="44.00509" lon="5.7707">
        <ele>822</ele>
      </trkpt>
      <trkpt lat="44.00519" lon="5.77079">
        <ele>821</ele>
      </trkpt>
      <trkpt lat="44.00529" lon="5.77092">
        <ele>825</ele>
      </trkpt>
      <trkpt lat="44.00534" lon="5.77103">
        <ele>825</ele>
      </trkpt>
      <trkpt lat="44.00535" lon="5.77104">
        <ele>825</ele>
      </trkpt>
      <trkpt lat="44.00548" lon="5.77113">
        <ele>824</ele>
      </trkpt>
      <trkpt lat="44.00557" lon="5.77127">
        <ele>824</ele>
      </trkpt>
      <trkpt lat="44.00565" lon="5.77137">
        <ele>823</ele>
      </trkpt>
      <trkpt lat="44.0057" lon="5.77142">
        <ele>823</ele>
      </trkpt>
      <trkpt lat="44.00574" lon="5.77144">
        <ele>823</ele>
      </trkpt>
      <trkpt lat="44.00582" lon="5.7714">
        <ele>822</ele>
      </trkpt>
      <trkpt lat="44.00587" lon="5.77142">
        <ele>811</ele>
      </trkpt>
      <trkpt lat="44.00594" lon="5.77155">
        <ele>813</ele>
      </trkpt>
      <trkpt lat="44.00596" lon="5.77158">
        <ele>813</ele>
      </trkpt>
      <trkpt lat="44.006" lon="5.77167">
        <ele>814</ele>
      </trkpt>
      <trkpt lat="44.00602" lon="5.77167">
        <ele>814</ele>
      </trkpt>
      <trkpt lat="44.00607" lon="5.77169">
        <ele>813</ele>
      </trkpt>
      <trkpt lat="44.00611" lon="5.77175">
        <ele>812</ele>
      </trkpt>
      <trkpt lat="44.00616" lon="5.77184">
        <ele>810</ele>
      </trkpt>
      <trkpt lat="44.00618" lon="5.77195">
        <ele>810</ele>
      </trkpt>
      <trkpt lat="44.00621" lon="5.77212">
        <ele>810</ele>
      </trkpt>
      <trkpt lat="44.00628" lon="5.7722">
        <ele>809</ele>
      </trkpt>
      <trkpt lat="44.0063" lon="5.77231">
        <ele>808</ele>
      </trkpt>
      <trkpt lat="44.00631" lon="5.77236">
        <ele>808</ele>
      </trkpt>
      <trkpt lat="44.00636" lon="5.77251">
        <ele>811</ele>
      </trkpt>
      <trkpt lat="44.00645" lon="5.77275">
        <ele>812</ele>
      </trkpt>
      <trkpt lat="44.00653" lon="5.7729">
        <ele>813</ele>
      </trkpt>
      <trkpt lat="44.00667" lon="5.77309">
        <ele>803</ele>
      </trkpt>
      <trkpt lat="44.0068" lon="5.77326">
        <ele>805</ele>
      </trkpt>
      <trkpt lat="44.00683" lon="5.77329">
        <ele>805</ele>
      </trkpt>
      <trkpt lat="44.00703" lon="5.77345">
        <ele>812</ele>
      </trkpt>
      <trkpt lat="44.00708" lon="5.77348">
        <ele>812</ele>
      </trkpt>
      <trkpt lat="44.00721" lon="5.77362">
        <ele>812</ele>
      </trkpt>
      <trkpt lat="44.0073" lon="5.77376">
        <ele>813</ele>
      </trkpt>
      <trkpt lat="44.0074" lon="5.77387">
        <ele>814</ele>
      </trkpt>
      <trkpt lat="44.00742" lon="5.77389">
        <ele>814</ele>
      </trkpt>
      <trkpt lat="44.00747" lon="5.774">
        <ele>815</ele>
      </trkpt>
      <trkpt lat="44.00745" lon="5.774">
        <ele>815</ele>
      </trkpt>
      <trkpt lat="44.00748" lon="5.77402">
        <ele>816</ele>
      </trkpt>
      <trkpt lat="44.00749" lon="5.77403">
        <ele>816</ele>
      </trkpt>
      <trkpt lat="44.00758" lon="5.77406">
        <ele>812</ele>
      </trkpt>
      <trkpt lat="44.00764" lon="5.77414">
        <ele>811</ele>
      </trkpt>
      <trkpt lat="44.00767" lon="5.7742">
        <ele>819</ele>
      </trkpt>
      <trkpt lat="44.00767" lon="5.77421">
        <ele>819</ele>
      </trkpt>
      <trkpt lat="44.00768" lon="5.77418">
        <ele>819</ele>
      </trkpt>
      <trkpt lat="44.00771" lon="5.77419">
        <ele>819</ele>
      </trkpt>
      <trkpt lat="44.00783" lon="5.77442">
        <ele>821</ele>
      </trkpt>
      <trkpt lat="44.00785" lon="5.77448">
        <ele>821</ele>
      </trkpt>
      <trkpt lat="44.00802" lon="5.77468">
        <ele>822</ele>
      </trkpt>
      <trkpt lat="44.00821" lon="5.77481">
        <ele>822</ele>
      </trkpt>
      <trkpt lat="44.00829" lon="5.77487">
        <ele>822</ele>
      </trkpt>
      <trkpt lat="44.00842" lon="5.77499">
        <ele>818</ele>
      </trkpt>
      <trkpt lat="44.00851" lon="5.77516">
        <ele>819</ele>
      </trkpt>
      <trkpt lat="44.0085" lon="5.77531">
        <ele>819</ele>
      </trkpt>
      <trkpt lat="44.00855" lon="5.77547">
        <ele>820</ele>
      </trkpt>
      <trkpt lat="44.00861" lon="5.77566">
        <ele>820</ele>
      </trkpt>
      <trkpt lat="44.00866" lon="5.77583">
        <ele>820</ele>
      </trkpt>
      <trkpt lat="44.00875" lon="5.77602">
        <ele>824</ele>
      </trkpt>
      <trkpt lat="44.0089" lon="5.7762">
        <ele>823</ele>
      </trkpt>
      <trkpt lat="44.00897" lon="5.77638">
        <ele>823</ele>
      </trkpt>
      <trkpt lat="44.00902" lon="5.77655">
        <ele>822</ele>
      </trkpt>
      <trkpt lat="44.00908" lon="5.77671">
        <ele>824</ele>
      </trkpt>
      <trkpt lat="44.00914" lon="5.77686">
        <ele>827</ele>
      </trkpt>
      <trkpt lat="44.00918" lon="5.77697">
        <ele>815</ele>
      </trkpt>
      <trkpt lat="44.00923" lon="5.77708">
        <ele>815</ele>
      </trkpt>
      <trkpt lat="44.00928" lon="5.77726">
        <ele>817</ele>
      </trkpt>
      <trkpt lat="44.00939" lon="5.77748">
        <ele>817</ele>
      </trkpt>
      <trkpt lat="44.00953" lon="5.77772">
        <ele>820</ele>
      </trkpt>
      <trkpt lat="44.00965" lon="5.77789">
        <ele>819</ele>
      </trkpt>
      <trkpt lat="44.00975" lon="5.77801">
        <ele>819</ele>
      </trkpt>
      <trkpt lat="44.00985" lon="5.77813">
        <ele>817</ele>
      </trkpt>
      <trkpt lat="44.00986" lon="5.77816">
        <ele>817</ele>
      </trkpt>
      <trkpt lat="44.00991" lon="5.77821">
        <ele>816</ele>
      </trkpt>
      <trkpt lat="44.00998" lon="5.7783">
        <ele>814</ele>
      </trkpt>
      <trkpt lat="44.01005" lon="5.77842">
        <ele>810</ele>
      </trkpt>
      <trkpt lat="44.0101" lon="5.77859">
        <ele>807</ele>
      </trkpt>
      <trkpt lat="44.01014" lon="5.77874">
        <ele>806</ele>
      </trkpt>
      <trkpt lat="44.01017" lon="5.77889">
        <ele>806</ele>
      </trkpt>
      <trkpt lat="44.01017" lon="5.77905">
        <ele>808</ele>
      </trkpt>
      <trkpt lat="44.0102" lon="5.77926">
        <ele>806</ele>
      </trkpt>
      <trkpt lat="44.01024" lon="5.7794">
        <ele>804</ele>
      </trkpt>
      <trkpt lat="44.0103" lon="5.77964">
        <ele>802</ele>
      </trkpt>
      <trkpt lat="44.01031" lon="5.77983">
        <ele>802</ele>
      </trkpt>
      <trkpt lat="44.01033" lon="5.78012">
        <ele>799</ele>
      </trkpt>
      <trkpt lat="44.01035" lon="5.78029">
        <ele>798</ele>
      </trkpt>
      <trkpt lat="44.01039" lon="5.78043">
        <ele>797</ele>
      </trkpt>
      <trkpt lat="44.01043" lon="5.78062">
        <ele>796</ele>
      </trkpt>
      <trkpt lat="44.01045" lon="5.78081">
        <ele>795</ele>
      </trkpt>
      <trkpt lat="44.01047" lon="5.78092">
        <ele>792</ele>
      </trkpt>
      <trkpt lat="44.01047" lon="5.78099">
        <ele>792</ele>
      </trkpt>
      <trkpt lat="44.01047" lon="5.78122">
        <ele>791</ele>
      </trkpt>
      <trkpt lat="44.01047" lon="5.78137">
        <ele>791</ele>
      </trkpt>
      <trkpt lat="44.0105" lon="5.78145">
        <ele>791</ele>
      </trkpt>
      <trkpt lat="44.01056" lon="5.78159">
        <ele>789</ele>
      </trkpt>
      <trkpt lat="44.01059" lon="5.78175">
        <ele>786</ele>
      </trkpt>
      <trkpt lat="44.0106" lon="5.78195">
        <ele>786</ele>
      </trkpt>
      <trkpt lat="44.0106" lon="5.78219">
        <ele>786</ele>
      </trkpt>
      <trkpt lat="44.01059" lon="5.78246">
        <ele>785</ele>
      </trkpt>
      <trkpt lat="44.01058" lon="5.78269">
        <ele>782</ele>
      </trkpt>
      <trkpt lat="44.01057" lon="5.78289">
        <ele>782</ele>
      </trkpt>
      <trkpt lat="44.01058" lon="5.78307">
        <ele>782</ele>
      </trkpt>
      <trkpt lat="44.01058" lon="5.78328">
        <ele>781</ele>
      </trkpt>
      <trkpt lat="44.01057" lon="5.78352">
        <ele>778</ele>
      </trkpt>
      <trkpt lat="44.01056" lon="5.78367">
        <ele>778</ele>
      </trkpt>
      <trkpt lat="44.01058" lon="5.78384">
        <ele>778</ele>
      </trkpt>
      <trkpt lat="44.01064" lon="5.784">
        <ele>777</ele>
      </trkpt>
      <trkpt lat="44.01065" lon="5.78404">
        <ele>777</ele>
      </trkpt>
      <trkpt lat="44.01068" lon="5.78417">
        <ele>774</ele>
      </trkpt>
      <trkpt lat="44.01068" lon="5.78419">
        <ele>774</ele>
      </trkpt>
      <trkpt lat="44.01072" lon="5.78434">
        <ele>774</ele>
      </trkpt>
      <trkpt lat="44.01076" lon="5.78446">
        <ele>773</ele>
      </trkpt>
      <trkpt lat="44.0108" lon="5.78466">
        <ele>772</ele>
      </trkpt>
      <trkpt lat="44.01078" lon="5.78483">
        <ele>771</ele>
      </trkpt>
      <trkpt lat="44.01072" lon="5.785">
        <ele>770</ele>
      </trkpt>
      <trkpt lat="44.01065" lon="5.78515">
        <ele>768</ele>
      </trkpt>
      <trkpt lat="44.01061" lon="5.78528">
        <ele>768</ele>
      </trkpt>
      <trkpt lat="44.01057" lon="5.78546">
        <ele>767</ele>
      </trkpt>
      <trkpt lat="44.01056" lon="5.78561">
        <ele>767</ele>
      </trkpt>
      <trkpt lat="44.01055" lon="5.78574">
        <ele>766</ele>
      </trkpt>
      <trkpt lat="44.01053" lon="5.78596">
        <ele>762</ele>
      </trkpt>
      <trkpt lat="44.01054" lon="5.78602">
        <ele>762</ele>
      </trkpt>
      <trkpt lat="44.01056" lon="5.78616">
        <ele>762</ele>
      </trkpt>
      <trkpt lat="44.01056" lon="5.78632">
        <ele>761</ele>
      </trkpt>
      <trkpt lat="44.01056" lon="5.78649">
        <ele>760</ele>
      </trkpt>
      <trkpt lat="44.01055" lon="5.78667">
        <ele>757</ele>
      </trkpt>
      <trkpt lat="44.01052" lon="5.78681">
        <ele>757</ele>
      </trkpt>
      <trkpt lat="44.01049" lon="5.78693">
        <ele>757</ele>
      </trkpt>
      <trkpt lat="44.01043" lon="5.78708">
        <ele>757</ele>
      </trkpt>
      <trkpt lat="44.01033" lon="5.7872">
        <ele>757</ele>
      </trkpt>
      <trkpt lat="44.01026" lon="5.7873">
        <ele>757</ele>
      </trkpt>
      <trkpt lat="44.01022" lon="5.78733">
        <ele>757</ele>
      </trkpt>
      <trkpt lat="44.01017" lon="5.78746">
        <ele>758</ele>
      </trkpt>
      <trkpt lat="44.0101" lon="5.78761">
        <ele>756</ele>
      </trkpt>
      <trkpt lat="44.01004" lon="5.78778">
        <ele>755</ele>
      </trkpt>
      <trkpt lat="44.00999" lon="5.78794">
        <ele>758</ele>
      </trkpt>
      <trkpt lat="44.00997" lon="5.78809">
        <ele>756</ele>
      </trkpt>
      <trkpt lat="44.00995" lon="5.78828">
        <ele>753</ele>
      </trkpt>
      <trkpt lat="44.00996" lon="5.78851">
        <ele>752</ele>
      </trkpt>
      <trkpt lat="44.00996" lon="5.78871">
        <ele>752</ele>
      </trkpt>
      <trkpt lat="44.00997" lon="5.78888">
        <ele>751</ele>
      </trkpt>
      <trkpt lat="44.00999" lon="5.78907">
        <ele>749</ele>
      </trkpt>
      <trkpt lat="44.01001" lon="5.78914">
        <ele>746</ele>
      </trkpt>
      <trkpt lat="44.01002" lon="5.78935">
        <ele>742</ele>
      </trkpt>
      <trkpt lat="44.01003" lon="5.78954">
        <ele>740</ele>
      </trkpt>
      <trkpt lat="44.01006" lon="5.78964">
        <ele>740</ele>
      </trkpt>
      <trkpt lat="44.01008" lon="5.7897">
        <ele>739</ele>
      </trkpt>
      <trkpt lat="44.01013" lon="5.78983">
        <ele>739</ele>
      </trkpt>
      <trkpt lat="44.01015" lon="5.78991">
        <ele>739</ele>
      </trkpt>
      <trkpt lat="44.01017" lon="5.79003">
        <ele>737</ele>
      </trkpt>
      <trkpt lat="44.0102" lon="5.79015">
        <ele>735</ele>
      </trkpt>
      <trkpt lat="44.01023" lon="5.79028">
        <ele>734</ele>
      </trkpt>
      <trkpt lat="44.01025" lon="5.79043">
        <ele>733</ele>
      </trkpt>
      <trkpt lat="44.01031" lon="5.79062">
        <ele>733</ele>
      </trkpt>
      <trkpt lat="44.01034" lon="5.79083">
        <ele>732</ele>
      </trkpt>
      <trkpt lat="44.01034" lon="5.79093">
        <ele>730</ele>
      </trkpt>
      <trkpt lat="44.01034" lon="5.79092">
        <ele>730</ele>
      </trkpt>
      <trkpt lat="44.0103" lon="5.79104">
        <ele>730</ele>
      </trkpt>
      <trkpt lat="44.01021" lon="5.79122">
        <ele>730</ele>
      </trkpt>
      <trkpt lat="44.0101" lon="5.79142">
        <ele>729</ele>
      </trkpt>
      <trkpt lat="44.01" lon="5.7917">
        <ele>728</ele>
      </trkpt>
      <trkpt lat="44.00995" lon="5.79186">
        <ele>726</ele>
      </trkpt>
      <trkpt lat="44.00992" lon="5.79205">
        <ele>726</ele>
      </trkpt>
      <trkpt lat="44.00988" lon="5.79224">
        <ele>725</ele>
      </trkpt>
      <trkpt lat="44.00984" lon="5.79245">
        <ele>725</ele>
      </trkpt>
      <trkpt lat="44.00976" lon="5.7928">
        <ele>724</ele>
      </trkpt>
      <trkpt lat="44.00968" lon="5.79309">
        <ele>723</ele>
      </trkpt>
      <trkpt lat="44.0096" lon="5.79332">
        <ele>723</ele>
      </trkpt>
      <trkpt lat="44.00954" lon="5.79357">
        <ele>721</ele>
      </trkpt>
      <trkpt lat="44.00958" lon="5.79372">
        <ele>721</ele>
      </trkpt>
      <trkpt lat="44.00993" lon="5.79387">
        <ele>721</ele>
      </trkpt>
      <trkpt lat="44.01029" lon="5.79411">
        <ele>724</ele>
      </trkpt>
      <trkpt lat="44.0106" lon="5.79429">
        <ele>722</ele>
      </trkpt>
      <trkpt lat="44.0108" lon="5.7944">
        <ele>723</ele>
      </trkpt>
      <trkpt lat="44.01089" lon="5.79448">
        <ele>724</ele>
      </trkpt>
      <trkpt lat="44.01089" lon="5.79449">
        <ele>724</ele>
      </trkpt>
      <trkpt lat="44.01091" lon="5.79461">
        <ele>724</ele>
      </trkpt>
      <trkpt lat="44.01096" lon="5.79479">
        <ele>724</ele>
      </trkpt>
      <trkpt lat="44.01114" lon="5.79515">
        <ele>725</ele>
      </trkpt>
      <trkpt lat="44.01123" lon="5.7953">
        <ele>726</ele>
      </trkpt>
      <trkpt lat="44.01155" lon="5.79529">
        <ele>727</ele>
      </trkpt>
      <trkpt lat="44.01162" lon="5.79525">
        <ele>727</ele>
      </trkpt>
      <trkpt lat="44.01181" lon="5.79531">
        <ele>729</ele>
      </trkpt>
      <trkpt lat="44.01192" lon="5.79545">
        <ele>730</ele>
      </trkpt>
      <trkpt lat="44.0122" lon="5.79575">
        <ele>731</ele>
      </trkpt>
      <trkpt lat="44.01233" lon="5.79605">
        <ele>734</ele>
      </trkpt>
      <trkpt lat="44.01244" lon="5.79633">
        <ele>735</ele>
      </trkpt>
      <trkpt lat="44.01254" lon="5.79652">
        <ele>738</ele>
      </trkpt>
      <trkpt lat="44.01267" lon="5.79674">
        <ele>741</ele>
      </trkpt>
      <trkpt lat="44.01296" lon="5.79722">
        <ele>744</ele>
      </trkpt>
      <trkpt lat="44.01306" lon="5.79734">
        <ele>744</ele>
      </trkpt>
      <trkpt lat="44.0132" lon="5.7975">
        <ele>746</ele>
      </trkpt>
      <trkpt lat="44.0134" lon="5.79769">
        <ele>752</ele>
      </trkpt>
      <trkpt lat="44.01375" lon="5.79799">
        <ele>755</ele>
      </trkpt>
      <trkpt lat="44.01398" lon="5.79819">
        <ele>757</ele>
      </trkpt>
      <trkpt lat="44.01407" lon="5.79826">
        <ele>758</ele>
      </trkpt>
      <trkpt lat="44.01412" lon="5.79831">
        <ele>759</ele>
      </trkpt>
      <trkpt lat="44.01439" lon="5.79858">
        <ele>765</ele>
      </trkpt>
      <trkpt lat="44.01444" lon="5.79863">
        <ele>765</ele>
      </trkpt>
      <trkpt lat="44.01466" lon="5.79885">
        <ele>767</ele>
      </trkpt>
      <trkpt lat="44.01473" lon="5.79893">
        <ele>767</ele>
      </trkpt>
      <trkpt lat="44.01477" lon="5.79898">
        <ele>767</ele>
      </trkpt>
      <trkpt lat="44.01492" lon="5.79917">
        <ele>773</ele>
      </trkpt>
      <trkpt lat="44.0151" lon="5.79935">
        <ele>774</ele>
      </trkpt>
      <trkpt lat="44.01529" lon="5.79949">
        <ele>776</ele>
      </trkpt>
      <trkpt lat="44.01542" lon="5.79955">
        <ele>777</ele>
      </trkpt>
      <trkpt lat="44.01565" lon="5.79971">
        <ele>778</ele>
      </trkpt>
      <trkpt lat="44.01587" lon="5.80002">
        <ele>783</ele>
      </trkpt>
      <trkpt lat="44.01602" lon="5.80028">
        <ele>784</ele>
      </trkpt>
      <trkpt lat="44.01614" lon="5.80053">
        <ele>785</ele>
      </trkpt>
      <trkpt lat="44.01637" lon="5.80106">
        <ele>795</ele>
      </trkpt>
      <trkpt lat="44.01649" lon="5.80139">
        <ele>797</ele>
      </trkpt>
      <trkpt lat="44.01666" lon="5.80168">
        <ele>797</ele>
      </trkpt>
      <trkpt lat="44.01678" lon="5.8019">
        <ele>794</ele>
      </trkpt>
      <trkpt lat="44.01683" lon="5.802">
        <ele>794</ele>
      </trkpt>
      <trkpt lat="44.01694" lon="5.80226">
        <ele>794</ele>
      </trkpt>
      <trkpt lat="44.017" lon="5.80253">
        <ele>797</ele>
      </trkpt>
      <trkpt lat="44.01703" lon="5.80271">
        <ele>796</ele>
      </trkpt>
      <trkpt lat="44.01705" lon="5.8031">
        <ele>796</ele>
      </trkpt>
      <trkpt lat="44.01706" lon="5.80348">
        <ele>794</ele>
      </trkpt>
      <trkpt lat="44.0171" lon="5.80374">
        <ele>793</ele>
      </trkpt>
      <trkpt lat="44.01711" lon="5.80378">
        <ele>793</ele>
      </trkpt>
      <trkpt lat="44.01717" lon="5.80394">
        <ele>792</ele>
      </trkpt>
      <trkpt lat="44.01721" lon="5.80419">
        <ele>790</ele>
      </trkpt>
      <trkpt lat="44.01726" lon="5.80441">
        <ele>790</ele>
      </trkpt>
      <trkpt lat="44.01732" lon="5.8047">
        <ele>790</ele>
      </trkpt>
      <trkpt lat="44.01731" lon="5.80503">
        <ele>791</ele>
      </trkpt>
      <trkpt lat="44.01732" lon="5.80518">
        <ele>792</ele>
      </trkpt>
      <trkpt lat="44.01737" lon="5.80544">
        <ele>793</ele>
      </trkpt>
      <trkpt lat="44.0174" lon="5.80554">
        <ele>793</ele>
      </trkpt>
      <trkpt lat="44.01756" lon="5.80589">
        <ele>794</ele>
      </trkpt>
      <trkpt lat="44.01777" lon="5.80631">
        <ele>792</ele>
      </trkpt>
      <trkpt lat="44.01782" lon="5.8064">
        <ele>792</ele>
      </trkpt>
      <trkpt lat="44.01793" lon="5.80659">
        <ele>792</ele>
      </trkpt>
      <trkpt lat="44.01807" lon="5.80683">
        <ele>794</ele>
      </trkpt>
      <trkpt lat="44.01832" lon="5.80726">
        <ele>795</ele>
      </trkpt>
      <trkpt lat="44.01857" lon="5.80772">
        <ele>796</ele>
      </trkpt>
      <trkpt lat="44.01875" lon="5.80793">
        <ele>796</ele>
      </trkpt>
      <trkpt lat="44.01892" lon="5.80828">
        <ele>796</ele>
      </trkpt>
      <trkpt lat="44.019" lon="5.80848">
        <ele>798</ele>
      </trkpt>
      <trkpt lat="44.01915" lon="5.80874">
        <ele>799</ele>
      </trkpt>
      <trkpt lat="44.0194" lon="5.80895">
        <ele>797</ele>
      </trkpt>
      <trkpt lat="44.01962" lon="5.80916">
        <ele>797</ele>
      </trkpt>
      <trkpt lat="44.01971" lon="5.80927">
        <ele>801</ele>
      </trkpt>
      <trkpt lat="44.01985" lon="5.80952">
        <ele>801</ele>
      </trkpt>
      <trkpt lat="44.01986" lon="5.80964">
        <ele>802</ele>
      </trkpt>
      <trkpt lat="44.01994" lon="5.80974">
        <ele>803</ele>
      </trkpt>
      <trkpt lat="44.02018" lon="5.80986">
        <ele>802</ele>
      </trkpt>
      <trkpt lat="44.02041" lon="5.80995">
        <ele>801</ele>
      </trkpt>
      <trkpt lat="44.02061" lon="5.81006">
        <ele>807</ele>
      </trkpt>
      <trkpt lat="44.02082" lon="5.81012">
        <ele>806</ele>
      </trkpt>
      <trkpt lat="44.02101" lon="5.81025">
        <ele>806</ele>
      </trkpt>
      <trkpt lat="44.02113" lon="5.81035">
        <ele>806</ele>
      </trkpt>
      <trkpt lat="44.02138" lon="5.81033">
        <ele>805</ele>
      </trkpt>
      <trkpt lat="44.02162" lon="5.81037">
        <ele>805</ele>
      </trkpt>
      <trkpt lat="44.02187" lon="5.81048">
        <ele>801</ele>
      </trkpt>
      <trkpt lat="44.022" lon="5.81057">
        <ele>802</ele>
      </trkpt>
      <trkpt lat="44.02213" lon="5.8107">
        <ele>802</ele>
      </trkpt>
      <trkpt lat="44.02224" lon="5.81086">
        <ele>811</ele>
      </trkpt>
      <trkpt lat="44.02238" lon="5.81101">
        <ele>811</ele>
      </trkpt>
      <trkpt lat="44.02242" lon="5.81106">
        <ele>811</ele>
      </trkpt>
      <trkpt lat="44.0225" lon="5.8111">
        <ele>807</ele>
      </trkpt>
      <trkpt lat="44.02266" lon="5.81114">
        <ele>807</ele>
      </trkpt>
      <trkpt lat="44.02279" lon="5.81117">
        <ele>806</ele>
      </trkpt>
      <trkpt lat="44.02294" lon="5.81121">
        <ele>806</ele>
      </trkpt>
      <trkpt lat="44.02306" lon="5.81127">
        <ele>805</ele>
      </trkpt>
      <trkpt lat="44.02316" lon="5.81131">
        <ele>805</ele>
      </trkpt>
      <trkpt lat="44.02329" lon="5.81133">
        <ele>804</ele>
      </trkpt>
      <trkpt lat="44.02339" lon="5.81137">
        <ele>799</ele>
      </trkpt>
      <trkpt lat="44.02351" lon="5.81138">
        <ele>798</ele>
      </trkpt>
      <trkpt lat="44.02362" lon="5.81134">
        <ele>797</ele>
      </trkpt>
      <trkpt lat="44.02377" lon="5.81121">
        <ele>796</ele>
      </trkpt>
      <trkpt lat="44.02387" lon="5.81112">
        <ele>796</ele>
      </trkpt>
      <trkpt lat="44.02408" lon="5.81104">
        <ele>795</ele>
      </trkpt>
      <trkpt lat="44.02425" lon="5.81101">
        <ele>792</ele>
      </trkpt>
      <trkpt lat="44.02439" lon="5.81099">
        <ele>791</ele>
      </trkpt>
      <trkpt lat="44.02453" lon="5.81105">
        <ele>791</ele>
      </trkpt>
      <trkpt lat="44.02466" lon="5.81117">
        <ele>790</ele>
      </trkpt>
      <trkpt lat="44.02475" lon="5.81125">
        <ele>789</ele>
      </trkpt>
      <trkpt lat="44.02486" lon="5.8113">
        <ele>789</ele>
      </trkpt>
      <trkpt lat="44.02488" lon="5.81131">
        <ele>789</ele>
      </trkpt>
      <trkpt lat="44.02495" lon="5.81139">
        <ele>788</ele>
      </trkpt>
      <trkpt lat="44.025" lon="5.8115">
        <ele>787</ele>
      </trkpt>
      <trkpt lat="44.02498" lon="5.81159">
        <ele>786</ele>
      </trkpt>
      <trkpt lat="44.02496" lon="5.8117">
        <ele>784</ele>
      </trkpt>
      <trkpt lat="44.02492" lon="5.81181">
        <ele>783</ele>
      </trkpt>
      <trkpt lat="44.02485" lon="5.81197">
        <ele>783</ele>
      </trkpt>
      <trkpt lat="44.02478" lon="5.81216">
        <ele>782</ele>
      </trkpt>
      <trkpt lat="44.02472" lon="5.81232">
        <ele>781</ele>
      </trkpt>
      <trkpt lat="44.02468" lon="5.8125">
        <ele>777</ele>
      </trkpt>
      <trkpt lat="44.02466" lon="5.81269">
        <ele>777</ele>
      </trkpt>
      <trkpt lat="44.02465" lon="5.81284">
        <ele>777</ele>
      </trkpt>
      <trkpt lat="44.02466" lon="5.81308">
        <ele>776</ele>
      </trkpt>
      <trkpt lat="44.02465" lon="5.8133">
        <ele>776</ele>
      </trkpt>
      <trkpt lat="44.02463" lon="5.81348">
        <ele>773</ele>
      </trkpt>
      <trkpt lat="44.02458" lon="5.81367">
        <ele>773</ele>
      </trkpt>
      <trkpt lat="44.0245" lon="5.8139">
        <ele>773</ele>
      </trkpt>
      <trkpt lat="44.02444" lon="5.81408">
        <ele>772</ele>
      </trkpt>
      <trkpt lat="44.02439" lon="5.81428">
        <ele>768</ele>
      </trkpt>
      <trkpt lat="44.0243" lon="5.81443">
        <ele>767</ele>
      </trkpt>
      <trkpt lat="44.02423" lon="5.81458">
        <ele>766</ele>
      </trkpt>
      <trkpt lat="44.02412" lon="5.81474">
        <ele>771</ele>
      </trkpt>
      <trkpt lat="44.02404" lon="5.8148">
        <ele>771</ele>
      </trkpt>
      <trkpt lat="44.02392" lon="5.8148">
        <ele>772</ele>
      </trkpt>
      <trkpt lat="44.02391" lon="5.81479">
        <ele>772</ele>
      </trkpt>
      <trkpt lat="44.02389" lon="5.81486">
        <ele>772</ele>
      </trkpt>
      <trkpt lat="44.024" lon="5.81491">
        <ele>770</ele>
      </trkpt>
      <trkpt lat="44.02422" lon="5.81504">
        <ele>762</ele>
      </trkpt>
      <trkpt lat="44.02441" lon="5.81512">
        <ele>757</ele>
      </trkpt>
      <trkpt lat="44.02457" lon="5.81509">
        <ele>756</ele>
      </trkpt>
      <trkpt lat="44.02469" lon="5.81496">
        <ele>762</ele>
      </trkpt>
      <trkpt lat="44.0248" lon="5.8148">
        <ele>762</ele>
      </trkpt>
      <trkpt lat="44.02488" lon="5.81468">
        <ele>763</ele>
      </trkpt>
      <trkpt lat="44.02501" lon="5.81452">
        <ele>759</ele>
      </trkpt>
      <trkpt lat="44.02517" lon="5.81431">
        <ele>761</ele>
      </trkpt>
      <trkpt lat="44.02531" lon="5.81408">
        <ele>767</ele>
      </trkpt>
      <trkpt lat="44.02543" lon="5.81394">
        <ele>766</ele>
      </trkpt>
      <trkpt lat="44.02555" lon="5.81397">
        <ele>766</ele>
      </trkpt>
      <trkpt lat="44.02564" lon="5.81426">
        <ele>758</ele>
      </trkpt>
      <trkpt lat="44.0257" lon="5.81454">
        <ele>755</ele>
      </trkpt>
      <trkpt lat="44.02579" lon="5.81465">
        <ele>753</ele>
      </trkpt>
      <trkpt lat="44.02597" lon="5.81466">
        <ele>750</ele>
      </trkpt>
      <trkpt lat="44.02614" lon="5.81463">
        <ele>751</ele>
      </trkpt>
      <trkpt lat="44.0264" lon="5.81458">
        <ele>752</ele>
      </trkpt>
      <trkpt lat="44.02646" lon="5.81457">
        <ele>752</ele>
      </trkpt>
      <trkpt lat="44.02667" lon="5.81455">
        <ele>753</ele>
      </trkpt>
      <trkpt lat="44.02686" lon="5.81456">
        <ele>748</ele>
      </trkpt>
      <trkpt lat="44.02703" lon="5.81452">
        <ele>747</ele>
      </trkpt>
      <trkpt lat="44.02721" lon="5.81443">
        <ele>747</ele>
      </trkpt>
      <trkpt lat="44.02731" lon="5.81433">
        <ele>746</ele>
      </trkpt>
      <trkpt lat="44.02744" lon="5.81414">
        <ele>750</ele>
      </trkpt>
      <trkpt lat="44.02757" lon="5.81391">
        <ele>743</ele>
      </trkpt>
      <trkpt lat="44.02767" lon="5.81372">
        <ele>743</ele>
      </trkpt>
      <trkpt lat="44.02773" lon="5.81353">
        <ele>744</ele>
      </trkpt>
      <trkpt lat="44.02775" lon="5.8133">
        <ele>745</ele>
      </trkpt>
      <trkpt lat="44.02775" lon="5.81309">
        <ele>744</ele>
      </trkpt>
      <trkpt lat="44.02771" lon="5.81291">
        <ele>744</ele>
      </trkpt>
      <trkpt lat="44.02765" lon="5.81261">
        <ele>746</ele>
      </trkpt>
      <trkpt lat="44.02763" lon="5.81237">
        <ele>746</ele>
      </trkpt>
      <trkpt lat="44.02759" lon="5.8121">
        <ele>743</ele>
      </trkpt>
      <trkpt lat="44.02756" lon="5.81184">
        <ele>745</ele>
      </trkpt>
      <trkpt lat="44.02756" lon="5.81162">
        <ele>748</ele>
      </trkpt>
      <trkpt lat="44.0277" lon="5.81137">
        <ele>744</ele>
      </trkpt>
      <trkpt lat="44.02772" lon="5.81134">
        <ele>744</ele>
      </trkpt>
      <trkpt lat="44.02778" lon="5.81122">
        <ele>744</ele>
      </trkpt>
      <trkpt lat="44.02795" lon="5.81108">
        <ele>742</ele>
      </trkpt>
      <trkpt lat="44.02816" lon="5.81094">
        <ele>740</ele>
      </trkpt>
      <trkpt lat="44.0284" lon="5.81083">
        <ele>735</ele>
      </trkpt>
      <trkpt lat="44.0285" lon="5.81071">
        <ele>733</ele>
      </trkpt>
      <trkpt lat="44.02847" lon="5.81049">
        <ele>732</ele>
      </trkpt>
      <trkpt lat="44.02834" lon="5.8103">
        <ele>733</ele>
      </trkpt>
      <trkpt lat="44.02824" lon="5.81">
        <ele>741</ele>
      </trkpt>
      <trkpt lat="44.02826" lon="5.80989">
        <ele>742</ele>
      </trkpt>
      <trkpt lat="44.0283" lon="5.80982">
        <ele>743</ele>
      </trkpt>
      <trkpt lat="44.02837" lon="5.80968">
        <ele>735</ele>
      </trkpt>
      <trkpt lat="44.02844" lon="5.80947">
        <ele>735</ele>
      </trkpt>
      <trkpt lat="44.02848" lon="5.80921">
        <ele>736</ele>
      </trkpt>
      <trkpt lat="44.02852" lon="5.80908">
        <ele>735</ele>
      </trkpt>
      <trkpt lat="44.02854" lon="5.80903">
        <ele>734</ele>
      </trkpt>
      <trkpt lat="44.02865" lon="5.80888">
        <ele>732</ele>
      </trkpt>
      <trkpt lat="44.02879" lon="5.80878">
        <ele>731</ele>
      </trkpt>
      <trkpt lat="44.02892" lon="5.80873">
        <ele>731</ele>
      </trkpt>
      <trkpt lat="44.02902" lon="5.80867">
        <ele>730</ele>
      </trkpt>
      <trkpt lat="44.02916" lon="5.8086">
        <ele>730</ele>
      </trkpt>
      <trkpt lat="44.0293" lon="5.80852">
        <ele>730</ele>
      </trkpt>
      <trkpt lat="44.02943" lon="5.80844">
        <ele>730</ele>
      </trkpt>
      <trkpt lat="44.02954" lon="5.80843">
        <ele>731</ele>
      </trkpt>
      <trkpt lat="44.02964" lon="5.80854">
        <ele>732</ele>
      </trkpt>
      <trkpt lat="44.02975" lon="5.80893">
        <ele>730</ele>
      </trkpt>
      <trkpt lat="44.02987" lon="5.80916">
        <ele>728</ele>
      </trkpt>
      <trkpt lat="44.03011" lon="5.80941">
        <ele>724</ele>
      </trkpt>
      <trkpt lat="44.03037" lon="5.80959">
        <ele>723</ele>
      </trkpt>
      <trkpt lat="44.03055" lon="5.80965">
        <ele>723</ele>
      </trkpt>
      <trkpt lat="44.03082" lon="5.80966">
        <ele>723</ele>
      </trkpt>
      <trkpt lat="44.03107" lon="5.80961">
        <ele>725</ele>
      </trkpt>
      <trkpt lat="44.03135" lon="5.80952">
        <ele>726</ele>
      </trkpt>
      <trkpt lat="44.0316" lon="5.80945">
        <ele>728</ele>
      </trkpt>
      <trkpt lat="44.0318" lon="5.80941">
        <ele>726</ele>
      </trkpt>
      <trkpt lat="44.03196" lon="5.80935">
        <ele>726</ele>
      </trkpt>
      <trkpt lat="44.03217" lon="5.80923">
        <ele>725</ele>
      </trkpt>
      <trkpt lat="44.03233" lon="5.80916">
        <ele>732</ele>
      </trkpt>
      <trkpt lat="44.03246" lon="5.80911">
        <ele>729</ele>
      </trkpt>
      <trkpt lat="44.03261" lon="5.80908">
        <ele>727</ele>
      </trkpt>
      <trkpt lat="44.03271" lon="5.80908">
        <ele>727</ele>
      </trkpt>
      <trkpt lat="44.03286" lon="5.80904">
        <ele>726</ele>
      </trkpt>
      <trkpt lat="44.03301" lon="5.80897">
        <ele>726</ele>
      </trkpt>
      <trkpt lat="44.0331" lon="5.8089">
        <ele>725</ele>
      </trkpt>
      <trkpt lat="44.03324" lon="5.80877">
        <ele>726</ele>
      </trkpt>
      <trkpt lat="44.03337" lon="5.80867">
        <ele>718</ele>
      </trkpt>
      <trkpt lat="44.03352" lon="5.80862">
        <ele>718</ele>
      </trkpt>
      <trkpt lat="44.03365" lon="5.80855">
        <ele>717</ele>
      </trkpt>
      <trkpt lat="44.03373" lon="5.80836">
        <ele>716</ele>
      </trkpt>
      <trkpt lat="44.03372" lon="5.8083">
        <ele>719</ele>
      </trkpt>
      <trkpt lat="44.03367" lon="5.8081">
        <ele>720</ele>
      </trkpt>
      <trkpt lat="44.03364" lon="5.80794">
        <ele>720</ele>
      </trkpt>
      <trkpt lat="44.03369" lon="5.80779">
        <ele>720</ele>
      </trkpt>
      <trkpt lat="44.03376" lon="5.80765">
        <ele>719</ele>
      </trkpt>
      <trkpt lat="44.03387" lon="5.80752">
        <ele>717</ele>
      </trkpt>
      <trkpt lat="44.034" lon="5.80742">
        <ele>719</ele>
      </trkpt>
      <trkpt lat="44.0341" lon="5.80733">
        <ele>719</ele>
      </trkpt>
      <trkpt lat="44.03423" lon="5.80721">
        <ele>709</ele>
      </trkpt>
      <trkpt lat="44.03436" lon="5.80707">
        <ele>710</ele>
      </trkpt>
      <trkpt lat="44.03448" lon="5.80696">
        <ele>710</ele>
      </trkpt>
      <trkpt lat="44.03458" lon="5.80687">
        <ele>709</ele>
      </trkpt>
      <trkpt lat="44.03468" lon="5.80678">
        <ele>707</ele>
      </trkpt>
      <trkpt lat="44.03479" lon="5.80669">
        <ele>705</ele>
      </trkpt>
      <trkpt lat="44.0349" lon="5.80658">
        <ele>708</ele>
      </trkpt>
      <trkpt lat="44.035" lon="5.80644">
        <ele>699</ele>
      </trkpt>
      <trkpt lat="44.0351" lon="5.80631">
        <ele>699</ele>
      </trkpt>
      <trkpt lat="44.03517" lon="5.80621">
        <ele>698</ele>
      </trkpt>
      <trkpt lat="44.03524" lon="5.80608">
        <ele>698</ele>
      </trkpt>
      <trkpt lat="44.03529" lon="5.80592">
        <ele>699</ele>
      </trkpt>
      <trkpt lat="44.03538" lon="5.80577">
        <ele>698</ele>
      </trkpt>
      <trkpt lat="44.03549" lon="5.80573">
        <ele>697</ele>
      </trkpt>
      <trkpt lat="44.0356" lon="5.80576">
        <ele>695</ele>
      </trkpt>
      <trkpt lat="44.0357" lon="5.80582">
        <ele>694</ele>
      </trkpt>
      <trkpt lat="44.03579" lon="5.80593">
        <ele>693</ele>
      </trkpt>
      <trkpt lat="44.03585" lon="5.80603">
        <ele>691</ele>
      </trkpt>
      <trkpt lat="44.03598" lon="5.80621">
        <ele>690</ele>
      </trkpt>
      <trkpt lat="44.03611" lon="5.80633">
        <ele>690</ele>
      </trkpt>
      <trkpt lat="44.03627" lon="5.80642">
        <ele>690</ele>
      </trkpt>
      <trkpt lat="44.03645" lon="5.80648">
        <ele>690</ele>
      </trkpt>
      <trkpt lat="44.03659" lon="5.80654">
        <ele>689</ele>
      </trkpt>
      <trkpt lat="44.0368" lon="5.80662">
        <ele>690</ele>
      </trkpt>
      <trkpt lat="44.03706" lon="5.80673">
        <ele>686</ele>
      </trkpt>
      <trkpt lat="44.03726" lon="5.80679">
        <ele>687</ele>
      </trkpt>
      <trkpt lat="44.03743" lon="5.80684">
        <ele>687</ele>
      </trkpt>
      <trkpt lat="44.03759" lon="5.80689">
        <ele>688</ele>
      </trkpt>
      <trkpt lat="44.03776" lon="5.80695">
        <ele>687</ele>
      </trkpt>
      <trkpt lat="44.0379" lon="5.80701">
        <ele>687</ele>
      </trkpt>
      <trkpt lat="44.03799" lon="5.80706">
        <ele>687</ele>
      </trkpt>
      <trkpt lat="44.03814" lon="5.80712">
        <ele>687</ele>
      </trkpt>
      <trkpt lat="44.03828" lon="5.80719">
        <ele>687</ele>
      </trkpt>
      <trkpt lat="44.03841" lon="5.80729">
        <ele>686</ele>
      </trkpt>
      <trkpt lat="44.03851" lon="5.8074">
        <ele>686</ele>
      </trkpt>
      <trkpt lat="44.03858" lon="5.8075">
        <ele>686</ele>
      </trkpt>
      <trkpt lat="44.03864" lon="5.80758">
        <ele>680</ele>
      </trkpt>
      <trkpt lat="44.03871" lon="5.80768">
        <ele>679</ele>
      </trkpt>
      <trkpt lat="44.03875" lon="5.80779">
        <ele>678</ele>
      </trkpt>
      <trkpt lat="44.03886" lon="5.80789">
        <ele>677</ele>
      </trkpt>
      <trkpt lat="44.03897" lon="5.8079">
        <ele>677</ele>
      </trkpt>
      <trkpt lat="44.03907" lon="5.80785">
        <ele>677</ele>
      </trkpt>
      <trkpt lat="44.03918" lon="5.80776">
        <ele>671</ele>
      </trkpt>
      <trkpt lat="44.03935" lon="5.80756">
        <ele>672</ele>
      </trkpt>
      <trkpt lat="44.03946" lon="5.80742">
        <ele>677</ele>
      </trkpt>
      <trkpt lat="44.0396" lon="5.80732">
        <ele>676</ele>
      </trkpt>
      <trkpt lat="44.0397" lon="5.80726">
        <ele>676</ele>
      </trkpt>
      <trkpt lat="44.03981" lon="5.80721">
        <ele>675</ele>
      </trkpt>
      <trkpt lat="44.0399" lon="5.80727">
        <ele>674</ele>
      </trkpt>
      <trkpt lat="44.03999" lon="5.80735">
        <ele>671</ele>
      </trkpt>
      <trkpt lat="44.0401" lon="5.80729">
        <ele>664</ele>
      </trkpt>
      <trkpt lat="44.04022" lon="5.80706">
        <ele>665</ele>
      </trkpt>
      <trkpt lat="44.04026" lon="5.8069">
        <ele>666</ele>
      </trkpt>
      <trkpt lat="44.04035" lon="5.80669">
        <ele>666</ele>
      </trkpt>
      <trkpt lat="44.04047" lon="5.80643">
        <ele>671</ele>
      </trkpt>
      <trkpt lat="44.04056" lon="5.80628">
        <ele>671</ele>
      </trkpt>
      <trkpt lat="44.04062" lon="5.80606">
        <ele>671</ele>
      </trkpt>
      <trkpt lat="44.04069" lon="5.8059">
        <ele>669</ele>
      </trkpt>
      <trkpt lat="44.04073" lon="5.8057">
        <ele>671</ele>
      </trkpt>
      <trkpt lat="44.04078" lon="5.8055">
        <ele>673</ele>
      </trkpt>
      <trkpt lat="44.04087" lon="5.80526">
        <ele>664</ele>
      </trkpt>
      <trkpt lat="44.04095" lon="5.80503">
        <ele>665</ele>
      </trkpt>
      <trkpt lat="44.04104" lon="5.80479">
        <ele>665</ele>
      </trkpt>
      <trkpt lat="44.04112" lon="5.80455">
        <ele>664</ele>
      </trkpt>
      <trkpt lat="44.04124" lon="5.80435">
        <ele>664</ele>
      </trkpt>
      <trkpt lat="44.04125" lon="5.80432">
        <ele>664</ele>
      </trkpt>
      <trkpt lat="44.04133" lon="5.8041">
        <ele>663</ele>
      </trkpt>
      <trkpt lat="44.0414" lon="5.80384">
        <ele>663</ele>
      </trkpt>
      <trkpt lat="44.0415" lon="5.80348">
        <ele>662</ele>
      </trkpt>
      <trkpt lat="44.04165" lon="5.80322">
        <ele>662</ele>
      </trkpt>
      <trkpt lat="44.04171" lon="5.80308">
        <ele>663</ele>
      </trkpt>
      <trkpt lat="44.04187" lon="5.80284">
        <ele>663</ele>
      </trkpt>
      <trkpt lat="44.04208" lon="5.80253">
        <ele>663</ele>
      </trkpt>
      <trkpt lat="44.04217" lon="5.80232">
        <ele>663</ele>
      </trkpt>
      <trkpt lat="44.04221" lon="5.80216">
        <ele>663</ele>
      </trkpt>
      <trkpt lat="44.04215" lon="5.80191">
        <ele>662</ele>
      </trkpt>
      <trkpt lat="44.04206" lon="5.80164">
        <ele>663</ele>
      </trkpt>
      <trkpt lat="44.04196" lon="5.80136">
        <ele>663</ele>
      </trkpt>
      <trkpt lat="44.04186" lon="5.80108">
        <ele>663</ele>
      </trkpt>
      <trkpt lat="44.04177" lon="5.80071">
        <ele>663</ele>
      </trkpt>
      <trkpt lat="44.04178" lon="5.80046">
        <ele>663</ele>
      </trkpt>
      <trkpt lat="44.04189" lon="5.8002">
        <ele>663</ele>
      </trkpt>
      <trkpt lat="44.04192" lon="5.80002">
        <ele>663</ele>
      </trkpt>
      <trkpt lat="44.04189" lon="5.79966">
        <ele>663</ele>
      </trkpt>
      <trkpt lat="44.04182" lon="5.79932">
        <ele>662</ele>
      </trkpt>
      <trkpt lat="44.04169" lon="5.79903">
        <ele>663</ele>
      </trkpt>
      <trkpt lat="44.04152" lon="5.79876">
        <ele>660</ele>
      </trkpt>
      <trkpt lat="44.04139" lon="5.79845">
        <ele>660</ele>
      </trkpt>
      <trkpt lat="44.04127" lon="5.79829">
        <ele>660</ele>
      </trkpt>
      <trkpt lat="44.04112" lon="5.79819">
        <ele>660</ele>
      </trkpt>
      <trkpt lat="44.04097" lon="5.79809">
        <ele>659</ele>
      </trkpt>
      <trkpt lat="44.04081" lon="5.79798">
        <ele>657</ele>
      </trkpt>
      <trkpt lat="44.04063" lon="5.79788">
        <ele>657</ele>
      </trkpt>
      <trkpt lat="44.04036" lon="5.79769">
        <ele>657</ele>
      </trkpt>
      <trkpt lat="44.04016" lon="5.79739">
        <ele>655</ele>
      </trkpt>
      <trkpt lat="44.04001" lon="5.79699">
        <ele>655</ele>
      </trkpt>
      <trkpt lat="44.03991" lon="5.7966">
        <ele>653</ele>
      </trkpt>
      <trkpt lat="44.03959" lon="5.79588">
        <ele>652</ele>
      </trkpt>
      <trkpt lat="44.03954" lon="5.79556">
        <ele>653</ele>
      </trkpt>
      <trkpt lat="44.03956" lon="5.79531">
        <ele>654</ele>
      </trkpt>
      <trkpt lat="44.03965" lon="5.79475">
        <ele>655</ele>
      </trkpt>
      <trkpt lat="44.03977" lon="5.79419">
        <ele>655</ele>
      </trkpt>
      <trkpt lat="44.03987" lon="5.79347">
        <ele>655</ele>
      </trkpt>
      <trkpt lat="44.03989" lon="5.79292">
        <ele>655</ele>
      </trkpt>
      <trkpt lat="44.03998" lon="5.79243">
        <ele>657</ele>
      </trkpt>
      <trkpt lat="44.03995" lon="5.79185">
        <ele>657</ele>
      </trkpt>
      <trkpt lat="44.03998" lon="5.79127">
        <ele>658</ele>
      </trkpt>
      <trkpt lat="44.04006" lon="5.79071">
        <ele>662</ele>
      </trkpt>
      <trkpt lat="44.04012" lon="5.79015">
        <ele>663</ele>
      </trkpt>
      <trkpt lat="44.04018" lon="5.78994">
        <ele>664</ele>
      </trkpt>
      <trkpt lat="44.04034" lon="5.78939">
        <ele>664</ele>
      </trkpt>
      <trkpt lat="44.04062" lon="5.78873">
        <ele>663</ele>
      </trkpt>
      <trkpt lat="44.04093" lon="5.78815">
        <ele>666</ele>
      </trkpt>
      <trkpt lat="44.04126" lon="5.78773">
        <ele>667</ele>
      </trkpt>
      <trkpt lat="44.04134" lon="5.78763">
        <ele>668</ele>
      </trkpt>
      <trkpt lat="44.04138" lon="5.78728">
        <ele>668</ele>
      </trkpt>
      <trkpt lat="44.04133" lon="5.78692">
        <ele>668</ele>
      </trkpt>
      <trkpt lat="44.04127" lon="5.78652">
        <ele>668</ele>
      </trkpt>
      <trkpt lat="44.04123" lon="5.78613">
        <ele>668</ele>
      </trkpt>
      <trkpt lat="44.04123" lon="5.7857">
        <ele>667</ele>
      </trkpt>
      <trkpt lat="44.0413" lon="5.78523">
        <ele>666</ele>
      </trkpt>
      <trkpt lat="44.04142" lon="5.78491">
        <ele>666</ele>
      </trkpt>
      <trkpt lat="44.04162" lon="5.78462">
        <ele>665</ele>
      </trkpt>
      <trkpt lat="44.0417" lon="5.78448">
        <ele>669</ele>
      </trkpt>
      <trkpt lat="44.04188" lon="5.78401">
        <ele>668</ele>
      </trkpt>
      <trkpt lat="44.04195" lon="5.78363">
        <ele>668</ele>
      </trkpt>
      <trkpt lat="44.04206" lon="5.78326">
        <ele>669</ele>
      </trkpt>
      <trkpt lat="44.04217" lon="5.78275">
        <ele>669</ele>
      </trkpt>
      <trkpt lat="44.04224" lon="5.78217">
        <ele>669</ele>
      </trkpt>
      <trkpt lat="44.04242" lon="5.78167">
        <ele>670</ele>
      </trkpt>
      <trkpt lat="44.04261" lon="5.78131">
        <ele>674</ele>
      </trkpt>
      <trkpt lat="44.04255" lon="5.78112">
        <ele>673</ele>
      </trkpt>
      <trkpt lat="44.04268" lon="5.78095">
        <ele>673</ele>
      </trkpt>
      <trkpt lat="44.04308" lon="5.78103">
        <ele>676</ele>
      </trkpt>
      <trkpt lat="44.04336" lon="5.78082">
        <ele>678</ele>
      </trkpt>
      <trkpt lat="44.04368" lon="5.78075">
        <ele>681</ele>
      </trkpt>
      <trkpt lat="44.04411" lon="5.78051">
        <ele>683</ele>
      </trkpt>
      <trkpt lat="44.04445" lon="5.78025">
        <ele>688</ele>
      </trkpt>
      <trkpt lat="44.04474" lon="5.78026">
        <ele>689</ele>
      </trkpt>
      <trkpt lat="44.04505" lon="5.7802">
        <ele>693</ele>
      </trkpt>
      <trkpt lat="44.04543" lon="5.78013">
        <ele>694</ele>
      </trkpt>
      <trkpt lat="44.04543" lon="5.78013">
        <ele>694</ele>
      </trkpt>
      <trkpt lat="44.04543" lon="5.78004">
        <ele>694</ele>
      </trkpt>
      <trkpt lat="44.04542" lon="5.78054">
        <ele>695</ele>
      </trkpt>
      <trkpt lat="44.04543" lon="5.78142">
        <ele>718</ele>
      </trkpt>
      <trkpt lat="44.04537" lon="5.78219">
        <ele>719</ele>
      </trkpt>
      <trkpt lat="44.04542" lon="5.78282">
        <ele>719</ele>
      </trkpt>
      <trkpt lat="44.04543" lon="5.78384">
        <ele>718</ele>
      </trkpt>
      <trkpt lat="44.04613" lon="5.78379">
        <ele>719</ele>
      </trkpt>
      <trkpt lat="44.04655" lon="5.78367">
        <ele>718</ele>
      </trkpt>
      <trkpt lat="44.04708" lon="5.78356">
        <ele>718</ele>
      </trkpt>
      <trkpt lat="44.04773" lon="5.78364">
        <ele>718</ele>
      </trkpt>
      <trkpt lat="44.0482" lon="5.78368">
        <ele>720</ele>
      </trkpt>
      <trkpt lat="44.04856" lon="5.78371">
        <ele>725</ele>
      </trkpt>
      <trkpt lat="44.04872" lon="5.78377">
        <ele>726</ele>
      </trkpt>
      <trkpt lat="44.04908" lon="5.78383">
        <ele>727</ele>
      </trkpt>
      <trkpt lat="44.04925" lon="5.78379">
        <ele>733</ele>
      </trkpt>
      <trkpt lat="44.04978" lon="5.78371">
        <ele>735</ele>
      </trkpt>
      <trkpt lat="44.05013" lon="5.78363">
        <ele>741</ele>
      </trkpt>
      <trkpt lat="44.05037" lon="5.78363">
        <ele>742</ele>
      </trkpt>
      <trkpt lat="44.05057" lon="5.7836">
        <ele>743</ele>
      </trkpt>
      <trkpt lat="44.0507" lon="5.78357">
        <ele>743</ele>
      </trkpt>
      <trkpt lat="44.05076" lon="5.78354">
        <ele>744</ele>
      </trkpt>
      <trkpt lat="44.05124" lon="5.7833">
        <ele>751</ele>
      </trkpt>
      <trkpt lat="44.0516" lon="5.78326">
        <ele>754</ele>
      </trkpt>
      <trkpt lat="44.05172" lon="5.78327">
        <ele>758</ele>
      </trkpt>
      <trkpt lat="44.0519" lon="5.78323">
        <ele>760</ele>
      </trkpt>
      <trkpt lat="44.05215" lon="5.78314">
        <ele>762</ele>
      </trkpt>
      <trkpt lat="44.05229" lon="5.7831">
        <ele>763</ele>
      </trkpt>
      <trkpt lat="44.05237" lon="5.78307">
        <ele>764</ele>
      </trkpt>
      <trkpt lat="44.05258" lon="5.78296">
        <ele>770</ele>
      </trkpt>
      <trkpt lat="44.05278" lon="5.78293">
        <ele>771</ele>
      </trkpt>
      <trkpt lat="44.05302" lon="5.78287">
        <ele>773</ele>
      </trkpt>
      <trkpt lat="44.05309" lon="5.78289">
        <ele>773</ele>
      </trkpt>
      <trkpt lat="44.05313" lon="5.78297">
        <ele>773</ele>
      </trkpt>
      <trkpt lat="44.05316" lon="5.78303">
        <ele>773</ele>
      </trkpt>
      <trkpt lat="44.05345" lon="5.78324">
        <ele>778</ele>
      </trkpt>
      <trkpt lat="44.05382" lon="5.78357">
        <ele>783</ele>
      </trkpt>
      <trkpt lat="44.05405" lon="5.7839">
        <ele>785</ele>
      </trkpt>
      <trkpt lat="44.05411" lon="5.78398">
        <ele>786</ele>
      </trkpt>
      <trkpt lat="44.05433" lon="5.78435">
        <ele>793</ele>
      </trkpt>
      <trkpt lat="44.05464" lon="5.78492">
        <ele>797</ele>
      </trkpt>
      <trkpt lat="44.05477" lon="5.78533">
        <ele>800</ele>
      </trkpt>
      <trkpt lat="44.05497" lon="5.78579">
        <ele>804</ele>
      </trkpt>
      <trkpt lat="44.05527" lon="5.78617">
        <ele>810</ele>
      </trkpt>
      <trkpt lat="44.05537" lon="5.78627">
        <ele>811</ele>
      </trkpt>
      <trkpt lat="44.05557" lon="5.7865">
        <ele>813</ele>
      </trkpt>
      <trkpt lat="44.05563" lon="5.78658">
        <ele>814</ele>
      </trkpt>
      <trkpt lat="44.05605" lon="5.78709">
        <ele>823</ele>
      </trkpt>
      <trkpt lat="44.05617" lon="5.78721">
        <ele>823</ele>
      </trkpt>
      <trkpt lat="44.05648" lon="5.78752">
        <ele>827</ele>
      </trkpt>
      <trkpt lat="44.05658" lon="5.78765">
        <ele>827</ele>
      </trkpt>
      <trkpt lat="44.05668" lon="5.78783">
        <ele>834</ele>
      </trkpt>
      <trkpt lat="44.05682" lon="5.78803">
        <ele>835</ele>
      </trkpt>
      <trkpt lat="44.05692" lon="5.78821">
        <ele>836</ele>
      </trkpt>
      <trkpt lat="44.05712" lon="5.78841">
        <ele>839</ele>
      </trkpt>
      <trkpt lat="44.05726" lon="5.78854">
        <ele>840</ele>
      </trkpt>
      <trkpt lat="44.05735" lon="5.78869">
        <ele>840</ele>
      </trkpt>
      <trkpt lat="44.05737" lon="5.78871">
        <ele>840</ele>
      </trkpt>
      <trkpt lat="44.0575" lon="5.78878">
        <ele>840</ele>
      </trkpt>
      <trkpt lat="44.0577" lon="5.78895">
        <ele>846</ele>
      </trkpt>
      <trkpt lat="44.05777" lon="5.789">
        <ele>847</ele>
      </trkpt>
      <trkpt lat="44.05805" lon="5.78936">
        <ele>848</ele>
      </trkpt>
      <trkpt lat="44.05813" lon="5.78954">
        <ele>849</ele>
      </trkpt>
      <trkpt lat="44.05821" lon="5.7897">
        <ele>849</ele>
      </trkpt>
      <trkpt lat="44.05837" lon="5.79001">
        <ele>853</ele>
      </trkpt>
      <trkpt lat="44.05841" lon="5.79008">
        <ele>854</ele>
      </trkpt>
      <trkpt lat="44.05864" lon="5.79039">
        <ele>856</ele>
      </trkpt>
      <trkpt lat="44.05888" lon="5.79069">
        <ele>857</ele>
      </trkpt>
      <trkpt lat="44.05898" lon="5.79092">
        <ele>855</ele>
      </trkpt>
      <trkpt lat="44.05926" lon="5.79144">
        <ele>858</ele>
      </trkpt>
      <trkpt lat="44.05933" lon="5.79157">
        <ele>857</ele>
      </trkpt>
      <trkpt lat="44.05949" lon="5.79183">
        <ele>855</ele>
      </trkpt>
      <trkpt lat="44.0597" lon="5.79215">
        <ele>856</ele>
      </trkpt>
      <trkpt lat="44.06006" lon="5.79244">
        <ele>860</ele>
      </trkpt>
      <trkpt lat="44.0604" lon="5.79273">
        <ele>860</ele>
      </trkpt>
      <trkpt lat="44.06077" lon="5.79306">
        <ele>860</ele>
      </trkpt>
      <trkpt lat="44.06082" lon="5.79309">
        <ele>860</ele>
      </trkpt>
      <trkpt lat="44.06097" lon="5.79312">
        <ele>864</ele>
      </trkpt>
      <trkpt lat="44.0611" lon="5.79284">
        <ele>867</ele>
      </trkpt>
      <trkpt lat="44.06118" lon="5.79254">
        <ele>868</ele>
      </trkpt>
      <trkpt lat="44.06136" lon="5.79234">
        <ele>873</ele>
      </trkpt>
      <trkpt lat="44.06167" lon="5.79219">
        <ele>872</ele>
      </trkpt>
      <trkpt lat="44.06188" lon="5.79248">
        <ele>873</ele>
      </trkpt>
      <trkpt lat="44.06204" lon="5.79265">
        <ele>872</ele>
      </trkpt>
      <trkpt lat="44.0626" lon="5.79295">
        <ele>873</ele>
      </trkpt>
      <trkpt lat="44.06312" lon="5.79301">
        <ele>900</ele>
      </trkpt>
      <trkpt lat="44.06343" lon="5.79327">
        <ele>901</ele>
      </trkpt>
      <trkpt lat="44.06355" lon="5.79319">
        <ele>901</ele>
      </trkpt>
      <trkpt lat="44.06367" lon="5.79311">
        <ele>902</ele>
      </trkpt>
      <trkpt lat="44.06377" lon="5.79301">
        <ele>908</ele>
      </trkpt>
      <trkpt lat="44.064" lon="5.79316">
        <ele>909</ele>
      </trkpt>
      <trkpt lat="44.06424" lon="5.79312">
        <ele>919</ele>
      </trkpt>
      <trkpt lat="44.06448" lon="5.79315">
        <ele>921</ele>
      </trkpt>
      <trkpt lat="44.06486" lon="5.7932">
        <ele>922</ele>
      </trkpt>
      <trkpt lat="44.06509" lon="5.79332">
        <ele>923</ele>
      </trkpt>
      <trkpt lat="44.06556" lon="5.79365">
        <ele>924</ele>
      </trkpt>
      <trkpt lat="44.06623" lon="5.79379">
        <ele>926</ele>
      </trkpt>
      <trkpt lat="44.06673" lon="5.79415">
        <ele>925</ele>
      </trkpt>
      <trkpt lat="44.06744" lon="5.79462">
        <ele>926</ele>
      </trkpt>
      <trkpt lat="44.06814" lon="5.79498">
        <ele>928</ele>
      </trkpt>
      <trkpt lat="44.06861" lon="5.79501">
        <ele>938</ele>
      </trkpt>
      <trkpt lat="44.06901" lon="5.79503">
        <ele>943</ele>
      </trkpt>
      <trkpt lat="44.06903" lon="5.79508">
        <ele>943</ele>
      </trkpt>
      <trkpt lat="44.06914" lon="5.79531">
        <ele>946</ele>
      </trkpt>
      <trkpt lat="44.06922" lon="5.79531">
        <ele>947</ele>
      </trkpt>
      <trkpt lat="44.06924" lon="5.79531">
        <ele>947</ele>
      </trkpt>
      <trkpt lat="44.06938" lon="5.79526">
        <ele>949</ele>
      </trkpt>
      <trkpt lat="44.06944" lon="5.79519">
        <ele>951</ele>
      </trkpt>
      <trkpt lat="44.06958" lon="5.79519">
        <ele>953</ele>
      </trkpt>
      <trkpt lat="44.06974" lon="5.79517">
        <ele>954</ele>
      </trkpt>
      <trkpt lat="44.06993" lon="5.79535">
        <ele>958</ele>
      </trkpt>
      <trkpt lat="44.06999" lon="5.79538">
        <ele>959</ele>
      </trkpt>
      <trkpt lat="44.07019" lon="5.79541">
        <ele>960</ele>
      </trkpt>
      <trkpt lat="44.07035" lon="5.79556">
        <ele>965</ele>
      </trkpt>
      <trkpt lat="44.07048" lon="5.7957">
        <ele>965</ele>
      </trkpt>
      <trkpt lat="44.07071" lon="5.79593">
        <ele>966</ele>
      </trkpt>
      <trkpt lat="44.07102" lon="5.79636">
        <ele>967</ele>
      </trkpt>
      <trkpt lat="44.0714" lon="5.79701">
        <ele>968</ele>
      </trkpt>
      <trkpt lat="44.07199" lon="5.79693">
        <ele>971</ele>
      </trkpt>
      <trkpt lat="44.07241" lon="5.79698">
        <ele>971</ele>
      </trkpt>
      <trkpt lat="44.07281" lon="5.797">
        <ele>975</ele>
      </trkpt>
      <trkpt lat="44.07328" lon="5.79708">
        <ele>976</ele>
      </trkpt>
      <trkpt lat="44.07385" lon="5.79711">
        <ele>977</ele>
      </trkpt>
      <trkpt lat="44.07445" lon="5.79708">
        <ele>978</ele>
      </trkpt>
      <trkpt lat="44.07495" lon="5.79683">
        <ele>980</ele>
      </trkpt>
      <trkpt lat="44.07529" lon="5.79671">
        <ele>982</ele>
      </trkpt>
      <trkpt lat="44.07581" lon="5.79643">
        <ele>985</ele>
      </trkpt>
      <trkpt lat="44.07628" lon="5.79618">
        <ele>986</ele>
      </trkpt>
      <trkpt lat="44.07656" lon="5.79606">
        <ele>988</ele>
      </trkpt>
      <trkpt lat="44.07698" lon="5.79591">
        <ele>989</ele>
      </trkpt>
      <trkpt lat="44.07736" lon="5.79563">
        <ele>990</ele>
      </trkpt>
      <trkpt lat="44.07759" lon="5.79605">
        <ele>990</ele>
      </trkpt>
      <trkpt lat="44.07785" lon="5.79664">
        <ele>992</ele>
      </trkpt>
      <trkpt lat="44.07801" lon="5.79728">
        <ele>998</ele>
      </trkpt>
      <trkpt lat="44.07807" lon="5.79811">
        <ele>998</ele>
      </trkpt>
      <trkpt lat="44.07813" lon="5.79817">
        <ele>998</ele>
      </trkpt>
      <trkpt lat="44.07819" lon="5.79889">
        <ele>1004</ele>
      </trkpt>
      <trkpt lat="44.07885" lon="5.79878">
        <ele>1007</ele>
      </trkpt>
      <trkpt lat="44.079" lon="5.79887">
        <ele>1007</ele>
      </trkpt>
      <trkpt lat="44.0791" lon="5.79888">
        <ele>1016</ele>
      </trkpt>
      <trkpt lat="44.07926" lon="5.79894">
        <ele>1017</ele>
      </trkpt>
      <trkpt lat="44.07932" lon="5.79894">
        <ele>1018</ele>
      </trkpt>
      <trkpt lat="44.07961" lon="5.79893">
        <ele>1021</ele>
      </trkpt>
      <trkpt lat="44.07988" lon="5.79875">
        <ele>1022</ele>
      </trkpt>
      <trkpt lat="44.08047" lon="5.79894">
        <ele>1022</ele>
      </trkpt>
      <trkpt lat="44.08105" lon="5.79939">
        <ele>1063</ele>
      </trkpt>
      <trkpt lat="44.08132" lon="5.79967">
        <ele>1066</ele>
      </trkpt>
      <trkpt lat="44.08166" lon="5.79972">
        <ele>1066</ele>
      </trkpt>
      <trkpt lat="44.08197" lon="5.79965">
        <ele>1073</ele>
      </trkpt>
      <trkpt lat="44.08233" lon="5.7997">
        <ele>1078</ele>
      </trkpt>
      <trkpt lat="44.08256" lon="5.7999">
        <ele>1081</ele>
      </trkpt>
      <trkpt lat="44.08302" lon="5.80003">
        <ele>1087</ele>
      </trkpt>
      <trkpt lat="44.08354" lon="5.79967">
        <ele>1094</ele>
      </trkpt>
      <trkpt lat="44.08355" lon="5.7994">
        <ele>1096</ele>
      </trkpt>
      <trkpt lat="44.08364" lon="5.79872">
        <ele>1098</ele>
      </trkpt>
      <trkpt lat="44.0839" lon="5.79873">
        <ele>1101</ele>
      </trkpt>
      <trkpt lat="44.0843" lon="5.79875">
        <ele>1109</ele>
      </trkpt>
      <trkpt lat="44.08428" lon="5.79847">
        <ele>1112</ele>
      </trkpt>
      <trkpt lat="44.0845" lon="5.7984">
        <ele>1112</ele>
      </trkpt>
      <trkpt lat="44.08466" lon="5.79857">
        <ele>1113</ele>
      </trkpt>
      <trkpt lat="44.08506" lon="5.79898">
        <ele>1119</ele>
      </trkpt>
      <trkpt lat="44.08528" lon="5.79915">
        <ele>1120</ele>
      </trkpt>
      <trkpt lat="44.0856" lon="5.79969">
        <ele>1122</ele>
      </trkpt>
      <trkpt lat="44.08592" lon="5.79973">
        <ele>1125</ele>
      </trkpt>
      <trkpt lat="44.08627" lon="5.7997">
        <ele>1132</ele>
      </trkpt>
      <trkpt lat="44.08668" lon="5.79939">
        <ele>1134</ele>
      </trkpt>
      <trkpt lat="44.08732" lon="5.79903">
        <ele>1140</ele>
      </trkpt>
      <trkpt lat="44.08775" lon="5.79922">
        <ele>1142</ele>
      </trkpt>
      <trkpt lat="44.08776" lon="5.79972">
        <ele>1142</ele>
      </trkpt>
      <trkpt lat="44.08755" lon="5.80039">
        <ele>1143</ele>
      </trkpt>
      <trkpt lat="44.08729" lon="5.80093">
        <ele>1144</ele>
      </trkpt>
      <trkpt lat="44.08717" lon="5.80128">
        <ele>1148</ele>
      </trkpt>
      <trkpt lat="44.0871" lon="5.80172">
        <ele>1149</ele>
      </trkpt>
      <trkpt lat="44.08702" lon="5.80215">
        <ele>1150</ele>
      </trkpt>
      <trkpt lat="44.08705" lon="5.80262">
        <ele>1151</ele>
      </trkpt>
      <trkpt lat="44.087" lon="5.80312">
        <ele>1151</ele>
      </trkpt>
      <trkpt lat="44.08689" lon="5.80349">
        <ele>1152</ele>
      </trkpt>
      <trkpt lat="44.08668" lon="5.80406">
        <ele>1153</ele>
      </trkpt>
      <trkpt lat="44.08661" lon="5.80442">
        <ele>1151</ele>
      </trkpt>
      <trkpt lat="44.08656" lon="5.80472">
        <ele>1150</ele>
      </trkpt>
      <trkpt lat="44.08645" lon="5.80526">
        <ele>1149</ele>
      </trkpt>
      <trkpt lat="44.08646" lon="5.80573">
        <ele>1149</ele>
      </trkpt>
      <trkpt lat="44.08652" lon="5.80623">
        <ele>1148</ele>
      </trkpt>
      <trkpt lat="44.08653" lon="5.80683">
        <ele>1147</ele>
      </trkpt>
      <trkpt lat="44.08663" lon="5.80718">
        <ele>1147</ele>
      </trkpt>
      <trkpt lat="44.08676" lon="5.80716">
        <ele>1148</ele>
      </trkpt>
      <trkpt lat="44.0869" lon="5.80716">
        <ele>1148</ele>
      </trkpt>
      <trkpt lat="44.08692" lon="5.80716">
        <ele>1148</ele>
      </trkpt>
      <trkpt lat="44.08702" lon="5.80718">
        <ele>1149</ele>
      </trkpt>
      <trkpt lat="44.08707" lon="5.80718">
        <ele>1149</ele>
      </trkpt>
      <trkpt lat="44.08723" lon="5.80721">
        <ele>1148</ele>
      </trkpt>
      <trkpt lat="44.08731" lon="5.80721">
        <ele>1148</ele>
      </trkpt>
      <trkpt lat="44.08741" lon="5.80723">
        <ele>1147</ele>
      </trkpt>
      <trkpt lat="44.08754" lon="5.80726">
        <ele>1148</ele>
      </trkpt>
      <trkpt lat="44.08765" lon="5.80726">
        <ele>1148</ele>
      </trkpt>
      <trkpt lat="44.08774" lon="5.80728">
        <ele>1149</ele>
      </trkpt>
      <trkpt lat="44.08781" lon="5.80729">
        <ele>1149</ele>
      </trkpt>
      <trkpt lat="44.0879" lon="5.80731">
        <ele>1149</ele>
      </trkpt>
      <trkpt lat="44.08799" lon="5.80732">
        <ele>1149</ele>
      </trkpt>
      <trkpt lat="44.0881" lon="5.80733">
        <ele>1148</ele>
      </trkpt>
      <trkpt lat="44.08818" lon="5.80735">
        <ele>1147</ele>
      </trkpt>
      <trkpt lat="44.08826" lon="5.80739">
        <ele>1145</ele>
      </trkpt>
      <trkpt lat="44.08835" lon="5.80742">
        <ele>1144</ele>
      </trkpt>
      <trkpt lat="44.08844" lon="5.80745">
        <ele>1146</ele>
      </trkpt>
      <trkpt lat="44.08854" lon="5.80748">
        <ele>1148</ele>
      </trkpt>
      <trkpt lat="44.08859" lon="5.80753">
        <ele>1145</ele>
      </trkpt>
      <trkpt lat="44.08866" lon="5.80767">
        <ele>1146</ele>
      </trkpt>
      <trkpt lat="44.08864" lon="5.8077">
        <ele>1146</ele>
      </trkpt>
      <trkpt lat="44.08863" lon="5.80771">
        <ele>1146</ele>
      </trkpt>
      <trkpt lat="44.08855" lon="5.80775">
        <ele>1145</ele>
      </trkpt>
      <trkpt lat="44.08846" lon="5.8078">
        <ele>1145</ele>
      </trkpt>
      <trkpt lat="44.08841" lon="5.80781">
        <ele>1145</ele>
      </trkpt>
      <trkpt lat="44.08838" lon="5.80784">
        <ele>1145</ele>
      </trkpt>
      <trkpt lat="44.0883" lon="5.80788">
        <ele>1138</ele>
      </trkpt>
      <trkpt lat="44.08822" lon="5.80791">
        <ele>1138</ele>
      </trkpt>
      <trkpt lat="44.08812" lon="5.80792">
        <ele>1138</ele>
      </trkpt>
      <trkpt lat="44.08801" lon="5.80795">
        <ele>1137</ele>
      </trkpt>
      <trkpt lat="44.08791" lon="5.80796">
        <ele>1137</ele>
      </trkpt>
      <trkpt lat="44.08778" lon="5.808">
        <ele>1136</ele>
      </trkpt>
      <trkpt lat="44.08769" lon="5.80805">
        <ele>1135</ele>
      </trkpt>
      <trkpt lat="44.08759" lon="5.80808">
        <ele>1135</ele>
      </trkpt>
      <trkpt lat="44.08751" lon="5.80809">
        <ele>1134</ele>
      </trkpt>
      <trkpt lat="44.08748" lon="5.80809">
        <ele>1130</ele>
      </trkpt>
      <trkpt lat="44.08741" lon="5.80807">
        <ele>1130</ele>
      </trkpt>
      <trkpt lat="44.08734" lon="5.80808">
        <ele>1130</ele>
      </trkpt>
      <trkpt lat="44.08722" lon="5.80807">
        <ele>1130</ele>
      </trkpt>
      <trkpt lat="44.08716" lon="5.80808">
        <ele>1129</ele>
      </trkpt>
      <trkpt lat="44.0871" lon="5.80812">
        <ele>1129</ele>
      </trkpt>
      <trkpt lat="44.087" lon="5.80822">
        <ele>1127</ele>
      </trkpt>
      <trkpt lat="44.08692" lon="5.80831">
        <ele>1125</ele>
      </trkpt>
      <trkpt lat="44.08681" lon="5.80835">
        <ele>1121</ele>
      </trkpt>
      <trkpt lat="44.08673" lon="5.80839">
        <ele>1119</ele>
      </trkpt>
      <trkpt lat="44.08671" lon="5.80839">
        <ele>1119</ele>
      </trkpt>
      <trkpt lat="44.08662" lon="5.80843">
        <ele>1115</ele>
      </trkpt>
      <trkpt lat="44.08654" lon="5.80847">
        <ele>1115</ele>
      </trkpt>
      <trkpt lat="44.08646" lon="5.80852">
        <ele>1114</ele>
      </trkpt>
      <trkpt lat="44.0864" lon="5.80857">
        <ele>1114</ele>
      </trkpt>
      <trkpt lat="44.08634" lon="5.80864">
        <ele>1113</ele>
      </trkpt>
      <trkpt lat="44.08626" lon="5.80872">
        <ele>1113</ele>
      </trkpt>
      <trkpt lat="44.08619" lon="5.80879">
        <ele>1112</ele>
      </trkpt>
      <trkpt lat="44.08611" lon="5.80886">
        <ele>1111</ele>
      </trkpt>
      <trkpt lat="44.08599" lon="5.80896">
        <ele>1109</ele>
      </trkpt>
      <trkpt lat="44.08593" lon="5.80899">
        <ele>1108</ele>
      </trkpt>
      <trkpt lat="44.0858" lon="5.80906">
        <ele>1103</ele>
      </trkpt>
      <trkpt lat="44.08565" lon="5.80913">
        <ele>1103</ele>
      </trkpt>
      <trkpt lat="44.08556" lon="5.80915">
        <ele>1103</ele>
      </trkpt>
      <trkpt lat="44.08546" lon="5.80919">
        <ele>1101</ele>
      </trkpt>
      <trkpt lat="44.08536" lon="5.80933">
        <ele>1100</ele>
      </trkpt>
      <trkpt lat="44.08529" lon="5.80944">
        <ele>1100</ele>
      </trkpt>
      <trkpt lat="44.0852" lon="5.80955">
        <ele>1100</ele>
      </trkpt>
      <trkpt lat="44.08509" lon="5.80963">
        <ele>1100</ele>
      </trkpt>
      <trkpt lat="44.08497" lon="5.80974">
        <ele>1093</ele>
      </trkpt>
      <trkpt lat="44.08488" lon="5.80985">
        <ele>1093</ele>
      </trkpt>
      <trkpt lat="44.0848" lon="5.80996">
        <ele>1093</ele>
      </trkpt>
      <trkpt lat="44.0847" lon="5.81004">
        <ele>1091</ele>
      </trkpt>
      <trkpt lat="44.08463" lon="5.81008">
        <ele>1090</ele>
      </trkpt>
      <trkpt lat="44.08454" lon="5.81013">
        <ele>1089</ele>
      </trkpt>
      <trkpt lat="44.08449" lon="5.81017">
        <ele>1089</ele>
      </trkpt>
      <trkpt lat="44.08438" lon="5.81027">
        <ele>1088</ele>
      </trkpt>
      <trkpt lat="44.08426" lon="5.81037">
        <ele>1087</ele>
      </trkpt>
      <trkpt lat="44.08419" lon="5.81044">
        <ele>1087</ele>
      </trkpt>
      <trkpt lat="44.08409" lon="5.81054">
        <ele>1082</ele>
      </trkpt>
      <trkpt lat="44.084" lon="5.81064">
        <ele>1082</ele>
      </trkpt>
      <trkpt lat="44.08393" lon="5.81077">
        <ele>1082</ele>
      </trkpt>
      <trkpt lat="44.08387" lon="5.81088">
        <ele>1077</ele>
      </trkpt>
      <trkpt lat="44.08378" lon="5.81105">
        <ele>1076</ele>
      </trkpt>
      <trkpt lat="44.08371" lon="5.81119">
        <ele>1076</ele>
      </trkpt>
      <trkpt lat="44.08362" lon="5.81135">
        <ele>1074</ele>
      </trkpt>
      <trkpt lat="44.08356" lon="5.81151">
        <ele>1072</ele>
      </trkpt>
      <trkpt lat="44.0835" lon="5.81167">
        <ele>1067</ele>
      </trkpt>
      <trkpt lat="44.08342" lon="5.81177">
        <ele>1067</ele>
      </trkpt>
      <trkpt lat="44.08339" lon="5.81182">
        <ele>1067</ele>
      </trkpt>
      <trkpt lat="44.08333" lon="5.81196">
        <ele>1065</ele>
      </trkpt>
      <trkpt lat="44.08326" lon="5.8121">
        <ele>1064</ele>
      </trkpt>
      <trkpt lat="44.0832" lon="5.81222">
        <ele>1063</ele>
      </trkpt>
      <trkpt lat="44.08317" lon="5.81235">
        <ele>1062</ele>
      </trkpt>
      <trkpt lat="44.08314" lon="5.81247">
        <ele>1062</ele>
      </trkpt>
      <trkpt lat="44.08308" lon="5.81265">
        <ele>1056</ele>
      </trkpt>
      <trkpt lat="44.08296" lon="5.81281">
        <ele>1055</ele>
      </trkpt>
      <trkpt lat="44.0829" lon="5.81294">
        <ele>1054</ele>
      </trkpt>
      <trkpt lat="44.08283" lon="5.81309">
        <ele>1053</ele>
      </trkpt>
      <trkpt lat="44.08274" lon="5.81324">
        <ele>1051</ele>
      </trkpt>
      <trkpt lat="44.08267" lon="5.8133">
        <ele>1050</ele>
      </trkpt>
      <trkpt lat="44.08261" lon="5.8133">
        <ele>1049</ele>
      </trkpt>
      <trkpt lat="44.08259" lon="5.81332">
        <ele>1048</ele>
      </trkpt>
      <trkpt lat="44.0825" lon="5.81334">
        <ele>1045</ele>
      </trkpt>
      <trkpt lat="44.08244" lon="5.81345">
        <ele>1043</ele>
      </trkpt>
      <trkpt lat="44.08239" lon="5.81357">
        <ele>1042</ele>
      </trkpt>
      <trkpt lat="44.08237" lon="5.81361">
        <ele>1042</ele>
      </trkpt>
      <trkpt lat="44.08231" lon="5.81373">
        <ele>1041</ele>
      </trkpt>
      <trkpt lat="44.08225" lon="5.81384">
        <ele>1041</ele>
      </trkpt>
      <trkpt lat="44.08218" lon="5.81394">
        <ele>1041</ele>
      </trkpt>
      <trkpt lat="44.08209" lon="5.81408">
        <ele>1040</ele>
      </trkpt>
      <trkpt lat="44.08198" lon="5.81422">
        <ele>1040</ele>
      </trkpt>
      <trkpt lat="44.0819" lon="5.81436">
        <ele>1040</ele>
      </trkpt>
      <trkpt lat="44.08183" lon="5.81449">
        <ele>1040</ele>
      </trkpt>
      <trkpt lat="44.08177" lon="5.81455">
        <ele>1040</ele>
      </trkpt>
      <trkpt lat="44.08182" lon="5.81459">
        <ele>1041</ele>
      </trkpt>
      <trkpt lat="44.08178" lon="5.81467">
        <ele>1041</ele>
      </trkpt>
      <trkpt lat="44.08171" lon="5.81481">
        <ele>1040</ele>
      </trkpt>
      <trkpt lat="44.08154" lon="5.815">
        <ele>1038</ele>
      </trkpt>
      <trkpt lat="44.08133" lon="5.81513">
        <ele>1038</ele>
      </trkpt>
      <trkpt lat="44.08111" lon="5.81526">
        <ele>1037</ele>
      </trkpt>
      <trkpt lat="44.08082" lon="5.81537">
        <ele>1028</ele>
      </trkpt>
      <trkpt lat="44.0805" lon="5.81544">
        <ele>1027</ele>
      </trkpt>
      <trkpt lat="44.08028" lon="5.81548">
        <ele>1026</ele>
      </trkpt>
      <trkpt lat="44.08003" lon="5.8156">
        <ele>1025</ele>
      </trkpt>
      <trkpt lat="44.07979" lon="5.81577">
        <ele>1017</ele>
      </trkpt>
      <trkpt lat="44.07957" lon="5.81593">
        <ele>1019</ele>
      </trkpt>
      <trkpt lat="44.07938" lon="5.81606">
        <ele>1018</ele>
      </trkpt>
      <trkpt lat="44.07917" lon="5.81621">
        <ele>1018</ele>
      </trkpt>
      <trkpt lat="44.07903" lon="5.81636">
        <ele>1007</ele>
      </trkpt>
      <trkpt lat="44.07892" lon="5.81651">
        <ele>1008</ele>
      </trkpt>
      <trkpt lat="44.07877" lon="5.81672">
        <ele>1008</ele>
      </trkpt>
      <trkpt lat="44.07862" lon="5.81697">
        <ele>1006</ele>
      </trkpt>
      <trkpt lat="44.07849" lon="5.81722">
        <ele>1006</ele>
      </trkpt>
      <trkpt lat="44.07841" lon="5.81737">
        <ele>1005</ele>
      </trkpt>
      <trkpt lat="44.07833" lon="5.81754">
        <ele>1001</ele>
      </trkpt>
      <trkpt lat="44.07825" lon="5.81777">
        <ele>996</ele>
      </trkpt>
      <trkpt lat="44.07823" lon="5.81797">
        <ele>996</ele>
      </trkpt>
      <trkpt lat="44.07824" lon="5.81824">
        <ele>997</ele>
      </trkpt>
      <trkpt lat="44.07829" lon="5.81855">
        <ele>995</ele>
      </trkpt>
      <trkpt lat="44.07836" lon="5.81886">
        <ele>1001</ele>
      </trkpt>
      <trkpt lat="44.07845" lon="5.81911">
        <ele>999</ele>
      </trkpt>
      <trkpt lat="44.07858" lon="5.81944">
        <ele>996</ele>
      </trkpt>
      <trkpt lat="44.07871" lon="5.81966">
        <ele>996</ele>
      </trkpt>
      <trkpt lat="44.0789" lon="5.81986">
        <ele>996</ele>
      </trkpt>
      <trkpt lat="44.07905" lon="5.82006">
        <ele>993</ele>
      </trkpt>
      <trkpt lat="44.07914" lon="5.8204">
        <ele>988</ele>
      </trkpt>
      <trkpt lat="44.07932" lon="5.82073">
        <ele>993</ele>
      </trkpt>
      <trkpt lat="44.07945" lon="5.8209">
        <ele>988</ele>
      </trkpt>
      <trkpt lat="44.07965" lon="5.82107">
        <ele>989</ele>
      </trkpt>
      <trkpt lat="44.07991" lon="5.82134">
        <ele>989</ele>
      </trkpt>
      <trkpt lat="44.0801" lon="5.82163">
        <ele>994</ele>
      </trkpt>
      <trkpt lat="44.08013" lon="5.82172">
        <ele>993</ele>
      </trkpt>
      <trkpt lat="44.08011" lon="5.82194">
        <ele>995</ele>
      </trkpt>
      <trkpt lat="44.08006" lon="5.822">
        <ele>995</ele>
      </trkpt>
      <trkpt lat="44.07982" lon="5.82211">
        <ele>984</ele>
      </trkpt>
      <trkpt lat="44.07955" lon="5.8223">
        <ele>982</ele>
      </trkpt>
      <trkpt lat="44.07935" lon="5.82248">
        <ele>979</ele>
      </trkpt>
      <trkpt lat="44.07908" lon="5.82283">
        <ele>972</ele>
      </trkpt>
      <trkpt lat="44.07888" lon="5.82316">
        <ele>971</ele>
      </trkpt>
      <trkpt lat="44.0787" lon="5.82347">
        <ele>972</ele>
      </trkpt>
      <trkpt lat="44.07857" lon="5.82369">
        <ele>972</ele>
      </trkpt>
      <trkpt lat="44.07844" lon="5.82396">
        <ele>971</ele>
      </trkpt>
      <trkpt lat="44.07834" lon="5.82426">
        <ele>971</ele>
      </trkpt>
      <trkpt lat="44.0783" lon="5.82447">
        <ele>962</ele>
      </trkpt>
      <trkpt lat="44.07828" lon="5.82461">
        <ele>962</ele>
      </trkpt>
      <trkpt lat="44.07829" lon="5.82489">
        <ele>964</ele>
      </trkpt>
      <trkpt lat="44.07841" lon="5.82535">
        <ele>969</ele>
      </trkpt>
      <trkpt lat="44.07856" lon="5.82572">
        <ele>967</ele>
      </trkpt>
      <trkpt lat="44.07876" lon="5.82603">
        <ele>965</ele>
      </trkpt>
      <trkpt lat="44.07904" lon="5.82635">
        <ele>966</ele>
      </trkpt>
      <trkpt lat="44.07909" lon="5.82642">
        <ele>967</ele>
      </trkpt>
      <trkpt lat="44.07907" lon="5.8266">
        <ele>968</ele>
      </trkpt>
      <trkpt lat="44.07901" lon="5.82665">
        <ele>967</ele>
      </trkpt>
      <trkpt lat="44.07878" lon="5.82681">
        <ele>964</ele>
      </trkpt>
      <trkpt lat="44.07838" lon="5.82727">
        <ele>962</ele>
      </trkpt>
      <trkpt lat="44.07799" lon="5.82769">
        <ele>955</ele>
      </trkpt>
      <trkpt lat="44.07774" lon="5.82808">
        <ele>954</ele>
      </trkpt>
      <trkpt lat="44.07756" lon="5.82854">
        <ele>955</ele>
      </trkpt>
      <trkpt lat="44.07745" lon="5.82904">
        <ele>947</ele>
      </trkpt>
      <trkpt lat="44.07739" lon="5.82973">
        <ele>945</ele>
      </trkpt>
      <trkpt lat="44.07742" lon="5.83035">
        <ele>943</ele>
      </trkpt>
      <trkpt lat="44.07752" lon="5.83092">
        <ele>949</ele>
      </trkpt>
      <trkpt lat="44.07761" lon="5.83134">
        <ele>950</ele>
      </trkpt>
      <trkpt lat="44.07768" lon="5.83164">
        <ele>948</ele>
      </trkpt>
      <trkpt lat="44.07779" lon="5.832">
        <ele>946</ele>
      </trkpt>
      <trkpt lat="44.07797" lon="5.83249">
        <ele>946</ele>
      </trkpt>
      <trkpt lat="44.0782" lon="5.83286">
        <ele>945</ele>
      </trkpt>
      <trkpt lat="44.07822" lon="5.83303">
        <ele>945</ele>
      </trkpt>
      <trkpt lat="44.07817" lon="5.83307">
        <ele>945</ele>
      </trkpt>
      <trkpt lat="44.07799" lon="5.83311">
        <ele>943</ele>
      </trkpt>
      <trkpt lat="44.0778" lon="5.83317">
        <ele>941</ele>
      </trkpt>
      <trkpt lat="44.07762" lon="5.8333">
        <ele>938</ele>
      </trkpt>
      <trkpt lat="44.07752" lon="5.83339">
        <ele>938</ele>
      </trkpt>
      <trkpt lat="44.07735" lon="5.83359">
        <ele>934</ele>
      </trkpt>
      <trkpt lat="44.07718" lon="5.83386">
        <ele>934</ele>
      </trkpt>
      <trkpt lat="44.07704" lon="5.83407">
        <ele>933</ele>
      </trkpt>
      <trkpt lat="44.0769" lon="5.83427">
        <ele>935</ele>
      </trkpt>
      <trkpt lat="44.07677" lon="5.83439">
        <ele>935</ele>
      </trkpt>
      <trkpt lat="44.07664" lon="5.83456">
        <ele>928</ele>
      </trkpt>
      <trkpt lat="44.07649" lon="5.83476">
        <ele>928</ele>
      </trkpt>
      <trkpt lat="44.07635" lon="5.83502">
        <ele>929</ele>
      </trkpt>
      <trkpt lat="44.07625" lon="5.83522">
        <ele>929</ele>
      </trkpt>
      <trkpt lat="44.07616" lon="5.8354">
        <ele>928</ele>
      </trkpt>
      <trkpt lat="44.07604" lon="5.83558">
        <ele>928</ele>
      </trkpt>
      <trkpt lat="44.07593" lon="5.83567">
        <ele>927</ele>
      </trkpt>
      <trkpt lat="44.07579" lon="5.83571">
        <ele>922</ele>
      </trkpt>
      <trkpt lat="44.07567" lon="5.83588">
        <ele>923</ele>
      </trkpt>
      <trkpt lat="44.07551" lon="5.83607">
        <ele>921</ele>
      </trkpt>
      <trkpt lat="44.0754" lon="5.83626">
        <ele>921</ele>
      </trkpt>
      <trkpt lat="44.07528" lon="5.83641">
        <ele>920</ele>
      </trkpt>
      <trkpt lat="44.07515" lon="5.83655">
        <ele>920</ele>
      </trkpt>
      <trkpt lat="44.075" lon="5.83665">
        <ele>918</ele>
      </trkpt>
      <trkpt lat="44.0749" lon="5.83673">
        <ele>917</ele>
      </trkpt>
      <trkpt lat="44.07473" lon="5.83683">
        <ele>915</ele>
      </trkpt>
      <trkpt lat="44.07456" lon="5.83695">
        <ele>914</ele>
      </trkpt>
      <trkpt lat="44.0744" lon="5.83705">
        <ele>913</ele>
      </trkpt>
      <trkpt lat="44.07421" lon="5.83714">
        <ele>912</ele>
      </trkpt>
      <trkpt lat="44.07409" lon="5.83722">
        <ele>905</ele>
      </trkpt>
      <trkpt lat="44.07394" lon="5.83743">
        <ele>905</ele>
      </trkpt>
      <trkpt lat="44.07385" lon="5.83774">
        <ele>906</ele>
      </trkpt>
      <trkpt lat="44.07378" lon="5.83796">
        <ele>905</ele>
      </trkpt>
      <trkpt lat="44.0737" lon="5.83821">
        <ele>905</ele>
      </trkpt>
      <trkpt lat="44.07358" lon="5.83845">
        <ele>905</ele>
      </trkpt>
      <trkpt lat="44.07351" lon="5.8386">
        <ele>905</ele>
      </trkpt>
      <trkpt lat="44.07338" lon="5.83878">
        <ele>906</ele>
      </trkpt>
      <trkpt lat="44.07325" lon="5.83888">
        <ele>899</ele>
      </trkpt>
      <trkpt lat="44.07307" lon="5.83887">
        <ele>898</ele>
      </trkpt>
      <trkpt lat="44.0728" lon="5.83877">
        <ele>896</ele>
      </trkpt>
      <trkpt lat="44.07266" lon="5.83875">
        <ele>895</ele>
      </trkpt>
      <trkpt lat="44.07253" lon="5.83883">
        <ele>895</ele>
      </trkpt>
      <trkpt lat="44.07245" lon="5.83898">
        <ele>890</ele>
      </trkpt>
      <trkpt lat="44.07232" lon="5.83924">
        <ele>891</ele>
      </trkpt>
      <trkpt lat="44.0722" lon="5.83951">
        <ele>889</ele>
      </trkpt>
      <trkpt lat="44.07209" lon="5.83972">
        <ele>888</ele>
      </trkpt>
      <trkpt lat="44.07208" lon="5.83975">
        <ele>888</ele>
      </trkpt>
      <trkpt lat="44.07196" lon="5.8399">
        <ele>887</ele>
      </trkpt>
      <trkpt lat="44.07185" lon="5.84011">
        <ele>886</ele>
      </trkpt>
      <trkpt lat="44.07187" lon="5.84034">
        <ele>888</ele>
      </trkpt>
      <trkpt lat="44.07193" lon="5.8406">
        <ele>888</ele>
      </trkpt>
      <trkpt lat="44.07186" lon="5.84084">
        <ele>887</ele>
      </trkpt>
      <trkpt lat="44.07167" lon="5.84102">
        <ele>878</ele>
      </trkpt>
      <trkpt lat="44.07153" lon="5.84119">
        <ele>876</ele>
      </trkpt>
      <trkpt lat="44.07139" lon="5.84147">
        <ele>876</ele>
      </trkpt>
      <trkpt lat="44.07131" lon="5.84174">
        <ele>876</ele>
      </trkpt>
      <trkpt lat="44.07126" lon="5.84194">
        <ele>875</ele>
      </trkpt>
      <trkpt lat="44.07123" lon="5.84215">
        <ele>874</ele>
      </trkpt>
      <trkpt lat="44.07123" lon="5.84237">
        <ele>874</ele>
      </trkpt>
      <trkpt lat="44.07121" lon="5.84266">
        <ele>871</ele>
      </trkpt>
      <trkpt lat="44.07121" lon="5.84286">
        <ele>871</ele>
      </trkpt>
      <trkpt lat="44.07123" lon="5.84296">
        <ele>871</ele>
      </trkpt>
      <trkpt lat="44.07129" lon="5.84319">
        <ele>871</ele>
      </trkpt>
      <trkpt lat="44.07131" lon="5.84346">
        <ele>866</ele>
      </trkpt>
      <trkpt lat="44.07132" lon="5.84371">
        <ele>865</ele>
      </trkpt>
      <trkpt lat="44.07137" lon="5.84395">
        <ele>865</ele>
      </trkpt>
      <trkpt lat="44.07144" lon="5.84418">
        <ele>862</ele>
      </trkpt>
      <trkpt lat="44.07147" lon="5.84437">
        <ele>861</ele>
      </trkpt>
      <trkpt lat="44.07142" lon="5.84464">
        <ele>859</ele>
      </trkpt>
      <trkpt lat="44.07136" lon="5.84486">
        <ele>858</ele>
      </trkpt>
      <trkpt lat="44.07133" lon="5.84512">
        <ele>853</ele>
      </trkpt>
      <trkpt lat="44.07144" lon="5.8455">
        <ele>852</ele>
      </trkpt>
      <trkpt lat="44.07154" lon="5.84582">
        <ele>854</ele>
      </trkpt>
      <trkpt lat="44.07169" lon="5.84612">
        <ele>858</ele>
      </trkpt>
      <trkpt lat="44.07187" lon="5.84635">
        <ele>859</ele>
      </trkpt>
      <trkpt lat="44.07199" lon="5.84652">
        <ele>859</ele>
      </trkpt>
      <trkpt lat="44.07205" lon="5.84678">
        <ele>856</ele>
      </trkpt>
      <trkpt lat="44.07199" lon="5.84706">
        <ele>855</ele>
      </trkpt>
      <trkpt lat="44.07192" lon="5.84736">
        <ele>853</ele>
      </trkpt>
      <trkpt lat="44.07194" lon="5.84763">
        <ele>851</ele>
      </trkpt>
      <trkpt lat="44.07205" lon="5.8479">
        <ele>852</ele>
      </trkpt>
      <trkpt lat="44.0721" lon="5.84815">
        <ele>852</ele>
      </trkpt>
      <trkpt lat="44.0721" lon="5.84841">
        <ele>849</ele>
      </trkpt>
      <trkpt lat="44.07208" lon="5.84871">
        <ele>848</ele>
      </trkpt>
      <trkpt lat="44.07208" lon="5.84889">
        <ele>847</ele>
      </trkpt>
      <trkpt lat="44.07208" lon="5.84908">
        <ele>847</ele>
      </trkpt>
      <trkpt lat="44.07209" lon="5.84929">
        <ele>844</ele>
      </trkpt>
      <trkpt lat="44.0721" lon="5.84933">
        <ele>844</ele>
      </trkpt>
      <trkpt lat="44.07208" lon="5.84943">
        <ele>843</ele>
      </trkpt>
      <trkpt lat="44.07206" lon="5.84944">
        <ele>843</ele>
      </trkpt>
      <trkpt lat="44.07198" lon="5.84938">
        <ele>842</ele>
      </trkpt>
      <trkpt lat="44.07189" lon="5.8493">
        <ele>841</ele>
      </trkpt>
      <trkpt lat="44.07182" lon="5.84917">
        <ele>839</ele>
      </trkpt>
      <trkpt lat="44.07172" lon="5.84905">
        <ele>840</ele>
      </trkpt>
      <trkpt lat="44.07172" lon="5.84903">
        <ele>841</ele>
      </trkpt>
      <trkpt lat="44.07164" lon="5.8489">
        <ele>832</ele>
      </trkpt>
      <trkpt lat="44.07154" lon="5.84874">
        <ele>832</ele>
      </trkpt>
      <trkpt lat="44.07145" lon="5.84858">
        <ele>832</ele>
      </trkpt>
      <trkpt lat="44.07133" lon="5.84847">
        <ele>831</ele>
      </trkpt>
      <trkpt lat="44.0712" lon="5.84839">
        <ele>830</ele>
      </trkpt>
      <trkpt lat="44.07108" lon="5.84832">
        <ele>831</ele>
      </trkpt>
      <trkpt lat="44.07097" lon="5.84827">
        <ele>830</ele>
      </trkpt>
      <trkpt lat="44.0708" lon="5.84818">
        <ele>822</ele>
      </trkpt>
      <trkpt lat="44.07068" lon="5.84812">
        <ele>821</ele>
      </trkpt>
      <trkpt lat="44.07058" lon="5.84808">
        <ele>820</ele>
      </trkpt>
      <trkpt lat="44.07045" lon="5.84802">
        <ele>819</ele>
      </trkpt>
      <trkpt lat="44.07035" lon="5.84797">
        <ele>818</ele>
      </trkpt>
      <trkpt lat="44.07021" lon="5.84791">
        <ele>817</ele>
      </trkpt>
      <trkpt lat="44.0701" lon="5.84784">
        <ele>817</ele>
      </trkpt>
      <trkpt lat="44.06997" lon="5.84775">
        <ele>808</ele>
      </trkpt>
      <trkpt lat="44.06984" lon="5.84763">
        <ele>808</ele>
      </trkpt>
      <trkpt lat="44.06972" lon="5.84752">
        <ele>807</ele>
      </trkpt>
      <trkpt lat="44.06958" lon="5.84742">
        <ele>808</ele>
      </trkpt>
      <trkpt lat="44.06945" lon="5.84732">
        <ele>807</ele>
      </trkpt>
      <trkpt lat="44.06932" lon="5.84721">
        <ele>806</ele>
      </trkpt>
      <trkpt lat="44.06923" lon="5.8471">
        <ele>806</ele>
      </trkpt>
      <trkpt lat="44.06916" lon="5.84702">
        <ele>797</ele>
      </trkpt>
      <trkpt lat="44.06906" lon="5.8469">
        <ele>798</ele>
      </trkpt>
      <trkpt lat="44.06897" lon="5.84681">
        <ele>798</ele>
      </trkpt>
      <trkpt lat="44.06887" lon="5.84671">
        <ele>796</ele>
      </trkpt>
      <trkpt lat="44.06878" lon="5.84664">
        <ele>796</ele>
      </trkpt>
      <trkpt lat="44.06867" lon="5.84655">
        <ele>795</ele>
      </trkpt>
      <trkpt lat="44.06859" lon="5.84646">
        <ele>794</ele>
      </trkpt>
      <trkpt lat="44.06852" lon="5.84637">
        <ele>794</ele>
      </trkpt>
      <trkpt lat="44.06844" lon="5.84629">
        <ele>793</ele>
      </trkpt>
      <trkpt lat="44.0684" lon="5.84628">
        <ele>793</ele>
      </trkpt>
      <trkpt lat="44.06837" lon="5.84625">
        <ele>793</ele>
      </trkpt>
      <trkpt lat="44.0683" lon="5.84618">
        <ele>784</ele>
      </trkpt>
      <trkpt lat="44.06824" lon="5.84608">
        <ele>784</ele>
      </trkpt>
      <trkpt lat="44.06816" lon="5.84595">
        <ele>784</ele>
      </trkpt>
      <trkpt lat="44.06811" lon="5.84587">
        <ele>784</ele>
      </trkpt>
      <trkpt lat="44.06803" lon="5.84572">
        <ele>783</ele>
      </trkpt>
      <trkpt lat="44.06795" lon="5.84558">
        <ele>782</ele>
      </trkpt>
      <trkpt lat="44.0679" lon="5.84552">
        <ele>782</ele>
      </trkpt>
      <trkpt lat="44.06785" lon="5.84546">
        <ele>782</ele>
      </trkpt>
      <trkpt lat="44.06776" lon="5.84544">
        <ele>781</ele>
      </trkpt>
      <trkpt lat="44.06767" lon="5.84541">
        <ele>781</ele>
      </trkpt>
      <trkpt lat="44.0676" lon="5.84537">
        <ele>781</ele>
      </trkpt>
      <trkpt lat="44.06751" lon="5.84533">
        <ele>780</ele>
      </trkpt>
      <trkpt lat="44.06741" lon="5.84529">
        <ele>772</ele>
      </trkpt>
      <trkpt lat="44.06733" lon="5.84524">
        <ele>772</ele>
      </trkpt>
      <trkpt lat="44.06722" lon="5.84521">
        <ele>771</ele>
      </trkpt>
      <trkpt lat="44.06711" lon="5.84517">
        <ele>770</ele>
      </trkpt>
      <trkpt lat="44.06701" lon="5.84514">
        <ele>768</ele>
      </trkpt>
      <trkpt lat="44.0669" lon="5.84502">
        <ele>766</ele>
      </trkpt>
      <trkpt lat="44.06681" lon="5.84496">
        <ele>765</ele>
      </trkpt>
      <trkpt lat="44.06672" lon="5.84488">
        <ele>765</ele>
      </trkpt>
      <trkpt lat="44.06661" lon="5.84482">
        <ele>759</ele>
      </trkpt>
      <trkpt lat="44.06649" lon="5.84479">
        <ele>758</ele>
      </trkpt>
      <trkpt lat="44.06637" lon="5.84474">
        <ele>757</ele>
      </trkpt>
      <trkpt lat="44.06623" lon="5.84467">
        <ele>757</ele>
      </trkpt>
      <trkpt lat="44.06615" lon="5.84464">
        <ele>756</ele>
      </trkpt>
      <trkpt lat="44.06603" lon="5.84457">
        <ele>755</ele>
      </trkpt>
      <trkpt lat="44.06594" lon="5.84446">
        <ele>755</ele>
      </trkpt>
      <trkpt lat="44.06583" lon="5.84439">
        <ele>754</ele>
      </trkpt>
      <trkpt lat="44.06571" lon="5.84424">
        <ele>749</ele>
      </trkpt>
      <trkpt lat="44.06557" lon="5.8441">
        <ele>748</ele>
      </trkpt>
      <trkpt lat="44.06546" lon="5.84396">
        <ele>747</ele>
      </trkpt>
      <trkpt lat="44.06538" lon="5.84388">
        <ele>747</ele>
      </trkpt>
      <trkpt lat="44.06523" lon="5.84376">
        <ele>746</ele>
      </trkpt>
      <trkpt lat="44.06513" lon="5.84371">
        <ele>745</ele>
      </trkpt>
      <trkpt lat="44.06505" lon="5.84367">
        <ele>745</ele>
      </trkpt>
      <trkpt lat="44.06495" lon="5.84363">
        <ele>738</ele>
      </trkpt>
      <trkpt lat="44.06485" lon="5.84358">
        <ele>738</ele>
      </trkpt>
      <trkpt lat="44.06477" lon="5.84353">
        <ele>737</ele>
      </trkpt>
      <trkpt lat="44.06467" lon="5.84347">
        <ele>736</ele>
      </trkpt>
      <trkpt lat="44.06452" lon="5.84338">
        <ele>735</ele>
      </trkpt>
      <trkpt lat="44.06437" lon="5.84325">
        <ele>732</ele>
      </trkpt>
      <trkpt lat="44.06424" lon="5.84316">
        <ele>732</ele>
      </trkpt>
      <trkpt lat="44.06413" lon="5.84307">
        <ele>726</ele>
      </trkpt>
      <trkpt lat="44.06406" lon="5.84298">
        <ele>726</ele>
      </trkpt>
      <trkpt lat="44.06395" lon="5.84283">
        <ele>725</ele>
      </trkpt>
      <trkpt lat="44.06387" lon="5.8427">
        <ele>725</ele>
      </trkpt>
      <trkpt lat="44.06373" lon="5.84252">
        <ele>724</ele>
      </trkpt>
      <trkpt lat="44.0636" lon="5.84242">
        <ele>722</ele>
      </trkpt>
      <trkpt lat="44.06356" lon="5.8424">
        <ele>722</ele>
      </trkpt>
      <trkpt lat="44.06354" lon="5.84236">
        <ele>722</ele>
      </trkpt>
      <trkpt lat="44.06354" lon="5.84236">
        <ele>722</ele>
      </trkpt>
      <trkpt lat="44.06354" lon="5.84236">
        <ele>722</ele>
      </trkpt>
      <trkpt lat="44.06357" lon="5.84259">
        <ele>723</ele>
      </trkpt>
      <trkpt lat="44.06364" lon="5.84332">
        <ele>724</ele>
      </trkpt>
      <trkpt lat="44.06373" lon="5.84399">
        <ele>724</ele>
      </trkpt>
      <trkpt lat="44.06379" lon="5.84457">
        <ele>725</ele>
      </trkpt>
      <trkpt lat="44.06384" lon="5.8451">
        <ele>726</ele>
      </trkpt>
      <trkpt lat="44.06393" lon="5.84559">
        <ele>726</ele>
      </trkpt>
      <trkpt lat="44.06406" lon="5.84616">
        <ele>726</ele>
      </trkpt>
      <trkpt lat="44.06429" lon="5.84671">
        <ele>729</ele>
      </trkpt>
      <trkpt lat="44.06452" lon="5.84728">
        <ele>730</ele>
      </trkpt>
      <trkpt lat="44.0647" lon="5.84788">
        <ele>730</ele>
      </trkpt>
      <trkpt lat="44.06479" lon="5.84827">
        <ele>731</ele>
      </trkpt>
      <trkpt lat="44.06478" lon="5.8485">
        <ele>731</ele>
      </trkpt>
      <trkpt lat="44.06477" lon="5.84893">
        <ele>731</ele>
      </trkpt>
      <trkpt lat="44.06478" lon="5.84903">
        <ele>731</ele>
      </trkpt>
      <trkpt lat="44.06488" lon="5.84939">
        <ele>732</ele>
      </trkpt>
      <trkpt lat="44.06499" lon="5.8498">
        <ele>732</ele>
      </trkpt>
      <trkpt lat="44.06515" lon="5.85041">
        <ele>737</ele>
      </trkpt>
      <trkpt lat="44.06529" lon="5.85084">
        <ele>734</ele>
      </trkpt>
      <trkpt lat="44.06549" lon="5.85126">
        <ele>735</ele>
      </trkpt>
      <trkpt lat="44.06573" lon="5.85172">
        <ele>736</ele>
      </trkpt>
      <trkpt lat="44.06592" lon="5.85212">
        <ele>741</ele>
      </trkpt>
      <trkpt lat="44.06613" lon="5.85248">
        <ele>741</ele>
      </trkpt>
      <trkpt lat="44.06616" lon="5.85252">
        <ele>739</ele>
      </trkpt>
      <trkpt lat="44.06628" lon="5.85273">
        <ele>740</ele>
      </trkpt>
      <trkpt lat="44.06639" lon="5.85291">
        <ele>740</ele>
      </trkpt>
      <trkpt lat="44.06644" lon="5.85304">
        <ele>740</ele>
      </trkpt>
      <trkpt lat="44.06647" lon="5.8531">
        <ele>740</ele>
      </trkpt>
      <trkpt lat="44.06649" lon="5.85313">
        <ele>740</ele>
      </trkpt>
      <trkpt lat="44.06659" lon="5.85327">
        <ele>741</ele>
      </trkpt>
      <trkpt lat="44.06666" lon="5.85345">
        <ele>740</ele>
      </trkpt>
      <trkpt lat="44.06671" lon="5.85387">
        <ele>742</ele>
      </trkpt>
      <trkpt lat="44.06674" lon="5.85428">
        <ele>739</ele>
      </trkpt>
      <trkpt lat="44.06679" lon="5.85464">
        <ele>739</ele>
      </trkpt>
      <trkpt lat="44.06684" lon="5.85504">
        <ele>736</ele>
      </trkpt>
      <trkpt lat="44.06688" lon="5.85543">
        <ele>736</ele>
      </trkpt>
      <trkpt lat="44.06695" lon="5.85576">
        <ele>735</ele>
      </trkpt>
      <trkpt lat="44.06708" lon="5.85602">
        <ele>732</ele>
      </trkpt>
      <trkpt lat="44.06711" lon="5.85607">
        <ele>733</ele>
      </trkpt>
      <trkpt lat="44.0672" lon="5.85644">
        <ele>732</ele>
      </trkpt>
      <trkpt lat="44.0672" lon="5.8566">
        <ele>732</ele>
      </trkpt>
      <trkpt lat="44.06717" lon="5.85709">
        <ele>730</ele>
      </trkpt>
      <trkpt lat="44.06713" lon="5.85729">
        <ele>730</ele>
      </trkpt>
      <trkpt lat="44.06709" lon="5.85772">
        <ele>731</ele>
      </trkpt>
      <trkpt lat="44.06715" lon="5.85813">
        <ele>732</ele>
      </trkpt>
      <trkpt lat="44.06729" lon="5.85866">
        <ele>733</ele>
      </trkpt>
      <trkpt lat="44.06733" lon="5.85926">
        <ele>735</ele>
      </trkpt>
      <trkpt lat="44.06737" lon="5.85969">
        <ele>734</ele>
      </trkpt>
      <trkpt lat="44.06742" lon="5.85988">
        <ele>736</ele>
      </trkpt>
      <trkpt lat="44.06742" lon="5.86022">
        <ele>736</ele>
      </trkpt>
      <trkpt lat="44.06735" lon="5.86051">
        <ele>737</ele>
      </trkpt>
      <trkpt lat="44.06731" lon="5.86072">
        <ele>738</ele>
      </trkpt>
      <trkpt lat="44.06722" lon="5.86106">
        <ele>738</ele>
      </trkpt>
      <trkpt lat="44.06716" lon="5.86174">
        <ele>739</ele>
      </trkpt>
      <trkpt lat="44.06714" lon="5.86198">
        <ele>738</ele>
      </trkpt>
      <trkpt lat="44.06711" lon="5.86234">
        <ele>737</ele>
      </trkpt>
      <trkpt lat="44.06711" lon="5.86273">
        <ele>736</ele>
      </trkpt>
      <trkpt lat="44.06713" lon="5.86324">
        <ele>736</ele>
      </trkpt>
      <trkpt lat="44.06718" lon="5.86363">
        <ele>734</ele>
      </trkpt>
      <trkpt lat="44.06718" lon="5.86369">
        <ele>734</ele>
      </trkpt>
      <trkpt lat="44.06722" lon="5.86413">
        <ele>734</ele>
      </trkpt>
      <trkpt lat="44.06723" lon="5.86475">
        <ele>732</ele>
      </trkpt>
      <trkpt lat="44.0672" lon="5.86527">
        <ele>730</ele>
      </trkpt>
      <trkpt lat="44.06719" lon="5.86586">
        <ele>729</ele>
      </trkpt>
      <trkpt lat="44.0672" lon="5.86593">
        <ele>728</ele>
      </trkpt>
      <trkpt lat="44.06728" lon="5.86642">
        <ele>728</ele>
      </trkpt>
      <trkpt lat="44.06736" lon="5.86697">
        <ele>729</ele>
      </trkpt>
      <trkpt lat="44.0674" lon="5.86736">
        <ele>731</ele>
      </trkpt>
      <trkpt lat="44.06738" lon="5.8675">
        <ele>733</ele>
      </trkpt>
      <trkpt lat="44.06731" lon="5.86784">
        <ele>731</ele>
      </trkpt>
      <trkpt lat="44.0673" lon="5.86805">
        <ele>732</ele>
      </trkpt>
      <trkpt lat="44.0673" lon="5.86822">
        <ele>733</ele>
      </trkpt>
      <trkpt lat="44.06737" lon="5.86869">
        <ele>732</ele>
      </trkpt>
      <trkpt lat="44.06739" lon="5.869">
        <ele>732</ele>
      </trkpt>
      <trkpt lat="44.06743" lon="5.86944">
        <ele>731</ele>
      </trkpt>
      <trkpt lat="44.06747" lon="5.86988">
        <ele>732</ele>
      </trkpt>
      <trkpt lat="44.0675" lon="5.87026">
        <ele>737</ele>
      </trkpt>
      <trkpt lat="44.06755" lon="5.87048">
        <ele>737</ele>
      </trkpt>
      <trkpt lat="44.06762" lon="5.87075">
        <ele>736</ele>
      </trkpt>
      <trkpt lat="44.06763" lon="5.87106">
        <ele>736</ele>
      </trkpt>
      <trkpt lat="44.0675" lon="5.87155">
        <ele>731</ele>
      </trkpt>
      <trkpt lat="44.06737" lon="5.87191">
        <ele>730</ele>
      </trkpt>
      <trkpt lat="44.06713" lon="5.87245">
        <ele>730</ele>
      </trkpt>
      <trkpt lat="44.06707" lon="5.87261">
        <ele>732</ele>
      </trkpt>
      <trkpt lat="44.06706" lon="5.87266">
        <ele>732</ele>
      </trkpt>
      <trkpt lat="44.06702" lon="5.87302">
        <ele>732</ele>
      </trkpt>
      <trkpt lat="44.06693" lon="5.87349">
        <ele>732</ele>
      </trkpt>
      <trkpt lat="44.06692" lon="5.87371">
        <ele>733</ele>
      </trkpt>
      <trkpt lat="44.06688" lon="5.8742">
        <ele>731</ele>
      </trkpt>
      <trkpt lat="44.06684" lon="5.87472">
        <ele>732</ele>
      </trkpt>
      <trkpt lat="44.06686" lon="5.87509">
        <ele>729</ele>
      </trkpt>
      <trkpt lat="44.06693" lon="5.87539">
        <ele>729</ele>
      </trkpt>
      <trkpt lat="44.06705" lon="5.87561">
        <ele>729</ele>
      </trkpt>
      <trkpt lat="44.06715" lon="5.87573">
        <ele>729</ele>
      </trkpt>
      <trkpt lat="44.0673" lon="5.87591">
        <ele>728</ele>
      </trkpt>
      <trkpt lat="44.0674" lon="5.87604">
        <ele>728</ele>
      </trkpt>
      <trkpt lat="44.06738" lon="5.87628">
        <ele>727</ele>
      </trkpt>
      <trkpt lat="44.06728" lon="5.87647">
        <ele>726</ele>
      </trkpt>
      <trkpt lat="44.06721" lon="5.87667">
        <ele>726</ele>
      </trkpt>
      <trkpt lat="44.06715" lon="5.87688">
        <ele>725</ele>
      </trkpt>
      <trkpt lat="44.0671" lon="5.87718">
        <ele>725</ele>
      </trkpt>
      <trkpt lat="44.0671" lon="5.87726">
        <ele>725</ele>
      </trkpt>
      <trkpt lat="44.06708" lon="5.87782">
        <ele>727</ele>
      </trkpt>
      <trkpt lat="44.06712" lon="5.87807">
        <ele>727</ele>
      </trkpt>
      <trkpt lat="44.06719" lon="5.87821">
        <ele>728</ele>
      </trkpt>
      <trkpt lat="44.06742" lon="5.8785">
        <ele>731</ele>
      </trkpt>
      <trkpt lat="44.06753" lon="5.87858">
        <ele>737</ele>
      </trkpt>
      <trkpt lat="44.06781" lon="5.87888">
        <ele>739</ele>
      </trkpt>
      <trkpt lat="44.06789" lon="5.87897">
        <ele>740</ele>
      </trkpt>
      <trkpt lat="44.06788" lon="5.87925">
        <ele>741</ele>
      </trkpt>
      <trkpt lat="44.06777" lon="5.87949">
        <ele>741</ele>
      </trkpt>
      <trkpt lat="44.06757" lon="5.87973">
        <ele>740</ele>
      </trkpt>
      <trkpt lat="44.06746" lon="5.87979">
        <ele>734</ele>
      </trkpt>
      <trkpt lat="44.06741" lon="5.87982">
        <ele>735</ele>
      </trkpt>
      <trkpt lat="44.06734" lon="5.87993">
        <ele>735</ele>
      </trkpt>
      <trkpt lat="44.06744" lon="5.88019">
        <ele>736</ele>
      </trkpt>
      <trkpt lat="44.06762" lon="5.88033">
        <ele>742</ele>
      </trkpt>
      <trkpt lat="44.06786" lon="5.88056">
        <ele>744</ele>
      </trkpt>
      <trkpt lat="44.06794" lon="5.8807">
        <ele>744</ele>
      </trkpt>
      <trkpt lat="44.06783" lon="5.88093">
        <ele>748</ele>
      </trkpt>
      <trkpt lat="44.06764" lon="5.88108">
        <ele>747</ele>
      </trkpt>
      <trkpt lat="44.0675" lon="5.88124">
        <ele>748</ele>
      </trkpt>
      <trkpt lat="44.06726" lon="5.88159">
        <ele>744</ele>
      </trkpt>
      <trkpt lat="44.06723" lon="5.88165">
        <ele>744</ele>
      </trkpt>
      <trkpt lat="44.06716" lon="5.882">
        <ele>748</ele>
      </trkpt>
      <trkpt lat="44.06718" lon="5.88232">
        <ele>749</ele>
      </trkpt>
      <trkpt lat="44.06722" lon="5.88257">
        <ele>752</ele>
      </trkpt>
      <trkpt lat="44.06723" lon="5.88278">
        <ele>751</ele>
      </trkpt>
      <trkpt lat="44.06722" lon="5.88299">
        <ele>751</ele>
      </trkpt>
      <trkpt lat="44.06721" lon="5.88326">
        <ele>752</ele>
      </trkpt>
      <trkpt lat="44.06717" lon="5.88349">
        <ele>750</ele>
      </trkpt>
      <trkpt lat="44.06711" lon="5.88379">
        <ele>749</ele>
      </trkpt>
      <trkpt lat="44.06706" lon="5.88411">
        <ele>749</ele>
      </trkpt>
      <trkpt lat="44.06704" lon="5.88431">
        <ele>747</ele>
      </trkpt>
      <trkpt lat="44.06701" lon="5.88461">
        <ele>746</ele>
      </trkpt>
      <trkpt lat="44.06692" lon="5.88509">
        <ele>743</ele>
      </trkpt>
      <trkpt lat="44.06687" lon="5.88544">
        <ele>742</ele>
      </trkpt>
      <trkpt lat="44.06688" lon="5.88579">
        <ele>740</ele>
      </trkpt>
      <trkpt lat="44.06686" lon="5.886">
        <ele>739</ele>
      </trkpt>
      <trkpt lat="44.06683" lon="5.88635">
        <ele>740</ele>
      </trkpt>
      <trkpt lat="44.06678" lon="5.88669">
        <ele>737</ele>
      </trkpt>
      <trkpt lat="44.06673" lon="5.88707">
        <ele>738</ele>
      </trkpt>
      <trkpt lat="44.06667" lon="5.88735">
        <ele>736</ele>
      </trkpt>
      <trkpt lat="44.06664" lon="5.88759">
        <ele>731</ele>
      </trkpt>
      <trkpt lat="44.06662" lon="5.88787">
        <ele>728</ele>
      </trkpt>
      <trkpt lat="44.06662" lon="5.88801">
        <ele>728</ele>
      </trkpt>
      <trkpt lat="44.06662" lon="5.88815">
        <ele>729</ele>
      </trkpt>
      <trkpt lat="44.0666" lon="5.88845">
        <ele>730</ele>
      </trkpt>
      <trkpt lat="44.06658" lon="5.88888">
        <ele>728</ele>
      </trkpt>
      <trkpt lat="44.06658" lon="5.88919">
        <ele>730</ele>
      </trkpt>
      <trkpt lat="44.06656" lon="5.8895">
        <ele>727</ele>
      </trkpt>
      <trkpt lat="44.06655" lon="5.88973">
        <ele>726</ele>
      </trkpt>
      <trkpt lat="44.06655" lon="5.89004">
        <ele>727</ele>
      </trkpt>
      <trkpt lat="44.06656" lon="5.89037">
        <ele>725</ele>
      </trkpt>
      <trkpt lat="44.06655" lon="5.89064">
        <ele>726</ele>
      </trkpt>
      <trkpt lat="44.06654" lon="5.89094">
        <ele>725</ele>
      </trkpt>
      <trkpt lat="44.06652" lon="5.89121">
        <ele>722</ele>
      </trkpt>
      <trkpt lat="44.0665" lon="5.89155">
        <ele>722</ele>
      </trkpt>
      <trkpt lat="44.06649" lon="5.89179">
        <ele>720</ele>
      </trkpt>
      <trkpt lat="44.06648" lon="5.89204">
        <ele>719</ele>
      </trkpt>
      <trkpt lat="44.06646" lon="5.89233">
        <ele>719</ele>
      </trkpt>
      <trkpt lat="44.06645" lon="5.89256">
        <ele>718</ele>
      </trkpt>
      <trkpt lat="44.06644" lon="5.89277">
        <ele>717</ele>
      </trkpt>
      <trkpt lat="44.06644" lon="5.89293">
        <ele>716</ele>
      </trkpt>
      <trkpt lat="44.06644" lon="5.89316">
        <ele>716</ele>
      </trkpt>
      <trkpt lat="44.06645" lon="5.89332">
        <ele>716</ele>
      </trkpt>
      <trkpt lat="44.06635" lon="5.89333">
        <ele>715</ele>
      </trkpt>
      <trkpt lat="44.06609" lon="5.89336">
        <ele>710</ele>
      </trkpt>
      <trkpt lat="44.06599" lon="5.89337">
        <ele>708</ele>
      </trkpt>
      <trkpt lat="44.06568" lon="5.89341">
        <ele>702</ele>
      </trkpt>
      <trkpt lat="44.06555" lon="5.89346">
        <ele>700</ele>
      </trkpt>
      <trkpt lat="44.06541" lon="5.89348">
        <ele>699</ele>
      </trkpt>
      <trkpt lat="44.06532" lon="5.89348">
        <ele>698</ele>
      </trkpt>
      <trkpt lat="44.0651" lon="5.8935">
        <ele>696</ele>
      </trkpt>
      <trkpt lat="44.06494" lon="5.89355">
        <ele>690</ele>
      </trkpt>
      <trkpt lat="44.0649" lon="5.89356">
        <ele>690</ele>
      </trkpt>
      <trkpt lat="44.0648" lon="5.89342">
        <ele>689</ele>
      </trkpt>
      <trkpt lat="44.06468" lon="5.89309">
        <ele>689</ele>
      </trkpt>
      <trkpt lat="44.06461" lon="5.89278">
        <ele>689</ele>
      </trkpt>
      <trkpt lat="44.06454" lon="5.8925">
        <ele>689</ele>
      </trkpt>
      <trkpt lat="44.06447" lon="5.89215">
        <ele>689</ele>
      </trkpt>
      <trkpt lat="44.06439" lon="5.89179">
        <ele>689</ele>
      </trkpt>
      <trkpt lat="44.06428" lon="5.89128">
        <ele>691</ele>
      </trkpt>
      <trkpt lat="44.06412" lon="5.89106">
        <ele>690</ele>
      </trkpt>
      <trkpt lat="44.06407" lon="5.89103">
        <ele>690</ele>
      </trkpt>
      <trkpt lat="44.06393" lon="5.89113">
        <ele>690</ele>
      </trkpt>
      <trkpt lat="44.06384" lon="5.89135">
        <ele>690</ele>
      </trkpt>
      <trkpt lat="44.06372" lon="5.89166">
        <ele>690</ele>
      </trkpt>
      <trkpt lat="44.06361" lon="5.89193">
        <ele>686</ele>
      </trkpt>
      <trkpt lat="44.06353" lon="5.89215">
        <ele>686</ele>
      </trkpt>
      <trkpt lat="44.06343" lon="5.89235">
        <ele>685</ele>
      </trkpt>
      <trkpt lat="44.06326" lon="5.89254">
        <ele>683</ele>
      </trkpt>
      <trkpt lat="44.06311" lon="5.89265">
        <ele>681</ele>
      </trkpt>
      <trkpt lat="44.06294" lon="5.89273">
        <ele>680</ele>
      </trkpt>
      <trkpt lat="44.06276" lon="5.89274">
        <ele>680</ele>
      </trkpt>
      <trkpt lat="44.06254" lon="5.8927">
        <ele>681</ele>
      </trkpt>
      <trkpt lat="44.0624" lon="5.89264">
        <ele>678</ele>
      </trkpt>
      <trkpt lat="44.06228" lon="5.89248">
        <ele>680</ele>
      </trkpt>
      <trkpt lat="44.0622" lon="5.8923">
        <ele>679</ele>
      </trkpt>
      <trkpt lat="44.0621" lon="5.89206">
        <ele>678</ele>
      </trkpt>
      <trkpt lat="44.06205" lon="5.89188">
        <ele>678</ele>
      </trkpt>
      <trkpt lat="44.06196" lon="5.89174">
        <ele>677</ele>
      </trkpt>
      <trkpt lat="44.06188" lon="5.89155">
        <ele>679</ele>
      </trkpt>
      <trkpt lat="44.06181" lon="5.89131">
        <ele>680</ele>
      </trkpt>
      <trkpt lat="44.06172" lon="5.89104">
        <ele>680</ele>
      </trkpt>
      <trkpt lat="44.06171" lon="5.89101">
        <ele>680</ele>
      </trkpt>
      <trkpt lat="44.06166" lon="5.89105">
        <ele>676</ele>
      </trkpt>
      <trkpt lat="44.06169" lon="5.89129">
        <ele>680</ele>
      </trkpt>
      <trkpt lat="44.06173" lon="5.89158">
        <ele>677</ele>
      </trkpt>
      <trkpt lat="44.06178" lon="5.89169">
        <ele>676</ele>
      </trkpt>
      <trkpt lat="44.06197" lon="5.89216">
        <ele>677</ele>
      </trkpt>
      <trkpt lat="44.06204" lon="5.8924">
        <ele>677</ele>
      </trkpt>
      <trkpt lat="44.0621" lon="5.89267">
        <ele>674</ele>
      </trkpt>
      <trkpt lat="44.06217" lon="5.89281">
        <ele>675</ele>
      </trkpt>
      <trkpt lat="44.06223" lon="5.89304">
        <ele>675</ele>
      </trkpt>
      <trkpt lat="44.06228" lon="5.89327">
        <ele>676</ele>
      </trkpt>
      <trkpt lat="44.06231" lon="5.89345">
        <ele>673</ele>
      </trkpt>
      <trkpt lat="44.06235" lon="5.89365">
        <ele>672</ele>
      </trkpt>
      <trkpt lat="44.06238" lon="5.89384">
        <ele>671</ele>
      </trkpt>
      <trkpt lat="44.0624" lon="5.89398">
        <ele>671</ele>
      </trkpt>
      <trkpt lat="44.06241" lon="5.89409">
        <ele>671</ele>
      </trkpt>
      <trkpt lat="44.06241" lon="5.89412">
        <ele>671</ele>
      </trkpt>
      <trkpt lat="44.06247" lon="5.89421">
        <ele>670</ele>
      </trkpt>
      <trkpt lat="44.06259" lon="5.89422">
        <ele>670</ele>
      </trkpt>
      <trkpt lat="44.06269" lon="5.89414">
        <ele>671</ele>
      </trkpt>
      <trkpt lat="44.06277" lon="5.89403">
        <ele>671</ele>
      </trkpt>
      <trkpt lat="44.06279" lon="5.894">
        <ele>671</ele>
      </trkpt>
      <trkpt lat="44.06287" lon="5.89399">
        <ele>671</ele>
      </trkpt>
      <trkpt lat="44.06295" lon="5.894">
        <ele>671</ele>
      </trkpt>
      <trkpt lat="44.063" lon="5.89396">
        <ele>671</ele>
      </trkpt>
      <trkpt lat="44.06313" lon="5.89388">
        <ele>671</ele>
      </trkpt>
      <trkpt lat="44.06324" lon="5.89383">
        <ele>671</ele>
      </trkpt>
      <trkpt lat="44.06339" lon="5.89384">
        <ele>672</ele>
      </trkpt>
      <trkpt lat="44.06358" lon="5.89395">
        <ele>672</ele>
      </trkpt>
      <trkpt lat="44.06364" lon="5.89404">
        <ele>672</ele>
      </trkpt>
      <trkpt lat="44.06372" lon="5.8942">
        <ele>673</ele>
      </trkpt>
      <trkpt lat="44.06376" lon="5.89432">
        <ele>673</ele>
      </trkpt>
      <trkpt lat="44.06371" lon="5.89452">
        <ele>674</ele>
      </trkpt>
      <trkpt lat="44.06359" lon="5.89465">
        <ele>673</ele>
      </trkpt>
      <trkpt lat="44.06348" lon="5.89471">
        <ele>673</ele>
      </trkpt>
      <trkpt lat="44.06341" lon="5.89476">
        <ele>672</ele>
      </trkpt>
      <trkpt lat="44.06328" lon="5.89497">
        <ele>670</ele>
      </trkpt>
      <trkpt lat="44.06327" lon="5.89512">
        <ele>669</ele>
      </trkpt>
      <trkpt lat="44.06335" lon="5.89535">
        <ele>674</ele>
      </trkpt>
      <trkpt lat="44.06347" lon="5.89566">
        <ele>674</ele>
      </trkpt>
      <trkpt lat="44.06357" lon="5.89595">
        <ele>675</ele>
      </trkpt>
      <trkpt lat="44.06365" lon="5.89617">
        <ele>676</ele>
      </trkpt>
      <trkpt lat="44.06372" lon="5.89637">
        <ele>676</ele>
      </trkpt>
      <trkpt lat="44.06383" lon="5.89669">
        <ele>676</ele>
      </trkpt>
      <trkpt lat="44.06389" lon="5.89697">
        <ele>676</ele>
      </trkpt>
      <trkpt lat="44.064" lon="5.89736">
        <ele>676</ele>
      </trkpt>
      <trkpt lat="44.06406" lon="5.89758">
        <ele>676</ele>
      </trkpt>
      <trkpt lat="44.06413" lon="5.89778">
        <ele>675</ele>
      </trkpt>
      <trkpt lat="44.06419" lon="5.89799">
        <ele>681</ele>
      </trkpt>
      <trkpt lat="44.06424" lon="5.89811">
        <ele>680</ele>
      </trkpt>
      <trkpt lat="44.06431" lon="5.89828">
        <ele>679</ele>
      </trkpt>
      <trkpt lat="44.06441" lon="5.89852">
        <ele>680</ele>
      </trkpt>
      <trkpt lat="44.06463" lon="5.89895">
        <ele>681</ele>
      </trkpt>
      <trkpt lat="44.06469" lon="5.89905">
        <ele>681</ele>
      </trkpt>
      <trkpt lat="44.06494" lon="5.89943">
        <ele>682</ele>
      </trkpt>
      <trkpt lat="44.06506" lon="5.89961">
        <ele>684</ele>
      </trkpt>
      <trkpt lat="44.06509" lon="5.89971">
        <ele>684</ele>
      </trkpt>
      <trkpt lat="44.06494" lon="5.89991">
        <ele>681</ele>
      </trkpt>
      <trkpt lat="44.06463" lon="5.90034">
        <ele>681</ele>
      </trkpt>
      <trkpt lat="44.0644" lon="5.90063">
        <ele>682</ele>
      </trkpt>
      <trkpt lat="44.06417" lon="5.90078">
        <ele>684</ele>
      </trkpt>
      <trkpt lat="44.06384" lon="5.90085">
        <ele>683</ele>
      </trkpt>
      <trkpt lat="44.06349" lon="5.90094">
        <ele>682</ele>
      </trkpt>
      <trkpt lat="44.06302" lon="5.90112">
        <ele>684</ele>
      </trkpt>
      <trkpt lat="44.06294" lon="5.90114">
        <ele>684</ele>
      </trkpt>
      <trkpt lat="44.06273" lon="5.90124">
        <ele>685</ele>
      </trkpt>
      <trkpt lat="44.06256" lon="5.90134">
        <ele>685</ele>
      </trkpt>
      <trkpt lat="44.06246" lon="5.90143">
        <ele>686</ele>
      </trkpt>
      <trkpt lat="44.06237" lon="5.90152">
        <ele>686</ele>
      </trkpt>
      <trkpt lat="44.06228" lon="5.90162">
        <ele>685</ele>
      </trkpt>
      <trkpt lat="44.06215" lon="5.90174">
        <ele>684</ele>
      </trkpt>
      <trkpt lat="44.06206" lon="5.90183">
        <ele>683</ele>
      </trkpt>
      <trkpt lat="44.06194" lon="5.90196">
        <ele>682</ele>
      </trkpt>
      <trkpt lat="44.06187" lon="5.90204">
        <ele>682</ele>
      </trkpt>
      <trkpt lat="44.06176" lon="5.90214">
        <ele>681</ele>
      </trkpt>
      <trkpt lat="44.06167" lon="5.90222">
        <ele>681</ele>
      </trkpt>
      <trkpt lat="44.06162" lon="5.90227">
        <ele>675</ele>
      </trkpt>
      <trkpt lat="44.06156" lon="5.90233">
        <ele>675</ele>
      </trkpt>
      <trkpt lat="44.06148" lon="5.90243">
        <ele>675</ele>
      </trkpt>
      <trkpt lat="44.0614" lon="5.9025">
        <ele>674</ele>
      </trkpt>
      <trkpt lat="44.06134" lon="5.90258">
        <ele>670</ele>
      </trkpt>
      <trkpt lat="44.06125" lon="5.90267">
        <ele>669</ele>
      </trkpt>
      <trkpt lat="44.06117" lon="5.90276">
        <ele>668</ele>
      </trkpt>
      <trkpt lat="44.06107" lon="5.90284">
        <ele>667</ele>
      </trkpt>
      <trkpt lat="44.06098" lon="5.90289">
        <ele>666</ele>
      </trkpt>
      <trkpt lat="44.06089" lon="5.90292">
        <ele>666</ele>
      </trkpt>
      <trkpt lat="44.06082" lon="5.90295">
        <ele>659</ele>
      </trkpt>
      <trkpt lat="44.0607" lon="5.90301">
        <ele>659</ele>
      </trkpt>
      <trkpt lat="44.0606" lon="5.90305">
        <ele>658</ele>
      </trkpt>
      <trkpt lat="44.06049" lon="5.90306">
        <ele>657</ele>
      </trkpt>
      <trkpt lat="44.06036" lon="5.90307">
        <ele>657</ele>
      </trkpt>
      <trkpt lat="44.06032" lon="5.90308">
        <ele>656</ele>
      </trkpt>
      <trkpt lat="44.06027" lon="5.90311">
        <ele>656</ele>
      </trkpt>
      <trkpt lat="44.06026" lon="5.90321">
        <ele>655</ele>
      </trkpt>
      <trkpt lat="44.06028" lon="5.90327">
        <ele>655</ele>
      </trkpt>
      <trkpt lat="44.06031" lon="5.9034">
        <ele>651</ele>
      </trkpt>
      <trkpt lat="44.06036" lon="5.9035">
        <ele>650</ele>
      </trkpt>
      <trkpt lat="44.06037" lon="5.90353">
        <ele>650</ele>
      </trkpt>
      <trkpt lat="44.06033" lon="5.90364">
        <ele>649</ele>
      </trkpt>
      <trkpt lat="44.06027" lon="5.90367">
        <ele>649</ele>
      </trkpt>
      <trkpt lat="44.06024" lon="5.90368">
        <ele>649</ele>
      </trkpt>
      <trkpt lat="44.06014" lon="5.90373">
        <ele>648</ele>
      </trkpt>
      <trkpt lat="44.06006" lon="5.90376">
        <ele>648</ele>
      </trkpt>
      <trkpt lat="44.06" lon="5.90377">
        <ele>643</ele>
      </trkpt>
      <trkpt lat="44.05996" lon="5.90379">
        <ele>642</ele>
      </trkpt>
      <trkpt lat="44.05989" lon="5.90387">
        <ele>642</ele>
      </trkpt>
      <trkpt lat="44.05982" lon="5.90393">
        <ele>641</ele>
      </trkpt>
      <trkpt lat="44.05972" lon="5.90401">
        <ele>641</ele>
      </trkpt>
      <trkpt lat="44.05963" lon="5.90407">
        <ele>640</ele>
      </trkpt>
      <trkpt lat="44.05954" lon="5.90416">
        <ele>639</ele>
      </trkpt>
      <trkpt lat="44.05947" lon="5.90424">
        <ele>632</ele>
      </trkpt>
      <trkpt lat="44.0594" lon="5.90431">
        <ele>632</ele>
      </trkpt>
      <trkpt lat="44.05933" lon="5.90441">
        <ele>631</ele>
      </trkpt>
      <trkpt lat="44.0593" lon="5.90445">
        <ele>631</ele>
      </trkpt>
      <trkpt lat="44.05921" lon="5.90456">
        <ele>630</ele>
      </trkpt>
      <trkpt lat="44.05913" lon="5.90463">
        <ele>624</ele>
      </trkpt>
      <trkpt lat="44.05906" lon="5.90467">
        <ele>624</ele>
      </trkpt>
      <trkpt lat="44.05904" lon="5.90472">
        <ele>624</ele>
      </trkpt>
      <trkpt lat="44.05899" lon="5.90476">
        <ele>623</ele>
      </trkpt>
      <trkpt lat="44.0589" lon="5.90479">
        <ele>623</ele>
      </trkpt>
      <trkpt lat="44.05886" lon="5.9048">
        <ele>623</ele>
      </trkpt>
      <trkpt lat="44.05877" lon="5.90479">
        <ele>622</ele>
      </trkpt>
      <trkpt lat="44.05869" lon="5.90475">
        <ele>622</ele>
      </trkpt>
      <trkpt lat="44.05868" lon="5.90474">
        <ele>622</ele>
      </trkpt>
      <trkpt lat="44.0586" lon="5.9047">
        <ele>622</ele>
      </trkpt>
      <trkpt lat="44.05859" lon="5.90468">
        <ele>622</ele>
      </trkpt>
      <trkpt lat="44.05851" lon="5.90467">
        <ele>622</ele>
      </trkpt>
      <trkpt lat="44.05849" lon="5.90468">
        <ele>621</ele>
      </trkpt>
      <trkpt lat="44.05845" lon="5.90468">
        <ele>621</ele>
      </trkpt>
      <trkpt lat="44.05843" lon="5.90468">
        <ele>621</ele>
      </trkpt>
      <trkpt lat="44.05833" lon="5.90465">
        <ele>615</ele>
      </trkpt>
      <trkpt lat="44.05824" lon="5.90464">
        <ele>615</ele>
      </trkpt>
      <trkpt lat="44.05816" lon="5.90463">
        <ele>614</ele>
      </trkpt>
      <trkpt lat="44.05811" lon="5.90457">
        <ele>614</ele>
      </trkpt>
      <trkpt lat="44.05805" lon="5.90446">
        <ele>614</ele>
      </trkpt>
      <trkpt lat="44.05798" lon="5.90432">
        <ele>613</ele>
      </trkpt>
      <trkpt lat="44.05791" lon="5.90423">
        <ele>612</ele>
      </trkpt>
      <trkpt lat="44.05791" lon="5.90406">
        <ele>611</ele>
      </trkpt>
      <trkpt lat="44.05796" lon="5.90387">
        <ele>611</ele>
      </trkpt>
      <trkpt lat="44.05799" lon="5.90376">
        <ele>611</ele>
      </trkpt>
      <trkpt lat="44.05798" lon="5.90364">
        <ele>611</ele>
      </trkpt>
      <trkpt lat="44.05792" lon="5.90354">
        <ele>610</ele>
      </trkpt>
      <trkpt lat="44.05784" lon="5.90342">
        <ele>609</ele>
      </trkpt>
      <trkpt lat="44.05777" lon="5.9033">
        <ele>607</ele>
      </trkpt>
      <trkpt lat="44.05774" lon="5.90316">
        <ele>607</ele>
      </trkpt>
      <trkpt lat="44.0577" lon="5.90303">
        <ele>608</ele>
      </trkpt>
      <trkpt lat="44.05764" lon="5.90291">
        <ele>608</ele>
      </trkpt>
      <trkpt lat="44.05756" lon="5.90278">
        <ele>608</ele>
      </trkpt>
      <trkpt lat="44.05755" lon="5.90276">
        <ele>608</ele>
      </trkpt>
      <trkpt lat="44.0575" lon="5.90267">
        <ele>601</ele>
      </trkpt>
      <trkpt lat="44.05746" lon="5.90253">
        <ele>603</ele>
      </trkpt>
      <trkpt lat="44.05742" lon="5.90243">
        <ele>604</ele>
      </trkpt>
      <trkpt lat="44.05741" lon="5.90241">
        <ele>604</ele>
      </trkpt>
      <trkpt lat="44.05734" lon="5.90231">
        <ele>604</ele>
      </trkpt>
      <trkpt lat="44.0573" lon="5.9023">
        <ele>604</ele>
      </trkpt>
      <trkpt lat="44.0572" lon="5.90224">
        <ele>604</ele>
      </trkpt>
      <trkpt lat="44.05714" lon="5.90223">
        <ele>604</ele>
      </trkpt>
      <trkpt lat="44.0571" lon="5.90222">
        <ele>604</ele>
      </trkpt>
      <trkpt lat="44.05708" lon="5.90226">
        <ele>604</ele>
      </trkpt>
      <trkpt lat="44.05704" lon="5.90242">
        <ele>604</ele>
      </trkpt>
      <trkpt lat="44.0569" lon="5.90258">
        <ele>599</ele>
      </trkpt>
      <trkpt lat="44.05678" lon="5.90273">
        <ele>599</ele>
      </trkpt>
      <trkpt lat="44.05669" lon="5.90284">
        <ele>598</ele>
      </trkpt>
      <trkpt lat="44.05658" lon="5.90301">
        <ele>594</ele>
      </trkpt>
      <trkpt lat="44.05647" lon="5.90314">
        <ele>593</ele>
      </trkpt>
      <trkpt lat="44.05632" lon="5.90332">
        <ele>594</ele>
      </trkpt>
      <trkpt lat="44.05621" lon="5.90349">
        <ele>589</ele>
      </trkpt>
      <trkpt lat="44.05609" lon="5.90364">
        <ele>589</ele>
      </trkpt>
      <trkpt lat="44.05598" lon="5.90374">
        <ele>589</ele>
      </trkpt>
      <trkpt lat="44.05591" lon="5.90382">
        <ele>588</ele>
      </trkpt>
      <trkpt lat="44.05579" lon="5.90397">
        <ele>588</ele>
      </trkpt>
      <trkpt lat="44.05566" lon="5.90409">
        <ele>588</ele>
      </trkpt>
      <trkpt lat="44.05554" lon="5.90423">
        <ele>585</ele>
      </trkpt>
      <trkpt lat="44.05541" lon="5.9044">
        <ele>585</ele>
      </trkpt>
      <trkpt lat="44.05527" lon="5.90458">
        <ele>585</ele>
      </trkpt>
      <trkpt lat="44.05515" lon="5.90468">
        <ele>585</ele>
      </trkpt>
      <trkpt lat="44.05493" lon="5.90485">
        <ele>584</ele>
      </trkpt>
      <trkpt lat="44.05481" lon="5.90505">
        <ele>581</ele>
      </trkpt>
      <trkpt lat="44.05475" lon="5.90528">
        <ele>579</ele>
      </trkpt>
      <trkpt lat="44.0547" lon="5.90535">
        <ele>578</ele>
      </trkpt>
      <trkpt lat="44.05458" lon="5.90538">
        <ele>578</ele>
      </trkpt>
      <trkpt lat="44.05454" lon="5.90534">
        <ele>578</ele>
      </trkpt>
      <trkpt lat="44.05446" lon="5.90519">
        <ele>578</ele>
      </trkpt>
      <trkpt lat="44.05441" lon="5.90495">
        <ele>580</ele>
      </trkpt>
      <trkpt lat="44.05441" lon="5.90467">
        <ele>581</ele>
      </trkpt>
      <trkpt lat="44.05444" lon="5.90447">
        <ele>581</ele>
      </trkpt>
      <trkpt lat="44.05446" lon="5.90424">
        <ele>582</ele>
      </trkpt>
      <trkpt lat="44.05445" lon="5.90407">
        <ele>583</ele>
      </trkpt>
      <trkpt lat="44.05438" lon="5.90395">
        <ele>583</ele>
      </trkpt>
      <trkpt lat="44.05429" lon="5.90384">
        <ele>584</ele>
      </trkpt>
      <trkpt lat="44.05428" lon="5.90367">
        <ele>584</ele>
      </trkpt>
      <trkpt lat="44.05428" lon="5.90351">
        <ele>585</ele>
      </trkpt>
      <trkpt lat="44.0542" lon="5.90335">
        <ele>585</ele>
      </trkpt>
      <trkpt lat="44.05416" lon="5.90336">
        <ele>585</ele>
      </trkpt>
      <trkpt lat="44.05406" lon="5.90357">
        <ele>584</ele>
      </trkpt>
      <trkpt lat="44.05401" lon="5.9038">
        <ele>582</ele>
      </trkpt>
      <trkpt lat="44.05395" lon="5.90391">
        <ele>582</ele>
      </trkpt>
      <trkpt lat="44.05386" lon="5.90412">
        <ele>581</ele>
      </trkpt>
      <trkpt lat="44.05374" lon="5.90419">
        <ele>578</ele>
      </trkpt>
      <trkpt lat="44.05366" lon="5.90408">
        <ele>581</ele>
      </trkpt>
      <trkpt lat="44.05357" lon="5.90404">
        <ele>581</ele>
      </trkpt>
      <trkpt lat="44.05353" lon="5.9041">
        <ele>581</ele>
      </trkpt>
      <trkpt lat="44.0535" lon="5.90414">
        <ele>580</ele>
      </trkpt>
      <trkpt lat="44.05346" lon="5.90427">
        <ele>578</ele>
      </trkpt>
      <trkpt lat="44.05345" lon="5.90431">
        <ele>578</ele>
      </trkpt>
      <trkpt lat="44.05345" lon="5.90432">
        <ele>578</ele>
      </trkpt>
      <trkpt lat="44.05346" lon="5.90433">
        <ele>578</ele>
      </trkpt>
      <trkpt lat="44.05345" lon="5.90446">
        <ele>579</ele>
      </trkpt>
      <trkpt lat="44.05346" lon="5.9047">
        <ele>579</ele>
      </trkpt>
      <trkpt lat="44.05349" lon="5.9048">
        <ele>580</ele>
      </trkpt>
      <trkpt lat="44.05367" lon="5.90501">
        <ele>579</ele>
      </trkpt>
      <trkpt lat="44.05371" lon="5.90505">
        <ele>579</ele>
      </trkpt>
      <trkpt lat="44.05378" lon="5.9053">
        <ele>578</ele>
      </trkpt>
      <trkpt lat="44.05373" lon="5.90547">
        <ele>578</ele>
      </trkpt>
      <trkpt lat="44.05364" lon="5.9055">
        <ele>578</ele>
      </trkpt>
      <trkpt lat="44.05346" lon="5.90552">
        <ele>579</ele>
      </trkpt>
      <trkpt lat="44.05337" lon="5.90553">
        <ele>580</ele>
      </trkpt>
      <trkpt lat="44.0534" lon="5.90581">
        <ele>581</ele>
      </trkpt>
      <trkpt lat="44.05357" lon="5.90606">
        <ele>579</ele>
      </trkpt>
      <trkpt lat="44.05371" lon="5.90656">
        <ele>579</ele>
      </trkpt>
      <trkpt lat="44.05382" lon="5.90682">
        <ele>578</ele>
      </trkpt>
      <trkpt lat="44.05399" lon="5.90703">
        <ele>578</ele>
      </trkpt>
      <trkpt lat="44.05408" lon="5.90708">
        <ele>577</ele>
      </trkpt>
      <trkpt lat="44.05419" lon="5.9072">
        <ele>571</ele>
      </trkpt>
      <trkpt lat="44.05414" lon="5.90734">
        <ele>577</ele>
      </trkpt>
      <trkpt lat="44.0541" lon="5.90736">
        <ele>577</ele>
      </trkpt>
      <trkpt lat="44.05391" lon="5.90737">
        <ele>578</ele>
      </trkpt>
      <trkpt lat="44.05388" lon="5.90741">
        <ele>578</ele>
      </trkpt>
      <trkpt lat="44.05376" lon="5.90745">
        <ele>579</ele>
      </trkpt>
      <trkpt lat="44.05359" lon="5.90752">
        <ele>581</ele>
      </trkpt>
      <trkpt lat="44.05346" lon="5.90764">
        <ele>581</ele>
      </trkpt>
      <trkpt lat="44.05329" lon="5.90784">
        <ele>583</ele>
      </trkpt>
      <trkpt lat="44.05316" lon="5.908">
        <ele>583</ele>
      </trkpt>
      <trkpt lat="44.05308" lon="5.90813">
        <ele>583</ele>
      </trkpt>
      <trkpt lat="44.05294" lon="5.90834">
        <ele>580</ele>
      </trkpt>
      <trkpt lat="44.05283" lon="5.90845">
        <ele>580</ele>
      </trkpt>
      <trkpt lat="44.05275" lon="5.90842">
        <ele>580</ele>
      </trkpt>
      <trkpt lat="44.05262" lon="5.90837">
        <ele>580</ele>
      </trkpt>
      <trkpt lat="44.05249" lon="5.90833">
        <ele>581</ele>
      </trkpt>
      <trkpt lat="44.05246" lon="5.90839">
        <ele>582</ele>
      </trkpt>
      <trkpt lat="44.05247" lon="5.90857">
        <ele>582</ele>
      </trkpt>
      <trkpt lat="44.0525" lon="5.90882">
        <ele>581</ele>
      </trkpt>
      <trkpt lat="44.0525" lon="5.90884">
        <ele>580</ele>
      </trkpt>
      <trkpt lat="44.05246" lon="5.90899">
        <ele>579</ele>
      </trkpt>
      <trkpt lat="44.05246" lon="5.90919">
        <ele>575</ele>
      </trkpt>
      <trkpt lat="44.05255" lon="5.90955">
        <ele>573</ele>
      </trkpt>
      <trkpt lat="44.05264" lon="5.91007">
        <ele>571</ele>
      </trkpt>
      <trkpt lat="44.05265" lon="5.91052">
        <ele>571</ele>
      </trkpt>
      <trkpt lat="44.05254" lon="5.91116">
        <ele>575</ele>
      </trkpt>
      <trkpt lat="44.05251" lon="5.91125">
        <ele>576</ele>
      </trkpt>
      <trkpt lat="44.05244" lon="5.91162">
        <ele>583</ele>
      </trkpt>
      <trkpt lat="44.05248" lon="5.91191">
        <ele>585</ele>
      </trkpt>
      <trkpt lat="44.0525" lon="5.91235">
        <ele>583</ele>
      </trkpt>
      <trkpt lat="44.0525" lon="5.9124">
        <ele>586</ele>
      </trkpt>
      <trkpt lat="44.0524" lon="5.91275">
        <ele>587</ele>
      </trkpt>
      <trkpt lat="44.05226" lon="5.91309">
        <ele>587</ele>
      </trkpt>
      <trkpt lat="44.05224" lon="5.91314">
        <ele>587</ele>
      </trkpt>
      <trkpt lat="44.05209" lon="5.91352">
        <ele>587</ele>
      </trkpt>
      <trkpt lat="44.05199" lon="5.91385">
        <ele>587</ele>
      </trkpt>
      <trkpt lat="44.05192" lon="5.91417">
        <ele>587</ele>
      </trkpt>
      <trkpt lat="44.05179" lon="5.9146">
        <ele>586</ele>
      </trkpt>
      <trkpt lat="44.05169" lon="5.91481">
        <ele>586</ele>
      </trkpt>
      <trkpt lat="44.05164" lon="5.91492">
        <ele>588</ele>
      </trkpt>
      <trkpt lat="44.05164" lon="5.91493">
        <ele>588</ele>
      </trkpt>
      <trkpt lat="44.05164" lon="5.91493">
        <ele>588</ele>
      </trkpt>
      <trkpt lat="44.05163" lon="5.91493">
        <ele>588</ele>
      </trkpt>
      <trkpt lat="44.05162" lon="5.91493">
        <ele>584</ele>
      </trkpt>
      <trkpt lat="44.05148" lon="5.9149">
        <ele>602</ele>
      </trkpt>
      <trkpt lat="44.05147" lon="5.91486">
        <ele>603</ele>
      </trkpt>
      <trkpt lat="44.05145" lon="5.91482">
        <ele>605</ele>
      </trkpt>
      <trkpt lat="44.05142" lon="5.91477">
        <ele>606</ele>
      </trkpt>
      <trkpt lat="44.05133" lon="5.91469">
        <ele>608</ele>
      </trkpt>
      <trkpt lat="44.05128" lon="5.91464">
        <ele>608</ele>
      </trkpt>
      <trkpt lat="44.05124" lon="5.91458">
        <ele>609</ele>
      </trkpt>
      <trkpt lat="44.05118" lon="5.91452">
        <ele>610</ele>
      </trkpt>
      <trkpt lat="44.05106" lon="5.91443">
        <ele>610</ele>
      </trkpt>
      <trkpt lat="44.05101" lon="5.91438">
        <ele>611</ele>
      </trkpt>
      <trkpt lat="44.05084" lon="5.91426">
        <ele>612</ele>
      </trkpt>
      <trkpt lat="44.0508" lon="5.91424">
        <ele>612</ele>
      </trkpt>
      <trkpt lat="44.05071" lon="5.91421">
        <ele>613</ele>
      </trkpt>
      <trkpt lat="44.05064" lon="5.91418">
        <ele>613</ele>
      </trkpt>
      <trkpt lat="44.05056" lon="5.91419">
        <ele>612</ele>
      </trkpt>
      <trkpt lat="44.0505" lon="5.91418">
        <ele>612</ele>
      </trkpt>
      <trkpt lat="44.05042" lon="5.91413">
        <ele>613</ele>
      </trkpt>
      <trkpt lat="44.05036" lon="5.91412">
        <ele>613</ele>
      </trkpt>
      <trkpt lat="44.0503" lon="5.91409">
        <ele>613</ele>
      </trkpt>
      <trkpt lat="44.05025" lon="5.91405">
        <ele>614</ele>
      </trkpt>
      <trkpt lat="44.0502" lon="5.91389">
        <ele>613</ele>
      </trkpt>
      <trkpt lat="44.05017" lon="5.91373">
        <ele>615</ele>
      </trkpt>
      <trkpt lat="44.05017" lon="5.91368">
        <ele>614</ele>
      </trkpt>
      <trkpt lat="44.05021" lon="5.91349">
        <ele>615</ele>
      </trkpt>
      <trkpt lat="44.05021" lon="5.91345">
        <ele>615</ele>
      </trkpt>
      <trkpt lat="44.05023" lon="5.9134">
        <ele>615</ele>
      </trkpt>
      <trkpt lat="44.05031" lon="5.91323">
        <ele>615</ele>
      </trkpt>
      <trkpt lat="44.05033" lon="5.91315">
        <ele>614</ele>
      </trkpt>
      <trkpt lat="44.05037" lon="5.9131">
        <ele>615</ele>
      </trkpt>
      <trkpt lat="44.05043" lon="5.91306">
        <ele>616</ele>
      </trkpt>
      <trkpt lat="44.05046" lon="5.91301">
        <ele>616</ele>
      </trkpt>
      <trkpt lat="44.05052" lon="5.91292">
        <ele>616</ele>
      </trkpt>
      <trkpt lat="44.05053" lon="5.91286">
        <ele>616</ele>
      </trkpt>
      <trkpt lat="44.05054" lon="5.91274">
        <ele>616</ele>
      </trkpt>
      <trkpt lat="44.05056" lon="5.91269">
        <ele>616</ele>
      </trkpt>
      <trkpt lat="44.05059" lon="5.91259">
        <ele>616</ele>
      </trkpt>
      <trkpt lat="44.05061" lon="5.91252">
        <ele>616</ele>
      </trkpt>
      <trkpt lat="44.05067" lon="5.91241">
        <ele>615</ele>
      </trkpt>
      <trkpt lat="44.0507" lon="5.91237">
        <ele>614</ele>
      </trkpt>
      <trkpt lat="44.05081" lon="5.91237">
        <ele>614</ele>
      </trkpt>
      <trkpt lat="44.05087" lon="5.91235">
        <ele>614</ele>
      </trkpt>
      <trkpt lat="44.05089" lon="5.9123">
        <ele>613</ele>
      </trkpt>
      <trkpt lat="44.05088" lon="5.91224">
        <ele>612</ele>
      </trkpt>
      <trkpt lat="44.05088" lon="5.91218">
        <ele>612</ele>
      </trkpt>
      <trkpt lat="44.05088" lon="5.91214">
        <ele>612</ele>
      </trkpt>
      <trkpt lat="44.05087" lon="5.91211">
        <ele>611</ele>
      </trkpt>
      <trkpt lat="44.05085" lon="5.91204">
        <ele>611</ele>
      </trkpt>
      <trkpt lat="44.0508" lon="5.91197">
        <ele>611</ele>
      </trkpt>
      <trkpt lat="44.05077" lon="5.91189">
        <ele>610</ele>
      </trkpt>
      <trkpt lat="44.05076" lon="5.9118">
        <ele>610</ele>
      </trkpt>
      <trkpt lat="44.05075" lon="5.9117">
        <ele>610</ele>
      </trkpt>
      <trkpt lat="44.05072" lon="5.91147">
        <ele>611</ele>
      </trkpt>
      <trkpt lat="44.05071" lon="5.91141">
        <ele>612</ele>
      </trkpt>
      <trkpt lat="44.05069" lon="5.91127">
        <ele>613</ele>
      </trkpt>
      <trkpt lat="44.05067" lon="5.91121">
        <ele>613</ele>
      </trkpt>
      <trkpt lat="44.05067" lon="5.91116">
        <ele>614</ele>
      </trkpt>
      <trkpt lat="44.05067" lon="5.91112">
        <ele>614</ele>
      </trkpt>
      <trkpt lat="44.05065" lon="5.91103">
        <ele>614</ele>
      </trkpt>
      <trkpt lat="44.05065" lon="5.91098">
        <ele>615</ele>
      </trkpt>
      <trkpt lat="44.05066" lon="5.91093">
        <ele>615</ele>
      </trkpt>
      <trkpt lat="44.05066" lon="5.91082">
        <ele>616</ele>
      </trkpt>
      <trkpt lat="44.05066" lon="5.91076">
        <ele>616</ele>
      </trkpt>
      <trkpt lat="44.05072" lon="5.9105">
        <ele>616</ele>
      </trkpt>
      <trkpt lat="44.05077" lon="5.91044">
        <ele>615</ele>
      </trkpt>
      <trkpt lat="44.0508" lon="5.91039">
        <ele>616</ele>
      </trkpt>
      <trkpt lat="44.05082" lon="5.91033">
        <ele>616</ele>
      </trkpt>
      <trkpt lat="44.05083" lon="5.91027">
        <ele>617</ele>
      </trkpt>
      <trkpt lat="44.05084" lon="5.9102">
        <ele>617</ele>
      </trkpt>
      <trkpt lat="44.05083" lon="5.91006">
        <ele>617</ele>
      </trkpt>
      <trkpt lat="44.05083" lon="5.91">
        <ele>617</ele>
      </trkpt>
      <trkpt lat="44.05083" lon="5.90995">
        <ele>618</ele>
      </trkpt>
      <trkpt lat="44.05082" lon="5.90989">
        <ele>618</ele>
      </trkpt>
      <trkpt lat="44.05066" lon="5.90963">
        <ele>619</ele>
      </trkpt>
      <trkpt lat="44.05063" lon="5.90957">
        <ele>619</ele>
      </trkpt>
      <trkpt lat="44.05056" lon="5.90949">
        <ele>619</ele>
      </trkpt>
      <trkpt lat="44.05053" lon="5.90944">
        <ele>619</ele>
      </trkpt>
      <trkpt lat="44.0505" lon="5.90939">
        <ele>620</ele>
      </trkpt>
      <trkpt lat="44.05048" lon="5.90933">
        <ele>620</ele>
      </trkpt>
      <trkpt lat="44.05042" lon="5.90924">
        <ele>621</ele>
      </trkpt>
      <trkpt lat="44.05039" lon="5.9092">
        <ele>621</ele>
      </trkpt>
      <trkpt lat="44.05031" lon="5.90908">
        <ele>623</ele>
      </trkpt>
      <trkpt lat="44.05028" lon="5.90905">
        <ele>624</ele>
      </trkpt>
      <trkpt lat="44.05024" lon="5.90903">
        <ele>625</ele>
      </trkpt>
      <trkpt lat="44.0502" lon="5.90901">
        <ele>626</ele>
      </trkpt>
      <trkpt lat="44.05016" lon="5.90899">
        <ele>627</ele>
      </trkpt>
      <trkpt lat="44.05008" lon="5.90897">
        <ele>628</ele>
      </trkpt>
      <trkpt lat="44.05004" lon="5.90896">
        <ele>628</ele>
      </trkpt>
      <trkpt lat="44.05" lon="5.90895">
        <ele>628</ele>
      </trkpt>
      <trkpt lat="44.04987" lon="5.90893">
        <ele>630</ele>
      </trkpt>
      <trkpt lat="44.0498" lon="5.90893">
        <ele>630</ele>
      </trkpt>
      <trkpt lat="44.04973" lon="5.90892">
        <ele>630</ele>
      </trkpt>
      <trkpt lat="44.04963" lon="5.90893">
        <ele>630</ele>
      </trkpt>
      <trkpt lat="44.0496" lon="5.90893">
        <ele>630</ele>
      </trkpt>
      <trkpt lat="44.04953" lon="5.9089">
        <ele>630</ele>
      </trkpt>
      <trkpt lat="44.04951" lon="5.90888">
        <ele>629</ele>
      </trkpt>
      <trkpt lat="44.04943" lon="5.90888">
        <ele>629</ele>
      </trkpt>
      <trkpt lat="44.04941" lon="5.90887">
        <ele>628</ele>
      </trkpt>
      <trkpt lat="44.04939" lon="5.90881">
        <ele>629</ele>
      </trkpt>
      <trkpt lat="44.04934" lon="5.90876">
        <ele>628</ele>
      </trkpt>
      <trkpt lat="44.04929" lon="5.90873">
        <ele>627</ele>
      </trkpt>
      <trkpt lat="44.04925" lon="5.90871">
        <ele>625</ele>
      </trkpt>
      <trkpt lat="44.04921" lon="5.90869">
        <ele>625</ele>
      </trkpt>
      <trkpt lat="44.04919" lon="5.90865">
        <ele>623</ele>
      </trkpt>
      <trkpt lat="44.0492" lon="5.90859">
        <ele>623</ele>
      </trkpt>
      <trkpt lat="44.04923" lon="5.90857">
        <ele>624</ele>
      </trkpt>
      <trkpt lat="44.04929" lon="5.9085">
        <ele>625</ele>
      </trkpt>
      <trkpt lat="44.04935" lon="5.90838">
        <ele>625</ele>
      </trkpt>
      <trkpt lat="44.04938" lon="5.90834">
        <ele>625</ele>
      </trkpt>
      <trkpt lat="44.04944" lon="5.90829">
        <ele>626</ele>
      </trkpt>
      <trkpt lat="44.0495" lon="5.90823">
        <ele>625</ele>
      </trkpt>
      <trkpt lat="44.04953" lon="5.90819">
        <ele>625</ele>
      </trkpt>
      <trkpt lat="44.04955" lon="5.90813">
        <ele>626</ele>
      </trkpt>
      <trkpt lat="44.04955" lon="5.90807">
        <ele>625</ele>
      </trkpt>
      <trkpt lat="44.04953" lon="5.90798">
        <ele>624</ele>
      </trkpt>
      <trkpt lat="44.04955" lon="5.90794">
        <ele>624</ele>
      </trkpt>
      <trkpt lat="44.0497" lon="5.90798">
        <ele>624</ele>
      </trkpt>
      <trkpt lat="44.04976" lon="5.90798">
        <ele>623</ele>
      </trkpt>
      <trkpt lat="44.04984" lon="5.908">
        <ele>623</ele>
      </trkpt>
      <trkpt lat="44.04987" lon="5.908">
        <ele>623</ele>
      </trkpt>
      <trkpt lat="44.04997" lon="5.90794">
        <ele>623</ele>
      </trkpt>
      <trkpt lat="44.05001" lon="5.90791">
        <ele>624</ele>
      </trkpt>
      <trkpt lat="44.05001" lon="5.90785">
        <ele>625</ele>
      </trkpt>
      <trkpt lat="44.04996" lon="5.90784">
        <ele>629</ele>
      </trkpt>
      <trkpt lat="44.04988" lon="5.90783">
        <ele>632</ele>
      </trkpt>
      <trkpt lat="44.0498" lon="5.90779">
        <ele>633</ele>
      </trkpt>
      <trkpt lat="44.04965" lon="5.90777">
        <ele>634</ele>
      </trkpt>
      <trkpt lat="44.04955" lon="5.90773">
        <ele>635</ele>
      </trkpt>
      <trkpt lat="44.04939" lon="5.90768">
        <ele>635</ele>
      </trkpt>
      <trkpt lat="44.0493" lon="5.90766">
        <ele>636</ele>
      </trkpt>
      <trkpt lat="44.04926" lon="5.90766">
        <ele>638</ele>
      </trkpt>
      <trkpt lat="44.04922" lon="5.90769">
        <ele>638</ele>
      </trkpt>
      <trkpt lat="44.0492" lon="5.90774">
        <ele>639</ele>
      </trkpt>
      <trkpt lat="44.04919" lon="5.90788">
        <ele>640</ele>
      </trkpt>
      <trkpt lat="44.04918" lon="5.90795">
        <ele>641</ele>
      </trkpt>
      <trkpt lat="44.04914" lon="5.90802">
        <ele>642</ele>
      </trkpt>
      <trkpt lat="44.04905" lon="5.90815">
        <ele>643</ele>
      </trkpt>
      <trkpt lat="44.04899" lon="5.90819">
        <ele>644</ele>
      </trkpt>
      <trkpt lat="44.04892" lon="5.90823">
        <ele>644</ele>
      </trkpt>
      <trkpt lat="44.04878" lon="5.90829">
        <ele>646</ele>
      </trkpt>
      <trkpt lat="44.04871" lon="5.9083">
        <ele>646</ele>
      </trkpt>
      <trkpt lat="44.04864" lon="5.90829">
        <ele>647</ele>
      </trkpt>
      <trkpt lat="44.04857" lon="5.90827">
        <ele>648</ele>
      </trkpt>
      <trkpt lat="44.04852" lon="5.90825">
        <ele>649</ele>
      </trkpt>
      <trkpt lat="44.04847" lon="5.90821">
        <ele>650</ele>
      </trkpt>
      <trkpt lat="44.04844" lon="5.90816">
        <ele>650</ele>
      </trkpt>
      <trkpt lat="44.0484" lon="5.90805">
        <ele>651</ele>
      </trkpt>
      <trkpt lat="44.04839" lon="5.908">
        <ele>651</ele>
      </trkpt>
      <trkpt lat="44.04839" lon="5.90794">
        <ele>652</ele>
      </trkpt>
      <trkpt lat="44.04843" lon="5.90784">
        <ele>651</ele>
      </trkpt>
      <trkpt lat="44.04844" lon="5.90779">
        <ele>651</ele>
      </trkpt>
      <trkpt lat="44.04844" lon="5.90774">
        <ele>651</ele>
      </trkpt>
      <trkpt lat="44.04844" lon="5.90757">
        <ele>652</ele>
      </trkpt>
      <trkpt lat="44.04844" lon="5.90752">
        <ele>652</ele>
      </trkpt>
      <trkpt lat="44.04846" lon="5.90741">
        <ele>652</ele>
      </trkpt>
      <trkpt lat="44.04848" lon="5.90737">
        <ele>652</ele>
      </trkpt>
      <trkpt lat="44.04856" lon="5.90726">
        <ele>652</ele>
      </trkpt>
      <trkpt lat="44.04859" lon="5.90722">
        <ele>651</ele>
      </trkpt>
      <trkpt lat="44.04866" lon="5.90718">
        <ele>651</ele>
      </trkpt>
      <trkpt lat="44.04878" lon="5.90713">
        <ele>653</ele>
      </trkpt>
      <trkpt lat="44.04904" lon="5.90709">
        <ele>652</ele>
      </trkpt>
      <trkpt lat="44.04928" lon="5.9071">
        <ele>652</ele>
      </trkpt>
      <trkpt lat="44.04939" lon="5.90707">
        <ele>650</ele>
      </trkpt>
      <trkpt lat="44.04948" lon="5.90705">
        <ele>650</ele>
      </trkpt>
      <trkpt lat="44.04952" lon="5.90704">
        <ele>649</ele>
      </trkpt>
      <trkpt lat="44.04957" lon="5.90701">
        <ele>648</ele>
      </trkpt>
      <trkpt lat="44.04963" lon="5.90695">
        <ele>647</ele>
      </trkpt>
      <trkpt lat="44.04964" lon="5.9069">
        <ele>647</ele>
      </trkpt>
      <trkpt lat="44.04965" lon="5.90685">
        <ele>646</ele>
      </trkpt>
      <trkpt lat="44.04963" lon="5.90673">
        <ele>645</ele>
      </trkpt>
      <trkpt lat="44.04958" lon="5.90662">
        <ele>644</ele>
      </trkpt>
      <trkpt lat="44.04956" lon="5.90653">
        <ele>643</ele>
      </trkpt>
      <trkpt lat="44.04955" lon="5.9065">
        <ele>643</ele>
      </trkpt>
      <trkpt lat="44.04952" lon="5.90646">
        <ele>642</ele>
      </trkpt>
      <trkpt lat="44.04949" lon="5.90641">
        <ele>641</ele>
      </trkpt>
      <trkpt lat="44.04946" lon="5.90636">
        <ele>642</ele>
      </trkpt>
      <trkpt lat="44.04942" lon="5.90626">
        <ele>641</ele>
      </trkpt>
      <trkpt lat="44.04934" lon="5.90616">
        <ele>640</ele>
      </trkpt>
      <trkpt lat="44.04932" lon="5.90613">
        <ele>640</ele>
      </trkpt>
      <trkpt lat="44.04931" lon="5.90606">
        <ele>641</ele>
      </trkpt>
      <trkpt lat="44.04932" lon="5.90602">
        <ele>641</ele>
      </trkpt>
      <trkpt lat="44.04933" lon="5.90597">
        <ele>641</ele>
      </trkpt>
      <trkpt lat="44.04934" lon="5.90593">
        <ele>642</ele>
      </trkpt>
      <trkpt lat="44.04937" lon="5.90591">
        <ele>642</ele>
      </trkpt>
      <trkpt lat="44.04942" lon="5.90589">
        <ele>643</ele>
      </trkpt>
      <trkpt lat="44.04952" lon="5.90588">
        <ele>644</ele>
      </trkpt>
      <trkpt lat="44.0497" lon="5.90582">
        <ele>647</ele>
      </trkpt>
      <trkpt lat="44.04974" lon="5.9058">
        <ele>647</ele>
      </trkpt>
      <trkpt lat="44.04976" lon="5.90576">
        <ele>648</ele>
      </trkpt>
      <trkpt lat="44.04976" lon="5.90571">
        <ele>649</ele>
      </trkpt>
      <trkpt lat="44.04973" lon="5.90557">
        <ele>650</ele>
      </trkpt>
      <trkpt lat="44.04971" lon="5.9055">
        <ele>651</ele>
      </trkpt>
      <trkpt lat="44.04968" lon="5.90546">
        <ele>651</ele>
      </trkpt>
      <trkpt lat="44.04963" lon="5.90545">
        <ele>652</ele>
      </trkpt>
      <trkpt lat="44.04952" lon="5.90548">
        <ele>654</ele>
      </trkpt>
      <trkpt lat="44.0494" lon="5.90551">
        <ele>655</ele>
      </trkpt>
      <trkpt lat="44.04924" lon="5.90553">
        <ele>655</ele>
      </trkpt>
      <trkpt lat="44.04912" lon="5.90553">
        <ele>654</ele>
      </trkpt>
      <trkpt lat="44.04902" lon="5.90556">
        <ele>654</ele>
      </trkpt>
      <trkpt lat="44.04889" lon="5.90562">
        <ele>654</ele>
      </trkpt>
      <trkpt lat="44.04886" lon="5.90565">
        <ele>655</ele>
      </trkpt>
      <trkpt lat="44.04876" lon="5.90571">
        <ele>656</ele>
      </trkpt>
      <trkpt lat="44.04868" lon="5.90577">
        <ele>658</ele>
      </trkpt>
      <trkpt lat="44.04865" lon="5.90579">
        <ele>660</ele>
      </trkpt>
      <trkpt lat="44.04861" lon="5.90578">
        <ele>660</ele>
      </trkpt>
      <trkpt lat="44.04857" lon="5.90574">
        <ele>661</ele>
      </trkpt>
      <trkpt lat="44.04854" lon="5.90567">
        <ele>661</ele>
      </trkpt>
      <trkpt lat="44.04852" lon="5.90562">
        <ele>661</ele>
      </trkpt>
      <trkpt lat="44.04848" lon="5.90559">
        <ele>661</ele>
      </trkpt>
      <trkpt lat="44.04845" lon="5.90559">
        <ele>661</ele>
      </trkpt>
      <trkpt lat="44.04842" lon="5.90561">
        <ele>662</ele>
      </trkpt>
      <trkpt lat="44.04839" lon="5.90563">
        <ele>663</ele>
      </trkpt>
      <trkpt lat="44.04837" lon="5.90566">
        <ele>665</ele>
      </trkpt>
      <trkpt lat="44.04833" lon="5.90569">
        <ele>666</ele>
      </trkpt>
      <trkpt lat="44.0483" lon="5.90569">
        <ele>666</ele>
      </trkpt>
      <trkpt lat="44.04827" lon="5.90565">
        <ele>667</ele>
      </trkpt>
      <trkpt lat="44.04822" lon="5.90554">
        <ele>668</ele>
      </trkpt>
      <trkpt lat="44.04819" lon="5.90551">
        <ele>669</ele>
      </trkpt>
      <trkpt lat="44.04818" lon="5.90548">
        <ele>670</ele>
      </trkpt>
      <trkpt lat="44.04819" lon="5.90542">
        <ele>670</ele>
      </trkpt>
      <trkpt lat="44.04826" lon="5.90528">
        <ele>672</ele>
      </trkpt>
      <trkpt lat="44.04831" lon="5.90524">
        <ele>672</ele>
      </trkpt>
      <trkpt lat="44.04836" lon="5.90521">
        <ele>674</ele>
      </trkpt>
      <trkpt lat="44.04856" lon="5.90513">
        <ele>678</ele>
      </trkpt>
      <trkpt lat="44.04862" lon="5.90509">
        <ele>678</ele>
      </trkpt>
      <trkpt lat="44.04868" lon="5.90504">
        <ele>678</ele>
      </trkpt>
      <trkpt lat="44.04872" lon="5.90498">
        <ele>679</ele>
      </trkpt>
      <trkpt lat="44.04882" lon="5.90482">
        <ele>680</ele>
      </trkpt>
      <trkpt lat="44.04888" lon="5.90477">
        <ele>681</ele>
      </trkpt>
      <trkpt lat="44.04891" lon="5.90474">
        <ele>681</ele>
      </trkpt>
      <trkpt lat="44.04893" lon="5.90471">
        <ele>682</ele>
      </trkpt>
      <trkpt lat="44.04895" lon="5.90468">
        <ele>682</ele>
      </trkpt>
      <trkpt lat="44.04895" lon="5.90463">
        <ele>681</ele>
      </trkpt>
      <trkpt lat="44.04895" lon="5.90458">
        <ele>680</ele>
      </trkpt>
      <trkpt lat="44.04892" lon="5.90454">
        <ele>681</ele>
      </trkpt>
      <trkpt lat="44.04878" lon="5.90447">
        <ele>681</ele>
      </trkpt>
      <trkpt lat="44.04858" lon="5.90435">
        <ele>681</ele>
      </trkpt>
      <trkpt lat="44.04846" lon="5.90428">
        <ele>681</ele>
      </trkpt>
      <trkpt lat="44.04838" lon="5.90424">
        <ele>681</ele>
      </trkpt>
      <trkpt lat="44.04834" lon="5.90421">
        <ele>681</ele>
      </trkpt>
      <trkpt lat="44.04827" lon="5.90417">
        <ele>680</ele>
      </trkpt>
      <trkpt lat="44.04823" lon="5.90415">
        <ele>680</ele>
      </trkpt>
      <trkpt lat="44.04814" lon="5.90413">
        <ele>680</ele>
      </trkpt>
      <trkpt lat="44.04808" lon="5.90409">
        <ele>680</ele>
      </trkpt>
      <trkpt lat="44.04805" lon="5.90407">
        <ele>679</ele>
      </trkpt>
      <trkpt lat="44.04793" lon="5.90399">
        <ele>678</ele>
      </trkpt>
      <trkpt lat="44.0479" lon="5.90396">
        <ele>678</ele>
      </trkpt>
      <trkpt lat="44.04782" lon="5.90386">
        <ele>678</ele>
      </trkpt>
      <trkpt lat="44.04774" lon="5.90378">
        <ele>677</ele>
      </trkpt>
      <trkpt lat="44.04771" lon="5.90371">
        <ele>676</ele>
      </trkpt>
      <trkpt lat="44.04768" lon="5.90368">
        <ele>676</ele>
      </trkpt>
      <trkpt lat="44.04764" lon="5.90364">
        <ele>676</ele>
      </trkpt>
      <trkpt lat="44.04761" lon="5.90362">
        <ele>676</ele>
      </trkpt>
      <trkpt lat="44.04756" lon="5.90362">
        <ele>677</ele>
      </trkpt>
      <trkpt lat="44.04752" lon="5.90362">
        <ele>677</ele>
      </trkpt>
      <trkpt lat="44.04748" lon="5.90361">
        <ele>677</ele>
      </trkpt>
      <trkpt lat="44.04745" lon="5.9036">
        <ele>677</ele>
      </trkpt>
      <trkpt lat="44.04743" lon="5.90358">
        <ele>677</ele>
      </trkpt>
      <trkpt lat="44.04741" lon="5.90354">
        <ele>677</ele>
      </trkpt>
      <trkpt lat="44.04739" lon="5.9035">
        <ele>678</ele>
      </trkpt>
      <trkpt lat="44.0474" lon="5.90344">
        <ele>678</ele>
      </trkpt>
      <trkpt lat="44.04742" lon="5.90337">
        <ele>679</ele>
      </trkpt>
      <trkpt lat="44.04743" lon="5.90329">
        <ele>680</ele>
      </trkpt>
      <trkpt lat="44.04743" lon="5.90321">
        <ele>680</ele>
      </trkpt>
      <trkpt lat="44.04741" lon="5.90308">
        <ele>680</ele>
      </trkpt>
      <trkpt lat="44.0474" lon="5.90303">
        <ele>680</ele>
      </trkpt>
      <trkpt lat="44.04736" lon="5.90299">
        <ele>680</ele>
      </trkpt>
      <trkpt lat="44.04732" lon="5.90299">
        <ele>681</ele>
      </trkpt>
      <trkpt lat="44.04721" lon="5.90301">
        <ele>680</ele>
      </trkpt>
      <trkpt lat="44.04709" lon="5.90301">
        <ele>680</ele>
      </trkpt>
      <trkpt lat="44.04686" lon="5.90298">
        <ele>678</ele>
      </trkpt>
      <trkpt lat="44.04671" lon="5.90294">
        <ele>677</ele>
      </trkpt>
      <trkpt lat="44.04667" lon="5.90294">
        <ele>676</ele>
      </trkpt>
      <trkpt lat="44.04661" lon="5.9029">
        <ele>679</ele>
      </trkpt>
      <trkpt lat="44.04659" lon="5.90287">
        <ele>678</ele>
      </trkpt>
      <trkpt lat="44.04657" lon="5.90281">
        <ele>678</ele>
      </trkpt>
      <trkpt lat="44.04656" lon="5.90276">
        <ele>678</ele>
      </trkpt>
      <trkpt lat="44.04653" lon="5.90259">
        <ele>679</ele>
      </trkpt>
      <trkpt lat="44.04651" lon="5.90253">
        <ele>679</ele>
      </trkpt>
      <trkpt lat="44.04641" lon="5.90237">
        <ele>679</ele>
      </trkpt>
      <trkpt lat="44.04627" lon="5.90218">
        <ele>678</ele>
      </trkpt>
      <trkpt lat="44.04622" lon="5.9021">
        <ele>679</ele>
      </trkpt>
      <trkpt lat="44.0462" lon="5.90206">
        <ele>679</ele>
      </trkpt>
      <trkpt lat="44.04615" lon="5.90198">
        <ele>681</ele>
      </trkpt>
      <trkpt lat="44.04612" lon="5.90195">
        <ele>681</ele>
      </trkpt>
      <trkpt lat="44.04607" lon="5.90195">
        <ele>682</ele>
      </trkpt>
      <trkpt lat="44.04604" lon="5.90198">
        <ele>682</ele>
      </trkpt>
      <trkpt lat="44.04601" lon="5.90202">
        <ele>683</ele>
      </trkpt>
      <trkpt lat="44.046" lon="5.90207">
        <ele>683</ele>
      </trkpt>
      <trkpt lat="44.04601" lon="5.90212">
        <ele>683</ele>
      </trkpt>
      <trkpt lat="44.046" lon="5.90217">
        <ele>683</ele>
      </trkpt>
      <trkpt lat="44.04598" lon="5.90223">
        <ele>684</ele>
      </trkpt>
      <trkpt lat="44.04598" lon="5.90228">
        <ele>684</ele>
      </trkpt>
      <trkpt lat="44.04601" lon="5.90231">
        <ele>684</ele>
      </trkpt>
      <trkpt lat="44.04604" lon="5.90233">
        <ele>684</ele>
      </trkpt>
      <trkpt lat="44.04605" lon="5.90236">
        <ele>684</ele>
      </trkpt>
      <trkpt lat="44.04606" lon="5.90239">
        <ele>684</ele>
      </trkpt>
      <trkpt lat="44.0461" lon="5.90248">
        <ele>685</ele>
      </trkpt>
      <trkpt lat="44.04611" lon="5.90253">
        <ele>685</ele>
      </trkpt>
      <trkpt lat="44.04608" lon="5.90254">
        <ele>686</ele>
      </trkpt>
      <trkpt lat="44.04605" lon="5.90252">
        <ele>686</ele>
      </trkpt>
      <trkpt lat="44.04603" lon="5.9025">
        <ele>687</ele>
      </trkpt>
      <trkpt lat="44.04599" lon="5.9025">
        <ele>688</ele>
      </trkpt>
      <trkpt lat="44.04594" lon="5.90254">
        <ele>691</ele>
      </trkpt>
      <trkpt lat="44.04594" lon="5.90259">
        <ele>692</ele>
      </trkpt>
      <trkpt lat="44.0459" lon="5.90262">
        <ele>692</ele>
      </trkpt>
      <trkpt lat="44.04588" lon="5.9026">
        <ele>693</ele>
      </trkpt>
      <trkpt lat="44.04584" lon="5.90258">
        <ele>694</ele>
      </trkpt>
      <trkpt lat="44.04583" lon="5.90264">
        <ele>695</ele>
      </trkpt>
      <trkpt lat="44.04585" lon="5.90268">
        <ele>695</ele>
      </trkpt>
      <trkpt lat="44.04588" lon="5.90276">
        <ele>695</ele>
      </trkpt>
      <trkpt lat="44.0459" lon="5.9029">
        <ele>694</ele>
      </trkpt>
      <trkpt lat="44.04592" lon="5.90294">
        <ele>694</ele>
      </trkpt>
      <trkpt lat="44.04593" lon="5.90297">
        <ele>693</ele>
      </trkpt>
      <trkpt lat="44.04599" lon="5.90303">
        <ele>693</ele>
      </trkpt>
      <trkpt lat="44.04604" lon="5.90305">
        <ele>693</ele>
      </trkpt>
      <trkpt lat="44.04606" lon="5.90309">
        <ele>694</ele>
      </trkpt>
      <trkpt lat="44.04608" lon="5.90315">
        <ele>693</ele>
      </trkpt>
      <trkpt lat="44.0461" lon="5.90317">
        <ele>693</ele>
      </trkpt>
      <trkpt lat="44.04619" lon="5.90321">
        <ele>692</ele>
      </trkpt>
      <trkpt lat="44.04622" lon="5.90326">
        <ele>691</ele>
      </trkpt>
      <trkpt lat="44.04625" lon="5.90334">
        <ele>692</ele>
      </trkpt>
      <trkpt lat="44.04626" lon="5.90339">
        <ele>692</ele>
      </trkpt>
      <trkpt lat="44.04629" lon="5.90343">
        <ele>692</ele>
      </trkpt>
      <trkpt lat="44.04635" lon="5.90348">
        <ele>692</ele>
      </trkpt>
      <trkpt lat="44.04639" lon="5.90349">
        <ele>692</ele>
      </trkpt>
      <trkpt lat="44.04642" lon="5.90352">
        <ele>692</ele>
      </trkpt>
      <trkpt lat="44.04647" lon="5.90356">
        <ele>692</ele>
      </trkpt>
      <trkpt lat="44.04654" lon="5.90359">
        <ele>692</ele>
      </trkpt>
      <trkpt lat="44.04659" lon="5.90364">
        <ele>691</ele>
      </trkpt>
      <trkpt lat="44.04667" lon="5.90367">
        <ele>692</ele>
      </trkpt>
      <trkpt lat="44.04674" lon="5.90371">
        <ele>691</ele>
      </trkpt>
      <trkpt lat="44.04679" lon="5.90379">
        <ele>691</ele>
      </trkpt>
      <trkpt lat="44.04684" lon="5.90382">
        <ele>690</ele>
      </trkpt>
      <trkpt lat="44.04686" lon="5.90385">
        <ele>690</ele>
      </trkpt>
      <trkpt lat="44.04688" lon="5.90388">
        <ele>690</ele>
      </trkpt>
      <trkpt lat="44.04689" lon="5.90391">
        <ele>690</ele>
      </trkpt>
      <trkpt lat="44.04693" lon="5.90406">
        <ele>692</ele>
      </trkpt>
      <trkpt lat="44.047" lon="5.90416">
        <ele>694</ele>
      </trkpt>
      <trkpt lat="44.04702" lon="5.9042">
        <ele>695</ele>
      </trkpt>
      <trkpt lat="44.0471" lon="5.90428">
        <ele>695</ele>
      </trkpt>
      <trkpt lat="44.04718" lon="5.90436">
        <ele>695</ele>
      </trkpt>
      <trkpt lat="44.04731" lon="5.90451">
        <ele>698</ele>
      </trkpt>
      <trkpt lat="44.04732" lon="5.90456">
        <ele>699</ele>
      </trkpt>
      <trkpt lat="44.04733" lon="5.90463">
        <ele>700</ele>
      </trkpt>
      <trkpt lat="44.04732" lon="5.90468">
        <ele>701</ele>
      </trkpt>
      <trkpt lat="44.0473" lon="5.90473">
        <ele>701</ele>
      </trkpt>
      <trkpt lat="44.04718" lon="5.9049">
        <ele>702</ele>
      </trkpt>
      <trkpt lat="44.04714" lon="5.90494">
        <ele>702</ele>
      </trkpt>
      <trkpt lat="44.04708" lon="5.90499">
        <ele>703</ele>
      </trkpt>
      <trkpt lat="44.04703" lon="5.905">
        <ele>703</ele>
      </trkpt>
      <trkpt lat="44.047" lon="5.90498">
        <ele>703</ele>
      </trkpt>
      <trkpt lat="44.04698" lon="5.90488">
        <ele>703</ele>
      </trkpt>
      <trkpt lat="44.04698" lon="5.90482">
        <ele>703</ele>
      </trkpt>
      <trkpt lat="44.04697" lon="5.90477">
        <ele>702</ele>
      </trkpt>
      <trkpt lat="44.04695" lon="5.90471">
        <ele>702</ele>
      </trkpt>
      <trkpt lat="44.04689" lon="5.90459">
        <ele>702</ele>
      </trkpt>
      <trkpt lat="44.04681" lon="5.90445">
        <ele>702</ele>
      </trkpt>
      <trkpt lat="44.04676" lon="5.90439">
        <ele>702</ele>
      </trkpt>
      <trkpt lat="44.04655" lon="5.90411">
        <ele>704</ele>
      </trkpt>
      <trkpt lat="44.04644" lon="5.90395">
        <ele>704</ele>
      </trkpt>
      <trkpt lat="44.04639" lon="5.90388">
        <ele>705</ele>
      </trkpt>
      <trkpt lat="44.04633" lon="5.90382">
        <ele>705</ele>
      </trkpt>
      <trkpt lat="44.04627" lon="5.90376">
        <ele>705</ele>
      </trkpt>
      <trkpt lat="44.0462" lon="5.9037">
        <ele>706</ele>
      </trkpt>
      <trkpt lat="44.04612" lon="5.90365">
        <ele>706</ele>
      </trkpt>
      <trkpt lat="44.04595" lon="5.90355">
        <ele>706</ele>
      </trkpt>
      <trkpt lat="44.04587" lon="5.90349">
        <ele>707</ele>
      </trkpt>
      <trkpt lat="44.0458" lon="5.90341">
        <ele>708</ele>
      </trkpt>
      <trkpt lat="44.04565" lon="5.90323">
        <ele>709</ele>
      </trkpt>
      <trkpt lat="44.04557" lon="5.90316">
        <ele>710</ele>
      </trkpt>
      <trkpt lat="44.04549" lon="5.9031">
        <ele>711</ele>
      </trkpt>
      <trkpt lat="44.04539" lon="5.90306">
        <ele>712</ele>
      </trkpt>
      <trkpt lat="44.0453" lon="5.90304">
        <ele>712</ele>
      </trkpt>
      <trkpt lat="44.04501" lon="5.90303">
        <ele>714</ele>
      </trkpt>
      <trkpt lat="44.04466" lon="5.90299">
        <ele>716</ele>
      </trkpt>
      <trkpt lat="44.04449" lon="5.90298">
        <ele>717</ele>
      </trkpt>
      <trkpt lat="44.04441" lon="5.90299">
        <ele>718</ele>
      </trkpt>
      <trkpt lat="44.04434" lon="5.90301">
        <ele>718</ele>
      </trkpt>
      <trkpt lat="44.0442" lon="5.90307">
        <ele>719</ele>
      </trkpt>
      <trkpt lat="44.04413" lon="5.90309">
        <ele>720</ele>
      </trkpt>
      <trkpt lat="44.04406" lon="5.9031">
        <ele>720</ele>
      </trkpt>
      <trkpt lat="44.04399" lon="5.90311">
        <ele>721</ele>
      </trkpt>
      <trkpt lat="44.04363" lon="5.90303">
        <ele>723</ele>
      </trkpt>
      <trkpt lat="44.04359" lon="5.90302">
        <ele>723</ele>
      </trkpt>
      <trkpt lat="44.04352" lon="5.90302">
        <ele>723</ele>
      </trkpt>
      <trkpt lat="44.04349" lon="5.90301">
        <ele>723</ele>
      </trkpt>
      <trkpt lat="44.04344" lon="5.90298">
        <ele>723</ele>
      </trkpt>
      <trkpt lat="44.04339" lon="5.90297">
        <ele>723</ele>
      </trkpt>
      <trkpt lat="44.04336" lon="5.90296">
        <ele>723</ele>
      </trkpt>
      <trkpt lat="44.04332" lon="5.90292">
        <ele>723</ele>
      </trkpt>
      <trkpt lat="44.04329" lon="5.90289">
        <ele>722</ele>
      </trkpt>
      <trkpt lat="44.04324" lon="5.90283">
        <ele>722</ele>
      </trkpt>
      <trkpt lat="44.04316" lon="5.90275">
        <ele>719</ele>
      </trkpt>
      <trkpt lat="44.04313" lon="5.90275">
        <ele>719</ele>
      </trkpt>
      <trkpt lat="44.04311" lon="5.90276">
        <ele>719</ele>
      </trkpt>
      <trkpt lat="44.04305" lon="5.90281">
        <ele>719</ele>
      </trkpt>
      <trkpt lat="44.04293" lon="5.90289">
        <ele>718</ele>
      </trkpt>
      <trkpt lat="44.04276" lon="5.90297">
        <ele>717</ele>
      </trkpt>
      <trkpt lat="44.04266" lon="5.90304">
        <ele>717</ele>
      </trkpt>
      <trkpt lat="44.04261" lon="5.9031">
        <ele>717</ele>
      </trkpt>
      <trkpt lat="44.04258" lon="5.90314">
        <ele>717</ele>
      </trkpt>
      <trkpt lat="44.04255" lon="5.90322">
        <ele>716</ele>
      </trkpt>
      <trkpt lat="44.04252" lon="5.90331">
        <ele>715</ele>
      </trkpt>
      <trkpt lat="44.04247" lon="5.90349">
        <ele>713</ele>
      </trkpt>
      <trkpt lat="44.04242" lon="5.90372">
        <ele>713</ele>
      </trkpt>
      <trkpt lat="44.0424" lon="5.90377">
        <ele>713</ele>
      </trkpt>
      <trkpt lat="44.04238" lon="5.90382">
        <ele>713</ele>
      </trkpt>
      <trkpt lat="44.04234" lon="5.90386">
        <ele>713</ele>
      </trkpt>
      <trkpt lat="44.04231" lon="5.9039">
        <ele>713</ele>
      </trkpt>
      <trkpt lat="44.04219" lon="5.904">
        <ele>713</ele>
      </trkpt>
      <trkpt lat="44.04208" lon="5.90407">
        <ele>713</ele>
      </trkpt>
      <trkpt lat="44.04202" lon="5.90411">
        <ele>713</ele>
      </trkpt>
      <trkpt lat="44.04191" lon="5.90424">
        <ele>712</ele>
      </trkpt>
      <trkpt lat="44.04185" lon="5.90429">
        <ele>711</ele>
      </trkpt>
      <trkpt lat="44.04182" lon="5.9043">
        <ele>710</ele>
      </trkpt>
      <trkpt lat="44.0418" lon="5.90429">
        <ele>710</ele>
      </trkpt>
      <trkpt lat="44.04178" lon="5.90427">
        <ele>709</ele>
      </trkpt>
      <trkpt lat="44.04176" lon="5.90424">
        <ele>708</ele>
      </trkpt>
      <trkpt lat="44.04175" lon="5.90417">
        <ele>708</ele>
      </trkpt>
      <trkpt lat="44.04174" lon="5.90413">
        <ele>708</ele>
      </trkpt>
      <trkpt lat="44.04175" lon="5.90409">
        <ele>708</ele>
      </trkpt>
      <trkpt lat="44.04176" lon="5.90405">
        <ele>708</ele>
      </trkpt>
      <trkpt lat="44.0418" lon="5.90398">
        <ele>707</ele>
      </trkpt>
      <trkpt lat="44.04194" lon="5.9038">
        <ele>705</ele>
      </trkpt>
      <trkpt lat="44.04203" lon="5.90368">
        <ele>704</ele>
      </trkpt>
      <trkpt lat="44.04207" lon="5.90361">
        <ele>703</ele>
      </trkpt>
      <trkpt lat="44.0421" lon="5.90354">
        <ele>704</ele>
      </trkpt>
      <trkpt lat="44.04212" lon="5.90346">
        <ele>704</ele>
      </trkpt>
      <trkpt lat="44.04213" lon="5.90337">
        <ele>703</ele>
      </trkpt>
      <trkpt lat="44.04213" lon="5.90329">
        <ele>702</ele>
      </trkpt>
      <trkpt lat="44.04212" lon="5.90326">
        <ele>701</ele>
      </trkpt>
      <trkpt lat="44.04211" lon="5.90322">
        <ele>700</ele>
      </trkpt>
      <trkpt lat="44.04209" lon="5.9032">
        <ele>700</ele>
      </trkpt>
      <trkpt lat="44.04206" lon="5.9032">
        <ele>700</ele>
      </trkpt>
      <trkpt lat="44.04203" lon="5.90321">
        <ele>700</ele>
      </trkpt>
      <trkpt lat="44.04201" lon="5.90323">
        <ele>700</ele>
      </trkpt>
      <trkpt lat="44.04198" lon="5.90327">
        <ele>700</ele>
      </trkpt>
      <trkpt lat="44.04196" lon="5.9033">
        <ele>699</ele>
      </trkpt>
      <trkpt lat="44.04191" lon="5.90343">
        <ele>699</ele>
      </trkpt>
      <trkpt lat="44.04187" lon="5.9035">
        <ele>698</ele>
      </trkpt>
      <trkpt lat="44.04182" lon="5.90357">
        <ele>697</ele>
      </trkpt>
      <trkpt lat="44.04174" lon="5.90366">
        <ele>697</ele>
      </trkpt>
      <trkpt lat="44.04149" lon="5.90392">
        <ele>696</ele>
      </trkpt>
      <trkpt lat="44.04144" lon="5.90399">
        <ele>696</ele>
      </trkpt>
      <trkpt lat="44.04141" lon="5.90402">
        <ele>695</ele>
      </trkpt>
      <trkpt lat="44.04138" lon="5.90411">
        <ele>694</ele>
      </trkpt>
      <trkpt lat="44.04136" lon="5.90416">
        <ele>694</ele>
      </trkpt>
      <trkpt lat="44.04136" lon="5.9042">
        <ele>694</ele>
      </trkpt>
      <trkpt lat="44.04136" lon="5.90425">
        <ele>693</ele>
      </trkpt>
      <trkpt lat="44.04137" lon="5.9043">
        <ele>693</ele>
      </trkpt>
      <trkpt lat="44.0414" lon="5.90439">
        <ele>692</ele>
      </trkpt>
      <trkpt lat="44.04141" lon="5.90442">
        <ele>692</ele>
      </trkpt>
      <trkpt lat="44.0414" lon="5.90447">
        <ele>692</ele>
      </trkpt>
      <trkpt lat="44.04138" lon="5.90451">
        <ele>692</ele>
      </trkpt>
      <trkpt lat="44.04134" lon="5.90453">
        <ele>692</ele>
      </trkpt>
      <trkpt lat="44.04128" lon="5.90455">
        <ele>691</ele>
      </trkpt>
      <trkpt lat="44.04121" lon="5.90458">
        <ele>690</ele>
      </trkpt>
      <trkpt lat="44.04114" lon="5.90463">
        <ele>690</ele>
      </trkpt>
      <trkpt lat="44.04111" lon="5.90466">
        <ele>690</ele>
      </trkpt>
      <trkpt lat="44.04101" lon="5.90481">
        <ele>688</ele>
      </trkpt>
      <trkpt lat="44.04084" lon="5.90507">
        <ele>688</ele>
      </trkpt>
      <trkpt lat="44.04079" lon="5.90514">
        <ele>687</ele>
      </trkpt>
      <trkpt lat="44.04077" lon="5.90518">
        <ele>686</ele>
      </trkpt>
      <trkpt lat="44.04074" lon="5.90527">
        <ele>687</ele>
      </trkpt>
      <trkpt lat="44.04073" lon="5.90532">
        <ele>687</ele>
      </trkpt>
      <trkpt lat="44.04072" lon="5.90542">
        <ele>686</ele>
      </trkpt>
      <trkpt lat="44.04072" lon="5.90556">
        <ele>685</ele>
      </trkpt>
      <trkpt lat="44.04072" lon="5.90561">
        <ele>684</ele>
      </trkpt>
      <trkpt lat="44.04071" lon="5.90572">
        <ele>684</ele>
      </trkpt>
      <trkpt lat="44.04069" lon="5.90581">
        <ele>684</ele>
      </trkpt>
      <trkpt lat="44.04066" lon="5.90596">
        <ele>684</ele>
      </trkpt>
      <trkpt lat="44.04065" lon="5.90617">
        <ele>683</ele>
      </trkpt>
      <trkpt lat="44.04065" lon="5.90628">
        <ele>683</ele>
      </trkpt>
      <trkpt lat="44.04066" lon="5.90639">
        <ele>683</ele>
      </trkpt>
      <trkpt lat="44.04066" lon="5.90644">
        <ele>683</ele>
      </trkpt>
      <trkpt lat="44.04068" lon="5.90658">
        <ele>682</ele>
      </trkpt>
      <trkpt lat="44.04069" lon="5.90662">
        <ele>683</ele>
      </trkpt>
      <trkpt lat="44.04068" lon="5.90665">
        <ele>683</ele>
      </trkpt>
      <trkpt lat="44.04068" lon="5.9067">
        <ele>683</ele>
      </trkpt>
      <trkpt lat="44.04071" lon="5.90675">
        <ele>682</ele>
      </trkpt>
      <trkpt lat="44.04071" lon="5.90686">
        <ele>687</ele>
      </trkpt>
      <trkpt lat="44.04073" lon="5.90691">
        <ele>689</ele>
      </trkpt>
      <trkpt lat="44.04084" lon="5.90691">
        <ele>693</ele>
      </trkpt>
      <trkpt lat="44.04098" lon="5.90704">
        <ele>694</ele>
      </trkpt>
      <trkpt lat="44.04121" lon="5.9073">
        <ele>697</ele>
      </trkpt>
      <trkpt lat="44.0413" lon="5.90743">
        <ele>700</ele>
      </trkpt>
      <trkpt lat="44.04133" lon="5.90744">
        <ele>700</ele>
      </trkpt>
      <trkpt lat="44.04142" lon="5.90743">
        <ele>702</ele>
      </trkpt>
      <trkpt lat="44.04145" lon="5.90745">
        <ele>702</ele>
      </trkpt>
      <trkpt lat="44.04147" lon="5.9075">
        <ele>703</ele>
      </trkpt>
      <trkpt lat="44.04148" lon="5.90755">
        <ele>704</ele>
      </trkpt>
      <trkpt lat="44.0415" lon="5.9076">
        <ele>705</ele>
      </trkpt>
      <trkpt lat="44.04153" lon="5.90763">
        <ele>706</ele>
      </trkpt>
      <trkpt lat="44.04156" lon="5.90764">
        <ele>707</ele>
      </trkpt>
      <trkpt lat="44.04158" lon="5.90764">
        <ele>707</ele>
      </trkpt>
      <trkpt lat="44.04164" lon="5.90762">
        <ele>708</ele>
      </trkpt>
      <trkpt lat="44.04168" lon="5.90765">
        <ele>712</ele>
      </trkpt>
      <trkpt lat="44.04168" lon="5.90769">
        <ele>712</ele>
      </trkpt>
      <trkpt lat="44.04166" lon="5.90776">
        <ele>714</ele>
      </trkpt>
      <trkpt lat="44.04159" lon="5.90786">
        <ele>716</ele>
      </trkpt>
      <trkpt lat="44.04156" lon="5.9079">
        <ele>716</ele>
      </trkpt>
      <trkpt lat="44.04153" lon="5.90791">
        <ele>718</ele>
      </trkpt>
      <trkpt lat="44.04146" lon="5.90793">
        <ele>718</ele>
      </trkpt>
      <trkpt lat="44.04141" lon="5.90796">
        <ele>718</ele>
      </trkpt>
      <trkpt lat="44.04139" lon="5.90798">
        <ele>718</ele>
      </trkpt>
      <trkpt lat="44.04135" lon="5.908">
        <ele>718</ele>
      </trkpt>
      <trkpt lat="44.04129" lon="5.908">
        <ele>717</ele>
      </trkpt>
      <trkpt lat="44.04125" lon="5.90799">
        <ele>717</ele>
      </trkpt>
      <trkpt lat="44.04122" lon="5.90796">
        <ele>716</ele>
      </trkpt>
      <trkpt lat="44.04108" lon="5.90787">
        <ele>716</ele>
      </trkpt>
      <trkpt lat="44.04095" lon="5.90782">
        <ele>713</ele>
      </trkpt>
      <trkpt lat="44.04081" lon="5.9078">
        <ele>712</ele>
      </trkpt>
      <trkpt lat="44.04072" lon="5.90778">
        <ele>711</ele>
      </trkpt>
      <trkpt lat="44.04064" lon="5.90777">
        <ele>710</ele>
      </trkpt>
      <trkpt lat="44.04061" lon="5.90776">
        <ele>710</ele>
      </trkpt>
      <trkpt lat="44.04047" lon="5.90775">
        <ele>710</ele>
      </trkpt>
      <trkpt lat="44.04044" lon="5.90772">
        <ele>709</ele>
      </trkpt>
      <trkpt lat="44.04042" lon="5.90769">
        <ele>709</ele>
      </trkpt>
      <trkpt lat="44.04041" lon="5.90764">
        <ele>709</ele>
      </trkpt>
      <trkpt lat="44.04038" lon="5.90755">
        <ele>710</ele>
      </trkpt>
      <trkpt lat="44.04037" lon="5.90749">
        <ele>711</ele>
      </trkpt>
      <trkpt lat="44.04035" lon="5.90742">
        <ele>711</ele>
      </trkpt>
      <trkpt lat="44.04032" lon="5.90737">
        <ele>712</ele>
      </trkpt>
      <trkpt lat="44.04028" lon="5.90734">
        <ele>712</ele>
      </trkpt>
      <trkpt lat="44.04025" lon="5.90731">
        <ele>713</ele>
      </trkpt>
      <trkpt lat="44.04018" lon="5.90726">
        <ele>715</ele>
      </trkpt>
      <trkpt lat="44.04015" lon="5.90725">
        <ele>716</ele>
      </trkpt>
      <trkpt lat="44.04012" lon="5.90727">
        <ele>717</ele>
      </trkpt>
      <trkpt lat="44.0401" lon="5.90733">
        <ele>718</ele>
      </trkpt>
      <trkpt lat="44.04009" lon="5.90751">
        <ele>721</ele>
      </trkpt>
      <trkpt lat="44.04008" lon="5.90755">
        <ele>722</ele>
      </trkpt>
      <trkpt lat="44.04006" lon="5.90757">
        <ele>724</ele>
      </trkpt>
      <trkpt lat="44.04003" lon="5.90757">
        <ele>726</ele>
      </trkpt>
      <trkpt lat="44.04" lon="5.90755">
        <ele>726</ele>
      </trkpt>
      <trkpt lat="44.03995" lon="5.90753">
        <ele>727</ele>
      </trkpt>
      <trkpt lat="44.03986" lon="5.90751">
        <ele>729</ele>
      </trkpt>
      <trkpt lat="44.03976" lon="5.90751">
        <ele>731</ele>
      </trkpt>
      <trkpt lat="44.03957" lon="5.90752">
        <ele>733</ele>
      </trkpt>
      <trkpt lat="44.03953" lon="5.90752">
        <ele>733</ele>
      </trkpt>
      <trkpt lat="44.03948" lon="5.90752">
        <ele>733</ele>
      </trkpt>
      <trkpt lat="44.03945" lon="5.90753">
        <ele>733</ele>
      </trkpt>
      <trkpt lat="44.03941" lon="5.90755">
        <ele>733</ele>
      </trkpt>
      <trkpt lat="44.03935" lon="5.90761">
        <ele>733</ele>
      </trkpt>
      <trkpt lat="44.03933" lon="5.90764">
        <ele>733</ele>
      </trkpt>
      <trkpt lat="44.03931" lon="5.90769">
        <ele>733</ele>
      </trkpt>
      <trkpt lat="44.03923" lon="5.90782">
        <ele>732</ele>
      </trkpt>
      <trkpt lat="44.03915" lon="5.90804">
        <ele>732</ele>
      </trkpt>
      <trkpt lat="44.0391" lon="5.90815">
        <ele>732</ele>
      </trkpt>
      <trkpt lat="44.0391" lon="5.9082">
        <ele>732</ele>
      </trkpt>
      <trkpt lat="44.03909" lon="5.90825">
        <ele>732</ele>
      </trkpt>
      <trkpt lat="44.03904" lon="5.90842">
        <ele>732</ele>
      </trkpt>
      <trkpt lat="44.03901" lon="5.90852">
        <ele>732</ele>
      </trkpt>
      <trkpt lat="44.03898" lon="5.90857">
        <ele>732</ele>
      </trkpt>
      <trkpt lat="44.03895" lon="5.9086">
        <ele>732</ele>
      </trkpt>
      <trkpt lat="44.03892" lon="5.90864">
        <ele>732</ele>
      </trkpt>
      <trkpt lat="44.0389" lon="5.90868">
        <ele>732</ele>
      </trkpt>
      <trkpt lat="44.03889" lon="5.90874">
        <ele>732</ele>
      </trkpt>
      <trkpt lat="44.03886" lon="5.90886">
        <ele>732</ele>
      </trkpt>
      <trkpt lat="44.03884" lon="5.90895">
        <ele>732</ele>
      </trkpt>
      <trkpt lat="44.03881" lon="5.90903">
        <ele>731</ele>
      </trkpt>
      <trkpt lat="44.03879" lon="5.90914">
        <ele>731</ele>
      </trkpt>
      <trkpt lat="44.03878" lon="5.90933">
        <ele>732</ele>
      </trkpt>
      <trkpt lat="44.03879" lon="5.90955">
        <ele>733</ele>
      </trkpt>
      <trkpt lat="44.03881" lon="5.9097">
        <ele>733</ele>
      </trkpt>
      <trkpt lat="44.03885" lon="5.90989">
        <ele>733</ele>
      </trkpt>
      <trkpt lat="44.03887" lon="5.91002">
        <ele>734</ele>
      </trkpt>
      <trkpt lat="44.03892" lon="5.91027">
        <ele>736</ele>
      </trkpt>
      <trkpt lat="44.03894" lon="5.91031">
        <ele>737</ele>
      </trkpt>
      <trkpt lat="44.03895" lon="5.91034">
        <ele>738</ele>
      </trkpt>
      <trkpt lat="44.03897" lon="5.91036">
        <ele>738</ele>
      </trkpt>
      <trkpt lat="44.039" lon="5.91037">
        <ele>739</ele>
      </trkpt>
      <trkpt lat="44.03904" lon="5.91036">
        <ele>740</ele>
      </trkpt>
      <trkpt lat="44.03908" lon="5.91036">
        <ele>740</ele>
      </trkpt>
      <trkpt lat="44.03911" lon="5.91038">
        <ele>740</ele>
      </trkpt>
      <trkpt lat="44.03913" lon="5.91037">
        <ele>741</ele>
      </trkpt>
      <trkpt lat="44.03915" lon="5.91035">
        <ele>741</ele>
      </trkpt>
      <trkpt lat="44.03915" lon="5.91029">
        <ele>742</ele>
      </trkpt>
      <trkpt lat="44.03918" lon="5.91016">
        <ele>743</ele>
      </trkpt>
      <trkpt lat="44.03919" lon="5.91002">
        <ele>743</ele>
      </trkpt>
      <trkpt lat="44.03924" lon="5.9098">
        <ele>746</ele>
      </trkpt>
      <trkpt lat="44.03926" lon="5.90973">
        <ele>746</ele>
      </trkpt>
      <trkpt lat="44.03928" lon="5.90966">
        <ele>746</ele>
      </trkpt>
      <trkpt lat="44.03931" lon="5.90952">
        <ele>746</ele>
      </trkpt>
      <trkpt lat="44.03938" lon="5.90932">
        <ele>746</ele>
      </trkpt>
      <trkpt lat="44.03943" lon="5.90922">
        <ele>747</ele>
      </trkpt>
      <trkpt lat="44.03946" lon="5.90919">
        <ele>747</ele>
      </trkpt>
      <trkpt lat="44.03947" lon="5.90916">
        <ele>747</ele>
      </trkpt>
      <trkpt lat="44.03951" lon="5.90918">
        <ele>748</ele>
      </trkpt>
      <trkpt lat="44.03946" lon="5.90936">
        <ele>748</ele>
      </trkpt>
      <trkpt lat="44.03945" lon="5.90946">
        <ele>747</ele>
      </trkpt>
      <trkpt lat="44.03941" lon="5.90964">
        <ele>745</ele>
      </trkpt>
      <trkpt lat="44.03936" lon="5.90982">
        <ele>745</ele>
      </trkpt>
      <trkpt lat="44.03934" lon="5.90993">
        <ele>745</ele>
      </trkpt>
      <trkpt lat="44.0393" lon="5.91004">
        <ele>745</ele>
      </trkpt>
      <trkpt lat="44.0393" lon="5.9101">
        <ele>745</ele>
      </trkpt>
      <trkpt lat="44.0393" lon="5.91015">
        <ele>745</ele>
      </trkpt>
      <trkpt lat="44.03929" lon="5.91021">
        <ele>745</ele>
      </trkpt>
      <trkpt lat="44.03929" lon="5.91026">
        <ele>745</ele>
      </trkpt>
      <trkpt lat="44.03928" lon="5.91032">
        <ele>745</ele>
      </trkpt>
      <trkpt lat="44.03927" lon="5.91037">
        <ele>746</ele>
      </trkpt>
      <trkpt lat="44.03926" lon="5.91044">
        <ele>746</ele>
      </trkpt>
      <trkpt lat="44.03927" lon="5.91051">
        <ele>747</ele>
      </trkpt>
      <trkpt lat="44.0393" lon="5.91058">
        <ele>747</ele>
      </trkpt>
      <trkpt lat="44.03933" lon="5.91064">
        <ele>748</ele>
      </trkpt>
      <trkpt lat="44.03937" lon="5.9107">
        <ele>748</ele>
      </trkpt>
      <trkpt lat="44.03941" lon="5.91075">
        <ele>749</ele>
      </trkpt>
      <trkpt lat="44.03945" lon="5.91078">
        <ele>750</ele>
      </trkpt>
      <trkpt lat="44.03948" lon="5.91081">
        <ele>750</ele>
      </trkpt>
      <trkpt lat="44.0396" lon="5.91102">
        <ele>754</ele>
      </trkpt>
      <trkpt lat="44.03969" lon="5.91114">
        <ele>754</ele>
      </trkpt>
      <trkpt lat="44.03972" lon="5.91119">
        <ele>754</ele>
      </trkpt>
      <trkpt lat="44.03977" lon="5.91134">
        <ele>755</ele>
      </trkpt>
      <trkpt lat="44.03979" lon="5.9114">
        <ele>755</ele>
      </trkpt>
      <trkpt lat="44.03987" lon="5.91169">
        <ele>758</ele>
      </trkpt>
      <trkpt lat="44.03991" lon="5.91182">
        <ele>759</ele>
      </trkpt>
      <trkpt lat="44.03998" lon="5.91198">
        <ele>762</ele>
      </trkpt>
      <trkpt lat="44.04002" lon="5.91201">
        <ele>762</ele>
      </trkpt>
      <trkpt lat="44.04016" lon="5.91205">
        <ele>766</ele>
      </trkpt>
      <trkpt lat="44.0402" lon="5.91209">
        <ele>766</ele>
      </trkpt>
      <trkpt lat="44.04025" lon="5.91214">
        <ele>767</ele>
      </trkpt>
      <trkpt lat="44.0403" lon="5.91218">
        <ele>769</ele>
      </trkpt>
      <trkpt lat="44.04048" lon="5.91234">
        <ele>770</ele>
      </trkpt>
      <trkpt lat="44.04049" lon="5.91238">
        <ele>770</ele>
      </trkpt>
      <trkpt lat="44.04052" lon="5.91242">
        <ele>769</ele>
      </trkpt>
      <trkpt lat="44.04052" lon="5.91239">
        <ele>769</ele>
      </trkpt>
      <trkpt lat="44.04053" lon="5.91242">
        <ele>771</ele>
      </trkpt>
      <trkpt lat="44.04051" lon="5.91246">
        <ele>772</ele>
      </trkpt>
      <trkpt lat="44.0405" lon="5.91248">
        <ele>772</ele>
      </trkpt>
      <trkpt lat="44.04045" lon="5.91252">
        <ele>773</ele>
      </trkpt>
      <trkpt lat="44.04035" lon="5.91266">
        <ele>775</ele>
      </trkpt>
      <trkpt lat="44.04032" lon="5.91271">
        <ele>776</ele>
      </trkpt>
      <trkpt lat="44.04027" lon="5.91287">
        <ele>777</ele>
      </trkpt>
      <trkpt lat="44.04026" lon="5.9129">
        <ele>778</ele>
      </trkpt>
      <trkpt lat="44.04027" lon="5.91296">
        <ele>780</ele>
      </trkpt>
      <trkpt lat="44.0403" lon="5.91295">
        <ele>781</ele>
      </trkpt>
      <trkpt lat="44.04036" lon="5.91291">
        <ele>782</ele>
      </trkpt>
      <trkpt lat="44.04047" lon="5.91286">
        <ele>782</ele>
      </trkpt>
      <trkpt lat="44.04058" lon="5.9128">
        <ele>783</ele>
      </trkpt>
      <trkpt lat="44.04061" lon="5.91278">
        <ele>783</ele>
      </trkpt>
      <trkpt lat="44.04065" lon="5.91275">
        <ele>784</ele>
      </trkpt>
      <trkpt lat="44.04068" lon="5.91272">
        <ele>784</ele>
      </trkpt>
      <trkpt lat="44.04076" lon="5.9127">
        <ele>784</ele>
      </trkpt>
      <trkpt lat="44.04082" lon="5.91268">
        <ele>784</ele>
      </trkpt>
      <trkpt lat="44.04089" lon="5.91263">
        <ele>785</ele>
      </trkpt>
      <trkpt lat="44.04091" lon="5.91259">
        <ele>786</ele>
      </trkpt>
      <trkpt lat="44.04095" lon="5.91251">
        <ele>788</ele>
      </trkpt>
      <trkpt lat="44.04098" lon="5.9125">
        <ele>790</ele>
      </trkpt>
      <trkpt lat="44.04101" lon="5.9125">
        <ele>792</ele>
      </trkpt>
      <trkpt lat="44.04104" lon="5.91252">
        <ele>793</ele>
      </trkpt>
      <trkpt lat="44.04112" lon="5.91259">
        <ele>795</ele>
      </trkpt>
      <trkpt lat="44.04116" lon="5.91263">
        <ele>796</ele>
      </trkpt>
      <trkpt lat="44.04119" lon="5.91264">
        <ele>797</ele>
      </trkpt>
      <trkpt lat="44.04122" lon="5.91264">
        <ele>798</ele>
      </trkpt>
      <trkpt lat="44.04126" lon="5.91262">
        <ele>799</ele>
      </trkpt>
      <trkpt lat="44.0413" lon="5.91261">
        <ele>801</ele>
      </trkpt>
      <trkpt lat="44.0414" lon="5.91265">
        <ele>804</ele>
      </trkpt>
      <trkpt lat="44.04144" lon="5.91269">
        <ele>805</ele>
      </trkpt>
      <trkpt lat="44.04148" lon="5.91274">
        <ele>805</ele>
      </trkpt>
      <trkpt lat="44.04152" lon="5.91278">
        <ele>806</ele>
      </trkpt>
      <trkpt lat="44.04157" lon="5.9128">
        <ele>806</ele>
      </trkpt>
      <trkpt lat="44.04167" lon="5.91281">
        <ele>807</ele>
      </trkpt>
      <trkpt lat="44.0417" lon="5.91282">
        <ele>807</ele>
      </trkpt>
      <trkpt lat="44.04173" lon="5.91285">
        <ele>807</ele>
      </trkpt>
      <trkpt lat="44.04174" lon="5.91288">
        <ele>807</ele>
      </trkpt>
      <trkpt lat="44.04175" lon="5.91294">
        <ele>807</ele>
      </trkpt>
      <trkpt lat="44.04177" lon="5.91297">
        <ele>806</ele>
      </trkpt>
      <trkpt lat="44.04177" lon="5.91303">
        <ele>806</ele>
      </trkpt>
      <trkpt lat="44.04179" lon="5.91316">
        <ele>805</ele>
      </trkpt>
      <trkpt lat="44.0418" lon="5.91347">
        <ele>806</ele>
      </trkpt>
      <trkpt lat="44.04181" lon="5.91354">
        <ele>807</ele>
      </trkpt>
      <trkpt lat="44.04184" lon="5.91363">
        <ele>807</ele>
      </trkpt>
      <trkpt lat="44.04192" lon="5.91379">
        <ele>809</ele>
      </trkpt>
      <trkpt lat="44.04199" lon="5.91397">
        <ele>812</ele>
      </trkpt>
      <trkpt lat="44.04204" lon="5.91405">
        <ele>812</ele>
      </trkpt>
      <trkpt lat="44.04215" lon="5.91419">
        <ele>815</ele>
      </trkpt>
      <trkpt lat="44.04237" lon="5.91448">
        <ele>820</ele>
      </trkpt>
      <trkpt lat="44.04241" lon="5.91458">
        <ele>821</ele>
      </trkpt>
      <trkpt lat="44.04245" lon="5.91464">
        <ele>822</ele>
      </trkpt>
      <trkpt lat="44.04248" lon="5.9147">
        <ele>823</ele>
      </trkpt>
      <trkpt lat="44.04248" lon="5.91478">
        <ele>824</ele>
      </trkpt>
      <trkpt lat="44.04242" lon="5.91504">
        <ele>827</ele>
      </trkpt>
      <trkpt lat="44.04239" lon="5.91522">
        <ele>829</ele>
      </trkpt>
      <trkpt lat="44.04235" lon="5.91529">
        <ele>830</ele>
      </trkpt>
      <trkpt lat="44.04222" lon="5.91547">
        <ele>832</ele>
      </trkpt>
      <trkpt lat="44.04218" lon="5.91551">
        <ele>832</ele>
      </trkpt>
      <trkpt lat="44.04214" lon="5.91552">
        <ele>832</ele>
      </trkpt>
      <trkpt lat="44.04207" lon="5.91553">
        <ele>832</ele>
      </trkpt>
      <trkpt lat="44.04205" lon="5.91557">
        <ele>833</ele>
      </trkpt>
      <trkpt lat="44.04205" lon="5.91562">
        <ele>834</ele>
      </trkpt>
      <trkpt lat="44.04206" lon="5.91567">
        <ele>834</ele>
      </trkpt>
      <trkpt lat="44.04208" lon="5.91572">
        <ele>835</ele>
      </trkpt>
      <trkpt lat="44.04209" lon="5.91575">
        <ele>835</ele>
      </trkpt>
      <trkpt lat="44.04214" lon="5.91583">
        <ele>837</ele>
      </trkpt>
      <trkpt lat="44.04218" lon="5.91588">
        <ele>839</ele>
      </trkpt>
      <trkpt lat="44.04219" lon="5.91591">
        <ele>840</ele>
      </trkpt>
      <trkpt lat="44.04219" lon="5.91595">
        <ele>841</ele>
      </trkpt>
      <trkpt lat="44.04217" lon="5.91601">
        <ele>842</ele>
      </trkpt>
      <trkpt lat="44.04216" lon="5.91608">
        <ele>844</ele>
      </trkpt>
      <trkpt lat="44.04215" lon="5.91615">
        <ele>846</ele>
      </trkpt>
      <trkpt lat="44.04212" lon="5.91618">
        <ele>847</ele>
      </trkpt>
      <trkpt lat="44.04208" lon="5.9162">
        <ele>848</ele>
      </trkpt>
      <trkpt lat="44.04203" lon="5.9162">
        <ele>849</ele>
      </trkpt>
      <trkpt lat="44.042" lon="5.91621">
        <ele>850</ele>
      </trkpt>
      <trkpt lat="44.04196" lon="5.91623">
        <ele>852</ele>
      </trkpt>
      <trkpt lat="44.04191" lon="5.91629">
        <ele>854</ele>
      </trkpt>
      <trkpt lat="44.04188" lon="5.91634">
        <ele>856</ele>
      </trkpt>
      <trkpt lat="44.04185" lon="5.91637">
        <ele>857</ele>
      </trkpt>
      <trkpt lat="44.0418" lon="5.9164">
        <ele>858</ele>
      </trkpt>
      <trkpt lat="44.04171" lon="5.91642">
        <ele>860</ele>
      </trkpt>
      <trkpt lat="44.04168" lon="5.91645">
        <ele>861</ele>
      </trkpt>
      <trkpt lat="44.04164" lon="5.91653">
        <ele>864</ele>
      </trkpt>
      <trkpt lat="44.04156" lon="5.91657">
        <ele>866</ele>
      </trkpt>
      <trkpt lat="44.04153" lon="5.9166">
        <ele>868</ele>
      </trkpt>
      <trkpt lat="44.04147" lon="5.91668">
        <ele>869</ele>
      </trkpt>
      <trkpt lat="44.04143" lon="5.91672">
        <ele>870</ele>
      </trkpt>
      <trkpt lat="44.04139" lon="5.91675">
        <ele>870</ele>
      </trkpt>
      <trkpt lat="44.04135" lon="5.91679">
        <ele>871</ele>
      </trkpt>
      <trkpt lat="44.04133" lon="5.91683">
        <ele>872</ele>
      </trkpt>
      <trkpt lat="44.04131" lon="5.91686">
        <ele>872</ele>
      </trkpt>
      <trkpt lat="44.04129" lon="5.91691">
        <ele>872</ele>
      </trkpt>
      <trkpt lat="44.04128" lon="5.91694">
        <ele>872</ele>
      </trkpt>
      <trkpt lat="44.04122" lon="5.91699">
        <ele>874</ele>
      </trkpt>
      <trkpt lat="44.0412" lon="5.91702">
        <ele>876</ele>
      </trkpt>
      <trkpt lat="44.04119" lon="5.91705">
        <ele>876</ele>
      </trkpt>
      <trkpt lat="44.04119" lon="5.91709">
        <ele>877</ele>
      </trkpt>
      <trkpt lat="44.04121" lon="5.91712">
        <ele>878</ele>
      </trkpt>
      <trkpt lat="44.04124" lon="5.91715">
        <ele>879</ele>
      </trkpt>
      <trkpt lat="44.04128" lon="5.91717">
        <ele>880</ele>
      </trkpt>
      <trkpt lat="44.04138" lon="5.91719">
        <ele>881</ele>
      </trkpt>
      <trkpt lat="44.04147" lon="5.91719">
        <ele>882</ele>
      </trkpt>
      <trkpt lat="44.0415" lon="5.91719">
        <ele>882</ele>
      </trkpt>
      <trkpt lat="44.04154" lon="5.91719">
        <ele>882</ele>
      </trkpt>
      <trkpt lat="44.04157" lon="5.91718">
        <ele>883</ele>
      </trkpt>
      <trkpt lat="44.04163" lon="5.91715">
        <ele>883</ele>
      </trkpt>
      <trkpt lat="44.04164" lon="5.91714">
        <ele>883</ele>
      </trkpt>
      <trkpt lat="44.04161" lon="5.9171">
        <ele>882</ele>
      </trkpt>
      <trkpt lat="44.04157" lon="5.91712">
        <ele>881</ele>
      </trkpt>
      <trkpt lat="44.04154" lon="5.91716">
        <ele>881</ele>
      </trkpt>
      <trkpt lat="44.04158" lon="5.91717">
        <ele>880</ele>
      </trkpt>
      <trkpt lat="44.0415" lon="5.91715">
        <ele>880</ele>
      </trkpt>
      <trkpt lat="44.04145" lon="5.91715">
        <ele>879</ele>
      </trkpt>
      <trkpt lat="44.04139" lon="5.91722">
        <ele>877</ele>
      </trkpt>
      <trkpt lat="44.04135" lon="5.91724">
        <ele>876</ele>
      </trkpt>
      <trkpt lat="44.04127" lon="5.91724">
        <ele>874</ele>
      </trkpt>
      <trkpt lat="44.04124" lon="5.91724">
        <ele>874</ele>
      </trkpt>
      <trkpt lat="44.04121" lon="5.91724">
        <ele>873</ele>
      </trkpt>
      <trkpt lat="44.04118" lon="5.91722">
        <ele>872</ele>
      </trkpt>
      <trkpt lat="44.04114" lon="5.9172">
        <ele>871</ele>
      </trkpt>
      <trkpt lat="44.0411" lon="5.9172">
        <ele>870</ele>
      </trkpt>
      <trkpt lat="44.04106" lon="5.91723">
        <ele>870</ele>
      </trkpt>
      <trkpt lat="44.04111" lon="5.91732">
        <ele>869</ele>
      </trkpt>
      <trkpt lat="44.04114" lon="5.91735">
        <ele>869</ele>
      </trkpt>
      <trkpt lat="44.04121" lon="5.91739">
        <ele>868</ele>
      </trkpt>
      <trkpt lat="44.04129" lon="5.91741">
        <ele>868</ele>
      </trkpt>
      <trkpt lat="44.04137" lon="5.91743">
        <ele>866</ele>
      </trkpt>
      <trkpt lat="44.04143" lon="5.91743">
        <ele>864</ele>
      </trkpt>
      <trkpt lat="44.04146" lon="5.91747">
        <ele>862</ele>
      </trkpt>
      <trkpt lat="44.04138" lon="5.91751">
        <ele>861</ele>
      </trkpt>
      <trkpt lat="44.04127" lon="5.91755">
        <ele>858</ele>
      </trkpt>
      <trkpt lat="44.04119" lon="5.91759">
        <ele>857</ele>
      </trkpt>
      <trkpt lat="44.04111" lon="5.91763">
        <ele>856</ele>
      </trkpt>
      <trkpt lat="44.04101" lon="5.91764">
        <ele>856</ele>
      </trkpt>
      <trkpt lat="44.04089" lon="5.91765">
        <ele>854</ele>
      </trkpt>
      <trkpt lat="44.04087" lon="5.91769">
        <ele>852</ele>
      </trkpt>
      <trkpt lat="44.04088" lon="5.91775">
        <ele>850</ele>
      </trkpt>
      <trkpt lat="44.04082" lon="5.91774">
        <ele>850</ele>
      </trkpt>
      <trkpt lat="44.04066" lon="5.91774">
        <ele>849</ele>
      </trkpt>
      <trkpt lat="44.04059" lon="5.91775">
        <ele>847</ele>
      </trkpt>
      <trkpt lat="44.04051" lon="5.91777">
        <ele>844</ele>
      </trkpt>
      <trkpt lat="44.04051" lon="5.91783">
        <ele>843</ele>
      </trkpt>
      <trkpt lat="44.04052" lon="5.91789">
        <ele>842</ele>
      </trkpt>
      <trkpt lat="44.04055" lon="5.91793">
        <ele>842</ele>
      </trkpt>
      <trkpt lat="44.04065" lon="5.91797">
        <ele>841</ele>
      </trkpt>
      <trkpt lat="44.04069" lon="5.918">
        <ele>841</ele>
      </trkpt>
      <trkpt lat="44.04076" lon="5.91805">
        <ele>840</ele>
      </trkpt>
      <trkpt lat="44.04076" lon="5.91811">
        <ele>838</ele>
      </trkpt>
      <trkpt lat="44.0407" lon="5.91812">
        <ele>837</ele>
      </trkpt>
      <trkpt lat="44.04064" lon="5.91812">
        <ele>837</ele>
      </trkpt>
      <trkpt lat="44.04048" lon="5.91808">
        <ele>835</ele>
      </trkpt>
      <trkpt lat="44.04043" lon="5.91807">
        <ele>835</ele>
      </trkpt>
      <trkpt lat="44.04024" lon="5.91809">
        <ele>831</ele>
      </trkpt>
      <trkpt lat="44.04016" lon="5.91811">
        <ele>830</ele>
      </trkpt>
      <trkpt lat="44.04013" lon="5.91811">
        <ele>831</ele>
      </trkpt>
      <trkpt lat="44.0401" lon="5.9181">
        <ele>831</ele>
      </trkpt>
      <trkpt lat="44.04003" lon="5.91807">
        <ele>829</ele>
      </trkpt>
      <trkpt lat="44.03999" lon="5.91806">
        <ele>828</ele>
      </trkpt>
      <trkpt lat="44.03987" lon="5.91808">
        <ele>827</ele>
      </trkpt>
      <trkpt lat="44.03971" lon="5.91813">
        <ele>825</ele>
      </trkpt>
      <trkpt lat="44.03966" lon="5.91813">
        <ele>824</ele>
      </trkpt>
      <trkpt lat="44.03962" lon="5.91815">
        <ele>824</ele>
      </trkpt>
      <trkpt lat="44.03959" lon="5.91816">
        <ele>823</ele>
      </trkpt>
      <trkpt lat="44.03955" lon="5.91817">
        <ele>822</ele>
      </trkpt>
      <trkpt lat="44.03951" lon="5.91817">
        <ele>821</ele>
      </trkpt>
      <trkpt lat="44.03947" lon="5.91818">
        <ele>821</ele>
      </trkpt>
      <trkpt lat="44.03945" lon="5.91822">
        <ele>821</ele>
      </trkpt>
      <trkpt lat="44.03945" lon="5.91827">
        <ele>821</ele>
      </trkpt>
      <trkpt lat="44.03945" lon="5.91832">
        <ele>821</ele>
      </trkpt>
      <trkpt lat="44.03947" lon="5.91843">
        <ele>820</ele>
      </trkpt>
      <trkpt lat="44.0395" lon="5.91857">
        <ele>818</ele>
      </trkpt>
      <trkpt lat="44.03951" lon="5.91867">
        <ele>817</ele>
      </trkpt>
      <trkpt lat="44.03952" lon="5.91871">
        <ele>816</ele>
      </trkpt>
      <trkpt lat="44.03951" lon="5.91876">
        <ele>816</ele>
      </trkpt>
      <trkpt lat="44.03948" lon="5.91885">
        <ele>815</ele>
      </trkpt>
      <trkpt lat="44.03946" lon="5.91894">
        <ele>815</ele>
      </trkpt>
      <trkpt lat="44.03946" lon="5.91897">
        <ele>815</ele>
      </trkpt>
      <trkpt lat="44.03948" lon="5.91902">
        <ele>815</ele>
      </trkpt>
      <trkpt lat="44.0395" lon="5.91907">
        <ele>815</ele>
      </trkpt>
      <trkpt lat="44.03952" lon="5.9191">
        <ele>815</ele>
      </trkpt>
      <trkpt lat="44.03956" lon="5.91914">
        <ele>815</ele>
      </trkpt>
      <trkpt lat="44.03965" lon="5.91915">
        <ele>815</ele>
      </trkpt>
      <trkpt lat="44.03969" lon="5.91918">
        <ele>815</ele>
      </trkpt>
      <trkpt lat="44.03973" lon="5.91918">
        <ele>814</ele>
      </trkpt>
      <trkpt lat="44.03977" lon="5.91916">
        <ele>814</ele>
      </trkpt>
      <trkpt lat="44.03981" lon="5.91916">
        <ele>814</ele>
      </trkpt>
      <trkpt lat="44.03986" lon="5.91915">
        <ele>813</ele>
      </trkpt>
      <trkpt lat="44.03991" lon="5.91908">
        <ele>813</ele>
      </trkpt>
      <trkpt lat="44.03994" lon="5.91905">
        <ele>813</ele>
      </trkpt>
      <trkpt lat="44.03997" lon="5.91904">
        <ele>812</ele>
      </trkpt>
      <trkpt lat="44.04" lon="5.91901">
        <ele>812</ele>
      </trkpt>
      <trkpt lat="44.04006" lon="5.91896">
        <ele>811</ele>
      </trkpt>
      <trkpt lat="44.0401" lon="5.91894">
        <ele>810</ele>
      </trkpt>
      <trkpt lat="44.0401" lon="5.91899">
        <ele>809</ele>
      </trkpt>
      <trkpt lat="44.04009" lon="5.91904">
        <ele>809</ele>
      </trkpt>
      <trkpt lat="44.04008" lon="5.91908">
        <ele>808</ele>
      </trkpt>
      <trkpt lat="44.04003" lon="5.91916">
        <ele>807</ele>
      </trkpt>
      <trkpt lat="44.04003" lon="5.91922">
        <ele>806</ele>
      </trkpt>
      <trkpt lat="44.04014" lon="5.91915">
        <ele>804</ele>
      </trkpt>
      <trkpt lat="44.04019" lon="5.91914">
        <ele>803</ele>
      </trkpt>
      <trkpt lat="44.04022" lon="5.91915">
        <ele>803</ele>
      </trkpt>
      <trkpt lat="44.04024" lon="5.91915">
        <ele>803</ele>
      </trkpt>
      <trkpt lat="44.04034" lon="5.91921">
        <ele>803</ele>
      </trkpt>
      <trkpt lat="44.04048" lon="5.91926">
        <ele>801</ele>
      </trkpt>
      <trkpt lat="44.04051" lon="5.91928">
        <ele>801</ele>
      </trkpt>
      <trkpt lat="44.04055" lon="5.91928">
        <ele>800</ele>
      </trkpt>
      <trkpt lat="44.04063" lon="5.91926">
        <ele>800</ele>
      </trkpt>
      <trkpt lat="44.04069" lon="5.91926">
        <ele>800</ele>
      </trkpt>
      <trkpt lat="44.04076" lon="5.91929">
        <ele>799</ele>
      </trkpt>
      <trkpt lat="44.04085" lon="5.91932">
        <ele>798</ele>
      </trkpt>
      <trkpt lat="44.04095" lon="5.91933">
        <ele>797</ele>
      </trkpt>
      <trkpt lat="44.04104" lon="5.91936">
        <ele>797</ele>
      </trkpt>
      <trkpt lat="44.04111" lon="5.91934">
        <ele>796</ele>
      </trkpt>
      <trkpt lat="44.04119" lon="5.91933">
        <ele>795</ele>
      </trkpt>
      <trkpt lat="44.04127" lon="5.91931">
        <ele>793</ele>
      </trkpt>
      <trkpt lat="44.04135" lon="5.91929">
        <ele>791</ele>
      </trkpt>
      <trkpt lat="44.04138" lon="5.91926">
        <ele>791</ele>
      </trkpt>
      <trkpt lat="44.04142" lon="5.91925">
        <ele>791</ele>
      </trkpt>
      <trkpt lat="44.04148" lon="5.91926">
        <ele>790</ele>
      </trkpt>
      <trkpt lat="44.04151" lon="5.91926">
        <ele>790</ele>
      </trkpt>
      <trkpt lat="44.04154" lon="5.91923">
        <ele>791</ele>
      </trkpt>
      <trkpt lat="44.04156" lon="5.9192">
        <ele>791</ele>
      </trkpt>
      <trkpt lat="44.04158" lon="5.91916">
        <ele>791</ele>
      </trkpt>
      <trkpt lat="44.0416" lon="5.91914">
        <ele>791</ele>
      </trkpt>
      <trkpt lat="44.04164" lon="5.91913">
        <ele>791</ele>
      </trkpt>
      <trkpt lat="44.04169" lon="5.91909">
        <ele>791</ele>
      </trkpt>
      <trkpt lat="44.04177" lon="5.91907">
        <ele>792</ele>
      </trkpt>
      <trkpt lat="44.0418" lon="5.91906">
        <ele>792</ele>
      </trkpt>
      <trkpt lat="44.04183" lon="5.91903">
        <ele>793</ele>
      </trkpt>
      <trkpt lat="44.04186" lon="5.919">
        <ele>792</ele>
      </trkpt>
      <trkpt lat="44.04188" lon="5.91899">
        <ele>792</ele>
      </trkpt>
      <trkpt lat="44.04194" lon="5.91898">
        <ele>792</ele>
      </trkpt>
      <trkpt lat="44.04198" lon="5.91899">
        <ele>791</ele>
      </trkpt>
      <trkpt lat="44.04205" lon="5.91901">
        <ele>790</ele>
      </trkpt>
      <trkpt lat="44.04209" lon="5.919">
        <ele>790</ele>
      </trkpt>
      <trkpt lat="44.04215" lon="5.91899">
        <ele>790</ele>
      </trkpt>
      <trkpt lat="44.04216" lon="5.91897">
        <ele>790</ele>
      </trkpt>
      <trkpt lat="44.04219" lon="5.91894">
        <ele>790</ele>
      </trkpt>
      <trkpt lat="44.04222" lon="5.91893">
        <ele>790</ele>
      </trkpt>
      <trkpt lat="44.04227" lon="5.91897">
        <ele>791</ele>
      </trkpt>
      <trkpt lat="44.04231" lon="5.91895">
        <ele>791</ele>
      </trkpt>
      <trkpt lat="44.04233" lon="5.91895">
        <ele>791</ele>
      </trkpt>
      <trkpt lat="44.04244" lon="5.91893">
        <ele>790</ele>
      </trkpt>
      <trkpt lat="44.04253" lon="5.91894">
        <ele>791</ele>
      </trkpt>
      <trkpt lat="44.0426" lon="5.91896">
        <ele>791</ele>
      </trkpt>
      <trkpt lat="44.04267" lon="5.91896">
        <ele>792</ele>
      </trkpt>
      <trkpt lat="44.04273" lon="5.91901">
        <ele>792</ele>
      </trkpt>
      <trkpt lat="44.04279" lon="5.91904">
        <ele>793</ele>
      </trkpt>
      <trkpt lat="44.04284" lon="5.91906">
        <ele>793</ele>
      </trkpt>
      <trkpt lat="44.04288" lon="5.91907">
        <ele>794</ele>
      </trkpt>
      <trkpt lat="44.04292" lon="5.9191">
        <ele>794</ele>
      </trkpt>
      <trkpt lat="44.04302" lon="5.91914">
        <ele>794</ele>
      </trkpt>
      <trkpt lat="44.04306" lon="5.91913">
        <ele>794</ele>
      </trkpt>
      <trkpt lat="44.0431" lon="5.91908">
        <ele>794</ele>
      </trkpt>
      <trkpt lat="44.04314" lon="5.91905">
        <ele>794</ele>
      </trkpt>
      <trkpt lat="44.04319" lon="5.91904">
        <ele>795</ele>
      </trkpt>
      <trkpt lat="44.04322" lon="5.91903">
        <ele>795</ele>
      </trkpt>
      <trkpt lat="44.04325" lon="5.91901">
        <ele>796</ele>
      </trkpt>
      <trkpt lat="44.04328" lon="5.91898">
        <ele>797</ele>
      </trkpt>
      <trkpt lat="44.04331" lon="5.91895">
        <ele>797</ele>
      </trkpt>
      <trkpt lat="44.04333" lon="5.91891">
        <ele>797</ele>
      </trkpt>
      <trkpt lat="44.04334" lon="5.91887">
        <ele>798</ele>
      </trkpt>
      <trkpt lat="44.04336" lon="5.91883">
        <ele>798</ele>
      </trkpt>
      <trkpt lat="44.04339" lon="5.91879">
        <ele>798</ele>
      </trkpt>
      <trkpt lat="44.04341" lon="5.91874">
        <ele>798</ele>
      </trkpt>
      <trkpt lat="44.0435" lon="5.91865">
        <ele>799</ele>
      </trkpt>
      <trkpt lat="44.04354" lon="5.9186">
        <ele>799</ele>
      </trkpt>
      <trkpt lat="44.04357" lon="5.91859">
        <ele>800</ele>
      </trkpt>
      <trkpt lat="44.04359" lon="5.91856">
        <ele>800</ele>
      </trkpt>
      <trkpt lat="44.04361" lon="5.91852">
        <ele>800</ele>
      </trkpt>
      <trkpt lat="44.04361" lon="5.91843">
        <ele>801</ele>
      </trkpt>
      <trkpt lat="44.04361" lon="5.91839">
        <ele>801</ele>
      </trkpt>
      <trkpt lat="44.04356" lon="5.91827">
        <ele>801</ele>
      </trkpt>
      <trkpt lat="44.04351" lon="5.91818">
        <ele>800</ele>
      </trkpt>
      <trkpt lat="44.04347" lon="5.91809">
        <ele>799</ele>
      </trkpt>
      <trkpt lat="44.04342" lon="5.9179">
        <ele>797</ele>
      </trkpt>
      <trkpt lat="44.0434" lon="5.91785">
        <ele>797</ele>
      </trkpt>
      <trkpt lat="44.04331" lon="5.9176">
        <ele>795</ele>
      </trkpt>
      <trkpt lat="44.04329" lon="5.91753">
        <ele>794</ele>
      </trkpt>
      <trkpt lat="44.04326" lon="5.91741">
        <ele>793</ele>
      </trkpt>
      <trkpt lat="44.04322" lon="5.91735">
        <ele>793</ele>
      </trkpt>
      <trkpt lat="44.04318" lon="5.91729">
        <ele>794</ele>
      </trkpt>
      <trkpt lat="44.04307" lon="5.91721">
        <ele>796</ele>
      </trkpt>
      <trkpt lat="44.04299" lon="5.91707">
        <ele>797</ele>
      </trkpt>
      <trkpt lat="44.04297" lon="5.91703">
        <ele>797</ele>
      </trkpt>
      <trkpt lat="44.04296" lon="5.9169">
        <ele>799</ele>
      </trkpt>
      <trkpt lat="44.04295" lon="5.91686">
        <ele>800</ele>
      </trkpt>
      <trkpt lat="44.04294" lon="5.91681">
        <ele>801</ele>
      </trkpt>
      <trkpt lat="44.04296" lon="5.91671">
        <ele>802</ele>
      </trkpt>
      <trkpt lat="44.043" lon="5.91661">
        <ele>803</ele>
      </trkpt>
      <trkpt lat="44.04302" lon="5.91655">
        <ele>803</ele>
      </trkpt>
      <trkpt lat="44.04302" lon="5.91649">
        <ele>804</ele>
      </trkpt>
      <trkpt lat="44.04299" lon="5.91636">
        <ele>803</ele>
      </trkpt>
      <trkpt lat="44.04299" lon="5.9163">
        <ele>803</ele>
      </trkpt>
      <trkpt lat="44.04295" lon="5.91612">
        <ele>802</ele>
      </trkpt>
      <trkpt lat="44.0429" lon="5.91601">
        <ele>801</ele>
      </trkpt>
      <trkpt lat="44.04287" lon="5.91589">
        <ele>800</ele>
      </trkpt>
      <trkpt lat="44.04287" lon="5.91582">
        <ele>800</ele>
      </trkpt>
      <trkpt lat="44.04283" lon="5.91566">
        <ele>800</ele>
      </trkpt>
      <trkpt lat="44.04282" lon="5.91558">
        <ele>800</ele>
      </trkpt>
      <trkpt lat="44.04278" lon="5.91545">
        <ele>800</ele>
      </trkpt>
      <trkpt lat="44.04276" lon="5.91531">
        <ele>801</ele>
      </trkpt>
      <trkpt lat="44.04276" lon="5.91515">
        <ele>804</ele>
      </trkpt>
      <trkpt lat="44.04275" lon="5.915">
        <ele>804</ele>
      </trkpt>
      <trkpt lat="44.04275" lon="5.91491">
        <ele>804</ele>
      </trkpt>
      <trkpt lat="44.04276" lon="5.91484">
        <ele>805</ele>
      </trkpt>
      <trkpt lat="44.04279" lon="5.91471">
        <ele>807</ele>
      </trkpt>
      <trkpt lat="44.04279" lon="5.91465">
        <ele>807</ele>
      </trkpt>
      <trkpt lat="44.0428" lon="5.91451">
        <ele>807</ele>
      </trkpt>
      <trkpt lat="44.0428" lon="5.91447">
        <ele>807</ele>
      </trkpt>
      <trkpt lat="44.04279" lon="5.91443">
        <ele>806</ele>
      </trkpt>
      <trkpt lat="44.04276" lon="5.91433">
        <ele>805</ele>
      </trkpt>
      <trkpt lat="44.04273" lon="5.9143">
        <ele>806</ele>
      </trkpt>
      <trkpt lat="44.04266" lon="5.91429">
        <ele>806</ele>
      </trkpt>
      <trkpt lat="44.04246" lon="5.91418">
        <ele>804</ele>
      </trkpt>
      <trkpt lat="44.04241" lon="5.91413">
        <ele>803</ele>
      </trkpt>
      <trkpt lat="44.04238" lon="5.91411">
        <ele>803</ele>
      </trkpt>
      <trkpt lat="44.0423" lon="5.91403">
        <ele>800</ele>
      </trkpt>
      <trkpt lat="44.04224" lon="5.91396">
        <ele>798</ele>
      </trkpt>
      <trkpt lat="44.0422" lon="5.91394">
        <ele>798</ele>
      </trkpt>
      <trkpt lat="44.04217" lon="5.91391">
        <ele>798</ele>
      </trkpt>
      <trkpt lat="44.04213" lon="5.91381">
        <ele>797</ele>
      </trkpt>
      <trkpt lat="44.0421" lon="5.91377">
        <ele>796</ele>
      </trkpt>
      <trkpt lat="44.04208" lon="5.91374">
        <ele>797</ele>
      </trkpt>
      <trkpt lat="44.04208" lon="5.91363">
        <ele>793</ele>
      </trkpt>
      <trkpt lat="44.04211" lon="5.91354">
        <ele>791</ele>
      </trkpt>
      <trkpt lat="44.04213" lon="5.91344">
        <ele>790</ele>
      </trkpt>
      <trkpt lat="44.04215" lon="5.91339">
        <ele>790</ele>
      </trkpt>
      <trkpt lat="44.04219" lon="5.9133">
        <ele>787</ele>
      </trkpt>
      <trkpt lat="44.04225" lon="5.91321">
        <ele>785</ele>
      </trkpt>
      <trkpt lat="44.04226" lon="5.91315">
        <ele>785</ele>
      </trkpt>
      <trkpt lat="44.04233" lon="5.91302">
        <ele>784</ele>
      </trkpt>
      <trkpt lat="44.04236" lon="5.91287">
        <ele>783</ele>
      </trkpt>
      <trkpt lat="44.04237" lon="5.91283">
        <ele>782</ele>
      </trkpt>
      <trkpt lat="44.0424" lon="5.91279">
        <ele>781</ele>
      </trkpt>
      <trkpt lat="44.04246" lon="5.91271">
        <ele>779</ele>
      </trkpt>
      <trkpt lat="44.04254" lon="5.91249">
        <ele>777</ele>
      </trkpt>
      <trkpt lat="44.04256" lon="5.91241">
        <ele>776</ele>
      </trkpt>
      <trkpt lat="44.0426" lon="5.91232">
        <ele>775</ele>
      </trkpt>
      <trkpt lat="44.04263" lon="5.91227">
        <ele>774</ele>
      </trkpt>
      <trkpt lat="44.04265" lon="5.91218">
        <ele>774</ele>
      </trkpt>
      <trkpt lat="44.04267" lon="5.91205">
        <ele>774</ele>
      </trkpt>
      <trkpt lat="44.04265" lon="5.91194">
        <ele>772</ele>
      </trkpt>
      <trkpt lat="44.04266" lon="5.91188">
        <ele>771</ele>
      </trkpt>
      <trkpt lat="44.04265" lon="5.91178">
        <ele>771</ele>
      </trkpt>
      <trkpt lat="44.04265" lon="5.91165">
        <ele>770</ele>
      </trkpt>
      <trkpt lat="44.04267" lon="5.91156">
        <ele>769</ele>
      </trkpt>
      <trkpt lat="44.04271" lon="5.91148">
        <ele>769</ele>
      </trkpt>
      <trkpt lat="44.04273" lon="5.9114">
        <ele>769</ele>
      </trkpt>
      <trkpt lat="44.04275" lon="5.91134">
        <ele>769</ele>
      </trkpt>
      <trkpt lat="44.04276" lon="5.9113">
        <ele>769</ele>
      </trkpt>
      <trkpt lat="44.04278" lon="5.91117">
        <ele>768</ele>
      </trkpt>
      <trkpt lat="44.0428" lon="5.9111">
        <ele>768</ele>
      </trkpt>
      <trkpt lat="44.0429" lon="5.91095">
        <ele>769</ele>
      </trkpt>
      <trkpt lat="44.04293" lon="5.91089">
        <ele>769</ele>
      </trkpt>
      <trkpt lat="44.04304" lon="5.9108">
        <ele>769</ele>
      </trkpt>
      <trkpt lat="44.04306" lon="5.91078">
        <ele>770</ele>
      </trkpt>
      <trkpt lat="44.0431" lon="5.91071">
        <ele>770</ele>
      </trkpt>
      <trkpt lat="44.04315" lon="5.91054">
        <ele>769</ele>
      </trkpt>
      <trkpt lat="44.04318" lon="5.91051">
        <ele>768</ele>
      </trkpt>
      <trkpt lat="44.04323" lon="5.91053">
        <ele>767</ele>
      </trkpt>
      <trkpt lat="44.04322" lon="5.91059">
        <ele>767</ele>
      </trkpt>
      <trkpt lat="44.04323" lon="5.9107">
        <ele>764</ele>
      </trkpt>
      <trkpt lat="44.04323" lon="5.91082">
        <ele>761</ele>
      </trkpt>
      <trkpt lat="44.04322" lon="5.91092">
        <ele>761</ele>
      </trkpt>
      <trkpt lat="44.04321" lon="5.91098">
        <ele>759</ele>
      </trkpt>
      <trkpt lat="44.04319" lon="5.91108">
        <ele>758</ele>
      </trkpt>
      <trkpt lat="44.04317" lon="5.91124">
        <ele>754</ele>
      </trkpt>
      <trkpt lat="44.04317" lon="5.91129">
        <ele>755</ele>
      </trkpt>
      <trkpt lat="44.04314" lon="5.91146">
        <ele>754</ele>
      </trkpt>
      <trkpt lat="44.04313" lon="5.91151">
        <ele>752</ele>
      </trkpt>
      <trkpt lat="44.04314" lon="5.91162">
        <ele>750</ele>
      </trkpt>
      <trkpt lat="44.04317" lon="5.91172">
        <ele>749</ele>
      </trkpt>
      <trkpt lat="44.04319" lon="5.91176">
        <ele>749</ele>
      </trkpt>
      <trkpt lat="44.04326" lon="5.91188">
        <ele>745</ele>
      </trkpt>
      <trkpt lat="44.04329" lon="5.91184">
        <ele>745</ele>
      </trkpt>
      <trkpt lat="44.0433" lon="5.91174">
        <ele>744</ele>
      </trkpt>
      <trkpt lat="44.04332" lon="5.91168">
        <ele>744</ele>
      </trkpt>
      <trkpt lat="44.04337" lon="5.91156">
        <ele>745</ele>
      </trkpt>
      <trkpt lat="44.04338" lon="5.91151">
        <ele>745</ele>
      </trkpt>
      <trkpt lat="44.0434" lon="5.91145">
        <ele>744</ele>
      </trkpt>
      <trkpt lat="44.04348" lon="5.91139">
        <ele>744</ele>
      </trkpt>
      <trkpt lat="44.04353" lon="5.91133">
        <ele>743</ele>
      </trkpt>
      <trkpt lat="44.04357" lon="5.91131">
        <ele>742</ele>
      </trkpt>
      <trkpt lat="44.0436" lon="5.9113">
        <ele>742</ele>
      </trkpt>
      <trkpt lat="44.0437" lon="5.9112">
        <ele>741</ele>
      </trkpt>
      <trkpt lat="44.04373" lon="5.91119">
        <ele>740</ele>
      </trkpt>
      <trkpt lat="44.04377" lon="5.9112">
        <ele>740</ele>
      </trkpt>
      <trkpt lat="44.04382" lon="5.91119">
        <ele>740</ele>
      </trkpt>
      <trkpt lat="44.04392" lon="5.91112">
        <ele>739</ele>
      </trkpt>
      <trkpt lat="44.04396" lon="5.91111">
        <ele>739</ele>
      </trkpt>
      <trkpt lat="44.04399" lon="5.91109">
        <ele>739</ele>
      </trkpt>
      <trkpt lat="44.04403" lon="5.91105">
        <ele>739</ele>
      </trkpt>
      <trkpt lat="44.04408" lon="5.91101">
        <ele>738</ele>
      </trkpt>
      <trkpt lat="44.04414" lon="5.91094">
        <ele>738</ele>
      </trkpt>
      <trkpt lat="44.04422" lon="5.91087">
        <ele>737</ele>
      </trkpt>
      <trkpt lat="44.04426" lon="5.91085">
        <ele>737</ele>
      </trkpt>
      <trkpt lat="44.04431" lon="5.91081">
        <ele>737</ele>
      </trkpt>
      <trkpt lat="44.04436" lon="5.91074">
        <ele>738</ele>
      </trkpt>
      <trkpt lat="44.0444" lon="5.91064">
        <ele>738</ele>
      </trkpt>
      <trkpt lat="44.04441" lon="5.9106">
        <ele>738</ele>
      </trkpt>
      <trkpt lat="44.04445" lon="5.91052">
        <ele>740</ele>
      </trkpt>
      <trkpt lat="44.04448" lon="5.91044">
        <ele>740</ele>
      </trkpt>
      <trkpt lat="44.04452" lon="5.9103">
        <ele>741</ele>
      </trkpt>
      <trkpt lat="44.04453" lon="5.91015">
        <ele>741</ele>
      </trkpt>
      <trkpt lat="44.04456" lon="5.91006">
        <ele>740</ele>
      </trkpt>
      <trkpt lat="44.04456" lon="5.91">
        <ele>740</ele>
      </trkpt>
      <trkpt lat="44.04457" lon="5.90994">
        <ele>741</ele>
      </trkpt>
      <trkpt lat="44.04457" lon="5.90983">
        <ele>741</ele>
      </trkpt>
      <trkpt lat="44.04457" lon="5.90971">
        <ele>742</ele>
      </trkpt>
      <trkpt lat="44.04457" lon="5.90965">
        <ele>742</ele>
      </trkpt>
      <trkpt lat="44.04455" lon="5.90953">
        <ele>742</ele>
      </trkpt>
      <trkpt lat="44.04454" lon="5.90942">
        <ele>742</ele>
      </trkpt>
      <trkpt lat="44.04451" lon="5.90928">
        <ele>743</ele>
      </trkpt>
      <trkpt lat="44.04447" lon="5.90914">
        <ele>743</ele>
      </trkpt>
      <trkpt lat="44.04443" lon="5.90906">
        <ele>742</ele>
      </trkpt>
      <trkpt lat="44.0444" lon="5.90897">
        <ele>742</ele>
      </trkpt>
      <trkpt lat="44.04437" lon="5.90888">
        <ele>742</ele>
      </trkpt>
      <trkpt lat="44.04432" lon="5.90875">
        <ele>742</ele>
      </trkpt>
      <trkpt lat="44.04428" lon="5.90855">
        <ele>742</ele>
      </trkpt>
      <trkpt lat="44.04426" lon="5.90851">
        <ele>743</ele>
      </trkpt>
      <trkpt lat="44.04424" lon="5.90842">
        <ele>743</ele>
      </trkpt>
      <trkpt lat="44.04423" lon="5.90833">
        <ele>744</ele>
      </trkpt>
      <trkpt lat="44.04423" lon="5.90828">
        <ele>744</ele>
      </trkpt>
      <trkpt lat="44.04425" lon="5.90814">
        <ele>744</ele>
      </trkpt>
      <trkpt lat="44.04426" lon="5.9081">
        <ele>744</ele>
      </trkpt>
      <trkpt lat="44.04431" lon="5.90802">
        <ele>744</ele>
      </trkpt>
      <trkpt lat="44.04433" lon="5.90797">
        <ele>744</ele>
      </trkpt>
      <trkpt lat="44.0444" lon="5.9078">
        <ele>745</ele>
      </trkpt>
      <trkpt lat="44.0445" lon="5.90764">
        <ele>745</ele>
      </trkpt>
      <trkpt lat="44.04453" lon="5.90761">
        <ele>745</ele>
      </trkpt>
      <trkpt lat="44.04456" lon="5.90758">
        <ele>744</ele>
      </trkpt>
      <trkpt lat="44.0446" lon="5.90756">
        <ele>745</ele>
      </trkpt>
      <trkpt lat="44.04465" lon="5.90752">
        <ele>744</ele>
      </trkpt>
      <trkpt lat="44.04469" lon="5.90748">
        <ele>743</ele>
      </trkpt>
      <trkpt lat="44.04476" lon="5.90745">
        <ele>742</ele>
      </trkpt>
      <trkpt lat="44.04478" lon="5.90742">
        <ele>742</ele>
      </trkpt>
      <trkpt lat="44.04484" lon="5.90738">
        <ele>741</ele>
      </trkpt>
      <trkpt lat="44.04491" lon="5.90729">
        <ele>739</ele>
      </trkpt>
      <trkpt lat="44.04497" lon="5.90723">
        <ele>737</ele>
      </trkpt>
      <trkpt lat="44.04505" lon="5.90717">
        <ele>736</ele>
      </trkpt>
      <trkpt lat="44.04508" lon="5.90714">
        <ele>737</ele>
      </trkpt>
      <trkpt lat="44.04515" lon="5.90706">
        <ele>737</ele>
      </trkpt>
      <trkpt lat="44.04521" lon="5.907">
        <ele>735</ele>
      </trkpt>
      <trkpt lat="44.04531" lon="5.9069">
        <ele>732</ele>
      </trkpt>
      <trkpt lat="44.04535" lon="5.90686">
        <ele>731</ele>
      </trkpt>
      <trkpt lat="44.04543" lon="5.90682">
        <ele>730</ele>
      </trkpt>
      <trkpt lat="44.04547" lon="5.90679">
        <ele>730</ele>
      </trkpt>
      <trkpt lat="44.04556" lon="5.90672">
        <ele>728</ele>
      </trkpt>
      <trkpt lat="44.04563" lon="5.90665">
        <ele>728</ele>
      </trkpt>
      <trkpt lat="44.04568" lon="5.9066">
        <ele>726</ele>
      </trkpt>
      <trkpt lat="44.04571" lon="5.90658">
        <ele>726</ele>
      </trkpt>
      <trkpt lat="44.04582" lon="5.90653">
        <ele>724</ele>
      </trkpt>
      <trkpt lat="44.04586" lon="5.9065">
        <ele>723</ele>
      </trkpt>
      <trkpt lat="44.04589" lon="5.90647">
        <ele>722</ele>
      </trkpt>
      <trkpt lat="44.04597" lon="5.90643">
        <ele>720</ele>
      </trkpt>
      <trkpt lat="44.04596" lon="5.90649">
        <ele>721</ele>
      </trkpt>
      <trkpt lat="44.04594" lon="5.90655">
        <ele>721</ele>
      </trkpt>
      <trkpt lat="44.04592" lon="5.9066">
        <ele>721</ele>
      </trkpt>
      <trkpt lat="44.04586" lon="5.90669">
        <ele>719</ele>
      </trkpt>
      <trkpt lat="44.04583" lon="5.90675">
        <ele>717</ele>
      </trkpt>
      <trkpt lat="44.04578" lon="5.90691">
        <ele>718</ele>
      </trkpt>
      <trkpt lat="44.04572" lon="5.90706">
        <ele>718</ele>
      </trkpt>
      <trkpt lat="44.04569" lon="5.9071">
        <ele>718</ele>
      </trkpt>
      <trkpt lat="44.04563" lon="5.90716">
        <ele>718</ele>
      </trkpt>
      <trkpt lat="44.0456" lon="5.90723">
        <ele>718</ele>
      </trkpt>
      <trkpt lat="44.04558" lon="5.90726">
        <ele>718</ele>
      </trkpt>
      <trkpt lat="44.04555" lon="5.90733">
        <ele>718</ele>
      </trkpt>
      <trkpt lat="44.04546" lon="5.90745">
        <ele>719</ele>
      </trkpt>
      <trkpt lat="44.04538" lon="5.90759">
        <ele>719</ele>
      </trkpt>
      <trkpt lat="44.04535" lon="5.90763">
        <ele>719</ele>
      </trkpt>
      <trkpt lat="44.04519" lon="5.90781">
        <ele>720</ele>
      </trkpt>
      <trkpt lat="44.04513" lon="5.90789">
        <ele>718</ele>
      </trkpt>
      <trkpt lat="44.04505" lon="5.90805">
        <ele>719</ele>
      </trkpt>
      <trkpt lat="44.04502" lon="5.90812">
        <ele>718</ele>
      </trkpt>
      <trkpt lat="44.04501" lon="5.90818">
        <ele>718</ele>
      </trkpt>
      <trkpt lat="44.04502" lon="5.90831">
        <ele>717</ele>
      </trkpt>
      <trkpt lat="44.04501" lon="5.90835">
        <ele>716</ele>
      </trkpt>
      <trkpt lat="44.04502" lon="5.90839">
        <ele>715</ele>
      </trkpt>
      <trkpt lat="44.04504" lon="5.90844">
        <ele>714</ele>
      </trkpt>
      <trkpt lat="44.04512" lon="5.90853">
        <ele>712</ele>
      </trkpt>
      <trkpt lat="44.04516" lon="5.90858">
        <ele>712</ele>
      </trkpt>
      <trkpt lat="44.04526" lon="5.90874">
        <ele>713</ele>
      </trkpt>
      <trkpt lat="44.04529" lon="5.90879">
        <ele>714</ele>
      </trkpt>
      <trkpt lat="44.04531" lon="5.90885">
        <ele>714</ele>
      </trkpt>
      <trkpt lat="44.04535" lon="5.909">
        <ele>714</ele>
      </trkpt>
      <trkpt lat="44.04539" lon="5.9091">
        <ele>714</ele>
      </trkpt>
      <trkpt lat="44.04541" lon="5.90921">
        <ele>714</ele>
      </trkpt>
      <trkpt lat="44.04541" lon="5.90928">
        <ele>714</ele>
      </trkpt>
      <trkpt lat="44.04543" lon="5.90948">
        <ele>713</ele>
      </trkpt>
      <trkpt lat="44.04543" lon="5.90952">
        <ele>713</ele>
      </trkpt>
      <trkpt lat="44.04541" lon="5.90959">
        <ele>712</ele>
      </trkpt>
      <trkpt lat="44.04544" lon="5.90964">
        <ele>712</ele>
      </trkpt>
      <trkpt lat="44.04549" lon="5.90946">
        <ele>709</ele>
      </trkpt>
      <trkpt lat="44.04551" lon="5.90937">
        <ele>710</ele>
      </trkpt>
      <trkpt lat="44.04556" lon="5.90921">
        <ele>708</ele>
      </trkpt>
      <trkpt lat="44.04558" lon="5.90911">
        <ele>706</ele>
      </trkpt>
      <trkpt lat="44.04561" lon="5.90908">
        <ele>705</ele>
      </trkpt>
      <trkpt lat="44.04563" lon="5.90904">
        <ele>706</ele>
      </trkpt>
      <trkpt lat="44.04568" lon="5.90904">
        <ele>706</ele>
      </trkpt>
      <trkpt lat="44.04568" lon="5.9091">
        <ele>706</ele>
      </trkpt>
      <trkpt lat="44.04565" lon="5.90917">
        <ele>706</ele>
      </trkpt>
      <trkpt lat="44.04564" lon="5.9092">
        <ele>706</ele>
      </trkpt>
      <trkpt lat="44.04565" lon="5.90928">
        <ele>706</ele>
      </trkpt>
      <trkpt lat="44.04564" lon="5.90933">
        <ele>706</ele>
      </trkpt>
      <trkpt lat="44.04561" lon="5.9094">
        <ele>706</ele>
      </trkpt>
      <trkpt lat="44.0456" lon="5.90953">
        <ele>705</ele>
      </trkpt>
      <trkpt lat="44.0456" lon="5.90958">
        <ele>705</ele>
      </trkpt>
      <trkpt lat="44.04561" lon="5.90963">
        <ele>705</ele>
      </trkpt>
      <trkpt lat="44.04563" lon="5.90968">
        <ele>704</ele>
      </trkpt>
      <trkpt lat="44.04564" lon="5.90974">
        <ele>704</ele>
      </trkpt>
      <trkpt lat="44.04564" lon="5.9098">
        <ele>704</ele>
      </trkpt>
      <trkpt lat="44.04563" lon="5.90985">
        <ele>704</ele>
      </trkpt>
      <trkpt lat="44.04563" lon="5.90996">
        <ele>703</ele>
      </trkpt>
      <trkpt lat="44.04562" lon="5.91002">
        <ele>703</ele>
      </trkpt>
      <trkpt lat="44.0456" lon="5.91018">
        <ele>704</ele>
      </trkpt>
      <trkpt lat="44.04559" lon="5.91021">
        <ele>703</ele>
      </trkpt>
      <trkpt lat="44.04556" lon="5.91028">
        <ele>703</ele>
      </trkpt>
      <trkpt lat="44.04554" lon="5.91033">
        <ele>703</ele>
      </trkpt>
      <trkpt lat="44.04554" lon="5.91039">
        <ele>703</ele>
      </trkpt>
      <trkpt lat="44.04553" lon="5.91055">
        <ele>702</ele>
      </trkpt>
      <trkpt lat="44.0455" lon="5.91075">
        <ele>700</ele>
      </trkpt>
      <trkpt lat="44.04549" lon="5.91094">
        <ele>699</ele>
      </trkpt>
      <trkpt lat="44.04549" lon="5.91097">
        <ele>699</ele>
      </trkpt>
      <trkpt lat="44.04548" lon="5.91102">
        <ele>699</ele>
      </trkpt>
      <trkpt lat="44.0455" lon="5.91106">
        <ele>698</ele>
      </trkpt>
      <trkpt lat="44.04554" lon="5.91105">
        <ele>698</ele>
      </trkpt>
      <trkpt lat="44.04556" lon="5.911">
        <ele>698</ele>
      </trkpt>
      <trkpt lat="44.04557" lon="5.91094">
        <ele>698</ele>
      </trkpt>
      <trkpt lat="44.04558" lon="5.91088">
        <ele>698</ele>
      </trkpt>
      <trkpt lat="44.04561" lon="5.91082">
        <ele>697</ele>
      </trkpt>
      <trkpt lat="44.04566" lon="5.91076">
        <ele>697</ele>
      </trkpt>
      <trkpt lat="44.04569" lon="5.91068">
        <ele>697</ele>
      </trkpt>
      <trkpt lat="44.04573" lon="5.91053">
        <ele>696</ele>
      </trkpt>
      <trkpt lat="44.04581" lon="5.91039">
        <ele>695</ele>
      </trkpt>
      <trkpt lat="44.04584" lon="5.91026">
        <ele>694</ele>
      </trkpt>
      <trkpt lat="44.04585" lon="5.91023">
        <ele>694</ele>
      </trkpt>
      <trkpt lat="44.04587" lon="5.91019">
        <ele>694</ele>
      </trkpt>
      <trkpt lat="44.04593" lon="5.91015">
        <ele>694</ele>
      </trkpt>
      <trkpt lat="44.04595" lon="5.91012">
        <ele>694</ele>
      </trkpt>
      <trkpt lat="44.04598" lon="5.91007">
        <ele>694</ele>
      </trkpt>
      <trkpt lat="44.04602" lon="5.90995">
        <ele>693</ele>
      </trkpt>
      <trkpt lat="44.04605" lon="5.90992">
        <ele>693</ele>
      </trkpt>
      <trkpt lat="44.04608" lon="5.90996">
        <ele>692</ele>
      </trkpt>
      <trkpt lat="44.04608" lon="5.90999">
        <ele>692</ele>
      </trkpt>
      <trkpt lat="44.04605" lon="5.91009">
        <ele>691</ele>
      </trkpt>
      <trkpt lat="44.04604" lon="5.91015">
        <ele>691</ele>
      </trkpt>
      <trkpt lat="44.04599" lon="5.91029">
        <ele>691</ele>
      </trkpt>
      <trkpt lat="44.04594" lon="5.91058">
        <ele>692</ele>
      </trkpt>
      <trkpt lat="44.04593" lon="5.91065">
        <ele>692</ele>
      </trkpt>
      <trkpt lat="44.04591" lon="5.91071">
        <ele>692</ele>
      </trkpt>
      <trkpt lat="44.04591" lon="5.91079">
        <ele>691</ele>
      </trkpt>
      <trkpt lat="44.04588" lon="5.91089">
        <ele>690</ele>
      </trkpt>
      <trkpt lat="44.04586" lon="5.91102">
        <ele>691</ele>
      </trkpt>
      <trkpt lat="44.04584" lon="5.91109">
        <ele>691</ele>
      </trkpt>
      <trkpt lat="44.04581" lon="5.91115">
        <ele>690</ele>
      </trkpt>
      <trkpt lat="44.04579" lon="5.9112">
        <ele>690</ele>
      </trkpt>
      <trkpt lat="44.0458" lon="5.91129">
        <ele>690</ele>
      </trkpt>
      <trkpt lat="44.0458" lon="5.91132">
        <ele>690</ele>
      </trkpt>
      <trkpt lat="44.04577" lon="5.91147">
        <ele>689</ele>
      </trkpt>
      <trkpt lat="44.04577" lon="5.91152">
        <ele>688</ele>
      </trkpt>
      <trkpt lat="44.0458" lon="5.91155">
        <ele>688</ele>
      </trkpt>
      <trkpt lat="44.04582" lon="5.91153">
        <ele>688</ele>
      </trkpt>
      <trkpt lat="44.04584" lon="5.91151">
        <ele>688</ele>
      </trkpt>
      <trkpt lat="44.04586" lon="5.91147">
        <ele>688</ele>
      </trkpt>
      <trkpt lat="44.04589" lon="5.91135">
        <ele>688</ele>
      </trkpt>
      <trkpt lat="44.0459" lon="5.91131">
        <ele>688</ele>
      </trkpt>
      <trkpt lat="44.04594" lon="5.91115">
        <ele>688</ele>
      </trkpt>
      <trkpt lat="44.04604" lon="5.91096">
        <ele>686</ele>
      </trkpt>
      <trkpt lat="44.0461" lon="5.91086">
        <ele>686</ele>
      </trkpt>
      <trkpt lat="44.04616" lon="5.91071">
        <ele>686</ele>
      </trkpt>
      <trkpt lat="44.04618" lon="5.91067">
        <ele>685</ele>
      </trkpt>
      <trkpt lat="44.04625" lon="5.91061">
        <ele>683</ele>
      </trkpt>
      <trkpt lat="44.04635" lon="5.91046">
        <ele>680</ele>
      </trkpt>
      <trkpt lat="44.04638" lon="5.91044">
        <ele>680</ele>
      </trkpt>
      <trkpt lat="44.04643" lon="5.91046">
        <ele>681</ele>
      </trkpt>
      <trkpt lat="44.04645" lon="5.91054">
        <ele>680</ele>
      </trkpt>
      <trkpt lat="44.04646" lon="5.91059">
        <ele>679</ele>
      </trkpt>
      <trkpt lat="44.04648" lon="5.91069">
        <ele>677</ele>
      </trkpt>
      <trkpt lat="44.04651" lon="5.91078">
        <ele>676</ele>
      </trkpt>
      <trkpt lat="44.04653" lon="5.9109">
        <ele>675</ele>
      </trkpt>
      <trkpt lat="44.04653" lon="5.91096">
        <ele>675</ele>
      </trkpt>
      <trkpt lat="44.04651" lon="5.91103">
        <ele>675</ele>
      </trkpt>
      <trkpt lat="44.0465" lon="5.91107">
        <ele>675</ele>
      </trkpt>
      <trkpt lat="44.04647" lon="5.91113">
        <ele>675</ele>
      </trkpt>
      <trkpt lat="44.04646" lon="5.91116">
        <ele>675</ele>
      </trkpt>
      <trkpt lat="44.04645" lon="5.91121">
        <ele>675</ele>
      </trkpt>
      <trkpt lat="44.04644" lon="5.9113">
        <ele>676</ele>
      </trkpt>
      <trkpt lat="44.04644" lon="5.91139">
        <ele>676</ele>
      </trkpt>
      <trkpt lat="44.04645" lon="5.91144">
        <ele>675</ele>
      </trkpt>
      <trkpt lat="44.04649" lon="5.91156">
        <ele>675</ele>
      </trkpt>
      <trkpt lat="44.04652" lon="5.91171">
        <ele>674</ele>
      </trkpt>
      <trkpt lat="44.04654" lon="5.91176">
        <ele>674</ele>
      </trkpt>
      <trkpt lat="44.04653" lon="5.91187">
        <ele>673</ele>
      </trkpt>
      <trkpt lat="44.04653" lon="5.91197">
        <ele>672</ele>
      </trkpt>
      <trkpt lat="44.04654" lon="5.91201">
        <ele>671</ele>
      </trkpt>
      <trkpt lat="44.04657" lon="5.91203">
        <ele>671</ele>
      </trkpt>
      <trkpt lat="44.04666" lon="5.91192">
        <ele>671</ele>
      </trkpt>
      <trkpt lat="44.04673" lon="5.91189">
        <ele>673</ele>
      </trkpt>
      <trkpt lat="44.04677" lon="5.91192">
        <ele>677</ele>
      </trkpt>
      <trkpt lat="44.04676" lon="5.91212">
        <ele>690</ele>
      </trkpt>
      <trkpt lat="44.04677" lon="5.91218">
        <ele>689</ele>
      </trkpt>
      <trkpt lat="44.04681" lon="5.91216">
        <ele>689</ele>
      </trkpt>
      <trkpt lat="44.04687" lon="5.91208">
        <ele>689</ele>
      </trkpt>
      <trkpt lat="44.04692" lon="5.91201">
        <ele>688</ele>
      </trkpt>
      <trkpt lat="44.04699" lon="5.91193">
        <ele>688</ele>
      </trkpt>
      <trkpt lat="44.04701" lon="5.91187">
        <ele>688</ele>
      </trkpt>
      <trkpt lat="44.04702" lon="5.91184">
        <ele>688</ele>
      </trkpt>
      <trkpt lat="44.04706" lon="5.91183">
        <ele>687</ele>
      </trkpt>
      <trkpt lat="44.04708" lon="5.91189">
        <ele>687</ele>
      </trkpt>
      <trkpt lat="44.04706" lon="5.91198">
        <ele>687</ele>
      </trkpt>
      <trkpt lat="44.04705" lon="5.91204">
        <ele>687</ele>
      </trkpt>
      <trkpt lat="44.04704" lon="5.91207">
        <ele>687</ele>
      </trkpt>
      <trkpt lat="44.04699" lon="5.91212">
        <ele>686</ele>
      </trkpt>
      <trkpt lat="44.04698" lon="5.91228">
        <ele>685</ele>
      </trkpt>
      <trkpt lat="44.047" lon="5.91232">
        <ele>684</ele>
      </trkpt>
      <trkpt lat="44.04704" lon="5.91231">
        <ele>683</ele>
      </trkpt>
      <trkpt lat="44.04711" lon="5.91227">
        <ele>683</ele>
      </trkpt>
      <trkpt lat="44.04713" lon="5.91224">
        <ele>683</ele>
      </trkpt>
      <trkpt lat="44.04714" lon="5.91218">
        <ele>683</ele>
      </trkpt>
      <trkpt lat="44.04717" lon="5.91211">
        <ele>683</ele>
      </trkpt>
      <trkpt lat="44.04719" lon="5.91209">
        <ele>683</ele>
      </trkpt>
      <trkpt lat="44.04724" lon="5.91199">
        <ele>683</ele>
      </trkpt>
      <trkpt lat="44.04727" lon="5.91197">
        <ele>682</ele>
      </trkpt>
      <trkpt lat="44.04729" lon="5.91195">
        <ele>682</ele>
      </trkpt>
      <trkpt lat="44.04731" lon="5.91191">
        <ele>682</ele>
      </trkpt>
      <trkpt lat="44.04734" lon="5.91189">
        <ele>681</ele>
      </trkpt>
      <trkpt lat="44.04737" lon="5.91187">
        <ele>681</ele>
      </trkpt>
      <trkpt lat="44.04739" lon="5.91181">
        <ele>681</ele>
      </trkpt>
      <trkpt lat="44.04743" lon="5.9118">
        <ele>680</ele>
      </trkpt>
      <trkpt lat="44.04746" lon="5.91183">
        <ele>680</ele>
      </trkpt>
      <trkpt lat="44.04749" lon="5.91186">
        <ele>680</ele>
      </trkpt>
      <trkpt lat="44.04749" lon="5.91192">
        <ele>679</ele>
      </trkpt>
      <trkpt lat="44.0475" lon="5.91197">
        <ele>679</ele>
      </trkpt>
      <trkpt lat="44.04753" lon="5.91205">
        <ele>678</ele>
      </trkpt>
      <trkpt lat="44.04754" lon="5.91215">
        <ele>677</ele>
      </trkpt>
      <trkpt lat="44.04756" lon="5.91225">
        <ele>675</ele>
      </trkpt>
      <trkpt lat="44.04759" lon="5.91229">
        <ele>675</ele>
      </trkpt>
      <trkpt lat="44.04765" lon="5.91224">
        <ele>674</ele>
      </trkpt>
      <trkpt lat="44.04769" lon="5.91223">
        <ele>674</ele>
      </trkpt>
      <trkpt lat="44.04772" lon="5.91228">
        <ele>674</ele>
      </trkpt>
      <trkpt lat="44.04773" lon="5.91233">
        <ele>673</ele>
      </trkpt>
      <trkpt lat="44.04775" lon="5.91238">
        <ele>671</ele>
      </trkpt>
      <trkpt lat="44.04779" lon="5.91241">
        <ele>672</ele>
      </trkpt>
      <trkpt lat="44.04782" lon="5.91241">
        <ele>671</ele>
      </trkpt>
      <trkpt lat="44.04793" lon="5.9124">
        <ele>669</ele>
      </trkpt>
      <trkpt lat="44.04801" lon="5.91242">
        <ele>668</ele>
      </trkpt>
      <trkpt lat="44.04808" lon="5.91245">
        <ele>667</ele>
      </trkpt>
      <trkpt lat="44.04818" lon="5.91252">
        <ele>665</ele>
      </trkpt>
      <trkpt lat="44.04821" lon="5.91254">
        <ele>664</ele>
      </trkpt>
      <trkpt lat="44.04829" lon="5.91266">
        <ele>663</ele>
      </trkpt>
      <trkpt lat="44.04832" lon="5.91269">
        <ele>663</ele>
      </trkpt>
      <trkpt lat="44.04839" lon="5.91274">
        <ele>662</ele>
      </trkpt>
      <trkpt lat="44.04843" lon="5.91275">
        <ele>662</ele>
      </trkpt>
      <trkpt lat="44.04851" lon="5.91271">
        <ele>659</ele>
      </trkpt>
      <trkpt lat="44.04853" lon="5.91271">
        <ele>659</ele>
      </trkpt>
      <trkpt lat="44.04857" lon="5.91272">
        <ele>659</ele>
      </trkpt>
      <trkpt lat="44.0486" lon="5.91276">
        <ele>659</ele>
      </trkpt>
      <trkpt lat="44.04862" lon="5.91278">
        <ele>659</ele>
      </trkpt>
      <trkpt lat="44.04863" lon="5.91284">
        <ele>659</ele>
      </trkpt>
      <trkpt lat="44.04863" lon="5.91287">
        <ele>659</ele>
      </trkpt>
      <trkpt lat="44.04861" lon="5.9129">
        <ele>659</ele>
      </trkpt>
      <trkpt lat="44.04859" lon="5.91293">
        <ele>659</ele>
      </trkpt>
      <trkpt lat="44.04856" lon="5.91294">
        <ele>659</ele>
      </trkpt>
      <trkpt lat="44.04852" lon="5.91297">
        <ele>658</ele>
      </trkpt>
      <trkpt lat="44.0485" lon="5.91301">
        <ele>657</ele>
      </trkpt>
      <trkpt lat="44.04844" lon="5.91306">
        <ele>657</ele>
      </trkpt>
      <trkpt lat="44.04841" lon="5.9131">
        <ele>657</ele>
      </trkpt>
      <trkpt lat="44.04839" lon="5.91316">
        <ele>656</ele>
      </trkpt>
      <trkpt lat="44.04843" lon="5.91325">
        <ele>654</ele>
      </trkpt>
      <trkpt lat="44.04845" lon="5.9133">
        <ele>654</ele>
      </trkpt>
      <trkpt lat="44.04844" lon="5.91334">
        <ele>654</ele>
      </trkpt>
      <trkpt lat="44.04848" lon="5.91338">
        <ele>654</ele>
      </trkpt>
      <trkpt lat="44.04859" lon="5.91343">
        <ele>655</ele>
      </trkpt>
      <trkpt lat="44.0486" lon="5.91345">
        <ele>655</ele>
      </trkpt>
      <trkpt lat="44.04866" lon="5.91355">
        <ele>655</ele>
      </trkpt>
      <trkpt lat="44.04868" lon="5.91363">
        <ele>655</ele>
      </trkpt>
      <trkpt lat="44.04874" lon="5.91373">
        <ele>654</ele>
      </trkpt>
      <trkpt lat="44.04876" lon="5.91376">
        <ele>653</ele>
      </trkpt>
      <trkpt lat="44.04884" lon="5.9138">
        <ele>653</ele>
      </trkpt>
      <trkpt lat="44.04885" lon="5.91382">
        <ele>652</ele>
      </trkpt>
      <trkpt lat="44.04888" lon="5.91398">
        <ele>652</ele>
      </trkpt>
      <trkpt lat="44.0489" lon="5.91402">
        <ele>652</ele>
      </trkpt>
      <trkpt lat="44.04893" lon="5.91405">
        <ele>652</ele>
      </trkpt>
      <trkpt lat="44.04899" lon="5.91409">
        <ele>651</ele>
      </trkpt>
      <trkpt lat="44.04901" lon="5.91413">
        <ele>651</ele>
      </trkpt>
      <trkpt lat="44.04902" lon="5.91417">
        <ele>651</ele>
      </trkpt>
      <trkpt lat="44.04903" lon="5.91424">
        <ele>651</ele>
      </trkpt>
      <trkpt lat="44.04905" lon="5.9143">
        <ele>651</ele>
      </trkpt>
      <trkpt lat="44.04906" lon="5.91433">
        <ele>651</ele>
      </trkpt>
      <trkpt lat="44.04909" lon="5.91443">
        <ele>651</ele>
      </trkpt>
      <trkpt lat="44.04909" lon="5.91448">
        <ele>651</ele>
      </trkpt>
      <trkpt lat="44.0491" lon="5.91453">
        <ele>651</ele>
      </trkpt>
      <trkpt lat="44.0491" lon="5.91458">
        <ele>651</ele>
      </trkpt>
      <trkpt lat="44.04915" lon="5.91468">
        <ele>651</ele>
      </trkpt>
      <trkpt lat="44.04917" lon="5.91472">
        <ele>652</ele>
      </trkpt>
      <trkpt lat="44.04918" lon="5.91479">
        <ele>651</ele>
      </trkpt>
      <trkpt lat="44.04919" lon="5.91484">
        <ele>651</ele>
      </trkpt>
      <trkpt lat="44.04919" lon="5.9149">
        <ele>651</ele>
      </trkpt>
      <trkpt lat="44.04915" lon="5.91501">
        <ele>650</ele>
      </trkpt>
      <trkpt lat="44.0491" lon="5.9151">
        <ele>649</ele>
      </trkpt>
      <trkpt lat="44.049" lon="5.91536">
        <ele>645</ele>
      </trkpt>
      <trkpt lat="44.04895" lon="5.91551">
        <ele>644</ele>
      </trkpt>
      <trkpt lat="44.04895" lon="5.91557">
        <ele>642</ele>
      </trkpt>
      <trkpt lat="44.04897" lon="5.91563">
        <ele>643</ele>
      </trkpt>
      <trkpt lat="44.04902" lon="5.91571">
        <ele>644</ele>
      </trkpt>
      <trkpt lat="44.04906" lon="5.91575">
        <ele>644</ele>
      </trkpt>
      <trkpt lat="44.04905" lon="5.91581">
        <ele>647</ele>
      </trkpt>
      <trkpt lat="44.04902" lon="5.91583">
        <ele>648</ele>
      </trkpt>
      <trkpt lat="44.04897" lon="5.91587">
        <ele>649</ele>
      </trkpt>
      <trkpt lat="44.04898" lon="5.91592">
        <ele>650</ele>
      </trkpt>
      <trkpt lat="44.049" lon="5.91596">
        <ele>650</ele>
      </trkpt>
      <trkpt lat="44.04899" lon="5.916">
        <ele>650</ele>
      </trkpt>
      <trkpt lat="44.04896" lon="5.91603">
        <ele>650</ele>
      </trkpt>
      <trkpt lat="44.04886" lon="5.91607">
        <ele>652</ele>
      </trkpt>
      <trkpt lat="44.04884" lon="5.91609">
        <ele>653</ele>
      </trkpt>
      <trkpt lat="44.04884" lon="5.91613">
        <ele>653</ele>
      </trkpt>
      <trkpt lat="44.04886" lon="5.91623">
        <ele>654</ele>
      </trkpt>
      <trkpt lat="44.04883" lon="5.91626">
        <ele>655</ele>
      </trkpt>
      <trkpt lat="44.0488" lon="5.9163">
        <ele>656</ele>
      </trkpt>
      <trkpt lat="44.0488" lon="5.91634">
        <ele>656</ele>
      </trkpt>
      <trkpt lat="44.04881" lon="5.91639">
        <ele>656</ele>
      </trkpt>
      <trkpt lat="44.04887" lon="5.91643">
        <ele>657</ele>
      </trkpt>
      <trkpt lat="44.04892" lon="5.91651">
        <ele>657</ele>
      </trkpt>
      <trkpt lat="44.04894" lon="5.91654">
        <ele>657</ele>
      </trkpt>
      <trkpt lat="44.04901" lon="5.9167">
        <ele>655</ele>
      </trkpt>
      <trkpt lat="44.04902" lon="5.91673">
        <ele>655</ele>
      </trkpt>
      <trkpt lat="44.04902" lon="5.91677">
        <ele>655</ele>
      </trkpt>
      <trkpt lat="44.04901" lon="5.91681">
        <ele>655</ele>
      </trkpt>
      <trkpt lat="44.04898" lon="5.91689">
        <ele>655</ele>
      </trkpt>
      <trkpt lat="44.04893" lon="5.91709">
        <ele>656</ele>
      </trkpt>
      <trkpt lat="44.04891" lon="5.91713">
        <ele>656</ele>
      </trkpt>
      <trkpt lat="44.04891" lon="5.91719">
        <ele>656</ele>
      </trkpt>
      <trkpt lat="44.04889" lon="5.91733">
        <ele>658</ele>
      </trkpt>
      <trkpt lat="44.0489" lon="5.91744">
        <ele>658</ele>
      </trkpt>
      <trkpt lat="44.0489" lon="5.91754">
        <ele>658</ele>
      </trkpt>
      <trkpt lat="44.0489" lon="5.91758">
        <ele>657</ele>
      </trkpt>
      <trkpt lat="44.04891" lon="5.91762">
        <ele>657</ele>
      </trkpt>
      <trkpt lat="44.04891" lon="5.91765">
        <ele>657</ele>
      </trkpt>
      <trkpt lat="44.04889" lon="5.91769">
        <ele>657</ele>
      </trkpt>
      <trkpt lat="44.04884" lon="5.91775">
        <ele>657</ele>
      </trkpt>
      <trkpt lat="44.04882" lon="5.91778">
        <ele>658</ele>
      </trkpt>
      <trkpt lat="44.04879" lon="5.91785">
        <ele>658</ele>
      </trkpt>
      <trkpt lat="44.04875" lon="5.91792">
        <ele>658</ele>
      </trkpt>
      <trkpt lat="44.0487" lon="5.91797">
        <ele>658</ele>
      </trkpt>
      <trkpt lat="44.04866" lon="5.91804">
        <ele>659</ele>
      </trkpt>
      <trkpt lat="44.04858" lon="5.91812">
        <ele>658</ele>
      </trkpt>
      <trkpt lat="44.04851" lon="5.91819">
        <ele>658</ele>
      </trkpt>
      <trkpt lat="44.04846" lon="5.91823">
        <ele>657</ele>
      </trkpt>
      <trkpt lat="44.04826" lon="5.91833">
        <ele>656</ele>
      </trkpt>
      <trkpt lat="44.04821" lon="5.91839">
        <ele>655</ele>
      </trkpt>
      <trkpt lat="44.04818" lon="5.91839">
        <ele>655</ele>
      </trkpt>
      <trkpt lat="44.04814" lon="5.91838">
        <ele>655</ele>
      </trkpt>
      <trkpt lat="44.04811" lon="5.91839">
        <ele>655</ele>
      </trkpt>
      <trkpt lat="44.04809" lon="5.9184">
        <ele>655</ele>
      </trkpt>
      <trkpt lat="44.04805" lon="5.91844">
        <ele>654</ele>
      </trkpt>
      <trkpt lat="44.04803" lon="5.91845">
        <ele>654</ele>
      </trkpt>
      <trkpt lat="44.04799" lon="5.91845">
        <ele>653</ele>
      </trkpt>
      <trkpt lat="44.04795" lon="5.91845">
        <ele>653</ele>
      </trkpt>
      <trkpt lat="44.04782" lon="5.91852">
        <ele>653</ele>
      </trkpt>
      <trkpt lat="44.0477" lon="5.91853">
        <ele>653</ele>
      </trkpt>
      <trkpt lat="44.04768" lon="5.91855">
        <ele>653</ele>
      </trkpt>
      <trkpt lat="44.04764" lon="5.9186">
        <ele>653</ele>
      </trkpt>
      <trkpt lat="44.04761" lon="5.91863">
        <ele>652</ele>
      </trkpt>
      <trkpt lat="44.04755" lon="5.91862">
        <ele>650</ele>
      </trkpt>
      <trkpt lat="44.0475" lon="5.91865">
        <ele>651</ele>
      </trkpt>
      <trkpt lat="44.04746" lon="5.91865">
        <ele>653</ele>
      </trkpt>
      <trkpt lat="44.04745" lon="5.9187">
        <ele>654</ele>
      </trkpt>
      <trkpt lat="44.04746" lon="5.91874">
        <ele>655</ele>
      </trkpt>
      <trkpt lat="44.0475" lon="5.91889">
        <ele>657</ele>
      </trkpt>
      <trkpt lat="44.04751" lon="5.91893">
        <ele>657</ele>
      </trkpt>
      <trkpt lat="44.0475" lon="5.91898">
        <ele>656</ele>
      </trkpt>
      <trkpt lat="44.04751" lon="5.91907">
        <ele>656</ele>
      </trkpt>
      <trkpt lat="44.04752" lon="5.91917">
        <ele>653</ele>
      </trkpt>
      <trkpt lat="44.04752" lon="5.91922">
        <ele>653</ele>
      </trkpt>
      <trkpt lat="44.04751" lon="5.91927">
        <ele>652</ele>
      </trkpt>
      <trkpt lat="44.04752" lon="5.91932">
        <ele>652</ele>
      </trkpt>
      <trkpt lat="44.04754" lon="5.91937">
        <ele>651</ele>
      </trkpt>
      <trkpt lat="44.04758" lon="5.9194">
        <ele>650</ele>
      </trkpt>
      <trkpt lat="44.0476" lon="5.91944">
        <ele>650</ele>
      </trkpt>
      <trkpt lat="44.04761" lon="5.91949">
        <ele>650</ele>
      </trkpt>
      <trkpt lat="44.04763" lon="5.91954">
        <ele>650</ele>
      </trkpt>
      <trkpt lat="44.04766" lon="5.91949">
        <ele>651</ele>
      </trkpt>
      <trkpt lat="44.04767" lon="5.91946">
        <ele>651</ele>
      </trkpt>
      <trkpt lat="44.04766" lon="5.91939">
        <ele>651</ele>
      </trkpt>
      <trkpt lat="44.04763" lon="5.91929">
        <ele>652</ele>
      </trkpt>
      <trkpt lat="44.04766" lon="5.91916">
        <ele>651</ele>
      </trkpt>
      <trkpt lat="44.0477" lon="5.91913">
        <ele>651</ele>
      </trkpt>
      <trkpt lat="44.04773" lon="5.91914">
        <ele>650</ele>
      </trkpt>
      <trkpt lat="44.04776" lon="5.9192">
        <ele>649</ele>
      </trkpt>
      <trkpt lat="44.04775" lon="5.91928">
        <ele>648</ele>
      </trkpt>
      <trkpt lat="44.04774" lon="5.91934">
        <ele>648</ele>
      </trkpt>
      <trkpt lat="44.04775" lon="5.91937">
        <ele>648</ele>
      </trkpt>
      <trkpt lat="44.04777" lon="5.91944">
        <ele>647</ele>
      </trkpt>
      <trkpt lat="44.04779" lon="5.91952">
        <ele>646</ele>
      </trkpt>
      <trkpt lat="44.04783" lon="5.9196">
        <ele>646</ele>
      </trkpt>
      <trkpt lat="44.04784" lon="5.91965">
        <ele>645</ele>
      </trkpt>
      <trkpt lat="44.04784" lon="5.91969">
        <ele>645</ele>
      </trkpt>
      <trkpt lat="44.04787" lon="5.91982">
        <ele>644</ele>
      </trkpt>
      <trkpt lat="44.04792" lon="5.91993">
        <ele>645</ele>
      </trkpt>
      <trkpt lat="44.04793" lon="5.91997">
        <ele>645</ele>
      </trkpt>
      <trkpt lat="44.04793" lon="5.92001">
        <ele>645</ele>
      </trkpt>
      <trkpt lat="44.04792" lon="5.92005">
        <ele>644</ele>
      </trkpt>
      <trkpt lat="44.04789" lon="5.92007">
        <ele>644</ele>
      </trkpt>
      <trkpt lat="44.04787" lon="5.92008">
        <ele>644</ele>
      </trkpt>
      <trkpt lat="44.04785" lon="5.9201">
        <ele>644</ele>
      </trkpt>
      <trkpt lat="44.04784" lon="5.92013">
        <ele>644</ele>
      </trkpt>
      <trkpt lat="44.04784" lon="5.92016">
        <ele>643</ele>
      </trkpt>
      <trkpt lat="44.04787" lon="5.92021">
        <ele>642</ele>
      </trkpt>
      <trkpt lat="44.04786" lon="5.92026">
        <ele>642</ele>
      </trkpt>
      <trkpt lat="44.04784" lon="5.92032">
        <ele>642</ele>
      </trkpt>
      <trkpt lat="44.04781" lon="5.92038">
        <ele>642</ele>
      </trkpt>
      <trkpt lat="44.04778" lon="5.92047">
        <ele>642</ele>
      </trkpt>
      <trkpt lat="44.04778" lon="5.92059">
        <ele>642</ele>
      </trkpt>
      <trkpt lat="44.04777" lon="5.92071">
        <ele>641</ele>
      </trkpt>
      <trkpt lat="44.04777" lon="5.92088">
        <ele>640</ele>
      </trkpt>
      <trkpt lat="44.04776" lon="5.92098">
        <ele>640</ele>
      </trkpt>
      <trkpt lat="44.04777" lon="5.92107">
        <ele>638</ele>
      </trkpt>
      <trkpt lat="44.04778" lon="5.92112">
        <ele>638</ele>
      </trkpt>
      <trkpt lat="44.04783" lon="5.92122">
        <ele>639</ele>
      </trkpt>
      <trkpt lat="44.04785" lon="5.92129">
        <ele>639</ele>
      </trkpt>
      <trkpt lat="44.04786" lon="5.92133">
        <ele>639</ele>
      </trkpt>
      <trkpt lat="44.04785" lon="5.92138">
        <ele>639</ele>
      </trkpt>
      <trkpt lat="44.04781" lon="5.92148">
        <ele>639</ele>
      </trkpt>
      <trkpt lat="44.04778" lon="5.9216">
        <ele>639</ele>
      </trkpt>
      <trkpt lat="44.04778" lon="5.92167">
        <ele>639</ele>
      </trkpt>
      <trkpt lat="44.0478" lon="5.92172">
        <ele>639</ele>
      </trkpt>
      <trkpt lat="44.04779" lon="5.92182">
        <ele>639</ele>
      </trkpt>
      <trkpt lat="44.04778" lon="5.92188">
        <ele>640</ele>
      </trkpt>
      <trkpt lat="44.04777" lon="5.92194">
        <ele>641</ele>
      </trkpt>
      <trkpt lat="44.04774" lon="5.92199">
        <ele>641</ele>
      </trkpt>
      <trkpt lat="44.04771" lon="5.92203">
        <ele>641</ele>
      </trkpt>
      <trkpt lat="44.04765" lon="5.92206">
        <ele>641</ele>
      </trkpt>
      <trkpt lat="44.04762" lon="5.9221">
        <ele>642</ele>
      </trkpt>
      <trkpt lat="44.04759" lon="5.92212">
        <ele>643</ele>
      </trkpt>
      <trkpt lat="44.04756" lon="5.92216">
        <ele>644</ele>
      </trkpt>
      <trkpt lat="44.04752" lon="5.92222">
        <ele>644</ele>
      </trkpt>
      <trkpt lat="44.04749" lon="5.92225">
        <ele>645</ele>
      </trkpt>
      <trkpt lat="44.04746" lon="5.92228">
        <ele>645</ele>
      </trkpt>
      <trkpt lat="44.04742" lon="5.92235">
        <ele>645</ele>
      </trkpt>
      <trkpt lat="44.04741" lon="5.92238">
        <ele>645</ele>
      </trkpt>
      <trkpt lat="44.04742" lon="5.92243">
        <ele>645</ele>
      </trkpt>
      <trkpt lat="44.04742" lon="5.92248">
        <ele>645</ele>
      </trkpt>
      <trkpt lat="44.04739" lon="5.92259">
        <ele>644</ele>
      </trkpt>
      <trkpt lat="44.04738" lon="5.92266">
        <ele>644</ele>
      </trkpt>
      <trkpt lat="44.04735" lon="5.92276">
        <ele>645</ele>
      </trkpt>
      <trkpt lat="44.04734" lon="5.92278">
        <ele>645</ele>
      </trkpt>
      <trkpt lat="44.0473" lon="5.9228">
        <ele>645</ele>
      </trkpt>
      <trkpt lat="44.04725" lon="5.92281">
        <ele>644</ele>
      </trkpt>
      <trkpt lat="44.04722" lon="5.92285">
        <ele>644</ele>
      </trkpt>
      <trkpt lat="44.04718" lon="5.92295">
        <ele>645</ele>
      </trkpt>
      <trkpt lat="44.04716" lon="5.92298">
        <ele>645</ele>
      </trkpt>
      <trkpt lat="44.04716" lon="5.92304">
        <ele>646</ele>
      </trkpt>
      <trkpt lat="44.04713" lon="5.92308">
        <ele>646</ele>
      </trkpt>
      <trkpt lat="44.0471" lon="5.92313">
        <ele>647</ele>
      </trkpt>
      <trkpt lat="44.04711" lon="5.92317">
        <ele>647</ele>
      </trkpt>
      <trkpt lat="44.04713" lon="5.9232">
        <ele>647</ele>
      </trkpt>
      <trkpt lat="44.04721" lon="5.92328">
        <ele>647</ele>
      </trkpt>
      <trkpt lat="44.04725" lon="5.92333">
        <ele>647</ele>
      </trkpt>
      <trkpt lat="44.04729" lon="5.92336">
        <ele>646</ele>
      </trkpt>
      <trkpt lat="44.04737" lon="5.92348">
        <ele>646</ele>
      </trkpt>
      <trkpt lat="44.04739" lon="5.92353">
        <ele>646</ele>
      </trkpt>
      <trkpt lat="44.04741" lon="5.9237">
        <ele>644</ele>
      </trkpt>
      <trkpt lat="44.04741" lon="5.92374">
        <ele>644</ele>
      </trkpt>
      <trkpt lat="44.04743" lon="5.92379">
        <ele>644</ele>
      </trkpt>
      <trkpt lat="44.04745" lon="5.92389">
        <ele>644</ele>
      </trkpt>
      <trkpt lat="44.04745" lon="5.92398">
        <ele>643</ele>
      </trkpt>
      <trkpt lat="44.04744" lon="5.92409">
        <ele>640</ele>
      </trkpt>
      <trkpt lat="44.04744" lon="5.92414">
        <ele>638</ele>
      </trkpt>
      <trkpt lat="44.04746" lon="5.92418">
        <ele>637</ele>
      </trkpt>
      <trkpt lat="44.0475" lon="5.9242">
        <ele>637</ele>
      </trkpt>
      <trkpt lat="44.04758" lon="5.92421">
        <ele>636</ele>
      </trkpt>
      <trkpt lat="44.04762" lon="5.92424">
        <ele>636</ele>
      </trkpt>
      <trkpt lat="44.04797" lon="5.92444">
        <ele>610</ele>
      </trkpt>
      <trkpt lat="44.0479" lon="5.92445">
        <ele>608</ele>
      </trkpt>
      <trkpt lat="44.04787" lon="5.92446">
        <ele>608</ele>
      </trkpt>
      <trkpt lat="44.04777" lon="5.92449">
        <ele>608</ele>
      </trkpt>
      <trkpt lat="44.04759" lon="5.92453">
        <ele>608</ele>
      </trkpt>
      <trkpt lat="44.0475" lon="5.92456">
        <ele>608</ele>
      </trkpt>
      <trkpt lat="44.04743" lon="5.92469">
        <ele>611</ele>
      </trkpt>
      <trkpt lat="44.04734" lon="5.92482">
        <ele>610</ele>
      </trkpt>
      <trkpt lat="44.0473" lon="5.92486">
        <ele>610</ele>
      </trkpt>
      <trkpt lat="44.04727" lon="5.92497">
        <ele>610</ele>
      </trkpt>
      <trkpt lat="44.04722" lon="5.9251">
        <ele>606</ele>
      </trkpt>
      <trkpt lat="44.04715" lon="5.92521">
        <ele>607</ele>
      </trkpt>
      <trkpt lat="44.0471" lon="5.92537">
        <ele>607</ele>
      </trkpt>
      <trkpt lat="44.04706" lon="5.92555">
        <ele>606</ele>
      </trkpt>
      <trkpt lat="44.04705" lon="5.92569">
        <ele>606</ele>
      </trkpt>
      <trkpt lat="44.04705" lon="5.9257">
        <ele>606</ele>
      </trkpt>
      <trkpt lat="44.04713" lon="5.92575">
        <ele>605</ele>
      </trkpt>
      <trkpt lat="44.04724" lon="5.92575">
        <ele>605</ele>
      </trkpt>
      <trkpt lat="44.04727" lon="5.92573">
        <ele>604</ele>
      </trkpt>
      <trkpt lat="44.0473" lon="5.92569">
        <ele>604</ele>
      </trkpt>
      <trkpt lat="44.04737" lon="5.92565">
        <ele>604</ele>
      </trkpt>
      <trkpt lat="44.04742" lon="5.92576">
        <ele>603</ele>
      </trkpt>
      <trkpt lat="44.04745" lon="5.9258">
        <ele>602</ele>
      </trkpt>
      <trkpt lat="44.04746" lon="5.92584">
        <ele>601</ele>
      </trkpt>
      <trkpt lat="44.04746" lon="5.92591">
        <ele>601</ele>
      </trkpt>
      <trkpt lat="44.04748" lon="5.92596">
        <ele>601</ele>
      </trkpt>
      <trkpt lat="44.04756" lon="5.92609">
        <ele>598</ele>
      </trkpt>
      <trkpt lat="44.04761" lon="5.92625">
        <ele>597</ele>
      </trkpt>
      <trkpt lat="44.04761" lon="5.92633">
        <ele>596</ele>
      </trkpt>
      <trkpt lat="44.04764" lon="5.92642">
        <ele>596</ele>
      </trkpt>
      <trkpt lat="44.04767" lon="5.92642">
        <ele>596</ele>
      </trkpt>
      <trkpt lat="44.04776" lon="5.92646">
        <ele>596</ele>
      </trkpt>
      <trkpt lat="44.04783" lon="5.92655">
        <ele>595</ele>
      </trkpt>
      <trkpt lat="44.04792" lon="5.92665">
        <ele>595</ele>
      </trkpt>
      <trkpt lat="44.04791" lon="5.92678">
        <ele>590</ele>
      </trkpt>
      <trkpt lat="44.04789" lon="5.92687">
        <ele>590</ele>
      </trkpt>
      <trkpt lat="44.04787" lon="5.92692">
        <ele>590</ele>
      </trkpt>
      <trkpt lat="44.0478" lon="5.9271">
        <ele>589</ele>
      </trkpt>
      <trkpt lat="44.04779" lon="5.92713">
        <ele>589</ele>
      </trkpt>
      <trkpt lat="44.0477" lon="5.92729">
        <ele>588</ele>
      </trkpt>
      <trkpt lat="44.04765" lon="5.92735">
        <ele>588</ele>
      </trkpt>
      <trkpt lat="44.04758" lon="5.92741">
        <ele>587</ele>
      </trkpt>
      <trkpt lat="44.04747" lon="5.92743">
        <ele>588</ele>
      </trkpt>
      <trkpt lat="44.04744" lon="5.92742">
        <ele>588</ele>
      </trkpt>
      <trkpt lat="44.04735" lon="5.92735">
        <ele>589</ele>
      </trkpt>
      <trkpt lat="44.04727" lon="5.92736">
        <ele>590</ele>
      </trkpt>
      <trkpt lat="44.04725" lon="5.92743">
        <ele>590</ele>
      </trkpt>
      <trkpt lat="44.04723" lon="5.92749">
        <ele>590</ele>
      </trkpt>
      <trkpt lat="44.04719" lon="5.92758">
        <ele>584</ele>
      </trkpt>
      <trkpt lat="44.04721" lon="5.9277">
        <ele>584</ele>
      </trkpt>
      <trkpt lat="44.04724" lon="5.92785">
        <ele>583</ele>
      </trkpt>
      <trkpt lat="44.04724" lon="5.92787">
        <ele>583</ele>
      </trkpt>
      <trkpt lat="44.04729" lon="5.92795">
        <ele>582</ele>
      </trkpt>
      <trkpt lat="44.04738" lon="5.92803">
        <ele>582</ele>
      </trkpt>
      <trkpt lat="44.04739" lon="5.9281">
        <ele>581</ele>
      </trkpt>
      <trkpt lat="44.04738" lon="5.92818">
        <ele>580</ele>
      </trkpt>
      <trkpt lat="44.04737" lon="5.92828">
        <ele>579</ele>
      </trkpt>
      <trkpt lat="44.04731" lon="5.92843">
        <ele>575</ele>
      </trkpt>
      <trkpt lat="44.04731" lon="5.9286">
        <ele>574</ele>
      </trkpt>
      <trkpt lat="44.0473" lon="5.92877">
        <ele>573</ele>
      </trkpt>
      <trkpt lat="44.04731" lon="5.92883">
        <ele>572</ele>
      </trkpt>
      <trkpt lat="44.04732" lon="5.92895">
        <ele>571</ele>
      </trkpt>
      <trkpt lat="44.04729" lon="5.92897">
        <ele>571</ele>
      </trkpt>
      <trkpt lat="44.04728" lon="5.92905">
        <ele>571</ele>
      </trkpt>
      <trkpt lat="44.04726" lon="5.92912">
        <ele>571</ele>
      </trkpt>
      <trkpt lat="44.04717" lon="5.92918">
        <ele>566</ele>
      </trkpt>
      <trkpt lat="44.04707" lon="5.92924">
        <ele>566</ele>
      </trkpt>
      <trkpt lat="44.04696" lon="5.92926">
        <ele>566</ele>
      </trkpt>
      <trkpt lat="44.04685" lon="5.92928">
        <ele>567</ele>
      </trkpt>
      <trkpt lat="44.04669" lon="5.92932">
        <ele>567</ele>
      </trkpt>
      <trkpt lat="44.04665" lon="5.92933">
        <ele>567</ele>
      </trkpt>
      <trkpt lat="44.04652" lon="5.92933">
        <ele>567</ele>
      </trkpt>
      <trkpt lat="44.04642" lon="5.92934">
        <ele>567</ele>
      </trkpt>
      <trkpt lat="44.04639" lon="5.92936">
        <ele>567</ele>
      </trkpt>
      <trkpt lat="44.04639" lon="5.92939">
        <ele>566</ele>
      </trkpt>
      <trkpt lat="44.04643" lon="5.92945">
        <ele>566</ele>
      </trkpt>
      <trkpt lat="44.04644" lon="5.92945">
        <ele>566</ele>
      </trkpt>
      <trkpt lat="44.04651" lon="5.92954">
        <ele>566</ele>
      </trkpt>
      <trkpt lat="44.04652" lon="5.92961">
        <ele>565</ele>
      </trkpt>
      <trkpt lat="44.04651" lon="5.92965">
        <ele>565</ele>
      </trkpt>
      <trkpt lat="44.04648" lon="5.9298">
        <ele>564</ele>
      </trkpt>
      <trkpt lat="44.04646" lon="5.92989">
        <ele>564</ele>
      </trkpt>
      <trkpt lat="44.04647" lon="5.92995">
        <ele>564</ele>
      </trkpt>
      <trkpt lat="44.04655" lon="5.93002">
        <ele>560</ele>
      </trkpt>
      <trkpt lat="44.04656" lon="5.93004">
        <ele>560</ele>
      </trkpt>
      <trkpt lat="44.04656" lon="5.93014">
        <ele>560</ele>
      </trkpt>
      <trkpt lat="44.04648" lon="5.93014">
        <ele>559</ele>
      </trkpt>
      <trkpt lat="44.04645" lon="5.93013">
        <ele>559</ele>
      </trkpt>
      <trkpt lat="44.04639" lon="5.93014">
        <ele>559</ele>
      </trkpt>
      <trkpt lat="44.04634" lon="5.93022">
        <ele>558</ele>
      </trkpt>
      <trkpt lat="44.04635" lon="5.93026">
        <ele>558</ele>
      </trkpt>
      <trkpt lat="44.04636" lon="5.93028">
        <ele>558</ele>
      </trkpt>
      <trkpt lat="44.04643" lon="5.93038">
        <ele>558</ele>
      </trkpt>
      <trkpt lat="44.04646" lon="5.93037">
        <ele>558</ele>
      </trkpt>
      <trkpt lat="44.04653" lon="5.9304">
        <ele>558</ele>
      </trkpt>
      <trkpt lat="44.04655" lon="5.93044">
        <ele>558</ele>
      </trkpt>
      <trkpt lat="44.04657" lon="5.93045">
        <ele>558</ele>
      </trkpt>
      <trkpt lat="44.04657" lon="5.93046">
        <ele>558</ele>
      </trkpt>
      <trkpt lat="44.04659" lon="5.93053">
        <ele>557</ele>
      </trkpt>
      <trkpt lat="44.04661" lon="5.93064">
        <ele>557</ele>
      </trkpt>
      <trkpt lat="44.04661" lon="5.93065">
        <ele>556</ele>
      </trkpt>
      <trkpt lat="44.04658" lon="5.93073">
        <ele>556</ele>
      </trkpt>
      <trkpt lat="44.04648" lon="5.9307">
        <ele>556</ele>
      </trkpt>
      <trkpt lat="44.04647" lon="5.9307">
        <ele>556</ele>
      </trkpt>
      <trkpt lat="44.04643" lon="5.93073">
        <ele>556</ele>
      </trkpt>
      <trkpt lat="44.0464" lon="5.93077">
        <ele>556</ele>
      </trkpt>
      <trkpt lat="44.04642" lon="5.93084">
        <ele>554</ele>
      </trkpt>
      <trkpt lat="44.04652" lon="5.93098">
        <ele>554</ele>
      </trkpt>
      <trkpt lat="44.04661" lon="5.93108">
        <ele>553</ele>
      </trkpt>
      <trkpt lat="44.0469" lon="5.93122">
        <ele>554</ele>
      </trkpt>
      <trkpt lat="44.04711" lon="5.93117">
        <ele>554</ele>
      </trkpt>
      <trkpt lat="44.04719" lon="5.93101">
        <ele>554</ele>
      </trkpt>
      <trkpt lat="44.04722" lon="5.9308">
        <ele>557</ele>
      </trkpt>
      <trkpt lat="44.04739" lon="5.93065">
        <ele>557</ele>
      </trkpt>
      <trkpt lat="44.04751" lon="5.9306">
        <ele>556</ele>
      </trkpt>
      <trkpt lat="44.04758" lon="5.93055">
        <ele>556</ele>
      </trkpt>
      <trkpt lat="44.04773" lon="5.93046">
        <ele>557</ele>
      </trkpt>
      <trkpt lat="44.04788" lon="5.93033">
        <ele>557</ele>
      </trkpt>
      <trkpt lat="44.04795" lon="5.9302">
        <ele>557</ele>
      </trkpt>
      <trkpt lat="44.04793" lon="5.93018">
        <ele>557</ele>
      </trkpt>
      <trkpt lat="44.04794" lon="5.93016">
        <ele>557</ele>
      </trkpt>
      <trkpt lat="44.04798" lon="5.93014">
        <ele>557</ele>
      </trkpt>
      <trkpt lat="44.04806" lon="5.93002">
        <ele>557</ele>
      </trkpt>
      <trkpt lat="44.0481" lon="5.93003">
        <ele>557</ele>
      </trkpt>
      <trkpt lat="44.04811" lon="5.93003">
        <ele>557</ele>
      </trkpt>
      <trkpt lat="44.04823" lon="5.93001">
        <ele>557</ele>
      </trkpt>
      <trkpt lat="44.04834" lon="5.93005">
        <ele>556</ele>
      </trkpt>
      <trkpt lat="44.0484" lon="5.93011">
        <ele>556</ele>
      </trkpt>
      <trkpt lat="44.04846" lon="5.93028">
        <ele>555</ele>
      </trkpt>
      <trkpt lat="44.04853" lon="5.93047">
        <ele>554</ele>
      </trkpt>
      <trkpt lat="44.04858" lon="5.9306">
        <ele>553</ele>
      </trkpt>
      <trkpt lat="44.04865" lon="5.93078">
        <ele>553</ele>
      </trkpt>
      <trkpt lat="44.04873" lon="5.93103">
        <ele>550</ele>
      </trkpt>
      <trkpt lat="44.04881" lon="5.93122">
        <ele>549</ele>
      </trkpt>
      <trkpt lat="44.04888" lon="5.93137">
        <ele>549</ele>
      </trkpt>
      <trkpt lat="44.04893" lon="5.93151">
        <ele>549</ele>
      </trkpt>
      <trkpt lat="44.04899" lon="5.93168">
        <ele>546</ele>
      </trkpt>
      <trkpt lat="44.04905" lon="5.93183">
        <ele>546</ele>
      </trkpt>
      <trkpt lat="44.04915" lon="5.93209">
        <ele>545</ele>
      </trkpt>
      <trkpt lat="44.04922" lon="5.93226">
        <ele>544</ele>
      </trkpt>
      <trkpt lat="44.04929" lon="5.9324">
        <ele>544</ele>
      </trkpt>
      <trkpt lat="44.04937" lon="5.9326">
        <ele>543</ele>
      </trkpt>
      <trkpt lat="44.04944" lon="5.93278">
        <ele>542</ele>
      </trkpt>
      <trkpt lat="44.04952" lon="5.93296">
        <ele>542</ele>
      </trkpt>
      <trkpt lat="44.04958" lon="5.9331">
        <ele>541</ele>
      </trkpt>
      <trkpt lat="44.04965" lon="5.93327">
        <ele>541</ele>
      </trkpt>
      <trkpt lat="44.04971" lon="5.93342">
        <ele>540</ele>
      </trkpt>
      <trkpt lat="44.04976" lon="5.93354">
        <ele>540</ele>
      </trkpt>
      <trkpt lat="44.04976" lon="5.93356">
        <ele>540</ele>
      </trkpt>
      <trkpt lat="44.04981" lon="5.93367">
        <ele>540</ele>
      </trkpt>
      <trkpt lat="44.04984" lon="5.93371">
        <ele>540</ele>
      </trkpt>
      <trkpt lat="44.04989" lon="5.93368">
        <ele>540</ele>
      </trkpt>
      <trkpt lat="44.04989" lon="5.93375">
        <ele>540</ele>
      </trkpt>
      <trkpt lat="44.0499" lon="5.93378">
        <ele>539</ele>
      </trkpt>
      <trkpt lat="44.05003" lon="5.93392">
        <ele>538</ele>
      </trkpt>
      <trkpt lat="44.05018" lon="5.93393">
        <ele>538</ele>
      </trkpt>
      <trkpt lat="44.05036" lon="5.93398">
        <ele>538</ele>
      </trkpt>
      <trkpt lat="44.05053" lon="5.93401">
        <ele>538</ele>
      </trkpt>
      <trkpt lat="44.0506" lon="5.93401">
        <ele>538</ele>
      </trkpt>
      <trkpt lat="44.0506" lon="5.93401">
        <ele>538</ele>
      </trkpt>
      <trkpt lat="44.05069" lon="5.93404">
        <ele>538</ele>
      </trkpt>
      <trkpt lat="44.05084" lon="5.93406">
        <ele>538</ele>
      </trkpt>
      <trkpt lat="44.05102" lon="5.93417">
        <ele>539</ele>
      </trkpt>
      <trkpt lat="44.05115" lon="5.93426">
        <ele>539</ele>
      </trkpt>
      <trkpt lat="44.05122" lon="5.93441">
        <ele>540</ele>
      </trkpt>
      <trkpt lat="44.05136" lon="5.93465">
        <ele>540</ele>
      </trkpt>
      <trkpt lat="44.05142" lon="5.93468">
        <ele>540</ele>
      </trkpt>
      <trkpt lat="44.05152" lon="5.9347">
        <ele>541</ele>
      </trkpt>
      <trkpt lat="44.05168" lon="5.93467">
        <ele>545</ele>
      </trkpt>
      <trkpt lat="44.05182" lon="5.93453">
        <ele>546</ele>
      </trkpt>
      <trkpt lat="44.05203" lon="5.93453">
        <ele>546</ele>
      </trkpt>
      <trkpt lat="44.0522" lon="5.93465">
        <ele>547</ele>
      </trkpt>
      <trkpt lat="44.05228" lon="5.93473">
        <ele>548</ele>
      </trkpt>
      <trkpt lat="44.05235" lon="5.93481">
        <ele>548</ele>
      </trkpt>
      <trkpt lat="44.05239" lon="5.93485">
        <ele>549</ele>
      </trkpt>
      <trkpt lat="44.05261" lon="5.93505">
        <ele>552</ele>
      </trkpt>
      <trkpt lat="44.05278" lon="5.9351">
        <ele>553</ele>
      </trkpt>
      <trkpt lat="44.05284" lon="5.9351">
        <ele>553</ele>
      </trkpt>
      <trkpt lat="44.05301" lon="5.93518">
        <ele>554</ele>
      </trkpt>
      <trkpt lat="44.05318" lon="5.93525">
        <ele>554</ele>
      </trkpt>
      <trkpt lat="44.05326" lon="5.9353">
        <ele>554</ele>
      </trkpt>
      <trkpt lat="44.05338" lon="5.93539">
        <ele>553</ele>
      </trkpt>
      <trkpt lat="44.05351" lon="5.93544">
        <ele>553</ele>
      </trkpt>
      <trkpt lat="44.05361" lon="5.93552">
        <ele>552</ele>
      </trkpt>
      <trkpt lat="44.05373" lon="5.93565">
        <ele>552</ele>
      </trkpt>
      <trkpt lat="44.05386" lon="5.93582">
        <ele>552</ele>
      </trkpt>
      <trkpt lat="44.05393" lon="5.93592">
        <ele>550</ele>
      </trkpt>
      <trkpt lat="44.05395" lon="5.93609">
        <ele>550</ele>
      </trkpt>
      <trkpt lat="44.05402" lon="5.93618">
        <ele>550</ele>
      </trkpt>
      <trkpt lat="44.05412" lon="5.93616">
        <ele>550</ele>
      </trkpt>
      <trkpt lat="44.05427" lon="5.9362">
        <ele>546</ele>
      </trkpt>
      <trkpt lat="44.05436" lon="5.93621">
        <ele>546</ele>
      </trkpt>
      <trkpt lat="44.05446" lon="5.93637">
        <ele>545</ele>
      </trkpt>
      <trkpt lat="44.05457" lon="5.93643">
        <ele>544</ele>
      </trkpt>
      <trkpt lat="44.05467" lon="5.93636">
        <ele>544</ele>
      </trkpt>
      <trkpt lat="44.05478" lon="5.93632">
        <ele>544</ele>
      </trkpt>
      <trkpt lat="44.05488" lon="5.93627">
        <ele>543</ele>
      </trkpt>
      <trkpt lat="44.055" lon="5.93625">
        <ele>538</ele>
      </trkpt>
      <trkpt lat="44.05514" lon="5.93619">
        <ele>538</ele>
      </trkpt>
      <trkpt lat="44.05531" lon="5.93617">
        <ele>537</ele>
      </trkpt>
      <trkpt lat="44.05541" lon="5.9362">
        <ele>537</ele>
      </trkpt>
      <trkpt lat="44.05551" lon="5.93624">
        <ele>536</ele>
      </trkpt>
      <trkpt lat="44.05563" lon="5.93622">
        <ele>536</ele>
      </trkpt>
      <trkpt lat="44.05574" lon="5.93619">
        <ele>535</ele>
      </trkpt>
      <trkpt lat="44.05579" lon="5.93619">
        <ele>535</ele>
      </trkpt>
      <trkpt lat="44.05584" lon="5.93629">
        <ele>530</ele>
      </trkpt>
      <trkpt lat="44.05571" lon="5.93644">
        <ele>536</ele>
      </trkpt>
      <trkpt lat="44.05561" lon="5.93661">
        <ele>536</ele>
      </trkpt>
      <trkpt lat="44.05556" lon="5.93673">
        <ele>536</ele>
      </trkpt>
      <trkpt lat="44.05553" lon="5.93689">
        <ele>536</ele>
      </trkpt>
      <trkpt lat="44.05564" lon="5.93708">
        <ele>536</ele>
      </trkpt>
      <trkpt lat="44.05569" lon="5.93718">
        <ele>536</ele>
      </trkpt>
      <trkpt lat="44.05574" lon="5.9372">
        <ele>536</ele>
      </trkpt>
      <trkpt lat="44.0559" lon="5.93723">
        <ele>533</ele>
      </trkpt>
      <trkpt lat="44.05606" lon="5.93738">
        <ele>532</ele>
      </trkpt>
      <trkpt lat="44.05621" lon="5.93744">
        <ele>531</ele>
      </trkpt>
      <trkpt lat="44.05629" lon="5.93742">
        <ele>531</ele>
      </trkpt>
      <trkpt lat="44.0563" lon="5.93733">
        <ele>531</ele>
      </trkpt>
      <trkpt lat="44.05624" lon="5.93727">
        <ele>531</ele>
      </trkpt>
      <trkpt lat="44.05619" lon="5.93713">
        <ele>531</ele>
      </trkpt>
      <trkpt lat="44.05616" lon="5.93708">
        <ele>532</ele>
      </trkpt>
      <trkpt lat="44.05623" lon="5.93694">
        <ele>531</ele>
      </trkpt>
      <trkpt lat="44.05628" lon="5.93693">
        <ele>531</ele>
      </trkpt>
      <trkpt lat="44.0563" lon="5.93692">
        <ele>531</ele>
      </trkpt>
      <trkpt lat="44.05642" lon="5.93688">
        <ele>530</ele>
      </trkpt>
      <trkpt lat="44.05651" lon="5.93681">
        <ele>530</ele>
      </trkpt>
      <trkpt lat="44.05669" lon="5.93682">
        <ele>525</ele>
      </trkpt>
      <trkpt lat="44.05679" lon="5.93681">
        <ele>524</ele>
      </trkpt>
      <trkpt lat="44.05693" lon="5.93688">
        <ele>522</ele>
      </trkpt>
      <trkpt lat="44.05704" lon="5.93684">
        <ele>521</ele>
      </trkpt>
      <trkpt lat="44.05716" lon="5.93675">
        <ele>520</ele>
      </trkpt>
      <trkpt lat="44.0573" lon="5.93666">
        <ele>519</ele>
      </trkpt>
      <trkpt lat="44.05734" lon="5.93651">
        <ele>519</ele>
      </trkpt>
      <trkpt lat="44.05713" lon="5.9363">
        <ele>520</ele>
      </trkpt>
      <trkpt lat="44.05701" lon="5.93618">
        <ele>521</ele>
      </trkpt>
      <trkpt lat="44.05687" lon="5.93607">
        <ele>521</ele>
      </trkpt>
      <trkpt lat="44.05673" lon="5.93597">
        <ele>522</ele>
      </trkpt>
      <trkpt lat="44.05661" lon="5.93587">
        <ele>524</ele>
      </trkpt>
      <trkpt lat="44.05654" lon="5.93576">
        <ele>523</ele>
      </trkpt>
      <trkpt lat="44.05646" lon="5.93565">
        <ele>523</ele>
      </trkpt>
      <trkpt lat="44.05632" lon="5.93556">
        <ele>523</ele>
      </trkpt>
      <trkpt lat="44.05624" lon="5.93547">
        <ele>523</ele>
      </trkpt>
      <trkpt lat="44.05609" lon="5.93527">
        <ele>523</ele>
      </trkpt>
      <trkpt lat="44.056" lon="5.93509">
        <ele>522</ele>
      </trkpt>
      <trkpt lat="44.05598" lon="5.93504">
        <ele>522</ele>
      </trkpt>
      <trkpt lat="44.05602" lon="5.93488">
        <ele>522</ele>
      </trkpt>
      <trkpt lat="44.05603" lon="5.93484">
        <ele>522</ele>
      </trkpt>
      <trkpt lat="44.05611" lon="5.93474">
        <ele>523</ele>
      </trkpt>
      <trkpt lat="44.05619" lon="5.93469">
        <ele>523</ele>
      </trkpt>
      <trkpt lat="44.05621" lon="5.93458">
        <ele>523</ele>
      </trkpt>
      <trkpt lat="44.05634" lon="5.9345">
        <ele>524</ele>
      </trkpt>
      <trkpt lat="44.05642" lon="5.9344">
        <ele>525</ele>
      </trkpt>
      <trkpt lat="44.05652" lon="5.93433">
        <ele>525</ele>
      </trkpt>
      <trkpt lat="44.05668" lon="5.9343">
        <ele>528</ele>
      </trkpt>
      <trkpt lat="44.05686" lon="5.93417">
        <ele>528</ele>
      </trkpt>
      <trkpt lat="44.05694" lon="5.93416">
        <ele>532</ele>
      </trkpt>
      <trkpt lat="44.05716" lon="5.93422">
        <ele>530</ele>
      </trkpt>
      <trkpt lat="44.05728" lon="5.93416">
        <ele>534</ele>
      </trkpt>
      <trkpt lat="44.05734" lon="5.93415">
        <ele>535</ele>
      </trkpt>
      <trkpt lat="44.05754" lon="5.93422">
        <ele>536</ele>
      </trkpt>
      <trkpt lat="44.0577" lon="5.9344">
        <ele>536</ele>
      </trkpt>
      <trkpt lat="44.05787" lon="5.93455">
        <ele>536</ele>
      </trkpt>
      <trkpt lat="44.05811" lon="5.93468">
        <ele>537</ele>
      </trkpt>
      <trkpt lat="44.05815" lon="5.93468">
        <ele>537</ele>
      </trkpt>
      <trkpt lat="44.0582" lon="5.93448">
        <ele>538</ele>
      </trkpt>
      <trkpt lat="44.05821" lon="5.93438">
        <ele>539</ele>
      </trkpt>
      <trkpt lat="44.05828" lon="5.93421">
        <ele>542</ele>
      </trkpt>
      <trkpt lat="44.05838" lon="5.934">
        <ele>544</ele>
      </trkpt>
      <trkpt lat="44.05846" lon="5.93385">
        <ele>544</ele>
      </trkpt>
      <trkpt lat="44.0585" lon="5.93364">
        <ele>543</ele>
      </trkpt>
      <trkpt lat="44.05853" lon="5.93348">
        <ele>543</ele>
      </trkpt>
      <trkpt lat="44.05851" lon="5.93326">
        <ele>542</ele>
      </trkpt>
      <trkpt lat="44.05851" lon="5.93307">
        <ele>541</ele>
      </trkpt>
      <trkpt lat="44.05848" lon="5.93282">
        <ele>540</ele>
      </trkpt>
      <trkpt lat="44.05849" lon="5.93276">
        <ele>540</ele>
      </trkpt>
      <trkpt lat="44.05861" lon="5.93269">
        <ele>540</ele>
      </trkpt>
      <trkpt lat="44.05866" lon="5.93266">
        <ele>540</ele>
      </trkpt>
      <trkpt lat="44.05876" lon="5.93266">
        <ele>539</ele>
      </trkpt>
      <trkpt lat="44.0589" lon="5.93272">
        <ele>539</ele>
      </trkpt>
      <trkpt lat="44.05896" lon="5.93274">
        <ele>539</ele>
      </trkpt>
      <trkpt lat="44.05905" lon="5.93275">
        <ele>539</ele>
      </trkpt>
      <trkpt lat="44.05918" lon="5.93278">
        <ele>531</ele>
      </trkpt>
      <trkpt lat="44.0593" lon="5.93279">
        <ele>530</ele>
      </trkpt>
      <trkpt lat="44.05939" lon="5.93282">
        <ele>529</ele>
      </trkpt>
      <trkpt lat="44.05954" lon="5.93283">
        <ele>527</ele>
      </trkpt>
      <trkpt lat="44.0596" lon="5.93278">
        <ele>527</ele>
      </trkpt>
      <trkpt lat="44.05955" lon="5.9327">
        <ele>527</ele>
      </trkpt>
      <trkpt lat="44.05949" lon="5.93264">
        <ele>528</ele>
      </trkpt>
      <trkpt lat="44.05937" lon="5.93257">
        <ele>530</ele>
      </trkpt>
      <trkpt lat="44.05928" lon="5.9325">
        <ele>532</ele>
      </trkpt>
      <trkpt lat="44.05919" lon="5.93243">
        <ele>531</ele>
      </trkpt>
      <trkpt lat="44.0591" lon="5.93238">
        <ele>532</ele>
      </trkpt>
      <trkpt lat="44.05905" lon="5.93232">
        <ele>531</ele>
      </trkpt>
      <trkpt lat="44.05909" lon="5.9323">
        <ele>531</ele>
      </trkpt>
      <trkpt lat="44.05921" lon="5.93228">
        <ele>526</ele>
      </trkpt>
      <trkpt lat="44.0593" lon="5.93229">
        <ele>525</ele>
      </trkpt>
      <trkpt lat="44.05939" lon="5.93231">
        <ele>524</ele>
      </trkpt>
      <trkpt lat="44.05951" lon="5.93233">
        <ele>523</ele>
      </trkpt>
      <trkpt lat="44.05961" lon="5.93231">
        <ele>522</ele>
      </trkpt>
      <trkpt lat="44.05967" lon="5.9323">
        <ele>521</ele>
      </trkpt>
      <trkpt lat="44.05978" lon="5.93224">
        <ele>520</ele>
      </trkpt>
      <trkpt lat="44.05984" lon="5.93217">
        <ele>519</ele>
      </trkpt>
      <trkpt lat="44.05983" lon="5.93213">
        <ele>519</ele>
      </trkpt>
      <trkpt lat="44.05975" lon="5.93203">
        <ele>519</ele>
      </trkpt>
      <trkpt lat="44.05965" lon="5.93196">
        <ele>519</ele>
      </trkpt>
      <trkpt lat="44.05956" lon="5.93186">
        <ele>519</ele>
      </trkpt>
      <trkpt lat="44.05946" lon="5.9318">
        <ele>519</ele>
      </trkpt>
      <trkpt lat="44.05935" lon="5.93173">
        <ele>519</ele>
      </trkpt>
      <trkpt lat="44.05925" lon="5.93165">
        <ele>515</ele>
      </trkpt>
      <trkpt lat="44.05914" lon="5.93158">
        <ele>517</ele>
      </trkpt>
      <trkpt lat="44.05907" lon="5.93154">
        <ele>517</ele>
      </trkpt>
      <trkpt lat="44.05897" lon="5.93152">
        <ele>517</ele>
      </trkpt>
      <trkpt lat="44.0589" lon="5.93149">
        <ele>517</ele>
      </trkpt>
      <trkpt lat="44.05882" lon="5.93142">
        <ele>517</ele>
      </trkpt>
      <trkpt lat="44.05875" lon="5.93138">
        <ele>517</ele>
      </trkpt>
      <trkpt lat="44.05869" lon="5.93136">
        <ele>517</ele>
      </trkpt>
      <trkpt lat="44.05863" lon="5.93132">
        <ele>517</ele>
      </trkpt>
      <trkpt lat="44.05856" lon="5.93122">
        <ele>516</ele>
      </trkpt>
      <trkpt lat="44.05846" lon="5.93115">
        <ele>516</ele>
      </trkpt>
      <trkpt lat="44.05835" lon="5.93111">
        <ele>516</ele>
      </trkpt>
      <trkpt lat="44.05825" lon="5.93109">
        <ele>520</ele>
      </trkpt>
      <trkpt lat="44.05819" lon="5.93107">
        <ele>520</ele>
      </trkpt>
      <trkpt lat="44.05816" lon="5.93103">
        <ele>520</ele>
      </trkpt>
      <trkpt lat="44.0582" lon="5.93101">
        <ele>519</ele>
      </trkpt>
      <trkpt lat="44.05826" lon="5.93099">
        <ele>519</ele>
      </trkpt>
      <trkpt lat="44.05842" lon="5.93095">
        <ele>515</ele>
      </trkpt>
      <trkpt lat="44.05854" lon="5.93097">
        <ele>515</ele>
      </trkpt>
      <trkpt lat="44.05863" lon="5.93097">
        <ele>515</ele>
      </trkpt>
      <trkpt lat="44.05868" lon="5.93102">
        <ele>515</ele>
      </trkpt>
      <trkpt lat="44.05875" lon="5.931">
        <ele>514</ele>
      </trkpt>
      <trkpt lat="44.05885" lon="5.93098">
        <ele>513</ele>
      </trkpt>
      <trkpt lat="44.05895" lon="5.93097">
        <ele>512</ele>
      </trkpt>
      <trkpt lat="44.05905" lon="5.93095">
        <ele>510</ele>
      </trkpt>
      <trkpt lat="44.05913" lon="5.93092">
        <ele>508</ele>
      </trkpt>
      <trkpt lat="44.0592" lon="5.93089">
        <ele>505</ele>
      </trkpt>
      <trkpt lat="44.0593" lon="5.93089">
        <ele>506</ele>
      </trkpt>
      <trkpt lat="44.05937" lon="5.9309">
        <ele>505</ele>
      </trkpt>
      <trkpt lat="44.05945" lon="5.9309">
        <ele>505</ele>
      </trkpt>
      <trkpt lat="44.05952" lon="5.93091">
        <ele>505</ele>
      </trkpt>
      <trkpt lat="44.05959" lon="5.93091">
        <ele>504</ele>
      </trkpt>
      <trkpt lat="44.05962" lon="5.93091">
        <ele>504</ele>
      </trkpt>
      <trkpt lat="44.05964" lon="5.93092">
        <ele>504</ele>
      </trkpt>
      <trkpt lat="44.05975" lon="5.93098">
        <ele>503</ele>
      </trkpt>
      <trkpt lat="44.05984" lon="5.93105">
        <ele>503</ele>
      </trkpt>
      <trkpt lat="44.05991" lon="5.93112">
        <ele>503</ele>
      </trkpt>
      <trkpt lat="44.05998" lon="5.93116">
        <ele>504</ele>
      </trkpt>
      <trkpt lat="44.06008" lon="5.9312">
        <ele>497</ele>
      </trkpt>
      <trkpt lat="44.06015" lon="5.93121">
        <ele>497</ele>
      </trkpt>
      <trkpt lat="44.06022" lon="5.93122">
        <ele>497</ele>
      </trkpt>
      <trkpt lat="44.06031" lon="5.93131">
        <ele>497</ele>
      </trkpt>
      <trkpt lat="44.06035" lon="5.93141">
        <ele>497</ele>
      </trkpt>
      <trkpt lat="44.06037" lon="5.93149">
        <ele>497</ele>
      </trkpt>
      <trkpt lat="44.06041" lon="5.9316">
        <ele>497</ele>
      </trkpt>
      <trkpt lat="44.06042" lon="5.93165">
        <ele>497</ele>
      </trkpt>
      <trkpt lat="44.06046" lon="5.93171">
        <ele>499</ele>
      </trkpt>
      <trkpt lat="44.06054" lon="5.93179">
        <ele>497</ele>
      </trkpt>
      <trkpt lat="44.06058" lon="5.93185">
        <ele>497</ele>
      </trkpt>
      <trkpt lat="44.06059" lon="5.93188">
        <ele>497</ele>
      </trkpt>
      <trkpt lat="44.06063" lon="5.93197">
        <ele>496</ele>
      </trkpt>
      <trkpt lat="44.06064" lon="5.932">
        <ele>496</ele>
      </trkpt>
      <trkpt lat="44.06068" lon="5.93209">
        <ele>496</ele>
      </trkpt>
      <trkpt lat="44.06071" lon="5.93219">
        <ele>495</ele>
      </trkpt>
      <trkpt lat="44.06074" lon="5.93228">
        <ele>493</ele>
      </trkpt>
      <trkpt lat="44.06082" lon="5.93239">
        <ele>489</ele>
      </trkpt>
      <trkpt lat="44.06088" lon="5.93236">
        <ele>487</ele>
      </trkpt>
      <trkpt lat="44.06088" lon="5.93224">
        <ele>489</ele>
      </trkpt>
      <trkpt lat="44.06086" lon="5.93212">
        <ele>490</ele>
      </trkpt>
      <trkpt lat="44.06087" lon="5.9321">
        <ele>490</ele>
      </trkpt>
      <trkpt lat="44.06094" lon="5.9321">
        <ele>490</ele>
      </trkpt>
      <trkpt lat="44.06101" lon="5.93224">
        <ele>490</ele>
      </trkpt>
      <trkpt lat="44.06107" lon="5.9324">
        <ele>489</ele>
      </trkpt>
      <trkpt lat="44.06108" lon="5.9325">
        <ele>483</ele>
      </trkpt>
      <trkpt lat="44.06107" lon="5.93263">
        <ele>483</ele>
      </trkpt>
      <trkpt lat="44.06109" lon="5.93274">
        <ele>483</ele>
      </trkpt>
      <trkpt lat="44.06109" lon="5.93277">
        <ele>483</ele>
      </trkpt>
      <trkpt lat="44.06106" lon="5.93291">
        <ele>482</ele>
      </trkpt>
      <trkpt lat="44.06103" lon="5.933">
        <ele>481</ele>
      </trkpt>
      <trkpt lat="44.06102" lon="5.93305">
        <ele>480</ele>
      </trkpt>
      <trkpt lat="44.06101" lon="5.93315">
        <ele>479</ele>
      </trkpt>
      <trkpt lat="44.06096" lon="5.93325">
        <ele>478</ele>
      </trkpt>
      <trkpt lat="44.06091" lon="5.93337">
        <ele>474</ele>
      </trkpt>
      <trkpt lat="44.06083" lon="5.9336">
        <ele>475</ele>
      </trkpt>
      <trkpt lat="44.06076" lon="5.93382">
        <ele>482</ele>
      </trkpt>
      <trkpt lat="44.06071" lon="5.93403">
        <ele>479</ele>
      </trkpt>
      <trkpt lat="44.0607" lon="5.93425">
        <ele>476</ele>
      </trkpt>
      <trkpt lat="44.06072" lon="5.93441">
        <ele>477</ele>
      </trkpt>
      <trkpt lat="44.06072" lon="5.93459">
        <ele>477</ele>
      </trkpt>
      <trkpt lat="44.06071" lon="5.9348">
        <ele>475</ele>
      </trkpt>
      <trkpt lat="44.06068" lon="5.93494">
        <ele>474</ele>
      </trkpt>
      <trkpt lat="44.06063" lon="5.93511">
        <ele>472</ele>
      </trkpt>
      <trkpt lat="44.06056" lon="5.93521">
        <ele>474</ele>
      </trkpt>
      <trkpt lat="44.06051" lon="5.93529">
        <ele>474</ele>
      </trkpt>
      <trkpt lat="44.06046" lon="5.93539">
        <ele>475</ele>
      </trkpt>
      <trkpt lat="44.06039" lon="5.93552">
        <ele>475</ele>
      </trkpt>
      <trkpt lat="44.0603" lon="5.93562">
        <ele>475</ele>
      </trkpt>
      <trkpt lat="44.06018" lon="5.93579">
        <ele>476</ele>
      </trkpt>
      <trkpt lat="44.06012" lon="5.93593">
        <ele>474</ele>
      </trkpt>
      <trkpt lat="44.06008" lon="5.93608">
        <ele>473</ele>
      </trkpt>
      <trkpt lat="44.06002" lon="5.93625">
        <ele>461</ele>
      </trkpt>
      <trkpt lat="44.05989" lon="5.93657">
        <ele>462</ele>
      </trkpt>
      <trkpt lat="44.05975" lon="5.9371">
        <ele>463</ele>
      </trkpt>
      <trkpt lat="44.05963" lon="5.93733">
        <ele>463</ele>
      </trkpt>
      <trkpt lat="44.0596" lon="5.93765">
        <ele>459</ele>
      </trkpt>
      <trkpt lat="44.05949" lon="5.93792">
        <ele>456</ele>
      </trkpt>
      <trkpt lat="44.05925" lon="5.93815">
        <ele>455</ele>
      </trkpt>
      <trkpt lat="44.05898" lon="5.93818">
        <ele>458</ele>
      </trkpt>
      <trkpt lat="44.05898" lon="5.93838">
        <ele>456</ele>
      </trkpt>
      <trkpt lat="44.05893" lon="5.93852">
        <ele>456</ele>
      </trkpt>
      <trkpt lat="44.05902" lon="5.9389">
        <ele>453</ele>
      </trkpt>
      <trkpt lat="44.05906" lon="5.93927">
        <ele>453</ele>
      </trkpt>
      <trkpt lat="44.05914" lon="5.9394">
        <ele>454</ele>
      </trkpt>
      <trkpt lat="44.05935" lon="5.9394">
        <ele>455</ele>
      </trkpt>
      <trkpt lat="44.05941" lon="5.93945">
        <ele>458</ele>
      </trkpt>
      <trkpt lat="44.05943" lon="5.93947">
        <ele>459</ele>
      </trkpt>
      <trkpt lat="44.05941" lon="5.93948">
        <ele>458</ele>
      </trkpt>
      <trkpt lat="44.05942" lon="5.9395">
        <ele>459</ele>
      </trkpt>
      <trkpt lat="44.05943" lon="5.93956">
        <ele>461</ele>
      </trkpt>
      <trkpt lat="44.05937" lon="5.93967">
        <ele>460</ele>
      </trkpt>
      <trkpt lat="44.05927" lon="5.93993">
        <ele>463</ele>
      </trkpt>
      <trkpt lat="44.05917" lon="5.94009">
        <ele>466</ele>
      </trkpt>
      <trkpt lat="44.059" lon="5.94044">
        <ele>471</ele>
      </trkpt>
      <trkpt lat="44.0589" lon="5.94035">
        <ele>469</ele>
      </trkpt>
      <trkpt lat="44.05882" lon="5.94026">
        <ele>466</ele>
      </trkpt>
      <trkpt lat="44.05875" lon="5.94019">
        <ele>464</ele>
      </trkpt>
      <trkpt lat="44.05869" lon="5.94012">
        <ele>462</ele>
      </trkpt>
      <trkpt lat="44.05858" lon="5.94006">
        <ele>461</ele>
      </trkpt>
      <trkpt lat="44.05849" lon="5.94004">
        <ele>460</ele>
      </trkpt>
      <trkpt lat="44.05836" lon="5.94009">
        <ele>460</ele>
      </trkpt>
      <trkpt lat="44.05831" lon="5.94013">
        <ele>461</ele>
      </trkpt>
      <trkpt lat="44.05826" lon="5.94016">
        <ele>461</ele>
      </trkpt>
      <trkpt lat="44.05822" lon="5.94021">
        <ele>461</ele>
      </trkpt>
      <trkpt lat="44.05813" lon="5.94028">
        <ele>460</ele>
      </trkpt>
      <trkpt lat="44.05804" lon="5.9404">
        <ele>460</ele>
      </trkpt>
      <trkpt lat="44.05795" lon="5.94051">
        <ele>459</ele>
      </trkpt>
      <trkpt lat="44.05786" lon="5.94068">
        <ele>469</ele>
      </trkpt>
      <trkpt lat="44.05776" lon="5.94097">
        <ele>465</ele>
      </trkpt>
      <trkpt lat="44.05771" lon="5.94103">
        <ele>464</ele>
      </trkpt>
      <trkpt lat="44.05769" lon="5.94105">
        <ele>464</ele>
      </trkpt>
      <trkpt lat="44.05761" lon="5.94115">
        <ele>464</ele>
      </trkpt>
      <trkpt lat="44.05761" lon="5.94115">
        <ele>464</ele>
      </trkpt>
      <trkpt lat="44.05758" lon="5.94116">
        <ele>464</ele>
      </trkpt>
      <trkpt lat="44.05754" lon="5.94116">
        <ele>464</ele>
      </trkpt>
      <trkpt lat="44.0575" lon="5.94119">
        <ele>473</ele>
      </trkpt>
      <trkpt lat="44.05747" lon="5.94126">
        <ele>473</ele>
      </trkpt>
      <trkpt lat="44.05748" lon="5.94131">
        <ele>472</ele>
      </trkpt>
      <trkpt lat="44.05748" lon="5.94135">
        <ele>472</ele>
      </trkpt>
      <trkpt lat="44.05748" lon="5.94141">
        <ele>471</ele>
      </trkpt>
      <trkpt lat="44.05746" lon="5.94142">
        <ele>471</ele>
      </trkpt>
      <trkpt lat="44.05741" lon="5.94139">
        <ele>472</ele>
      </trkpt>
      <trkpt lat="44.05739" lon="5.94133">
        <ele>473</ele>
      </trkpt>
      <trkpt lat="44.05736" lon="5.94127">
        <ele>474</ele>
      </trkpt>
      <trkpt lat="44.05735" lon="5.9412">
        <ele>474</ele>
      </trkpt>
      <trkpt lat="44.05735" lon="5.94112">
        <ele>474</ele>
      </trkpt>
      <trkpt lat="44.05736" lon="5.94108">
        <ele>474</ele>
      </trkpt>
      <trkpt lat="44.05737" lon="5.94104">
        <ele>473</ele>
      </trkpt>
      <trkpt lat="44.05734" lon="5.94097">
        <ele>473</ele>
      </trkpt>
      <trkpt lat="44.05725" lon="5.94108">
        <ele>475</ele>
      </trkpt>
      <trkpt lat="44.05725" lon="5.9411">
        <ele>476</ele>
      </trkpt>
      <trkpt lat="44.0573" lon="5.94122">
        <ele>475</ele>
      </trkpt>
      <trkpt lat="44.05731" lon="5.94132">
        <ele>474</ele>
      </trkpt>
      <trkpt lat="44.05728" lon="5.94138">
        <ele>474</ele>
      </trkpt>
      <trkpt lat="44.05729" lon="5.94153">
        <ele>473</ele>
      </trkpt>
      <trkpt lat="44.0573" lon="5.94158">
        <ele>472</ele>
      </trkpt>
      <trkpt lat="44.05737" lon="5.94168">
        <ele>466</ele>
      </trkpt>
      <trkpt lat="44.05737" lon="5.9418">
        <ele>467</ele>
      </trkpt>
      <trkpt lat="44.05736" lon="5.94181">
        <ele>467</ele>
      </trkpt>
      <trkpt lat="44.05737" lon="5.94186">
        <ele>467</ele>
      </trkpt>
      <trkpt lat="44.0574" lon="5.9419">
        <ele>467</ele>
      </trkpt>
      <trkpt lat="44.05747" lon="5.94194">
        <ele>467</ele>
      </trkpt>
      <trkpt lat="44.0575" lon="5.94197">
        <ele>459</ele>
      </trkpt>
      <trkpt lat="44.05755" lon="5.94202">
        <ele>459</ele>
      </trkpt>
      <trkpt lat="44.05756" lon="5.94207">
        <ele>458</ele>
      </trkpt>
      <trkpt lat="44.05756" lon="5.94214">
        <ele>458</ele>
      </trkpt>
      <trkpt lat="44.05756" lon="5.94215">
        <ele>458</ele>
      </trkpt>
      <trkpt lat="44.05755" lon="5.94233">
        <ele>457</ele>
      </trkpt>
      <trkpt lat="44.05756" lon="5.94237">
        <ele>457</ele>
      </trkpt>
      <trkpt lat="44.05755" lon="5.94241">
        <ele>457</ele>
      </trkpt>
      <trkpt lat="44.05755" lon="5.94243">
        <ele>457</ele>
      </trkpt>
      <trkpt lat="44.05755" lon="5.94241">
        <ele>457</ele>
      </trkpt>
      <trkpt lat="44.05755" lon="5.94243">
        <ele>457</ele>
      </trkpt>
      <trkpt lat="44.05755" lon="5.94243">
        <ele>457</ele>
      </trkpt>
      <trkpt lat="44.05755" lon="5.94249">
        <ele>457</ele>
      </trkpt>
      <trkpt lat="44.05756" lon="5.94249">
        <ele>457</ele>
      </trkpt>
      <trkpt lat="44.0577" lon="5.94241">
        <ele>457</ele>
      </trkpt>
      <trkpt lat="44.05781" lon="5.94238">
        <ele>457</ele>
      </trkpt>
      <trkpt lat="44.05783" lon="5.9425">
        <ele>453</ele>
      </trkpt>
      <trkpt lat="44.05778" lon="5.94267">
        <ele>453</ele>
      </trkpt>
      <trkpt lat="44.05776" lon="5.94282">
        <ele>452</ele>
      </trkpt>
      <trkpt lat="44.05776" lon="5.94289">
        <ele>452</ele>
      </trkpt>
      <trkpt lat="44.05776" lon="5.94297">
        <ele>452</ele>
      </trkpt>
      <trkpt lat="44.05778" lon="5.94301">
        <ele>451</ele>
      </trkpt>
      <trkpt lat="44.0578" lon="5.94303">
        <ele>451</ele>
      </trkpt>
      <trkpt lat="44.05782" lon="5.94306">
        <ele>451</ele>
      </trkpt>
      <trkpt lat="44.05793" lon="5.94309">
        <ele>451</ele>
      </trkpt>
      <trkpt lat="44.05804" lon="5.94316">
        <ele>451</ele>
      </trkpt>
      <trkpt lat="44.05806" lon="5.9432">
        <ele>451</ele>
      </trkpt>
      <trkpt lat="44.05816" lon="5.9433">
        <ele>451</ele>
      </trkpt>
      <trkpt lat="44.05826" lon="5.94331">
        <ele>451</ele>
      </trkpt>
      <trkpt lat="44.05837" lon="5.94331">
        <ele>452</ele>
      </trkpt>
      <trkpt lat="44.05849" lon="5.94332">
        <ele>453</ele>
      </trkpt>
      <trkpt lat="44.05869" lon="5.94338">
        <ele>463</ele>
      </trkpt>
      <trkpt lat="44.05882" lon="5.94339">
        <ele>464</ele>
      </trkpt>
      <trkpt lat="44.05896" lon="5.94331">
        <ele>456</ele>
      </trkpt>
      <trkpt lat="44.05911" lon="5.94323">
        <ele>457</ele>
      </trkpt>
      <trkpt lat="44.0593" lon="5.94323">
        <ele>460</ele>
      </trkpt>
      <trkpt lat="44.05938" lon="5.94321">
        <ele>460</ele>
      </trkpt>
      <trkpt lat="44.05944" lon="5.94315">
        <ele>460</ele>
      </trkpt>
      <trkpt lat="44.05946" lon="5.94314">
        <ele>461</ele>
      </trkpt>
      <trkpt lat="44.05949" lon="5.94316">
        <ele>461</ele>
      </trkpt>
      <trkpt lat="44.05951" lon="5.9432">
        <ele>461</ele>
      </trkpt>
      <trkpt lat="44.05951" lon="5.9432">
        <ele>461</ele>
      </trkpt>
      <trkpt lat="44.05951" lon="5.94321">
        <ele>461</ele>
      </trkpt>
      <trkpt lat="44.05969" lon="5.94322">
        <ele>462</ele>
      </trkpt>
      <trkpt lat="44.05982" lon="5.94324">
        <ele>463</ele>
      </trkpt>
      <trkpt lat="44.05987" lon="5.94325">
        <ele>464</ele>
      </trkpt>
      <trkpt lat="44.05996" lon="5.94333">
        <ele>466</ele>
      </trkpt>
      <trkpt lat="44.06003" lon="5.94331">
        <ele>467</ele>
      </trkpt>
      <trkpt lat="44.06014" lon="5.94323">
        <ele>468</ele>
      </trkpt>
      <trkpt lat="44.06021" lon="5.94321">
        <ele>468</ele>
      </trkpt>
      <trkpt lat="44.06024" lon="5.94319">
        <ele>468</ele>
      </trkpt>
      <trkpt lat="44.06036" lon="5.94306">
        <ele>468</ele>
      </trkpt>
      <trkpt lat="44.06045" lon="5.94303">
        <ele>469</ele>
      </trkpt>
      <trkpt lat="44.06052" lon="5.94297">
        <ele>469</ele>
      </trkpt>
      <trkpt lat="44.06062" lon="5.94293">
        <ele>469</ele>
      </trkpt>
      <trkpt lat="44.06068" lon="5.94297">
        <ele>470</ele>
      </trkpt>
      <trkpt lat="44.06074" lon="5.94296">
        <ele>470</ele>
      </trkpt>
      <trkpt lat="44.06083" lon="5.94286">
        <ele>469</ele>
      </trkpt>
      <trkpt lat="44.06092" lon="5.94268">
        <ele>472</ele>
      </trkpt>
      <trkpt lat="44.06092" lon="5.94265">
        <ele>472</ele>
      </trkpt>
      <trkpt lat="44.06095" lon="5.94253">
        <ele>470</ele>
      </trkpt>
      <trkpt lat="44.06093" lon="5.94242">
        <ele>470</ele>
      </trkpt>
      <trkpt lat="44.06093" lon="5.94237">
        <ele>470</ele>
      </trkpt>
      <trkpt lat="44.06097" lon="5.94229">
        <ele>472</ele>
      </trkpt>
      <trkpt lat="44.06098" lon="5.9423">
        <ele>472</ele>
      </trkpt>
      <trkpt lat="44.06102" lon="5.94235">
        <ele>472</ele>
      </trkpt>
      <trkpt lat="44.06115" lon="5.94251">
        <ele>474</ele>
      </trkpt>
      <trkpt lat="44.06129" lon="5.94263">
        <ele>476</ele>
      </trkpt>
      <trkpt lat="44.06133" lon="5.94273">
        <ele>477</ele>
      </trkpt>
      <trkpt lat="44.06123" lon="5.94284">
        <ele>477</ele>
      </trkpt>
      <trkpt lat="44.06111" lon="5.94302">
        <ele>478</ele>
      </trkpt>
      <trkpt lat="44.06109" lon="5.94314">
        <ele>478</ele>
      </trkpt>
      <trkpt lat="44.06109" lon="5.94321">
        <ele>479</ele>
      </trkpt>
      <trkpt lat="44.06112" lon="5.94329">
        <ele>479</ele>
      </trkpt>
      <trkpt lat="44.06129" lon="5.94326">
        <ele>480</ele>
      </trkpt>
      <trkpt lat="44.06147" lon="5.94329">
        <ele>483</ele>
      </trkpt>
      <trkpt lat="44.06155" lon="5.94336">
        <ele>492</ele>
      </trkpt>
      <trkpt lat="44.06175" lon="5.94347">
        <ele>495</ele>
      </trkpt>
      <trkpt lat="44.0618" lon="5.9435">
        <ele>496</ele>
      </trkpt>
      <trkpt lat="44.06203" lon="5.94371">
        <ele>500</ele>
      </trkpt>
      <trkpt lat="44.06211" lon="5.94377">
        <ele>501</ele>
      </trkpt>
      <trkpt lat="44.06218" lon="5.94383">
        <ele>501</ele>
      </trkpt>
      <trkpt lat="44.06239" lon="5.94389">
        <ele>503</ele>
      </trkpt>
      <trkpt lat="44.06244" lon="5.94392">
        <ele>504</ele>
      </trkpt>
      <trkpt lat="44.06258" lon="5.94405">
        <ele>506</ele>
      </trkpt>
      <trkpt lat="44.06275" lon="5.94422">
        <ele>515</ele>
      </trkpt>
      <trkpt lat="44.06285" lon="5.9443">
        <ele>515</ele>
      </trkpt>
      <trkpt lat="44.0629" lon="5.94436">
        <ele>515</ele>
      </trkpt>
      <trkpt lat="44.06289" lon="5.94442">
        <ele>516</ele>
      </trkpt>
      <trkpt lat="44.06274" lon="5.94458">
        <ele>518</ele>
      </trkpt>
      <trkpt lat="44.06259" lon="5.9447">
        <ele>520</ele>
      </trkpt>
      <trkpt lat="44.06249" lon="5.94479">
        <ele>523</ele>
      </trkpt>
      <trkpt lat="44.06253" lon="5.94483">
        <ele>523</ele>
      </trkpt>
      <trkpt lat="44.06257" lon="5.94484">
        <ele>523</ele>
      </trkpt>
      <trkpt lat="44.06268" lon="5.9449">
        <ele>523</ele>
      </trkpt>
      <trkpt lat="44.06271" lon="5.94509">
        <ele>534</ele>
      </trkpt>
      <trkpt lat="44.06289" lon="5.94522">
        <ele>537</ele>
      </trkpt>
      <trkpt lat="44.06295" lon="5.94525">
        <ele>537</ele>
      </trkpt>
      <trkpt lat="44.06296" lon="5.94534">
        <ele>538</ele>
      </trkpt>
      <trkpt lat="44.06311" lon="5.94539">
        <ele>539</ele>
      </trkpt>
      <trkpt lat="44.06335" lon="5.94546">
        <ele>540</ele>
      </trkpt>
      <trkpt lat="44.06347" lon="5.9455">
        <ele>541</ele>
      </trkpt>
      <trkpt lat="44.06361" lon="5.94554">
        <ele>541</ele>
      </trkpt>
      <trkpt lat="44.06364" lon="5.94557">
        <ele>541</ele>
      </trkpt>
      <trkpt lat="44.06358" lon="5.94567">
        <ele>543</ele>
      </trkpt>
      <trkpt lat="44.06358" lon="5.94578">
        <ele>544</ele>
      </trkpt>
      <trkpt lat="44.06372" lon="5.94589">
        <ele>558</ele>
      </trkpt>
      <trkpt lat="44.06381" lon="5.94604">
        <ele>559</ele>
      </trkpt>
      <trkpt lat="44.06388" lon="5.94608">
        <ele>559</ele>
      </trkpt>
      <trkpt lat="44.06395" lon="5.94612">
        <ele>559</ele>
      </trkpt>
      <trkpt lat="44.06411" lon="5.94612">
        <ele>559</ele>
      </trkpt>
      <trkpt lat="44.06416" lon="5.94616">
        <ele>559</ele>
      </trkpt>
      <trkpt lat="44.06413" lon="5.94626">
        <ele>561</ele>
      </trkpt>
      <trkpt lat="44.06408" lon="5.94626">
        <ele>561</ele>
      </trkpt>
      <trkpt lat="44.06391" lon="5.9462">
        <ele>561</ele>
      </trkpt>
      <trkpt lat="44.0637" lon="5.94614">
        <ele>560</ele>
      </trkpt>
      <trkpt lat="44.06353" lon="5.94606">
        <ele>559</ele>
      </trkpt>
      <trkpt lat="44.06333" lon="5.946">
        <ele>558</ele>
      </trkpt>
      <trkpt lat="44.06319" lon="5.94598">
        <ele>559</ele>
      </trkpt>
      <trkpt lat="44.06298" lon="5.94599">
        <ele>560</ele>
      </trkpt>
      <trkpt lat="44.06287" lon="5.94598">
        <ele>560</ele>
      </trkpt>
      <trkpt lat="44.06276" lon="5.94596">
        <ele>559</ele>
      </trkpt>
      <trkpt lat="44.0626" lon="5.94594">
        <ele>557</ele>
      </trkpt>
      <trkpt lat="44.06244" lon="5.94594">
        <ele>557</ele>
      </trkpt>
      <trkpt lat="44.0623" lon="5.94598">
        <ele>561</ele>
      </trkpt>
      <trkpt lat="44.06217" lon="5.94594">
        <ele>562</ele>
      </trkpt>
      <trkpt lat="44.06205" lon="5.94585">
        <ele>562</ele>
      </trkpt>
      <trkpt lat="44.06189" lon="5.94579">
        <ele>548</ele>
      </trkpt>
      <trkpt lat="44.06174" lon="5.94568">
        <ele>549</ele>
      </trkpt>
      <trkpt lat="44.0616" lon="5.94557">
        <ele>547</ele>
      </trkpt>
      <trkpt lat="44.06149" lon="5.94548">
        <ele>545</ele>
      </trkpt>
      <trkpt lat="44.0614" lon="5.94541">
        <ele>543</ele>
      </trkpt>
      <trkpt lat="44.06135" lon="5.94535">
        <ele>543</ele>
      </trkpt>
      <trkpt lat="44.0613" lon="5.94535">
        <ele>543</ele>
      </trkpt>
      <trkpt lat="44.06119" lon="5.94529">
        <ele>542</ele>
      </trkpt>
      <trkpt lat="44.06112" lon="5.94536">
        <ele>543</ele>
      </trkpt>
      <trkpt lat="44.06106" lon="5.94547">
        <ele>544</ele>
      </trkpt>
      <trkpt lat="44.06099" lon="5.94562">
        <ele>546</ele>
      </trkpt>
      <trkpt lat="44.06092" lon="5.9459">
        <ele>555</ele>
      </trkpt>
      <trkpt lat="44.06088" lon="5.94605">
        <ele>558</ele>
      </trkpt>
      <trkpt lat="44.06082" lon="5.94621">
        <ele>552</ele>
      </trkpt>
      <trkpt lat="44.06075" lon="5.94637">
        <ele>554</ele>
      </trkpt>
      <trkpt lat="44.06072" lon="5.94643">
        <ele>555</ele>
      </trkpt>
      <trkpt lat="44.06071" lon="5.94661">
        <ele>559</ele>
      </trkpt>
      <trkpt lat="44.06075" lon="5.94662">
        <ele>561</ele>
      </trkpt>
      <trkpt lat="44.06082" lon="5.94652">
        <ele>559</ele>
      </trkpt>
      <trkpt lat="44.06095" lon="5.94638">
        <ele>564</ele>
      </trkpt>
      <trkpt lat="44.06125" lon="5.94609">
        <ele>562</ele>
      </trkpt>
      <trkpt lat="44.06135" lon="5.94608">
        <ele>562</ele>
      </trkpt>
      <trkpt lat="44.06163" lon="5.94613">
        <ele>563</ele>
      </trkpt>
      <trkpt lat="44.06179" lon="5.94623">
        <ele>566</ele>
      </trkpt>
      <trkpt lat="44.06213" lon="5.94639">
        <ele>568</ele>
      </trkpt>
      <trkpt lat="44.06224" lon="5.94643">
        <ele>569</ele>
      </trkpt>
      <trkpt lat="44.06247" lon="5.94643">
        <ele>570</ele>
      </trkpt>
      <trkpt lat="44.06286" lon="5.94651">
        <ele>567</ele>
      </trkpt>
      <trkpt lat="44.06302" lon="5.94657">
        <ele>568</ele>
      </trkpt>
      <trkpt lat="44.06327" lon="5.94664">
        <ele>572</ele>
      </trkpt>
      <trkpt lat="44.06341" lon="5.94668">
        <ele>576</ele>
      </trkpt>
      <trkpt lat="44.0635" lon="5.94672">
        <ele>577</ele>
      </trkpt>
      <trkpt lat="44.06353" lon="5.94677">
        <ele>578</ele>
      </trkpt>
      <trkpt lat="44.06341" lon="5.94688">
        <ele>579</ele>
      </trkpt>
      <trkpt lat="44.06323" lon="5.94687">
        <ele>582</ele>
      </trkpt>
      <trkpt lat="44.06289" lon="5.94687">
        <ele>585</ele>
      </trkpt>
      <trkpt lat="44.06249" lon="5.94686">
        <ele>585</ele>
      </trkpt>
      <trkpt lat="44.06192" lon="5.94685">
        <ele>587</ele>
      </trkpt>
      <trkpt lat="44.06163" lon="5.9469">
        <ele>584</ele>
      </trkpt>
      <trkpt lat="44.06144" lon="5.94696">
        <ele>585</ele>
      </trkpt>
      <trkpt lat="44.06142" lon="5.94699">
        <ele>586</ele>
      </trkpt>
      <trkpt lat="44.06144" lon="5.94704">
        <ele>586</ele>
      </trkpt>
      <trkpt lat="44.06172" lon="5.94707">
        <ele>590</ele>
      </trkpt>
      <trkpt lat="44.06203" lon="5.94723">
        <ele>592</ele>
      </trkpt>
      <trkpt lat="44.06228" lon="5.94739">
        <ele>595</ele>
      </trkpt>
      <trkpt lat="44.06234" lon="5.94743">
        <ele>596</ele>
      </trkpt>
      <trkpt lat="44.0626" lon="5.94756">
        <ele>604</ele>
      </trkpt>
      <trkpt lat="44.06273" lon="5.9476">
        <ele>606</ele>
      </trkpt>
      <trkpt lat="44.06277" lon="5.94762">
        <ele>606</ele>
      </trkpt>
      <trkpt lat="44.06298" lon="5.94769">
        <ele>606</ele>
      </trkpt>
      <trkpt lat="44.06325" lon="5.94779">
        <ele>606</ele>
      </trkpt>
      <trkpt lat="44.06328" lon="5.94781">
        <ele>606</ele>
      </trkpt>
      <trkpt lat="44.06351" lon="5.94794">
        <ele>603</ele>
      </trkpt>
      <trkpt lat="44.06372" lon="5.94805">
        <ele>603</ele>
      </trkpt>
      <trkpt lat="44.06403" lon="5.94826">
        <ele>603</ele>
      </trkpt>
      <trkpt lat="44.06435" lon="5.94846">
        <ele>606</ele>
      </trkpt>
      <trkpt lat="44.06463" lon="5.94866">
        <ele>606</ele>
      </trkpt>
      <trkpt lat="44.06479" lon="5.94874">
        <ele>605</ele>
      </trkpt>
      <trkpt lat="44.0651" lon="5.9489">
        <ele>598</ele>
      </trkpt>
      <trkpt lat="44.06526" lon="5.94904">
        <ele>598</ele>
      </trkpt>
      <trkpt lat="44.06552" lon="5.94925">
        <ele>605</ele>
      </trkpt>
      <trkpt lat="44.06578" lon="5.94948">
        <ele>605</ele>
      </trkpt>
      <trkpt lat="44.06605" lon="5.94979">
        <ele>601</ele>
      </trkpt>
      <trkpt lat="44.06618" lon="5.95">
        <ele>600</ele>
      </trkpt>
      <trkpt lat="44.06633" lon="5.95016">
        <ele>608</ele>
      </trkpt>
      <trkpt lat="44.06666" lon="5.95043">
        <ele>608</ele>
      </trkpt>
      <trkpt lat="44.06692" lon="5.95067">
        <ele>602</ele>
      </trkpt>
      <trkpt lat="44.06701" lon="5.95074">
        <ele>601</ele>
      </trkpt>
      <trkpt lat="44.06734" lon="5.95101">
        <ele>607</ele>
      </trkpt>
      <trkpt lat="44.06739" lon="5.95104">
        <ele>607</ele>
      </trkpt>
      <trkpt lat="44.06766" lon="5.95125">
        <ele>604</ele>
      </trkpt>
      <trkpt lat="44.06792" lon="5.95145">
        <ele>604</ele>
      </trkpt>
      <trkpt lat="44.06801" lon="5.95149">
        <ele>604</ele>
      </trkpt>
      <trkpt lat="44.0682" lon="5.95163">
        <ele>604</ele>
      </trkpt>
      <trkpt lat="44.06835" lon="5.95179">
        <ele>606</ele>
      </trkpt>
      <trkpt lat="44.06852" lon="5.95195">
        <ele>607</ele>
      </trkpt>
      <trkpt lat="44.06866" lon="5.95213">
        <ele>608</ele>
      </trkpt>
      <trkpt lat="44.06871" lon="5.95218">
        <ele>608</ele>
      </trkpt>
      <trkpt lat="44.06885" lon="5.95255">
        <ele>612</ele>
      </trkpt>
      <trkpt lat="44.06898" lon="5.95292">
        <ele>613</ele>
      </trkpt>
      <trkpt lat="44.06901" lon="5.95307">
        <ele>613</ele>
      </trkpt>
      <trkpt lat="44.06904" lon="5.95333">
        <ele>611</ele>
      </trkpt>
      <trkpt lat="44.0691" lon="5.95351">
        <ele>614</ele>
      </trkpt>
      <trkpt lat="44.06915" lon="5.95376">
        <ele>616</ele>
      </trkpt>
      <trkpt lat="44.06913" lon="5.95399">
        <ele>615</ele>
      </trkpt>
      <trkpt lat="44.06916" lon="5.95418">
        <ele>612</ele>
      </trkpt>
      <trkpt lat="44.06919" lon="5.9544">
        <ele>609</ele>
      </trkpt>
      <trkpt lat="44.06917" lon="5.95462">
        <ele>617</ele>
      </trkpt>
      <trkpt lat="44.06918" lon="5.95486">
        <ele>609</ele>
      </trkpt>
      <trkpt lat="44.06926" lon="5.95519">
        <ele>610</ele>
      </trkpt>
      <trkpt lat="44.06932" lon="5.95546">
        <ele>611</ele>
      </trkpt>
      <trkpt lat="44.06929" lon="5.95563">
        <ele>612</ele>
      </trkpt>
      <trkpt lat="44.06928" lon="5.95592">
        <ele>615</ele>
      </trkpt>
      <trkpt lat="44.06931" lon="5.95604">
        <ele>615</ele>
      </trkpt>
      <trkpt lat="44.06931" lon="5.95614">
        <ele>615</ele>
      </trkpt>
      <trkpt lat="44.06937" lon="5.95651">
        <ele>617</ele>
      </trkpt>
      <trkpt lat="44.0694" lon="5.9566">
        <ele>617</ele>
      </trkpt>
      <trkpt lat="44.06946" lon="5.95685">
        <ele>618</ele>
      </trkpt>
      <trkpt lat="44.06949" lon="5.9571">
        <ele>618</ele>
      </trkpt>
      <trkpt lat="44.0695" lon="5.95726">
        <ele>618</ele>
      </trkpt>
      <trkpt lat="44.0695" lon="5.95751">
        <ele>618</ele>
      </trkpt>
      <trkpt lat="44.06948" lon="5.95777">
        <ele>617</ele>
      </trkpt>
      <trkpt lat="44.06947" lon="5.95793">
        <ele>617</ele>
      </trkpt>
      <trkpt lat="44.06954" lon="5.95809">
        <ele>616</ele>
      </trkpt>
      <trkpt lat="44.06969" lon="5.95821">
        <ele>616</ele>
      </trkpt>
      <trkpt lat="44.06978" lon="5.95827">
        <ele>616</ele>
      </trkpt>
      <trkpt lat="44.06988" lon="5.9584">
        <ele>613</ele>
      </trkpt>
      <trkpt lat="44.06993" lon="5.95851">
        <ele>613</ele>
      </trkpt>
      <trkpt lat="44.06998" lon="5.95863">
        <ele>611</ele>
      </trkpt>
      <trkpt lat="44.07005" lon="5.95874">
        <ele>616</ele>
      </trkpt>
      <trkpt lat="44.07011" lon="5.95878">
        <ele>616</ele>
      </trkpt>
      <trkpt lat="44.07014" lon="5.95884">
        <ele>615</ele>
      </trkpt>
      <trkpt lat="44.07024" lon="5.95862">
        <ele>580</ele>
      </trkpt>
      <trkpt lat="44.07039" lon="5.9584">
        <ele>579</ele>
      </trkpt>
      <trkpt lat="44.07081" lon="5.95827">
        <ele>585</ele>
      </trkpt>
      <trkpt lat="44.07115" lon="5.95809">
        <ele>586</ele>
      </trkpt>
      <trkpt lat="44.07158" lon="5.95803">
        <ele>587</ele>
      </trkpt>
      <trkpt lat="44.0719" lon="5.95779">
        <ele>579</ele>
      </trkpt>
      <trkpt lat="44.07215" lon="5.9576">
        <ele>579</ele>
      </trkpt>
      <trkpt lat="44.0722" lon="5.95731">
        <ele>591</ele>
      </trkpt>
      <trkpt lat="44.07268" lon="5.95659">
        <ele>591</ele>
      </trkpt>
      <trkpt lat="44.07309" lon="5.95604">
        <ele>592</ele>
      </trkpt>
      <trkpt lat="44.07361" lon="5.95583">
        <ele>591</ele>
      </trkpt>
      <trkpt lat="44.07392" lon="5.95591">
        <ele>586</ele>
      </trkpt>
      <trkpt lat="44.07433" lon="5.95602">
        <ele>586</ele>
      </trkpt>
      <trkpt lat="44.07488" lon="5.95639">
        <ele>588</ele>
      </trkpt>
      <trkpt lat="44.07514" lon="5.9566">
        <ele>588</ele>
      </trkpt>
      <trkpt lat="44.07537" lon="5.95667">
        <ele>588</ele>
      </trkpt>
      <trkpt lat="44.07555" lon="5.95677">
        <ele>589</ele>
      </trkpt>
      <trkpt lat="44.07568" lon="5.95683">
        <ele>589</ele>
      </trkpt>
      <trkpt lat="44.07582" lon="5.95687">
        <ele>592</ele>
      </trkpt>
      <trkpt lat="44.07613" lon="5.95706">
        <ele>593</ele>
      </trkpt>
      <trkpt lat="44.07645" lon="5.95736">
        <ele>594</ele>
      </trkpt>
      <trkpt lat="44.07659" lon="5.95737">
        <ele>594</ele>
      </trkpt>
      <trkpt lat="44.07686" lon="5.95741">
        <ele>595</ele>
      </trkpt>
      <trkpt lat="44.07726" lon="5.95737">
        <ele>594</ele>
      </trkpt>
      <trkpt lat="44.07756" lon="5.95779">
        <ele>594</ele>
      </trkpt>
      <trkpt lat="44.07765" lon="5.95734">
        <ele>590</ele>
      </trkpt>
      <trkpt lat="44.07788" lon="5.95746">
        <ele>589</ele>
      </trkpt>
      <trkpt lat="44.07826" lon="5.95797">
        <ele>590</ele>
      </trkpt>
      <trkpt lat="44.07879" lon="5.95903">
        <ele>595</ele>
      </trkpt>
      <trkpt lat="44.07888" lon="5.9587">
        <ele>595</ele>
      </trkpt>
      <trkpt lat="44.07892" lon="5.95846">
        <ele>595</ele>
      </trkpt>
      <trkpt lat="44.07894" lon="5.95835">
        <ele>595</ele>
      </trkpt>
      <trkpt lat="44.07909" lon="5.95819">
        <ele>595</ele>
      </trkpt>
      <trkpt lat="44.07938" lon="5.95812">
        <ele>594</ele>
      </trkpt>
      <trkpt lat="44.07951" lon="5.95809">
        <ele>594</ele>
      </trkpt>
      <trkpt lat="44.07958" lon="5.95807">
        <ele>594</ele>
      </trkpt>
      <trkpt lat="44.07963" lon="5.95801">
        <ele>594</ele>
      </trkpt>
      <trkpt lat="44.07961" lon="5.958">
        <ele>594</ele>
      </trkpt>
      <trkpt lat="44.07966" lon="5.958">
        <ele>594</ele>
      </trkpt>
      <trkpt lat="44.07985" lon="5.95801">
        <ele>594</ele>
      </trkpt>
      <trkpt lat="44.08014" lon="5.958">
        <ele>595</ele>
      </trkpt>
      <trkpt lat="44.08039" lon="5.95804">
        <ele>595</ele>
      </trkpt>
      <trkpt lat="44.08065" lon="5.95812">
        <ele>594</ele>
      </trkpt>
      <trkpt lat="44.08092" lon="5.95829">
        <ele>591</ele>
      </trkpt>
      <trkpt lat="44.08109" lon="5.95847">
        <ele>587</ele>
      </trkpt>
      <trkpt lat="44.0812" lon="5.95872">
        <ele>585</ele>
      </trkpt>
      <trkpt lat="44.08134" lon="5.95903">
        <ele>584</ele>
      </trkpt>
      <trkpt lat="44.08147" lon="5.95922">
        <ele>583</ele>
      </trkpt>
      <trkpt lat="44.0816" lon="5.95924">
        <ele>584</ele>
      </trkpt>
      <trkpt lat="44.08172" lon="5.9591">
        <ele>582</ele>
      </trkpt>
      <trkpt lat="44.08178" lon="5.95886">
        <ele>578</ele>
      </trkpt>
      <trkpt lat="44.08181" lon="5.9586">
        <ele>578</ele>
      </trkpt>
      <trkpt lat="44.08187" lon="5.95823">
        <ele>575</ele>
      </trkpt>
      <trkpt lat="44.08186" lon="5.958">
        <ele>573</ele>
      </trkpt>
      <trkpt lat="44.08177" lon="5.95772">
        <ele>573</ele>
      </trkpt>
      <trkpt lat="44.08166" lon="5.95749">
        <ele>577</ele>
      </trkpt>
      <trkpt lat="44.0816" lon="5.95726">
        <ele>580</ele>
      </trkpt>
      <trkpt lat="44.08153" lon="5.95714">
        <ele>580</ele>
      </trkpt>
      <trkpt lat="44.08145" lon="5.95693">
        <ele>579</ele>
      </trkpt>
      <trkpt lat="44.08135" lon="5.95666">
        <ele>577</ele>
      </trkpt>
      <trkpt lat="44.08134" lon="5.95663">
        <ele>577</ele>
      </trkpt>
      <trkpt lat="44.08129" lon="5.9564">
        <ele>578</ele>
      </trkpt>
      <trkpt lat="44.08144" lon="5.95627">
        <ele>576</ele>
      </trkpt>
      <trkpt lat="44.08161" lon="5.95614">
        <ele>575</ele>
      </trkpt>
      <trkpt lat="44.08178" lon="5.95598">
        <ele>566</ele>
      </trkpt>
      <trkpt lat="44.08188" lon="5.95576">
        <ele>565</ele>
      </trkpt>
      <trkpt lat="44.08187" lon="5.95544">
        <ele>565</ele>
      </trkpt>
      <trkpt lat="44.08188" lon="5.95517">
        <ele>565</ele>
      </trkpt>
      <trkpt lat="44.08202" lon="5.95481">
        <ele>564</ele>
      </trkpt>
      <trkpt lat="44.08216" lon="5.95457">
        <ele>562</ele>
      </trkpt>
      <trkpt lat="44.08227" lon="5.95426">
        <ele>561</ele>
      </trkpt>
      <trkpt lat="44.08234" lon="5.95395">
        <ele>561</ele>
      </trkpt>
      <trkpt lat="44.08234" lon="5.9539">
        <ele>561</ele>
      </trkpt>
      <trkpt lat="44.08243" lon="5.95364">
        <ele>561</ele>
      </trkpt>
      <trkpt lat="44.08254" lon="5.95352">
        <ele>558</ele>
      </trkpt>
      <trkpt lat="44.08267" lon="5.95344">
        <ele>558</ele>
      </trkpt>
      <trkpt lat="44.08291" lon="5.95335">
        <ele>557</ele>
      </trkpt>
      <trkpt lat="44.08335" lon="5.95312">
        <ele>559</ele>
      </trkpt>
      <trkpt lat="44.08374" lon="5.95292">
        <ele>559</ele>
      </trkpt>
      <trkpt lat="44.08414" lon="5.9527">
        <ele>559</ele>
      </trkpt>
      <trkpt lat="44.08445" lon="5.95256">
        <ele>557</ele>
      </trkpt>
      <trkpt lat="44.08466" lon="5.95243">
        <ele>560</ele>
      </trkpt>
      <trkpt lat="44.08504" lon="5.95227">
        <ele>560</ele>
      </trkpt>
      <trkpt lat="44.0852" lon="5.95218">
        <ele>561</ele>
      </trkpt>
      <trkpt lat="44.08557" lon="5.95199">
        <ele>563</ele>
      </trkpt>
      <trkpt lat="44.08591" lon="5.95179">
        <ele>564</ele>
      </trkpt>
      <trkpt lat="44.08602" lon="5.95173">
        <ele>564</ele>
      </trkpt>
      <trkpt lat="44.08624" lon="5.95162">
        <ele>565</ele>
      </trkpt>
      <trkpt lat="44.08646" lon="5.95152">
        <ele>565</ele>
      </trkpt>
      <trkpt lat="44.08669" lon="5.95144">
        <ele>563</ele>
      </trkpt>
      <trkpt lat="44.08692" lon="5.95138">
        <ele>563</ele>
      </trkpt>
      <trkpt lat="44.0871" lon="5.95132">
        <ele>563</ele>
      </trkpt>
      <trkpt lat="44.08727" lon="5.95129">
        <ele>563</ele>
      </trkpt>
      <trkpt lat="44.08744" lon="5.95124">
        <ele>563</ele>
      </trkpt>
      <trkpt lat="44.08762" lon="5.9512">
        <ele>561</ele>
      </trkpt>
      <trkpt lat="44.08781" lon="5.95116">
        <ele>561</ele>
      </trkpt>
      <trkpt lat="44.08815" lon="5.95107">
        <ele>561</ele>
      </trkpt>
      <trkpt lat="44.08836" lon="5.95102">
        <ele>561</ele>
      </trkpt>
      <trkpt lat="44.08859" lon="5.95095">
        <ele>560</ele>
      </trkpt>
      <trkpt lat="44.08886" lon="5.95088">
        <ele>559</ele>
      </trkpt>
      <trkpt lat="44.08894" lon="5.95092">
        <ele>559</ele>
      </trkpt>
      <trkpt lat="44.08895" lon="5.95106">
        <ele>559</ele>
      </trkpt>
      <trkpt lat="44.0889" lon="5.95135">
        <ele>558</ele>
      </trkpt>
      <trkpt lat="44.08886" lon="5.95162">
        <ele>557</ele>
      </trkpt>
      <trkpt lat="44.08882" lon="5.95183">
        <ele>554</ele>
      </trkpt>
      <trkpt lat="44.08883" lon="5.95204">
        <ele>554</ele>
      </trkpt>
      <trkpt lat="44.08891" lon="5.95218">
        <ele>553</ele>
      </trkpt>
      <trkpt lat="44.08896" lon="5.95227">
        <ele>553</ele>
      </trkpt>
      <trkpt lat="44.08898" lon="5.95244">
        <ele>552</ele>
      </trkpt>
      <trkpt lat="44.08894" lon="5.95259">
        <ele>550</ele>
      </trkpt>
      <trkpt lat="44.08889" lon="5.95279">
        <ele>550</ele>
      </trkpt>
      <trkpt lat="44.08892" lon="5.95299">
        <ele>549</ele>
      </trkpt>
      <trkpt lat="44.08898" lon="5.95316">
        <ele>548</ele>
      </trkpt>
      <trkpt lat="44.08903" lon="5.95333">
        <ele>546</ele>
      </trkpt>
      <trkpt lat="44.08911" lon="5.95354">
        <ele>546</ele>
      </trkpt>
      <trkpt lat="44.08921" lon="5.95371">
        <ele>543</ele>
      </trkpt>
      <trkpt lat="44.08927" lon="5.95389">
        <ele>543</ele>
      </trkpt>
      <trkpt lat="44.08927" lon="5.9542">
        <ele>541</ele>
      </trkpt>
      <trkpt lat="44.08931" lon="5.95454">
        <ele>541</ele>
      </trkpt>
      <trkpt lat="44.08939" lon="5.95475">
        <ele>541</ele>
      </trkpt>
      <trkpt lat="44.08961" lon="5.95528">
        <ele>542</ele>
      </trkpt>
      <trkpt lat="44.08984" lon="5.95587">
        <ele>545</ele>
      </trkpt>
      <trkpt lat="44.08992" lon="5.95615">
        <ele>545</ele>
      </trkpt>
      <trkpt lat="44.08985" lon="5.95663">
        <ele>546</ele>
      </trkpt>
      <trkpt lat="44.08964" lon="5.95714">
        <ele>546</ele>
      </trkpt>
      <trkpt lat="44.0896" lon="5.95732">
        <ele>547</ele>
      </trkpt>
      <trkpt lat="44.08959" lon="5.95742">
        <ele>547</ele>
      </trkpt>
      <trkpt lat="44.08952" lon="5.95801">
        <ele>548</ele>
      </trkpt>
      <trkpt lat="44.08952" lon="5.95854">
        <ele>550</ele>
      </trkpt>
      <trkpt lat="44.08956" lon="5.95885">
        <ele>551</ele>
      </trkpt>
      <trkpt lat="44.08975" lon="5.95945">
        <ele>555</ele>
      </trkpt>
      <trkpt lat="44.08982" lon="5.95964">
        <ele>556</ele>
      </trkpt>
      <trkpt lat="44.08975" lon="5.96005">
        <ele>560</ele>
      </trkpt>
      <trkpt lat="44.08953" lon="5.96055">
        <ele>560</ele>
      </trkpt>
      <trkpt lat="44.08933" lon="5.96106">
        <ele>564</ele>
      </trkpt>
      <trkpt lat="44.08903" lon="5.96178">
        <ele>566</ele>
      </trkpt>
      <trkpt lat="44.08898" lon="5.96188">
        <ele>566</ele>
      </trkpt>
      <trkpt lat="44.08879" lon="5.96238">
        <ele>567</ele>
      </trkpt>
      <trkpt lat="44.08853" lon="5.96307">
        <ele>574</ele>
      </trkpt>
      <trkpt lat="44.08845" lon="5.96343">
        <ele>575</ele>
      </trkpt>
      <trkpt lat="44.08843" lon="5.9637">
        <ele>576</ele>
      </trkpt>
      <trkpt lat="44.08843" lon="5.96379">
        <ele>576</ele>
      </trkpt>
      <trkpt lat="44.08852" lon="5.96408">
        <ele>575</ele>
      </trkpt>
      <trkpt lat="44.0886" lon="5.96419">
        <ele>575</ele>
      </trkpt>
      <trkpt lat="44.08883" lon="5.96445">
        <ele>578</ele>
      </trkpt>
      <trkpt lat="44.08896" lon="5.96463">
        <ele>578</ele>
      </trkpt>
      <trkpt lat="44.08901" lon="5.96473">
        <ele>578</ele>
      </trkpt>
      <trkpt lat="44.089" lon="5.96473">
        <ele>578</ele>
      </trkpt>
      <trkpt lat="44.08901" lon="5.96474">
        <ele>578</ele>
      </trkpt>
      <trkpt lat="44.0893" lon="5.96489">
        <ele>584</ele>
      </trkpt>
      <trkpt lat="44.08948" lon="5.965">
        <ele>585</ele>
      </trkpt>
      <trkpt lat="44.08967" lon="5.96511">
        <ele>583</ele>
      </trkpt>
      <trkpt lat="44.08986" lon="5.96523">
        <ele>583</ele>
      </trkpt>
      <trkpt lat="44.08998" lon="5.96527">
        <ele>583</ele>
      </trkpt>
      <trkpt lat="44.09011" lon="5.9653">
        <ele>585</ele>
      </trkpt>
      <trkpt lat="44.09029" lon="5.96538">
        <ele>585</ele>
      </trkpt>
      <trkpt lat="44.09056" lon="5.96544">
        <ele>585</ele>
      </trkpt>
      <trkpt lat="44.09091" lon="5.96557">
        <ele>586</ele>
      </trkpt>
      <trkpt lat="44.09111" lon="5.96557">
        <ele>587</ele>
      </trkpt>
      <trkpt lat="44.09135" lon="5.96562">
        <ele>587</ele>
      </trkpt>
      <trkpt lat="44.09153" lon="5.96571">
        <ele>587</ele>
      </trkpt>
      <trkpt lat="44.09156" lon="5.96572">
        <ele>586</ele>
      </trkpt>
      <trkpt lat="44.09166" lon="5.96583">
        <ele>584</ele>
      </trkpt>
      <trkpt lat="44.09161" lon="5.96619">
        <ele>584</ele>
      </trkpt>
      <trkpt lat="44.09156" lon="5.96627">
        <ele>584</ele>
      </trkpt>
      <trkpt lat="44.09138" lon="5.9664">
        <ele>584</ele>
      </trkpt>
      <trkpt lat="44.09125" lon="5.96642">
        <ele>583</ele>
      </trkpt>
      <trkpt lat="44.09108" lon="5.96636">
        <ele>582</ele>
      </trkpt>
      <trkpt lat="44.09088" lon="5.96638">
        <ele>582</ele>
      </trkpt>
      <trkpt lat="44.09073" lon="5.9664">
        <ele>579</ele>
      </trkpt>
      <trkpt lat="44.09061" lon="5.96648">
        <ele>579</ele>
      </trkpt>
      <trkpt lat="44.09056" lon="5.96664">
        <ele>579</ele>
      </trkpt>
      <trkpt lat="44.09056" lon="5.96666">
        <ele>579</ele>
      </trkpt>
      <trkpt lat="44.0905" lon="5.96679">
        <ele>578</ele>
      </trkpt>
      <trkpt lat="44.09036" lon="5.96694">
        <ele>578</ele>
      </trkpt>
      <trkpt lat="44.09023" lon="5.9671">
        <ele>577</ele>
      </trkpt>
      <trkpt lat="44.09008" lon="5.9672">
        <ele>577</ele>
      </trkpt>
      <trkpt lat="44.0899" lon="5.96726">
        <ele>573</ele>
      </trkpt>
      <trkpt lat="44.08979" lon="5.96737">
        <ele>573</ele>
      </trkpt>
      <trkpt lat="44.08977" lon="5.96738">
        <ele>572</ele>
      </trkpt>
      <trkpt lat="44.0896" lon="5.96744">
        <ele>572</ele>
      </trkpt>
      <trkpt lat="44.08946" lon="5.96743">
        <ele>571</ele>
      </trkpt>
      <trkpt lat="44.08932" lon="5.96745">
        <ele>569</ele>
      </trkpt>
      <trkpt lat="44.08917" lon="5.96748">
        <ele>567</ele>
      </trkpt>
      <trkpt lat="44.08906" lon="5.96753">
        <ele>565</ele>
      </trkpt>
      <trkpt lat="44.08892" lon="5.96765">
        <ele>564</ele>
      </trkpt>
      <trkpt lat="44.08884" lon="5.96781">
        <ele>564</ele>
      </trkpt>
      <trkpt lat="44.08884" lon="5.96798">
        <ele>564</ele>
      </trkpt>
      <trkpt lat="44.08894" lon="5.96815">
        <ele>565</ele>
      </trkpt>
      <trkpt lat="44.089" lon="5.96831">
        <ele>566</ele>
      </trkpt>
      <trkpt lat="44.08896" lon="5.9685">
        <ele>570</ele>
      </trkpt>
      <trkpt lat="44.08886" lon="5.96853">
        <ele>570</ele>
      </trkpt>
      <trkpt lat="44.08879" lon="5.96851">
        <ele>570</ele>
      </trkpt>
      <trkpt lat="44.08865" lon="5.96849">
        <ele>569</ele>
      </trkpt>
      <trkpt lat="44.0885" lon="5.96869">
        <ele>570</ele>
      </trkpt>
      <trkpt lat="44.0883" lon="5.96881">
        <ele>569</ele>
      </trkpt>
      <trkpt lat="44.0881" lon="5.9688">
        <ele>568</ele>
      </trkpt>
      <trkpt lat="44.08795" lon="5.96892">
        <ele>568</ele>
      </trkpt>
      <trkpt lat="44.08785" lon="5.96914">
        <ele>569</ele>
      </trkpt>
      <trkpt lat="44.08764" lon="5.96937">
        <ele>577</ele>
      </trkpt>
      <trkpt lat="44.08752" lon="5.96959">
        <ele>580</ele>
      </trkpt>
      <trkpt lat="44.08729" lon="5.96979">
        <ele>577</ele>
      </trkpt>
      <trkpt lat="44.08686" lon="5.97011">
        <ele>585</ele>
      </trkpt>
      <trkpt lat="44.08652" lon="5.97035">
        <ele>581</ele>
      </trkpt>
      <trkpt lat="44.08639" lon="5.97047">
        <ele>582</ele>
      </trkpt>
      <trkpt lat="44.08627" lon="5.97062">
        <ele>582</ele>
      </trkpt>
      <trkpt lat="44.08616" lon="5.97077">
        <ele>581</ele>
      </trkpt>
      <trkpt lat="44.08601" lon="5.97113">
        <ele>589</ele>
      </trkpt>
      <trkpt lat="44.08595" lon="5.97144">
        <ele>590</ele>
      </trkpt>
      <trkpt lat="44.08593" lon="5.97154">
        <ele>589</ele>
      </trkpt>
      <trkpt lat="44.08586" lon="5.9719">
        <ele>597</ele>
      </trkpt>
      <trkpt lat="44.08577" lon="5.9722">
        <ele>586</ele>
      </trkpt>
      <trkpt lat="44.08566" lon="5.97258">
        <ele>592</ele>
      </trkpt>
      <trkpt lat="44.08565" lon="5.97266">
        <ele>591</ele>
      </trkpt>
      <trkpt lat="44.08567" lon="5.97306">
        <ele>591</ele>
      </trkpt>
      <trkpt lat="44.08568" lon="5.97311">
        <ele>592</ele>
      </trkpt>
      <trkpt lat="44.08578" lon="5.97351">
        <ele>595</ele>
      </trkpt>
      <trkpt lat="44.08579" lon="5.97357">
        <ele>595</ele>
      </trkpt>
      <trkpt lat="44.08581" lon="5.97375">
        <ele>594</ele>
      </trkpt>
      <trkpt lat="44.08567" lon="5.974">
        <ele>595</ele>
      </trkpt>
      <trkpt lat="44.08563" lon="5.97408">
        <ele>594</ele>
      </trkpt>
      <trkpt lat="44.08548" lon="5.97449">
        <ele>596</ele>
      </trkpt>
      <trkpt lat="44.08532" lon="5.97499">
        <ele>595</ele>
      </trkpt>
      <trkpt lat="44.0852" lon="5.97528">
        <ele>599</ele>
      </trkpt>
      <trkpt lat="44.0852" lon="5.97532">
        <ele>599</ele>
      </trkpt>
      <trkpt lat="44.08518" lon="5.97559">
        <ele>600</ele>
      </trkpt>
      <trkpt lat="44.08517" lon="5.97583">
        <ele>598</ele>
      </trkpt>
      <trkpt lat="44.08519" lon="5.97609">
        <ele>597</ele>
      </trkpt>
      <trkpt lat="44.08526" lon="5.97631">
        <ele>597</ele>
      </trkpt>
      <trkpt lat="44.08536" lon="5.97648">
        <ele>596</ele>
      </trkpt>
      <trkpt lat="44.08548" lon="5.97669">
        <ele>590</ele>
      </trkpt>
      <trkpt lat="44.08556" lon="5.97685">
        <ele>590</ele>
      </trkpt>
      <trkpt lat="44.08566" lon="5.97703">
        <ele>589</ele>
      </trkpt>
      <trkpt lat="44.08572" lon="5.9772">
        <ele>588</ele>
      </trkpt>
      <trkpt lat="44.08579" lon="5.97736">
        <ele>587</ele>
      </trkpt>
      <trkpt lat="44.0859" lon="5.97757">
        <ele>586</ele>
      </trkpt>
      <trkpt lat="44.086" lon="5.97775">
        <ele>586</ele>
      </trkpt>
      <trkpt lat="44.08609" lon="5.97794">
        <ele>586</ele>
      </trkpt>
      <trkpt lat="44.08619" lon="5.97817">
        <ele>585</ele>
      </trkpt>
      <trkpt lat="44.08627" lon="5.97844">
        <ele>582</ele>
      </trkpt>
      <trkpt lat="44.08636" lon="5.97866">
        <ele>581</ele>
      </trkpt>
      <trkpt lat="44.08648" lon="5.9789">
        <ele>581</ele>
      </trkpt>
      <trkpt lat="44.0866" lon="5.97904">
        <ele>580</ele>
      </trkpt>
      <trkpt lat="44.08675" lon="5.97914">
        <ele>580</ele>
      </trkpt>
      <trkpt lat="44.08689" lon="5.97922">
        <ele>577</ele>
      </trkpt>
      <trkpt lat="44.08701" lon="5.97931">
        <ele>577</ele>
      </trkpt>
      <trkpt lat="44.08709" lon="5.97937">
        <ele>577</ele>
      </trkpt>
      <trkpt lat="44.08723" lon="5.9795">
        <ele>576</ele>
      </trkpt>
      <trkpt lat="44.08736" lon="5.97959">
        <ele>575</ele>
      </trkpt>
      <trkpt lat="44.08746" lon="5.97965">
        <ele>575</ele>
      </trkpt>
      <trkpt lat="44.08762" lon="5.97968">
        <ele>571</ele>
      </trkpt>
      <trkpt lat="44.08781" lon="5.9797">
        <ele>571</ele>
      </trkpt>
      <trkpt lat="44.08802" lon="5.97975">
        <ele>571</ele>
      </trkpt>
      <trkpt lat="44.08817" lon="5.9798">
        <ele>570</ele>
      </trkpt>
      <trkpt lat="44.08837" lon="5.97987">
        <ele>568</ele>
      </trkpt>
      <trkpt lat="44.08849" lon="5.97991">
        <ele>569</ele>
      </trkpt>
      <trkpt lat="44.08867" lon="5.97995">
        <ele>569</ele>
      </trkpt>
      <trkpt lat="44.08878" lon="5.97996">
        <ele>570</ele>
      </trkpt>
      <trkpt lat="44.08883" lon="5.98002">
        <ele>565</ele>
      </trkpt>
      <trkpt lat="44.08885" lon="5.98009">
        <ele>565</ele>
      </trkpt>
      <trkpt lat="44.08885" lon="5.98011">
        <ele>565</ele>
      </trkpt>
      <trkpt lat="44.08882" lon="5.98031">
        <ele>564</ele>
      </trkpt>
      <trkpt lat="44.08883" lon="5.9804">
        <ele>564</ele>
      </trkpt>
      <trkpt lat="44.08886" lon="5.98054">
        <ele>563</ele>
      </trkpt>
      <trkpt lat="44.08887" lon="5.98071">
        <ele>563</ele>
      </trkpt>
      <trkpt lat="44.08886" lon="5.98089">
        <ele>559</ele>
      </trkpt>
      <trkpt lat="44.08886" lon="5.98105">
        <ele>559</ele>
      </trkpt>
      <trkpt lat="44.08886" lon="5.9812">
        <ele>558</ele>
      </trkpt>
      <trkpt lat="44.08886" lon="5.98137">
        <ele>558</ele>
      </trkpt>
      <trkpt lat="44.08884" lon="5.98153">
        <ele>557</ele>
      </trkpt>
      <trkpt lat="44.08885" lon="5.98169">
        <ele>555</ele>
      </trkpt>
      <trkpt lat="44.08883" lon="5.98172">
        <ele>555</ele>
      </trkpt>
      <trkpt lat="44.08885" lon="5.98161">
        <ele>557</ele>
      </trkpt>
      <trkpt lat="44.08885" lon="5.98162">
        <ele>557</ele>
      </trkpt>
      <trkpt lat="44.08887" lon="5.98175">
        <ele>555</ele>
      </trkpt>
      <trkpt lat="44.08889" lon="5.98194">
        <ele>555</ele>
      </trkpt>
      <trkpt lat="44.08892" lon="5.98214">
        <ele>554</ele>
      </trkpt>
      <trkpt lat="44.08891" lon="5.98245">
        <ele>552</ele>
      </trkpt>
      <trkpt lat="44.08894" lon="5.98253">
        <ele>550</ele>
      </trkpt>
      <trkpt lat="44.089" lon="5.98253">
        <ele>549</ele>
      </trkpt>
      <trkpt lat="44.08911" lon="5.98247">
        <ele>547</ele>
      </trkpt>
      <trkpt lat="44.0892" lon="5.98244">
        <ele>547</ele>
      </trkpt>
      <trkpt lat="44.08932" lon="5.98231">
        <ele>550</ele>
      </trkpt>
      <trkpt lat="44.08942" lon="5.98211">
        <ele>553</ele>
      </trkpt>
      <trkpt lat="44.08956" lon="5.98212">
        <ele>553</ele>
      </trkpt>
      <trkpt lat="44.08969" lon="5.98201">
        <ele>554</ele>
      </trkpt>
      <trkpt lat="44.08988" lon="5.98167">
        <ele>557</ele>
      </trkpt>
      <trkpt lat="44.08999" lon="5.98158">
        <ele>559</ele>
      </trkpt>
      <trkpt lat="44.09005" lon="5.98159">
        <ele>561</ele>
      </trkpt>
      <trkpt lat="44.09015" lon="5.98156">
        <ele>562</ele>
      </trkpt>
      <trkpt lat="44.09019" lon="5.98157">
        <ele>562</ele>
      </trkpt>
      <trkpt lat="44.09029" lon="5.98135">
        <ele>564</ele>
      </trkpt>
      <trkpt lat="44.09039" lon="5.98093">
        <ele>566</ele>
      </trkpt>
      <trkpt lat="44.09053" lon="5.98054">
        <ele>572</ele>
      </trkpt>
      <trkpt lat="44.09054" lon="5.98044">
        <ele>573</ele>
      </trkpt>
      <trkpt lat="44.09058" lon="5.98033">
        <ele>573</ele>
      </trkpt>
      <trkpt lat="44.09061" lon="5.98019">
        <ele>574</ele>
      </trkpt>
      <trkpt lat="44.09054" lon="5.98017">
        <ele>574</ele>
      </trkpt>
      <trkpt lat="44.09054" lon="5.98017">
        <ele>574</ele>
      </trkpt>
      <trkpt lat="44.09065" lon="5.98015">
        <ele>574</ele>
      </trkpt>
      <trkpt lat="44.09085" lon="5.98006">
        <ele>576</ele>
      </trkpt>
      <trkpt lat="44.09099" lon="5.97991">
        <ele>580</ele>
      </trkpt>
      <trkpt lat="44.09118" lon="5.97972">
        <ele>581</ele>
      </trkpt>
      <trkpt lat="44.09125" lon="5.97962">
        <ele>582</ele>
      </trkpt>
      <trkpt lat="44.09136" lon="5.97944">
        <ele>583</ele>
      </trkpt>
      <trkpt lat="44.09141" lon="5.97938">
        <ele>583</ele>
      </trkpt>
      <trkpt lat="44.09156" lon="5.9792">
        <ele>584</ele>
      </trkpt>
      <trkpt lat="44.09165" lon="5.97911">
        <ele>587</ele>
      </trkpt>
      <trkpt lat="44.0918" lon="5.97892">
        <ele>591</ele>
      </trkpt>
      <trkpt lat="44.09183" lon="5.97888">
        <ele>592</ele>
      </trkpt>
      <trkpt lat="44.092" lon="5.97868">
        <ele>594</ele>
      </trkpt>
      <trkpt lat="44.09215" lon="5.97862">
        <ele>594</ele>
      </trkpt>
      <trkpt lat="44.09225" lon="5.97862">
        <ele>594</ele>
      </trkpt>
      <trkpt lat="44.09237" lon="5.97854">
        <ele>594</ele>
      </trkpt>
      <trkpt lat="44.09254" lon="5.97833">
        <ele>596</ele>
      </trkpt>
      <trkpt lat="44.09269" lon="5.97812">
        <ele>600</ele>
      </trkpt>
      <trkpt lat="44.09273" lon="5.97796">
        <ele>602</ele>
      </trkpt>
      <trkpt lat="44.09279" lon="5.97786">
        <ele>602</ele>
      </trkpt>
      <trkpt lat="44.09291" lon="5.97776">
        <ele>603</ele>
      </trkpt>
      <trkpt lat="44.09304" lon="5.97775">
        <ele>603</ele>
      </trkpt>
      <trkpt lat="44.09312" lon="5.97773">
        <ele>604</ele>
      </trkpt>
      <trkpt lat="44.09315" lon="5.97768">
        <ele>604</ele>
      </trkpt>
      <trkpt lat="44.09328" lon="5.97774">
        <ele>604</ele>
      </trkpt>
      <trkpt lat="44.0935" lon="5.97771">
        <ele>609</ele>
      </trkpt>
      <trkpt lat="44.09365" lon="5.97759">
        <ele>609</ele>
      </trkpt>
      <trkpt lat="44.09372" lon="5.97749">
        <ele>614</ele>
      </trkpt>
      <trkpt lat="44.09378" lon="5.97739">
        <ele>615</ele>
      </trkpt>
      <trkpt lat="44.0938" lon="5.97735">
        <ele>615</ele>
      </trkpt>
      <trkpt lat="44.0939" lon="5.97731">
        <ele>615</ele>
      </trkpt>
      <trkpt lat="44.09401" lon="5.97729">
        <ele>615</ele>
      </trkpt>
      <trkpt lat="44.09404" lon="5.97729">
        <ele>615</ele>
      </trkpt>
      <trkpt lat="44.09415" lon="5.9773">
        <ele>615</ele>
      </trkpt>
      <trkpt lat="44.09425" lon="5.97733">
        <ele>618</ele>
      </trkpt>
      <trkpt lat="44.09429" lon="5.97733">
        <ele>618</ele>
      </trkpt>
      <trkpt lat="44.09435" lon="5.97733">
        <ele>619</ele>
      </trkpt>
      <trkpt lat="44.09437" lon="5.97741">
        <ele>618</ele>
      </trkpt>
      <trkpt lat="44.09433" lon="5.97751">
        <ele>616</ele>
      </trkpt>
      <trkpt lat="44.09427" lon="5.97757">
        <ele>616</ele>
      </trkpt>
      <trkpt lat="44.09418" lon="5.97765">
        <ele>616</ele>
      </trkpt>
      <trkpt lat="44.09411" lon="5.97779">
        <ele>611</ele>
      </trkpt>
      <trkpt lat="44.09394" lon="5.97796">
        <ele>611</ele>
      </trkpt>
      <trkpt lat="44.0938" lon="5.97817">
        <ele>610</ele>
      </trkpt>
      <trkpt lat="44.09365" lon="5.97837">
        <ele>606</ele>
      </trkpt>
      <trkpt lat="44.09356" lon="5.97855">
        <ele>605</ele>
      </trkpt>
      <trkpt lat="44.09347" lon="5.97876">
        <ele>604</ele>
      </trkpt>
      <trkpt lat="44.09339" lon="5.9789">
        <ele>603</ele>
      </trkpt>
      <trkpt lat="44.09334" lon="5.97892">
        <ele>603</ele>
      </trkpt>
      <trkpt lat="44.09329" lon="5.97894">
        <ele>599</ele>
      </trkpt>
      <trkpt lat="44.09323" lon="5.97903">
        <ele>599</ele>
      </trkpt>
      <trkpt lat="44.09313" lon="5.97905">
        <ele>598</ele>
      </trkpt>
      <trkpt lat="44.09304" lon="5.97908">
        <ele>598</ele>
      </trkpt>
      <trkpt lat="44.09297" lon="5.97912">
        <ele>598</ele>
      </trkpt>
      <trkpt lat="44.09295" lon="5.97924">
        <ele>595</ele>
      </trkpt>
      <trkpt lat="44.09307" lon="5.97929">
        <ele>595</ele>
      </trkpt>
      <trkpt lat="44.09312" lon="5.97934">
        <ele>595</ele>
      </trkpt>
      <trkpt lat="44.09322" lon="5.97935">
        <ele>596</ele>
      </trkpt>
      <trkpt lat="44.0933" lon="5.97945">
        <ele>595</ele>
      </trkpt>
      <trkpt lat="44.09335" lon="5.97949">
        <ele>598</ele>
      </trkpt>
      <trkpt lat="44.09348" lon="5.97954">
        <ele>597</ele>
      </trkpt>
      <trkpt lat="44.09363" lon="5.97957">
        <ele>598</ele>
      </trkpt>
      <trkpt lat="44.09379" lon="5.97956">
        <ele>598</ele>
      </trkpt>
      <trkpt lat="44.09391" lon="5.97958">
        <ele>599</ele>
      </trkpt>
      <trkpt lat="44.09403" lon="5.97968">
        <ele>598</ele>
      </trkpt>
      <trkpt lat="44.09412" lon="5.97974">
        <ele>598</ele>
      </trkpt>
      <trkpt lat="44.09418" lon="5.97982">
        <ele>599</ele>
      </trkpt>
      <trkpt lat="44.09423" lon="5.97992">
        <ele>598</ele>
      </trkpt>
      <trkpt lat="44.09432" lon="5.9801">
        <ele>595</ele>
      </trkpt>
      <trkpt lat="44.09438" lon="5.98022">
        <ele>595</ele>
      </trkpt>
      <trkpt lat="44.09438" lon="5.98032">
        <ele>595</ele>
      </trkpt>
      <trkpt lat="44.09434" lon="5.98049">
        <ele>594</ele>
      </trkpt>
      <trkpt lat="44.09435" lon="5.98066">
        <ele>594</ele>
      </trkpt>
      <trkpt lat="44.09437" lon="5.98085">
        <ele>591</ele>
      </trkpt>
      <trkpt lat="44.09437" lon="5.98102">
        <ele>591</ele>
      </trkpt>
      <trkpt lat="44.09437" lon="5.98124">
        <ele>590</ele>
      </trkpt>
      <trkpt lat="44.0944" lon="5.98135">
        <ele>590</ele>
      </trkpt>
      <trkpt lat="44.09435" lon="5.98152">
        <ele>589</ele>
      </trkpt>
      <trkpt lat="44.09433" lon="5.98166">
        <ele>588</ele>
      </trkpt>
      <trkpt lat="44.09435" lon="5.98183">
        <ele>586</ele>
      </trkpt>
      <trkpt lat="44.09433" lon="5.98198">
        <ele>586</ele>
      </trkpt>
      <trkpt lat="44.09429" lon="5.98206">
        <ele>586</ele>
      </trkpt>
      <trkpt lat="44.09429" lon="5.98219">
        <ele>585</ele>
      </trkpt>
      <trkpt lat="44.09429" lon="5.98232">
        <ele>585</ele>
      </trkpt>
      <trkpt lat="44.09429" lon="5.98236">
        <ele>585</ele>
      </trkpt>
      <trkpt lat="44.09429" lon="5.98242">
        <ele>585</ele>
      </trkpt>
      <trkpt lat="44.09429" lon="5.98245">
        <ele>585</ele>
      </trkpt>
      <trkpt lat="44.09428" lon="5.9825">
        <ele>585</ele>
      </trkpt>
      <trkpt lat="44.09427" lon="5.98254">
        <ele>583</ele>
      </trkpt>
      <trkpt lat="44.09425" lon="5.98258">
        <ele>583</ele>
      </trkpt>
      <trkpt lat="44.09424" lon="5.98263">
        <ele>583</ele>
      </trkpt>
      <trkpt lat="44.09425" lon="5.98273">
        <ele>583</ele>
      </trkpt>
      <trkpt lat="44.09426" lon="5.98277">
        <ele>583</ele>
      </trkpt>
      <trkpt lat="44.09426" lon="5.98285">
        <ele>582</ele>
      </trkpt>
      <trkpt lat="44.09426" lon="5.98289">
        <ele>582</ele>
      </trkpt>
      <trkpt lat="44.09424" lon="5.98295">
        <ele>582</ele>
      </trkpt>
      <trkpt lat="44.09423" lon="5.98305">
        <ele>582</ele>
      </trkpt>
      <trkpt lat="44.09422" lon="5.98316">
        <ele>581</ele>
      </trkpt>
      <trkpt lat="44.09422" lon="5.98322">
        <ele>581</ele>
      </trkpt>
      <trkpt lat="44.09422" lon="5.98327">
        <ele>581</ele>
      </trkpt>
      <trkpt lat="44.0942" lon="5.98332">
        <ele>580</ele>
      </trkpt>
      <trkpt lat="44.09419" lon="5.98339">
        <ele>580</ele>
      </trkpt>
      <trkpt lat="44.09416" lon="5.98353">
        <ele>582</ele>
      </trkpt>
      <trkpt lat="44.09411" lon="5.98369">
        <ele>583</ele>
      </trkpt>
      <trkpt lat="44.0941" lon="5.98379">
        <ele>583</ele>
      </trkpt>
      <trkpt lat="44.09411" lon="5.98383">
        <ele>582</ele>
      </trkpt>
      <trkpt lat="44.09411" lon="5.98387">
        <ele>582</ele>
      </trkpt>
      <trkpt lat="44.09408" lon="5.98401">
        <ele>581</ele>
      </trkpt>
      <trkpt lat="44.0941" lon="5.98409">
        <ele>580</ele>
      </trkpt>
      <trkpt lat="44.09411" lon="5.98421">
        <ele>579</ele>
      </trkpt>
      <trkpt lat="44.09414" lon="5.98433">
        <ele>579</ele>
      </trkpt>
      <trkpt lat="44.09413" lon="5.98444">
        <ele>580</ele>
      </trkpt>
      <trkpt lat="44.09416" lon="5.9846">
        <ele>579</ele>
      </trkpt>
      <trkpt lat="44.09417" lon="5.98466">
        <ele>576</ele>
      </trkpt>
      <trkpt lat="44.09416" lon="5.98473">
        <ele>578</ele>
      </trkpt>
      <trkpt lat="44.09415" lon="5.98483">
        <ele>577</ele>
      </trkpt>
      <trkpt lat="44.09412" lon="5.98494">
        <ele>575</ele>
      </trkpt>
      <trkpt lat="44.09409" lon="5.98505">
        <ele>573</ele>
      </trkpt>
      <trkpt lat="44.09408" lon="5.98514">
        <ele>574</ele>
      </trkpt>
      <trkpt lat="44.09402" lon="5.98527">
        <ele>574</ele>
      </trkpt>
      <trkpt lat="44.09399" lon="5.98534">
        <ele>573</ele>
      </trkpt>
      <trkpt lat="44.09394" lon="5.98544">
        <ele>573</ele>
      </trkpt>
      <trkpt lat="44.0939" lon="5.98557">
        <ele>573</ele>
      </trkpt>
      <trkpt lat="44.09386" lon="5.98564">
        <ele>573</ele>
      </trkpt>
      <trkpt lat="44.09384" lon="5.98567">
        <ele>573</ele>
      </trkpt>
      <trkpt lat="44.09381" lon="5.98576">
        <ele>572</ele>
      </trkpt>
      <trkpt lat="44.09377" lon="5.98586">
        <ele>568</ele>
      </trkpt>
      <trkpt lat="44.0937" lon="5.98599">
        <ele>568</ele>
      </trkpt>
      <trkpt lat="44.09364" lon="5.98614">
        <ele>567</ele>
      </trkpt>
      <trkpt lat="44.09358" lon="5.98624">
        <ele>567</ele>
      </trkpt>
      <trkpt lat="44.09352" lon="5.98633">
        <ele>566</ele>
      </trkpt>
      <trkpt lat="44.09345" lon="5.98646">
        <ele>565</ele>
      </trkpt>
      <trkpt lat="44.09344" lon="5.98648">
        <ele>565</ele>
      </trkpt>
      <trkpt lat="44.0934" lon="5.98661">
        <ele>563</ele>
      </trkpt>
      <trkpt lat="44.09338" lon="5.98669">
        <ele>561</ele>
      </trkpt>
      <trkpt lat="44.09337" lon="5.9867">
        <ele>561</ele>
      </trkpt>
      <trkpt lat="44.09334" lon="5.98681">
        <ele>561</ele>
      </trkpt>
      <trkpt lat="44.09331" lon="5.98689">
        <ele>562</ele>
      </trkpt>
      <trkpt lat="44.0933" lon="5.98694">
        <ele>562</ele>
      </trkpt>
      <trkpt lat="44.09328" lon="5.98699">
        <ele>562</ele>
      </trkpt>
      <trkpt lat="44.09326" lon="5.98707">
        <ele>562</ele>
      </trkpt>
      <trkpt lat="44.09327" lon="5.98716">
        <ele>561</ele>
      </trkpt>
      <trkpt lat="44.09323" lon="5.98728">
        <ele>561</ele>
      </trkpt>
      <trkpt lat="44.09321" lon="5.98734">
        <ele>560</ele>
      </trkpt>
      <trkpt lat="44.09315" lon="5.9874">
        <ele>560</ele>
      </trkpt>
      <trkpt lat="44.09308" lon="5.98753">
        <ele>556</ele>
      </trkpt>
      <trkpt lat="44.09304" lon="5.98762">
        <ele>556</ele>
      </trkpt>
      <trkpt lat="44.09297" lon="5.9877">
        <ele>556</ele>
      </trkpt>
      <trkpt lat="44.09296" lon="5.98773">
        <ele>556</ele>
      </trkpt>
      <trkpt lat="44.09293" lon="5.98782">
        <ele>556</ele>
      </trkpt>
      <trkpt lat="44.09289" lon="5.98795">
        <ele>555</ele>
      </trkpt>
      <trkpt lat="44.09285" lon="5.98816">
        <ele>555</ele>
      </trkpt>
      <trkpt lat="44.09284" lon="5.98836">
        <ele>549</ele>
      </trkpt>
      <trkpt lat="44.0928" lon="5.98858">
        <ele>549</ele>
      </trkpt>
      <trkpt lat="44.09278" lon="5.98878">
        <ele>547</ele>
      </trkpt>
      <trkpt lat="44.09276" lon="5.989">
        <ele>546</ele>
      </trkpt>
      <trkpt lat="44.09277" lon="5.98919">
        <ele>542</ele>
      </trkpt>
      <trkpt lat="44.09271" lon="5.98957">
        <ele>541</ele>
      </trkpt>
      <trkpt lat="44.09266" lon="5.98995">
        <ele>539</ele>
      </trkpt>
      <trkpt lat="44.09263" lon="5.99036">
        <ele>538</ele>
      </trkpt>
      <trkpt lat="44.09262" lon="5.99063">
        <ele>537</ele>
      </trkpt>
      <trkpt lat="44.09262" lon="5.99104">
        <ele>536</ele>
      </trkpt>
      <trkpt lat="44.0926" lon="5.99136">
        <ele>536</ele>
      </trkpt>
      <trkpt lat="44.09258" lon="5.99164">
        <ele>534</ele>
      </trkpt>
      <trkpt lat="44.09257" lon="5.99192">
        <ele>535</ele>
      </trkpt>
      <trkpt lat="44.09257" lon="5.99226">
        <ele>535</ele>
      </trkpt>
      <trkpt lat="44.09258" lon="5.9926">
        <ele>536</ele>
      </trkpt>
      <trkpt lat="44.09264" lon="5.99286">
        <ele>537</ele>
      </trkpt>
      <trkpt lat="44.09274" lon="5.9931">
        <ele>537</ele>
      </trkpt>
      <trkpt lat="44.09285" lon="5.99328">
        <ele>537</ele>
      </trkpt>
      <trkpt lat="44.09303" lon="5.99357">
        <ele>538</ele>
      </trkpt>
      <trkpt lat="44.09314" lon="5.99379">
        <ele>538</ele>
      </trkpt>
      <trkpt lat="44.09321" lon="5.99396">
        <ele>538</ele>
      </trkpt>
      <trkpt lat="44.09329" lon="5.99413">
        <ele>538</ele>
      </trkpt>
      <trkpt lat="44.0935" lon="5.99438">
        <ele>536</ele>
      </trkpt>
      <trkpt lat="44.09371" lon="5.99463">
        <ele>535</ele>
      </trkpt>
      <trkpt lat="44.09388" lon="5.9949">
        <ele>535</ele>
      </trkpt>
      <trkpt lat="44.09404" lon="5.9952">
        <ele>537</ele>
      </trkpt>
      <trkpt lat="44.09412" lon="5.99543">
        <ele>538</ele>
      </trkpt>
      <trkpt lat="44.09422" lon="5.99569">
        <ele>532</ele>
      </trkpt>
      <trkpt lat="44.0943" lon="5.99586">
        <ele>533</ele>
      </trkpt>
      <trkpt lat="44.09443" lon="5.99606">
        <ele>532</ele>
      </trkpt>
      <trkpt lat="44.09452" lon="5.99621">
        <ele>531</ele>
      </trkpt>
      <trkpt lat="44.09459" lon="5.99637">
        <ele>531</ele>
      </trkpt>
      <trkpt lat="44.09463" lon="5.99651">
        <ele>531</ele>
      </trkpt>
      <trkpt lat="44.09467" lon="5.99671">
        <ele>529</ele>
      </trkpt>
      <trkpt lat="44.0947" lon="5.99687">
        <ele>529</ele>
      </trkpt>
      <trkpt lat="44.09474" lon="5.9971">
        <ele>528</ele>
      </trkpt>
      <trkpt lat="44.09476" lon="5.99727">
        <ele>527</ele>
      </trkpt>
      <trkpt lat="44.09478" lon="5.99742">
        <ele>526</ele>
      </trkpt>
      <trkpt lat="44.0948" lon="5.99765">
        <ele>523</ele>
      </trkpt>
      <trkpt lat="44.09481" lon="5.99783">
        <ele>523</ele>
      </trkpt>
      <trkpt lat="44.09483" lon="5.99803">
        <ele>523</ele>
      </trkpt>
      <trkpt lat="44.09485" lon="5.99826">
        <ele>521</ele>
      </trkpt>
      <trkpt lat="44.09484" lon="5.9984">
        <ele>519</ele>
      </trkpt>
      <trkpt lat="44.09485" lon="5.99855">
        <ele>519</ele>
      </trkpt>
      <trkpt lat="44.09487" lon="5.99868">
        <ele>519</ele>
      </trkpt>
      <trkpt lat="44.09496" lon="5.99888">
        <ele>518</ele>
      </trkpt>
      <trkpt lat="44.09502" lon="5.99899">
        <ele>511</ele>
      </trkpt>
      <trkpt lat="44.0951" lon="5.99914">
        <ele>511</ele>
      </trkpt>
      <trkpt lat="44.09514" lon="5.99922">
        <ele>508</ele>
      </trkpt>
      <trkpt lat="44.09518" lon="5.99932">
        <ele>507</ele>
      </trkpt>
      <trkpt lat="44.09516" lon="5.99937">
        <ele>507</ele>
      </trkpt>
      <trkpt lat="44.09517" lon="5.99939">
        <ele>507</ele>
      </trkpt>
      <trkpt lat="44.09521" lon="5.99964">
        <ele>505</ele>
      </trkpt>
      <trkpt lat="44.09521" lon="5.99989">
        <ele>505</ele>
      </trkpt>
      <trkpt lat="44.09519" lon="6.00026">
        <ele>503</ele>
      </trkpt>
      <trkpt lat="44.09518" lon="6.00064">
        <ele>502</ele>
      </trkpt>
      <trkpt lat="44.09516" lon="6.00101">
        <ele>500</ele>
      </trkpt>
      <trkpt lat="44.09516" lon="6.00139">
        <ele>499</ele>
      </trkpt>
      <trkpt lat="44.09519" lon="6.00184">
        <ele>496</ele>
      </trkpt>
      <trkpt lat="44.09523" lon="6.00229">
        <ele>494</ele>
      </trkpt>
      <trkpt lat="44.09528" lon="6.00253">
        <ele>490</ele>
      </trkpt>
      <trkpt lat="44.09537" lon="6.0027">
        <ele>489</ele>
      </trkpt>
      <trkpt lat="44.09552" lon="6.00291">
        <ele>487</ele>
      </trkpt>
      <trkpt lat="44.09571" lon="6.00311">
        <ele>485</ele>
      </trkpt>
      <trkpt lat="44.09592" lon="6.00327">
        <ele>482</ele>
      </trkpt>
      <trkpt lat="44.09608" lon="6.00348">
        <ele>481</ele>
      </trkpt>
      <trkpt lat="44.09623" lon="6.00378">
        <ele>480</ele>
      </trkpt>
      <trkpt lat="44.09633" lon="6.00406">
        <ele>480</ele>
      </trkpt>
      <trkpt lat="44.09645" lon="6.00447">
        <ele>479</ele>
      </trkpt>
      <trkpt lat="44.09652" lon="6.00479">
        <ele>480</ele>
      </trkpt>
      <trkpt lat="44.09663" lon="6.00492">
        <ele>481</ele>
      </trkpt>
      <trkpt lat="44.0967" lon="6.00488">
        <ele>481</ele>
      </trkpt>
      <trkpt lat="44.09694" lon="6.00469">
        <ele>481</ele>
      </trkpt>
      <trkpt lat="44.0971" lon="6.00458">
        <ele>481</ele>
      </trkpt>
      <trkpt lat="44.09735" lon="6.00427">
        <ele>481</ele>
      </trkpt>
      <trkpt lat="44.09738" lon="6.00424">
        <ele>481</ele>
      </trkpt>
      <trkpt lat="44.0975" lon="6.00422">
        <ele>481</ele>
      </trkpt>
      <trkpt lat="44.09757" lon="6.0044">
        <ele>482</ele>
      </trkpt>
      <trkpt lat="44.09769" lon="6.00484">
        <ele>483</ele>
      </trkpt>
      <trkpt lat="44.09779" lon="6.00513">
        <ele>483</ele>
      </trkpt>
      <trkpt lat="44.09788" lon="6.00536">
        <ele>483</ele>
      </trkpt>
      <trkpt lat="44.09798" lon="6.00561">
        <ele>483</ele>
      </trkpt>
      <trkpt lat="44.09812" lon="6.0059">
        <ele>481</ele>
      </trkpt>
      <trkpt lat="44.09827" lon="6.00615">
        <ele>481</ele>
      </trkpt>
      <trkpt lat="44.09843" lon="6.00641">
        <ele>480</ele>
      </trkpt>
      <trkpt lat="44.09857" lon="6.00664">
        <ele>480</ele>
      </trkpt>
      <trkpt lat="44.09864" lon="6.00676">
        <ele>476</ele>
      </trkpt>
      <trkpt lat="44.09874" lon="6.00691">
        <ele>476</ele>
      </trkpt>
      <trkpt lat="44.09883" lon="6.00696">
        <ele>475</ele>
      </trkpt>
      <trkpt lat="44.09897" lon="6.00692">
        <ele>475</ele>
      </trkpt>
      <trkpt lat="44.0991" lon="6.00687">
        <ele>476</ele>
      </trkpt>
      <trkpt lat="44.09921" lon="6.00683">
        <ele>474</ele>
      </trkpt>
      <trkpt lat="44.09929" lon="6.00681">
        <ele>474</ele>
      </trkpt>
      <trkpt lat="44.09938" lon="6.00679">
        <ele>473</ele>
      </trkpt>
      <trkpt lat="44.09939" lon="6.00678">
        <ele>473</ele>
      </trkpt>
      <trkpt lat="44.09948" lon="6.00673">
        <ele>472</ele>
      </trkpt>
      <trkpt lat="44.09954" lon="6.00673">
        <ele>472</ele>
      </trkpt>
      <trkpt lat="44.09963" lon="6.00675">
        <ele>472</ele>
      </trkpt>
      <trkpt lat="44.09968" lon="6.00676">
        <ele>471</ele>
      </trkpt>
      <trkpt lat="44.09972" lon="6.00679">
        <ele>471</ele>
      </trkpt>
      <trkpt lat="44.09978" lon="6.00681">
        <ele>471</ele>
      </trkpt>
      <trkpt lat="44.09987" lon="6.00684">
        <ele>471</ele>
      </trkpt>
      <trkpt lat="44.09995" lon="6.00686">
        <ele>471</ele>
      </trkpt>
      <trkpt lat="44.10003" lon="6.00686">
        <ele>468</ele>
      </trkpt>
      <trkpt lat="44.10014" lon="6.00685">
        <ele>467</ele>
      </trkpt>
      <trkpt lat="44.10015" lon="6.00685">
        <ele>467</ele>
      </trkpt>
      <trkpt lat="44.10015" lon="6.00693">
        <ele>466</ele>
      </trkpt>
      <trkpt lat="44.10014" lon="6.00695">
        <ele>466</ele>
      </trkpt>
      <trkpt lat="44.10001" lon="6.00702">
        <ele>465</ele>
      </trkpt>
      <trkpt lat="44.09989" lon="6.00709">
        <ele>468</ele>
      </trkpt>
      <trkpt lat="44.09979" lon="6.00719">
        <ele>467</ele>
      </trkpt>
      <trkpt lat="44.09968" lon="6.0073">
        <ele>467</ele>
      </trkpt>
      <trkpt lat="44.09953" lon="6.00745">
        <ele>468</ele>
      </trkpt>
      <trkpt lat="44.0994" lon="6.00758">
        <ele>461</ele>
      </trkpt>
      <trkpt lat="44.09857" lon="6.0086">
        <ele>454</ele>
      </trkpt>
      <trkpt lat="44.09855" lon="6.00858">
        <ele>454</ele>
      </trkpt>
      <trkpt lat="44.09856" lon="6.00858">
        <ele>454</ele>
      </trkpt>
      <trkpt lat="44.09861" lon="6.00864">
        <ele>453</ele>
      </trkpt>
      <trkpt lat="44.09872" lon="6.0087">
        <ele>452</ele>
      </trkpt>
      <trkpt lat="44.09878" lon="6.0088">
        <ele>451</ele>
      </trkpt>
      <trkpt lat="44.0988" lon="6.00892">
        <ele>450</ele>
      </trkpt>
      <trkpt lat="44.0988" lon="6.00909">
        <ele>449</ele>
      </trkpt>
      <trkpt lat="44.09882" lon="6.00925">
        <ele>444</ele>
      </trkpt>
      <trkpt lat="44.0988" lon="6.00949">
        <ele>443</ele>
      </trkpt>
      <trkpt lat="44.0987" lon="6.00969">
        <ele>443</ele>
      </trkpt>
      <trkpt lat="44.0986" lon="6.00988">
        <ele>442</ele>
      </trkpt>
      <trkpt lat="44.09859" lon="6.01013">
        <ele>441</ele>
      </trkpt>
      <trkpt lat="44.09859" lon="6.01017">
        <ele>441</ele>
      </trkpt>
      <trkpt lat="44.09868" lon="6.01027">
        <ele>441</ele>
      </trkpt>
      <trkpt lat="44.09889" lon="6.01022">
        <ele>441</ele>
      </trkpt>
      <trkpt lat="44.0991" lon="6.01016">
        <ele>441</ele>
      </trkpt>
      <trkpt lat="44.09941" lon="6.01005">
        <ele>441</ele>
      </trkpt>
      <trkpt lat="44.09965" lon="6.00997">
        <ele>441</ele>
      </trkpt>
      <trkpt lat="44.09994" lon="6.00983">
        <ele>441</ele>
      </trkpt>
      <trkpt lat="44.09997" lon="6.00981">
        <ele>441</ele>
      </trkpt>
      <trkpt lat="44.10009" lon="6.00981">
        <ele>441</ele>
      </trkpt>
      <trkpt lat="44.1002" lon="6.00996">
        <ele>441</ele>
      </trkpt>
      <trkpt lat="44.10023" lon="6.01011">
        <ele>440</ele>
      </trkpt>
      <trkpt lat="44.10024" lon="6.01014">
        <ele>440</ele>
      </trkpt>
      <trkpt lat="44.10024" lon="6.01016">
        <ele>440</ele>
      </trkpt>
      <trkpt lat="44.10027" lon="6.01016">
        <ele>440</ele>
      </trkpt>
      <trkpt lat="44.1003" lon="6.01017">
        <ele>440</ele>
      </trkpt>
      <trkpt lat="44.10027" lon="6.01011">
        <ele>440</ele>
      </trkpt>
      <trkpt lat="44.10024" lon="6.01012">
        <ele>440</ele>
      </trkpt>
      <trkpt lat="44.10022" lon="6.01013">
        <ele>440</ele>
      </trkpt>
      <trkpt lat="44.10023" lon="6.01016">
        <ele>440</ele>
      </trkpt>
      <trkpt lat="44.10028" lon="6.01031">
        <ele>440</ele>
      </trkpt>
      <trkpt lat="44.10042" lon="6.01062">
        <ele>440</ele>
      </trkpt>
      <trkpt lat="44.10059" lon="6.01106">
        <ele>439</ele>
      </trkpt>
      <trkpt lat="44.10069" lon="6.01125">
        <ele>439</ele>
      </trkpt>
      <trkpt lat="44.10087" lon="6.01139">
        <ele>439</ele>
      </trkpt>
      <trkpt lat="44.1011" lon="6.01133">
        <ele>439</ele>
      </trkpt>
      <trkpt lat="44.10129" lon="6.01116">
        <ele>439</ele>
      </trkpt>
      <trkpt lat="44.10148" lon="6.01099">
        <ele>439</ele>
      </trkpt>
      <trkpt lat="44.10175" lon="6.01078">
        <ele>440</ele>
      </trkpt>
      <trkpt lat="44.10199" lon="6.01054">
        <ele>439</ele>
      </trkpt>
      <trkpt lat="44.10199" lon="6.01056">
        <ele>439</ele>
      </trkpt>
      <trkpt lat="44.102" lon="6.01055">
        <ele>439</ele>
      </trkpt>
      <trkpt lat="44.102" lon="6.01054">
        <ele>439</ele>
      </trkpt>
      <trkpt lat="44.10212" lon="6.01046">
        <ele>439</ele>
      </trkpt>
      <trkpt lat="44.10228" lon="6.01037">
        <ele>439</ele>
      </trkpt>
      <trkpt lat="44.10242" lon="6.01032">
        <ele>439</ele>
      </trkpt>
      <trkpt lat="44.10252" lon="6.01029">
        <ele>437</ele>
      </trkpt>
      <trkpt lat="44.10262" lon="6.0102">
        <ele>437</ele>
      </trkpt>
      <trkpt lat="44.10272" lon="6.01011">
        <ele>437</ele>
      </trkpt>
      <trkpt lat="44.1028" lon="6.01007">
        <ele>436</ele>
      </trkpt>
      <trkpt lat="44.10286" lon="6.01006">
        <ele>436</ele>
      </trkpt>
      <trkpt lat="44.10301" lon="6.00991">
        <ele>436</ele>
      </trkpt>
      <trkpt lat="44.10308" lon="6.00967">
        <ele>437</ele>
      </trkpt>
      <trkpt lat="44.10332" lon="6.00914">
        <ele>436</ele>
      </trkpt>
      <trkpt lat="44.10336" lon="6.00909">
        <ele>436</ele>
      </trkpt>
      <trkpt lat="44.10362" lon="6.00879">
        <ele>436</ele>
      </trkpt>
      <trkpt lat="44.10381" lon="6.00859">
        <ele>435</ele>
      </trkpt>
      <trkpt lat="44.10405" lon="6.00834">
        <ele>435</ele>
      </trkpt>
      <trkpt lat="44.10443" lon="6.00805">
        <ele>436</ele>
      </trkpt>
      <trkpt lat="44.10447" lon="6.00803">
        <ele>436</ele>
      </trkpt>
      <trkpt lat="44.10474" lon="6.00789">
        <ele>436</ele>
      </trkpt>
      <trkpt lat="44.10503" lon="6.00776">
        <ele>435</ele>
      </trkpt>
      <trkpt lat="44.10531" lon="6.00763">
        <ele>435</ele>
      </trkpt>
      <trkpt lat="44.10566" lon="6.00746">
        <ele>436</ele>
      </trkpt>
      <trkpt lat="44.10595" lon="6.00732">
        <ele>435</ele>
      </trkpt>
      <trkpt lat="44.10631" lon="6.00712">
        <ele>435</ele>
      </trkpt>
      <trkpt lat="44.10659" lon="6.00698">
        <ele>435</ele>
      </trkpt>
      <trkpt lat="44.10698" lon="6.00679">
        <ele>434</ele>
      </trkpt>
      <trkpt lat="44.10731" lon="6.00663">
        <ele>435</ele>
      </trkpt>
      <trkpt lat="44.10752" lon="6.00652">
        <ele>435</ele>
      </trkpt>
      <trkpt lat="44.10759" lon="6.00642">
        <ele>435</ele>
      </trkpt>
      <trkpt lat="44.10772" lon="6.00639">
        <ele>435</ele>
      </trkpt>
      <trkpt lat="44.10781" lon="6.00646">
        <ele>435</ele>
      </trkpt>
      <trkpt lat="44.10808" lon="6.00687">
        <ele>434</ele>
      </trkpt>
      <trkpt lat="44.10814" lon="6.00696">
        <ele>434</ele>
      </trkpt>
      <trkpt lat="44.10831" lon="6.00727">
        <ele>434</ele>
      </trkpt>
      <trkpt lat="44.10854" lon="6.00768">
        <ele>433</ele>
      </trkpt>
      <trkpt lat="44.10874" lon="6.00802">
        <ele>433</ele>
      </trkpt>
      <trkpt lat="44.10888" lon="6.00827">
        <ele>433</ele>
      </trkpt>
      <trkpt lat="44.10904" lon="6.00856">
        <ele>433</ele>
      </trkpt>
      <trkpt lat="44.10919" lon="6.00883">
        <ele>433</ele>
      </trkpt>
      <trkpt lat="44.10937" lon="6.00917">
        <ele>433</ele>
      </trkpt>
      <trkpt lat="44.1096" lon="6.00958">
        <ele>434</ele>
      </trkpt>
      <trkpt lat="44.10971" lon="6.00982">
        <ele>434</ele>
      </trkpt>
      <trkpt lat="44.10971" lon="6.00982">
        <ele>434</ele>
      </trkpt>
      <trkpt lat="44.10971" lon="6.00997">
        <ele>435</ele>
      </trkpt>
      <trkpt lat="44.10971" lon="6.00982">
        <ele>434</ele>
      </trkpt>
      <trkpt lat="44.10971" lon="6.00997">
        <ele>435</ele>
      </trkpt>
      <trkpt lat="44.10962" lon="6.01002">
        <ele>436</ele>
      </trkpt>
      <trkpt lat="44.10962" lon="6.01007">
        <ele>436</ele>
      </trkpt>
      <trkpt lat="44.10955" lon="6.01014">
        <ele>435</ele>
      </trkpt>
      <trkpt lat="44.10943" lon="6.01022">
        <ele>435</ele>
      </trkpt>
      <trkpt lat="44.10922" lon="6.01038">
        <ele>435</ele>
      </trkpt>
      <trkpt lat="44.109" lon="6.01041">
        <ele>434</ele>
      </trkpt>
      <trkpt lat="44.10882" lon="6.01022">
        <ele>433</ele>
      </trkpt>
      <trkpt lat="44.1086" lon="6.00993">
        <ele>432</ele>
      </trkpt>
      <trkpt lat="44.10847" lon="6.00988">
        <ele>431</ele>
      </trkpt>
      <trkpt lat="44.10821" lon="6.01008">
        <ele>432</ele>
      </trkpt>
      <trkpt lat="44.10809" lon="6.01025">
        <ele>432</ele>
      </trkpt>
      <trkpt lat="44.10802" lon="6.01039">
        <ele>433</ele>
      </trkpt>
      <trkpt lat="44.10787" lon="6.01091">
        <ele>435</ele>
      </trkpt>
      <trkpt lat="44.10778" lon="6.01111">
        <ele>435</ele>
      </trkpt>
      <trkpt lat="44.10765" lon="6.01128">
        <ele>435</ele>
      </trkpt>
      <trkpt lat="44.10742" lon="6.01149">
        <ele>434</ele>
      </trkpt>
      <trkpt lat="44.10738" lon="6.01152">
        <ele>434</ele>
      </trkpt>
      <trkpt lat="44.10704" lon="6.01171">
        <ele>435</ele>
      </trkpt>
      <trkpt lat="44.10677" lon="6.01188">
        <ele>435</ele>
      </trkpt>
      <trkpt lat="44.10656" lon="6.01203">
        <ele>435</ele>
      </trkpt>
      <trkpt lat="44.10647" lon="6.0121">
        <ele>435</ele>
      </trkpt>
      <trkpt lat="44.10635" lon="6.01217">
        <ele>435</ele>
      </trkpt>
      <trkpt lat="44.10617" lon="6.01225">
        <ele>436</ele>
      </trkpt>
      <trkpt lat="44.10608" lon="6.01247">
        <ele>436</ele>
      </trkpt>
      <trkpt lat="44.1061" lon="6.01269">
        <ele>438</ele>
      </trkpt>
      <trkpt lat="44.1061" lon="6.01275">
        <ele>438</ele>
      </trkpt>
      <trkpt lat="44.10603" lon="6.01289">
        <ele>438</ele>
      </trkpt>
      <trkpt lat="44.1058" lon="6.01287">
        <ele>437</ele>
      </trkpt>
      <trkpt lat="44.10556" lon="6.01298">
        <ele>437</ele>
      </trkpt>
      <trkpt lat="44.10539" lon="6.01306">
        <ele>437</ele>
      </trkpt>
      <trkpt lat="44.10533" lon="6.01298">
        <ele>436</ele>
      </trkpt>
      <trkpt lat="44.10524" lon="6.01295">
        <ele>436</ele>
      </trkpt>
      <trkpt lat="44.10522" lon="6.01299">
        <ele>436</ele>
      </trkpt>
      <trkpt lat="44.1051" lon="6.0131">
        <ele>436</ele>
      </trkpt>
      <trkpt lat="44.10494" lon="6.01326">
        <ele>435</ele>
      </trkpt>
      <trkpt lat="44.10466" lon="6.01354">
        <ele>435</ele>
      </trkpt>
      <trkpt lat="44.1045" lon="6.01372">
        <ele>435</ele>
      </trkpt>
      <trkpt lat="44.10441" lon="6.01383">
        <ele>435</ele>
      </trkpt>
      <trkpt lat="44.10421" lon="6.01406">
        <ele>435</ele>
      </trkpt>
      <trkpt lat="44.1039" lon="6.01441">
        <ele>434</ele>
      </trkpt>
      <trkpt lat="44.10365" lon="6.01481">
        <ele>434</ele>
      </trkpt>
      <trkpt lat="44.10346" lon="6.01513">
        <ele>434</ele>
      </trkpt>
      <trkpt lat="44.10323" lon="6.01559">
        <ele>434</ele>
      </trkpt>
      <trkpt lat="44.10303" lon="6.01606">
        <ele>435</ele>
      </trkpt>
      <trkpt lat="44.10286" lon="6.01652">
        <ele>435</ele>
      </trkpt>
      <trkpt lat="44.10277" lon="6.01674">
        <ele>434</ele>
      </trkpt>
      <trkpt lat="44.10274" lon="6.017">
        <ele>434</ele>
      </trkpt>
      <trkpt lat="44.10279" lon="6.01729">
        <ele>434</ele>
      </trkpt>
      <trkpt lat="44.10284" lon="6.0176">
        <ele>434</ele>
      </trkpt>
      <trkpt lat="44.10283" lon="6.01773">
        <ele>434</ele>
      </trkpt>
      <trkpt lat="44.10286" lon="6.0178">
        <ele>434</ele>
      </trkpt>
      <trkpt lat="44.10287" lon="6.0179">
        <ele>434</ele>
      </trkpt>
      <trkpt lat="44.10284" lon="6.01813">
        <ele>434</ele>
      </trkpt>
      <trkpt lat="44.10284" lon="6.0182">
        <ele>434</ele>
      </trkpt>
      <trkpt lat="44.10289" lon="6.01853">
        <ele>433</ele>
      </trkpt>
      <trkpt lat="44.10291" lon="6.01882">
        <ele>433</ele>
      </trkpt>
      <trkpt lat="44.10291" lon="6.01903">
        <ele>433</ele>
      </trkpt>
      <trkpt lat="44.103" lon="6.01933">
        <ele>433</ele>
      </trkpt>
      <trkpt lat="44.10297" lon="6.01943">
        <ele>433</ele>
      </trkpt>
      <trkpt lat="44.10281" lon="6.01986">
        <ele>433</ele>
      </trkpt>
      <trkpt lat="44.10278" lon="6.02">
        <ele>433</ele>
      </trkpt>
      <trkpt lat="44.10265" lon="6.02028">
        <ele>435</ele>
      </trkpt>
      <trkpt lat="44.10252" lon="6.02066">
        <ele>434</ele>
      </trkpt>
      <trkpt lat="44.10248" lon="6.02107">
        <ele>433</ele>
      </trkpt>
      <trkpt lat="44.10245" lon="6.02157">
        <ele>434</ele>
      </trkpt>
      <trkpt lat="44.10242" lon="6.0217">
        <ele>436</ele>
      </trkpt>
      <trkpt lat="44.10221" lon="6.0222">
        <ele>439</ele>
      </trkpt>
      <trkpt lat="44.10214" lon="6.02248">
        <ele>440</ele>
      </trkpt>
      <trkpt lat="44.10194" lon="6.02297">
        <ele>443</ele>
      </trkpt>
      <trkpt lat="44.10191" lon="6.02303">
        <ele>443</ele>
      </trkpt>
      <trkpt lat="44.10177" lon="6.02311">
        <ele>441</ele>
      </trkpt>
      <trkpt lat="44.10166" lon="6.02306">
        <ele>436</ele>
      </trkpt>
      <trkpt lat="44.10132" lon="6.02286">
        <ele>436</ele>
      </trkpt>
      <trkpt lat="44.10124" lon="6.02283">
        <ele>436</ele>
      </trkpt>
      <trkpt lat="44.10112" lon="6.02295">
        <ele>436</ele>
      </trkpt>
      <trkpt lat="44.10117" lon="6.02322">
        <ele>436</ele>
      </trkpt>
      <trkpt lat="44.1012" lon="6.02334">
        <ele>442</ele>
      </trkpt>
      <trkpt lat="44.1013" lon="6.02353">
        <ele>443</ele>
      </trkpt>
      <trkpt lat="44.10149" lon="6.02368">
        <ele>443</ele>
      </trkpt>
      <trkpt lat="44.10153" lon="6.02373">
        <ele>443</ele>
      </trkpt>
      <trkpt lat="44.10181" lon="6.02408">
        <ele>446</ele>
      </trkpt>
      <trkpt lat="44.10209" lon="6.02434">
        <ele>451</ele>
      </trkpt>
      <trkpt lat="44.10213" lon="6.02438">
        <ele>451</ele>
      </trkpt>
      <trkpt lat="44.10221" lon="6.02451">
        <ele>452</ele>
      </trkpt>
      <trkpt lat="44.1022" lon="6.02458">
        <ele>452</ele>
      </trkpt>
      <trkpt lat="44.10205" lon="6.0245">
        <ele>452</ele>
      </trkpt>
      <trkpt lat="44.10195" lon="6.02439">
        <ele>451</ele>
      </trkpt>
      <trkpt lat="44.10191" lon="6.02437">
        <ele>451</ele>
      </trkpt>
      <trkpt lat="44.1016" lon="6.02421">
        <ele>449</ele>
      </trkpt>
      <trkpt lat="44.10156" lon="6.02419">
        <ele>451</ele>
      </trkpt>
      <trkpt lat="44.10134" lon="6.02401">
        <ele>446</ele>
      </trkpt>
      <trkpt lat="44.10115" lon="6.02386">
        <ele>446</ele>
      </trkpt>
      <trkpt lat="44.10105" lon="6.02376">
        <ele>446</ele>
      </trkpt>
      <trkpt lat="44.10085" lon="6.02358">
        <ele>443</ele>
      </trkpt>
      <trkpt lat="44.1006" lon="6.02341">
        <ele>443</ele>
      </trkpt>
      <trkpt lat="44.1004" lon="6.0234">
        <ele>443</ele>
      </trkpt>
      <trkpt lat="44.10029" lon="6.02343">
        <ele>443</ele>
      </trkpt>
      <trkpt lat="44.10014" lon="6.02358">
        <ele>444</ele>
      </trkpt>
      <trkpt lat="44.1" lon="6.02374">
        <ele>442</ele>
      </trkpt>
      <trkpt lat="44.09978" lon="6.02393">
        <ele>444</ele>
      </trkpt>
      <trkpt lat="44.09957" lon="6.02404">
        <ele>442</ele>
      </trkpt>
      <trkpt lat="44.09928" lon="6.02416">
        <ele>442</ele>
      </trkpt>
      <trkpt lat="44.09892" lon="6.0242">
        <ele>451</ele>
      </trkpt>
      <trkpt lat="44.09883" lon="6.02418">
        <ele>452</ele>
      </trkpt>
      <trkpt lat="44.09846" lon="6.02413">
        <ele>443</ele>
      </trkpt>
      <trkpt lat="44.09841" lon="6.02413">
        <ele>445</ele>
      </trkpt>
      <trkpt lat="44.09808" lon="6.02421">
        <ele>451</ele>
      </trkpt>
      <trkpt lat="44.098" lon="6.02422">
        <ele>451</ele>
      </trkpt>
      <trkpt lat="44.09779" lon="6.0242">
        <ele>449</ele>
      </trkpt>
      <trkpt lat="44.09736" lon="6.02404">
        <ele>438</ele>
      </trkpt>
      <trkpt lat="44.09698" lon="6.02408">
        <ele>438</ele>
      </trkpt>
      <trkpt lat="44.09674" lon="6.02411">
        <ele>442</ele>
      </trkpt>
      <trkpt lat="44.09664" lon="6.02407">
        <ele>443</ele>
      </trkpt>
      <trkpt lat="44.09647" lon="6.02394">
        <ele>442</ele>
      </trkpt>
      <trkpt lat="44.096" lon="6.02362">
        <ele>438</ele>
      </trkpt>
      <trkpt lat="44.09558" lon="6.02342">
        <ele>442</ele>
      </trkpt>
      <trkpt lat="44.09522" lon="6.02327">
        <ele>436</ele>
      </trkpt>
      <trkpt lat="44.09494" lon="6.02317">
        <ele>441</ele>
      </trkpt>
      <trkpt lat="44.09472" lon="6.02317">
        <ele>441</ele>
      </trkpt>
      <trkpt lat="44.09445" lon="6.02314">
        <ele>442</ele>
      </trkpt>
      <trkpt lat="44.09419" lon="6.02299">
        <ele>442</ele>
      </trkpt>
      <trkpt lat="44.09381" lon="6.02268">
        <ele>446</ele>
      </trkpt>
      <trkpt lat="44.09357" lon="6.02249">
        <ele>437</ele>
      </trkpt>
      <trkpt lat="44.09345" lon="6.02239">
        <ele>438</ele>
      </trkpt>
      <trkpt lat="44.0933" lon="6.02236">
        <ele>440</ele>
      </trkpt>
      <trkpt lat="44.09311" lon="6.0221">
        <ele>438</ele>
      </trkpt>
      <trkpt lat="44.09305" lon="6.02192">
        <ele>437</ele>
      </trkpt>
      <trkpt lat="44.09293" lon="6.0217">
        <ele>436</ele>
      </trkpt>
      <trkpt lat="44.09283" lon="6.02166">
        <ele>432</ele>
      </trkpt>
      <trkpt lat="44.09249" lon="6.02155">
        <ele>433</ele>
      </trkpt>
      <trkpt lat="44.09244" lon="6.02154">
        <ele>433</ele>
      </trkpt>
      <trkpt lat="44.09225" lon="6.02168">
        <ele>435</ele>
      </trkpt>
      <trkpt lat="44.09211" lon="6.02184">
        <ele>436</ele>
      </trkpt>
      <trkpt lat="44.09191" lon="6.02192">
        <ele>436</ele>
      </trkpt>
      <trkpt lat="44.09168" lon="6.02197">
        <ele>435</ele>
      </trkpt>
      <trkpt lat="44.0914" lon="6.02192">
        <ele>433</ele>
      </trkpt>
      <trkpt lat="44.09097" lon="6.02189">
        <ele>432</ele>
      </trkpt>
      <trkpt lat="44.09063" lon="6.02182">
        <ele>433</ele>
      </trkpt>
      <trkpt lat="44.09012" lon="6.02161">
        <ele>433</ele>
      </trkpt>
      <trkpt lat="44.08967" lon="6.02145">
        <ele>433</ele>
      </trkpt>
      <trkpt lat="44.08936" lon="6.0213">
        <ele>433</ele>
      </trkpt>
      <trkpt lat="44.08899" lon="6.02125">
        <ele>434</ele>
      </trkpt>
      <trkpt lat="44.08874" lon="6.02116">
        <ele>434</ele>
      </trkpt>
      <trkpt lat="44.08853" lon="6.02116">
        <ele>434</ele>
      </trkpt>
      <trkpt lat="44.08835" lon="6.02121">
        <ele>434</ele>
      </trkpt>
      <trkpt lat="44.08817" lon="6.0212">
        <ele>436</ele>
      </trkpt>
      <trkpt lat="44.08799" lon="6.02125">
        <ele>437</ele>
      </trkpt>
      <trkpt lat="44.0877" lon="6.02131">
        <ele>438</ele>
      </trkpt>
      <trkpt lat="44.08738" lon="6.02131">
        <ele>440</ele>
      </trkpt>
      <trkpt lat="44.08705" lon="6.02131">
        <ele>441</ele>
      </trkpt>
      <trkpt lat="44.08671" lon="6.02131">
        <ele>441</ele>
      </trkpt>
      <trkpt lat="44.08667" lon="6.02132">
        <ele>441</ele>
      </trkpt>
      <trkpt lat="44.08612" lon="6.02138">
        <ele>441</ele>
      </trkpt>
      <trkpt lat="44.08602" lon="6.02137">
        <ele>440</ele>
      </trkpt>
      <trkpt lat="44.08572" lon="6.02138">
        <ele>440</ele>
      </trkpt>
      <trkpt lat="44.08535" lon="6.02134">
        <ele>441</ele>
      </trkpt>
      <trkpt lat="44.08526" lon="6.02136">
        <ele>441</ele>
      </trkpt>
      <trkpt lat="44.08521" lon="6.02145">
        <ele>442</ele>
      </trkpt>
      <trkpt lat="44.08524" lon="6.0219">
        <ele>445</ele>
      </trkpt>
      <trkpt lat="44.08527" lon="6.02217">
        <ele>445</ele>
      </trkpt>
      <trkpt lat="44.08527" lon="6.02243">
        <ele>446</ele>
      </trkpt>
      <trkpt lat="44.08528" lon="6.02251">
        <ele>449</ele>
      </trkpt>
      <trkpt lat="44.08532" lon="6.02309">
        <ele>451</ele>
      </trkpt>
      <trkpt lat="44.08527" lon="6.02334">
        <ele>454</ele>
      </trkpt>
      <trkpt lat="44.0851" lon="6.02343">
        <ele>453</ele>
      </trkpt>
      <trkpt lat="44.08487" lon="6.0234">
        <ele>453</ele>
      </trkpt>
      <trkpt lat="44.08475" lon="6.02339">
        <ele>453</ele>
      </trkpt>
      <trkpt lat="44.0847" lon="6.02339">
        <ele>453</ele>
      </trkpt>
      <trkpt lat="44.08442" lon="6.02343">
        <ele>453</ele>
      </trkpt>
      <trkpt lat="44.08429" lon="6.0235">
        <ele>452</ele>
      </trkpt>
      <trkpt lat="44.08376" lon="6.02372">
        <ele>454</ele>
      </trkpt>
      <trkpt lat="44.08368" lon="6.02375">
        <ele>454</ele>
      </trkpt>
      <trkpt lat="44.08345" lon="6.02394">
        <ele>456</ele>
      </trkpt>
      <trkpt lat="44.08326" lon="6.0243">
        <ele>462</ele>
      </trkpt>
      <trkpt lat="44.08318" lon="6.02445">
        <ele>464</ele>
      </trkpt>
      <trkpt lat="44.08299" lon="6.02442">
        <ele>465</ele>
      </trkpt>
      <trkpt lat="44.08282" lon="6.02422">
        <ele>465</ele>
      </trkpt>
      <trkpt lat="44.08265" lon="6.02409">
        <ele>461</ele>
      </trkpt>
      <trkpt lat="44.08246" lon="6.024">
        <ele>463</ele>
      </trkpt>
      <trkpt lat="44.08202" lon="6.02394">
        <ele>464</ele>
      </trkpt>
      <trkpt lat="44.0816" lon="6.02391">
        <ele>466</ele>
      </trkpt>
      <trkpt lat="44.08136" lon="6.02391">
        <ele>465</ele>
      </trkpt>
      <trkpt lat="44.08107" lon="6.02407">
        <ele>465</ele>
      </trkpt>
      <trkpt lat="44.08083" lon="6.02419">
        <ele>467</ele>
      </trkpt>
      <trkpt lat="44.08063" lon="6.0242">
        <ele>468</ele>
      </trkpt>
      <trkpt lat="44.08031" lon="6.02417">
        <ele>468</ele>
      </trkpt>
      <trkpt lat="44.07994" lon="6.02408">
        <ele>464</ele>
      </trkpt>
      <trkpt lat="44.07984" lon="6.02407">
        <ele>463</ele>
      </trkpt>
      <trkpt lat="44.07973" lon="6.02426">
        <ele>466</ele>
      </trkpt>
      <trkpt lat="44.07972" lon="6.02436">
        <ele>467</ele>
      </trkpt>
      <trkpt lat="44.0796" lon="6.02501">
        <ele>471</ele>
      </trkpt>
      <trkpt lat="44.07948" lon="6.02532">
        <ele>472</ele>
      </trkpt>
      <trkpt lat="44.07943" lon="6.02542">
        <ele>472</ele>
      </trkpt>
      <trkpt lat="44.07939" lon="6.02552">
        <ele>472</ele>
      </trkpt>
      <trkpt lat="44.07936" lon="6.02597">
        <ele>476</ele>
      </trkpt>
      <trkpt lat="44.07935" lon="6.02607">
        <ele>476</ele>
      </trkpt>
      <trkpt lat="44.07931" lon="6.0265">
        <ele>477</ele>
      </trkpt>
      <trkpt lat="44.0793" lon="6.02676">
        <ele>479</ele>
      </trkpt>
      <trkpt lat="44.07931" lon="6.02701">
        <ele>482</ele>
      </trkpt>
      <trkpt lat="44.07938" lon="6.0276">
        <ele>485</ele>
      </trkpt>
      <trkpt lat="44.07941" lon="6.0277">
        <ele>486</ele>
      </trkpt>
      <trkpt lat="44.07956" lon="6.02806">
        <ele>489</ele>
      </trkpt>
      <trkpt lat="44.07974" lon="6.02845">
        <ele>492</ele>
      </trkpt>
      <trkpt lat="44.07976" lon="6.02853">
        <ele>492</ele>
      </trkpt>
      <trkpt lat="44.07979" lon="6.0287">
        <ele>492</ele>
      </trkpt>
      <trkpt lat="44.07983" lon="6.02886">
        <ele>492</ele>
      </trkpt>
      <trkpt lat="44.07978" lon="6.02923">
        <ele>493</ele>
      </trkpt>
      <trkpt lat="44.07967" lon="6.02951">
        <ele>493</ele>
      </trkpt>
      <trkpt lat="44.07947" lon="6.03005">
        <ele>496</ele>
      </trkpt>
      <trkpt lat="44.0794" lon="6.03028">
        <ele>496</ele>
      </trkpt>
      <trkpt lat="44.07928" lon="6.03054">
        <ele>498</ele>
      </trkpt>
      <trkpt lat="44.07915" lon="6.03074">
        <ele>501</ele>
      </trkpt>
      <trkpt lat="44.07901" lon="6.03109">
        <ele>504</ele>
      </trkpt>
      <trkpt lat="44.07895" lon="6.03128">
        <ele>505</ele>
      </trkpt>
      <trkpt lat="44.07873" lon="6.03162">
        <ele>506</ele>
      </trkpt>
      <trkpt lat="44.07852" lon="6.03179">
        <ele>509</ele>
      </trkpt>
      <trkpt lat="44.07825" lon="6.03197">
        <ele>514</ele>
      </trkpt>
      <trkpt lat="44.07815" lon="6.03207">
        <ele>515</ele>
      </trkpt>
      <trkpt lat="44.0781" lon="6.03213">
        <ele>515</ele>
      </trkpt>
      <trkpt lat="44.07791" lon="6.03234">
        <ele>517</ele>
      </trkpt>
      <trkpt lat="44.07767" lon="6.03256">
        <ele>521</ele>
      </trkpt>
      <trkpt lat="44.07758" lon="6.03265">
        <ele>521</ele>
      </trkpt>
      <trkpt lat="44.07747" lon="6.03268">
        <ele>527</ele>
      </trkpt>
      <trkpt lat="44.07745" lon="6.03264">
        <ele>527</ele>
      </trkpt>
      <trkpt lat="44.07747" lon="6.03249">
        <ele>525</ele>
      </trkpt>
      <trkpt lat="44.07752" lon="6.03234">
        <ele>520</ele>
      </trkpt>
      <trkpt lat="44.07759" lon="6.03218">
        <ele>519</ele>
      </trkpt>
      <trkpt lat="44.07765" lon="6.03206">
        <ele>519</ele>
      </trkpt>
      <trkpt lat="44.07766" lon="6.03195">
        <ele>519</ele>
      </trkpt>
      <trkpt lat="44.07768" lon="6.03182">
        <ele>519</ele>
      </trkpt>
      <trkpt lat="44.07771" lon="6.03167">
        <ele>519</ele>
      </trkpt>
      <trkpt lat="44.07772" lon="6.03156">
        <ele>519</ele>
      </trkpt>
      <trkpt lat="44.07771" lon="6.03142">
        <ele>518</ele>
      </trkpt>
      <trkpt lat="44.0777" lon="6.03139">
        <ele>518</ele>
      </trkpt>
      <trkpt lat="44.07766" lon="6.03128">
        <ele>519</ele>
      </trkpt>
      <trkpt lat="44.07768" lon="6.03116">
        <ele>519</ele>
      </trkpt>
      <trkpt lat="44.07774" lon="6.03103">
        <ele>519</ele>
      </trkpt>
      <trkpt lat="44.0778" lon="6.03092">
        <ele>518</ele>
      </trkpt>
      <trkpt lat="44.07781" lon="6.03081">
        <ele>517</ele>
      </trkpt>
      <trkpt lat="44.07781" lon="6.03069">
        <ele>516</ele>
      </trkpt>
      <trkpt lat="44.07781" lon="6.03053">
        <ele>516</ele>
      </trkpt>
      <trkpt lat="44.07776" lon="6.03046">
        <ele>516</ele>
      </trkpt>
      <trkpt lat="44.07769" lon="6.03039">
        <ele>516</ele>
      </trkpt>
      <trkpt lat="44.07764" lon="6.03029">
        <ele>517</ele>
      </trkpt>
      <trkpt lat="44.07769" lon="6.03017">
        <ele>516</ele>
      </trkpt>
      <trkpt lat="44.07769" lon="6.02994">
        <ele>514</ele>
      </trkpt>
      <trkpt lat="44.07766" lon="6.02978">
        <ele>513</ele>
      </trkpt>
      <trkpt lat="44.07765" lon="6.0297">
        <ele>512</ele>
      </trkpt>
      <trkpt lat="44.07754" lon="6.02951">
        <ele>512</ele>
      </trkpt>
      <trkpt lat="44.07737" lon="6.02953">
        <ele>523</ele>
      </trkpt>
      <trkpt lat="44.07718" lon="6.02982">
        <ele>526</ele>
      </trkpt>
      <trkpt lat="44.07714" lon="6.02986">
        <ele>527</ele>
      </trkpt>
      <trkpt lat="44.07691" lon="6.02995">
        <ele>531</ele>
      </trkpt>
      <trkpt lat="44.07671" lon="6.03012">
        <ele>540</ele>
      </trkpt>
      <trkpt lat="44.07664" lon="6.03034">
        <ele>553</ele>
      </trkpt>
      <trkpt lat="44.07663" lon="6.0304">
        <ele>554</ele>
      </trkpt>
      <trkpt lat="44.07658" lon="6.03047">
        <ele>554</ele>
      </trkpt>
      <trkpt lat="44.07645" lon="6.03016">
        <ele>552</ele>
      </trkpt>
      <trkpt lat="44.07643" lon="6.03011">
        <ele>552</ele>
      </trkpt>
      <trkpt lat="44.07633" lon="6.03007">
        <ele>553</ele>
      </trkpt>
      <trkpt lat="44.07622" lon="6.03029">
        <ele>556</ele>
      </trkpt>
      <trkpt lat="44.07608" lon="6.03047">
        <ele>560</ele>
      </trkpt>
      <trkpt lat="44.07584" lon="6.03071">
        <ele>569</ele>
      </trkpt>
      <trkpt lat="44.07575" lon="6.03089">
        <ele>577</ele>
      </trkpt>
      <trkpt lat="44.07562" lon="6.03112">
        <ele>577</ele>
      </trkpt>
      <trkpt lat="44.07548" lon="6.03124">
        <ele>578</ele>
      </trkpt>
      <trkpt lat="44.07529" lon="6.03129">
        <ele>579</ele>
      </trkpt>
      <trkpt lat="44.075" lon="6.03148">
        <ele>592</ele>
      </trkpt>
      <trkpt lat="44.07482" lon="6.03151">
        <ele>594</ele>
      </trkpt>
      <trkpt lat="44.07462" lon="6.03142">
        <ele>598</ele>
      </trkpt>
      <trkpt lat="44.07446" lon="6.03134">
        <ele>601</ele>
      </trkpt>
      <trkpt lat="44.07424" lon="6.03131">
        <ele>604</ele>
      </trkpt>
      <trkpt lat="44.07412" lon="6.03135">
        <ele>620</ele>
      </trkpt>
      <trkpt lat="44.0739" lon="6.03153">
        <ele>622</ele>
      </trkpt>
      <trkpt lat="44.07387" lon="6.0316">
        <ele>623</ele>
      </trkpt>
      <trkpt lat="44.07378" lon="6.03175">
        <ele>627</ele>
      </trkpt>
      <trkpt lat="44.07353" lon="6.03201">
        <ele>630</ele>
      </trkpt>
      <trkpt lat="44.07343" lon="6.03207">
        <ele>631</ele>
      </trkpt>
      <trkpt lat="44.07329" lon="6.03218">
        <ele>643</ele>
      </trkpt>
      <trkpt lat="44.07318" lon="6.03225">
        <ele>643</ele>
      </trkpt>
      <trkpt lat="44.073" lon="6.03233">
        <ele>644</ele>
      </trkpt>
      <trkpt lat="44.07271" lon="6.03249">
        <ele>650</ele>
      </trkpt>
      <trkpt lat="44.0725" lon="6.03265">
        <ele>662</ele>
      </trkpt>
      <trkpt lat="44.07241" lon="6.0327">
        <ele>663</ele>
      </trkpt>
      <trkpt lat="44.07225" lon="6.03279">
        <ele>664</ele>
      </trkpt>
      <trkpt lat="44.07202" lon="6.03289">
        <ele>667</ele>
      </trkpt>
      <trkpt lat="44.07189" lon="6.03293">
        <ele>669</ele>
      </trkpt>
      <trkpt lat="44.07177" lon="6.03305">
        <ele>673</ele>
      </trkpt>
      <trkpt lat="44.07171" lon="6.03311">
        <ele>675</ele>
      </trkpt>
      <trkpt lat="44.0717" lon="6.03312">
        <ele>676</ele>
      </trkpt>
      <trkpt lat="44.07168" lon="6.03318">
        <ele>679</ele>
      </trkpt>
      <trkpt lat="44.07165" lon="6.03331">
        <ele>688</ele>
      </trkpt>
      <trkpt lat="44.07159" lon="6.03346">
        <ele>695</ele>
      </trkpt>
      <trkpt lat="44.07156" lon="6.03372">
        <ele>700</ele>
      </trkpt>
      <trkpt lat="44.07154" lon="6.03397">
        <ele>701</ele>
      </trkpt>
      <trkpt lat="44.07155" lon="6.03432">
        <ele>706</ele>
      </trkpt>
      <trkpt lat="44.07153" lon="6.03446">
        <ele>707</ele>
      </trkpt>
      <trkpt lat="44.07137" lon="6.03473">
        <ele>709</ele>
      </trkpt>
      <trkpt lat="44.07099" lon="6.03499">
        <ele>718</ele>
      </trkpt>
      <trkpt lat="44.07071" lon="6.03519">
        <ele>722</ele>
      </trkpt>
      <trkpt lat="44.07053" lon="6.03553">
        <ele>721</ele>
      </trkpt>
      <trkpt lat="44.07043" lon="6.03583">
        <ele>721</ele>
      </trkpt>
      <trkpt lat="44.07034" lon="6.0362">
        <ele>727</ele>
      </trkpt>
      <trkpt lat="44.07022" lon="6.03651">
        <ele>730</ele>
      </trkpt>
      <trkpt lat="44.0701" lon="6.03666">
        <ele>735</ele>
      </trkpt>
      <trkpt lat="44.06993" lon="6.03691">
        <ele>737</ele>
      </trkpt>
      <trkpt lat="44.0697" lon="6.03734">
        <ele>738</ele>
      </trkpt>
      <trkpt lat="44.06962" lon="6.03751">
        <ele>741</ele>
      </trkpt>
      <trkpt lat="44.06948" lon="6.03784">
        <ele>742</ele>
      </trkpt>
      <trkpt lat="44.06945" lon="6.03792">
        <ele>743</ele>
      </trkpt>
      <trkpt lat="44.06931" lon="6.03811">
        <ele>746</ele>
      </trkpt>
      <trkpt lat="44.06927" lon="6.03814">
        <ele>747</ele>
      </trkpt>
      <trkpt lat="44.06899" lon="6.03839">
        <ele>762</ele>
      </trkpt>
      <trkpt lat="44.06876" lon="6.03855">
        <ele>766</ele>
      </trkpt>
      <trkpt lat="44.06853" lon="6.03858">
        <ele>766</ele>
      </trkpt>
      <trkpt lat="44.06836" lon="6.03863">
        <ele>767</ele>
      </trkpt>
      <trkpt lat="44.06812" lon="6.03858">
        <ele>769</ele>
      </trkpt>
      <trkpt lat="44.0679" lon="6.0386">
        <ele>770</ele>
      </trkpt>
      <trkpt lat="44.0678" lon="6.0386">
        <ele>770</ele>
      </trkpt>
      <trkpt lat="44.06761" lon="6.03863">
        <ele>770</ele>
      </trkpt>
      <trkpt lat="44.06754" lon="6.03864">
        <ele>770</ele>
      </trkpt>
      <trkpt lat="44.06754" lon="6.03867">
        <ele>770</ele>
      </trkpt>
      <trkpt lat="44.06757" lon="6.03891">
        <ele>773</ele>
      </trkpt>
      <trkpt lat="44.06757" lon="6.03899">
        <ele>774</ele>
      </trkpt>
      <trkpt lat="44.06757" lon="6.03954">
        <ele>780</ele>
      </trkpt>
      <trkpt lat="44.06769" lon="6.03997">
        <ele>778</ele>
      </trkpt>
      <trkpt lat="44.06781" lon="6.04035">
        <ele>781</ele>
      </trkpt>
      <trkpt lat="44.06789" lon="6.04069">
        <ele>781</ele>
      </trkpt>
      <trkpt lat="44.06795" lon="6.04104">
        <ele>779</ele>
      </trkpt>
      <trkpt lat="44.068" lon="6.04128">
        <ele>778</ele>
      </trkpt>
      <trkpt lat="44.06806" lon="6.04155">
        <ele>779</ele>
      </trkpt>
      <trkpt lat="44.06815" lon="6.04181">
        <ele>781</ele>
      </trkpt>
      <trkpt lat="44.06822" lon="6.04194">
        <ele>781</ele>
      </trkpt>
      <trkpt lat="44.06829" lon="6.04201">
        <ele>781</ele>
      </trkpt>
      <trkpt lat="44.06839" lon="6.04207">
        <ele>776</ele>
      </trkpt>
      <trkpt lat="44.06849" lon="6.04214">
        <ele>775</ele>
      </trkpt>
      <trkpt lat="44.06852" lon="6.04224">
        <ele>775</ele>
      </trkpt>
      <trkpt lat="44.06857" lon="6.04236">
        <ele>774</ele>
      </trkpt>
      <trkpt lat="44.06858" lon="6.04244">
        <ele>774</ele>
      </trkpt>
      <trkpt lat="44.06858" lon="6.04253">
        <ele>773</ele>
      </trkpt>
      <trkpt lat="44.06858" lon="6.04266">
        <ele>772</ele>
      </trkpt>
      <trkpt lat="44.06861" lon="6.04277">
        <ele>771</ele>
      </trkpt>
      <trkpt lat="44.06866" lon="6.04289">
        <ele>770</ele>
      </trkpt>
      <trkpt lat="44.06873" lon="6.043">
        <ele>769</ele>
      </trkpt>
      <trkpt lat="44.06883" lon="6.04314">
        <ele>767</ele>
      </trkpt>
      <trkpt lat="44.06898" lon="6.04327">
        <ele>762</ele>
      </trkpt>
      <trkpt lat="44.06908" lon="6.04344">
        <ele>760</ele>
      </trkpt>
      <trkpt lat="44.06913" lon="6.04362">
        <ele>763</ele>
      </trkpt>
      <trkpt lat="44.06917" lon="6.04378">
        <ele>741</ele>
      </trkpt>
      <trkpt lat="44.06918" lon="6.04394">
        <ele>742</ele>
      </trkpt>
      <trkpt lat="44.06911" lon="6.04414">
        <ele>757</ele>
      </trkpt>
      <trkpt lat="44.06909" lon="6.04417">
        <ele>756</ele>
      </trkpt>
      <trkpt lat="44.06898" lon="6.04432">
        <ele>761</ele>
      </trkpt>
      <trkpt lat="44.06896" lon="6.04448">
        <ele>762</ele>
      </trkpt>
      <trkpt lat="44.06897" lon="6.04465">
        <ele>760</ele>
      </trkpt>
      <trkpt lat="44.06896" lon="6.04487">
        <ele>757</ele>
      </trkpt>
      <trkpt lat="44.06888" lon="6.04503">
        <ele>756</ele>
      </trkpt>
      <trkpt lat="44.06887" lon="6.04513">
        <ele>757</ele>
      </trkpt>
      <trkpt lat="44.06897" lon="6.04527">
        <ele>756</ele>
      </trkpt>
      <trkpt lat="44.06911" lon="6.04544">
        <ele>755</ele>
      </trkpt>
      <trkpt lat="44.0692" lon="6.04564">
        <ele>736</ele>
      </trkpt>
      <trkpt lat="44.06925" lon="6.04581">
        <ele>740</ele>
      </trkpt>
      <trkpt lat="44.06927" lon="6.04594">
        <ele>739</ele>
      </trkpt>
      <trkpt lat="44.06928" lon="6.04606">
        <ele>737</ele>
      </trkpt>
      <trkpt lat="44.06929" lon="6.04617">
        <ele>736</ele>
      </trkpt>
      <trkpt lat="44.06932" lon="6.04634">
        <ele>736</ele>
      </trkpt>
      <trkpt lat="44.06934" lon="6.04642">
        <ele>736</ele>
      </trkpt>
      <trkpt lat="44.06938" lon="6.04655">
        <ele>737</ele>
      </trkpt>
      <trkpt lat="44.06943" lon="6.04671">
        <ele>737</ele>
      </trkpt>
      <trkpt lat="44.06946" lon="6.04678">
        <ele>736</ele>
      </trkpt>
      <trkpt lat="44.06955" lon="6.0469">
        <ele>735</ele>
      </trkpt>
      <trkpt lat="44.06963" lon="6.04702">
        <ele>734</ele>
      </trkpt>
      <trkpt lat="44.06968" lon="6.04714">
        <ele>734</ele>
      </trkpt>
      <trkpt lat="44.06975" lon="6.04713">
        <ele>734</ele>
      </trkpt>
      <trkpt lat="44.06997" lon="6.04728">
        <ele>734</ele>
      </trkpt>
      <trkpt lat="44.07002" lon="6.0474">
        <ele>736</ele>
      </trkpt>
      <trkpt lat="44.07009" lon="6.04766">
        <ele>738</ele>
      </trkpt>
      <trkpt lat="44.07014" lon="6.04793">
        <ele>740</ele>
      </trkpt>
      <trkpt lat="44.07018" lon="6.04828">
        <ele>736</ele>
      </trkpt>
      <trkpt lat="44.07021" lon="6.04855">
        <ele>733</ele>
      </trkpt>
      <trkpt lat="44.07022" lon="6.04875">
        <ele>732</ele>
      </trkpt>
      <trkpt lat="44.07027" lon="6.04907">
        <ele>730</ele>
      </trkpt>
      <trkpt lat="44.07034" lon="6.04927">
        <ele>722</ele>
      </trkpt>
      <trkpt lat="44.07041" lon="6.04945">
        <ele>723</ele>
      </trkpt>
      <trkpt lat="44.07056" lon="6.04966">
        <ele>723</ele>
      </trkpt>
      <trkpt lat="44.07067" lon="6.04979">
        <ele>723</ele>
      </trkpt>
      <trkpt lat="44.07074" lon="6.04999">
        <ele>724</ele>
      </trkpt>
      <trkpt lat="44.07076" lon="6.05023">
        <ele>713</ele>
      </trkpt>
      <trkpt lat="44.07078" lon="6.05047">
        <ele>708</ele>
      </trkpt>
      <trkpt lat="44.07084" lon="6.05062">
        <ele>720</ele>
      </trkpt>
      <trkpt lat="44.07102" lon="6.05085">
        <ele>711</ele>
      </trkpt>
      <trkpt lat="44.07109" lon="6.05095">
        <ele>712</ele>
      </trkpt>
      <trkpt lat="44.07118" lon="6.0511">
        <ele>713</ele>
      </trkpt>
      <trkpt lat="44.07128" lon="6.05125">
        <ele>713</ele>
      </trkpt>
      <trkpt lat="44.07143" lon="6.05133">
        <ele>714</ele>
      </trkpt>
      <trkpt lat="44.07153" lon="6.05147">
        <ele>715</ele>
      </trkpt>
      <trkpt lat="44.07158" lon="6.05164">
        <ele>717</ele>
      </trkpt>
      <trkpt lat="44.07157" lon="6.05174">
        <ele>714</ele>
      </trkpt>
      <trkpt lat="44.07154" lon="6.05187">
        <ele>710</ele>
      </trkpt>
      <trkpt lat="44.07145" lon="6.05201">
        <ele>708</ele>
      </trkpt>
      <trkpt lat="44.07137" lon="6.0522">
        <ele>707</ele>
      </trkpt>
      <trkpt lat="44.07132" lon="6.05246">
        <ele>706</ele>
      </trkpt>
      <trkpt lat="44.0713" lon="6.05267">
        <ele>704</ele>
      </trkpt>
      <trkpt lat="44.07124" lon="6.05286">
        <ele>703</ele>
      </trkpt>
      <trkpt lat="44.07117" lon="6.05305">
        <ele>702</ele>
      </trkpt>
      <trkpt lat="44.07107" lon="6.05329">
        <ele>699</ele>
      </trkpt>
      <trkpt lat="44.071" lon="6.0535">
        <ele>695</ele>
      </trkpt>
      <trkpt lat="44.07101" lon="6.0537">
        <ele>695</ele>
      </trkpt>
      <trkpt lat="44.07114" lon="6.05406">
        <ele>693</ele>
      </trkpt>
      <trkpt lat="44.07126" lon="6.05426">
        <ele>692</ele>
      </trkpt>
      <trkpt lat="44.07141" lon="6.05444">
        <ele>694</ele>
      </trkpt>
      <trkpt lat="44.07153" lon="6.05472">
        <ele>695</ele>
      </trkpt>
      <trkpt lat="44.07155" lon="6.05477">
        <ele>696</ele>
      </trkpt>
      <trkpt lat="44.07155" lon="6.05492">
        <ele>697</ele>
      </trkpt>
      <trkpt lat="44.07128" lon="6.05509">
        <ele>697</ele>
      </trkpt>
      <trkpt lat="44.07109" lon="6.05527">
        <ele>695</ele>
      </trkpt>
      <trkpt lat="44.071" lon="6.0554">
        <ele>695</ele>
      </trkpt>
      <trkpt lat="44.0709" lon="6.05574">
        <ele>695</ele>
      </trkpt>
      <trkpt lat="44.0709" lon="6.05614">
        <ele>705</ele>
      </trkpt>
      <trkpt lat="44.07086" lon="6.05638">
        <ele>706</ele>
      </trkpt>
      <trkpt lat="44.07068" lon="6.05669">
        <ele>697</ele>
      </trkpt>
      <trkpt lat="44.0705" lon="6.05684">
        <ele>692</ele>
      </trkpt>
      <trkpt lat="44.07045" lon="6.05698">
        <ele>692</ele>
      </trkpt>
      <trkpt lat="44.07047" lon="6.05727">
        <ele>692</ele>
      </trkpt>
      <trkpt lat="44.07046" lon="6.05755">
        <ele>694</ele>
      </trkpt>
      <trkpt lat="44.07046" lon="6.05782">
        <ele>693</ele>
      </trkpt>
      <trkpt lat="44.07048" lon="6.05801">
        <ele>694</ele>
      </trkpt>
      <trkpt lat="44.07049" lon="6.05821">
        <ele>694</ele>
      </trkpt>
      <trkpt lat="44.07046" lon="6.05837">
        <ele>691</ele>
      </trkpt>
      <trkpt lat="44.07045" lon="6.05847">
        <ele>691</ele>
      </trkpt>
      <trkpt lat="44.07042" lon="6.05859">
        <ele>690</ele>
      </trkpt>
      <trkpt lat="44.0704" lon="6.05865">
        <ele>689</ele>
      </trkpt>
      <trkpt lat="44.0704" lon="6.05881">
        <ele>688</ele>
      </trkpt>
      <trkpt lat="44.07039" lon="6.05902">
        <ele>687</ele>
      </trkpt>
      <trkpt lat="44.07039" lon="6.05924">
        <ele>682</ele>
      </trkpt>
      <trkpt lat="44.07044" lon="6.05941">
        <ele>682</ele>
      </trkpt>
      <trkpt lat="44.0705" lon="6.05959">
        <ele>682</ele>
      </trkpt>
      <trkpt lat="44.07048" lon="6.05976">
        <ele>681</ele>
      </trkpt>
      <trkpt lat="44.07042" lon="6.05999">
        <ele>679</ele>
      </trkpt>
      <trkpt lat="44.07039" lon="6.06019">
        <ele>673</ele>
      </trkpt>
      <trkpt lat="44.07043" lon="6.06038">
        <ele>672</ele>
      </trkpt>
      <trkpt lat="44.07043" lon="6.06065">
        <ele>671</ele>
      </trkpt>
      <trkpt lat="44.07041" lon="6.06086">
        <ele>665</ele>
      </trkpt>
      <trkpt lat="44.07039" lon="6.0609">
        <ele>664</ele>
      </trkpt>
      <trkpt lat="44.07032" lon="6.06098">
        <ele>664</ele>
      </trkpt>
      <trkpt lat="44.07029" lon="6.06097">
        <ele>664</ele>
      </trkpt>
      <trkpt lat="44.07017" lon="6.06096">
        <ele>663</ele>
      </trkpt>
      <trkpt lat="44.07006" lon="6.06106">
        <ele>663</ele>
      </trkpt>
      <trkpt lat="44.07002" lon="6.06116">
        <ele>662</ele>
      </trkpt>
      <trkpt lat="44.06991" lon="6.06131">
        <ele>656</ele>
      </trkpt>
      <trkpt lat="44.0698" lon="6.06138">
        <ele>656</ele>
      </trkpt>
      <trkpt lat="44.06968" lon="6.06138">
        <ele>656</ele>
      </trkpt>
      <trkpt lat="44.06955" lon="6.0613">
        <ele>656</ele>
      </trkpt>
      <trkpt lat="44.06943" lon="6.06122">
        <ele>656</ele>
      </trkpt>
      <trkpt lat="44.06926" lon="6.06124">
        <ele>656</ele>
      </trkpt>
      <trkpt lat="44.06909" lon="6.06131">
        <ele>653</ele>
      </trkpt>
      <trkpt lat="44.06895" lon="6.06141">
        <ele>653</ele>
      </trkpt>
      <trkpt lat="44.06881" lon="6.06166">
        <ele>652</ele>
      </trkpt>
      <trkpt lat="44.06873" lon="6.06179">
        <ele>647</ele>
      </trkpt>
      <trkpt lat="44.06867" lon="6.062">
        <ele>646</ele>
      </trkpt>
      <trkpt lat="44.06866" lon="6.06218">
        <ele>645</ele>
      </trkpt>
      <trkpt lat="44.06862" lon="6.06233">
        <ele>644</ele>
      </trkpt>
      <trkpt lat="44.06854" lon="6.06243">
        <ele>643</ele>
      </trkpt>
      <trkpt lat="44.06847" lon="6.06253">
        <ele>639</ele>
      </trkpt>
      <trkpt lat="44.06843" lon="6.06267">
        <ele>638</ele>
      </trkpt>
      <trkpt lat="44.06837" lon="6.06276">
        <ele>638</ele>
      </trkpt>
      <trkpt lat="44.06831" lon="6.06287">
        <ele>634</ele>
      </trkpt>
      <trkpt lat="44.06828" lon="6.06306">
        <ele>633</ele>
      </trkpt>
      <trkpt lat="44.06833" lon="6.06324">
        <ele>630</ele>
      </trkpt>
      <trkpt lat="44.06853" lon="6.06333">
        <ele>634</ele>
      </trkpt>
      <trkpt lat="44.06866" lon="6.06334">
        <ele>634</ele>
      </trkpt>
      <trkpt lat="44.06885" lon="6.06333">
        <ele>637</ele>
      </trkpt>
      <trkpt lat="44.06903" lon="6.06312">
        <ele>638</ele>
      </trkpt>
      <trkpt lat="44.0691" lon="6.06305">
        <ele>639</ele>
      </trkpt>
      <trkpt lat="44.06917" lon="6.06317">
        <ele>639</ele>
      </trkpt>
      <trkpt lat="44.069" lon="6.06351">
        <ele>637</ele>
      </trkpt>
      <trkpt lat="44.06887" lon="6.06368">
        <ele>636</ele>
      </trkpt>
      <trkpt lat="44.06874" lon="6.06378">
        <ele>635</ele>
      </trkpt>
      <trkpt lat="44.06853" lon="6.06395">
        <ele>634</ele>
      </trkpt>
      <trkpt lat="44.06846" lon="6.06405">
        <ele>633</ele>
      </trkpt>
      <trkpt lat="44.06843" lon="6.06409">
        <ele>632</ele>
      </trkpt>
      <trkpt lat="44.06829" lon="6.06424">
        <ele>630</ele>
      </trkpt>
      <trkpt lat="44.06833" lon="6.0645">
        <ele>630</ele>
      </trkpt>
      <trkpt lat="44.0684" lon="6.06465">
        <ele>637</ele>
      </trkpt>
      <trkpt lat="44.06844" lon="6.06474">
        <ele>637</ele>
      </trkpt>
      <trkpt lat="44.06847" lon="6.06494">
        <ele>637</ele>
      </trkpt>
      <trkpt lat="44.06832" lon="6.06521">
        <ele>635</ele>
      </trkpt>
      <trkpt lat="44.06827" lon="6.06524">
        <ele>635</ele>
      </trkpt>
      <trkpt lat="44.06811" lon="6.06536">
        <ele>635</ele>
      </trkpt>
      <trkpt lat="44.06792" lon="6.06565">
        <ele>635</ele>
      </trkpt>
      <trkpt lat="44.06786" lon="6.06587">
        <ele>639</ele>
      </trkpt>
      <trkpt lat="44.06782" lon="6.06611">
        <ele>639</ele>
      </trkpt>
      <trkpt lat="44.06765" lon="6.06627">
        <ele>639</ele>
      </trkpt>
      <trkpt lat="44.06737" lon="6.06643">
        <ele>634</ele>
      </trkpt>
      <trkpt lat="44.067" lon="6.06672">
        <ele>641</ele>
      </trkpt>
      <trkpt lat="44.06651" lon="6.06683">
        <ele>635</ele>
      </trkpt>
      <trkpt lat="44.06634" lon="6.06688">
        <ele>635</ele>
      </trkpt>
      <trkpt lat="44.06609" lon="6.06714">
        <ele>636</ele>
      </trkpt>
      <trkpt lat="44.06602" lon="6.06727">
        <ele>637</ele>
      </trkpt>
      <trkpt lat="44.06584" lon="6.06754">
        <ele>641</ele>
      </trkpt>
      <trkpt lat="44.06573" lon="6.0678">
        <ele>638</ele>
      </trkpt>
      <trkpt lat="44.06565" lon="6.06805">
        <ele>638</ele>
      </trkpt>
      <trkpt lat="44.0656" lon="6.06843">
        <ele>639</ele>
      </trkpt>
      <trkpt lat="44.06556" lon="6.06867">
        <ele>639</ele>
      </trkpt>
      <trkpt lat="44.0655" lon="6.06901">
        <ele>638</ele>
      </trkpt>
      <trkpt lat="44.0655" lon="6.06925">
        <ele>636</ele>
      </trkpt>
      <trkpt lat="44.06558" lon="6.06941">
        <ele>637</ele>
      </trkpt>
      <trkpt lat="44.06566" lon="6.06951">
        <ele>637</ele>
      </trkpt>
      <trkpt lat="44.06568" lon="6.06963">
        <ele>637</ele>
      </trkpt>
      <trkpt lat="44.06557" lon="6.06996">
        <ele>637</ele>
      </trkpt>
      <trkpt lat="44.06549" lon="6.07024">
        <ele>634</ele>
      </trkpt>
      <trkpt lat="44.06545" lon="6.07043">
        <ele>633</ele>
      </trkpt>
      <trkpt lat="44.06544" lon="6.0707">
        <ele>632</ele>
      </trkpt>
      <trkpt lat="44.06542" lon="6.07092">
        <ele>628</ele>
      </trkpt>
      <trkpt lat="44.06541" lon="6.0712">
        <ele>627</ele>
      </trkpt>
      <trkpt lat="44.06544" lon="6.07146">
        <ele>626</ele>
      </trkpt>
      <trkpt lat="44.06551" lon="6.07168">
        <ele>625</ele>
      </trkpt>
      <trkpt lat="44.06557" lon="6.07189">
        <ele>626</ele>
      </trkpt>
      <trkpt lat="44.06562" lon="6.07208">
        <ele>625</ele>
      </trkpt>
      <trkpt lat="44.06577" lon="6.07224">
        <ele>627</ele>
      </trkpt>
      <trkpt lat="44.06581" lon="6.0723">
        <ele>628</ele>
      </trkpt>
      <trkpt lat="44.0657" lon="6.07246">
        <ele>628</ele>
      </trkpt>
      <trkpt lat="44.06535" lon="6.07262">
        <ele>624</ele>
      </trkpt>
      <trkpt lat="44.06531" lon="6.07263">
        <ele>623</ele>
      </trkpt>
      <trkpt lat="44.06516" lon="6.07272">
        <ele>621</ele>
      </trkpt>
      <trkpt lat="44.0651" lon="6.07293">
        <ele>623</ele>
      </trkpt>
      <trkpt lat="44.06512" lon="6.07315">
        <ele>623</ele>
      </trkpt>
      <trkpt lat="44.06522" lon="6.0734">
        <ele>627</ele>
      </trkpt>
      <trkpt lat="44.06534" lon="6.07359">
        <ele>630</ele>
      </trkpt>
      <trkpt lat="44.06541" lon="6.07365">
        <ele>631</ele>
      </trkpt>
      <trkpt lat="44.06542" lon="6.07379">
        <ele>631</ele>
      </trkpt>
      <trkpt lat="44.06527" lon="6.07384">
        <ele>630</ele>
      </trkpt>
      <trkpt lat="44.06503" lon="6.07369">
        <ele>628</ele>
      </trkpt>
      <trkpt lat="44.06483" lon="6.07365">
        <ele>622</ele>
      </trkpt>
      <trkpt lat="44.0647" lon="6.07365">
        <ele>622</ele>
      </trkpt>
      <trkpt lat="44.06449" lon="6.07396">
        <ele>623</ele>
      </trkpt>
      <trkpt lat="44.06445" lon="6.07407">
        <ele>623</ele>
      </trkpt>
      <trkpt lat="44.06428" lon="6.07472">
        <ele>629</ele>
      </trkpt>
      <trkpt lat="44.06427" lon="6.07495">
        <ele>629</ele>
      </trkpt>
      <trkpt lat="44.06424" lon="6.07517">
        <ele>631</ele>
      </trkpt>
      <trkpt lat="44.06418" lon="6.07583">
        <ele>631</ele>
      </trkpt>
      <trkpt lat="44.06412" lon="6.07662">
        <ele>632</ele>
      </trkpt>
      <trkpt lat="44.06404" lon="6.07713">
        <ele>632</ele>
      </trkpt>
      <trkpt lat="44.064" lon="6.07723">
        <ele>632</ele>
      </trkpt>
      <trkpt lat="44.06387" lon="6.07777">
        <ele>633</ele>
      </trkpt>
      <trkpt lat="44.06384" lon="6.07844">
        <ele>635</ele>
      </trkpt>
      <trkpt lat="44.06384" lon="6.07902">
        <ele>636</ele>
      </trkpt>
      <trkpt lat="44.06383" lon="6.07962">
        <ele>639</ele>
      </trkpt>
      <trkpt lat="44.06381" lon="6.0799">
        <ele>640</ele>
      </trkpt>
      <trkpt lat="44.06368" lon="6.08052">
        <ele>645</ele>
      </trkpt>
      <trkpt lat="44.06363" lon="6.08094">
        <ele>649</ele>
      </trkpt>
      <trkpt lat="44.06367" lon="6.08127">
        <ele>649</ele>
      </trkpt>
      <trkpt lat="44.06372" lon="6.08161">
        <ele>649</ele>
      </trkpt>
      <trkpt lat="44.06373" lon="6.08187">
        <ele>648</ele>
      </trkpt>
      <trkpt lat="44.06369" lon="6.08214">
        <ele>648</ele>
      </trkpt>
      <trkpt lat="44.06367" lon="6.08242">
        <ele>647</ele>
      </trkpt>
      <trkpt lat="44.06366" lon="6.08272">
        <ele>644</ele>
      </trkpt>
      <trkpt lat="44.06365" lon="6.08305">
        <ele>643</ele>
      </trkpt>
      <trkpt lat="44.06363" lon="6.08328">
        <ele>643</ele>
      </trkpt>
      <trkpt lat="44.06365" lon="6.08346">
        <ele>641</ele>
      </trkpt>
      <trkpt lat="44.06377" lon="6.08357">
        <ele>640</ele>
      </trkpt>
      <trkpt lat="44.06397" lon="6.08351">
        <ele>639</ele>
      </trkpt>
      <trkpt lat="44.06414" lon="6.08347">
        <ele>638</ele>
      </trkpt>
      <trkpt lat="44.06427" lon="6.08357">
        <ele>636</ele>
      </trkpt>
      <trkpt lat="44.06437" lon="6.08375">
        <ele>636</ele>
      </trkpt>
      <trkpt lat="44.06448" lon="6.08404">
        <ele>636</ele>
      </trkpt>
      <trkpt lat="44.06455" lon="6.08434">
        <ele>635</ele>
      </trkpt>
      <trkpt lat="44.06448" lon="6.08452">
        <ele>635</ele>
      </trkpt>
      <trkpt lat="44.06428" lon="6.08472">
        <ele>634</ele>
      </trkpt>
      <trkpt lat="44.06418" lon="6.08493">
        <ele>633</ele>
      </trkpt>
      <trkpt lat="44.0641" lon="6.0853">
        <ele>633</ele>
      </trkpt>
      <trkpt lat="44.06405" lon="6.08573">
        <ele>633</ele>
      </trkpt>
      <trkpt lat="44.06401" lon="6.08609">
        <ele>631</ele>
      </trkpt>
      <trkpt lat="44.06399" lon="6.08641">
        <ele>630</ele>
      </trkpt>
      <trkpt lat="44.06394" lon="6.08693">
        <ele>628</ele>
      </trkpt>
      <trkpt lat="44.0639" lon="6.08729">
        <ele>628</ele>
      </trkpt>
      <trkpt lat="44.06386" lon="6.08759">
        <ele>629</ele>
      </trkpt>
      <trkpt lat="44.06376" lon="6.08789">
        <ele>628</ele>
      </trkpt>
      <trkpt lat="44.06362" lon="6.08817">
        <ele>627</ele>
      </trkpt>
      <trkpt lat="44.06351" lon="6.08839">
        <ele>628</ele>
      </trkpt>
      <trkpt lat="44.06341" lon="6.08862">
        <ele>629</ele>
      </trkpt>
      <trkpt lat="44.0633" lon="6.08881">
        <ele>623</ele>
      </trkpt>
      <trkpt lat="44.06313" lon="6.08907">
        <ele>624</ele>
      </trkpt>
      <trkpt lat="44.06303" lon="6.08925">
        <ele>624</ele>
      </trkpt>
      <trkpt lat="44.06296" lon="6.08942">
        <ele>624</ele>
      </trkpt>
      <trkpt lat="44.06294" lon="6.08945">
        <ele>624</ele>
      </trkpt>
      <trkpt lat="44.06286" lon="6.08962">
        <ele>623</ele>
      </trkpt>
      <trkpt lat="44.06285" lon="6.08965">
        <ele>623</ele>
      </trkpt>
      <trkpt lat="44.06277" lon="6.08973">
        <ele>623</ele>
      </trkpt>
      <trkpt lat="44.06272" lon="6.08971">
        <ele>622</ele>
      </trkpt>
      <trkpt lat="44.06265" lon="6.08967">
        <ele>622</ele>
      </trkpt>
      <trkpt lat="44.06263" lon="6.08964">
        <ele>622</ele>
      </trkpt>
      <trkpt lat="44.06257" lon="6.08952">
        <ele>622</ele>
      </trkpt>
      <trkpt lat="44.06251" lon="6.08934">
        <ele>620</ele>
      </trkpt>
      <trkpt lat="44.0625" lon="6.08927">
        <ele>617</ele>
      </trkpt>
      <trkpt lat="44.06241" lon="6.08901">
        <ele>617</ele>
      </trkpt>
      <trkpt lat="44.06234" lon="6.08875">
        <ele>617</ele>
      </trkpt>
      <trkpt lat="44.06228" lon="6.08851">
        <ele>617</ele>
      </trkpt>
      <trkpt lat="44.06221" lon="6.08833">
        <ele>617</ele>
      </trkpt>
      <trkpt lat="44.06217" lon="6.08818">
        <ele>619</ele>
      </trkpt>
      <trkpt lat="44.0621" lon="6.0881">
        <ele>620</ele>
      </trkpt>
      <trkpt lat="44.06205" lon="6.08812">
        <ele>620</ele>
      </trkpt>
      <trkpt lat="44.06193" lon="6.08827">
        <ele>619</ele>
      </trkpt>
      <trkpt lat="44.06185" lon="6.08846">
        <ele>617</ele>
      </trkpt>
      <trkpt lat="44.06178" lon="6.08865">
        <ele>616</ele>
      </trkpt>
      <trkpt lat="44.06169" lon="6.0889">
        <ele>616</ele>
      </trkpt>
      <trkpt lat="44.06164" lon="6.08906">
        <ele>616</ele>
      </trkpt>
      <trkpt lat="44.06153" lon="6.08936">
        <ele>615</ele>
      </trkpt>
      <trkpt lat="44.06148" lon="6.08959">
        <ele>615</ele>
      </trkpt>
      <trkpt lat="44.06142" lon="6.08985">
        <ele>614</ele>
      </trkpt>
      <trkpt lat="44.06139" lon="6.09004">
        <ele>612</ele>
      </trkpt>
      <trkpt lat="44.06135" lon="6.09025">
        <ele>612</ele>
      </trkpt>
      <trkpt lat="44.06132" lon="6.09044">
        <ele>612</ele>
      </trkpt>
      <trkpt lat="44.06126" lon="6.09062">
        <ele>612</ele>
      </trkpt>
      <trkpt lat="44.06124" lon="6.09069">
        <ele>611</ele>
      </trkpt>
      <trkpt lat="44.06115" lon="6.0909">
        <ele>609</ele>
      </trkpt>
      <trkpt lat="44.06114" lon="6.09092">
        <ele>609</ele>
      </trkpt>
      <trkpt lat="44.06109" lon="6.09104">
        <ele>609</ele>
      </trkpt>
      <trkpt lat="44.06109" lon="6.09106">
        <ele>609</ele>
      </trkpt>
      <trkpt lat="44.06103" lon="6.09121">
        <ele>609</ele>
      </trkpt>
      <trkpt lat="44.06099" lon="6.09137">
        <ele>608</ele>
      </trkpt>
      <trkpt lat="44.06091" lon="6.0915">
        <ele>608</ele>
      </trkpt>
      <trkpt lat="44.06084" lon="6.09168">
        <ele>607</ele>
      </trkpt>
      <trkpt lat="44.06078" lon="6.09183">
        <ele>605</ele>
      </trkpt>
      <trkpt lat="44.0607" lon="6.09199">
        <ele>604</ele>
      </trkpt>
      <trkpt lat="44.06064" lon="6.09217">
        <ele>603</ele>
      </trkpt>
      <trkpt lat="44.06059" lon="6.09232">
        <ele>603</ele>
      </trkpt>
      <trkpt lat="44.06052" lon="6.09252">
        <ele>600</ele>
      </trkpt>
      <trkpt lat="44.06046" lon="6.09275">
        <ele>599</ele>
      </trkpt>
      <trkpt lat="44.06041" lon="6.09285">
        <ele>599</ele>
      </trkpt>
      <trkpt lat="44.06033" lon="6.09305">
        <ele>599</ele>
      </trkpt>
      <trkpt lat="44.06021" lon="6.0933">
        <ele>598</ele>
      </trkpt>
      <trkpt lat="44.06014" lon="6.09344">
        <ele>596</ele>
      </trkpt>
      <trkpt lat="44.06014" lon="6.0936">
        <ele>595</ele>
      </trkpt>
      <trkpt lat="44.06018" lon="6.09375">
        <ele>594</ele>
      </trkpt>
      <trkpt lat="44.06019" lon="6.09398">
        <ele>593</ele>
      </trkpt>
      <trkpt lat="44.06017" lon="6.09416">
        <ele>593</ele>
      </trkpt>
      <trkpt lat="44.06014" lon="6.09437">
        <ele>590</ele>
      </trkpt>
      <trkpt lat="44.06012" lon="6.0946">
        <ele>589</ele>
      </trkpt>
      <trkpt lat="44.06007" lon="6.0949">
        <ele>587</ele>
      </trkpt>
      <trkpt lat="44.06004" lon="6.09518">
        <ele>586</ele>
      </trkpt>
      <trkpt lat="44.06" lon="6.09555">
        <ele>584</ele>
      </trkpt>
      <trkpt lat="44.05996" lon="6.09583">
        <ele>583</ele>
      </trkpt>
      <trkpt lat="44.05991" lon="6.09603">
        <ele>581</ele>
      </trkpt>
      <trkpt lat="44.05988" lon="6.09628">
        <ele>580</ele>
      </trkpt>
      <trkpt lat="44.05983" lon="6.09666">
        <ele>580</ele>
      </trkpt>
      <trkpt lat="44.05979" lon="6.09689">
        <ele>577</ele>
      </trkpt>
      <trkpt lat="44.05975" lon="6.09717">
        <ele>577</ele>
      </trkpt>
      <trkpt lat="44.05975" lon="6.09744">
        <ele>576</ele>
      </trkpt>
      <trkpt lat="44.05977" lon="6.09781">
        <ele>574</ele>
      </trkpt>
      <trkpt lat="44.05979" lon="6.09812">
        <ele>574</ele>
      </trkpt>
      <trkpt lat="44.05983" lon="6.09833">
        <ele>573</ele>
      </trkpt>
      <trkpt lat="44.05985" lon="6.09857">
        <ele>571</ele>
      </trkpt>
      <trkpt lat="44.05984" lon="6.09864">
        <ele>571</ele>
      </trkpt>
      <trkpt lat="44.0597" lon="6.09867">
        <ele>571</ele>
      </trkpt>
      <trkpt lat="44.05956" lon="6.0986">
        <ele>571</ele>
      </trkpt>
      <trkpt lat="44.05928" lon="6.09845">
        <ele>571</ele>
      </trkpt>
      <trkpt lat="44.05882" lon="6.09817">
        <ele>574</ele>
      </trkpt>
      <trkpt lat="44.05852" lon="6.09801">
        <ele>575</ele>
      </trkpt>
      <trkpt lat="44.05841" lon="6.09794">
        <ele>575</ele>
      </trkpt>
      <trkpt lat="44.05827" lon="6.09787">
        <ele>576</ele>
      </trkpt>
      <trkpt lat="44.05826" lon="6.09787">
        <ele>576</ele>
      </trkpt>
      <trkpt lat="44.05826" lon="6.09786">
        <ele>576</ele>
      </trkpt>
      <trkpt lat="44.05816" lon="6.0978">
        <ele>577</ele>
      </trkpt>
      <trkpt lat="44.05807" lon="6.09764">
        <ele>577</ele>
      </trkpt>
      <trkpt lat="44.05798" lon="6.09757">
        <ele>577</ele>
      </trkpt>
      <trkpt lat="44.05784" lon="6.09757">
        <ele>577</ele>
      </trkpt>
      <trkpt lat="44.05771" lon="6.09757">
        <ele>577</ele>
      </trkpt>
      <trkpt lat="44.05761" lon="6.09751">
        <ele>577</ele>
      </trkpt>
      <trkpt lat="44.05748" lon="6.09748">
        <ele>578</ele>
      </trkpt>
      <trkpt lat="44.05736" lon="6.09754">
        <ele>576</ele>
      </trkpt>
      <trkpt lat="44.05723" lon="6.09762">
        <ele>574</ele>
      </trkpt>
      <trkpt lat="44.05709" lon="6.0977">
        <ele>573</ele>
      </trkpt>
      <trkpt lat="44.05696" lon="6.09777">
        <ele>573</ele>
      </trkpt>
      <trkpt lat="44.05684" lon="6.09785">
        <ele>572</ele>
      </trkpt>
      <trkpt lat="44.05671" lon="6.09795">
        <ele>572</ele>
      </trkpt>
      <trkpt lat="44.05657" lon="6.09805">
        <ele>568</ele>
      </trkpt>
      <trkpt lat="44.05637" lon="6.09817">
        <ele>567</ele>
      </trkpt>
      <trkpt lat="44.05622" lon="6.09827">
        <ele>566</ele>
      </trkpt>
      <trkpt lat="44.05606" lon="6.09838">
        <ele>564</ele>
      </trkpt>
      <trkpt lat="44.05588" lon="6.09851">
        <ele>563</ele>
      </trkpt>
      <trkpt lat="44.05569" lon="6.09864">
        <ele>560</ele>
      </trkpt>
      <trkpt lat="44.0555" lon="6.09877">
        <ele>560</ele>
      </trkpt>
      <trkpt lat="44.05532" lon="6.0989">
        <ele>559</ele>
      </trkpt>
      <trkpt lat="44.05513" lon="6.09903">
        <ele>558</ele>
      </trkpt>
      <trkpt lat="44.05496" lon="6.09915">
        <ele>557</ele>
      </trkpt>
      <trkpt lat="44.0548" lon="6.09927">
        <ele>555</ele>
      </trkpt>
      <trkpt lat="44.05464" lon="6.09938">
        <ele>555</ele>
      </trkpt>
      <trkpt lat="44.0545" lon="6.09948">
        <ele>554</ele>
      </trkpt>
      <trkpt lat="44.05442" lon="6.09954">
        <ele>554</ele>
      </trkpt>
      <trkpt lat="44.05434" lon="6.09956">
        <ele>554</ele>
      </trkpt>
      <trkpt lat="44.05417" lon="6.09968">
        <ele>550</ele>
      </trkpt>
      <trkpt lat="44.05403" lon="6.09978">
        <ele>550</ele>
      </trkpt>
      <trkpt lat="44.05386" lon="6.09992">
        <ele>550</ele>
      </trkpt>
      <trkpt lat="44.05371" lon="6.10003">
        <ele>549</ele>
      </trkpt>
      <trkpt lat="44.05353" lon="6.10017">
        <ele>548</ele>
      </trkpt>
      <trkpt lat="44.05337" lon="6.10028">
        <ele>548</ele>
      </trkpt>
      <trkpt lat="44.05323" lon="6.10037">
        <ele>544</ele>
      </trkpt>
      <trkpt lat="44.05308" lon="6.10047">
        <ele>544</ele>
      </trkpt>
      <trkpt lat="44.05294" lon="6.10059">
        <ele>543</ele>
      </trkpt>
      <trkpt lat="44.05281" lon="6.10068">
        <ele>542</ele>
      </trkpt>
      <trkpt lat="44.05263" lon="6.1008">
        <ele>541</ele>
      </trkpt>
      <trkpt lat="44.05247" lon="6.10091">
        <ele>539</ele>
      </trkpt>
      <trkpt lat="44.05234" lon="6.101">
        <ele>538</ele>
      </trkpt>
      <trkpt lat="44.05221" lon="6.10107">
        <ele>537</ele>
      </trkpt>
      <trkpt lat="44.05212" lon="6.10112">
        <ele>537</ele>
      </trkpt>
      <trkpt lat="44.05202" lon="6.10117">
        <ele>536</ele>
      </trkpt>
      <trkpt lat="44.05189" lon="6.10123">
        <ele>536</ele>
      </trkpt>
      <trkpt lat="44.0518" lon="6.10132">
        <ele>536</ele>
      </trkpt>
      <trkpt lat="44.05166" lon="6.10155">
        <ele>533</ele>
      </trkpt>
      <trkpt lat="44.0516" lon="6.10175">
        <ele>532</ele>
      </trkpt>
      <trkpt lat="44.0515" lon="6.10195">
        <ele>530</ele>
      </trkpt>
      <trkpt lat="44.05137" lon="6.10215">
        <ele>529</ele>
      </trkpt>
      <trkpt lat="44.05128" lon="6.10225">
        <ele>529</ele>
      </trkpt>
      <trkpt lat="44.05122" lon="6.10238">
        <ele>529</ele>
      </trkpt>
      <trkpt lat="44.05113" lon="6.10262">
        <ele>525</ele>
      </trkpt>
      <trkpt lat="44.05107" lon="6.10282">
        <ele>525</ele>
      </trkpt>
      <trkpt lat="44.051" lon="6.10306">
        <ele>524</ele>
      </trkpt>
      <trkpt lat="44.05092" lon="6.10329">
        <ele>522</ele>
      </trkpt>
      <trkpt lat="44.05086" lon="6.1035">
        <ele>520</ele>
      </trkpt>
      <trkpt lat="44.0508" lon="6.10368">
        <ele>517</ele>
      </trkpt>
      <trkpt lat="44.05073" lon="6.10387">
        <ele>517</ele>
      </trkpt>
      <trkpt lat="44.05065" lon="6.10408">
        <ele>516</ele>
      </trkpt>
      <trkpt lat="44.05055" lon="6.10436">
        <ele>514</ele>
      </trkpt>
      <trkpt lat="44.05043" lon="6.10471">
        <ele>513</ele>
      </trkpt>
      <trkpt lat="44.05032" lon="6.10533">
        <ele>513</ele>
      </trkpt>
      <trkpt lat="44.05029" lon="6.10583">
        <ele>514</ele>
      </trkpt>
      <trkpt lat="44.0503" lon="6.10641">
        <ele>514</ele>
      </trkpt>
      <trkpt lat="44.05032" lon="6.10663">
        <ele>514</ele>
      </trkpt>
      <trkpt lat="44.05042" lon="6.10688">
        <ele>515</ele>
      </trkpt>
      <trkpt lat="44.0506" lon="6.10727">
        <ele>515</ele>
      </trkpt>
      <trkpt lat="44.05066" lon="6.10737">
        <ele>515</ele>
      </trkpt>
      <trkpt lat="44.05094" lon="6.10776">
        <ele>517</ele>
      </trkpt>
      <trkpt lat="44.05117" lon="6.108">
        <ele>518</ele>
      </trkpt>
      <trkpt lat="44.05149" lon="6.10812">
        <ele>519</ele>
      </trkpt>
      <trkpt lat="44.05165" lon="6.10821">
        <ele>520</ele>
      </trkpt>
      <trkpt lat="44.05202" lon="6.10836">
        <ele>521</ele>
      </trkpt>
      <trkpt lat="44.05227" lon="6.10852">
        <ele>521</ele>
      </trkpt>
      <trkpt lat="44.05243" lon="6.10874">
        <ele>521</ele>
      </trkpt>
      <trkpt lat="44.05273" lon="6.1091">
        <ele>522</ele>
      </trkpt>
      <trkpt lat="44.0528" lon="6.1092">
        <ele>522</ele>
      </trkpt>
      <trkpt lat="44.05308" lon="6.10974">
        <ele>523</ele>
      </trkpt>
      <trkpt lat="44.05326" lon="6.11001">
        <ele>524</ele>
      </trkpt>
      <trkpt lat="44.05346" lon="6.11034">
        <ele>526</ele>
      </trkpt>
      <trkpt lat="44.05359" lon="6.11042">
        <ele>526</ele>
      </trkpt>
      <trkpt lat="44.05374" lon="6.11035">
        <ele>526</ele>
      </trkpt>
      <trkpt lat="44.05377" lon="6.11039">
        <ele>527</ele>
      </trkpt>
      <trkpt lat="44.05382" lon="6.11051">
        <ele>526</ele>
      </trkpt>
      <trkpt lat="44.05369" lon="6.11081">
        <ele>527</ele>
      </trkpt>
      <trkpt lat="44.05353" lon="6.11154">
        <ele>527</ele>
      </trkpt>
      <trkpt lat="44.05339" lon="6.11198">
        <ele>530</ele>
      </trkpt>
      <trkpt lat="44.05332" lon="6.11231">
        <ele>532</ele>
      </trkpt>
      <trkpt lat="44.05324" lon="6.11256">
        <ele>535</ele>
      </trkpt>
      <trkpt lat="44.05321" lon="6.11262">
        <ele>535</ele>
      </trkpt>
      <trkpt lat="44.0529" lon="6.1132">
        <ele>536</ele>
      </trkpt>
      <trkpt lat="44.05253" lon="6.11386">
        <ele>541</ele>
      </trkpt>
      <trkpt lat="44.0522" lon="6.11446">
        <ele>542</ele>
      </trkpt>
      <trkpt lat="44.05185" lon="6.1151">
        <ele>547</ele>
      </trkpt>
      <trkpt lat="44.0516" lon="6.11559">
        <ele>545</ele>
      </trkpt>
      <trkpt lat="44.05134" lon="6.11608">
        <ele>548</ele>
      </trkpt>
      <trkpt lat="44.05103" lon="6.11662">
        <ele>548</ele>
      </trkpt>
      <trkpt lat="44.05077" lon="6.11708">
        <ele>547</ele>
      </trkpt>
      <trkpt lat="44.05052" lon="6.11752">
        <ele>551</ele>
      </trkpt>
      <trkpt lat="44.05027" lon="6.11797">
        <ele>552</ele>
      </trkpt>
      <trkpt lat="44.05008" lon="6.11833">
        <ele>552</ele>
      </trkpt>
      <trkpt lat="44.04992" lon="6.11865">
        <ele>551</ele>
      </trkpt>
      <trkpt lat="44.04983" lon="6.11892">
        <ele>552</ele>
      </trkpt>
      <trkpt lat="44.04978" lon="6.11928">
        <ele>552</ele>
      </trkpt>
      <trkpt lat="44.04974" lon="6.11956">
        <ele>552</ele>
      </trkpt>
      <trkpt lat="44.0497" lon="6.11989">
        <ele>551</ele>
      </trkpt>
      <trkpt lat="44.04969" lon="6.12018">
        <ele>550</ele>
      </trkpt>
      <trkpt lat="44.04969" lon="6.12023">
        <ele>550</ele>
      </trkpt>
      <trkpt lat="44.0498" lon="6.12049">
        <ele>550</ele>
      </trkpt>
      <trkpt lat="44.04984" lon="6.12053">
        <ele>550</ele>
      </trkpt>
      <trkpt lat="44.05014" lon="6.12075">
        <ele>553</ele>
      </trkpt>
      <trkpt lat="44.05045" lon="6.12093">
        <ele>554</ele>
      </trkpt>
      <trkpt lat="44.05073" lon="6.12102">
        <ele>555</ele>
      </trkpt>
      <trkpt lat="44.05088" lon="6.12115">
        <ele>559</ele>
      </trkpt>
      <trkpt lat="44.051" lon="6.12154">
        <ele>559</ele>
      </trkpt>
      <trkpt lat="44.051" lon="6.12165">
        <ele>559</ele>
      </trkpt>
      <trkpt lat="44.05081" lon="6.12169">
        <ele>558</ele>
      </trkpt>
      <trkpt lat="44.05077" lon="6.12166">
        <ele>557</ele>
      </trkpt>
      <trkpt lat="44.05059" lon="6.12166">
        <ele>556</ele>
      </trkpt>
      <trkpt lat="44.05053" lon="6.12174">
        <ele>560</ele>
      </trkpt>
      <trkpt lat="44.05038" lon="6.12209">
        <ele>561</ele>
      </trkpt>
      <trkpt lat="44.05035" lon="6.12224">
        <ele>562</ele>
      </trkpt>
      <trkpt lat="44.05033" lon="6.12229">
        <ele>562</ele>
      </trkpt>
      <trkpt lat="44.05011" lon="6.12273">
        <ele>567</ele>
      </trkpt>
      <trkpt lat="44.04999" lon="6.123">
        <ele>564</ele>
      </trkpt>
      <trkpt lat="44.04994" lon="6.12306">
        <ele>564</ele>
      </trkpt>
      <trkpt lat="44.04988" lon="6.12315">
        <ele>565</ele>
      </trkpt>
      <trkpt lat="44.04981" lon="6.1232">
        <ele>565</ele>
      </trkpt>
      <trkpt lat="44.0497" lon="6.12325">
        <ele>563</ele>
      </trkpt>
      <trkpt lat="44.04964" lon="6.12348">
        <ele>566</ele>
      </trkpt>
      <trkpt lat="44.04958" lon="6.12373">
        <ele>566</ele>
      </trkpt>
      <trkpt lat="44.04951" lon="6.12395">
        <ele>566</ele>
      </trkpt>
      <trkpt lat="44.04949" lon="6.12411">
        <ele>566</ele>
      </trkpt>
      <trkpt lat="44.04944" lon="6.12434">
        <ele>567</ele>
      </trkpt>
      <trkpt lat="44.04939" lon="6.12452">
        <ele>567</ele>
      </trkpt>
      <trkpt lat="44.04936" lon="6.12465">
        <ele>567</ele>
      </trkpt>
      <trkpt lat="44.04935" lon="6.12467">
        <ele>567</ele>
      </trkpt>
      <trkpt lat="44.04931" lon="6.12489">
        <ele>565</ele>
      </trkpt>
      <trkpt lat="44.04927" lon="6.12512">
        <ele>565</ele>
      </trkpt>
      <trkpt lat="44.04922" lon="6.12536">
        <ele>566</ele>
      </trkpt>
      <trkpt lat="44.04916" lon="6.12566">
        <ele>558</ele>
      </trkpt>
      <trkpt lat="44.04909" lon="6.12592">
        <ele>560</ele>
      </trkpt>
      <trkpt lat="44.04901" lon="6.12609">
        <ele>559</ele>
      </trkpt>
      <trkpt lat="44.04899" lon="6.12612">
        <ele>559</ele>
      </trkpt>
      <trkpt lat="44.0489" lon="6.12625">
        <ele>559</ele>
      </trkpt>
      <trkpt lat="44.04889" lon="6.12629">
        <ele>559</ele>
      </trkpt>
      <trkpt lat="44.04874" lon="6.12664">
        <ele>560</ele>
      </trkpt>
      <trkpt lat="44.04863" lon="6.12696">
        <ele>562</ele>
      </trkpt>
      <trkpt lat="44.04851" lon="6.12731">
        <ele>562</ele>
      </trkpt>
      <trkpt lat="44.04842" lon="6.12761">
        <ele>562</ele>
      </trkpt>
      <trkpt lat="44.04833" lon="6.12785">
        <ele>560</ele>
      </trkpt>
      <trkpt lat="44.0483" lon="6.12798">
        <ele>560</ele>
      </trkpt>
      <trkpt lat="44.04831" lon="6.12819">
        <ele>561</ele>
      </trkpt>
      <trkpt lat="44.0483" lon="6.12835">
        <ele>562</ele>
      </trkpt>
      <trkpt lat="44.04821" lon="6.12856">
        <ele>560</ele>
      </trkpt>
      <trkpt lat="44.04813" lon="6.12872">
        <ele>559</ele>
      </trkpt>
      <trkpt lat="44.04807" lon="6.12887">
        <ele>559</ele>
      </trkpt>
      <trkpt lat="44.048" lon="6.12904">
        <ele>559</ele>
      </trkpt>
      <trkpt lat="44.04791" lon="6.12923">
        <ele>555</ele>
      </trkpt>
      <trkpt lat="44.0478" lon="6.12942">
        <ele>555</ele>
      </trkpt>
      <trkpt lat="44.04771" lon="6.12956">
        <ele>554</ele>
      </trkpt>
      <trkpt lat="44.04763" lon="6.12968">
        <ele>554</ele>
      </trkpt>
      <trkpt lat="44.04756" lon="6.12979">
        <ele>553</ele>
      </trkpt>
      <trkpt lat="44.04742" lon="6.13">
        <ele>553</ele>
      </trkpt>
      <trkpt lat="44.04729" lon="6.13011">
        <ele>550</ele>
      </trkpt>
      <trkpt lat="44.04715" lon="6.1302">
        <ele>549</ele>
      </trkpt>
      <trkpt lat="44.04704" lon="6.13028">
        <ele>549</ele>
      </trkpt>
      <trkpt lat="44.04691" lon="6.13039">
        <ele>548</ele>
      </trkpt>
      <trkpt lat="44.04677" lon="6.1305">
        <ele>548</ele>
      </trkpt>
      <trkpt lat="44.04669" lon="6.13057">
        <ele>547</ele>
      </trkpt>
      <trkpt lat="44.04655" lon="6.13066">
        <ele>546</ele>
      </trkpt>
      <trkpt lat="44.04647" lon="6.13073">
        <ele>546</ele>
      </trkpt>
      <trkpt lat="44.04637" lon="6.13082">
        <ele>545</ele>
      </trkpt>
      <trkpt lat="44.04634" lon="6.13087">
        <ele>541</ele>
      </trkpt>
      <trkpt lat="44.04633" lon="6.13088">
        <ele>540</ele>
      </trkpt>
      <trkpt lat="44.04635" lon="6.13096">
        <ele>540</ele>
      </trkpt>
      <trkpt lat="44.04635" lon="6.13107">
        <ele>540</ele>
      </trkpt>
      <trkpt lat="44.04631" lon="6.13117">
        <ele>539</ele>
      </trkpt>
      <trkpt lat="44.04629" lon="6.13128">
        <ele>538</ele>
      </trkpt>
      <trkpt lat="44.04626" lon="6.13141">
        <ele>537</ele>
      </trkpt>
      <trkpt lat="44.04624" lon="6.13148">
        <ele>537</ele>
      </trkpt>
      <trkpt lat="44.04624" lon="6.13155">
        <ele>537</ele>
      </trkpt>
      <trkpt lat="44.04625" lon="6.1316">
        <ele>536</ele>
      </trkpt>
      <trkpt lat="44.04624" lon="6.13163">
        <ele>536</ele>
      </trkpt>
      <trkpt lat="44.04624" lon="6.13166">
        <ele>536</ele>
      </trkpt>
      <trkpt lat="44.04623" lon="6.1318">
        <ele>531</ele>
      </trkpt>
      <trkpt lat="44.04622" lon="6.13186">
        <ele>531</ele>
      </trkpt>
      <trkpt lat="44.04618" lon="6.13196">
        <ele>531</ele>
      </trkpt>
      <trkpt lat="44.04614" lon="6.13208">
        <ele>530</ele>
      </trkpt>
      <trkpt lat="44.04609" lon="6.1322">
        <ele>529</ele>
      </trkpt>
      <trkpt lat="44.046" lon="6.13237">
        <ele>528</ele>
      </trkpt>
      <trkpt lat="44.04592" lon="6.13242">
        <ele>527</ele>
      </trkpt>
      <trkpt lat="44.04582" lon="6.13244">
        <ele>525</ele>
      </trkpt>
      <trkpt lat="44.04584" lon="6.13243">
        <ele>526</ele>
      </trkpt>
      <trkpt lat="44.04585" lon="6.13243">
        <ele>526</ele>
      </trkpt>
      <trkpt lat="44.04586" lon="6.13241">
        <ele>527</ele>
      </trkpt>
      <trkpt lat="44.04581" lon="6.13242">
        <ele>525</ele>
      </trkpt>
      <trkpt lat="44.04568" lon="6.1325">
        <ele>524</ele>
      </trkpt>
      <trkpt lat="44.04558" lon="6.1326">
        <ele>521</ele>
      </trkpt>
      <trkpt lat="44.04554" lon="6.13278">
        <ele>520</ele>
      </trkpt>
      <trkpt lat="44.04543" lon="6.13303">
        <ele>519</ele>
      </trkpt>
      <trkpt lat="44.04526" lon="6.13325">
        <ele>518</ele>
      </trkpt>
      <trkpt lat="44.04508" lon="6.13343">
        <ele>516</ele>
      </trkpt>
      <trkpt lat="44.04491" lon="6.13361">
        <ele>514</ele>
      </trkpt>
      <trkpt lat="44.04477" lon="6.13375">
        <ele>513</ele>
      </trkpt>
      <trkpt lat="44.04458" lon="6.13395">
        <ele>513</ele>
      </trkpt>
      <trkpt lat="44.04442" lon="6.13406">
        <ele>513</ele>
      </trkpt>
      <trkpt lat="44.04415" lon="6.13418">
        <ele>513</ele>
      </trkpt>
      <trkpt lat="44.04392" lon="6.13432">
        <ele>512</ele>
      </trkpt>
      <trkpt lat="44.04378" lon="6.13444">
        <ele>512</ele>
      </trkpt>
      <trkpt lat="44.04352" lon="6.1346">
        <ele>512</ele>
      </trkpt>
      <trkpt lat="44.0433" lon="6.13472">
        <ele>509</ele>
      </trkpt>
      <trkpt lat="44.04311" lon="6.13485">
        <ele>509</ele>
      </trkpt>
      <trkpt lat="44.04288" lon="6.13499">
        <ele>509</ele>
      </trkpt>
      <trkpt lat="44.04282" lon="6.13501">
        <ele>509</ele>
      </trkpt>
      <trkpt lat="44.0428" lon="6.13512">
        <ele>508</ele>
      </trkpt>
      <trkpt lat="44.04278" lon="6.13528">
        <ele>508</ele>
      </trkpt>
      <trkpt lat="44.04266" lon="6.13536">
        <ele>508</ele>
      </trkpt>
      <trkpt lat="44.04241" lon="6.13546">
        <ele>506</ele>
      </trkpt>
      <trkpt lat="44.04217" lon="6.13556">
        <ele>506</ele>
      </trkpt>
      <trkpt lat="44.04201" lon="6.13567">
        <ele>506</ele>
      </trkpt>
      <trkpt lat="44.04149" lon="6.13592">
        <ele>504</ele>
      </trkpt>
      <trkpt lat="44.0414" lon="6.13595">
        <ele>504</ele>
      </trkpt>
      <trkpt lat="44.04126" lon="6.13601">
        <ele>504</ele>
      </trkpt>
      <trkpt lat="44.0409" lon="6.13619">
        <ele>505</ele>
      </trkpt>
      <trkpt lat="44.04074" lon="6.13628">
        <ele>507</ele>
      </trkpt>
      <trkpt lat="44.04059" lon="6.13629">
        <ele>507</ele>
      </trkpt>
      <trkpt lat="44.04045" lon="6.13602">
        <ele>508</ele>
      </trkpt>
      <trkpt lat="44.04042" lon="6.13598">
        <ele>508</ele>
      </trkpt>
      <trkpt lat="44.04029" lon="6.13596">
        <ele>508</ele>
      </trkpt>
      <trkpt lat="44.04025" lon="6.136">
        <ele>509</ele>
      </trkpt>
      <trkpt lat="44.04009" lon="6.13609">
        <ele>509</ele>
      </trkpt>
      <trkpt lat="44.04005" lon="6.13612">
        <ele>509</ele>
      </trkpt>
      <trkpt lat="44.0398" lon="6.13636">
        <ele>509</ele>
      </trkpt>
      <trkpt lat="44.03963" lon="6.13649">
        <ele>509</ele>
      </trkpt>
      <trkpt lat="44.03955" lon="6.13656">
        <ele>509</ele>
      </trkpt>
      <trkpt lat="44.03957" lon="6.13679">
        <ele>509</ele>
      </trkpt>
      <trkpt lat="44.03978" lon="6.13727">
        <ele>508</ele>
      </trkpt>
      <trkpt lat="44.04004" lon="6.13793">
        <ele>508</ele>
      </trkpt>
      <trkpt lat="44.04015" lon="6.13817">
        <ele>508</ele>
      </trkpt>
      <trkpt lat="44.04034" lon="6.13864">
        <ele>510</ele>
      </trkpt>
      <trkpt lat="44.04044" lon="6.13889">
        <ele>510</ele>
      </trkpt>
      <trkpt lat="44.04046" lon="6.13888">
        <ele>510</ele>
      </trkpt>
      <trkpt lat="44.04038" lon="6.1387">
        <ele>510</ele>
      </trkpt>
      <trkpt lat="44.04034" lon="6.13861">
        <ele>510</ele>
      </trkpt>
      <trkpt lat="44.04035" lon="6.13865">
        <ele>510</ele>
      </trkpt>
      <trkpt lat="44.04043" lon="6.1388">
        <ele>510</ele>
      </trkpt>
      <trkpt lat="44.04063" lon="6.13928">
        <ele>510</ele>
      </trkpt>
      <trkpt lat="44.04083" lon="6.13973">
        <ele>510</ele>
      </trkpt>
      <trkpt lat="44.04086" lon="6.13996">
        <ele>510</ele>
      </trkpt>
      <trkpt lat="44.04082" lon="6.14">
        <ele>510</ele>
      </trkpt>
      <trkpt lat="44.04053" lon="6.14025">
        <ele>510</ele>
      </trkpt>
      <trkpt lat="44.0404" lon="6.14035">
        <ele>510</ele>
      </trkpt>
      <trkpt lat="44.04008" lon="6.14057">
        <ele>509</ele>
      </trkpt>
      <trkpt lat="44.04001" lon="6.14063">
        <ele>509</ele>
      </trkpt>
      <trkpt lat="44.04002" lon="6.14079">
        <ele>508</ele>
      </trkpt>
      <trkpt lat="44.04013" lon="6.14104">
        <ele>509</ele>
      </trkpt>
      <trkpt lat="44.04037" lon="6.14155">
        <ele>509</ele>
      </trkpt>
      <trkpt lat="44.04045" lon="6.14171">
        <ele>510</ele>
      </trkpt>
      <trkpt lat="44.04056" lon="6.14178">
        <ele>510</ele>
      </trkpt>
      <trkpt lat="44.04061" lon="6.14176">
        <ele>510</ele>
      </trkpt>
      <trkpt lat="44.04063" lon="6.14176">
        <ele>510</ele>
      </trkpt>
      <trkpt lat="44.04062" lon="6.14184">
        <ele>510</ele>
      </trkpt>
      <trkpt lat="44.04038" lon="6.14207">
        <ele>509</ele>
      </trkpt>
      <trkpt lat="44.03983" lon="6.14258">
        <ele>506</ele>
      </trkpt>
      <trkpt lat="44.03951" lon="6.14287">
        <ele>507</ele>
      </trkpt>
      <trkpt lat="44.03943" lon="6.14298">
        <ele>507</ele>
      </trkpt>
      <trkpt lat="44.03943" lon="6.14297">
        <ele>507</ele>
      </trkpt>
      <trkpt lat="44.03939" lon="6.143">
        <ele>507</ele>
      </trkpt>
      <trkpt lat="44.03915" lon="6.1433">
        <ele>508</ele>
      </trkpt>
      <trkpt lat="44.03905" lon="6.1435">
        <ele>508</ele>
      </trkpt>
      <trkpt lat="44.03905" lon="6.14362">
        <ele>508</ele>
      </trkpt>
      <trkpt lat="44.03916" lon="6.14375">
        <ele>508</ele>
      </trkpt>
      <trkpt lat="44.03935" lon="6.14417">
        <ele>509</ele>
      </trkpt>
      <trkpt lat="44.03958" lon="6.14444">
        <ele>509</ele>
      </trkpt>
      <trkpt lat="44.03986" lon="6.14475">
        <ele>509</ele>
      </trkpt>
      <trkpt lat="44.04" lon="6.14483">
        <ele>509</ele>
      </trkpt>
      <trkpt lat="44.04009" lon="6.14491">
        <ele>509</ele>
      </trkpt>
      <trkpt lat="44.04018" lon="6.14497">
        <ele>509</ele>
      </trkpt>
      <trkpt lat="44.04037" lon="6.14506">
        <ele>509</ele>
      </trkpt>
      <trkpt lat="44.04055" lon="6.1452">
        <ele>509</ele>
      </trkpt>
      <trkpt lat="44.04065" lon="6.14537">
        <ele>509</ele>
      </trkpt>
      <trkpt lat="44.04088" lon="6.14581">
        <ele>510</ele>
      </trkpt>
      <trkpt lat="44.04111" lon="6.14629">
        <ele>511</ele>
      </trkpt>
      <trkpt lat="44.04131" lon="6.14668">
        <ele>512</ele>
      </trkpt>
      <trkpt lat="44.04142" lon="6.14691">
        <ele>513</ele>
      </trkpt>
      <trkpt lat="44.04148" lon="6.14703">
        <ele>513</ele>
      </trkpt>
      <trkpt lat="44.04147" lon="6.14708">
        <ele>513</ele>
      </trkpt>
      <trkpt lat="44.04147" lon="6.14708">
        <ele>513</ele>
      </trkpt>
      <trkpt lat="44.04152" lon="6.14722">
        <ele>513</ele>
      </trkpt>
      <trkpt lat="44.04166" lon="6.14778">
        <ele>513</ele>
      </trkpt>
      <trkpt lat="44.0418" lon="6.14832">
        <ele>515</ele>
      </trkpt>
      <trkpt lat="44.0418" lon="6.14839">
        <ele>515</ele>
      </trkpt>
      <trkpt lat="44.04175" lon="6.1486">
        <ele>516</ele>
      </trkpt>
      <trkpt lat="44.04179" lon="6.14879">
        <ele>516</ele>
      </trkpt>
      <trkpt lat="44.04183" lon="6.14895">
        <ele>516</ele>
      </trkpt>
      <trkpt lat="44.04167" lon="6.14919">
        <ele>516</ele>
      </trkpt>
      <trkpt lat="44.04157" lon="6.1493">
        <ele>516</ele>
      </trkpt>
      <trkpt lat="44.04126" lon="6.14965">
        <ele>516</ele>
      </trkpt>
      <trkpt lat="44.04121" lon="6.14971">
        <ele>516</ele>
      </trkpt>
      <trkpt lat="44.04089" lon="6.15004">
        <ele>517</ele>
      </trkpt>
      <trkpt lat="44.04057" lon="6.15034">
        <ele>518</ele>
      </trkpt>
      <trkpt lat="44.04022" lon="6.15069">
        <ele>519</ele>
      </trkpt>
      <trkpt lat="44.03982" lon="6.15108">
        <ele>522</ele>
      </trkpt>
      <trkpt lat="44.03972" lon="6.15117">
        <ele>523</ele>
      </trkpt>
      <trkpt lat="44.03969" lon="6.15138">
        <ele>523</ele>
      </trkpt>
      <trkpt lat="44.03971" lon="6.15146">
        <ele>523</ele>
      </trkpt>
      <trkpt lat="44.03983" lon="6.15219">
        <ele>528</ele>
      </trkpt>
      <trkpt lat="44.03991" lon="6.15308">
        <ele>532</ele>
      </trkpt>
      <trkpt lat="44.03997" lon="6.15398">
        <ele>532</ele>
      </trkpt>
      <trkpt lat="44.04007" lon="6.15462">
        <ele>529</ele>
      </trkpt>
      <trkpt lat="44.04029" lon="6.15528">
        <ele>530</ele>
      </trkpt>
      <trkpt lat="44.04055" lon="6.15582">
        <ele>529</ele>
      </trkpt>
      <trkpt lat="44.04067" lon="6.15611">
        <ele>531</ele>
      </trkpt>
      <trkpt lat="44.04085" lon="6.15639">
        <ele>529</ele>
      </trkpt>
      <trkpt lat="44.04107" lon="6.15676">
        <ele>533</ele>
      </trkpt>
      <trkpt lat="44.04113" lon="6.1569">
        <ele>533</ele>
      </trkpt>
      <trkpt lat="44.04127" lon="6.15718">
        <ele>533</ele>
      </trkpt>
      <trkpt lat="44.04144" lon="6.15744">
        <ele>533</ele>
      </trkpt>
      <trkpt lat="44.04156" lon="6.15765">
        <ele>535</ele>
      </trkpt>
      <trkpt lat="44.04181" lon="6.15805">
        <ele>532</ele>
      </trkpt>
      <trkpt lat="44.04194" lon="6.15827">
        <ele>532</ele>
      </trkpt>
      <trkpt lat="44.04209" lon="6.15856">
        <ele>534</ele>
      </trkpt>
      <trkpt lat="44.04231" lon="6.15899">
        <ele>534</ele>
      </trkpt>
      <trkpt lat="44.04249" lon="6.15925">
        <ele>534</ele>
      </trkpt>
      <trkpt lat="44.04256" lon="6.15935">
        <ele>532</ele>
      </trkpt>
      <trkpt lat="44.04264" lon="6.15945">
        <ele>533</ele>
      </trkpt>
      <trkpt lat="44.04282" lon="6.15968">
        <ele>533</ele>
      </trkpt>
      <trkpt lat="44.04288" lon="6.15987">
        <ele>534</ele>
      </trkpt>
      <trkpt lat="44.04293" lon="6.15999">
        <ele>534</ele>
      </trkpt>
      <trkpt lat="44.04318" lon="6.16025">
        <ele>536</ele>
      </trkpt>
      <trkpt lat="44.04342" lon="6.1606">
        <ele>533</ele>
      </trkpt>
      <trkpt lat="44.04369" lon="6.16108">
        <ele>535</ele>
      </trkpt>
      <trkpt lat="44.04388" lon="6.16155">
        <ele>535</ele>
      </trkpt>
      <trkpt lat="44.044" lon="6.1619">
        <ele>539</ele>
      </trkpt>
      <trkpt lat="44.04408" lon="6.16218">
        <ele>541</ele>
      </trkpt>
      <trkpt lat="44.04418" lon="6.16257">
        <ele>540</ele>
      </trkpt>
      <trkpt lat="44.04422" lon="6.16289">
        <ele>539</ele>
      </trkpt>
      <trkpt lat="44.04426" lon="6.163">
        <ele>539</ele>
      </trkpt>
      <trkpt lat="44.04431" lon="6.16326">
        <ele>540</ele>
      </trkpt>
      <trkpt lat="44.04444" lon="6.16335">
        <ele>540</ele>
      </trkpt>
      <trkpt lat="44.04448" lon="6.16337">
        <ele>540</ele>
      </trkpt>
      <trkpt lat="44.04463" lon="6.16354">
        <ele>539</ele>
      </trkpt>
      <trkpt lat="44.0447" lon="6.16355">
        <ele>539</ele>
      </trkpt>
      <trkpt lat="44.04486" lon="6.16367">
        <ele>539</ele>
      </trkpt>
      <trkpt lat="44.04495" lon="6.16377">
        <ele>539</ele>
      </trkpt>
      <trkpt lat="44.04494" lon="6.16386">
        <ele>539</ele>
      </trkpt>
      <trkpt lat="44.04494" lon="6.16386">
        <ele>539</ele>
      </trkpt>
      <trkpt lat="44.04497" lon="6.16387">
        <ele>539</ele>
      </trkpt>
      <trkpt lat="44.04511" lon="6.16386">
        <ele>536</ele>
      </trkpt>
      <trkpt lat="44.0453" lon="6.16381">
        <ele>536</ele>
      </trkpt>
      <trkpt lat="44.04558" lon="6.16356">
        <ele>535</ele>
      </trkpt>
      <trkpt lat="44.04591" lon="6.16337">
        <ele>534</ele>
      </trkpt>
      <trkpt lat="44.04618" lon="6.16319">
        <ele>532</ele>
      </trkpt>
      <trkpt lat="44.04649" lon="6.16279">
        <ele>532</ele>
      </trkpt>
      <trkpt lat="44.04674" lon="6.16243">
        <ele>531</ele>
      </trkpt>
      <trkpt lat="44.04683" lon="6.16228">
        <ele>531</ele>
      </trkpt>
      <trkpt lat="44.04678" lon="6.16242">
        <ele>531</ele>
      </trkpt>
      <trkpt lat="44.04679" lon="6.1624">
        <ele>531</ele>
      </trkpt>
      <trkpt lat="44.04687" lon="6.16232">
        <ele>531</ele>
      </trkpt>
      <trkpt lat="44.04687" lon="6.1623">
        <ele>531</ele>
      </trkpt>
      <trkpt lat="44.04687" lon="6.16221">
        <ele>531</ele>
      </trkpt>
      <trkpt lat="44.04697" lon="6.16208">
        <ele>531</ele>
      </trkpt>
      <trkpt lat="44.04715" lon="6.16189">
        <ele>530</ele>
      </trkpt>
      <trkpt lat="44.04727" lon="6.1616">
        <ele>529</ele>
      </trkpt>
      <trkpt lat="44.0474" lon="6.16142">
        <ele>529</ele>
      </trkpt>
      <trkpt lat="44.04759" lon="6.16142">
        <ele>529</ele>
      </trkpt>
      <trkpt lat="44.04773" lon="6.16166">
        <ele>529</ele>
      </trkpt>
      <trkpt lat="44.0478" lon="6.162">
        <ele>529</ele>
      </trkpt>
      <trkpt lat="44.04789" lon="6.16244">
        <ele>529</ele>
      </trkpt>
      <trkpt lat="44.04809" lon="6.16296">
        <ele>529</ele>
      </trkpt>
      <trkpt lat="44.04839" lon="6.16343">
        <ele>529</ele>
      </trkpt>
      <trkpt lat="44.04868" lon="6.16382">
        <ele>530</ele>
      </trkpt>
      <trkpt lat="44.04882" lon="6.16393">
        <ele>531</ele>
      </trkpt>
      <trkpt lat="44.04922" lon="6.16412">
        <ele>531</ele>
      </trkpt>
      <trkpt lat="44.04954" lon="6.16427">
        <ele>534</ele>
      </trkpt>
      <trkpt lat="44.04968" lon="6.16436">
        <ele>534</ele>
      </trkpt>
      <trkpt lat="44.0498" lon="6.16464">
        <ele>535</ele>
      </trkpt>
      <trkpt lat="44.04988" lon="6.16482">
        <ele>536</ele>
      </trkpt>
      <trkpt lat="44.05008" lon="6.1652">
        <ele>536</ele>
      </trkpt>
      <trkpt lat="44.05051" lon="6.16574">
        <ele>535</ele>
      </trkpt>
      <trkpt lat="44.05086" lon="6.16616">
        <ele>532</ele>
      </trkpt>
      <trkpt lat="44.05117" lon="6.16655">
        <ele>533</ele>
      </trkpt>
      <trkpt lat="44.05157" lon="6.16702">
        <ele>534</ele>
      </trkpt>
      <trkpt lat="44.05191" lon="6.16742">
        <ele>534</ele>
      </trkpt>
      <trkpt lat="44.05224" lon="6.16776">
        <ele>535</ele>
      </trkpt>
      <trkpt lat="44.05254" lon="6.16808">
        <ele>534</ele>
      </trkpt>
      <trkpt lat="44.05281" lon="6.16834">
        <ele>535</ele>
      </trkpt>
      <trkpt lat="44.05305" lon="6.16859">
        <ele>534</ele>
      </trkpt>
      <trkpt lat="44.05315" lon="6.16873">
        <ele>534</ele>
      </trkpt>
      <trkpt lat="44.05315" lon="6.16876">
        <ele>534</ele>
      </trkpt>
      <trkpt lat="44.05309" lon="6.1689">
        <ele>534</ele>
      </trkpt>
      <trkpt lat="44.05287" lon="6.16934">
        <ele>536</ele>
      </trkpt>
      <trkpt lat="44.05261" lon="6.16986">
        <ele>537</ele>
      </trkpt>
      <trkpt lat="44.05246" lon="6.17027">
        <ele>540</ele>
      </trkpt>
      <trkpt lat="44.05243" lon="6.17057">
        <ele>540</ele>
      </trkpt>
      <trkpt lat="44.05239" lon="6.17075">
        <ele>540</ele>
      </trkpt>
      <trkpt lat="44.05229" lon="6.17095">
        <ele>541</ele>
      </trkpt>
      <trkpt lat="44.05221" lon="6.17104">
        <ele>541</ele>
      </trkpt>
      <trkpt lat="44.05207" lon="6.1713">
        <ele>542</ele>
      </trkpt>
      <trkpt lat="44.05203" lon="6.17146">
        <ele>542</ele>
      </trkpt>
      <trkpt lat="44.05195" lon="6.17208">
        <ele>544</ele>
      </trkpt>
      <trkpt lat="44.05185" lon="6.17285">
        <ele>544</ele>
      </trkpt>
      <trkpt lat="44.05176" lon="6.17314">
        <ele>545</ele>
      </trkpt>
      <trkpt lat="44.05162" lon="6.17338">
        <ele>545</ele>
      </trkpt>
      <trkpt lat="44.05142" lon="6.17388">
        <ele>547</ele>
      </trkpt>
      <trkpt lat="44.05124" lon="6.17458">
        <ele>549</ele>
      </trkpt>
      <trkpt lat="44.05114" lon="6.17494">
        <ele>549</ele>
      </trkpt>
      <trkpt lat="44.0511" lon="6.1756">
        <ele>552</ele>
      </trkpt>
      <trkpt lat="44.05112" lon="6.17583">
        <ele>553</ele>
      </trkpt>
      <trkpt lat="44.05112" lon="6.1759">
        <ele>555</ele>
      </trkpt>
      <trkpt lat="44.05102" lon="6.17613">
        <ele>555</ele>
      </trkpt>
      <trkpt lat="44.05077" lon="6.17631">
        <ele>556</ele>
      </trkpt>
      <trkpt lat="44.05048" lon="6.17648">
        <ele>556</ele>
      </trkpt>
      <trkpt lat="44.05024" lon="6.17654">
        <ele>557</ele>
      </trkpt>
      <trkpt lat="44.05007" lon="6.17667">
        <ele>560</ele>
      </trkpt>
      <trkpt lat="44.04999" lon="6.17683">
        <ele>561</ele>
      </trkpt>
      <trkpt lat="44.04994" lon="6.17696">
        <ele>563</ele>
      </trkpt>
      <trkpt lat="44.04995" lon="6.17706">
        <ele>563</ele>
      </trkpt>
      <trkpt lat="44.04996" lon="6.17707">
        <ele>564</ele>
      </trkpt>
      <trkpt lat="44.04994" lon="6.17728">
        <ele>565</ele>
      </trkpt>
      <trkpt lat="44.04989" lon="6.17742">
        <ele>566</ele>
      </trkpt>
      <trkpt lat="44.04985" lon="6.1775">
        <ele>570</ele>
      </trkpt>
      <trkpt lat="44.04967" lon="6.17779">
        <ele>572</ele>
      </trkpt>
      <trkpt lat="44.04962" lon="6.17783">
        <ele>572</ele>
      </trkpt>
      <trkpt lat="44.04953" lon="6.17792">
        <ele>573</ele>
      </trkpt>
      <trkpt lat="44.04948" lon="6.17795">
        <ele>573</ele>
      </trkpt>
      <trkpt lat="44.04933" lon="6.17811">
        <ele>575</ele>
      </trkpt>
      <trkpt lat="44.04925" lon="6.17817">
        <ele>576</ele>
      </trkpt>
      <trkpt lat="44.04907" lon="6.17822">
        <ele>577</ele>
      </trkpt>
      <trkpt lat="44.04897" lon="6.17824">
        <ele>576</ele>
      </trkpt>
      <trkpt lat="44.04889" lon="6.17827">
        <ele>576</ele>
      </trkpt>
      <trkpt lat="44.04874" lon="6.17833">
        <ele>576</ele>
      </trkpt>
      <trkpt lat="44.04895" lon="6.17841">
        <ele>580</ele>
      </trkpt>
      <trkpt lat="44.04905" lon="6.17851">
        <ele>581</ele>
      </trkpt>
      <trkpt lat="44.04921" lon="6.1786">
        <ele>580</ele>
      </trkpt>
      <trkpt lat="44.04946" lon="6.17875">
        <ele>581</ele>
      </trkpt>
      <trkpt lat="44.04974" lon="6.17891">
        <ele>581</ele>
      </trkpt>
      <trkpt lat="44.0501" lon="6.17917">
        <ele>583</ele>
      </trkpt>
      <trkpt lat="44.0504" lon="6.1793">
        <ele>584</ele>
      </trkpt>
      <trkpt lat="44.05058" lon="6.17943">
        <ele>584</ele>
      </trkpt>
      <trkpt lat="44.05083" lon="6.17963">
        <ele>585</ele>
      </trkpt>
      <trkpt lat="44.0512" lon="6.17995">
        <ele>582</ele>
      </trkpt>
      <trkpt lat="44.05132" lon="6.18017">
        <ele>586</ele>
      </trkpt>
      <trkpt lat="44.05135" lon="6.18023">
        <ele>586</ele>
      </trkpt>
      <trkpt lat="44.05151" lon="6.18051">
        <ele>587</ele>
      </trkpt>
      <trkpt lat="44.05154" lon="6.18055">
        <ele>587</ele>
      </trkpt>
      <trkpt lat="44.05169" lon="6.18081">
        <ele>587</ele>
      </trkpt>
      <trkpt lat="44.05184" lon="6.18104">
        <ele>587</ele>
      </trkpt>
      <trkpt lat="44.05193" lon="6.18122">
        <ele>588</ele>
      </trkpt>
      <trkpt lat="44.0521" lon="6.18158">
        <ele>588</ele>
      </trkpt>
      <trkpt lat="44.05219" lon="6.18182">
        <ele>592</ele>
      </trkpt>
      <trkpt lat="44.0523" lon="6.1821">
        <ele>593</ele>
      </trkpt>
      <trkpt lat="44.05237" lon="6.18218">
        <ele>593</ele>
      </trkpt>
      <trkpt lat="44.05247" lon="6.18231">
        <ele>593</ele>
      </trkpt>
      <trkpt lat="44.05256" lon="6.18242">
        <ele>589</ele>
      </trkpt>
      <trkpt lat="44.05264" lon="6.18252">
        <ele>589</ele>
      </trkpt>
      <trkpt lat="44.05274" lon="6.18261">
        <ele>587</ele>
      </trkpt>
      <trkpt lat="44.05284" lon="6.18275">
        <ele>586</ele>
      </trkpt>
      <trkpt lat="44.05291" lon="6.18297">
        <ele>586</ele>
      </trkpt>
      <trkpt lat="44.05295" lon="6.18308">
        <ele>586</ele>
      </trkpt>
      <trkpt lat="44.05298" lon="6.18322">
        <ele>586</ele>
      </trkpt>
      <trkpt lat="44.05297" lon="6.18328">
        <ele>586</ele>
      </trkpt>
      <trkpt lat="44.05295" lon="6.18347">
        <ele>588</ele>
      </trkpt>
      <trkpt lat="44.05297" lon="6.18363">
        <ele>588</ele>
      </trkpt>
      <trkpt lat="44.05305" lon="6.18369">
        <ele>588</ele>
      </trkpt>
      <trkpt lat="44.05312" lon="6.18373">
        <ele>587</ele>
      </trkpt>
      <trkpt lat="44.05313" lon="6.18382">
        <ele>588</ele>
      </trkpt>
      <trkpt lat="44.05311" lon="6.18398">
        <ele>588</ele>
      </trkpt>
      <trkpt lat="44.05305" lon="6.18411">
        <ele>588</ele>
      </trkpt>
      <trkpt lat="44.05302" lon="6.18429">
        <ele>592</ele>
      </trkpt>
      <trkpt lat="44.05312" lon="6.18452">
        <ele>593</ele>
      </trkpt>
      <trkpt lat="44.05318" lon="6.18461">
        <ele>594</ele>
      </trkpt>
      <trkpt lat="44.05321" lon="6.18465">
        <ele>594</ele>
      </trkpt>
      <trkpt lat="44.0534" lon="6.18481">
        <ele>595</ele>
      </trkpt>
      <trkpt lat="44.05352" lon="6.18486">
        <ele>595</ele>
      </trkpt>
      <trkpt lat="44.05358" lon="6.18489">
        <ele>595</ele>
      </trkpt>
      <trkpt lat="44.05373" lon="6.185">
        <ele>595</ele>
      </trkpt>
      <trkpt lat="44.05384" lon="6.1851">
        <ele>598</ele>
      </trkpt>
      <trkpt lat="44.05395" lon="6.18521">
        <ele>597</ele>
      </trkpt>
      <trkpt lat="44.05403" lon="6.18533">
        <ele>597</ele>
      </trkpt>
      <trkpt lat="44.05407" lon="6.18543">
        <ele>597</ele>
      </trkpt>
      <trkpt lat="44.05412" lon="6.18558">
        <ele>596</ele>
      </trkpt>
      <trkpt lat="44.05418" lon="6.18571">
        <ele>593</ele>
      </trkpt>
      <trkpt lat="44.05425" lon="6.18578">
        <ele>593</ele>
      </trkpt>
      <trkpt lat="44.0543" lon="6.18584">
        <ele>591</ele>
      </trkpt>
      <trkpt lat="44.05439" lon="6.18593">
        <ele>590</ele>
      </trkpt>
      <trkpt lat="44.05442" lon="6.186">
        <ele>590</ele>
      </trkpt>
      <trkpt lat="44.05448" lon="6.18609">
        <ele>589</ele>
      </trkpt>
      <trkpt lat="44.05453" lon="6.18614">
        <ele>589</ele>
      </trkpt>
      <trkpt lat="44.05461" lon="6.18625">
        <ele>589</ele>
      </trkpt>
      <trkpt lat="44.05469" lon="6.18631">
        <ele>588</ele>
      </trkpt>
      <trkpt lat="44.0547" lon="6.18632">
        <ele>588</ele>
      </trkpt>
      <trkpt lat="44.05476" lon="6.18639">
        <ele>588</ele>
      </trkpt>
      <trkpt lat="44.05483" lon="6.1865">
        <ele>587</ele>
      </trkpt>
      <trkpt lat="44.05487" lon="6.18661">
        <ele>586</ele>
      </trkpt>
      <trkpt lat="44.05492" lon="6.18671">
        <ele>586</ele>
      </trkpt>
      <trkpt lat="44.05497" lon="6.18684">
        <ele>588</ele>
      </trkpt>
      <trkpt lat="44.05502" lon="6.18696">
        <ele>582</ele>
      </trkpt>
      <trkpt lat="44.05507" lon="6.18699">
        <ele>582</ele>
      </trkpt>
      <trkpt lat="44.05514" lon="6.18701">
        <ele>582</ele>
      </trkpt>
      <trkpt lat="44.05523" lon="6.18703">
        <ele>582</ele>
      </trkpt>
      <trkpt lat="44.05531" lon="6.18707">
        <ele>581</ele>
      </trkpt>
      <trkpt lat="44.05543" lon="6.18714">
        <ele>580</ele>
      </trkpt>
      <trkpt lat="44.05552" lon="6.18723">
        <ele>580</ele>
      </trkpt>
      <trkpt lat="44.05558" lon="6.18734">
        <ele>579</ele>
      </trkpt>
      <trkpt lat="44.05563" lon="6.18744">
        <ele>578</ele>
      </trkpt>
      <trkpt lat="44.05566" lon="6.18751">
        <ele>578</ele>
      </trkpt>
      <trkpt lat="44.05573" lon="6.18757">
        <ele>577</ele>
      </trkpt>
      <trkpt lat="44.0558" lon="6.18765">
        <ele>577</ele>
      </trkpt>
      <trkpt lat="44.05583" lon="6.18769">
        <ele>578</ele>
      </trkpt>
      <trkpt lat="44.05591" lon="6.18778">
        <ele>573</ele>
      </trkpt>
      <trkpt lat="44.056" lon="6.18792">
        <ele>573</ele>
      </trkpt>
      <trkpt lat="44.05589" lon="6.18778">
        <ele>573</ele>
      </trkpt>
      <trkpt lat="44.05591" lon="6.18781">
        <ele>573</ele>
      </trkpt>
      <trkpt lat="44.05598" lon="6.1879">
        <ele>573</ele>
      </trkpt>
      <trkpt lat="44.05607" lon="6.18803">
        <ele>573</ele>
      </trkpt>
      <trkpt lat="44.05617" lon="6.18822">
        <ele>573</ele>
      </trkpt>
      <trkpt lat="44.05624" lon="6.18834">
        <ele>575</ele>
      </trkpt>
      <trkpt lat="44.05634" lon="6.18853">
        <ele>575</ele>
      </trkpt>
      <trkpt lat="44.05639" lon="6.18869">
        <ele>575</ele>
      </trkpt>
      <trkpt lat="44.0565" lon="6.18894">
        <ele>576</ele>
      </trkpt>
      <trkpt lat="44.05665" lon="6.18921">
        <ele>578</ele>
      </trkpt>
      <trkpt lat="44.0568" lon="6.18942">
        <ele>582</ele>
      </trkpt>
      <trkpt lat="44.05688" lon="6.18949">
        <ele>583</ele>
      </trkpt>
      <trkpt lat="44.05692" lon="6.18952">
        <ele>583</ele>
      </trkpt>
      <trkpt lat="44.05715" lon="6.18963">
        <ele>585</ele>
      </trkpt>
      <trkpt lat="44.05719" lon="6.18964">
        <ele>585</ele>
      </trkpt>
      <trkpt lat="44.05734" lon="6.18968">
        <ele>586</ele>
      </trkpt>
      <trkpt lat="44.05746" lon="6.18968">
        <ele>586</ele>
      </trkpt>
      <trkpt lat="44.0575" lon="6.18971">
        <ele>590</ele>
      </trkpt>
      <trkpt lat="44.05752" lon="6.18973">
        <ele>590</ele>
      </trkpt>
      <trkpt lat="44.05767" lon="6.18994">
        <ele>590</ele>
      </trkpt>
      <trkpt lat="44.05775" lon="6.19002">
        <ele>594</ele>
      </trkpt>
      <trkpt lat="44.05784" lon="6.19026">
        <ele>596</ele>
      </trkpt>
      <trkpt lat="44.05788" lon="6.19049">
        <ele>597</ele>
      </trkpt>
      <trkpt lat="44.05793" lon="6.19062">
        <ele>597</ele>
      </trkpt>
      <trkpt lat="44.05812" lon="6.19105">
        <ele>601</ele>
      </trkpt>
      <trkpt lat="44.05823" lon="6.19147">
        <ele>603</ele>
      </trkpt>
      <trkpt lat="44.05829" lon="6.19161">
        <ele>605</ele>
      </trkpt>
      <trkpt lat="44.05834" lon="6.19178">
        <ele>608</ele>
      </trkpt>
      <trkpt lat="44.0585" lon="6.19222">
        <ele>610</ele>
      </trkpt>
      <trkpt lat="44.05858" lon="6.19244">
        <ele>611</ele>
      </trkpt>
      <trkpt lat="44.05856" lon="6.19259">
        <ele>612</ele>
      </trkpt>
      <trkpt lat="44.05854" lon="6.19263">
        <ele>612</ele>
      </trkpt>
      <trkpt lat="44.05853" lon="6.19261">
        <ele>612</ele>
      </trkpt>
      <trkpt lat="44.05857" lon="6.19256">
        <ele>612</ele>
      </trkpt>
      <trkpt lat="44.05861" lon="6.19271">
        <ele>613</ele>
      </trkpt>
      <trkpt lat="44.05862" lon="6.19279">
        <ele>614</ele>
      </trkpt>
      <trkpt lat="44.05883" lon="6.1931">
        <ele>617</ele>
      </trkpt>
      <trkpt lat="44.05888" lon="6.19314">
        <ele>617</ele>
      </trkpt>
      <trkpt lat="44.05898" lon="6.19313">
        <ele>619</ele>
      </trkpt>
      <trkpt lat="44.05901" lon="6.19289">
        <ele>618</ele>
      </trkpt>
      <trkpt lat="44.05906" lon="6.19276">
        <ele>618</ele>
      </trkpt>
      <trkpt lat="44.05916" lon="6.19278">
        <ele>618</ele>
      </trkpt>
      <trkpt lat="44.0592" lon="6.19294">
        <ele>631</ele>
      </trkpt>
      <trkpt lat="44.05932" lon="6.19333">
        <ele>630</ele>
      </trkpt>
      <trkpt lat="44.05958" lon="6.19381">
        <ele>638</ele>
      </trkpt>
      <trkpt lat="44.05981" lon="6.19407">
        <ele>643</ele>
      </trkpt>
      <trkpt lat="44.05988" lon="6.19416">
        <ele>646</ele>
      </trkpt>
      <trkpt lat="44.06003" lon="6.19465">
        <ele>657</ele>
      </trkpt>
      <trkpt lat="44.06008" lon="6.19528">
        <ele>654</ele>
      </trkpt>
      <trkpt lat="44.06023" lon="6.19574">
        <ele>654</ele>
      </trkpt>
      <trkpt lat="44.06027" lon="6.196">
        <ele>653</ele>
      </trkpt>
      <trkpt lat="44.06028" lon="6.19644">
        <ele>654</ele>
      </trkpt>
      <trkpt lat="44.06032" lon="6.19667">
        <ele>655</ele>
      </trkpt>
      <trkpt lat="44.0604" lon="6.19673">
        <ele>656</ele>
      </trkpt>
      <trkpt lat="44.06044" lon="6.19644">
        <ele>655</ele>
      </trkpt>
      <trkpt lat="44.06048" lon="6.19621">
        <ele>655</ele>
      </trkpt>
      <trkpt lat="44.06051" lon="6.19616">
        <ele>655</ele>
      </trkpt>
      <trkpt lat="44.06065" lon="6.19622">
        <ele>656</ele>
      </trkpt>
      <trkpt lat="44.06078" lon="6.19628">
        <ele>657</ele>
      </trkpt>
      <trkpt lat="44.06092" lon="6.19632">
        <ele>654</ele>
      </trkpt>
      <trkpt lat="44.06108" lon="6.19638">
        <ele>653</ele>
      </trkpt>
      <trkpt lat="44.06122" lon="6.19638">
        <ele>652</ele>
      </trkpt>
      <trkpt lat="44.06127" lon="6.19622">
        <ele>652</ele>
      </trkpt>
      <trkpt lat="44.06135" lon="6.19602">
        <ele>652</ele>
      </trkpt>
      <trkpt lat="44.06143" lon="6.19581">
        <ele>654</ele>
      </trkpt>
      <trkpt lat="44.06149" lon="6.19569">
        <ele>654</ele>
      </trkpt>
      <trkpt lat="44.06154" lon="6.19559">
        <ele>655</ele>
      </trkpt>
      <trkpt lat="44.06161" lon="6.19545">
        <ele>656</ele>
      </trkpt>
      <trkpt lat="44.06166" lon="6.19531">
        <ele>656</ele>
      </trkpt>
      <trkpt lat="44.06171" lon="6.19518">
        <ele>650</ele>
      </trkpt>
      <trkpt lat="44.06177" lon="6.19507">
        <ele>651</ele>
      </trkpt>
      <trkpt lat="44.06185" lon="6.19495">
        <ele>652</ele>
      </trkpt>
      <trkpt lat="44.06198" lon="6.19476">
        <ele>650</ele>
      </trkpt>
      <trkpt lat="44.06203" lon="6.19467">
        <ele>650</ele>
      </trkpt>
      <trkpt lat="44.06205" lon="6.19467">
        <ele>649</ele>
      </trkpt>
      <trkpt lat="44.06214" lon="6.19472">
        <ele>648</ele>
      </trkpt>
      <trkpt lat="44.06223" lon="6.19487">
        <ele>646</ele>
      </trkpt>
      <trkpt lat="44.06229" lon="6.19501">
        <ele>643</ele>
      </trkpt>
      <trkpt lat="44.06238" lon="6.19521">
        <ele>642</ele>
      </trkpt>
      <trkpt lat="44.06246" lon="6.19535">
        <ele>642</ele>
      </trkpt>
      <trkpt lat="44.06259" lon="6.19557">
        <ele>630</ele>
      </trkpt>
      <trkpt lat="44.06267" lon="6.19573">
        <ele>630</ele>
      </trkpt>
      <trkpt lat="44.06269" lon="6.19587">
        <ele>629</ele>
      </trkpt>
      <trkpt lat="44.06271" lon="6.19602">
        <ele>627</ele>
      </trkpt>
      <trkpt lat="44.06268" lon="6.1962">
        <ele>626</ele>
      </trkpt>
      <trkpt lat="44.06267" lon="6.19628">
        <ele>626</ele>
      </trkpt>
      <trkpt lat="44.06267" lon="6.1963">
        <ele>626</ele>
      </trkpt>
      <trkpt lat="44.06266" lon="6.19642">
        <ele>626</ele>
      </trkpt>
      <trkpt lat="44.06264" lon="6.19663">
        <ele>627</ele>
      </trkpt>
      <trkpt lat="44.06266" lon="6.19675">
        <ele>625</ele>
      </trkpt>
      <trkpt lat="44.06269" lon="6.19684">
        <ele>623</ele>
      </trkpt>
      <trkpt lat="44.06279" lon="6.19702">
        <ele>622</ele>
      </trkpt>
      <trkpt lat="44.0629" lon="6.19715">
        <ele>621</ele>
      </trkpt>
      <trkpt lat="44.06295" lon="6.19721">
        <ele>620</ele>
      </trkpt>
      <trkpt lat="44.06299" lon="6.19725">
        <ele>620</ele>
      </trkpt>
      <trkpt lat="44.06303" lon="6.19735">
        <ele>619</ele>
      </trkpt>
      <trkpt lat="44.06305" lon="6.1975">
        <ele>617</ele>
      </trkpt>
      <trkpt lat="44.06305" lon="6.19762">
        <ele>618</ele>
      </trkpt>
      <trkpt lat="44.06306" lon="6.19767">
        <ele>618</ele>
      </trkpt>
      <trkpt lat="44.06306" lon="6.19777">
        <ele>618</ele>
      </trkpt>
      <trkpt lat="44.0631" lon="6.19792">
        <ele>617</ele>
      </trkpt>
      <trkpt lat="44.06311" lon="6.19798">
        <ele>617</ele>
      </trkpt>
      <trkpt lat="44.06314" lon="6.1981">
        <ele>616</ele>
      </trkpt>
      <trkpt lat="44.06314" lon="6.19821">
        <ele>616</ele>
      </trkpt>
      <trkpt lat="44.06316" lon="6.19827">
        <ele>615</ele>
      </trkpt>
      <trkpt lat="44.06321" lon="6.19834">
        <ele>612</ele>
      </trkpt>
      <trkpt lat="44.06328" lon="6.19839">
        <ele>612</ele>
      </trkpt>
      <trkpt lat="44.06336" lon="6.19843">
        <ele>608</ele>
      </trkpt>
      <trkpt lat="44.06344" lon="6.19846">
        <ele>607</ele>
      </trkpt>
      <trkpt lat="44.06353" lon="6.19849">
        <ele>606</ele>
      </trkpt>
      <trkpt lat="44.06354" lon="6.1985">
        <ele>606</ele>
      </trkpt>
      <trkpt lat="44.0636" lon="6.19853">
        <ele>605</ele>
      </trkpt>
      <trkpt lat="44.06366" lon="6.19857">
        <ele>604</ele>
      </trkpt>
      <trkpt lat="44.06376" lon="6.19856">
        <ele>604</ele>
      </trkpt>
      <trkpt lat="44.06382" lon="6.19858">
        <ele>603</ele>
      </trkpt>
      <trkpt lat="44.06385" lon="6.19862">
        <ele>603</ele>
      </trkpt>
      <trkpt lat="44.06396" lon="6.19871">
        <ele>602</ele>
      </trkpt>
      <trkpt lat="44.06415" lon="6.19881">
        <ele>602</ele>
      </trkpt>
      <trkpt lat="44.06436" lon="6.19886">
        <ele>596</ele>
      </trkpt>
      <trkpt lat="44.0646" lon="6.19892">
        <ele>595</ele>
      </trkpt>
      <trkpt lat="44.06488" lon="6.19911">
        <ele>593</ele>
      </trkpt>
      <trkpt lat="44.06516" lon="6.19936">
        <ele>592</ele>
      </trkpt>
      <trkpt lat="44.06545" lon="6.19962">
        <ele>592</ele>
      </trkpt>
      <trkpt lat="44.06594" lon="6.20001">
        <ele>592</ele>
      </trkpt>
      <trkpt lat="44.06625" lon="6.20028">
        <ele>592</ele>
      </trkpt>
      <trkpt lat="44.06647" lon="6.20045">
        <ele>592</ele>
      </trkpt>
      <trkpt lat="44.06662" lon="6.20061">
        <ele>592</ele>
      </trkpt>
      <trkpt lat="44.067" lon="6.20106">
        <ele>591</ele>
      </trkpt>
      <trkpt lat="44.06712" lon="6.20119">
        <ele>591</ele>
      </trkpt>
      <trkpt lat="44.06745" lon="6.20152">
        <ele>592</ele>
      </trkpt>
      <trkpt lat="44.06779" lon="6.20194">
        <ele>590</ele>
      </trkpt>
      <trkpt lat="44.06819" lon="6.20246">
        <ele>589</ele>
      </trkpt>
      <trkpt lat="44.06859" lon="6.20301">
        <ele>588</ele>
      </trkpt>
      <trkpt lat="44.06886" lon="6.20344">
        <ele>588</ele>
      </trkpt>
      <trkpt lat="44.06889" lon="6.20351">
        <ele>588</ele>
      </trkpt>
      <trkpt lat="44.06909" lon="6.20405">
        <ele>587</ele>
      </trkpt>
      <trkpt lat="44.06928" lon="6.20446">
        <ele>587</ele>
      </trkpt>
      <trkpt lat="44.06933" lon="6.20451">
        <ele>586</ele>
      </trkpt>
      <trkpt lat="44.06976" lon="6.20485">
        <ele>586</ele>
      </trkpt>
      <trkpt lat="44.07008" lon="6.20508">
        <ele>587</ele>
      </trkpt>
      <trkpt lat="44.07045" lon="6.20538">
        <ele>589</ele>
      </trkpt>
      <trkpt lat="44.07077" lon="6.20568">
        <ele>591</ele>
      </trkpt>
      <trkpt lat="44.07122" lon="6.20598">
        <ele>593</ele>
      </trkpt>
      <trkpt lat="44.07154" lon="6.20625">
        <ele>594</ele>
      </trkpt>
      <trkpt lat="44.07159" lon="6.20631">
        <ele>594</ele>
      </trkpt>
      <trkpt lat="44.07192" lon="6.20678">
        <ele>596</ele>
      </trkpt>
      <trkpt lat="44.07195" lon="6.20685">
        <ele>596</ele>
      </trkpt>
      <trkpt lat="44.07202" lon="6.2071">
        <ele>596</ele>
      </trkpt>
      <trkpt lat="44.07208" lon="6.20725">
        <ele>597</ele>
      </trkpt>
      <trkpt lat="44.0721" lon="6.20726">
        <ele>597</ele>
      </trkpt>
      <trkpt lat="44.07239" lon="6.20736">
        <ele>597</ele>
      </trkpt>
      <trkpt lat="44.07275" lon="6.20748">
        <ele>595</ele>
      </trkpt>
      <trkpt lat="44.07309" lon="6.20761">
        <ele>597</ele>
      </trkpt>
      <trkpt lat="44.07331" lon="6.20768">
        <ele>596</ele>
      </trkpt>
      <trkpt lat="44.07349" lon="6.20773">
        <ele>594</ele>
      </trkpt>
      <trkpt lat="44.07369" lon="6.20779">
        <ele>594</ele>
      </trkpt>
      <trkpt lat="44.0738" lon="6.20785">
        <ele>594</ele>
      </trkpt>
      <trkpt lat="44.07381" lon="6.20785">
        <ele>594</ele>
      </trkpt>
      <trkpt lat="44.07386" lon="6.20785">
        <ele>594</ele>
      </trkpt>
      <trkpt lat="44.07391" lon="6.20788">
        <ele>594</ele>
      </trkpt>
      <trkpt lat="44.07397" lon="6.20791">
        <ele>593</ele>
      </trkpt>
      <trkpt lat="44.07402" lon="6.20793">
        <ele>593</ele>
      </trkpt>
      <trkpt lat="44.07404" lon="6.20794">
        <ele>593</ele>
      </trkpt>
      <trkpt lat="44.07415" lon="6.20797">
        <ele>593</ele>
      </trkpt>
      <trkpt lat="44.07427" lon="6.20794">
        <ele>590</ele>
      </trkpt>
      <trkpt lat="44.07441" lon="6.208">
        <ele>590</ele>
      </trkpt>
      <trkpt lat="44.07461" lon="6.20805">
        <ele>589</ele>
      </trkpt>
      <trkpt lat="44.0748" lon="6.20801">
        <ele>589</ele>
      </trkpt>
      <trkpt lat="44.07504" lon="6.20787">
        <ele>585</ele>
      </trkpt>
      <trkpt lat="44.07523" lon="6.20776">
        <ele>584</ele>
      </trkpt>
      <trkpt lat="44.07547" lon="6.2077">
        <ele>584</ele>
      </trkpt>
      <trkpt lat="44.07571" lon="6.20769">
        <ele>583</ele>
      </trkpt>
      <trkpt lat="44.07589" lon="6.2077">
        <ele>579</ele>
      </trkpt>
      <trkpt lat="44.0761" lon="6.20775">
        <ele>579</ele>
      </trkpt>
      <trkpt lat="44.07626" lon="6.20781">
        <ele>578</ele>
      </trkpt>
      <trkpt lat="44.07626" lon="6.20767">
        <ele>578</ele>
      </trkpt>
      <trkpt lat="44.07599" lon="6.2072">
        <ele>577</ele>
      </trkpt>
      <trkpt lat="44.07576" lon="6.20676">
        <ele>579</ele>
      </trkpt>
      <trkpt lat="44.07554" lon="6.20635">
        <ele>579</ele>
      </trkpt>
      <trkpt lat="44.07552" lon="6.20617">
        <ele>579</ele>
      </trkpt>
      <trkpt lat="44.07555" lon="6.20613">
        <ele>578</ele>
      </trkpt>
      <trkpt lat="44.07581" lon="6.20598">
        <ele>577</ele>
      </trkpt>
      <trkpt lat="44.07598" lon="6.20584">
        <ele>576</ele>
      </trkpt>
      <trkpt lat="44.07604" lon="6.20566">
        <ele>575</ele>
      </trkpt>
      <trkpt lat="44.07605" lon="6.2056">
        <ele>575</ele>
      </trkpt>
      <trkpt lat="44.07613" lon="6.20544">
        <ele>574</ele>
      </trkpt>
      <trkpt lat="44.07615" lon="6.20543">
        <ele>574</ele>
      </trkpt>
      <trkpt lat="44.07629" lon="6.20545">
        <ele>574</ele>
      </trkpt>
      <trkpt lat="44.07642" lon="6.20552">
        <ele>574</ele>
      </trkpt>
      <trkpt lat="44.07663" lon="6.20558">
        <ele>574</ele>
      </trkpt>
      <trkpt lat="44.07678" lon="6.20565">
        <ele>573</ele>
      </trkpt>
      <trkpt lat="44.07691" lon="6.2057">
        <ele>573</ele>
      </trkpt>
      <trkpt lat="44.07702" lon="6.20574">
        <ele>573</ele>
      </trkpt>
      <trkpt lat="44.07714" lon="6.20581">
        <ele>573</ele>
      </trkpt>
      <trkpt lat="44.07726" lon="6.20588">
        <ele>574</ele>
      </trkpt>
      <trkpt lat="44.07739" lon="6.20596">
        <ele>574</ele>
      </trkpt>
      <trkpt lat="44.0775" lon="6.20605">
        <ele>572</ele>
      </trkpt>
      <trkpt lat="44.07762" lon="6.2061">
        <ele>572</ele>
      </trkpt>
      <trkpt lat="44.07763" lon="6.2061">
        <ele>572</ele>
      </trkpt>
      <trkpt lat="44.07762" lon="6.20613">
        <ele>572</ele>
      </trkpt>
      <trkpt lat="44.07762" lon="6.20616">
        <ele>572</ele>
      </trkpt>
      <trkpt lat="44.0777" lon="6.20641">
        <ele>572</ele>
      </trkpt>
      <trkpt lat="44.07779" lon="6.20671">
        <ele>572</ele>
      </trkpt>
      <trkpt lat="44.07779" lon="6.20707">
        <ele>571</ele>
      </trkpt>
      <trkpt lat="44.0778" lon="6.20751">
        <ele>570</ele>
      </trkpt>
      <trkpt lat="44.0778" lon="6.20757">
        <ele>570</ele>
      </trkpt>
      <trkpt lat="44.07787" lon="6.20793">
        <ele>570</ele>
      </trkpt>
      <trkpt lat="44.07798" lon="6.20821">
        <ele>570</ele>
      </trkpt>
      <trkpt lat="44.07808" lon="6.20853">
        <ele>571</ele>
      </trkpt>
      <trkpt lat="44.07817" lon="6.20876">
        <ele>572</ele>
      </trkpt>
      <trkpt lat="44.07826" lon="6.20901">
        <ele>572</ele>
      </trkpt>
      <trkpt lat="44.07839" lon="6.20935">
        <ele>572</ele>
      </trkpt>
      <trkpt lat="44.07859" lon="6.20993">
        <ele>573</ele>
      </trkpt>
      <trkpt lat="44.07864" lon="6.21005">
        <ele>574</ele>
      </trkpt>
      <trkpt lat="44.07887" lon="6.21062">
        <ele>574</ele>
      </trkpt>
      <trkpt lat="44.07916" lon="6.21128">
        <ele>576</ele>
      </trkpt>
      <trkpt lat="44.07938" lon="6.2118">
        <ele>573</ele>
      </trkpt>
      <trkpt lat="44.07953" lon="6.21218">
        <ele>574</ele>
      </trkpt>
      <trkpt lat="44.07974" lon="6.21273">
        <ele>575</ele>
      </trkpt>
      <trkpt lat="44.07986" lon="6.21305">
        <ele>575</ele>
      </trkpt>
      <trkpt lat="44.08008" lon="6.21366">
        <ele>574</ele>
      </trkpt>
      <trkpt lat="44.08024" lon="6.21419">
        <ele>576</ele>
      </trkpt>
      <trkpt lat="44.08025" lon="6.21424">
        <ele>576</ele>
      </trkpt>
      <trkpt lat="44.0803" lon="6.2144">
        <ele>576</ele>
      </trkpt>
      <trkpt lat="44.08034" lon="6.21449">
        <ele>576</ele>
      </trkpt>
      <trkpt lat="44.08035" lon="6.21452">
        <ele>576</ele>
      </trkpt>
      <trkpt lat="44.08042" lon="6.21476">
        <ele>577</ele>
      </trkpt>
      <trkpt lat="44.08045" lon="6.21488">
        <ele>577</ele>
      </trkpt>
      <trkpt lat="44.08043" lon="6.21506">
        <ele>579</ele>
      </trkpt>
      <trkpt lat="44.08036" lon="6.21521">
        <ele>579</ele>
      </trkpt>
      <trkpt lat="44.08051" lon="6.21541">
        <ele>579</ele>
      </trkpt>
      <trkpt lat="44.0806" lon="6.21565">
        <ele>578</ele>
      </trkpt>
      <trkpt lat="44.08061" lon="6.2158">
        <ele>578</ele>
      </trkpt>
      <trkpt lat="44.08075" lon="6.21622">
        <ele>579</ele>
      </trkpt>
      <trkpt lat="44.08086" lon="6.21657">
        <ele>577</ele>
      </trkpt>
      <trkpt lat="44.08101" lon="6.21698">
        <ele>579</ele>
      </trkpt>
      <trkpt lat="44.08114" lon="6.21749">
        <ele>580</ele>
      </trkpt>
      <trkpt lat="44.08118" lon="6.21766">
        <ele>580</ele>
      </trkpt>
      <trkpt lat="44.08125" lon="6.21785">
        <ele>580</ele>
      </trkpt>
      <trkpt lat="44.08138" lon="6.21798">
        <ele>580</ele>
      </trkpt>
      <trkpt lat="44.08148" lon="6.21815">
        <ele>580</ele>
      </trkpt>
      <trkpt lat="44.08157" lon="6.2183">
        <ele>579</ele>
      </trkpt>
      <trkpt lat="44.08173" lon="6.21869">
        <ele>579</ele>
      </trkpt>
      <trkpt lat="44.08187" lon="6.21913">
        <ele>579</ele>
      </trkpt>
      <trkpt lat="44.08211" lon="6.21981">
        <ele>580</ele>
      </trkpt>
      <trkpt lat="44.08233" lon="6.22043">
        <ele>581</ele>
      </trkpt>
      <trkpt lat="44.08264" lon="6.22104">
        <ele>582</ele>
      </trkpt>
      <trkpt lat="44.08297" lon="6.22165">
        <ele>582</ele>
      </trkpt>
      <trkpt lat="44.08318" lon="6.22205">
        <ele>583</ele>
      </trkpt>
      <trkpt lat="44.08327" lon="6.22223">
        <ele>583</ele>
      </trkpt>
      <trkpt lat="44.08343" lon="6.22257">
        <ele>582</ele>
      </trkpt>
      <trkpt lat="44.08371" lon="6.22313">
        <ele>581</ele>
      </trkpt>
      <trkpt lat="44.08404" lon="6.2238">
        <ele>582</ele>
      </trkpt>
      <trkpt lat="44.08434" lon="6.22439">
        <ele>583</ele>
      </trkpt>
      <trkpt lat="44.08466" lon="6.22504">
        <ele>584</ele>
      </trkpt>
      <trkpt lat="44.08492" lon="6.22548">
        <ele>585</ele>
      </trkpt>
      <trkpt lat="44.08535" lon="6.22597">
        <ele>586</ele>
      </trkpt>
      <trkpt lat="44.08576" lon="6.22632">
        <ele>587</ele>
      </trkpt>
      <trkpt lat="44.08606" lon="6.22658">
        <ele>585</ele>
      </trkpt>
      <trkpt lat="44.08638" lon="6.22686">
        <ele>587</ele>
      </trkpt>
      <trkpt lat="44.08669" lon="6.22713">
        <ele>586</ele>
      </trkpt>
      <trkpt lat="44.0869" lon="6.22731">
        <ele>586</ele>
      </trkpt>
      <trkpt lat="44.08737" lon="6.22771">
        <ele>587</ele>
      </trkpt>
      <trkpt lat="44.08782" lon="6.2281">
        <ele>587</ele>
      </trkpt>
      <trkpt lat="44.08821" lon="6.22844">
        <ele>588</ele>
      </trkpt>
      <trkpt lat="44.08848" lon="6.22868">
        <ele>588</ele>
      </trkpt>
      <trkpt lat="44.08882" lon="6.22896">
        <ele>588</ele>
      </trkpt>
      <trkpt lat="44.0892" lon="6.22929">
        <ele>590</ele>
      </trkpt>
      <trkpt lat="44.08937" lon="6.22947">
        <ele>591</ele>
      </trkpt>
      <trkpt lat="44.08946" lon="6.22952">
        <ele>591</ele>
      </trkpt>
      <trkpt lat="44.08957" lon="6.22961">
        <ele>591</ele>
      </trkpt>
      <trkpt lat="44.08984" lon="6.22984">
        <ele>591</ele>
      </trkpt>
      <trkpt lat="44.0902" lon="6.23013">
        <ele>591</ele>
      </trkpt>
      <trkpt lat="44.09024" lon="6.23016">
        <ele>591</ele>
      </trkpt>
      <trkpt lat="44.09033" lon="6.23034">
        <ele>592</ele>
      </trkpt>
      <trkpt lat="44.09038" lon="6.23046">
        <ele>592</ele>
      </trkpt>
      <trkpt lat="44.09051" lon="6.23046">
        <ele>592</ele>
      </trkpt>
      <trkpt lat="44.09061" lon="6.23051">
        <ele>592</ele>
      </trkpt>
      <trkpt lat="44.09059" lon="6.23064">
        <ele>592</ele>
      </trkpt>
      <trkpt lat="44.09064" lon="6.23087">
        <ele>594</ele>
      </trkpt>
      <trkpt lat="44.09073" lon="6.23089">
        <ele>593</ele>
      </trkpt>
      <trkpt lat="44.0909" lon="6.23087">
        <ele>593</ele>
      </trkpt>
      <trkpt lat="44.09101" lon="6.23089">
        <ele>594</ele>
      </trkpt>
      <trkpt lat="44.09112" lon="6.23113">
        <ele>594</ele>
      </trkpt>
    </trkseg>
  </trk>
</gpx>